<?xml version="1.0" encoding="UTF-8" standalone="no" ?>
<gpx xmlns="http://www.topografix.com/GPX/1/1" xmlns:xsi="http://www.w3.org/2001/XMLSchema-instance" xsi:schemaLocation="http://www.topografix.com/GPX/1/1 http://www.topografix.com/GPX/1/1/gpx.xsd" version="1.1" creator="VisuGPX - https://www.visugpx.com">
  <metadata>
    <name>Lougres Montenois Arcey</name>
    <desc><![CDATA[Lougres Montenois Arcey_________________]]></desc>
  </metadata>
  <wpt lat="47.4912" lon="6.76203">
    <ele>352.9</ele>
    <name><![CDATA[Point de cheminement 1]]></name>
    <desc><![CDATA[]]></desc>
  </wpt>
  <wpt lat="47.49039" lon="6.70428">
    <ele>483.7</ele>
    <name><![CDATA[Point de cheminement 2]]></name>
    <desc><![CDATA[]]></desc>
  </wpt>
  <wpt lat="47.47726" lon="6.68241">
    <ele>431.2</ele>
    <name><![CDATA[Point de cheminement 3]]></name>
    <desc><![CDATA[]]></desc>
  </wpt>
  <wpt lat="47.49869" lon="6.65651">
    <ele>464.5</ele>
    <name><![CDATA[Point de cheminement 4]]></name>
    <desc><![CDATA[]]></desc>
  </wpt>
  <wpt lat="47.52201" lon="6.67666">
    <ele>416.8</ele>
    <name><![CDATA[Point de cheminement 5]]></name>
    <desc><![CDATA[]]></desc>
  </wpt>
  <wpt lat="47.51264" lon="6.70971">
    <ele>487.8</ele>
    <name><![CDATA[Point de cheminement 6]]></name>
    <desc><![CDATA[]]></desc>
  </wpt>
  <wpt lat="47.50163" lon="6.76384">
    <ele>404.8</ele>
    <name><![CDATA[Point de cheminement 7]]></name>
    <desc><![CDATA[]]></desc>
  </wpt>
  <trk>
    <name><![CDATA[18]]></name>
    <desc><![CDATA[]]></desc>
    <trkseg>
      <trkpt lat="47.51801" lon="6.77486">
        <ele>388.2</ele>
        <time>2017-10-22T07:15:54.704Z</time>
      </trkpt>
      <trkpt lat="47.51792" lon="6.77475">
        <ele>407.4</ele>
        <time>2017-10-22T07:15:55.697Z</time>
      </trkpt>
      <trkpt lat="47.51794" lon="6.77481">
        <ele>435.6</ele>
        <time>2017-10-22T07:16:04.000Z</time>
      </trkpt>
      <trkpt lat="47.51802" lon="6.77478">
        <ele>432.9</ele>
        <time>2017-10-22T07:16:05.000Z</time>
      </trkpt>
      <trkpt lat="47.51802" lon="6.77478">
        <ele>433.6</ele>
        <time>2017-10-22T07:16:08.000Z</time>
      </trkpt>
      <trkpt lat="47.5181" lon="6.77481">
        <ele>435.2</ele>
        <time>2017-10-22T07:16:09.000Z</time>
      </trkpt>
      <trkpt lat="47.5181" lon="6.77481">
        <ele>438.2</ele>
        <time>2017-10-22T07:16:12.000Z</time>
      </trkpt>
      <trkpt lat="47.51811" lon="6.7749">
        <ele>435.7</ele>
        <time>2017-10-22T07:16:13.000Z</time>
      </trkpt>
      <trkpt lat="47.51811" lon="6.7749">
        <ele>435.1</ele>
        <time>2017-10-22T07:16:15.000Z</time>
      </trkpt>
      <trkpt lat="47.51803" lon="6.77491">
        <ele>434.7</ele>
        <time>2017-10-22T07:16:16.000Z</time>
      </trkpt>
      <trkpt lat="47.51799" lon="6.77491">
        <ele>434.6</ele>
        <time>2017-10-22T07:16:17.000Z</time>
      </trkpt>
      <trkpt lat="47.51795" lon="6.77491">
        <ele>434.5</ele>
        <time>2017-10-22T07:16:18.000Z</time>
      </trkpt>
      <trkpt lat="47.51792" lon="6.7749">
        <ele>436.3</ele>
        <time>2017-10-22T07:16:19.000Z</time>
      </trkpt>
      <trkpt lat="47.51789" lon="6.77489">
        <ele>438.3</ele>
        <time>2017-10-22T07:16:20.000Z</time>
      </trkpt>
      <trkpt lat="47.51786" lon="6.77489">
        <ele>439.4</ele>
        <time>2017-10-22T07:16:21.000Z</time>
      </trkpt>
      <trkpt lat="47.51782" lon="6.77491">
        <ele>441.1</ele>
        <time>2017-10-22T07:16:22.000Z</time>
      </trkpt>
      <trkpt lat="47.51779" lon="6.77491">
        <ele>440.7</ele>
        <time>2017-10-22T07:16:23.000Z</time>
      </trkpt>
      <trkpt lat="47.51776" lon="6.77489">
        <ele>439.4</ele>
        <time>2017-10-22T07:16:24.000Z</time>
      </trkpt>
      <trkpt lat="47.51774" lon="6.77486">
        <ele>438.7</ele>
        <time>2017-10-22T07:16:25.000Z</time>
      </trkpt>
      <trkpt lat="47.51769" lon="6.77485">
        <ele>438.1</ele>
        <time>2017-10-22T07:16:26.000Z</time>
      </trkpt>
      <trkpt lat="47.51765" lon="6.77484">
        <ele>438.4</ele>
        <time>2017-10-22T07:16:27.000Z</time>
      </trkpt>
      <trkpt lat="47.51762" lon="6.77483">
        <ele>438.4</ele>
        <time>2017-10-22T07:16:28.000Z</time>
      </trkpt>
      <trkpt lat="47.51759" lon="6.77482">
        <ele>438.4</ele>
        <time>2017-10-22T07:16:29.000Z</time>
      </trkpt>
      <trkpt lat="47.51755" lon="6.7748">
        <ele>438.5</ele>
        <time>2017-10-22T07:16:30.000Z</time>
      </trkpt>
      <trkpt lat="47.51751" lon="6.7748">
        <ele>438.5</ele>
        <time>2017-10-22T07:16:31.000Z</time>
      </trkpt>
      <trkpt lat="47.51747" lon="6.7748">
        <ele>438.5</ele>
        <time>2017-10-22T07:16:32.000Z</time>
      </trkpt>
      <trkpt lat="47.51744" lon="6.77479">
        <ele>438.6</ele>
        <time>2017-10-22T07:16:33.000Z</time>
      </trkpt>
      <trkpt lat="47.5174" lon="6.77478">
        <ele>438.6</ele>
        <time>2017-10-22T07:16:34.000Z</time>
      </trkpt>
      <trkpt lat="47.51737" lon="6.7748">
        <ele>438.6</ele>
        <time>2017-10-22T07:16:35.000Z</time>
      </trkpt>
      <trkpt lat="47.51734" lon="6.77481">
        <ele>438.7</ele>
        <time>2017-10-22T07:16:36.000Z</time>
      </trkpt>
      <trkpt lat="47.51731" lon="6.77482">
        <ele>439.3</ele>
        <time>2017-10-22T07:16:37.000Z</time>
      </trkpt>
      <trkpt lat="47.51729" lon="6.77486">
        <ele>439.3</ele>
        <time>2017-10-22T07:16:38.000Z</time>
      </trkpt>
      <trkpt lat="47.51728" lon="6.7749">
        <ele>439.4</ele>
        <time>2017-10-22T07:16:39.000Z</time>
      </trkpt>
      <trkpt lat="47.51727" lon="6.77494">
        <ele>440.8</ele>
        <time>2017-10-22T07:16:40.000Z</time>
      </trkpt>
      <trkpt lat="47.51726" lon="6.77499">
        <ele>442.3</ele>
        <time>2017-10-22T07:16:41.000Z</time>
      </trkpt>
      <trkpt lat="47.51724" lon="6.77504">
        <ele>443.7</ele>
        <time>2017-10-22T07:16:42.000Z</time>
      </trkpt>
      <trkpt lat="47.51723" lon="6.77508">
        <ele>444.6</ele>
        <time>2017-10-22T07:16:43.000Z</time>
      </trkpt>
      <trkpt lat="47.5172" lon="6.77514">
        <ele>445.5</ele>
        <time>2017-10-22T07:16:44.000Z</time>
      </trkpt>
      <trkpt lat="47.51718" lon="6.7752">
        <ele>445.5</ele>
        <time>2017-10-22T07:16:45.000Z</time>
      </trkpt>
      <trkpt lat="47.51716" lon="6.77527">
        <ele>444.9</ele>
        <time>2017-10-22T07:16:46.000Z</time>
      </trkpt>
      <trkpt lat="47.51715" lon="6.77533">
        <ele>445</ele>
        <time>2017-10-22T07:16:47.000Z</time>
      </trkpt>
      <trkpt lat="47.51714" lon="6.7754">
        <ele>445.1</ele>
        <time>2017-10-22T07:16:48.000Z</time>
      </trkpt>
      <trkpt lat="47.51712" lon="6.77543">
        <ele>445</ele>
        <time>2017-10-22T07:16:49.000Z</time>
      </trkpt>
      <trkpt lat="47.51708" lon="6.77545">
        <ele>444.9</ele>
        <time>2017-10-22T07:16:50.000Z</time>
      </trkpt>
      <trkpt lat="47.51704" lon="6.77543">
        <ele>443.3</ele>
        <time>2017-10-22T07:16:51.000Z</time>
      </trkpt>
      <trkpt lat="47.517" lon="6.7754">
        <ele>441.1</ele>
        <time>2017-10-22T07:16:52.000Z</time>
      </trkpt>
      <trkpt lat="47.51697" lon="6.77537">
        <ele>440.1</ele>
        <time>2017-10-22T07:16:53.000Z</time>
      </trkpt>
      <trkpt lat="47.51693" lon="6.77533">
        <ele>438.2</ele>
        <time>2017-10-22T07:16:54.000Z</time>
      </trkpt>
      <trkpt lat="47.51689" lon="6.77529">
        <ele>436.5</ele>
        <time>2017-10-22T07:16:55.000Z</time>
      </trkpt>
      <trkpt lat="47.51686" lon="6.77526">
        <ele>434.9</ele>
        <time>2017-10-22T07:16:56.000Z</time>
      </trkpt>
      <trkpt lat="47.51682" lon="6.77521">
        <ele>434.1</ele>
        <time>2017-10-22T07:16:57.000Z</time>
      </trkpt>
      <trkpt lat="47.51678" lon="6.77517">
        <ele>433.5</ele>
        <time>2017-10-22T07:16:58.000Z</time>
      </trkpt>
      <trkpt lat="47.51675" lon="6.77513">
        <ele>433.1</ele>
        <time>2017-10-22T07:16:59.000Z</time>
      </trkpt>
      <trkpt lat="47.51671" lon="6.77507">
        <ele>433.3</ele>
        <time>2017-10-22T07:17:00.000Z</time>
      </trkpt>
      <trkpt lat="47.51667" lon="6.77502">
        <ele>433.1</ele>
        <time>2017-10-22T07:17:01.000Z</time>
      </trkpt>
      <trkpt lat="47.51662" lon="6.77497">
        <ele>432.6</ele>
        <time>2017-10-22T07:17:02.000Z</time>
      </trkpt>
      <trkpt lat="47.51657" lon="6.77491">
        <ele>432.5</ele>
        <time>2017-10-22T07:17:03.000Z</time>
      </trkpt>
      <trkpt lat="47.51652" lon="6.77486">
        <ele>432.2</ele>
        <time>2017-10-22T07:17:04.000Z</time>
      </trkpt>
      <trkpt lat="47.51647" lon="6.77482">
        <ele>432.3</ele>
        <time>2017-10-22T07:17:05.000Z</time>
      </trkpt>
      <trkpt lat="47.51643" lon="6.77476">
        <ele>432.4</ele>
        <time>2017-10-22T07:17:06.000Z</time>
      </trkpt>
      <trkpt lat="47.51638" lon="6.77471">
        <ele>432.4</ele>
        <time>2017-10-22T07:17:07.000Z</time>
      </trkpt>
      <trkpt lat="47.51632" lon="6.77464">
        <ele>432.2</ele>
        <time>2017-10-22T07:17:08.000Z</time>
      </trkpt>
      <trkpt lat="47.51627" lon="6.77458">
        <ele>432.3</ele>
        <time>2017-10-22T07:17:09.000Z</time>
      </trkpt>
      <trkpt lat="47.51622" lon="6.77453">
        <ele>432.6</ele>
        <time>2017-10-22T07:17:10.000Z</time>
      </trkpt>
      <trkpt lat="47.51617" lon="6.77447">
        <ele>433</ele>
        <time>2017-10-22T07:17:11.000Z</time>
      </trkpt>
      <trkpt lat="47.51612" lon="6.77442">
        <ele>433.2</ele>
        <time>2017-10-22T07:17:12.000Z</time>
      </trkpt>
      <trkpt lat="47.51607" lon="6.77436">
        <ele>433.4</ele>
        <time>2017-10-22T07:17:13.000Z</time>
      </trkpt>
      <trkpt lat="47.51602" lon="6.77429">
        <ele>433.3</ele>
        <time>2017-10-22T07:17:14.000Z</time>
      </trkpt>
      <trkpt lat="47.51597" lon="6.77423">
        <ele>433</ele>
        <time>2017-10-22T07:17:15.000Z</time>
      </trkpt>
      <trkpt lat="47.51591" lon="6.77416">
        <ele>432.8</ele>
        <time>2017-10-22T07:17:16.000Z</time>
      </trkpt>
      <trkpt lat="47.51585" lon="6.77409">
        <ele>432.6</ele>
        <time>2017-10-22T07:17:17.000Z</time>
      </trkpt>
      <trkpt lat="47.5158" lon="6.77402">
        <ele>432.4</ele>
        <time>2017-10-22T07:17:18.000Z</time>
      </trkpt>
      <trkpt lat="47.51575" lon="6.77396">
        <ele>432.2</ele>
        <time>2017-10-22T07:17:19.000Z</time>
      </trkpt>
      <trkpt lat="47.51569" lon="6.77389">
        <ele>432.3</ele>
        <time>2017-10-22T07:17:20.000Z</time>
      </trkpt>
      <trkpt lat="47.51564" lon="6.77382">
        <ele>432.6</ele>
        <time>2017-10-22T07:17:21.000Z</time>
      </trkpt>
      <trkpt lat="47.51558" lon="6.77375">
        <ele>433.3</ele>
        <time>2017-10-22T07:17:22.000Z</time>
      </trkpt>
      <trkpt lat="47.51553" lon="6.77369">
        <ele>433.1</ele>
        <time>2017-10-22T07:17:23.000Z</time>
      </trkpt>
      <trkpt lat="47.51547" lon="6.77362">
        <ele>432.4</ele>
        <time>2017-10-22T07:17:24.000Z</time>
      </trkpt>
      <trkpt lat="47.51541" lon="6.77355">
        <ele>431.7</ele>
        <time>2017-10-22T07:17:25.000Z</time>
      </trkpt>
      <trkpt lat="47.51536" lon="6.77348">
        <ele>430.8</ele>
        <time>2017-10-22T07:17:26.000Z</time>
      </trkpt>
      <trkpt lat="47.5153" lon="6.77341">
        <ele>430.5</ele>
        <time>2017-10-22T07:17:27.000Z</time>
      </trkpt>
      <trkpt lat="47.51524" lon="6.77334">
        <ele>430.1</ele>
        <time>2017-10-22T07:17:28.000Z</time>
      </trkpt>
      <trkpt lat="47.51518" lon="6.77328">
        <ele>429.6</ele>
        <time>2017-10-22T07:17:29.000Z</time>
      </trkpt>
      <trkpt lat="47.51512" lon="6.77321">
        <ele>428.7</ele>
        <time>2017-10-22T07:17:30.000Z</time>
      </trkpt>
      <trkpt lat="47.51506" lon="6.77313">
        <ele>427.9</ele>
        <time>2017-10-22T07:17:31.000Z</time>
      </trkpt>
      <trkpt lat="47.515" lon="6.77305">
        <ele>427.2</ele>
        <time>2017-10-22T07:17:32.000Z</time>
      </trkpt>
      <trkpt lat="47.51496" lon="6.77294">
        <ele>426.3</ele>
        <time>2017-10-22T07:17:33.000Z</time>
      </trkpt>
      <trkpt lat="47.51492" lon="6.77283">
        <ele>425.6</ele>
        <time>2017-10-22T07:17:34.000Z</time>
      </trkpt>
      <trkpt lat="47.5149" lon="6.77271">
        <ele>424.8</ele>
        <time>2017-10-22T07:17:35.000Z</time>
      </trkpt>
      <trkpt lat="47.51489" lon="6.7726">
        <ele>423.9</ele>
        <time>2017-10-22T07:17:35.999Z</time>
      </trkpt>
      <trkpt lat="47.51487" lon="6.7725">
        <ele>424.2</ele>
        <time>2017-10-22T07:17:36.999Z</time>
      </trkpt>
      <trkpt lat="47.51487" lon="6.77239">
        <ele>424.5</ele>
        <time>2017-10-22T07:17:37.999Z</time>
      </trkpt>
      <trkpt lat="47.51486" lon="6.77229">
        <ele>424.6</ele>
        <time>2017-10-22T07:17:38.999Z</time>
      </trkpt>
      <trkpt lat="47.51485" lon="6.7722">
        <ele>424.2</ele>
        <time>2017-10-22T07:17:39.999Z</time>
      </trkpt>
      <trkpt lat="47.51484" lon="6.77211">
        <ele>423.7</ele>
        <time>2017-10-22T07:17:40.999Z</time>
      </trkpt>
      <trkpt lat="47.51482" lon="6.77204">
        <ele>423.3</ele>
        <time>2017-10-22T07:17:41.999Z</time>
      </trkpt>
      <trkpt lat="47.51477" lon="6.77199">
        <ele>423</ele>
        <time>2017-10-22T07:17:42.999Z</time>
      </trkpt>
      <trkpt lat="47.51472" lon="6.77199">
        <ele>422.7</ele>
        <time>2017-10-22T07:17:43.999Z</time>
      </trkpt>
      <trkpt lat="47.51468" lon="6.77202">
        <ele>422.9</ele>
        <time>2017-10-22T07:17:44.999Z</time>
      </trkpt>
      <trkpt lat="47.51462" lon="6.77205">
        <ele>423.9</ele>
        <time>2017-10-22T07:17:45.999Z</time>
      </trkpt>
      <trkpt lat="47.51455" lon="6.77207">
        <ele>424.8</ele>
        <time>2017-10-22T07:17:46.999Z</time>
      </trkpt>
      <trkpt lat="47.51448" lon="6.77209">
        <ele>425.7</ele>
        <time>2017-10-22T07:17:47.999Z</time>
      </trkpt>
      <trkpt lat="47.5144" lon="6.77211">
        <ele>426.6</ele>
        <time>2017-10-22T07:17:48.999Z</time>
      </trkpt>
      <trkpt lat="47.51433" lon="6.77214">
        <ele>427.5</ele>
        <time>2017-10-22T07:17:49.999Z</time>
      </trkpt>
      <trkpt lat="47.51427" lon="6.77217">
        <ele>427.9</ele>
        <time>2017-10-22T07:17:50.999Z</time>
      </trkpt>
      <trkpt lat="47.5142" lon="6.7722">
        <ele>428.2</ele>
        <time>2017-10-22T07:17:51.999Z</time>
      </trkpt>
      <trkpt lat="47.51415" lon="6.77222">
        <ele>428.1</ele>
        <time>2017-10-22T07:17:52.999Z</time>
      </trkpt>
      <trkpt lat="47.51409" lon="6.77225">
        <ele>427.3</ele>
        <time>2017-10-22T07:17:53.999Z</time>
      </trkpt>
      <trkpt lat="47.51405" lon="6.77228">
        <ele>426.2</ele>
        <time>2017-10-22T07:17:54.999Z</time>
      </trkpt>
      <trkpt lat="47.51401" lon="6.7723">
        <ele>425.1</ele>
        <time>2017-10-22T07:17:55.999Z</time>
      </trkpt>
      <trkpt lat="47.51397" lon="6.77232">
        <ele>424.1</ele>
        <time>2017-10-22T07:17:56.999Z</time>
      </trkpt>
      <trkpt lat="47.51393" lon="6.77235">
        <ele>424</ele>
        <time>2017-10-22T07:17:57.999Z</time>
      </trkpt>
      <trkpt lat="47.5139" lon="6.77237">
        <ele>424</ele>
        <time>2017-10-22T07:17:58.999Z</time>
      </trkpt>
      <trkpt lat="47.51387" lon="6.77238">
        <ele>424.1</ele>
        <time>2017-10-22T07:18:00.999Z</time>
      </trkpt>
      <trkpt lat="47.51385" lon="6.77239">
        <ele>424.1</ele>
        <time>2017-10-22T07:18:01.999Z</time>
      </trkpt>
      <trkpt lat="47.51382" lon="6.77241">
        <ele>424.2</ele>
        <time>2017-10-22T07:18:03.999Z</time>
      </trkpt>
      <trkpt lat="47.51379" lon="6.77244">
        <ele>424.3</ele>
        <time>2017-10-22T07:18:04.999Z</time>
      </trkpt>
      <trkpt lat="47.51376" lon="6.77246">
        <ele>424.4</ele>
        <time>2017-10-22T07:18:05.999Z</time>
      </trkpt>
      <trkpt lat="47.51372" lon="6.77248">
        <ele>424.6</ele>
        <time>2017-10-22T07:18:06.999Z</time>
      </trkpt>
      <trkpt lat="47.51369" lon="6.7725">
        <ele>424.8</ele>
        <time>2017-10-22T07:18:07.999Z</time>
      </trkpt>
      <trkpt lat="47.51366" lon="6.77251">
        <ele>425</ele>
        <time>2017-10-22T07:18:08.999Z</time>
      </trkpt>
      <trkpt lat="47.51364" lon="6.77253">
        <ele>425.2</ele>
        <time>2017-10-22T07:18:09.999Z</time>
      </trkpt>
      <trkpt lat="47.51361" lon="6.77255">
        <ele>425.4</ele>
        <time>2017-10-22T07:18:10.999Z</time>
      </trkpt>
      <trkpt lat="47.51359" lon="6.77256">
        <ele>425.6</ele>
        <time>2017-10-22T07:18:11.999Z</time>
      </trkpt>
      <trkpt lat="47.51357" lon="6.77258">
        <ele>425.8</ele>
        <time>2017-10-22T07:18:12.999Z</time>
      </trkpt>
      <trkpt lat="47.51354" lon="6.7726">
        <ele>425.9</ele>
        <time>2017-10-22T07:18:13.999Z</time>
      </trkpt>
      <trkpt lat="47.51352" lon="6.77262">
        <ele>426.1</ele>
        <time>2017-10-22T07:18:14.999Z</time>
      </trkpt>
      <trkpt lat="47.51349" lon="6.77264">
        <ele>426.3</ele>
        <time>2017-10-22T07:18:15.999Z</time>
      </trkpt>
      <trkpt lat="47.51347" lon="6.77265">
        <ele>426.6</ele>
        <time>2017-10-22T07:18:16.999Z</time>
      </trkpt>
      <trkpt lat="47.51344" lon="6.77267">
        <ele>426.8</ele>
        <time>2017-10-22T07:18:17.999Z</time>
      </trkpt>
      <trkpt lat="47.51342" lon="6.7727">
        <ele>427.1</ele>
        <time>2017-10-22T07:18:18.999Z</time>
      </trkpt>
      <trkpt lat="47.51339" lon="6.77273">
        <ele>427.4</ele>
        <time>2017-10-22T07:18:19.999Z</time>
      </trkpt>
      <trkpt lat="47.51336" lon="6.77275">
        <ele>427.6</ele>
        <time>2017-10-22T07:18:20.999Z</time>
      </trkpt>
      <trkpt lat="47.51334" lon="6.77278">
        <ele>427.8</ele>
        <time>2017-10-22T07:18:21.999Z</time>
      </trkpt>
      <trkpt lat="47.51331" lon="6.77279">
        <ele>428</ele>
        <time>2017-10-22T07:18:22.999Z</time>
      </trkpt>
      <trkpt lat="47.51328" lon="6.77279">
        <ele>428.2</ele>
        <time>2017-10-22T07:18:23.999Z</time>
      </trkpt>
      <trkpt lat="47.51324" lon="6.77278">
        <ele>428.3</ele>
        <time>2017-10-22T07:18:24.999Z</time>
      </trkpt>
      <trkpt lat="47.51321" lon="6.77278">
        <ele>428.4</ele>
        <time>2017-10-22T07:18:25.999Z</time>
      </trkpt>
      <trkpt lat="47.51317" lon="6.77277">
        <ele>428.6</ele>
        <time>2017-10-22T07:18:26.999Z</time>
      </trkpt>
      <trkpt lat="47.51314" lon="6.77276">
        <ele>428.7</ele>
        <time>2017-10-22T07:18:27.999Z</time>
      </trkpt>
      <trkpt lat="47.5131" lon="6.77275">
        <ele>428.8</ele>
        <time>2017-10-22T07:18:28.999Z</time>
      </trkpt>
      <trkpt lat="47.51307" lon="6.77274">
        <ele>429</ele>
        <time>2017-10-22T07:18:29.999Z</time>
      </trkpt>
      <trkpt lat="47.51304" lon="6.77273">
        <ele>429.2</ele>
        <time>2017-10-22T07:18:30.999Z</time>
      </trkpt>
      <trkpt lat="47.51301" lon="6.77271">
        <ele>429.3</ele>
        <time>2017-10-22T07:18:31.999Z</time>
      </trkpt>
      <trkpt lat="47.51298" lon="6.77269">
        <ele>429.4</ele>
        <time>2017-10-22T07:18:32.999Z</time>
      </trkpt>
      <trkpt lat="47.51294" lon="6.77268">
        <ele>429.4</ele>
        <time>2017-10-22T07:18:33.999Z</time>
      </trkpt>
      <trkpt lat="47.51291" lon="6.77266">
        <ele>429.5</ele>
        <time>2017-10-22T07:18:34.999Z</time>
      </trkpt>
      <trkpt lat="47.51287" lon="6.77264">
        <ele>429.6</ele>
        <time>2017-10-22T07:18:35.999Z</time>
      </trkpt>
      <trkpt lat="47.51283" lon="6.77262">
        <ele>429.6</ele>
        <time>2017-10-22T07:18:36.999Z</time>
      </trkpt>
      <trkpt lat="47.5128" lon="6.7726">
        <ele>429.6</ele>
        <time>2017-10-22T07:18:37.999Z</time>
      </trkpt>
      <trkpt lat="47.51277" lon="6.77258">
        <ele>429.6</ele>
        <time>2017-10-22T07:18:38.999Z</time>
      </trkpt>
      <trkpt lat="47.51273" lon="6.77256">
        <ele>429.8</ele>
        <time>2017-10-22T07:18:39.999Z</time>
      </trkpt>
      <trkpt lat="47.5127" lon="6.77253">
        <ele>429.7</ele>
        <time>2017-10-22T07:18:40.999Z</time>
      </trkpt>
      <trkpt lat="47.51266" lon="6.7725">
        <ele>429.3</ele>
        <time>2017-10-22T07:18:41.999Z</time>
      </trkpt>
      <trkpt lat="47.51262" lon="6.77245">
        <ele>429.1</ele>
        <time>2017-10-22T07:18:42.999Z</time>
      </trkpt>
      <trkpt lat="47.51259" lon="6.7724">
        <ele>429.2</ele>
        <time>2017-10-22T07:18:43.999Z</time>
      </trkpt>
      <trkpt lat="47.51252" lon="6.77231">
        <ele>429.9</ele>
        <time>2017-10-22T07:18:45.999Z</time>
      </trkpt>
      <trkpt lat="47.51248" lon="6.77226">
        <ele>430.4</ele>
        <time>2017-10-22T07:18:46.999Z</time>
      </trkpt>
      <trkpt lat="47.51245" lon="6.77221">
        <ele>431.2</ele>
        <time>2017-10-22T07:18:47.999Z</time>
      </trkpt>
      <trkpt lat="47.51242" lon="6.77215">
        <ele>431.5</ele>
        <time>2017-10-22T07:18:48.999Z</time>
      </trkpt>
      <trkpt lat="47.51239" lon="6.77209">
        <ele>431.6</ele>
        <time>2017-10-22T07:18:49.999Z</time>
      </trkpt>
      <trkpt lat="47.51235" lon="6.77203">
        <ele>431.5</ele>
        <time>2017-10-22T07:18:50.999Z</time>
      </trkpt>
      <trkpt lat="47.51233" lon="6.77198">
        <ele>432</ele>
        <time>2017-10-22T07:18:51.999Z</time>
      </trkpt>
      <trkpt lat="47.5123" lon="6.77193">
        <ele>432.6</ele>
        <time>2017-10-22T07:18:52.999Z</time>
      </trkpt>
      <trkpt lat="47.51227" lon="6.77187">
        <ele>433</ele>
        <time>2017-10-22T07:18:53.999Z</time>
      </trkpt>
      <trkpt lat="47.51225" lon="6.77182">
        <ele>433.4</ele>
        <time>2017-10-22T07:18:54.999Z</time>
      </trkpt>
      <trkpt lat="47.51222" lon="6.77176">
        <ele>433.6</ele>
        <time>2017-10-22T07:18:55.999Z</time>
      </trkpt>
      <trkpt lat="47.51218" lon="6.7717">
        <ele>433.6</ele>
        <time>2017-10-22T07:18:56.999Z</time>
      </trkpt>
      <trkpt lat="47.51214" lon="6.77163">
        <ele>433.4</ele>
        <time>2017-10-22T07:18:57.999Z</time>
      </trkpt>
      <trkpt lat="47.5121" lon="6.77155">
        <ele>433.2</ele>
        <time>2017-10-22T07:18:58.999Z</time>
      </trkpt>
      <trkpt lat="47.51207" lon="6.77148">
        <ele>433</ele>
        <time>2017-10-22T07:18:59.999Z</time>
      </trkpt>
      <trkpt lat="47.51203" lon="6.7714">
        <ele>433</ele>
        <time>2017-10-22T07:19:00.999Z</time>
      </trkpt>
      <trkpt lat="47.51199" lon="6.77132">
        <ele>432.9</ele>
        <time>2017-10-22T07:19:01.999Z</time>
      </trkpt>
      <trkpt lat="47.51194" lon="6.77124">
        <ele>432.3</ele>
        <time>2017-10-22T07:19:02.999Z</time>
      </trkpt>
      <trkpt lat="47.5119" lon="6.77117">
        <ele>431.7</ele>
        <time>2017-10-22T07:19:03.999Z</time>
      </trkpt>
      <trkpt lat="47.51186" lon="6.77108">
        <ele>430.7</ele>
        <time>2017-10-22T07:19:04.999Z</time>
      </trkpt>
      <trkpt lat="47.51182" lon="6.771">
        <ele>429.2</ele>
        <time>2017-10-22T07:19:05.999Z</time>
      </trkpt>
      <trkpt lat="47.51178" lon="6.77092">
        <ele>428.2</ele>
        <time>2017-10-22T07:19:06.999Z</time>
      </trkpt>
      <trkpt lat="47.51174" lon="6.77085">
        <ele>427.4</ele>
        <time>2017-10-22T07:19:07.999Z</time>
      </trkpt>
      <trkpt lat="47.5117" lon="6.77077">
        <ele>426.8</ele>
        <time>2017-10-22T07:19:08.999Z</time>
      </trkpt>
      <trkpt lat="47.51166" lon="6.7707">
        <ele>426</ele>
        <time>2017-10-22T07:19:09.999Z</time>
      </trkpt>
      <trkpt lat="47.51161" lon="6.77063">
        <ele>425.3</ele>
        <time>2017-10-22T07:19:10.999Z</time>
      </trkpt>
      <trkpt lat="47.51156" lon="6.77056">
        <ele>424.7</ele>
        <time>2017-10-22T07:19:11.999Z</time>
      </trkpt>
      <trkpt lat="47.51151" lon="6.7705">
        <ele>424.2</ele>
        <time>2017-10-22T07:19:12.999Z</time>
      </trkpt>
      <trkpt lat="47.51145" lon="6.77046">
        <ele>423.6</ele>
        <time>2017-10-22T07:19:13.999Z</time>
      </trkpt>
      <trkpt lat="47.5114" lon="6.77043">
        <ele>423</ele>
        <time>2017-10-22T07:19:14.999Z</time>
      </trkpt>
      <trkpt lat="47.51135" lon="6.77039">
        <ele>422.5</ele>
        <time>2017-10-22T07:19:15.999Z</time>
      </trkpt>
      <trkpt lat="47.5113" lon="6.77035">
        <ele>422.2</ele>
        <time>2017-10-22T07:19:16.999Z</time>
      </trkpt>
      <trkpt lat="47.51125" lon="6.77031">
        <ele>422.2</ele>
        <time>2017-10-22T07:19:17.999Z</time>
      </trkpt>
      <trkpt lat="47.51119" lon="6.77027">
        <ele>422.2</ele>
        <time>2017-10-22T07:19:18.999Z</time>
      </trkpt>
      <trkpt lat="47.51114" lon="6.77023">
        <ele>422.3</ele>
        <time>2017-10-22T07:19:19.999Z</time>
      </trkpt>
      <trkpt lat="47.51109" lon="6.77018">
        <ele>422.7</ele>
        <time>2017-10-22T07:19:20.999Z</time>
      </trkpt>
      <trkpt lat="47.51105" lon="6.77014">
        <ele>423.1</ele>
        <time>2017-10-22T07:19:21.999Z</time>
      </trkpt>
      <trkpt lat="47.511" lon="6.7701">
        <ele>423.6</ele>
        <time>2017-10-22T07:19:22.999Z</time>
      </trkpt>
      <trkpt lat="47.51095" lon="6.77005">
        <ele>423.7</ele>
        <time>2017-10-22T07:19:23.999Z</time>
      </trkpt>
      <trkpt lat="47.5109" lon="6.77">
        <ele>423.9</ele>
        <time>2017-10-22T07:19:24.999Z</time>
      </trkpt>
      <trkpt lat="47.51086" lon="6.76996">
        <ele>424.1</ele>
        <time>2017-10-22T07:19:25.999Z</time>
      </trkpt>
      <trkpt lat="47.51081" lon="6.76991">
        <ele>424.2</ele>
        <time>2017-10-22T07:19:26.999Z</time>
      </trkpt>
      <trkpt lat="47.51076" lon="6.76987">
        <ele>424.1</ele>
        <time>2017-10-22T07:19:27.999Z</time>
      </trkpt>
      <trkpt lat="47.51072" lon="6.76983">
        <ele>424.1</ele>
        <time>2017-10-22T07:19:28.999Z</time>
      </trkpt>
      <trkpt lat="47.51067" lon="6.7698">
        <ele>423.9</ele>
        <time>2017-10-22T07:19:29.999Z</time>
      </trkpt>
      <trkpt lat="47.51063" lon="6.76976">
        <ele>423.6</ele>
        <time>2017-10-22T07:19:30.999Z</time>
      </trkpt>
      <trkpt lat="47.51058" lon="6.76972">
        <ele>423.4</ele>
        <time>2017-10-22T07:19:31.999Z</time>
      </trkpt>
      <trkpt lat="47.51055" lon="6.76969">
        <ele>423.9</ele>
        <time>2017-10-22T07:19:32.999Z</time>
      </trkpt>
      <trkpt lat="47.51051" lon="6.76966">
        <ele>423.9</ele>
        <time>2017-10-22T07:19:33.999Z</time>
      </trkpt>
      <trkpt lat="47.51048" lon="6.76964">
        <ele>424</ele>
        <time>2017-10-22T07:19:34.999Z</time>
      </trkpt>
      <trkpt lat="47.51045" lon="6.76961">
        <ele>424.2</ele>
        <time>2017-10-22T07:19:35.999Z</time>
      </trkpt>
      <trkpt lat="47.51043" lon="6.76959">
        <ele>424.3</ele>
        <time>2017-10-22T07:19:36.999Z</time>
      </trkpt>
      <trkpt lat="47.51039" lon="6.76956">
        <ele>424.4</ele>
        <time>2017-10-22T07:19:37.999Z</time>
      </trkpt>
      <trkpt lat="47.51036" lon="6.76954">
        <ele>424.4</ele>
        <time>2017-10-22T07:19:38.999Z</time>
      </trkpt>
      <trkpt lat="47.51034" lon="6.76951">
        <ele>424.5</ele>
        <time>2017-10-22T07:19:39.999Z</time>
      </trkpt>
      <trkpt lat="47.51031" lon="6.76949">
        <ele>424.6</ele>
        <time>2017-10-22T07:19:40.999Z</time>
      </trkpt>
      <trkpt lat="47.5103" lon="6.76945">
        <ele>424.8</ele>
        <time>2017-10-22T07:19:41.999Z</time>
      </trkpt>
      <trkpt lat="47.51028" lon="6.76941">
        <ele>424.8</ele>
        <time>2017-10-22T07:19:42.999Z</time>
      </trkpt>
      <trkpt lat="47.51025" lon="6.76938">
        <ele>424.9</ele>
        <time>2017-10-22T07:19:43.999Z</time>
      </trkpt>
      <trkpt lat="47.51022" lon="6.76936">
        <ele>424.9</ele>
        <time>2017-10-22T07:19:44.999Z</time>
      </trkpt>
      <trkpt lat="47.51019" lon="6.76933">
        <ele>425</ele>
        <time>2017-10-22T07:19:45.999Z</time>
      </trkpt>
      <trkpt lat="47.51017" lon="6.76932">
        <ele>425.1</ele>
        <time>2017-10-22T07:19:46.999Z</time>
      </trkpt>
      <trkpt lat="47.51015" lon="6.7693">
        <ele>425.3</ele>
        <time>2017-10-22T07:19:47.999Z</time>
      </trkpt>
      <trkpt lat="47.51013" lon="6.76928">
        <ele>425.4</ele>
        <time>2017-10-22T07:19:48.999Z</time>
      </trkpt>
      <trkpt lat="47.51011" lon="6.76926">
        <ele>425.6</ele>
        <time>2017-10-22T07:19:49.999Z</time>
      </trkpt>
      <trkpt lat="47.51009" lon="6.76924">
        <ele>425.7</ele>
        <time>2017-10-22T07:19:50.999Z</time>
      </trkpt>
      <trkpt lat="47.51006" lon="6.76922">
        <ele>425.8</ele>
        <time>2017-10-22T07:19:51.999Z</time>
      </trkpt>
      <trkpt lat="47.51003" lon="6.7692">
        <ele>425.9</ele>
        <time>2017-10-22T07:19:52.999Z</time>
      </trkpt>
      <trkpt lat="47.51" lon="6.76918">
        <ele>426</ele>
        <time>2017-10-22T07:19:53.999Z</time>
      </trkpt>
      <trkpt lat="47.50997" lon="6.76914">
        <ele>426</ele>
        <time>2017-10-22T07:19:54.999Z</time>
      </trkpt>
      <trkpt lat="47.50996" lon="6.76909">
        <ele>426.1</ele>
        <time>2017-10-22T07:19:55.999Z</time>
      </trkpt>
      <trkpt lat="47.50995" lon="6.76905">
        <ele>426.1</ele>
        <time>2017-10-22T07:19:56.999Z</time>
      </trkpt>
      <trkpt lat="47.50992" lon="6.76902">
        <ele>426.7</ele>
        <time>2017-10-22T07:19:57.999Z</time>
      </trkpt>
      <trkpt lat="47.50989" lon="6.76901">
        <ele>427.3</ele>
        <time>2017-10-22T07:19:58.999Z</time>
      </trkpt>
      <trkpt lat="47.50985" lon="6.769">
        <ele>427.3</ele>
        <time>2017-10-22T07:19:59.999Z</time>
      </trkpt>
      <trkpt lat="47.50981" lon="6.76898">
        <ele>427.4</ele>
        <time>2017-10-22T07:20:00.999Z</time>
      </trkpt>
      <trkpt lat="47.50977" lon="6.76897">
        <ele>427.5</ele>
        <time>2017-10-22T07:20:01.999Z</time>
      </trkpt>
      <trkpt lat="47.50975" lon="6.76898">
        <ele>427.6</ele>
        <time>2017-10-22T07:20:02.999Z</time>
      </trkpt>
      <trkpt lat="47.50971" lon="6.76899">
        <ele>427.6</ele>
        <time>2017-10-22T07:20:03.999Z</time>
      </trkpt>
      <trkpt lat="47.50967" lon="6.76898">
        <ele>427.7</ele>
        <time>2017-10-22T07:20:04.999Z</time>
      </trkpt>
      <trkpt lat="47.50963" lon="6.76898">
        <ele>427.6</ele>
        <time>2017-10-22T07:20:05.999Z</time>
      </trkpt>
      <trkpt lat="47.50961" lon="6.76896">
        <ele>427.5</ele>
        <time>2017-10-22T07:20:06.999Z</time>
      </trkpt>
      <trkpt lat="47.50958" lon="6.76893">
        <ele>427.5</ele>
        <time>2017-10-22T07:20:07.999Z</time>
      </trkpt>
      <trkpt lat="47.50955" lon="6.7689">
        <ele>427.4</ele>
        <time>2017-10-22T07:20:08.999Z</time>
      </trkpt>
      <trkpt lat="47.50952" lon="6.76887">
        <ele>427.3</ele>
        <time>2017-10-22T07:20:09.999Z</time>
      </trkpt>
      <trkpt lat="47.50949" lon="6.76885">
        <ele>427.2</ele>
        <time>2017-10-22T07:20:10.999Z</time>
      </trkpt>
      <trkpt lat="47.50947" lon="6.76882">
        <ele>427.1</ele>
        <time>2017-10-22T07:20:11.999Z</time>
      </trkpt>
      <trkpt lat="47.50945" lon="6.7688">
        <ele>427.1</ele>
        <time>2017-10-22T07:20:12.999Z</time>
      </trkpt>
      <trkpt lat="47.50943" lon="6.76878">
        <ele>427.1</ele>
        <time>2017-10-22T07:20:13.999Z</time>
      </trkpt>
      <trkpt lat="47.50941" lon="6.76876">
        <ele>427.1</ele>
        <time>2017-10-22T07:20:14.999Z</time>
      </trkpt>
      <trkpt lat="47.50939" lon="6.76872">
        <ele>427</ele>
        <time>2017-10-22T07:20:15.999Z</time>
      </trkpt>
      <trkpt lat="47.50936" lon="6.76867">
        <ele>426.9</ele>
        <time>2017-10-22T07:20:17.999Z</time>
      </trkpt>
      <trkpt lat="47.50934" lon="6.76866">
        <ele>426.9</ele>
        <time>2017-10-22T07:20:18.999Z</time>
      </trkpt>
      <trkpt lat="47.50932" lon="6.76862">
        <ele>426.9</ele>
        <time>2017-10-22T07:20:22.999Z</time>
      </trkpt>
      <trkpt lat="47.50931" lon="6.7686">
        <ele>426.9</ele>
        <time>2017-10-22T07:20:23.999Z</time>
      </trkpt>
      <trkpt lat="47.50928" lon="6.76857">
        <ele>426.9</ele>
        <time>2017-10-22T07:20:24.999Z</time>
      </trkpt>
      <trkpt lat="47.50926" lon="6.76853">
        <ele>426.9</ele>
        <time>2017-10-22T07:20:25.999Z</time>
      </trkpt>
      <trkpt lat="47.50924" lon="6.76848">
        <ele>426.9</ele>
        <time>2017-10-22T07:20:26.999Z</time>
      </trkpt>
      <trkpt lat="47.50923" lon="6.76844">
        <ele>426.9</ele>
        <time>2017-10-22T07:20:27.999Z</time>
      </trkpt>
      <trkpt lat="47.50921" lon="6.76839">
        <ele>426.9</ele>
        <time>2017-10-22T07:20:28.999Z</time>
      </trkpt>
      <trkpt lat="47.50918" lon="6.76834">
        <ele>426.8</ele>
        <time>2017-10-22T07:20:29.999Z</time>
      </trkpt>
      <trkpt lat="47.50916" lon="6.76828">
        <ele>426.8</ele>
        <time>2017-10-22T07:20:30.999Z</time>
      </trkpt>
      <trkpt lat="47.50913" lon="6.76823">
        <ele>426.6</ele>
        <time>2017-10-22T07:20:31.999Z</time>
      </trkpt>
      <trkpt lat="47.50911" lon="6.76818">
        <ele>426.5</ele>
        <time>2017-10-22T07:20:32.999Z</time>
      </trkpt>
      <trkpt lat="47.50909" lon="6.76814">
        <ele>426.5</ele>
        <time>2017-10-22T07:20:33.999Z</time>
      </trkpt>
      <trkpt lat="47.50907" lon="6.76808">
        <ele>426</ele>
        <time>2017-10-22T07:20:34.999Z</time>
      </trkpt>
      <trkpt lat="47.50904" lon="6.76802">
        <ele>425.9</ele>
        <time>2017-10-22T07:20:35.999Z</time>
      </trkpt>
      <trkpt lat="47.50902" lon="6.76796">
        <ele>425.5</ele>
        <time>2017-10-22T07:20:36.999Z</time>
      </trkpt>
      <trkpt lat="47.50899" lon="6.76791">
        <ele>425.6</ele>
        <time>2017-10-22T07:20:37.999Z</time>
      </trkpt>
      <trkpt lat="47.50896" lon="6.76785">
        <ele>425.6</ele>
        <time>2017-10-22T07:20:38.999Z</time>
      </trkpt>
      <trkpt lat="47.50894" lon="6.76781">
        <ele>425.7</ele>
        <time>2017-10-22T07:20:39.999Z</time>
      </trkpt>
      <trkpt lat="47.50893" lon="6.76777">
        <ele>425.7</ele>
        <time>2017-10-22T07:20:40.999Z</time>
      </trkpt>
      <trkpt lat="47.50891" lon="6.76772">
        <ele>425.8</ele>
        <time>2017-10-22T07:20:41.999Z</time>
      </trkpt>
      <trkpt lat="47.50889" lon="6.76767">
        <ele>426.5</ele>
        <time>2017-10-22T07:20:42.999Z</time>
      </trkpt>
      <trkpt lat="47.50887" lon="6.76762">
        <ele>426.5</ele>
        <time>2017-10-22T07:20:43.999Z</time>
      </trkpt>
      <trkpt lat="47.50885" lon="6.76756">
        <ele>426.6</ele>
        <time>2017-10-22T07:20:44.999Z</time>
      </trkpt>
      <trkpt lat="47.50884" lon="6.7675">
        <ele>426.3</ele>
        <time>2017-10-22T07:20:45.999Z</time>
      </trkpt>
      <trkpt lat="47.50882" lon="6.76744">
        <ele>426.3</ele>
        <time>2017-10-22T07:20:46.999Z</time>
      </trkpt>
      <trkpt lat="47.50881" lon="6.7674">
        <ele>426.3</ele>
        <time>2017-10-22T07:20:47.999Z</time>
      </trkpt>
      <trkpt lat="47.50879" lon="6.76736">
        <ele>426.3</ele>
        <time>2017-10-22T07:20:48.999Z</time>
      </trkpt>
      <trkpt lat="47.50877" lon="6.76731">
        <ele>426.3</ele>
        <time>2017-10-22T07:20:49.999Z</time>
      </trkpt>
      <trkpt lat="47.50876" lon="6.76726">
        <ele>426.4</ele>
        <time>2017-10-22T07:20:50.999Z</time>
      </trkpt>
      <trkpt lat="47.50874" lon="6.7672">
        <ele>426.6</ele>
        <time>2017-10-22T07:20:51.999Z</time>
      </trkpt>
      <trkpt lat="47.50872" lon="6.76715">
        <ele>426.7</ele>
        <time>2017-10-22T07:20:52.999Z</time>
      </trkpt>
      <trkpt lat="47.5087" lon="6.76709">
        <ele>426.8</ele>
        <time>2017-10-22T07:20:53.999Z</time>
      </trkpt>
      <trkpt lat="47.50867" lon="6.76704">
        <ele>427</ele>
        <time>2017-10-22T07:20:54.999Z</time>
      </trkpt>
      <trkpt lat="47.50864" lon="6.76698">
        <ele>427.2</ele>
        <time>2017-10-22T07:20:55.999Z</time>
      </trkpt>
      <trkpt lat="47.50863" lon="6.76693">
        <ele>427.4</ele>
        <time>2017-10-22T07:20:56.999Z</time>
      </trkpt>
      <trkpt lat="47.50861" lon="6.76688">
        <ele>429.8</ele>
        <time>2017-10-22T07:20:57.999Z</time>
      </trkpt>
      <trkpt lat="47.5086" lon="6.76684">
        <ele>430</ele>
        <time>2017-10-22T07:20:58.999Z</time>
      </trkpt>
      <trkpt lat="47.50858" lon="6.7668">
        <ele>430.1</ele>
        <time>2017-10-22T07:20:59.999Z</time>
      </trkpt>
      <trkpt lat="47.50857" lon="6.76676">
        <ele>430.3</ele>
        <time>2017-10-22T07:21:00.999Z</time>
      </trkpt>
      <trkpt lat="47.50856" lon="6.76672">
        <ele>430.5</ele>
        <time>2017-10-22T07:21:01.999Z</time>
      </trkpt>
      <trkpt lat="47.50855" lon="6.76669">
        <ele>430.6</ele>
        <time>2017-10-22T07:21:02.999Z</time>
      </trkpt>
      <trkpt lat="47.50853" lon="6.76666">
        <ele>430.8</ele>
        <time>2017-10-22T07:21:03.999Z</time>
      </trkpt>
      <trkpt lat="47.50851" lon="6.76662">
        <ele>431.1</ele>
        <time>2017-10-22T07:21:05.999Z</time>
      </trkpt>
      <trkpt lat="47.50851" lon="6.7666">
        <ele>431.2</ele>
        <time>2017-10-22T07:21:06.999Z</time>
      </trkpt>
      <trkpt lat="47.50849" lon="6.76655">
        <ele>431.9</ele>
        <time>2017-10-22T07:21:10.999Z</time>
      </trkpt>
      <trkpt lat="47.50848" lon="6.76653">
        <ele>432</ele>
        <time>2017-10-22T07:21:11.999Z</time>
      </trkpt>
      <trkpt lat="47.50846" lon="6.7665">
        <ele>432.3</ele>
        <time>2017-10-22T07:21:13.999Z</time>
      </trkpt>
      <trkpt lat="47.50844" lon="6.76648">
        <ele>432.4</ele>
        <time>2017-10-22T07:21:14.999Z</time>
      </trkpt>
      <trkpt lat="47.50843" lon="6.76646">
        <ele>432.5</ele>
        <time>2017-10-22T07:21:15.999Z</time>
      </trkpt>
      <trkpt lat="47.50841" lon="6.76643">
        <ele>432.5</ele>
        <time>2017-10-22T07:21:16.999Z</time>
      </trkpt>
      <trkpt lat="47.50839" lon="6.76639">
        <ele>432.6</ele>
        <time>2017-10-22T07:21:17.999Z</time>
      </trkpt>
      <trkpt lat="47.50837" lon="6.76635">
        <ele>432.6</ele>
        <time>2017-10-22T07:21:18.999Z</time>
      </trkpt>
      <trkpt lat="47.50835" lon="6.76631">
        <ele>432.7</ele>
        <time>2017-10-22T07:21:19.999Z</time>
      </trkpt>
      <trkpt lat="47.50833" lon="6.76626">
        <ele>432.8</ele>
        <time>2017-10-22T07:21:20.999Z</time>
      </trkpt>
      <trkpt lat="47.50831" lon="6.76621">
        <ele>432.9</ele>
        <time>2017-10-22T07:21:21.999Z</time>
      </trkpt>
      <trkpt lat="47.50829" lon="6.76616">
        <ele>433</ele>
        <time>2017-10-22T07:21:22.999Z</time>
      </trkpt>
      <trkpt lat="47.50828" lon="6.76612">
        <ele>433.1</ele>
        <time>2017-10-22T07:21:23.999Z</time>
      </trkpt>
      <trkpt lat="47.50826" lon="6.76607">
        <ele>433.1</ele>
        <time>2017-10-22T07:21:24.999Z</time>
      </trkpt>
      <trkpt lat="47.50825" lon="6.76602">
        <ele>433.2</ele>
        <time>2017-10-22T07:21:25.999Z</time>
      </trkpt>
      <trkpt lat="47.50824" lon="6.76599">
        <ele>433.2</ele>
        <time>2017-10-22T07:21:26.999Z</time>
      </trkpt>
      <trkpt lat="47.50822" lon="6.76595">
        <ele>433.3</ele>
        <time>2017-10-22T07:21:27.999Z</time>
      </trkpt>
      <trkpt lat="47.50818" lon="6.76595">
        <ele>433.4</ele>
        <time>2017-10-22T07:21:28.999Z</time>
      </trkpt>
      <trkpt lat="47.50815" lon="6.76596">
        <ele>433.5</ele>
        <time>2017-10-22T07:21:29.999Z</time>
      </trkpt>
      <trkpt lat="47.50813" lon="6.76596">
        <ele>433.6</ele>
        <time>2017-10-22T07:21:30.999Z</time>
      </trkpt>
      <trkpt lat="47.5081" lon="6.76594">
        <ele>433.6</ele>
        <time>2017-10-22T07:21:31.999Z</time>
      </trkpt>
      <trkpt lat="47.50809" lon="6.76591">
        <ele>433.7</ele>
        <time>2017-10-22T07:21:32.999Z</time>
      </trkpt>
      <trkpt lat="47.50807" lon="6.76587">
        <ele>433.8</ele>
        <time>2017-10-22T07:21:34.999Z</time>
      </trkpt>
      <trkpt lat="47.50804" lon="6.76586">
        <ele>433.9</ele>
        <time>2017-10-22T07:21:35.999Z</time>
      </trkpt>
      <trkpt lat="47.50802" lon="6.76587">
        <ele>433.8</ele>
        <time>2017-10-22T07:21:36.999Z</time>
      </trkpt>
      <trkpt lat="47.50799" lon="6.76589">
        <ele>433.8</ele>
        <time>2017-10-22T07:21:37.999Z</time>
      </trkpt>
      <trkpt lat="47.50795" lon="6.7659">
        <ele>433.7</ele>
        <time>2017-10-22T07:21:39.999Z</time>
      </trkpt>
      <trkpt lat="47.50794" lon="6.7659">
        <ele>433.6</ele>
        <time>2017-10-22T07:21:40.999Z</time>
      </trkpt>
      <trkpt lat="47.5079" lon="6.76586">
        <ele>432.7</ele>
        <time>2017-10-22T07:21:54.999Z</time>
      </trkpt>
      <trkpt lat="47.5079" lon="6.76585">
        <ele>432.5</ele>
        <time>2017-10-22T07:21:55.999Z</time>
      </trkpt>
      <trkpt lat="47.50786" lon="6.76586">
        <ele>432.7</ele>
        <time>2017-10-22T07:22:08.999Z</time>
      </trkpt>
      <trkpt lat="47.50785" lon="6.76586">
        <ele>432.7</ele>
        <time>2017-10-22T07:22:09.999Z</time>
      </trkpt>
      <trkpt lat="47.50782" lon="6.76587">
        <ele>433.5</ele>
        <time>2017-10-22T07:22:17.999Z</time>
      </trkpt>
      <trkpt lat="47.5078" lon="6.76588">
        <ele>433.5</ele>
        <time>2017-10-22T07:22:18.999Z</time>
      </trkpt>
      <trkpt lat="47.50778" lon="6.76589">
        <ele>433.7</ele>
        <time>2017-10-22T07:22:19.999Z</time>
      </trkpt>
      <trkpt lat="47.50775" lon="6.76591">
        <ele>433.8</ele>
        <time>2017-10-22T07:22:20.999Z</time>
      </trkpt>
      <trkpt lat="47.50773" lon="6.76592">
        <ele>433.9</ele>
        <time>2017-10-22T07:22:21.999Z</time>
      </trkpt>
      <trkpt lat="47.5077" lon="6.76593">
        <ele>434.1</ele>
        <time>2017-10-22T07:22:22.999Z</time>
      </trkpt>
      <trkpt lat="47.50767" lon="6.76594">
        <ele>434.2</ele>
        <time>2017-10-22T07:22:23.999Z</time>
      </trkpt>
      <trkpt lat="47.50763" lon="6.76594">
        <ele>434.4</ele>
        <time>2017-10-22T07:22:24.999Z</time>
      </trkpt>
      <trkpt lat="47.5076" lon="6.76595">
        <ele>434.6</ele>
        <time>2017-10-22T07:22:25.999Z</time>
      </trkpt>
      <trkpt lat="47.50757" lon="6.76596">
        <ele>434.7</ele>
        <time>2017-10-22T07:22:26.999Z</time>
      </trkpt>
      <trkpt lat="47.50753" lon="6.76596">
        <ele>434.8</ele>
        <time>2017-10-22T07:22:27.999Z</time>
      </trkpt>
      <trkpt lat="47.5075" lon="6.76597">
        <ele>435</ele>
        <time>2017-10-22T07:22:28.999Z</time>
      </trkpt>
      <trkpt lat="47.50746" lon="6.76596">
        <ele>435.1</ele>
        <time>2017-10-22T07:22:29.999Z</time>
      </trkpt>
      <trkpt lat="47.50742" lon="6.76596">
        <ele>435.2</ele>
        <time>2017-10-22T07:22:30.999Z</time>
      </trkpt>
      <trkpt lat="47.50738" lon="6.76595">
        <ele>435.3</ele>
        <time>2017-10-22T07:22:31.999Z</time>
      </trkpt>
      <trkpt lat="47.50735" lon="6.76594">
        <ele>436.3</ele>
        <time>2017-10-22T07:22:32.999Z</time>
      </trkpt>
      <trkpt lat="47.5073" lon="6.76593">
        <ele>437.4</ele>
        <time>2017-10-22T07:22:33.999Z</time>
      </trkpt>
      <trkpt lat="47.50725" lon="6.76593">
        <ele>438.7</ele>
        <time>2017-10-22T07:22:34.999Z</time>
      </trkpt>
      <trkpt lat="47.5072" lon="6.76592">
        <ele>439.6</ele>
        <time>2017-10-22T07:22:35.999Z</time>
      </trkpt>
      <trkpt lat="47.50716" lon="6.7659">
        <ele>440.2</ele>
        <time>2017-10-22T07:22:36.999Z</time>
      </trkpt>
      <trkpt lat="47.50712" lon="6.76589">
        <ele>440.5</ele>
        <time>2017-10-22T07:22:37.999Z</time>
      </trkpt>
      <trkpt lat="47.50708" lon="6.76588">
        <ele>440.4</ele>
        <time>2017-10-22T07:22:38.999Z</time>
      </trkpt>
      <trkpt lat="47.50704" lon="6.76587">
        <ele>440.9</ele>
        <time>2017-10-22T07:22:39.999Z</time>
      </trkpt>
      <trkpt lat="47.507" lon="6.76587">
        <ele>441.4</ele>
        <time>2017-10-22T07:22:40.999Z</time>
      </trkpt>
      <trkpt lat="47.50695" lon="6.76586">
        <ele>441.7</ele>
        <time>2017-10-22T07:22:41.999Z</time>
      </trkpt>
      <trkpt lat="47.50691" lon="6.76587">
        <ele>441.6</ele>
        <time>2017-10-22T07:22:42.999Z</time>
      </trkpt>
      <trkpt lat="47.50686" lon="6.76588">
        <ele>441.9</ele>
        <time>2017-10-22T07:22:43.999Z</time>
      </trkpt>
      <trkpt lat="47.50681" lon="6.76588">
        <ele>442.6</ele>
        <time>2017-10-22T07:22:44.999Z</time>
      </trkpt>
      <trkpt lat="47.50676" lon="6.76589">
        <ele>443.2</ele>
        <time>2017-10-22T07:22:45.999Z</time>
      </trkpt>
      <trkpt lat="47.50671" lon="6.7659">
        <ele>443.7</ele>
        <time>2017-10-22T07:22:46.999Z</time>
      </trkpt>
      <trkpt lat="47.50665" lon="6.76591">
        <ele>443.8</ele>
        <time>2017-10-22T07:22:47.999Z</time>
      </trkpt>
      <trkpt lat="47.50661" lon="6.76593">
        <ele>444.1</ele>
        <time>2017-10-22T07:22:48.999Z</time>
      </trkpt>
      <trkpt lat="47.50657" lon="6.76594">
        <ele>444.7</ele>
        <time>2017-10-22T07:22:49.999Z</time>
      </trkpt>
      <trkpt lat="47.50652" lon="6.76596">
        <ele>445.5</ele>
        <time>2017-10-22T07:22:50.999Z</time>
      </trkpt>
      <trkpt lat="47.50648" lon="6.76598">
        <ele>446.2</ele>
        <time>2017-10-22T07:22:51.999Z</time>
      </trkpt>
      <trkpt lat="47.50643" lon="6.766">
        <ele>446.4</ele>
        <time>2017-10-22T07:22:52.999Z</time>
      </trkpt>
      <trkpt lat="47.50639" lon="6.76602">
        <ele>446.3</ele>
        <time>2017-10-22T07:22:53.999Z</time>
      </trkpt>
      <trkpt lat="47.50634" lon="6.76604">
        <ele>446.1</ele>
        <time>2017-10-22T07:22:54.999Z</time>
      </trkpt>
      <trkpt lat="47.5063" lon="6.76607">
        <ele>446</ele>
        <time>2017-10-22T07:22:55.999Z</time>
      </trkpt>
      <trkpt lat="47.50627" lon="6.76609">
        <ele>446</ele>
        <time>2017-10-22T07:22:56.999Z</time>
      </trkpt>
      <trkpt lat="47.50623" lon="6.76611">
        <ele>446</ele>
        <time>2017-10-22T07:22:57.999Z</time>
      </trkpt>
      <trkpt lat="47.50619" lon="6.76612">
        <ele>446</ele>
        <time>2017-10-22T07:22:58.999Z</time>
      </trkpt>
      <trkpt lat="47.50616" lon="6.76615">
        <ele>446.2</ele>
        <time>2017-10-22T07:22:59.999Z</time>
      </trkpt>
      <trkpt lat="47.50611" lon="6.76618">
        <ele>446.4</ele>
        <time>2017-10-22T07:23:00.999Z</time>
      </trkpt>
      <trkpt lat="47.50608" lon="6.7662">
        <ele>446.7</ele>
        <time>2017-10-22T07:23:01.999Z</time>
      </trkpt>
      <trkpt lat="47.50604" lon="6.76622">
        <ele>447.3</ele>
        <time>2017-10-22T07:23:02.999Z</time>
      </trkpt>
      <trkpt lat="47.506" lon="6.76624">
        <ele>447.4</ele>
        <time>2017-10-22T07:23:03.999Z</time>
      </trkpt>
      <trkpt lat="47.50596" lon="6.76626">
        <ele>447.4</ele>
        <time>2017-10-22T07:23:04.999Z</time>
      </trkpt>
      <trkpt lat="47.50591" lon="6.76627">
        <ele>447.4</ele>
        <time>2017-10-22T07:23:05.999Z</time>
      </trkpt>
      <trkpt lat="47.50586" lon="6.76629">
        <ele>447</ele>
        <time>2017-10-22T07:23:06.999Z</time>
      </trkpt>
      <trkpt lat="47.50582" lon="6.76631">
        <ele>447.3</ele>
        <time>2017-10-22T07:23:07.999Z</time>
      </trkpt>
      <trkpt lat="47.50577" lon="6.76632">
        <ele>447</ele>
        <time>2017-10-22T07:23:08.999Z</time>
      </trkpt>
      <trkpt lat="47.50573" lon="6.76633">
        <ele>446.8</ele>
        <time>2017-10-22T07:23:09.999Z</time>
      </trkpt>
      <trkpt lat="47.5057" lon="6.76634">
        <ele>446.8</ele>
        <time>2017-10-22T07:23:10.999Z</time>
      </trkpt>
      <trkpt lat="47.50565" lon="6.76635">
        <ele>446.9</ele>
        <time>2017-10-22T07:23:11.999Z</time>
      </trkpt>
      <trkpt lat="47.50562" lon="6.76635">
        <ele>447</ele>
        <time>2017-10-22T07:23:12.999Z</time>
      </trkpt>
      <trkpt lat="47.50559" lon="6.76636">
        <ele>447</ele>
        <time>2017-10-22T07:23:13.999Z</time>
      </trkpt>
      <trkpt lat="47.50555" lon="6.76636">
        <ele>447.3</ele>
        <time>2017-10-22T07:23:14.999Z</time>
      </trkpt>
      <trkpt lat="47.50551" lon="6.76637">
        <ele>447.7</ele>
        <time>2017-10-22T07:23:15.999Z</time>
      </trkpt>
      <trkpt lat="47.50547" lon="6.76638">
        <ele>447.7</ele>
        <time>2017-10-22T07:23:16.999Z</time>
      </trkpt>
      <trkpt lat="47.50543" lon="6.7664">
        <ele>447.4</ele>
        <time>2017-10-22T07:23:17.999Z</time>
      </trkpt>
      <trkpt lat="47.50539" lon="6.76641">
        <ele>447.3</ele>
        <time>2017-10-22T07:23:18.999Z</time>
      </trkpt>
      <trkpt lat="47.50534" lon="6.76642">
        <ele>447.2</ele>
        <time>2017-10-22T07:23:19.999Z</time>
      </trkpt>
      <trkpt lat="47.50529" lon="6.76642">
        <ele>446.7</ele>
        <time>2017-10-22T07:23:20.999Z</time>
      </trkpt>
      <trkpt lat="47.50525" lon="6.76643">
        <ele>446.7</ele>
        <time>2017-10-22T07:23:21.999Z</time>
      </trkpt>
      <trkpt lat="47.5052" lon="6.76645">
        <ele>446.7</ele>
        <time>2017-10-22T07:23:22.999Z</time>
      </trkpt>
      <trkpt lat="47.50515" lon="6.76647">
        <ele>446.5</ele>
        <time>2017-10-22T07:23:23.999Z</time>
      </trkpt>
      <trkpt lat="47.5051" lon="6.76648">
        <ele>446.6</ele>
        <time>2017-10-22T07:23:24.999Z</time>
      </trkpt>
      <trkpt lat="47.50505" lon="6.7665">
        <ele>446.3</ele>
        <time>2017-10-22T07:23:25.999Z</time>
      </trkpt>
      <trkpt lat="47.50499" lon="6.76651">
        <ele>446.1</ele>
        <time>2017-10-22T07:23:26.999Z</time>
      </trkpt>
      <trkpt lat="47.50494" lon="6.76653">
        <ele>446.5</ele>
        <time>2017-10-22T07:23:27.999Z</time>
      </trkpt>
      <trkpt lat="47.50489" lon="6.76655">
        <ele>447</ele>
        <time>2017-10-22T07:23:28.999Z</time>
      </trkpt>
      <trkpt lat="47.50483" lon="6.76658">
        <ele>447.6</ele>
        <time>2017-10-22T07:23:29.999Z</time>
      </trkpt>
      <trkpt lat="47.50478" lon="6.76659">
        <ele>448</ele>
        <time>2017-10-22T07:23:30.999Z</time>
      </trkpt>
      <trkpt lat="47.50472" lon="6.76661">
        <ele>448.2</ele>
        <time>2017-10-22T07:23:31.999Z</time>
      </trkpt>
      <trkpt lat="47.50466" lon="6.76664">
        <ele>448.6</ele>
        <time>2017-10-22T07:23:32.999Z</time>
      </trkpt>
      <trkpt lat="47.50461" lon="6.76665">
        <ele>450.1</ele>
        <time>2017-10-22T07:23:33.999Z</time>
      </trkpt>
      <trkpt lat="47.50455" lon="6.76668">
        <ele>451.6</ele>
        <time>2017-10-22T07:23:34.999Z</time>
      </trkpt>
      <trkpt lat="47.5045" lon="6.7667">
        <ele>452.9</ele>
        <time>2017-10-22T07:23:35.999Z</time>
      </trkpt>
      <trkpt lat="47.50445" lon="6.76672">
        <ele>453.9</ele>
        <time>2017-10-22T07:23:36.999Z</time>
      </trkpt>
      <trkpt lat="47.50439" lon="6.76674">
        <ele>454.8</ele>
        <time>2017-10-22T07:23:37.999Z</time>
      </trkpt>
      <trkpt lat="47.50434" lon="6.76676">
        <ele>455.7</ele>
        <time>2017-10-22T07:23:38.999Z</time>
      </trkpt>
      <trkpt lat="47.50429" lon="6.76678">
        <ele>456.5</ele>
        <time>2017-10-22T07:23:39.999Z</time>
      </trkpt>
      <trkpt lat="47.50425" lon="6.7668">
        <ele>457.4</ele>
        <time>2017-10-22T07:23:40.999Z</time>
      </trkpt>
      <trkpt lat="47.5042" lon="6.76682">
        <ele>458</ele>
        <time>2017-10-22T07:23:41.999Z</time>
      </trkpt>
      <trkpt lat="47.50414" lon="6.76684">
        <ele>458</ele>
        <time>2017-10-22T07:23:42.999Z</time>
      </trkpt>
      <trkpt lat="47.50409" lon="6.76685">
        <ele>458.4</ele>
        <time>2017-10-22T07:23:43.999Z</time>
      </trkpt>
      <trkpt lat="47.50403" lon="6.76687">
        <ele>458.4</ele>
        <time>2017-10-22T07:23:44.999Z</time>
      </trkpt>
      <trkpt lat="47.50398" lon="6.76689">
        <ele>459.1</ele>
        <time>2017-10-22T07:23:45.999Z</time>
      </trkpt>
      <trkpt lat="47.50394" lon="6.76692">
        <ele>459.5</ele>
        <time>2017-10-22T07:23:46.999Z</time>
      </trkpt>
      <trkpt lat="47.50389" lon="6.76694">
        <ele>460</ele>
        <time>2017-10-22T07:23:47.999Z</time>
      </trkpt>
      <trkpt lat="47.50386" lon="6.76696">
        <ele>460.1</ele>
        <time>2017-10-22T07:23:48.999Z</time>
      </trkpt>
      <trkpt lat="47.50382" lon="6.76698">
        <ele>459.9</ele>
        <time>2017-10-22T07:23:49.999Z</time>
      </trkpt>
      <trkpt lat="47.50378" lon="6.767">
        <ele>459.1</ele>
        <time>2017-10-22T07:23:50.999Z</time>
      </trkpt>
      <trkpt lat="47.50374" lon="6.76703">
        <ele>458.3</ele>
        <time>2017-10-22T07:23:51.999Z</time>
      </trkpt>
      <trkpt lat="47.5037" lon="6.76705">
        <ele>457.2</ele>
        <time>2017-10-22T07:23:52.999Z</time>
      </trkpt>
      <trkpt lat="47.50366" lon="6.76707">
        <ele>455.9</ele>
        <time>2017-10-22T07:23:53.999Z</time>
      </trkpt>
      <trkpt lat="47.50361" lon="6.76709">
        <ele>454.6</ele>
        <time>2017-10-22T07:23:54.999Z</time>
      </trkpt>
      <trkpt lat="47.50356" lon="6.76711">
        <ele>453.1</ele>
        <time>2017-10-22T07:23:55.999Z</time>
      </trkpt>
      <trkpt lat="47.50352" lon="6.76713">
        <ele>452.7</ele>
        <time>2017-10-22T07:23:56.999Z</time>
      </trkpt>
      <trkpt lat="47.50347" lon="6.76714">
        <ele>452.4</ele>
        <time>2017-10-22T07:23:57.999Z</time>
      </trkpt>
      <trkpt lat="47.50342" lon="6.76716">
        <ele>451.9</ele>
        <time>2017-10-22T07:23:58.999Z</time>
      </trkpt>
      <trkpt lat="47.50339" lon="6.76717">
        <ele>451.5</ele>
        <time>2017-10-22T07:23:59.999Z</time>
      </trkpt>
      <trkpt lat="47.50335" lon="6.76718">
        <ele>451</ele>
        <time>2017-10-22T07:24:00.999Z</time>
      </trkpt>
      <trkpt lat="47.50331" lon="6.7672">
        <ele>451.2</ele>
        <time>2017-10-22T07:24:01.999Z</time>
      </trkpt>
      <trkpt lat="47.50326" lon="6.76721">
        <ele>451.5</ele>
        <time>2017-10-22T07:24:02.999Z</time>
      </trkpt>
      <trkpt lat="47.50322" lon="6.76723">
        <ele>452.6</ele>
        <time>2017-10-22T07:24:03.999Z</time>
      </trkpt>
      <trkpt lat="47.50318" lon="6.76725">
        <ele>453</ele>
        <time>2017-10-22T07:24:04.999Z</time>
      </trkpt>
      <trkpt lat="47.50314" lon="6.76727">
        <ele>453.1</ele>
        <time>2017-10-22T07:24:05.999Z</time>
      </trkpt>
      <trkpt lat="47.5031" lon="6.76728">
        <ele>453.1</ele>
        <time>2017-10-22T07:24:06.999Z</time>
      </trkpt>
      <trkpt lat="47.50307" lon="6.76729">
        <ele>452.9</ele>
        <time>2017-10-22T07:24:07.999Z</time>
      </trkpt>
      <trkpt lat="47.50303" lon="6.7673">
        <ele>452.9</ele>
        <time>2017-10-22T07:24:08.999Z</time>
      </trkpt>
      <trkpt lat="47.50298" lon="6.76732">
        <ele>452.5</ele>
        <time>2017-10-22T07:24:09.999Z</time>
      </trkpt>
      <trkpt lat="47.50293" lon="6.76733">
        <ele>452.1</ele>
        <time>2017-10-22T07:24:10.999Z</time>
      </trkpt>
      <trkpt lat="47.50288" lon="6.76734">
        <ele>452.1</ele>
        <time>2017-10-22T07:24:11.999Z</time>
      </trkpt>
      <trkpt lat="47.50283" lon="6.76734">
        <ele>452.1</ele>
        <time>2017-10-22T07:24:12.999Z</time>
      </trkpt>
      <trkpt lat="47.50278" lon="6.76735">
        <ele>452.8</ele>
        <time>2017-10-22T07:24:13.999Z</time>
      </trkpt>
      <trkpt lat="47.50274" lon="6.76736">
        <ele>453.5</ele>
        <time>2017-10-22T07:24:14.999Z</time>
      </trkpt>
      <trkpt lat="47.50269" lon="6.76737">
        <ele>454.2</ele>
        <time>2017-10-22T07:24:15.999Z</time>
      </trkpt>
      <trkpt lat="47.50266" lon="6.76738">
        <ele>455</ele>
        <time>2017-10-22T07:24:16.999Z</time>
      </trkpt>
      <trkpt lat="47.50262" lon="6.76739">
        <ele>455</ele>
        <time>2017-10-22T07:24:17.999Z</time>
      </trkpt>
      <trkpt lat="47.50259" lon="6.7674">
        <ele>455</ele>
        <time>2017-10-22T07:24:18.999Z</time>
      </trkpt>
      <trkpt lat="47.50255" lon="6.76742">
        <ele>455</ele>
        <time>2017-10-22T07:24:19.999Z</time>
      </trkpt>
      <trkpt lat="47.50251" lon="6.7674">
        <ele>455</ele>
        <time>2017-10-22T07:24:20.999Z</time>
      </trkpt>
      <trkpt lat="47.50249" lon="6.76738">
        <ele>455</ele>
        <time>2017-10-22T07:24:21.999Z</time>
      </trkpt>
      <trkpt lat="47.50247" lon="6.76736">
        <ele>454.9</ele>
        <time>2017-10-22T07:24:22.999Z</time>
      </trkpt>
      <trkpt lat="47.50245" lon="6.76733">
        <ele>454.7</ele>
        <time>2017-10-22T07:24:23.999Z</time>
      </trkpt>
      <trkpt lat="47.50242" lon="6.76729">
        <ele>454.6</ele>
        <time>2017-10-22T07:24:24.999Z</time>
      </trkpt>
      <trkpt lat="47.5024" lon="6.76726">
        <ele>454.5</ele>
        <time>2017-10-22T07:24:25.999Z</time>
      </trkpt>
      <trkpt lat="47.50239" lon="6.76723">
        <ele>454.4</ele>
        <time>2017-10-22T07:24:26.999Z</time>
      </trkpt>
      <trkpt lat="47.50237" lon="6.76719">
        <ele>454.2</ele>
        <time>2017-10-22T07:24:27.999Z</time>
      </trkpt>
      <trkpt lat="47.50235" lon="6.76715">
        <ele>454.2</ele>
        <time>2017-10-22T07:24:28.999Z</time>
      </trkpt>
      <trkpt lat="47.50233" lon="6.76711">
        <ele>454.1</ele>
        <time>2017-10-22T07:24:29.999Z</time>
      </trkpt>
      <trkpt lat="47.50231" lon="6.76706">
        <ele>453.9</ele>
        <time>2017-10-22T07:24:30.999Z</time>
      </trkpt>
      <trkpt lat="47.50229" lon="6.76701">
        <ele>453.4</ele>
        <time>2017-10-22T07:24:31.999Z</time>
      </trkpt>
      <trkpt lat="47.50226" lon="6.76695">
        <ele>453.2</ele>
        <time>2017-10-22T07:24:32.999Z</time>
      </trkpt>
      <trkpt lat="47.50224" lon="6.76689">
        <ele>452.5</ele>
        <time>2017-10-22T07:24:33.999Z</time>
      </trkpt>
      <trkpt lat="47.50221" lon="6.76682">
        <ele>451.6</ele>
        <time>2017-10-22T07:24:34.999Z</time>
      </trkpt>
      <trkpt lat="47.50219" lon="6.76675">
        <ele>450.9</ele>
        <time>2017-10-22T07:24:35.999Z</time>
      </trkpt>
      <trkpt lat="47.50216" lon="6.76668">
        <ele>450.2</ele>
        <time>2017-10-22T07:24:36.999Z</time>
      </trkpt>
      <trkpt lat="47.50214" lon="6.76661">
        <ele>449.5</ele>
        <time>2017-10-22T07:24:37.999Z</time>
      </trkpt>
      <trkpt lat="47.50211" lon="6.76654">
        <ele>448.8</ele>
        <time>2017-10-22T07:24:38.999Z</time>
      </trkpt>
      <trkpt lat="47.50209" lon="6.76647">
        <ele>448.5</ele>
        <time>2017-10-22T07:24:39.999Z</time>
      </trkpt>
      <trkpt lat="47.50207" lon="6.76639">
        <ele>447.7</ele>
        <time>2017-10-22T07:24:40.999Z</time>
      </trkpt>
      <trkpt lat="47.50205" lon="6.76632">
        <ele>447.5</ele>
        <time>2017-10-22T07:24:41.999Z</time>
      </trkpt>
      <trkpt lat="47.50202" lon="6.76624">
        <ele>447.6</ele>
        <time>2017-10-22T07:24:42.999Z</time>
      </trkpt>
      <trkpt lat="47.502" lon="6.76616">
        <ele>448.1</ele>
        <time>2017-10-22T07:24:43.999Z</time>
      </trkpt>
      <trkpt lat="47.50197" lon="6.76608">
        <ele>448.3</ele>
        <time>2017-10-22T07:24:44.999Z</time>
      </trkpt>
      <trkpt lat="47.50195" lon="6.76602">
        <ele>447.8</ele>
        <time>2017-10-22T07:24:45.999Z</time>
      </trkpt>
      <trkpt lat="47.50194" lon="6.76597">
        <ele>447.7</ele>
        <time>2017-10-22T07:24:46.999Z</time>
      </trkpt>
      <trkpt lat="47.50195" lon="6.76593">
        <ele>447.5</ele>
        <time>2017-10-22T07:24:47.999Z</time>
      </trkpt>
      <trkpt lat="47.50197" lon="6.7659">
        <ele>447.4</ele>
        <time>2017-10-22T07:24:48.999Z</time>
      </trkpt>
      <trkpt lat="47.50199" lon="6.76588">
        <ele>446.8</ele>
        <time>2017-10-22T07:24:50.999Z</time>
      </trkpt>
      <trkpt lat="47.502" lon="6.76586">
        <ele>446.5</ele>
        <time>2017-10-22T07:24:51.999Z</time>
      </trkpt>
      <trkpt lat="47.50201" lon="6.76583">
        <ele>446.1</ele>
        <time>2017-10-22T07:24:52.999Z</time>
      </trkpt>
      <trkpt lat="47.50203" lon="6.7658">
        <ele>445.9</ele>
        <time>2017-10-22T07:24:53.999Z</time>
      </trkpt>
      <trkpt lat="47.50205" lon="6.76577">
        <ele>442.8</ele>
        <time>2017-10-22T07:24:54.999Z</time>
      </trkpt>
      <trkpt lat="47.50209" lon="6.76576">
        <ele>440.8</ele>
        <time>2017-10-22T07:24:55.999Z</time>
      </trkpt>
      <trkpt lat="47.50212" lon="6.76574">
        <ele>438.6</ele>
        <time>2017-10-22T07:24:56.999Z</time>
      </trkpt>
      <trkpt lat="47.50214" lon="6.76569">
        <ele>437.9</ele>
        <time>2017-10-22T07:24:57.999Z</time>
      </trkpt>
      <trkpt lat="47.50214" lon="6.76563">
        <ele>437.8</ele>
        <time>2017-10-22T07:24:58.999Z</time>
      </trkpt>
      <trkpt lat="47.50215" lon="6.76558">
        <ele>437.7</ele>
        <time>2017-10-22T07:24:59.999Z</time>
      </trkpt>
      <trkpt lat="47.50214" lon="6.76553">
        <ele>437.6</ele>
        <time>2017-10-22T07:25:00.999Z</time>
      </trkpt>
      <trkpt lat="47.50213" lon="6.76549">
        <ele>437.4</ele>
        <time>2017-10-22T07:25:01.999Z</time>
      </trkpt>
      <trkpt lat="47.50213" lon="6.76544">
        <ele>437.3</ele>
        <time>2017-10-22T07:25:02.999Z</time>
      </trkpt>
      <trkpt lat="47.50212" lon="6.76541">
        <ele>437.2</ele>
        <time>2017-10-22T07:25:03.999Z</time>
      </trkpt>
      <trkpt lat="47.50213" lon="6.76538">
        <ele>436.9</ele>
        <time>2017-10-22T07:25:11.999Z</time>
      </trkpt>
      <trkpt lat="47.50214" lon="6.76513">
        <ele>436.8</ele>
        <time>2017-10-22T07:25:12.999Z</time>
      </trkpt>
      <trkpt lat="47.50214" lon="6.76513">
        <ele>436.8</ele>
        <time>2017-10-22T07:25:16.999Z</time>
      </trkpt>
      <trkpt lat="47.50212" lon="6.76488">
        <ele>436.7</ele>
        <time>2017-10-22T07:25:17.999Z</time>
      </trkpt>
      <trkpt lat="47.50212" lon="6.76488">
        <ele>436.6</ele>
        <time>2017-10-22T07:25:18.999Z</time>
      </trkpt>
      <trkpt lat="47.50209" lon="6.76476">
        <ele>436.5</ele>
        <time>2017-10-22T07:25:19.999Z</time>
      </trkpt>
      <trkpt lat="47.50207" lon="6.76469">
        <ele>436.4</ele>
        <time>2017-10-22T07:25:20.999Z</time>
      </trkpt>
      <trkpt lat="47.50205" lon="6.76464">
        <ele>436.3</ele>
        <time>2017-10-22T07:25:21.999Z</time>
      </trkpt>
      <trkpt lat="47.50204" lon="6.76457">
        <ele>436.3</ele>
        <time>2017-10-22T07:25:22.999Z</time>
      </trkpt>
      <trkpt lat="47.50201" lon="6.76447">
        <ele>436.2</ele>
        <time>2017-10-22T07:25:23.999Z</time>
      </trkpt>
      <trkpt lat="47.50197" lon="6.76436">
        <ele>436.2</ele>
        <time>2017-10-22T07:25:24.999Z</time>
      </trkpt>
      <trkpt lat="47.50194" lon="6.76427">
        <ele>436.2</ele>
        <time>2017-10-22T07:25:25.999Z</time>
      </trkpt>
      <trkpt lat="47.5019" lon="6.76415">
        <ele>436.4</ele>
        <time>2017-10-22T07:25:26.999Z</time>
      </trkpt>
      <trkpt lat="47.50185" lon="6.76403">
        <ele>438.2</ele>
        <time>2017-10-22T07:25:27.999Z</time>
      </trkpt>
      <trkpt lat="47.50182" lon="6.76395">
        <ele>438.3</ele>
        <time>2017-10-22T07:25:28.999Z</time>
      </trkpt>
      <trkpt lat="47.50178" lon="6.76384">
        <ele>438.4</ele>
        <time>2017-10-22T07:25:29.999Z</time>
      </trkpt>
      <trkpt lat="47.50172" lon="6.76373">
        <ele>439.5</ele>
        <time>2017-10-22T07:25:30.999Z</time>
      </trkpt>
      <trkpt lat="47.50167" lon="6.76361">
        <ele>440.1</ele>
        <time>2017-10-22T07:25:31.999Z</time>
      </trkpt>
      <trkpt lat="47.50163" lon="6.76351">
        <ele>440.7</ele>
        <time>2017-10-22T07:25:32.999Z</time>
      </trkpt>
      <trkpt lat="47.50157" lon="6.76338">
        <ele>440.8</ele>
        <time>2017-10-22T07:25:33.999Z</time>
      </trkpt>
      <trkpt lat="47.50152" lon="6.76325">
        <ele>441.4</ele>
        <time>2017-10-22T07:25:34.999Z</time>
      </trkpt>
      <trkpt lat="47.50148" lon="6.76312">
        <ele>441.9</ele>
        <time>2017-10-22T07:25:35.999Z</time>
      </trkpt>
      <trkpt lat="47.50143" lon="6.76299">
        <ele>441.9</ele>
        <time>2017-10-22T07:25:36.999Z</time>
      </trkpt>
      <trkpt lat="47.50139" lon="6.76287">
        <ele>441.8</ele>
        <time>2017-10-22T07:25:37.999Z</time>
      </trkpt>
      <trkpt lat="47.50136" lon="6.76277">
        <ele>442.4</ele>
        <time>2017-10-22T07:25:38.999Z</time>
      </trkpt>
      <trkpt lat="47.50135" lon="6.76266">
        <ele>442.3</ele>
        <time>2017-10-22T07:25:39.999Z</time>
      </trkpt>
      <trkpt lat="47.50134" lon="6.76256">
        <ele>441.9</ele>
        <time>2017-10-22T07:25:40.999Z</time>
      </trkpt>
      <trkpt lat="47.50133" lon="6.76244">
        <ele>442.4</ele>
        <time>2017-10-22T07:25:41.999Z</time>
      </trkpt>
      <trkpt lat="47.50132" lon="6.76233">
        <ele>441.7</ele>
        <time>2017-10-22T07:25:42.999Z</time>
      </trkpt>
      <trkpt lat="47.50131" lon="6.76221">
        <ele>440.9</ele>
        <time>2017-10-22T07:25:43.999Z</time>
      </trkpt>
      <trkpt lat="47.5013" lon="6.7621">
        <ele>440.2</ele>
        <time>2017-10-22T07:25:44.999Z</time>
      </trkpt>
      <trkpt lat="47.50129" lon="6.76198">
        <ele>438.7</ele>
        <time>2017-10-22T07:25:45.999Z</time>
      </trkpt>
      <trkpt lat="47.50127" lon="6.76187">
        <ele>437.4</ele>
        <time>2017-10-22T07:25:46.999Z</time>
      </trkpt>
      <trkpt lat="47.50125" lon="6.76177">
        <ele>436.7</ele>
        <time>2017-10-22T07:25:47.999Z</time>
      </trkpt>
      <trkpt lat="47.50123" lon="6.76167">
        <ele>435.6</ele>
        <time>2017-10-22T07:25:48.999Z</time>
      </trkpt>
      <trkpt lat="47.50121" lon="6.76156">
        <ele>435.8</ele>
        <time>2017-10-22T07:25:49.999Z</time>
      </trkpt>
      <trkpt lat="47.50119" lon="6.76142">
        <ele>435.8</ele>
        <time>2017-10-22T07:25:50.999Z</time>
      </trkpt>
      <trkpt lat="47.50117" lon="6.76131">
        <ele>436.1</ele>
        <time>2017-10-22T07:25:51.999Z</time>
      </trkpt>
      <trkpt lat="47.50115" lon="6.76119">
        <ele>436.7</ele>
        <time>2017-10-22T07:25:52.999Z</time>
      </trkpt>
      <trkpt lat="47.50113" lon="6.76108">
        <ele>437.1</ele>
        <time>2017-10-22T07:25:53.999Z</time>
      </trkpt>
      <trkpt lat="47.50111" lon="6.76094">
        <ele>437.3</ele>
        <time>2017-10-22T07:25:54.999Z</time>
      </trkpt>
      <trkpt lat="47.50109" lon="6.76079">
        <ele>437.6</ele>
        <time>2017-10-22T07:25:55.999Z</time>
      </trkpt>
      <trkpt lat="47.50107" lon="6.76066">
        <ele>437.3</ele>
        <time>2017-10-22T07:25:56.999Z</time>
      </trkpt>
      <trkpt lat="47.50105" lon="6.76053">
        <ele>437.3</ele>
        <time>2017-10-22T07:25:57.999Z</time>
      </trkpt>
      <trkpt lat="47.50102" lon="6.76039">
        <ele>437.6</ele>
        <time>2017-10-22T07:25:58.999Z</time>
      </trkpt>
      <trkpt lat="47.501" lon="6.76025">
        <ele>437</ele>
        <time>2017-10-22T07:25:59.999Z</time>
      </trkpt>
      <trkpt lat="47.50098" lon="6.76012">
        <ele>435.9</ele>
        <time>2017-10-22T07:26:00.999Z</time>
      </trkpt>
      <trkpt lat="47.50096" lon="6.76002">
        <ele>434.6</ele>
        <time>2017-10-22T07:26:01.999Z</time>
      </trkpt>
      <trkpt lat="47.50092" lon="6.75994">
        <ele>433.1</ele>
        <time>2017-10-22T07:26:02.999Z</time>
      </trkpt>
      <trkpt lat="47.50088" lon="6.75987">
        <ele>431.7</ele>
        <time>2017-10-22T07:26:03.999Z</time>
      </trkpt>
      <trkpt lat="47.50083" lon="6.75979">
        <ele>431</ele>
        <time>2017-10-22T07:26:04.999Z</time>
      </trkpt>
      <trkpt lat="47.50078" lon="6.7597">
        <ele>430</ele>
        <time>2017-10-22T07:26:05.999Z</time>
      </trkpt>
      <trkpt lat="47.50074" lon="6.75963">
        <ele>429.6</ele>
        <time>2017-10-22T07:26:06.999Z</time>
      </trkpt>
      <trkpt lat="47.50069" lon="6.75957">
        <ele>428.4</ele>
        <time>2017-10-22T07:26:07.999Z</time>
      </trkpt>
      <trkpt lat="47.50064" lon="6.75949">
        <ele>427.4</ele>
        <time>2017-10-22T07:26:08.999Z</time>
      </trkpt>
      <trkpt lat="47.50058" lon="6.75941">
        <ele>427.1</ele>
        <time>2017-10-22T07:26:09.999Z</time>
      </trkpt>
      <trkpt lat="47.50053" lon="6.75934">
        <ele>427</ele>
        <time>2017-10-22T07:26:10.999Z</time>
      </trkpt>
      <trkpt lat="47.50047" lon="6.75926">
        <ele>426.1</ele>
        <time>2017-10-22T07:26:11.999Z</time>
      </trkpt>
      <trkpt lat="47.50041" lon="6.75918">
        <ele>424.9</ele>
        <time>2017-10-22T07:26:12.999Z</time>
      </trkpt>
      <trkpt lat="47.50035" lon="6.7591">
        <ele>424.4</ele>
        <time>2017-10-22T07:26:13.999Z</time>
      </trkpt>
      <trkpt lat="47.50028" lon="6.759">
        <ele>423.9</ele>
        <time>2017-10-22T07:26:14.999Z</time>
      </trkpt>
      <trkpt lat="47.50022" lon="6.75891">
        <ele>423.6</ele>
        <time>2017-10-22T07:26:15.999Z</time>
      </trkpt>
      <trkpt lat="47.50016" lon="6.75881">
        <ele>423.7</ele>
        <time>2017-10-22T07:26:16.999Z</time>
      </trkpt>
      <trkpt lat="47.50011" lon="6.75873">
        <ele>423.6</ele>
        <time>2017-10-22T07:26:17.999Z</time>
      </trkpt>
      <trkpt lat="47.50007" lon="6.75866">
        <ele>423.7</ele>
        <time>2017-10-22T07:26:18.999Z</time>
      </trkpt>
      <trkpt lat="47.50003" lon="6.75857">
        <ele>422.8</ele>
        <time>2017-10-22T07:26:19.999Z</time>
      </trkpt>
      <trkpt lat="47.49998" lon="6.75846">
        <ele>421.5</ele>
        <time>2017-10-22T07:26:20.999Z</time>
      </trkpt>
      <trkpt lat="47.49992" lon="6.75835">
        <ele>420.4</ele>
        <time>2017-10-22T07:26:21.999Z</time>
      </trkpt>
      <trkpt lat="47.49986" lon="6.75824">
        <ele>420</ele>
        <time>2017-10-22T07:26:22.999Z</time>
      </trkpt>
      <trkpt lat="47.49981" lon="6.75813">
        <ele>419.4</ele>
        <time>2017-10-22T07:26:23.999Z</time>
      </trkpt>
      <trkpt lat="47.49976" lon="6.75804">
        <ele>418.9</ele>
        <time>2017-10-22T07:26:24.999Z</time>
      </trkpt>
      <trkpt lat="47.49971" lon="6.75793">
        <ele>417.7</ele>
        <time>2017-10-22T07:26:25.999Z</time>
      </trkpt>
      <trkpt lat="47.49965" lon="6.75783">
        <ele>416.3</ele>
        <time>2017-10-22T07:26:26.999Z</time>
      </trkpt>
      <trkpt lat="47.49959" lon="6.75773">
        <ele>415.1</ele>
        <time>2017-10-22T07:26:27.999Z</time>
      </trkpt>
      <trkpt lat="47.49952" lon="6.75765">
        <ele>414</ele>
        <time>2017-10-22T07:26:28.999Z</time>
      </trkpt>
      <trkpt lat="47.49946" lon="6.75757">
        <ele>413.4</ele>
        <time>2017-10-22T07:26:29.999Z</time>
      </trkpt>
      <trkpt lat="47.4994" lon="6.75749">
        <ele>412.6</ele>
        <time>2017-10-22T07:26:30.999Z</time>
      </trkpt>
      <trkpt lat="47.49935" lon="6.75744">
        <ele>412.3</ele>
        <time>2017-10-22T07:26:31.999Z</time>
      </trkpt>
      <trkpt lat="47.49928" lon="6.75736">
        <ele>411.7</ele>
        <time>2017-10-22T07:26:32.999Z</time>
      </trkpt>
      <trkpt lat="47.49919" lon="6.75725">
        <ele>410.8</ele>
        <time>2017-10-22T07:26:33.999Z</time>
      </trkpt>
      <trkpt lat="47.49912" lon="6.75717">
        <ele>409.7</ele>
        <time>2017-10-22T07:26:34.999Z</time>
      </trkpt>
      <trkpt lat="47.49903" lon="6.75718">
        <ele>408.3</ele>
        <time>2017-10-22T07:26:35.999Z</time>
      </trkpt>
      <trkpt lat="47.49894" lon="6.75721">
        <ele>406.8</ele>
        <time>2017-10-22T07:26:36.999Z</time>
      </trkpt>
      <trkpt lat="47.49883" lon="6.75726">
        <ele>405.7</ele>
        <time>2017-10-22T07:26:37.999Z</time>
      </trkpt>
      <trkpt lat="47.49871" lon="6.75728">
        <ele>405.2</ele>
        <time>2017-10-22T07:26:38.999Z</time>
      </trkpt>
      <trkpt lat="47.4986" lon="6.75728">
        <ele>403.9</ele>
        <time>2017-10-22T07:26:39.999Z</time>
      </trkpt>
      <trkpt lat="47.49849" lon="6.75729">
        <ele>402.6</ele>
        <time>2017-10-22T07:26:40.999Z</time>
      </trkpt>
      <trkpt lat="47.49835" lon="6.75729">
        <ele>401.3</ele>
        <time>2017-10-22T07:26:41.999Z</time>
      </trkpt>
      <trkpt lat="47.49824" lon="6.75732">
        <ele>401.7</ele>
        <time>2017-10-22T07:26:42.999Z</time>
      </trkpt>
      <trkpt lat="47.49812" lon="6.75735">
        <ele>401.2</ele>
        <time>2017-10-22T07:26:43.999Z</time>
      </trkpt>
      <trkpt lat="47.49801" lon="6.75736">
        <ele>400.3</ele>
        <time>2017-10-22T07:26:44.999Z</time>
      </trkpt>
      <trkpt lat="47.49792" lon="6.75737">
        <ele>399.5</ele>
        <time>2017-10-22T07:26:45.999Z</time>
      </trkpt>
      <trkpt lat="47.49784" lon="6.75739">
        <ele>399.9</ele>
        <time>2017-10-22T07:26:46.999Z</time>
      </trkpt>
      <trkpt lat="47.49772" lon="6.75741">
        <ele>400.4</ele>
        <time>2017-10-22T07:26:47.999Z</time>
      </trkpt>
      <trkpt lat="47.49761" lon="6.75746">
        <ele>400.1</ele>
        <time>2017-10-22T07:26:48.999Z</time>
      </trkpt>
      <trkpt lat="47.49751" lon="6.75752">
        <ele>400.1</ele>
        <time>2017-10-22T07:26:49.999Z</time>
      </trkpt>
      <trkpt lat="47.49742" lon="6.75757">
        <ele>401.3</ele>
        <time>2017-10-22T07:26:50.999Z</time>
      </trkpt>
      <trkpt lat="47.49732" lon="6.75762">
        <ele>401.1</ele>
        <time>2017-10-22T07:26:51.999Z</time>
      </trkpt>
      <trkpt lat="47.49722" lon="6.75767">
        <ele>401.5</ele>
        <time>2017-10-22T07:26:52.999Z</time>
      </trkpt>
      <trkpt lat="47.49713" lon="6.75771">
        <ele>401.6</ele>
        <time>2017-10-22T07:26:53.999Z</time>
      </trkpt>
      <trkpt lat="47.49704" lon="6.75774">
        <ele>401</ele>
        <time>2017-10-22T07:26:54.999Z</time>
      </trkpt>
      <trkpt lat="47.49697" lon="6.75777">
        <ele>399.1</ele>
        <time>2017-10-22T07:26:55.999Z</time>
      </trkpt>
      <trkpt lat="47.4969" lon="6.75779">
        <ele>397</ele>
        <time>2017-10-22T07:26:56.999Z</time>
      </trkpt>
      <trkpt lat="47.49682" lon="6.75782">
        <ele>394.9</ele>
        <time>2017-10-22T07:26:57.999Z</time>
      </trkpt>
      <trkpt lat="47.49674" lon="6.75784">
        <ele>392.1</ele>
        <time>2017-10-22T07:26:58.999Z</time>
      </trkpt>
      <trkpt lat="47.49664" lon="6.75786">
        <ele>390.1</ele>
        <time>2017-10-22T07:26:59.999Z</time>
      </trkpt>
      <trkpt lat="47.49656" lon="6.75789">
        <ele>388.5</ele>
        <time>2017-10-22T07:27:00.999Z</time>
      </trkpt>
      <trkpt lat="47.4965" lon="6.75793">
        <ele>387.3</ele>
        <time>2017-10-22T07:27:01.999Z</time>
      </trkpt>
      <trkpt lat="47.49644" lon="6.75795">
        <ele>386.5</ele>
        <time>2017-10-22T07:27:02.999Z</time>
      </trkpt>
      <trkpt lat="47.49636" lon="6.75796">
        <ele>385.7</ele>
        <time>2017-10-22T07:27:03.999Z</time>
      </trkpt>
      <trkpt lat="47.49627" lon="6.75794">
        <ele>385.4</ele>
        <time>2017-10-22T07:27:04.999Z</time>
      </trkpt>
      <trkpt lat="47.49618" lon="6.75793">
        <ele>385</ele>
        <time>2017-10-22T07:27:05.999Z</time>
      </trkpt>
      <trkpt lat="47.49609" lon="6.75791">
        <ele>384.2</ele>
        <time>2017-10-22T07:27:06.999Z</time>
      </trkpt>
      <trkpt lat="47.49603" lon="6.75791">
        <ele>384.1</ele>
        <time>2017-10-22T07:27:07.999Z</time>
      </trkpt>
      <trkpt lat="47.49603" lon="6.75791">
        <ele>384.1</ele>
        <time>2017-10-22T07:27:16.999Z</time>
      </trkpt>
      <trkpt lat="47.49592" lon="6.75791">
        <ele>384.1</ele>
        <time>2017-10-22T07:27:17.999Z</time>
      </trkpt>
      <trkpt lat="47.49588" lon="6.75791">
        <ele>384.2</ele>
        <time>2017-10-22T07:27:18.999Z</time>
      </trkpt>
      <trkpt lat="47.49583" lon="6.75789">
        <ele>384.3</ele>
        <time>2017-10-22T07:27:19.999Z</time>
      </trkpt>
      <trkpt lat="47.49579" lon="6.75786">
        <ele>384.3</ele>
        <time>2017-10-22T07:27:20.999Z</time>
      </trkpt>
      <trkpt lat="47.49576" lon="6.75785">
        <ele>384.3</ele>
        <time>2017-10-22T07:27:21.999Z</time>
      </trkpt>
      <trkpt lat="47.49568" lon="6.75778">
        <ele>384.2</ele>
        <time>2017-10-22T07:27:22.999Z</time>
      </trkpt>
      <trkpt lat="47.49561" lon="6.75772">
        <ele>383.9</ele>
        <time>2017-10-22T07:27:23.999Z</time>
      </trkpt>
      <trkpt lat="47.49558" lon="6.75764">
        <ele>383.5</ele>
        <time>2017-10-22T07:27:24.999Z</time>
      </trkpt>
      <trkpt lat="47.49561" lon="6.75758">
        <ele>380</ele>
        <time>2017-10-22T07:27:25.999Z</time>
      </trkpt>
      <trkpt lat="47.49564" lon="6.75754">
        <ele>377.7</ele>
        <time>2017-10-22T07:27:26.999Z</time>
      </trkpt>
      <trkpt lat="47.49567" lon="6.7575">
        <ele>377.6</ele>
        <time>2017-10-22T07:27:27.999Z</time>
      </trkpt>
      <trkpt lat="47.4957" lon="6.75747">
        <ele>375.9</ele>
        <time>2017-10-22T07:27:28.999Z</time>
      </trkpt>
      <trkpt lat="47.49574" lon="6.75742">
        <ele>374.7</ele>
        <time>2017-10-22T07:27:29.999Z</time>
      </trkpt>
      <trkpt lat="47.49578" lon="6.75737">
        <ele>373.7</ele>
        <time>2017-10-22T07:27:30.999Z</time>
      </trkpt>
      <trkpt lat="47.49582" lon="6.75732">
        <ele>373.1</ele>
        <time>2017-10-22T07:27:31.999Z</time>
      </trkpt>
      <trkpt lat="47.49586" lon="6.75726">
        <ele>372.6</ele>
        <time>2017-10-22T07:27:32.999Z</time>
      </trkpt>
      <trkpt lat="47.49589" lon="6.75718">
        <ele>371.9</ele>
        <time>2017-10-22T07:27:33.999Z</time>
      </trkpt>
      <trkpt lat="47.49593" lon="6.75711">
        <ele>371.3</ele>
        <time>2017-10-22T07:27:34.999Z</time>
      </trkpt>
      <trkpt lat="47.49596" lon="6.75703">
        <ele>370.5</ele>
        <time>2017-10-22T07:27:35.999Z</time>
      </trkpt>
      <trkpt lat="47.49599" lon="6.75694">
        <ele>369.3</ele>
        <time>2017-10-22T07:27:36.999Z</time>
      </trkpt>
      <trkpt lat="47.49597" lon="6.75685">
        <ele>368.3</ele>
        <time>2017-10-22T07:27:37.999Z</time>
      </trkpt>
      <trkpt lat="47.49593" lon="6.75677">
        <ele>368.6</ele>
        <time>2017-10-22T07:27:38.999Z</time>
      </trkpt>
      <trkpt lat="47.49587" lon="6.75671">
        <ele>367.9</ele>
        <time>2017-10-22T07:27:39.999Z</time>
      </trkpt>
      <trkpt lat="47.4958" lon="6.75666">
        <ele>366.8</ele>
        <time>2017-10-22T07:27:40.999Z</time>
      </trkpt>
      <trkpt lat="47.49574" lon="6.75663">
        <ele>367</ele>
        <time>2017-10-22T07:27:41.999Z</time>
      </trkpt>
      <trkpt lat="47.49568" lon="6.75665">
        <ele>366.9</ele>
        <time>2017-10-22T07:27:42.999Z</time>
      </trkpt>
      <trkpt lat="47.49563" lon="6.75672">
        <ele>367.2</ele>
        <time>2017-10-22T07:27:43.999Z</time>
      </trkpt>
      <trkpt lat="47.49558" lon="6.75679">
        <ele>367.9</ele>
        <time>2017-10-22T07:27:44.999Z</time>
      </trkpt>
      <trkpt lat="47.49554" lon="6.75686">
        <ele>368</ele>
        <time>2017-10-22T07:27:45.999Z</time>
      </trkpt>
      <trkpt lat="47.4955" lon="6.75694">
        <ele>367.7</ele>
        <time>2017-10-22T07:27:46.999Z</time>
      </trkpt>
      <trkpt lat="47.49545" lon="6.757">
        <ele>367.7</ele>
        <time>2017-10-22T07:27:47.999Z</time>
      </trkpt>
      <trkpt lat="47.4954" lon="6.75707">
        <ele>367.9</ele>
        <time>2017-10-22T07:27:48.999Z</time>
      </trkpt>
      <trkpt lat="47.49536" lon="6.75712">
        <ele>368.2</ele>
        <time>2017-10-22T07:27:49.999Z</time>
      </trkpt>
      <trkpt lat="47.4953" lon="6.75717">
        <ele>368.2</ele>
        <time>2017-10-22T07:27:50.999Z</time>
      </trkpt>
      <trkpt lat="47.49525" lon="6.75722">
        <ele>368.2</ele>
        <time>2017-10-22T07:27:51.999Z</time>
      </trkpt>
      <trkpt lat="47.4952" lon="6.75726">
        <ele>368.1</ele>
        <time>2017-10-22T07:27:52.999Z</time>
      </trkpt>
      <trkpt lat="47.49515" lon="6.75727">
        <ele>367.3</ele>
        <time>2017-10-22T07:27:53.999Z</time>
      </trkpt>
      <trkpt lat="47.49509" lon="6.75729">
        <ele>366.9</ele>
        <time>2017-10-22T07:27:54.999Z</time>
      </trkpt>
      <trkpt lat="47.49504" lon="6.75732">
        <ele>366.8</ele>
        <time>2017-10-22T07:27:55.999Z</time>
      </trkpt>
      <trkpt lat="47.49499" lon="6.75734">
        <ele>367.3</ele>
        <time>2017-10-22T07:27:56.999Z</time>
      </trkpt>
      <trkpt lat="47.49493" lon="6.75737">
        <ele>368.2</ele>
        <time>2017-10-22T07:27:57.999Z</time>
      </trkpt>
      <trkpt lat="47.49488" lon="6.75739">
        <ele>368.4</ele>
        <time>2017-10-22T07:27:58.999Z</time>
      </trkpt>
      <trkpt lat="47.49481" lon="6.7574">
        <ele>367.8</ele>
        <time>2017-10-22T07:27:59.999Z</time>
      </trkpt>
      <trkpt lat="47.49477" lon="6.75736">
        <ele>368.2</ele>
        <time>2017-10-22T07:28:00.999Z</time>
      </trkpt>
      <trkpt lat="47.49475" lon="6.75726">
        <ele>368.4</ele>
        <time>2017-10-22T07:28:01.999Z</time>
      </trkpt>
      <trkpt lat="47.49473" lon="6.75718">
        <ele>368.7</ele>
        <time>2017-10-22T07:28:02.999Z</time>
      </trkpt>
      <trkpt lat="47.49471" lon="6.75712">
        <ele>368.7</ele>
        <time>2017-10-22T07:28:03.999Z</time>
      </trkpt>
      <trkpt lat="47.49469" lon="6.75705">
        <ele>368.8</ele>
        <time>2017-10-22T07:28:04.999Z</time>
      </trkpt>
      <trkpt lat="47.49466" lon="6.75699">
        <ele>368.3</ele>
        <time>2017-10-22T07:28:05.999Z</time>
      </trkpt>
      <trkpt lat="47.49462" lon="6.75695">
        <ele>367.7</ele>
        <time>2017-10-22T07:28:06.999Z</time>
      </trkpt>
      <trkpt lat="47.49458" lon="6.75694">
        <ele>366.8</ele>
        <time>2017-10-22T07:28:07.999Z</time>
      </trkpt>
      <trkpt lat="47.49453" lon="6.75697">
        <ele>366.3</ele>
        <time>2017-10-22T07:28:08.999Z</time>
      </trkpt>
      <trkpt lat="47.49449" lon="6.75699">
        <ele>365.8</ele>
        <time>2017-10-22T07:28:09.999Z</time>
      </trkpt>
      <trkpt lat="47.49444" lon="6.75701">
        <ele>365.4</ele>
        <time>2017-10-22T07:28:10.999Z</time>
      </trkpt>
      <trkpt lat="47.4944" lon="6.75701">
        <ele>364.9</ele>
        <time>2017-10-22T07:28:11.999Z</time>
      </trkpt>
      <trkpt lat="47.4944" lon="6.75693">
        <ele>364.4</ele>
        <time>2017-10-22T07:28:12.999Z</time>
      </trkpt>
      <trkpt lat="47.49439" lon="6.75685">
        <ele>363.6</ele>
        <time>2017-10-22T07:28:13.999Z</time>
      </trkpt>
      <trkpt lat="47.49437" lon="6.75679">
        <ele>363.3</ele>
        <time>2017-10-22T07:28:14.999Z</time>
      </trkpt>
      <trkpt lat="47.49435" lon="6.75674">
        <ele>363.3</ele>
        <time>2017-10-22T07:28:15.999Z</time>
      </trkpt>
      <trkpt lat="47.49431" lon="6.75672">
        <ele>363.4</ele>
        <time>2017-10-22T07:28:16.999Z</time>
      </trkpt>
      <trkpt lat="47.49428" lon="6.75671">
        <ele>363.5</ele>
        <time>2017-10-22T07:28:17.999Z</time>
      </trkpt>
      <trkpt lat="47.49424" lon="6.75673">
        <ele>363.5</ele>
        <time>2017-10-22T07:28:18.999Z</time>
      </trkpt>
      <trkpt lat="47.49421" lon="6.75674">
        <ele>363.6</ele>
        <time>2017-10-22T07:28:19.999Z</time>
      </trkpt>
      <trkpt lat="47.49417" lon="6.75674">
        <ele>363.6</ele>
        <time>2017-10-22T07:28:20.999Z</time>
      </trkpt>
      <trkpt lat="47.4941" lon="6.75676">
        <ele>363.6</ele>
        <time>2017-10-22T07:28:21.999Z</time>
      </trkpt>
      <trkpt lat="47.49404" lon="6.75679">
        <ele>364.2</ele>
        <time>2017-10-22T07:28:22.999Z</time>
      </trkpt>
      <trkpt lat="47.494" lon="6.75683">
        <ele>364.8</ele>
        <time>2017-10-22T07:28:23.999Z</time>
      </trkpt>
      <trkpt lat="47.49395" lon="6.75685">
        <ele>364.9</ele>
        <time>2017-10-22T07:28:24.999Z</time>
      </trkpt>
      <trkpt lat="47.4939" lon="6.7569">
        <ele>365.5</ele>
        <time>2017-10-22T07:28:25.999Z</time>
      </trkpt>
      <trkpt lat="47.49387" lon="6.75694">
        <ele>365.5</ele>
        <time>2017-10-22T07:28:26.999Z</time>
      </trkpt>
      <trkpt lat="47.49383" lon="6.75696">
        <ele>365.4</ele>
        <time>2017-10-22T07:28:27.999Z</time>
      </trkpt>
      <trkpt lat="47.49379" lon="6.75699">
        <ele>365.3</ele>
        <time>2017-10-22T07:28:28.999Z</time>
      </trkpt>
      <trkpt lat="47.49376" lon="6.757">
        <ele>365.1</ele>
        <time>2017-10-22T07:28:29.999Z</time>
      </trkpt>
      <trkpt lat="47.49372" lon="6.75702">
        <ele>365</ele>
        <time>2017-10-22T07:28:30.999Z</time>
      </trkpt>
      <trkpt lat="47.49369" lon="6.75703">
        <ele>364.9</ele>
        <time>2017-10-22T07:28:31.999Z</time>
      </trkpt>
      <trkpt lat="47.49367" lon="6.75704">
        <ele>364.8</ele>
        <time>2017-10-22T07:28:32.999Z</time>
      </trkpt>
      <trkpt lat="47.49365" lon="6.75706">
        <ele>365.4</ele>
        <time>2017-10-22T07:28:43.999Z</time>
      </trkpt>
      <trkpt lat="47.49356" lon="6.75713">
        <ele>365.7</ele>
        <time>2017-10-22T07:28:44.999Z</time>
      </trkpt>
      <trkpt lat="47.49353" lon="6.75716">
        <ele>366</ele>
        <time>2017-10-22T07:28:45.999Z</time>
      </trkpt>
      <trkpt lat="47.4935" lon="6.75718">
        <ele>366.2</ele>
        <time>2017-10-22T07:28:46.999Z</time>
      </trkpt>
      <trkpt lat="47.49348" lon="6.75719">
        <ele>366.4</ele>
        <time>2017-10-22T07:28:47.999Z</time>
      </trkpt>
      <trkpt lat="47.49343" lon="6.75719">
        <ele>368.1</ele>
        <time>2017-10-22T07:28:48.999Z</time>
      </trkpt>
      <trkpt lat="47.49337" lon="6.75723">
        <ele>369.3</ele>
        <time>2017-10-22T07:28:49.999Z</time>
      </trkpt>
      <trkpt lat="47.49332" lon="6.75727">
        <ele>370</ele>
        <time>2017-10-22T07:28:50.999Z</time>
      </trkpt>
      <trkpt lat="47.49326" lon="6.75732">
        <ele>370.4</ele>
        <time>2017-10-22T07:28:51.999Z</time>
      </trkpt>
      <trkpt lat="47.49321" lon="6.75737">
        <ele>370.3</ele>
        <time>2017-10-22T07:28:52.999Z</time>
      </trkpt>
      <trkpt lat="47.49316" lon="6.75742">
        <ele>370.1</ele>
        <time>2017-10-22T07:28:53.999Z</time>
      </trkpt>
      <trkpt lat="47.49311" lon="6.75748">
        <ele>370</ele>
        <time>2017-10-22T07:28:54.999Z</time>
      </trkpt>
      <trkpt lat="47.49308" lon="6.75752">
        <ele>369.6</ele>
        <time>2017-10-22T07:28:55.999Z</time>
      </trkpt>
      <trkpt lat="47.49304" lon="6.75756">
        <ele>369.3</ele>
        <time>2017-10-22T07:28:56.999Z</time>
      </trkpt>
      <trkpt lat="47.49301" lon="6.75762">
        <ele>368.8</ele>
        <time>2017-10-22T07:28:57.999Z</time>
      </trkpt>
      <trkpt lat="47.49297" lon="6.75767">
        <ele>368.8</ele>
        <time>2017-10-22T07:28:58.999Z</time>
      </trkpt>
      <trkpt lat="47.49293" lon="6.75773">
        <ele>368.2</ele>
        <time>2017-10-22T07:28:59.999Z</time>
      </trkpt>
      <trkpt lat="47.49289" lon="6.75778">
        <ele>367</ele>
        <time>2017-10-22T07:29:00.999Z</time>
      </trkpt>
      <trkpt lat="47.49287" lon="6.75781">
        <ele>366.9</ele>
        <time>2017-10-22T07:29:01.999Z</time>
      </trkpt>
      <trkpt lat="47.49283" lon="6.75785">
        <ele>366.8</ele>
        <time>2017-10-22T07:29:02.999Z</time>
      </trkpt>
      <trkpt lat="47.4928" lon="6.75789">
        <ele>366</ele>
        <time>2017-10-22T07:29:03.999Z</time>
      </trkpt>
      <trkpt lat="47.49277" lon="6.75795">
        <ele>365.5</ele>
        <time>2017-10-22T07:29:04.999Z</time>
      </trkpt>
      <trkpt lat="47.49274" lon="6.75801">
        <ele>365.3</ele>
        <time>2017-10-22T07:29:05.999Z</time>
      </trkpt>
      <trkpt lat="47.4927" lon="6.75806">
        <ele>365.3</ele>
        <time>2017-10-22T07:29:06.999Z</time>
      </trkpt>
      <trkpt lat="47.49267" lon="6.75811">
        <ele>365.2</ele>
        <time>2017-10-22T07:29:07.999Z</time>
      </trkpt>
      <trkpt lat="47.49263" lon="6.75817">
        <ele>365.5</ele>
        <time>2017-10-22T07:29:08.999Z</time>
      </trkpt>
      <trkpt lat="47.4926" lon="6.75823">
        <ele>365.6</ele>
        <time>2017-10-22T07:29:09.999Z</time>
      </trkpt>
      <trkpt lat="47.49256" lon="6.75829">
        <ele>365.6</ele>
        <time>2017-10-22T07:29:10.999Z</time>
      </trkpt>
      <trkpt lat="47.49254" lon="6.75833">
        <ele>364.9</ele>
        <time>2017-10-22T07:29:11.999Z</time>
      </trkpt>
      <trkpt lat="47.49251" lon="6.75839">
        <ele>364.5</ele>
        <time>2017-10-22T07:29:12.999Z</time>
      </trkpt>
      <trkpt lat="47.49248" lon="6.75845">
        <ele>363.5</ele>
        <time>2017-10-22T07:29:13.999Z</time>
      </trkpt>
      <trkpt lat="47.49245" lon="6.75852">
        <ele>362.5</ele>
        <time>2017-10-22T07:29:14.999Z</time>
      </trkpt>
      <trkpt lat="47.49242" lon="6.75858">
        <ele>361.5</ele>
        <time>2017-10-22T07:29:15.999Z</time>
      </trkpt>
      <trkpt lat="47.49238" lon="6.75866">
        <ele>360.6</ele>
        <time>2017-10-22T07:29:16.999Z</time>
      </trkpt>
      <trkpt lat="47.49235" lon="6.75875">
        <ele>360.2</ele>
        <time>2017-10-22T07:29:17.999Z</time>
      </trkpt>
      <trkpt lat="47.49231" lon="6.75884">
        <ele>359.3</ele>
        <time>2017-10-22T07:29:18.999Z</time>
      </trkpt>
      <trkpt lat="47.49227" lon="6.75893">
        <ele>358.6</ele>
        <time>2017-10-22T07:29:19.999Z</time>
      </trkpt>
      <trkpt lat="47.49223" lon="6.75903">
        <ele>358.6</ele>
        <time>2017-10-22T07:29:20.999Z</time>
      </trkpt>
      <trkpt lat="47.49219" lon="6.75912">
        <ele>358.2</ele>
        <time>2017-10-22T07:29:21.999Z</time>
      </trkpt>
      <trkpt lat="47.49215" lon="6.75921">
        <ele>357.7</ele>
        <time>2017-10-22T07:29:22.999Z</time>
      </trkpt>
      <trkpt lat="47.49212" lon="6.75927">
        <ele>358</ele>
        <time>2017-10-22T07:29:23.999Z</time>
      </trkpt>
      <trkpt lat="47.49209" lon="6.75931">
        <ele>358.1</ele>
        <time>2017-10-22T07:29:24.999Z</time>
      </trkpt>
      <trkpt lat="47.49206" lon="6.75937">
        <ele>358.1</ele>
        <time>2017-10-22T07:29:25.999Z</time>
      </trkpt>
      <trkpt lat="47.49203" lon="6.75943">
        <ele>357.8</ele>
        <time>2017-10-22T07:29:26.999Z</time>
      </trkpt>
      <trkpt lat="47.492" lon="6.75949">
        <ele>357.1</ele>
        <time>2017-10-22T07:29:27.999Z</time>
      </trkpt>
      <trkpt lat="47.49198" lon="6.75954">
        <ele>357</ele>
        <time>2017-10-22T07:29:28.999Z</time>
      </trkpt>
      <trkpt lat="47.49195" lon="6.75959">
        <ele>357.5</ele>
        <time>2017-10-22T07:29:29.999Z</time>
      </trkpt>
      <trkpt lat="47.49192" lon="6.75964">
        <ele>357.5</ele>
        <time>2017-10-22T07:29:30.999Z</time>
      </trkpt>
      <trkpt lat="47.49189" lon="6.75971">
        <ele>357.5</ele>
        <time>2017-10-22T07:29:31.999Z</time>
      </trkpt>
      <trkpt lat="47.49186" lon="6.75977">
        <ele>357.8</ele>
        <time>2017-10-22T07:29:32.999Z</time>
      </trkpt>
      <trkpt lat="47.49182" lon="6.75985">
        <ele>357.8</ele>
        <time>2017-10-22T07:29:33.999Z</time>
      </trkpt>
      <trkpt lat="47.49179" lon="6.75994">
        <ele>357.9</ele>
        <time>2017-10-22T07:29:34.999Z</time>
      </trkpt>
      <trkpt lat="47.49176" lon="6.76002">
        <ele>358</ele>
        <time>2017-10-22T07:29:35.999Z</time>
      </trkpt>
      <trkpt lat="47.49173" lon="6.76011">
        <ele>358.5</ele>
        <time>2017-10-22T07:29:36.999Z</time>
      </trkpt>
      <trkpt lat="47.4917" lon="6.76018">
        <ele>358.9</ele>
        <time>2017-10-22T07:29:37.999Z</time>
      </trkpt>
      <trkpt lat="47.49166" lon="6.76027">
        <ele>359.7</ele>
        <time>2017-10-22T07:29:38.999Z</time>
      </trkpt>
      <trkpt lat="47.49162" lon="6.76036">
        <ele>360.5</ele>
        <time>2017-10-22T07:29:39.999Z</time>
      </trkpt>
      <trkpt lat="47.49158" lon="6.76046">
        <ele>361.5</ele>
        <time>2017-10-22T07:29:40.999Z</time>
      </trkpt>
      <trkpt lat="47.49155" lon="6.76056">
        <ele>361.5</ele>
        <time>2017-10-22T07:29:41.999Z</time>
      </trkpt>
      <trkpt lat="47.49151" lon="6.76067">
        <ele>361.9</ele>
        <time>2017-10-22T07:29:42.999Z</time>
      </trkpt>
      <trkpt lat="47.49147" lon="6.76079">
        <ele>363</ele>
        <time>2017-10-22T07:29:43.999Z</time>
      </trkpt>
      <trkpt lat="47.49143" lon="6.76093">
        <ele>363.7</ele>
        <time>2017-10-22T07:29:44.999Z</time>
      </trkpt>
      <trkpt lat="47.4914" lon="6.76105">
        <ele>364.6</ele>
        <time>2017-10-22T07:29:45.999Z</time>
      </trkpt>
      <trkpt lat="47.49137" lon="6.76118">
        <ele>364.8</ele>
        <time>2017-10-22T07:29:46.999Z</time>
      </trkpt>
      <trkpt lat="47.49135" lon="6.76129">
        <ele>364.8</ele>
        <time>2017-10-22T07:29:47.999Z</time>
      </trkpt>
      <trkpt lat="47.49133" lon="6.76141">
        <ele>364.7</ele>
        <time>2017-10-22T07:29:48.999Z</time>
      </trkpt>
      <trkpt lat="47.49131" lon="6.76151">
        <ele>364.4</ele>
        <time>2017-10-22T07:29:49.999Z</time>
      </trkpt>
      <trkpt lat="47.4913" lon="6.76161">
        <ele>364.1</ele>
        <time>2017-10-22T07:29:50.999Z</time>
      </trkpt>
      <trkpt lat="47.49128" lon="6.76171">
        <ele>363.8</ele>
        <time>2017-10-22T07:29:51.999Z</time>
      </trkpt>
      <trkpt lat="47.49127" lon="6.76182">
        <ele>363.5</ele>
        <time>2017-10-22T07:29:52.999Z</time>
      </trkpt>
      <trkpt lat="47.49127" lon="6.76194">
        <ele>363.3</ele>
        <time>2017-10-22T07:29:53.999Z</time>
      </trkpt>
      <trkpt lat="47.49128" lon="6.76205">
        <ele>363.2</ele>
        <time>2017-10-22T07:29:54.999Z</time>
      </trkpt>
      <trkpt lat="47.49128" lon="6.76217">
        <ele>363.2</ele>
        <time>2017-10-22T07:29:55.999Z</time>
      </trkpt>
      <trkpt lat="47.49128" lon="6.76228">
        <ele>362.8</ele>
        <time>2017-10-22T07:29:56.999Z</time>
      </trkpt>
      <trkpt lat="47.49128" lon="6.76238">
        <ele>362.7</ele>
        <time>2017-10-22T07:29:57.999Z</time>
      </trkpt>
      <trkpt lat="47.49128" lon="6.76247">
        <ele>362.7</ele>
        <time>2017-10-22T07:29:58.999Z</time>
      </trkpt>
      <trkpt lat="47.49127" lon="6.76256">
        <ele>362.9</ele>
        <time>2017-10-22T07:29:59.999Z</time>
      </trkpt>
      <trkpt lat="47.49127" lon="6.76264">
        <ele>362.8</ele>
        <time>2017-10-22T07:30:00.999Z</time>
      </trkpt>
      <trkpt lat="47.49126" lon="6.76272">
        <ele>362.9</ele>
        <time>2017-10-22T07:30:01.999Z</time>
      </trkpt>
      <trkpt lat="47.49126" lon="6.7628">
        <ele>363.4</ele>
        <time>2017-10-22T07:30:02.999Z</time>
      </trkpt>
      <trkpt lat="47.49126" lon="6.76288">
        <ele>363.6</ele>
        <time>2017-10-22T07:30:03.999Z</time>
      </trkpt>
      <trkpt lat="47.49126" lon="6.76298">
        <ele>364.1</ele>
        <time>2017-10-22T07:30:04.999Z</time>
      </trkpt>
      <trkpt lat="47.49126" lon="6.7631">
        <ele>364.4</ele>
        <time>2017-10-22T07:30:05.999Z</time>
      </trkpt>
      <trkpt lat="47.49125" lon="6.7632">
        <ele>364.3</ele>
        <time>2017-10-22T07:30:06.999Z</time>
      </trkpt>
      <trkpt lat="47.49125" lon="6.76331">
        <ele>363.7</ele>
        <time>2017-10-22T07:30:07.999Z</time>
      </trkpt>
      <trkpt lat="47.49125" lon="6.7634">
        <ele>363.4</ele>
        <time>2017-10-22T07:30:08.999Z</time>
      </trkpt>
      <trkpt lat="47.49125" lon="6.76352">
        <ele>363.2</ele>
        <time>2017-10-22T07:30:09.999Z</time>
      </trkpt>
      <trkpt lat="47.49125" lon="6.76363">
        <ele>363.3</ele>
        <time>2017-10-22T07:30:10.999Z</time>
      </trkpt>
      <trkpt lat="47.49125" lon="6.76372">
        <ele>363.1</ele>
        <time>2017-10-22T07:30:11.999Z</time>
      </trkpt>
      <trkpt lat="47.49125" lon="6.76381">
        <ele>362.9</ele>
        <time>2017-10-22T07:30:12.999Z</time>
      </trkpt>
      <trkpt lat="47.49125" lon="6.76391">
        <ele>363.1</ele>
        <time>2017-10-22T07:30:13.999Z</time>
      </trkpt>
      <trkpt lat="47.49124" lon="6.76403">
        <ele>363.2</ele>
        <time>2017-10-22T07:30:14.999Z</time>
      </trkpt>
      <trkpt lat="47.49124" lon="6.76415">
        <ele>363.3</ele>
        <time>2017-10-22T07:30:15.999Z</time>
      </trkpt>
      <trkpt lat="47.49124" lon="6.76426">
        <ele>363.5</ele>
        <time>2017-10-22T07:30:16.999Z</time>
      </trkpt>
      <trkpt lat="47.49124" lon="6.76436">
        <ele>363.7</ele>
        <time>2017-10-22T07:30:17.999Z</time>
      </trkpt>
      <trkpt lat="47.49123" lon="6.76446">
        <ele>363.8</ele>
        <time>2017-10-22T07:30:18.999Z</time>
      </trkpt>
      <trkpt lat="47.49123" lon="6.76457">
        <ele>363.8</ele>
        <time>2017-10-22T07:30:19.999Z</time>
      </trkpt>
      <trkpt lat="47.49122" lon="6.76468">
        <ele>363.8</ele>
        <time>2017-10-22T07:30:20.999Z</time>
      </trkpt>
      <trkpt lat="47.49124" lon="6.76479">
        <ele>363.7</ele>
        <time>2017-10-22T07:30:21.999Z</time>
      </trkpt>
      <trkpt lat="47.49124" lon="6.76488">
        <ele>363.8</ele>
        <time>2017-10-22T07:30:22.999Z</time>
      </trkpt>
      <trkpt lat="47.49126" lon="6.76499">
        <ele>363.8</ele>
        <time>2017-10-22T07:30:23.999Z</time>
      </trkpt>
      <trkpt lat="47.49129" lon="6.76506">
        <ele>363.9</ele>
        <time>2017-10-22T07:30:24.999Z</time>
      </trkpt>
      <trkpt lat="47.49134" lon="6.7651">
        <ele>363.5</ele>
        <time>2017-10-22T07:30:25.999Z</time>
      </trkpt>
      <trkpt lat="47.49139" lon="6.76514">
        <ele>363.6</ele>
        <time>2017-10-22T07:30:26.999Z</time>
      </trkpt>
      <trkpt lat="47.49145" lon="6.76517">
        <ele>363.7</ele>
        <time>2017-10-22T07:30:27.999Z</time>
      </trkpt>
      <trkpt lat="47.4915" lon="6.76519">
        <ele>363.8</ele>
        <time>2017-10-22T07:30:28.999Z</time>
      </trkpt>
      <trkpt lat="47.49154" lon="6.7652">
        <ele>363.7</ele>
        <time>2017-10-22T07:30:29.999Z</time>
      </trkpt>
      <trkpt lat="47.49159" lon="6.76519">
        <ele>364.2</ele>
        <time>2017-10-22T07:30:30.999Z</time>
      </trkpt>
      <trkpt lat="47.49161" lon="6.76517">
        <ele>364.2</ele>
        <time>2017-10-22T07:30:31.999Z</time>
      </trkpt>
      <trkpt lat="47.49164" lon="6.76513">
        <ele>364.2</ele>
        <time>2017-10-22T07:30:32.999Z</time>
      </trkpt>
      <trkpt lat="47.49167" lon="6.7651">
        <ele>364.3</ele>
        <time>2017-10-22T07:30:33.999Z</time>
      </trkpt>
      <trkpt lat="47.49169" lon="6.76508">
        <ele>364.3</ele>
        <time>2017-10-22T07:30:34.999Z</time>
      </trkpt>
      <trkpt lat="47.49172" lon="6.76505">
        <ele>364.3</ele>
        <time>2017-10-22T07:30:36.999Z</time>
      </trkpt>
      <trkpt lat="47.49173" lon="6.76503">
        <ele>364.2</ele>
        <time>2017-10-22T07:30:37.999Z</time>
      </trkpt>
      <trkpt lat="47.49173" lon="6.76503">
        <ele>369.4</ele>
        <time>2017-10-22T07:34:51.999Z</time>
      </trkpt>
      <trkpt lat="47.4916" lon="6.76504">
        <ele>369.4</ele>
        <time>2017-10-22T07:34:52.999Z</time>
      </trkpt>
      <trkpt lat="47.49156" lon="6.76505">
        <ele>369.4</ele>
        <time>2017-10-22T07:34:53.999Z</time>
      </trkpt>
      <trkpt lat="47.49152" lon="6.76508">
        <ele>369.4</ele>
        <time>2017-10-22T07:34:54.999Z</time>
      </trkpt>
      <trkpt lat="47.49149" lon="6.7651">
        <ele>369.5</ele>
        <time>2017-10-22T07:34:55.999Z</time>
      </trkpt>
      <trkpt lat="47.49144" lon="6.76512">
        <ele>369.6</ele>
        <time>2017-10-22T07:34:56.999Z</time>
      </trkpt>
      <trkpt lat="47.4914" lon="6.76512">
        <ele>369.5</ele>
        <time>2017-10-22T07:34:57.999Z</time>
      </trkpt>
      <trkpt lat="47.49134" lon="6.76513">
        <ele>369.5</ele>
        <time>2017-10-22T07:34:58.999Z</time>
      </trkpt>
      <trkpt lat="47.49129" lon="6.76514">
        <ele>369.4</ele>
        <time>2017-10-22T07:34:59.999Z</time>
      </trkpt>
      <trkpt lat="47.49125" lon="6.76514">
        <ele>369.3</ele>
        <time>2017-10-22T07:35:00.999Z</time>
      </trkpt>
      <trkpt lat="47.49122" lon="6.76513">
        <ele>369.3</ele>
        <time>2017-10-22T07:35:01.999Z</time>
      </trkpt>
      <trkpt lat="47.49121" lon="6.76511">
        <ele>369</ele>
        <time>2017-10-22T07:35:06.999Z</time>
      </trkpt>
      <trkpt lat="47.49121" lon="6.76497">
        <ele>369</ele>
        <time>2017-10-22T07:35:07.999Z</time>
      </trkpt>
      <trkpt lat="47.49121" lon="6.76493">
        <ele>369</ele>
        <time>2017-10-22T07:35:08.999Z</time>
      </trkpt>
      <trkpt lat="47.49121" lon="6.76489">
        <ele>369</ele>
        <time>2017-10-22T07:35:09.999Z</time>
      </trkpt>
      <trkpt lat="47.49121" lon="6.76484">
        <ele>369</ele>
        <time>2017-10-22T07:35:10.999Z</time>
      </trkpt>
      <trkpt lat="47.49122" lon="6.76479">
        <ele>368.9</ele>
        <time>2017-10-22T07:35:11.999Z</time>
      </trkpt>
      <trkpt lat="47.49122" lon="6.76474">
        <ele>368.9</ele>
        <time>2017-10-22T07:35:12.999Z</time>
      </trkpt>
      <trkpt lat="47.49122" lon="6.7647">
        <ele>369</ele>
        <time>2017-10-22T07:35:13.999Z</time>
      </trkpt>
      <trkpt lat="47.49122" lon="6.76466">
        <ele>369</ele>
        <time>2017-10-22T07:35:14.999Z</time>
      </trkpt>
      <trkpt lat="47.49122" lon="6.76462">
        <ele>369</ele>
        <time>2017-10-22T07:35:15.999Z</time>
      </trkpt>
      <trkpt lat="47.49122" lon="6.76458">
        <ele>369</ele>
        <time>2017-10-22T07:35:16.999Z</time>
      </trkpt>
      <trkpt lat="47.49122" lon="6.76453">
        <ele>369</ele>
        <time>2017-10-22T07:35:17.999Z</time>
      </trkpt>
      <trkpt lat="47.49123" lon="6.76448">
        <ele>368.9</ele>
        <time>2017-10-22T07:35:18.999Z</time>
      </trkpt>
      <trkpt lat="47.49125" lon="6.76443">
        <ele>368.9</ele>
        <time>2017-10-22T07:35:19.999Z</time>
      </trkpt>
      <trkpt lat="47.49126" lon="6.7644">
        <ele>368.7</ele>
        <time>2017-10-22T07:35:20.999Z</time>
      </trkpt>
      <trkpt lat="47.49127" lon="6.76437">
        <ele>368.6</ele>
        <time>2017-10-22T07:35:21.999Z</time>
      </trkpt>
      <trkpt lat="47.49127" lon="6.76431">
        <ele>368.4</ele>
        <time>2017-10-22T07:35:23.999Z</time>
      </trkpt>
      <trkpt lat="47.49124" lon="6.7643">
        <ele>368.3</ele>
        <time>2017-10-22T07:35:24.999Z</time>
      </trkpt>
      <trkpt lat="47.4912" lon="6.76429">
        <ele>368.2</ele>
        <time>2017-10-22T07:35:25.999Z</time>
      </trkpt>
      <trkpt lat="47.49117" lon="6.76429">
        <ele>368.1</ele>
        <time>2017-10-22T07:35:26.999Z</time>
      </trkpt>
      <trkpt lat="47.49114" lon="6.76429">
        <ele>368</ele>
        <time>2017-10-22T07:35:27.999Z</time>
      </trkpt>
      <trkpt lat="47.49111" lon="6.76428">
        <ele>367.8</ele>
        <time>2017-10-22T07:35:28.999Z</time>
      </trkpt>
      <trkpt lat="47.49108" lon="6.76429">
        <ele>367.8</ele>
        <time>2017-10-22T07:35:29.999Z</time>
      </trkpt>
      <trkpt lat="47.49105" lon="6.76428">
        <ele>367.7</ele>
        <time>2017-10-22T07:35:30.999Z</time>
      </trkpt>
      <trkpt lat="47.49103" lon="6.76423">
        <ele>367.7</ele>
        <time>2017-10-22T07:35:31.999Z</time>
      </trkpt>
      <trkpt lat="47.49103" lon="6.76421">
        <ele>367.6</ele>
        <time>2017-10-22T07:35:32.999Z</time>
      </trkpt>
      <trkpt lat="47.49103" lon="6.76417">
        <ele>367.5</ele>
        <time>2017-10-22T07:35:33.999Z</time>
      </trkpt>
      <trkpt lat="47.49104" lon="6.76413">
        <ele>367.3</ele>
        <time>2017-10-22T07:35:34.999Z</time>
      </trkpt>
      <trkpt lat="47.49104" lon="6.76407">
        <ele>367.1</ele>
        <time>2017-10-22T07:35:35.999Z</time>
      </trkpt>
      <trkpt lat="47.49103" lon="6.76403">
        <ele>366.9</ele>
        <time>2017-10-22T07:35:36.999Z</time>
      </trkpt>
      <trkpt lat="47.49104" lon="6.76396">
        <ele>366.6</ele>
        <time>2017-10-22T07:35:38.999Z</time>
      </trkpt>
      <trkpt lat="47.49105" lon="6.76395">
        <ele>366.5</ele>
        <time>2017-10-22T07:35:39.999Z</time>
      </trkpt>
      <trkpt lat="47.49105" lon="6.76389">
        <ele>366.2</ele>
        <time>2017-10-22T07:35:41.999Z</time>
      </trkpt>
      <trkpt lat="47.49105" lon="6.76386">
        <ele>366</ele>
        <time>2017-10-22T07:35:42.999Z</time>
      </trkpt>
      <trkpt lat="47.49106" lon="6.76382">
        <ele>365.6</ele>
        <time>2017-10-22T07:35:44.999Z</time>
      </trkpt>
      <trkpt lat="47.49106" lon="6.76377">
        <ele>365.4</ele>
        <time>2017-10-22T07:35:45.999Z</time>
      </trkpt>
      <trkpt lat="47.49106" lon="6.76374">
        <ele>365.2</ele>
        <time>2017-10-22T07:35:46.999Z</time>
      </trkpt>
      <trkpt lat="47.49106" lon="6.76368">
        <ele>365</ele>
        <time>2017-10-22T07:35:47.999Z</time>
      </trkpt>
      <trkpt lat="47.49105" lon="6.76363">
        <ele>364.5</ele>
        <time>2017-10-22T07:35:49.999Z</time>
      </trkpt>
      <trkpt lat="47.49106" lon="6.76356">
        <ele>364.2</ele>
        <time>2017-10-22T07:35:50.999Z</time>
      </trkpt>
      <trkpt lat="47.49107" lon="6.76351">
        <ele>363.7</ele>
        <time>2017-10-22T07:35:52.999Z</time>
      </trkpt>
      <trkpt lat="47.49107" lon="6.76349">
        <ele>363.5</ele>
        <time>2017-10-22T07:35:53.999Z</time>
      </trkpt>
      <trkpt lat="47.49107" lon="6.76342">
        <ele>362.8</ele>
        <time>2017-10-22T07:35:55.999Z</time>
      </trkpt>
      <trkpt lat="47.49107" lon="6.76338">
        <ele>362.4</ele>
        <time>2017-10-22T07:35:56.999Z</time>
      </trkpt>
      <trkpt lat="47.49107" lon="6.76333">
        <ele>362</ele>
        <time>2017-10-22T07:35:57.999Z</time>
      </trkpt>
      <trkpt lat="47.49107" lon="6.76329">
        <ele>361.5</ele>
        <time>2017-10-22T07:35:58.999Z</time>
      </trkpt>
      <trkpt lat="47.4911" lon="6.76322">
        <ele>361</ele>
        <time>2017-10-22T07:35:59.999Z</time>
      </trkpt>
      <trkpt lat="47.4911" lon="6.76319">
        <ele>360.5</ele>
        <time>2017-10-22T07:36:00.999Z</time>
      </trkpt>
      <trkpt lat="47.49109" lon="6.76313">
        <ele>360.1</ele>
        <time>2017-10-22T07:36:01.999Z</time>
      </trkpt>
      <trkpt lat="47.49109" lon="6.76308">
        <ele>359.7</ele>
        <time>2017-10-22T07:36:02.999Z</time>
      </trkpt>
      <trkpt lat="47.49108" lon="6.76304">
        <ele>359.2</ele>
        <time>2017-10-22T07:36:03.999Z</time>
      </trkpt>
      <trkpt lat="47.49107" lon="6.76295">
        <ele>358.7</ele>
        <time>2017-10-22T07:36:04.999Z</time>
      </trkpt>
      <trkpt lat="47.49106" lon="6.76291">
        <ele>358.3</ele>
        <time>2017-10-22T07:36:05.999Z</time>
      </trkpt>
      <trkpt lat="47.49105" lon="6.76286">
        <ele>357.8</ele>
        <time>2017-10-22T07:36:06.999Z</time>
      </trkpt>
      <trkpt lat="47.49105" lon="6.76282">
        <ele>357.2</ele>
        <time>2017-10-22T07:36:07.999Z</time>
      </trkpt>
      <trkpt lat="47.49105" lon="6.76277">
        <ele>356.8</ele>
        <time>2017-10-22T07:36:08.999Z</time>
      </trkpt>
      <trkpt lat="47.49106" lon="6.76274">
        <ele>356.4</ele>
        <time>2017-10-22T07:36:09.999Z</time>
      </trkpt>
      <trkpt lat="47.49107" lon="6.76271">
        <ele>355.9</ele>
        <time>2017-10-22T07:36:10.999Z</time>
      </trkpt>
      <trkpt lat="47.4911" lon="6.76264">
        <ele>355.5</ele>
        <time>2017-10-22T07:36:11.999Z</time>
      </trkpt>
      <trkpt lat="47.4911" lon="6.76261">
        <ele>355.1</ele>
        <time>2017-10-22T07:36:12.999Z</time>
      </trkpt>
      <trkpt lat="47.49111" lon="6.76257">
        <ele>354.7</ele>
        <time>2017-10-22T07:36:13.999Z</time>
      </trkpt>
      <trkpt lat="47.49112" lon="6.76249">
        <ele>354.4</ele>
        <time>2017-10-22T07:36:14.999Z</time>
      </trkpt>
      <trkpt lat="47.49112" lon="6.76243">
        <ele>353.9</ele>
        <time>2017-10-22T07:36:16.999Z</time>
      </trkpt>
      <trkpt lat="47.49113" lon="6.7624">
        <ele>353.6</ele>
        <time>2017-10-22T07:36:17.999Z</time>
      </trkpt>
      <trkpt lat="47.49114" lon="6.76236">
        <ele>353.4</ele>
        <time>2017-10-22T07:36:18.999Z</time>
      </trkpt>
      <trkpt lat="47.49117" lon="6.76228">
        <ele>353.3</ele>
        <time>2017-10-22T07:36:19.999Z</time>
      </trkpt>
      <trkpt lat="47.49119" lon="6.76221">
        <ele>353.2</ele>
        <time>2017-10-22T07:36:20.999Z</time>
      </trkpt>
      <trkpt lat="47.49121" lon="6.76213">
        <ele>353</ele>
        <time>2017-10-22T07:36:21.999Z</time>
      </trkpt>
      <trkpt lat="47.4912" lon="6.76203">
        <ele>352.9</ele>
        <time>2017-10-22T07:36:22.999Z</time>
      </trkpt>
      <trkpt lat="47.49118" lon="6.76192">
        <ele>352.8</ele>
        <time>2017-10-22T07:36:23.999Z</time>
      </trkpt>
      <trkpt lat="47.49116" lon="6.76181">
        <ele>352.7</ele>
        <time>2017-10-22T07:36:24.999Z</time>
      </trkpt>
      <trkpt lat="47.49115" lon="6.76172">
        <ele>352.6</ele>
        <time>2017-10-22T07:36:25.999Z</time>
      </trkpt>
      <trkpt lat="47.49115" lon="6.76165">
        <ele>352.6</ele>
        <time>2017-10-22T07:36:26.999Z</time>
      </trkpt>
      <trkpt lat="47.49114" lon="6.76156">
        <ele>352.6</ele>
        <time>2017-10-22T07:36:27.999Z</time>
      </trkpt>
      <trkpt lat="47.49113" lon="6.76144">
        <ele>352.7</ele>
        <time>2017-10-22T07:36:28.999Z</time>
      </trkpt>
      <trkpt lat="47.49112" lon="6.76134">
        <ele>352.9</ele>
        <time>2017-10-22T07:36:29.999Z</time>
      </trkpt>
      <trkpt lat="47.49112" lon="6.7613">
        <ele>353.1</ele>
        <time>2017-10-22T07:36:30.999Z</time>
      </trkpt>
      <trkpt lat="47.49113" lon="6.76126">
        <ele>353.2</ele>
        <time>2017-10-22T07:36:31.999Z</time>
      </trkpt>
      <trkpt lat="47.49113" lon="6.76122">
        <ele>353.4</ele>
        <time>2017-10-22T07:36:32.999Z</time>
      </trkpt>
      <trkpt lat="47.49113" lon="6.76115">
        <ele>353.6</ele>
        <time>2017-10-22T07:36:33.999Z</time>
      </trkpt>
      <trkpt lat="47.49112" lon="6.76107">
        <ele>353.9</ele>
        <time>2017-10-22T07:36:34.999Z</time>
      </trkpt>
      <trkpt lat="47.49111" lon="6.761">
        <ele>354.1</ele>
        <time>2017-10-22T07:36:35.999Z</time>
      </trkpt>
      <trkpt lat="47.49109" lon="6.7609">
        <ele>354.4</ele>
        <time>2017-10-22T07:36:36.999Z</time>
      </trkpt>
      <trkpt lat="47.49107" lon="6.7608">
        <ele>354.7</ele>
        <time>2017-10-22T07:36:37.999Z</time>
      </trkpt>
      <trkpt lat="47.49106" lon="6.7607">
        <ele>354.9</ele>
        <time>2017-10-22T07:36:38.999Z</time>
      </trkpt>
      <trkpt lat="47.49105" lon="6.76063">
        <ele>355.2</ele>
        <time>2017-10-22T07:36:39.999Z</time>
      </trkpt>
      <trkpt lat="47.49107" lon="6.76055">
        <ele>355.4</ele>
        <time>2017-10-22T07:36:40.999Z</time>
      </trkpt>
      <trkpt lat="47.49108" lon="6.76047">
        <ele>355.6</ele>
        <time>2017-10-22T07:36:41.999Z</time>
      </trkpt>
      <trkpt lat="47.49109" lon="6.76044">
        <ele>355.8</ele>
        <time>2017-10-22T07:36:42.999Z</time>
      </trkpt>
      <trkpt lat="47.4911" lon="6.7604">
        <ele>356.1</ele>
        <time>2017-10-22T07:36:43.999Z</time>
      </trkpt>
      <trkpt lat="47.49111" lon="6.76036">
        <ele>356.3</ele>
        <time>2017-10-22T07:36:44.999Z</time>
      </trkpt>
      <trkpt lat="47.49111" lon="6.76031">
        <ele>356.6</ele>
        <time>2017-10-22T07:36:45.999Z</time>
      </trkpt>
      <trkpt lat="47.49112" lon="6.76027">
        <ele>356.7</ele>
        <time>2017-10-22T07:36:46.999Z</time>
      </trkpt>
      <trkpt lat="47.49112" lon="6.76023">
        <ele>357</ele>
        <time>2017-10-22T07:36:47.999Z</time>
      </trkpt>
      <trkpt lat="47.49113" lon="6.76014">
        <ele>357.3</ele>
        <time>2017-10-22T07:36:48.999Z</time>
      </trkpt>
      <trkpt lat="47.49114" lon="6.76009">
        <ele>357.6</ele>
        <time>2017-10-22T07:36:49.999Z</time>
      </trkpt>
      <trkpt lat="47.49115" lon="6.76004">
        <ele>357.8</ele>
        <time>2017-10-22T07:36:50.999Z</time>
      </trkpt>
      <trkpt lat="47.49115" lon="6.75998">
        <ele>358.1</ele>
        <time>2017-10-22T07:36:51.999Z</time>
      </trkpt>
      <trkpt lat="47.49115" lon="6.7599">
        <ele>358.5</ele>
        <time>2017-10-22T07:36:52.999Z</time>
      </trkpt>
      <trkpt lat="47.49113" lon="6.75984">
        <ele>358.8</ele>
        <time>2017-10-22T07:36:53.999Z</time>
      </trkpt>
      <trkpt lat="47.49112" lon="6.75979">
        <ele>359.1</ele>
        <time>2017-10-22T07:36:54.999Z</time>
      </trkpt>
      <trkpt lat="47.49112" lon="6.75974">
        <ele>359.4</ele>
        <time>2017-10-22T07:36:55.999Z</time>
      </trkpt>
      <trkpt lat="47.49112" lon="6.7597">
        <ele>359.8</ele>
        <time>2017-10-22T07:36:56.999Z</time>
      </trkpt>
      <trkpt lat="47.49114" lon="6.75965">
        <ele>360.2</ele>
        <time>2017-10-22T07:36:57.999Z</time>
      </trkpt>
      <trkpt lat="47.49115" lon="6.75961">
        <ele>360.6</ele>
        <time>2017-10-22T07:36:58.999Z</time>
      </trkpt>
      <trkpt lat="47.49117" lon="6.75956">
        <ele>361</ele>
        <time>2017-10-22T07:36:59.999Z</time>
      </trkpt>
      <trkpt lat="47.4912" lon="6.75952">
        <ele>361.5</ele>
        <time>2017-10-22T07:37:00.999Z</time>
      </trkpt>
      <trkpt lat="47.49122" lon="6.7595">
        <ele>361.9</ele>
        <time>2017-10-22T07:37:01.999Z</time>
      </trkpt>
      <trkpt lat="47.49125" lon="6.75947">
        <ele>362.3</ele>
        <time>2017-10-22T07:37:02.999Z</time>
      </trkpt>
      <trkpt lat="47.49127" lon="6.75945">
        <ele>362.7</ele>
        <time>2017-10-22T07:37:03.999Z</time>
      </trkpt>
      <trkpt lat="47.4913" lon="6.75942">
        <ele>363</ele>
        <time>2017-10-22T07:37:04.999Z</time>
      </trkpt>
      <trkpt lat="47.49132" lon="6.75938">
        <ele>363.4</ele>
        <time>2017-10-22T07:37:05.999Z</time>
      </trkpt>
      <trkpt lat="47.49134" lon="6.75934">
        <ele>363.8</ele>
        <time>2017-10-22T07:37:06.999Z</time>
      </trkpt>
      <trkpt lat="47.49136" lon="6.75931">
        <ele>364.1</ele>
        <time>2017-10-22T07:37:07.999Z</time>
      </trkpt>
      <trkpt lat="47.49137" lon="6.75926">
        <ele>364.5</ele>
        <time>2017-10-22T07:37:08.999Z</time>
      </trkpt>
      <trkpt lat="47.49138" lon="6.75918">
        <ele>364.8</ele>
        <time>2017-10-22T07:37:09.999Z</time>
      </trkpt>
      <trkpt lat="47.49139" lon="6.75914">
        <ele>365.1</ele>
        <time>2017-10-22T07:37:10.999Z</time>
      </trkpt>
      <trkpt lat="47.4914" lon="6.75908">
        <ele>365.2</ele>
        <time>2017-10-22T07:37:11.999Z</time>
      </trkpt>
      <trkpt lat="47.49142" lon="6.75902">
        <ele>365.4</ele>
        <time>2017-10-22T07:37:12.999Z</time>
      </trkpt>
      <trkpt lat="47.49145" lon="6.75896">
        <ele>365.6</ele>
        <time>2017-10-22T07:37:13.999Z</time>
      </trkpt>
      <trkpt lat="47.49146" lon="6.75888">
        <ele>365.8</ele>
        <time>2017-10-22T07:37:14.999Z</time>
      </trkpt>
      <trkpt lat="47.49148" lon="6.75883">
        <ele>365.9</ele>
        <time>2017-10-22T07:37:15.999Z</time>
      </trkpt>
      <trkpt lat="47.4915" lon="6.75879">
        <ele>366</ele>
        <time>2017-10-22T07:37:16.999Z</time>
      </trkpt>
      <trkpt lat="47.4915" lon="6.75875">
        <ele>366.1</ele>
        <time>2017-10-22T07:37:17.999Z</time>
      </trkpt>
      <trkpt lat="47.49151" lon="6.75871">
        <ele>366.1</ele>
        <time>2017-10-22T07:37:18.999Z</time>
      </trkpt>
      <trkpt lat="47.49154" lon="6.75868">
        <ele>366.2</ele>
        <time>2017-10-22T07:37:19.999Z</time>
      </trkpt>
      <trkpt lat="47.49155" lon="6.75866">
        <ele>366.3</ele>
        <time>2017-10-22T07:37:20.999Z</time>
      </trkpt>
      <trkpt lat="47.49155" lon="6.75863">
        <ele>366.4</ele>
        <time>2017-10-22T07:37:21.999Z</time>
      </trkpt>
      <trkpt lat="47.49156" lon="6.75858">
        <ele>366.4</ele>
        <time>2017-10-22T07:37:22.999Z</time>
      </trkpt>
      <trkpt lat="47.49158" lon="6.75853">
        <ele>366.5</ele>
        <time>2017-10-22T07:37:23.999Z</time>
      </trkpt>
      <trkpt lat="47.4916" lon="6.75848">
        <ele>366.4</ele>
        <time>2017-10-22T07:37:24.999Z</time>
      </trkpt>
      <trkpt lat="47.49161" lon="6.75844">
        <ele>366.3</ele>
        <time>2017-10-22T07:37:25.999Z</time>
      </trkpt>
      <trkpt lat="47.49162" lon="6.75839">
        <ele>366.2</ele>
        <time>2017-10-22T07:37:26.999Z</time>
      </trkpt>
      <trkpt lat="47.49163" lon="6.75835">
        <ele>366.1</ele>
        <time>2017-10-22T07:37:27.999Z</time>
      </trkpt>
      <trkpt lat="47.49164" lon="6.75831">
        <ele>366</ele>
        <time>2017-10-22T07:37:28.999Z</time>
      </trkpt>
      <trkpt lat="47.49165" lon="6.75827">
        <ele>365.7</ele>
        <time>2017-10-22T07:37:29.999Z</time>
      </trkpt>
      <trkpt lat="47.49166" lon="6.75822">
        <ele>365.4</ele>
        <time>2017-10-22T07:37:30.999Z</time>
      </trkpt>
      <trkpt lat="47.49166" lon="6.75817">
        <ele>365</ele>
        <time>2017-10-22T07:37:31.999Z</time>
      </trkpt>
      <trkpt lat="47.49168" lon="6.75812">
        <ele>364.7</ele>
        <time>2017-10-22T07:37:32.999Z</time>
      </trkpt>
      <trkpt lat="47.4917" lon="6.75801">
        <ele>364.4</ele>
        <time>2017-10-22T07:37:33.999Z</time>
      </trkpt>
      <trkpt lat="47.49173" lon="6.75791">
        <ele>364</ele>
        <time>2017-10-22T07:37:34.999Z</time>
      </trkpt>
      <trkpt lat="47.49175" lon="6.75779">
        <ele>363.6</ele>
        <time>2017-10-22T07:37:35.999Z</time>
      </trkpt>
      <trkpt lat="47.49177" lon="6.75769">
        <ele>363.2</ele>
        <time>2017-10-22T07:37:36.999Z</time>
      </trkpt>
      <trkpt lat="47.49182" lon="6.75759">
        <ele>362.9</ele>
        <time>2017-10-22T07:37:37.999Z</time>
      </trkpt>
      <trkpt lat="47.49183" lon="6.75749">
        <ele>362.5</ele>
        <time>2017-10-22T07:37:38.999Z</time>
      </trkpt>
      <trkpt lat="47.49184" lon="6.7574">
        <ele>362.1</ele>
        <time>2017-10-22T07:37:39.999Z</time>
      </trkpt>
      <trkpt lat="47.49187" lon="6.75733">
        <ele>361.9</ele>
        <time>2017-10-22T07:37:40.999Z</time>
      </trkpt>
      <trkpt lat="47.49189" lon="6.75726">
        <ele>361.8</ele>
        <time>2017-10-22T07:37:41.999Z</time>
      </trkpt>
      <trkpt lat="47.49192" lon="6.7572">
        <ele>361.7</ele>
        <time>2017-10-22T07:37:42.999Z</time>
      </trkpt>
      <trkpt lat="47.49195" lon="6.75714">
        <ele>361.7</ele>
        <time>2017-10-22T07:37:43.999Z</time>
      </trkpt>
      <trkpt lat="47.49198" lon="6.75707">
        <ele>361.6</ele>
        <time>2017-10-22T07:37:44.999Z</time>
      </trkpt>
      <trkpt lat="47.492" lon="6.75701">
        <ele>361.4</ele>
        <time>2017-10-22T07:37:45.999Z</time>
      </trkpt>
      <trkpt lat="47.49202" lon="6.75696">
        <ele>361.4</ele>
        <time>2017-10-22T07:37:46.999Z</time>
      </trkpt>
      <trkpt lat="47.49204" lon="6.7569">
        <ele>361.4</ele>
        <time>2017-10-22T07:37:47.999Z</time>
      </trkpt>
      <trkpt lat="47.49205" lon="6.7568">
        <ele>361.5</ele>
        <time>2017-10-22T07:37:48.999Z</time>
      </trkpt>
      <trkpt lat="47.49206" lon="6.75674">
        <ele>361.6</ele>
        <time>2017-10-22T07:37:49.999Z</time>
      </trkpt>
      <trkpt lat="47.49206" lon="6.75668">
        <ele>361.8</ele>
        <time>2017-10-22T07:37:50.999Z</time>
      </trkpt>
      <trkpt lat="47.49207" lon="6.75658">
        <ele>362.1</ele>
        <time>2017-10-22T07:37:51.999Z</time>
      </trkpt>
      <trkpt lat="47.49209" lon="6.75654">
        <ele>362.3</ele>
        <time>2017-10-22T07:37:52.999Z</time>
      </trkpt>
      <trkpt lat="47.49211" lon="6.75649">
        <ele>362.6</ele>
        <time>2017-10-22T07:37:53.999Z</time>
      </trkpt>
      <trkpt lat="47.49213" lon="6.75644">
        <ele>362.8</ele>
        <time>2017-10-22T07:37:54.999Z</time>
      </trkpt>
      <trkpt lat="47.49217" lon="6.75639">
        <ele>363.1</ele>
        <time>2017-10-22T07:37:55.999Z</time>
      </trkpt>
      <trkpt lat="47.4922" lon="6.75634">
        <ele>363.3</ele>
        <time>2017-10-22T07:37:56.999Z</time>
      </trkpt>
      <trkpt lat="47.49223" lon="6.75629">
        <ele>363.6</ele>
        <time>2017-10-22T07:37:57.999Z</time>
      </trkpt>
      <trkpt lat="47.49226" lon="6.75623">
        <ele>363.9</ele>
        <time>2017-10-22T07:37:58.999Z</time>
      </trkpt>
      <trkpt lat="47.49227" lon="6.75616">
        <ele>364.2</ele>
        <time>2017-10-22T07:37:59.999Z</time>
      </trkpt>
      <trkpt lat="47.49228" lon="6.75603">
        <ele>364.4</ele>
        <time>2017-10-22T07:38:00.999Z</time>
      </trkpt>
      <trkpt lat="47.49229" lon="6.75598">
        <ele>364.6</ele>
        <time>2017-10-22T07:38:01.999Z</time>
      </trkpt>
      <trkpt lat="47.49232" lon="6.75591">
        <ele>364.9</ele>
        <time>2017-10-22T07:38:02.999Z</time>
      </trkpt>
      <trkpt lat="47.49234" lon="6.75588">
        <ele>365.1</ele>
        <time>2017-10-22T07:38:03.999Z</time>
      </trkpt>
      <trkpt lat="47.49237" lon="6.75582">
        <ele>365.3</ele>
        <time>2017-10-22T07:38:04.999Z</time>
      </trkpt>
      <trkpt lat="47.4924" lon="6.75579">
        <ele>365.3</ele>
        <time>2017-10-22T07:38:05.999Z</time>
      </trkpt>
      <trkpt lat="47.49243" lon="6.75576">
        <ele>365.3</ele>
        <time>2017-10-22T07:38:06.999Z</time>
      </trkpt>
      <trkpt lat="47.49245" lon="6.75571">
        <ele>365.5</ele>
        <time>2017-10-22T07:38:07.999Z</time>
      </trkpt>
      <trkpt lat="47.49247" lon="6.75565">
        <ele>365.7</ele>
        <time>2017-10-22T07:38:08.999Z</time>
      </trkpt>
      <trkpt lat="47.49248" lon="6.75559">
        <ele>365.9</ele>
        <time>2017-10-22T07:38:09.999Z</time>
      </trkpt>
      <trkpt lat="47.49249" lon="6.75547">
        <ele>367.4</ele>
        <time>2017-10-22T07:38:10.999Z</time>
      </trkpt>
      <trkpt lat="47.4925" lon="6.75535">
        <ele>368.7</ele>
        <time>2017-10-22T07:38:11.999Z</time>
      </trkpt>
      <trkpt lat="47.49253" lon="6.75526">
        <ele>368.9</ele>
        <time>2017-10-22T07:38:12.999Z</time>
      </trkpt>
      <trkpt lat="47.49254" lon="6.75521">
        <ele>369</ele>
        <time>2017-10-22T07:38:13.999Z</time>
      </trkpt>
      <trkpt lat="47.49254" lon="6.75517">
        <ele>369.3</ele>
        <time>2017-10-22T07:38:14.999Z</time>
      </trkpt>
      <trkpt lat="47.49255" lon="6.75513">
        <ele>369.5</ele>
        <time>2017-10-22T07:38:15.999Z</time>
      </trkpt>
      <trkpt lat="47.49255" lon="6.75509">
        <ele>369.8</ele>
        <time>2017-10-22T07:38:16.999Z</time>
      </trkpt>
      <trkpt lat="47.49256" lon="6.755">
        <ele>369.9</ele>
        <time>2017-10-22T07:38:17.999Z</time>
      </trkpt>
      <trkpt lat="47.49256" lon="6.75494">
        <ele>370.2</ele>
        <time>2017-10-22T07:38:18.999Z</time>
      </trkpt>
      <trkpt lat="47.49258" lon="6.75487">
        <ele>370.3</ele>
        <time>2017-10-22T07:38:19.999Z</time>
      </trkpt>
      <trkpt lat="47.49258" lon="6.7548">
        <ele>370.4</ele>
        <time>2017-10-22T07:38:20.999Z</time>
      </trkpt>
      <trkpt lat="47.49258" lon="6.75477">
        <ele>370.6</ele>
        <time>2017-10-22T07:38:21.999Z</time>
      </trkpt>
      <trkpt lat="47.49258" lon="6.75471">
        <ele>370.8</ele>
        <time>2017-10-22T07:38:22.999Z</time>
      </trkpt>
      <trkpt lat="47.4926" lon="6.75463">
        <ele>371</ele>
        <time>2017-10-22T07:38:23.999Z</time>
      </trkpt>
      <trkpt lat="47.4926" lon="6.75461">
        <ele>371.2</ele>
        <time>2017-10-22T07:38:24.999Z</time>
      </trkpt>
      <trkpt lat="47.49261" lon="6.75455">
        <ele>371.2</ele>
        <time>2017-10-22T07:38:25.999Z</time>
      </trkpt>
      <trkpt lat="47.49261" lon="6.7545">
        <ele>371.3</ele>
        <time>2017-10-22T07:38:26.999Z</time>
      </trkpt>
      <trkpt lat="47.49262" lon="6.75444">
        <ele>371.4</ele>
        <time>2017-10-22T07:38:27.999Z</time>
      </trkpt>
      <trkpt lat="47.49262" lon="6.7544">
        <ele>371.3</ele>
        <time>2017-10-22T07:38:28.999Z</time>
      </trkpt>
      <trkpt lat="47.49262" lon="6.75434">
        <ele>371.4</ele>
        <time>2017-10-22T07:38:29.999Z</time>
      </trkpt>
      <trkpt lat="47.49263" lon="6.75428">
        <ele>371.4</ele>
        <time>2017-10-22T07:38:31.999Z</time>
      </trkpt>
      <trkpt lat="47.49263" lon="6.75421">
        <ele>371.5</ele>
        <time>2017-10-22T07:38:32.999Z</time>
      </trkpt>
      <trkpt lat="47.49265" lon="6.75412">
        <ele>371.6</ele>
        <time>2017-10-22T07:38:33.999Z</time>
      </trkpt>
      <trkpt lat="47.49268" lon="6.75405">
        <ele>371.6</ele>
        <time>2017-10-22T07:38:34.999Z</time>
      </trkpt>
      <trkpt lat="47.49269" lon="6.75402">
        <ele>371.7</ele>
        <time>2017-10-22T07:38:35.999Z</time>
      </trkpt>
      <trkpt lat="47.4927" lon="6.75399">
        <ele>371.7</ele>
        <time>2017-10-22T07:38:36.999Z</time>
      </trkpt>
      <trkpt lat="47.49271" lon="6.75395">
        <ele>371.6</ele>
        <time>2017-10-22T07:38:37.999Z</time>
      </trkpt>
      <trkpt lat="47.49272" lon="6.75391">
        <ele>371.6</ele>
        <time>2017-10-22T07:38:38.999Z</time>
      </trkpt>
      <trkpt lat="47.49273" lon="6.75388">
        <ele>371.5</ele>
        <time>2017-10-22T07:38:39.999Z</time>
      </trkpt>
      <trkpt lat="47.49273" lon="6.75384">
        <ele>371.6</ele>
        <time>2017-10-22T07:38:40.999Z</time>
      </trkpt>
      <trkpt lat="47.49275" lon="6.75382">
        <ele>371.8</ele>
        <time>2017-10-22T07:38:41.999Z</time>
      </trkpt>
      <trkpt lat="47.49277" lon="6.75378">
        <ele>372</ele>
        <time>2017-10-22T07:38:42.999Z</time>
      </trkpt>
      <trkpt lat="47.49277" lon="6.75372">
        <ele>372.1</ele>
        <time>2017-10-22T07:38:43.999Z</time>
      </trkpt>
      <trkpt lat="47.49276" lon="6.75364">
        <ele>372.3</ele>
        <time>2017-10-22T07:38:44.999Z</time>
      </trkpt>
      <trkpt lat="47.49277" lon="6.75358">
        <ele>372.5</ele>
        <time>2017-10-22T07:38:45.999Z</time>
      </trkpt>
      <trkpt lat="47.49282" lon="6.75352">
        <ele>372.8</ele>
        <time>2017-10-22T07:38:46.999Z</time>
      </trkpt>
      <trkpt lat="47.49285" lon="6.75345">
        <ele>373</ele>
        <time>2017-10-22T07:38:47.999Z</time>
      </trkpt>
      <trkpt lat="47.49285" lon="6.75337">
        <ele>373.4</ele>
        <time>2017-10-22T07:38:48.999Z</time>
      </trkpt>
      <trkpt lat="47.49287" lon="6.75334">
        <ele>373.7</ele>
        <time>2017-10-22T07:38:49.999Z</time>
      </trkpt>
      <trkpt lat="47.49289" lon="6.75331">
        <ele>374</ele>
        <time>2017-10-22T07:38:50.999Z</time>
      </trkpt>
      <trkpt lat="47.49289" lon="6.75327">
        <ele>374.3</ele>
        <time>2017-10-22T07:38:51.999Z</time>
      </trkpt>
      <trkpt lat="47.4929" lon="6.7532">
        <ele>374.6</ele>
        <time>2017-10-22T07:38:52.999Z</time>
      </trkpt>
      <trkpt lat="47.49289" lon="6.75312">
        <ele>374.8</ele>
        <time>2017-10-22T07:38:53.999Z</time>
      </trkpt>
      <trkpt lat="47.4929" lon="6.75309">
        <ele>375</ele>
        <time>2017-10-22T07:38:54.999Z</time>
      </trkpt>
      <trkpt lat="47.49291" lon="6.75305">
        <ele>375.2</ele>
        <time>2017-10-22T07:38:55.999Z</time>
      </trkpt>
      <trkpt lat="47.49293" lon="6.75301">
        <ele>375.3</ele>
        <time>2017-10-22T07:38:56.999Z</time>
      </trkpt>
      <trkpt lat="47.49294" lon="6.75296">
        <ele>375.4</ele>
        <time>2017-10-22T07:38:57.999Z</time>
      </trkpt>
      <trkpt lat="47.49294" lon="6.75292">
        <ele>375.9</ele>
        <time>2017-10-22T07:38:59.999Z</time>
      </trkpt>
      <trkpt lat="47.49295" lon="6.7529">
        <ele>376.1</ele>
        <time>2017-10-22T07:39:00.999Z</time>
      </trkpt>
      <trkpt lat="47.49295" lon="6.75284">
        <ele>376.6</ele>
        <time>2017-10-22T07:39:02.999Z</time>
      </trkpt>
      <trkpt lat="47.49295" lon="6.75281">
        <ele>376.9</ele>
        <time>2017-10-22T07:39:03.999Z</time>
      </trkpt>
      <trkpt lat="47.49296" lon="6.75275">
        <ele>377.4</ele>
        <time>2017-10-22T07:39:05.999Z</time>
      </trkpt>
      <trkpt lat="47.49296" lon="6.75274">
        <ele>377.5</ele>
        <time>2017-10-22T07:39:06.999Z</time>
      </trkpt>
      <trkpt lat="47.49296" lon="6.75271">
        <ele>377.8</ele>
        <time>2017-10-22T07:39:07.999Z</time>
      </trkpt>
      <trkpt lat="47.49296" lon="6.75267">
        <ele>378</ele>
        <time>2017-10-22T07:39:08.999Z</time>
      </trkpt>
      <trkpt lat="47.49295" lon="6.75262">
        <ele>378.2</ele>
        <time>2017-10-22T07:39:09.999Z</time>
      </trkpt>
      <trkpt lat="47.49295" lon="6.75259">
        <ele>378.3</ele>
        <time>2017-10-22T07:39:10.999Z</time>
      </trkpt>
      <trkpt lat="47.49296" lon="6.75254">
        <ele>378.5</ele>
        <time>2017-10-22T07:39:11.999Z</time>
      </trkpt>
      <trkpt lat="47.49296" lon="6.75249">
        <ele>378.7</ele>
        <time>2017-10-22T07:39:12.999Z</time>
      </trkpt>
      <trkpt lat="47.49296" lon="6.75243">
        <ele>378.8</ele>
        <time>2017-10-22T07:39:13.999Z</time>
      </trkpt>
      <trkpt lat="47.49296" lon="6.75239">
        <ele>379</ele>
        <time>2017-10-22T07:39:14.999Z</time>
      </trkpt>
      <trkpt lat="47.49295" lon="6.75235">
        <ele>379.1</ele>
        <time>2017-10-22T07:39:15.999Z</time>
      </trkpt>
      <trkpt lat="47.49295" lon="6.75231">
        <ele>379.2</ele>
        <time>2017-10-22T07:39:16.999Z</time>
      </trkpt>
      <trkpt lat="47.49295" lon="6.75226">
        <ele>379.2</ele>
        <time>2017-10-22T07:39:17.999Z</time>
      </trkpt>
      <trkpt lat="47.49295" lon="6.75222">
        <ele>379.2</ele>
        <time>2017-10-22T07:39:18.999Z</time>
      </trkpt>
      <trkpt lat="47.49295" lon="6.75219">
        <ele>379.2</ele>
        <time>2017-10-22T07:39:19.999Z</time>
      </trkpt>
      <trkpt lat="47.49295" lon="6.75214">
        <ele>379.2</ele>
        <time>2017-10-22T07:39:20.999Z</time>
      </trkpt>
      <trkpt lat="47.49294" lon="6.75211">
        <ele>379.3</ele>
        <time>2017-10-22T07:39:21.999Z</time>
      </trkpt>
      <trkpt lat="47.49294" lon="6.75207">
        <ele>379.3</ele>
        <time>2017-10-22T07:39:22.999Z</time>
      </trkpt>
      <trkpt lat="47.49296" lon="6.75203">
        <ele>379.3</ele>
        <time>2017-10-22T07:39:24.999Z</time>
      </trkpt>
      <trkpt lat="47.49296" lon="6.752">
        <ele>379.1</ele>
        <time>2017-10-22T07:39:25.999Z</time>
      </trkpt>
      <trkpt lat="47.49297" lon="6.75196">
        <ele>378.8</ele>
        <time>2017-10-22T07:39:26.999Z</time>
      </trkpt>
      <trkpt lat="47.49297" lon="6.75191">
        <ele>378.6</ele>
        <time>2017-10-22T07:39:27.999Z</time>
      </trkpt>
      <trkpt lat="47.49298" lon="6.75188">
        <ele>378.5</ele>
        <time>2017-10-22T07:39:28.999Z</time>
      </trkpt>
      <trkpt lat="47.49298" lon="6.75184">
        <ele>378.5</ele>
        <time>2017-10-22T07:39:29.999Z</time>
      </trkpt>
      <trkpt lat="47.493" lon="6.75178">
        <ele>378.4</ele>
        <time>2017-10-22T07:39:31.999Z</time>
      </trkpt>
      <trkpt lat="47.49301" lon="6.75174">
        <ele>378.3</ele>
        <time>2017-10-22T07:39:32.999Z</time>
      </trkpt>
      <trkpt lat="47.49303" lon="6.75167">
        <ele>378.3</ele>
        <time>2017-10-22T07:39:33.999Z</time>
      </trkpt>
      <trkpt lat="47.49303" lon="6.75163">
        <ele>378.4</ele>
        <time>2017-10-22T07:39:34.999Z</time>
      </trkpt>
      <trkpt lat="47.49302" lon="6.75159">
        <ele>378.4</ele>
        <time>2017-10-22T07:39:35.999Z</time>
      </trkpt>
      <trkpt lat="47.493" lon="6.75154">
        <ele>378.3</ele>
        <time>2017-10-22T07:39:36.999Z</time>
      </trkpt>
      <trkpt lat="47.49294" lon="6.75148">
        <ele>378.3</ele>
        <time>2017-10-22T07:39:37.999Z</time>
      </trkpt>
      <trkpt lat="47.49286" lon="6.75139">
        <ele>379.1</ele>
        <time>2017-10-22T07:39:38.999Z</time>
      </trkpt>
      <trkpt lat="47.49283" lon="6.75129">
        <ele>379.4</ele>
        <time>2017-10-22T07:39:39.999Z</time>
      </trkpt>
      <trkpt lat="47.49286" lon="6.75119">
        <ele>379.4</ele>
        <time>2017-10-22T07:39:40.999Z</time>
      </trkpt>
      <trkpt lat="47.49287" lon="6.75113">
        <ele>379.5</ele>
        <time>2017-10-22T07:39:41.999Z</time>
      </trkpt>
      <trkpt lat="47.49287" lon="6.75102">
        <ele>379.4</ele>
        <time>2017-10-22T07:39:42.999Z</time>
      </trkpt>
      <trkpt lat="47.49288" lon="6.75097">
        <ele>379.4</ele>
        <time>2017-10-22T07:39:43.999Z</time>
      </trkpt>
      <trkpt lat="47.49292" lon="6.75089">
        <ele>379.2</ele>
        <time>2017-10-22T07:39:44.999Z</time>
      </trkpt>
      <trkpt lat="47.49294" lon="6.75084">
        <ele>379.2</ele>
        <time>2017-10-22T07:39:45.999Z</time>
      </trkpt>
      <trkpt lat="47.49297" lon="6.7508">
        <ele>379</ele>
        <time>2017-10-22T07:39:46.999Z</time>
      </trkpt>
      <trkpt lat="47.49302" lon="6.75071">
        <ele>379</ele>
        <time>2017-10-22T07:39:47.999Z</time>
      </trkpt>
      <trkpt lat="47.49308" lon="6.75068">
        <ele>378.6</ele>
        <time>2017-10-22T07:39:48.999Z</time>
      </trkpt>
      <trkpt lat="47.49315" lon="6.75061">
        <ele>379.4</ele>
        <time>2017-10-22T07:39:49.999Z</time>
      </trkpt>
      <trkpt lat="47.49312" lon="6.75052">
        <ele>379.6</ele>
        <time>2017-10-22T07:39:50.999Z</time>
      </trkpt>
      <trkpt lat="47.49311" lon="6.75044">
        <ele>379.8</ele>
        <time>2017-10-22T07:39:51.999Z</time>
      </trkpt>
      <trkpt lat="47.49312" lon="6.7504">
        <ele>379.9</ele>
        <time>2017-10-22T07:39:52.999Z</time>
      </trkpt>
      <trkpt lat="47.49314" lon="6.75034">
        <ele>379.9</ele>
        <time>2017-10-22T07:39:53.999Z</time>
      </trkpt>
      <trkpt lat="47.49318" lon="6.7503">
        <ele>380</ele>
        <time>2017-10-22T07:39:54.999Z</time>
      </trkpt>
      <trkpt lat="47.49324" lon="6.75026">
        <ele>380.1</ele>
        <time>2017-10-22T07:39:55.999Z</time>
      </trkpt>
      <trkpt lat="47.49327" lon="6.75019">
        <ele>380.2</ele>
        <time>2017-10-22T07:39:56.999Z</time>
      </trkpt>
      <trkpt lat="47.49329" lon="6.75015">
        <ele>380.3</ele>
        <time>2017-10-22T07:39:57.999Z</time>
      </trkpt>
      <trkpt lat="47.49332" lon="6.75013">
        <ele>380.4</ele>
        <time>2017-10-22T07:39:58.999Z</time>
      </trkpt>
      <trkpt lat="47.49333" lon="6.75008">
        <ele>380.8</ele>
        <time>2017-10-22T07:40:00.999Z</time>
      </trkpt>
      <trkpt lat="47.49333" lon="6.75006">
        <ele>381.1</ele>
        <time>2017-10-22T07:40:01.999Z</time>
      </trkpt>
      <trkpt lat="47.49334" lon="6.75">
        <ele>381.7</ele>
        <time>2017-10-22T07:40:03.999Z</time>
      </trkpt>
      <trkpt lat="47.49335" lon="6.74997">
        <ele>382</ele>
        <time>2017-10-22T07:40:04.999Z</time>
      </trkpt>
      <trkpt lat="47.49334" lon="6.74994">
        <ele>382.8</ele>
        <time>2017-10-22T07:40:07.999Z</time>
      </trkpt>
      <trkpt lat="47.49334" lon="6.7499">
        <ele>383</ele>
        <time>2017-10-22T07:40:08.999Z</time>
      </trkpt>
      <trkpt lat="47.49334" lon="6.74988">
        <ele>383.3</ele>
        <time>2017-10-22T07:40:09.999Z</time>
      </trkpt>
      <trkpt lat="47.49334" lon="6.74982">
        <ele>383.6</ele>
        <time>2017-10-22T07:40:10.999Z</time>
      </trkpt>
      <trkpt lat="47.49335" lon="6.74975">
        <ele>384</ele>
        <time>2017-10-22T07:40:11.999Z</time>
      </trkpt>
      <trkpt lat="47.49335" lon="6.74972">
        <ele>384.3</ele>
        <time>2017-10-22T07:40:12.999Z</time>
      </trkpt>
      <trkpt lat="47.49335" lon="6.74968">
        <ele>384.5</ele>
        <time>2017-10-22T07:40:13.999Z</time>
      </trkpt>
      <trkpt lat="47.49334" lon="6.74963">
        <ele>385</ele>
        <time>2017-10-22T07:40:15.999Z</time>
      </trkpt>
      <trkpt lat="47.49334" lon="6.74959">
        <ele>385.1</ele>
        <time>2017-10-22T07:40:16.999Z</time>
      </trkpt>
      <trkpt lat="47.49333" lon="6.74953">
        <ele>385.4</ele>
        <time>2017-10-22T07:40:18.999Z</time>
      </trkpt>
      <trkpt lat="47.49333" lon="6.7495">
        <ele>385.5</ele>
        <time>2017-10-22T07:40:19.999Z</time>
      </trkpt>
      <trkpt lat="47.49333" lon="6.74944">
        <ele>385.8</ele>
        <time>2017-10-22T07:40:21.999Z</time>
      </trkpt>
      <trkpt lat="47.49333" lon="6.74941">
        <ele>386</ele>
        <time>2017-10-22T07:40:22.999Z</time>
      </trkpt>
      <trkpt lat="47.49332" lon="6.74935">
        <ele>386.5</ele>
        <time>2017-10-22T07:40:24.999Z</time>
      </trkpt>
      <trkpt lat="47.49332" lon="6.74932">
        <ele>386.7</ele>
        <time>2017-10-22T07:40:25.999Z</time>
      </trkpt>
      <trkpt lat="47.49332" lon="6.74927">
        <ele>387.2</ele>
        <time>2017-10-22T07:40:27.999Z</time>
      </trkpt>
      <trkpt lat="47.49332" lon="6.74924">
        <ele>387.3</ele>
        <time>2017-10-22T07:40:28.999Z</time>
      </trkpt>
      <trkpt lat="47.49332" lon="6.74919">
        <ele>387.5</ele>
        <time>2017-10-22T07:40:30.999Z</time>
      </trkpt>
      <trkpt lat="47.49332" lon="6.74917">
        <ele>387.6</ele>
        <time>2017-10-22T07:40:31.999Z</time>
      </trkpt>
      <trkpt lat="47.49335" lon="6.74912">
        <ele>386.4</ele>
        <time>2017-10-22T07:40:53.999Z</time>
      </trkpt>
      <trkpt lat="47.49336" lon="6.74911">
        <ele>386.2</ele>
        <time>2017-10-22T07:40:54.999Z</time>
      </trkpt>
      <trkpt lat="47.49338" lon="6.74907">
        <ele>386</ele>
        <time>2017-10-22T07:40:56.999Z</time>
      </trkpt>
      <trkpt lat="47.49339" lon="6.74905">
        <ele>385.8</ele>
        <time>2017-10-22T07:40:57.999Z</time>
      </trkpt>
      <trkpt lat="47.49341" lon="6.74902">
        <ele>385.6</ele>
        <time>2017-10-22T07:40:58.999Z</time>
      </trkpt>
      <trkpt lat="47.49345" lon="6.74897">
        <ele>385.4</ele>
        <time>2017-10-22T07:40:59.999Z</time>
      </trkpt>
      <trkpt lat="47.49346" lon="6.74892">
        <ele>385.2</ele>
        <time>2017-10-22T07:41:01.999Z</time>
      </trkpt>
      <trkpt lat="47.49347" lon="6.74889">
        <ele>385.2</ele>
        <time>2017-10-22T07:41:02.999Z</time>
      </trkpt>
      <trkpt lat="47.49348" lon="6.74886">
        <ele>385.2</ele>
        <time>2017-10-22T07:41:03.999Z</time>
      </trkpt>
      <trkpt lat="47.49349" lon="6.74883">
        <ele>385.2</ele>
        <time>2017-10-22T07:41:04.999Z</time>
      </trkpt>
      <trkpt lat="47.49353" lon="6.74876">
        <ele>385.2</ele>
        <time>2017-10-22T07:41:05.999Z</time>
      </trkpt>
      <trkpt lat="47.49355" lon="6.74872">
        <ele>385.3</ele>
        <time>2017-10-22T07:41:06.999Z</time>
      </trkpt>
      <trkpt lat="47.49358" lon="6.74865">
        <ele>385.3</ele>
        <time>2017-10-22T07:41:07.999Z</time>
      </trkpt>
      <trkpt lat="47.4936" lon="6.7486">
        <ele>385.3</ele>
        <time>2017-10-22T07:41:10.999Z</time>
      </trkpt>
      <trkpt lat="47.49361" lon="6.74858">
        <ele>385.4</ele>
        <time>2017-10-22T07:41:11.999Z</time>
      </trkpt>
      <trkpt lat="47.49362" lon="6.74852">
        <ele>385.6</ele>
        <time>2017-10-22T07:41:13.999Z</time>
      </trkpt>
      <trkpt lat="47.49362" lon="6.7485">
        <ele>385.6</ele>
        <time>2017-10-22T07:41:14.999Z</time>
      </trkpt>
      <trkpt lat="47.49364" lon="6.74844">
        <ele>385.7</ele>
        <time>2017-10-22T07:41:17.999Z</time>
      </trkpt>
      <trkpt lat="47.49364" lon="6.7484">
        <ele>385.8</ele>
        <time>2017-10-22T07:41:18.999Z</time>
      </trkpt>
      <trkpt lat="47.49366" lon="6.74838">
        <ele>386.7</ele>
        <time>2017-10-22T07:41:28.999Z</time>
      </trkpt>
      <trkpt lat="47.49367" lon="6.74833">
        <ele>386.8</ele>
        <time>2017-10-22T07:41:29.999Z</time>
      </trkpt>
      <trkpt lat="47.4937" lon="6.74828">
        <ele>386.9</ele>
        <time>2017-10-22T07:41:30.999Z</time>
      </trkpt>
      <trkpt lat="47.49373" lon="6.74824">
        <ele>387</ele>
        <time>2017-10-22T07:41:31.999Z</time>
      </trkpt>
      <trkpt lat="47.49375" lon="6.7482">
        <ele>387.7</ele>
        <time>2017-10-22T07:41:35.999Z</time>
      </trkpt>
      <trkpt lat="47.49377" lon="6.74818">
        <ele>387.9</ele>
        <time>2017-10-22T07:41:36.999Z</time>
      </trkpt>
      <trkpt lat="47.49378" lon="6.74816">
        <ele>388</ele>
        <time>2017-10-22T07:41:37.999Z</time>
      </trkpt>
      <trkpt lat="47.4938" lon="6.74813">
        <ele>388.1</ele>
        <time>2017-10-22T07:41:38.999Z</time>
      </trkpt>
      <trkpt lat="47.4938" lon="6.74808">
        <ele>388.1</ele>
        <time>2017-10-22T07:41:39.999Z</time>
      </trkpt>
      <trkpt lat="47.49382" lon="6.748">
        <ele>388</ele>
        <time>2017-10-22T07:41:40.999Z</time>
      </trkpt>
      <trkpt lat="47.49383" lon="6.74793">
        <ele>387.8</ele>
        <time>2017-10-22T07:41:41.999Z</time>
      </trkpt>
      <trkpt lat="47.49385" lon="6.74787">
        <ele>387.6</ele>
        <time>2017-10-22T07:41:42.999Z</time>
      </trkpt>
      <trkpt lat="47.49387" lon="6.74784">
        <ele>387.5</ele>
        <time>2017-10-22T07:41:43.999Z</time>
      </trkpt>
      <trkpt lat="47.49389" lon="6.74778">
        <ele>387.4</ele>
        <time>2017-10-22T07:41:44.999Z</time>
      </trkpt>
      <trkpt lat="47.49389" lon="6.74773">
        <ele>387</ele>
        <time>2017-10-22T07:41:46.999Z</time>
      </trkpt>
      <trkpt lat="47.49388" lon="6.74765">
        <ele>386.8</ele>
        <time>2017-10-22T07:41:47.999Z</time>
      </trkpt>
      <trkpt lat="47.49389" lon="6.74762">
        <ele>386.7</ele>
        <time>2017-10-22T07:41:48.999Z</time>
      </trkpt>
      <trkpt lat="47.4939" lon="6.74758">
        <ele>386.5</ele>
        <time>2017-10-22T07:41:49.999Z</time>
      </trkpt>
      <trkpt lat="47.49392" lon="6.74755">
        <ele>386.4</ele>
        <time>2017-10-22T07:41:50.999Z</time>
      </trkpt>
      <trkpt lat="47.49395" lon="6.74749">
        <ele>386.3</ele>
        <time>2017-10-22T07:41:51.999Z</time>
      </trkpt>
      <trkpt lat="47.49399" lon="6.74744">
        <ele>386.2</ele>
        <time>2017-10-22T07:41:52.999Z</time>
      </trkpt>
      <trkpt lat="47.494" lon="6.74738">
        <ele>385.9</ele>
        <time>2017-10-22T07:41:54.999Z</time>
      </trkpt>
      <trkpt lat="47.49401" lon="6.74737">
        <ele>385.7</ele>
        <time>2017-10-22T07:41:55.999Z</time>
      </trkpt>
      <trkpt lat="47.49401" lon="6.74734">
        <ele>385.4</ele>
        <time>2017-10-22T07:41:56.999Z</time>
      </trkpt>
      <trkpt lat="47.494" lon="6.7473">
        <ele>385.1</ele>
        <time>2017-10-22T07:41:57.999Z</time>
      </trkpt>
      <trkpt lat="47.49399" lon="6.74723">
        <ele>384.8</ele>
        <time>2017-10-22T07:41:58.999Z</time>
      </trkpt>
      <trkpt lat="47.49398" lon="6.74715">
        <ele>384.6</ele>
        <time>2017-10-22T07:41:59.999Z</time>
      </trkpt>
      <trkpt lat="47.49397" lon="6.7471">
        <ele>384.3</ele>
        <time>2017-10-22T07:42:00.999Z</time>
      </trkpt>
      <trkpt lat="47.49397" lon="6.74703">
        <ele>384.2</ele>
        <time>2017-10-22T07:42:01.999Z</time>
      </trkpt>
      <trkpt lat="47.49398" lon="6.74696">
        <ele>384</ele>
        <time>2017-10-22T07:42:02.999Z</time>
      </trkpt>
      <trkpt lat="47.49397" lon="6.74688">
        <ele>383.9</ele>
        <time>2017-10-22T07:42:03.999Z</time>
      </trkpt>
      <trkpt lat="47.49394" lon="6.74681">
        <ele>383.7</ele>
        <time>2017-10-22T07:42:04.999Z</time>
      </trkpt>
      <trkpt lat="47.4939" lon="6.74671">
        <ele>383.6</ele>
        <time>2017-10-22T07:42:05.999Z</time>
      </trkpt>
      <trkpt lat="47.49389" lon="6.74665">
        <ele>383.5</ele>
        <time>2017-10-22T07:42:06.999Z</time>
      </trkpt>
      <trkpt lat="47.4939" lon="6.74661">
        <ele>383.6</ele>
        <time>2017-10-22T07:42:07.999Z</time>
      </trkpt>
      <trkpt lat="47.4939" lon="6.74659">
        <ele>383.6</ele>
        <time>2017-10-22T07:42:08.999Z</time>
      </trkpt>
      <trkpt lat="47.49389" lon="6.74654">
        <ele>383.7</ele>
        <time>2017-10-22T07:42:09.999Z</time>
      </trkpt>
      <trkpt lat="47.4939" lon="6.7465">
        <ele>383.7</ele>
        <time>2017-10-22T07:42:10.999Z</time>
      </trkpt>
      <trkpt lat="47.49391" lon="6.74646">
        <ele>383.7</ele>
        <time>2017-10-22T07:42:11.999Z</time>
      </trkpt>
      <trkpt lat="47.49392" lon="6.74642">
        <ele>383.7</ele>
        <time>2017-10-22T07:42:12.999Z</time>
      </trkpt>
      <trkpt lat="47.49394" lon="6.74637">
        <ele>383.6</ele>
        <time>2017-10-22T07:42:13.999Z</time>
      </trkpt>
      <trkpt lat="47.49396" lon="6.74629">
        <ele>383.6</ele>
        <time>2017-10-22T07:42:14.999Z</time>
      </trkpt>
      <trkpt lat="47.49396" lon="6.7462">
        <ele>383.5</ele>
        <time>2017-10-22T07:42:15.999Z</time>
      </trkpt>
      <trkpt lat="47.49395" lon="6.74615">
        <ele>383.5</ele>
        <time>2017-10-22T07:42:16.999Z</time>
      </trkpt>
      <trkpt lat="47.49396" lon="6.74609">
        <ele>383.4</ele>
        <time>2017-10-22T07:42:17.999Z</time>
      </trkpt>
      <trkpt lat="47.49398" lon="6.74604">
        <ele>383.4</ele>
        <time>2017-10-22T07:42:18.999Z</time>
      </trkpt>
      <trkpt lat="47.49401" lon="6.74598">
        <ele>383.4</ele>
        <time>2017-10-22T07:42:19.999Z</time>
      </trkpt>
      <trkpt lat="47.49402" lon="6.74592">
        <ele>383.4</ele>
        <time>2017-10-22T07:42:20.999Z</time>
      </trkpt>
      <trkpt lat="47.49402" lon="6.74585">
        <ele>383.3</ele>
        <time>2017-10-22T07:42:21.999Z</time>
      </trkpt>
      <trkpt lat="47.49401" lon="6.74578">
        <ele>383.3</ele>
        <time>2017-10-22T07:42:22.999Z</time>
      </trkpt>
      <trkpt lat="47.49401" lon="6.74574">
        <ele>383.3</ele>
        <time>2017-10-22T07:42:23.999Z</time>
      </trkpt>
      <trkpt lat="47.49399" lon="6.74571">
        <ele>383.2</ele>
        <time>2017-10-22T07:42:24.999Z</time>
      </trkpt>
      <trkpt lat="47.49398" lon="6.74565">
        <ele>383.1</ele>
        <time>2017-10-22T07:42:26.999Z</time>
      </trkpt>
      <trkpt lat="47.49399" lon="6.74561">
        <ele>383</ele>
        <time>2017-10-22T07:42:27.999Z</time>
      </trkpt>
      <trkpt lat="47.494" lon="6.74557">
        <ele>382.8</ele>
        <time>2017-10-22T07:42:28.999Z</time>
      </trkpt>
      <trkpt lat="47.49402" lon="6.74554">
        <ele>382.7</ele>
        <time>2017-10-22T07:42:29.999Z</time>
      </trkpt>
      <trkpt lat="47.49403" lon="6.74548">
        <ele>382.4</ele>
        <time>2017-10-22T07:42:30.999Z</time>
      </trkpt>
      <trkpt lat="47.49406" lon="6.74542">
        <ele>382.2</ele>
        <time>2017-10-22T07:42:31.999Z</time>
      </trkpt>
      <trkpt lat="47.49409" lon="6.74536">
        <ele>381.9</ele>
        <time>2017-10-22T07:42:32.999Z</time>
      </trkpt>
      <trkpt lat="47.49411" lon="6.74531">
        <ele>380.4</ele>
        <time>2017-10-22T07:42:37.999Z</time>
      </trkpt>
      <trkpt lat="47.49415" lon="6.74527">
        <ele>380</ele>
        <time>2017-10-22T07:42:38.999Z</time>
      </trkpt>
      <trkpt lat="47.49416" lon="6.7452">
        <ele>379.7</ele>
        <time>2017-10-22T07:42:39.999Z</time>
      </trkpt>
      <trkpt lat="47.49417" lon="6.74513">
        <ele>379.5</ele>
        <time>2017-10-22T07:42:40.999Z</time>
      </trkpt>
      <trkpt lat="47.49418" lon="6.74509">
        <ele>379.2</ele>
        <time>2017-10-22T07:42:41.999Z</time>
      </trkpt>
      <trkpt lat="47.4942" lon="6.74503">
        <ele>378.9</ele>
        <time>2017-10-22T07:42:42.999Z</time>
      </trkpt>
      <trkpt lat="47.49421" lon="6.74494">
        <ele>378.6</ele>
        <time>2017-10-22T07:42:43.999Z</time>
      </trkpt>
      <trkpt lat="47.49421" lon="6.74485">
        <ele>378.3</ele>
        <time>2017-10-22T07:42:44.999Z</time>
      </trkpt>
      <trkpt lat="47.49421" lon="6.74475">
        <ele>377.9</ele>
        <time>2017-10-22T07:42:45.999Z</time>
      </trkpt>
      <trkpt lat="47.49419" lon="6.7447">
        <ele>377.5</ele>
        <time>2017-10-22T07:42:46.999Z</time>
      </trkpt>
      <trkpt lat="47.49416" lon="6.74461">
        <ele>377.2</ele>
        <time>2017-10-22T07:42:47.999Z</time>
      </trkpt>
      <trkpt lat="47.49413" lon="6.74451">
        <ele>376.9</ele>
        <time>2017-10-22T07:42:48.999Z</time>
      </trkpt>
      <trkpt lat="47.4941" lon="6.74442">
        <ele>376.7</ele>
        <time>2017-10-22T07:42:49.999Z</time>
      </trkpt>
      <trkpt lat="47.49407" lon="6.74434">
        <ele>376.5</ele>
        <time>2017-10-22T07:42:50.999Z</time>
      </trkpt>
      <trkpt lat="47.49409" lon="6.74428">
        <ele>376</ele>
        <time>2017-10-22T07:42:52.999Z</time>
      </trkpt>
      <trkpt lat="47.4941" lon="6.74424">
        <ele>375.8</ele>
        <time>2017-10-22T07:42:53.999Z</time>
      </trkpt>
      <trkpt lat="47.4941" lon="6.74417">
        <ele>375.5</ele>
        <time>2017-10-22T07:42:54.999Z</time>
      </trkpt>
      <trkpt lat="47.4941" lon="6.74412">
        <ele>375.3</ele>
        <time>2017-10-22T07:42:55.999Z</time>
      </trkpt>
      <trkpt lat="47.49408" lon="6.74402">
        <ele>375.1</ele>
        <time>2017-10-22T07:42:56.999Z</time>
      </trkpt>
      <trkpt lat="47.49408" lon="6.74394">
        <ele>374.9</ele>
        <time>2017-10-22T07:42:57.999Z</time>
      </trkpt>
      <trkpt lat="47.49407" lon="6.74389">
        <ele>374.9</ele>
        <time>2017-10-22T07:42:58.999Z</time>
      </trkpt>
      <trkpt lat="47.49406" lon="6.74384">
        <ele>374.8</ele>
        <time>2017-10-22T07:42:59.999Z</time>
      </trkpt>
      <trkpt lat="47.49406" lon="6.74379">
        <ele>374.7</ele>
        <time>2017-10-22T07:43:00.999Z</time>
      </trkpt>
      <trkpt lat="47.49406" lon="6.74374">
        <ele>374.7</ele>
        <time>2017-10-22T07:43:01.999Z</time>
      </trkpt>
      <trkpt lat="47.49406" lon="6.74368">
        <ele>374.7</ele>
        <time>2017-10-22T07:43:02.999Z</time>
      </trkpt>
      <trkpt lat="47.49407" lon="6.74364">
        <ele>374.9</ele>
        <time>2017-10-22T07:43:03.999Z</time>
      </trkpt>
      <trkpt lat="47.49408" lon="6.7436">
        <ele>375</ele>
        <time>2017-10-22T07:43:04.999Z</time>
      </trkpt>
      <trkpt lat="47.49409" lon="6.74357">
        <ele>375.2</ele>
        <time>2017-10-22T07:43:05.999Z</time>
      </trkpt>
      <trkpt lat="47.49408" lon="6.74352">
        <ele>375.3</ele>
        <time>2017-10-22T07:43:06.999Z</time>
      </trkpt>
      <trkpt lat="47.49407" lon="6.74346">
        <ele>375.4</ele>
        <time>2017-10-22T07:43:07.999Z</time>
      </trkpt>
      <trkpt lat="47.49407" lon="6.74342">
        <ele>375.5</ele>
        <time>2017-10-22T07:43:08.999Z</time>
      </trkpt>
      <trkpt lat="47.49406" lon="6.74338">
        <ele>375.6</ele>
        <time>2017-10-22T07:43:09.999Z</time>
      </trkpt>
      <trkpt lat="47.49406" lon="6.74336">
        <ele>375.8</ele>
        <time>2017-10-22T07:43:10.999Z</time>
      </trkpt>
      <trkpt lat="47.49406" lon="6.7433">
        <ele>375.9</ele>
        <time>2017-10-22T07:43:11.999Z</time>
      </trkpt>
      <trkpt lat="47.49406" lon="6.74326">
        <ele>376.3</ele>
        <time>2017-10-22T07:43:13.999Z</time>
      </trkpt>
      <trkpt lat="47.49408" lon="6.74321">
        <ele>376.3</ele>
        <time>2017-10-22T07:43:14.999Z</time>
      </trkpt>
      <trkpt lat="47.49409" lon="6.74316">
        <ele>376.5</ele>
        <time>2017-10-22T07:43:17.999Z</time>
      </trkpt>
      <trkpt lat="47.49409" lon="6.74313">
        <ele>376.6</ele>
        <time>2017-10-22T07:43:18.999Z</time>
      </trkpt>
      <trkpt lat="47.49409" lon="6.74309">
        <ele>376.7</ele>
        <time>2017-10-22T07:43:19.999Z</time>
      </trkpt>
      <trkpt lat="47.4941" lon="6.74305">
        <ele>376.8</ele>
        <time>2017-10-22T07:43:20.999Z</time>
      </trkpt>
      <trkpt lat="47.4941" lon="6.74302">
        <ele>377</ele>
        <time>2017-10-22T07:43:21.999Z</time>
      </trkpt>
      <trkpt lat="47.49412" lon="6.74294">
        <ele>377.2</ele>
        <time>2017-10-22T07:43:22.999Z</time>
      </trkpt>
      <trkpt lat="47.49412" lon="6.74289">
        <ele>377.4</ele>
        <time>2017-10-22T07:43:23.999Z</time>
      </trkpt>
      <trkpt lat="47.49412" lon="6.7428">
        <ele>377.5</ele>
        <time>2017-10-22T07:43:24.999Z</time>
      </trkpt>
      <trkpt lat="47.49413" lon="6.74275">
        <ele>377.5</ele>
        <time>2017-10-22T07:43:25.999Z</time>
      </trkpt>
      <trkpt lat="47.49416" lon="6.74266">
        <ele>377.5</ele>
        <time>2017-10-22T07:43:26.999Z</time>
      </trkpt>
      <trkpt lat="47.49416" lon="6.74256">
        <ele>377.6</ele>
        <time>2017-10-22T07:43:27.999Z</time>
      </trkpt>
      <trkpt lat="47.49416" lon="6.74251">
        <ele>377.5</ele>
        <time>2017-10-22T07:43:28.999Z</time>
      </trkpt>
      <trkpt lat="47.49416" lon="6.74242">
        <ele>377.4</ele>
        <time>2017-10-22T07:43:29.999Z</time>
      </trkpt>
      <trkpt lat="47.49416" lon="6.74233">
        <ele>377.4</ele>
        <time>2017-10-22T07:43:30.999Z</time>
      </trkpt>
      <trkpt lat="47.49416" lon="6.74228">
        <ele>377.4</ele>
        <time>2017-10-22T07:43:31.999Z</time>
      </trkpt>
      <trkpt lat="47.49417" lon="6.74219">
        <ele>377.5</ele>
        <time>2017-10-22T07:43:32.999Z</time>
      </trkpt>
      <trkpt lat="47.49418" lon="6.7421">
        <ele>377.5</ele>
        <time>2017-10-22T07:43:33.999Z</time>
      </trkpt>
      <trkpt lat="47.49418" lon="6.74202">
        <ele>377.6</ele>
        <time>2017-10-22T07:43:34.999Z</time>
      </trkpt>
      <trkpt lat="47.4942" lon="6.74198">
        <ele>377.6</ele>
        <time>2017-10-22T07:43:35.999Z</time>
      </trkpt>
      <trkpt lat="47.49422" lon="6.74193">
        <ele>377.6</ele>
        <time>2017-10-22T07:43:36.999Z</time>
      </trkpt>
      <trkpt lat="47.49422" lon="6.74191">
        <ele>377.7</ele>
        <time>2017-10-22T07:43:37.999Z</time>
      </trkpt>
      <trkpt lat="47.49422" lon="6.74182">
        <ele>377.8</ele>
        <time>2017-10-22T07:43:38.999Z</time>
      </trkpt>
      <trkpt lat="47.49423" lon="6.74174">
        <ele>378</ele>
        <time>2017-10-22T07:43:39.999Z</time>
      </trkpt>
      <trkpt lat="47.49421" lon="6.74166">
        <ele>378.1</ele>
        <time>2017-10-22T07:43:40.999Z</time>
      </trkpt>
      <trkpt lat="47.4942" lon="6.74162">
        <ele>378.3</ele>
        <time>2017-10-22T07:43:41.999Z</time>
      </trkpt>
      <trkpt lat="47.4942" lon="6.74158">
        <ele>378.5</ele>
        <time>2017-10-22T07:43:42.999Z</time>
      </trkpt>
      <trkpt lat="47.4942" lon="6.7415">
        <ele>378.7</ele>
        <time>2017-10-22T07:43:43.999Z</time>
      </trkpt>
      <trkpt lat="47.49421" lon="6.74146">
        <ele>378.9</ele>
        <time>2017-10-22T07:43:44.999Z</time>
      </trkpt>
      <trkpt lat="47.49422" lon="6.74139">
        <ele>379</ele>
        <time>2017-10-22T07:43:45.999Z</time>
      </trkpt>
      <trkpt lat="47.49422" lon="6.74136">
        <ele>379.2</ele>
        <time>2017-10-22T07:43:46.999Z</time>
      </trkpt>
      <trkpt lat="47.49421" lon="6.74132">
        <ele>379.3</ele>
        <time>2017-10-22T07:43:47.999Z</time>
      </trkpt>
      <trkpt lat="47.49421" lon="6.7413">
        <ele>379.5</ele>
        <time>2017-10-22T07:43:48.999Z</time>
      </trkpt>
      <trkpt lat="47.49424" lon="6.74125">
        <ele>379.7</ele>
        <time>2017-10-22T07:43:49.999Z</time>
      </trkpt>
      <trkpt lat="47.49424" lon="6.7412">
        <ele>380.2</ele>
        <time>2017-10-22T07:43:52.999Z</time>
      </trkpt>
      <trkpt lat="47.49424" lon="6.74118">
        <ele>380.4</ele>
        <time>2017-10-22T07:43:53.999Z</time>
      </trkpt>
      <trkpt lat="47.49425" lon="6.74113">
        <ele>381.2</ele>
        <time>2017-10-22T07:44:00.999Z</time>
      </trkpt>
      <trkpt lat="47.49425" lon="6.74111">
        <ele>381.3</ele>
        <time>2017-10-22T07:44:01.999Z</time>
      </trkpt>
      <trkpt lat="47.49424" lon="6.74107">
        <ele>381.4</ele>
        <time>2017-10-22T07:44:02.999Z</time>
      </trkpt>
      <trkpt lat="47.49423" lon="6.74102">
        <ele>381.6</ele>
        <time>2017-10-22T07:44:03.999Z</time>
      </trkpt>
      <trkpt lat="47.49422" lon="6.74099">
        <ele>381.7</ele>
        <time>2017-10-22T07:44:04.999Z</time>
      </trkpt>
      <trkpt lat="47.49421" lon="6.74095">
        <ele>381.8</ele>
        <time>2017-10-22T07:44:05.999Z</time>
      </trkpt>
      <trkpt lat="47.49419" lon="6.7409">
        <ele>382.1</ele>
        <time>2017-10-22T07:44:08.999Z</time>
      </trkpt>
      <trkpt lat="47.49419" lon="6.74089">
        <ele>382.2</ele>
        <time>2017-10-22T07:44:09.999Z</time>
      </trkpt>
      <trkpt lat="47.49418" lon="6.74086">
        <ele>382.7</ele>
        <time>2017-10-22T07:44:13.999Z</time>
      </trkpt>
      <trkpt lat="47.49418" lon="6.74082">
        <ele>382.9</ele>
        <time>2017-10-22T07:44:14.999Z</time>
      </trkpt>
      <trkpt lat="47.49417" lon="6.74076">
        <ele>384.9</ele>
        <time>2017-10-22T07:44:43.999Z</time>
      </trkpt>
      <trkpt lat="47.49417" lon="6.74074">
        <ele>385</ele>
        <time>2017-10-22T07:44:44.999Z</time>
      </trkpt>
      <trkpt lat="47.49417" lon="6.7407">
        <ele>385.9</ele>
        <time>2017-10-22T07:44:56.999Z</time>
      </trkpt>
      <trkpt lat="47.49417" lon="6.74065">
        <ele>386.3</ele>
        <time>2017-10-22T07:44:57.999Z</time>
      </trkpt>
      <trkpt lat="47.49417" lon="6.74062">
        <ele>386.6</ele>
        <time>2017-10-22T07:44:58.999Z</time>
      </trkpt>
      <trkpt lat="47.49416" lon="6.74058">
        <ele>386.9</ele>
        <time>2017-10-22T07:44:59.999Z</time>
      </trkpt>
      <trkpt lat="47.49416" lon="6.74054">
        <ele>387.5</ele>
        <time>2017-10-22T07:45:01.999Z</time>
      </trkpt>
      <trkpt lat="47.49416" lon="6.74051">
        <ele>387.8</ele>
        <time>2017-10-22T07:45:02.999Z</time>
      </trkpt>
      <trkpt lat="47.49415" lon="6.74044">
        <ele>388.3</ele>
        <time>2017-10-22T07:45:05.999Z</time>
      </trkpt>
      <trkpt lat="47.49415" lon="6.74039">
        <ele>388.4</ele>
        <time>2017-10-22T07:45:06.999Z</time>
      </trkpt>
      <trkpt lat="47.49416" lon="6.74034">
        <ele>388.7</ele>
        <time>2017-10-22T07:45:10.999Z</time>
      </trkpt>
      <trkpt lat="47.49416" lon="6.74032">
        <ele>388.6</ele>
        <time>2017-10-22T07:45:11.999Z</time>
      </trkpt>
      <trkpt lat="47.49414" lon="6.74028">
        <ele>388.6</ele>
        <time>2017-10-22T07:45:14.999Z</time>
      </trkpt>
      <trkpt lat="47.49411" lon="6.74018">
        <ele>388.4</ele>
        <time>2017-10-22T07:45:15.999Z</time>
      </trkpt>
      <trkpt lat="47.49408" lon="6.74009">
        <ele>388.2</ele>
        <time>2017-10-22T07:45:16.999Z</time>
      </trkpt>
      <trkpt lat="47.49407" lon="6.74007">
        <ele>388.1</ele>
        <time>2017-10-22T07:45:17.999Z</time>
      </trkpt>
      <trkpt lat="47.49405" lon="6.74">
        <ele>387.9</ele>
        <time>2017-10-22T07:45:18.999Z</time>
      </trkpt>
      <trkpt lat="47.49405" lon="6.73994">
        <ele>388.2</ele>
        <time>2017-10-22T07:45:24.999Z</time>
      </trkpt>
      <trkpt lat="47.49404" lon="6.73992">
        <ele>388.5</ele>
        <time>2017-10-22T07:45:25.999Z</time>
      </trkpt>
      <trkpt lat="47.49402" lon="6.73986">
        <ele>388.8</ele>
        <time>2017-10-22T07:45:26.999Z</time>
      </trkpt>
      <trkpt lat="47.49395" lon="6.73967">
        <ele>389</ele>
        <time>2017-10-22T07:45:27.999Z</time>
      </trkpt>
      <trkpt lat="47.49392" lon="6.73959">
        <ele>389.3</ele>
        <time>2017-10-22T07:45:28.999Z</time>
      </trkpt>
      <trkpt lat="47.49389" lon="6.7395">
        <ele>389.5</ele>
        <time>2017-10-22T07:45:29.999Z</time>
      </trkpt>
      <trkpt lat="47.49387" lon="6.7394">
        <ele>389.6</ele>
        <time>2017-10-22T07:45:30.999Z</time>
      </trkpt>
      <trkpt lat="47.49389" lon="6.73934">
        <ele>389.8</ele>
        <time>2017-10-22T07:45:32.999Z</time>
      </trkpt>
      <trkpt lat="47.49388" lon="6.73932">
        <ele>389.8</ele>
        <time>2017-10-22T07:45:33.999Z</time>
      </trkpt>
      <trkpt lat="47.49388" lon="6.73932">
        <ele>390.2</ele>
        <time>2017-10-22T07:45:37.999Z</time>
      </trkpt>
      <trkpt lat="47.49385" lon="6.73926">
        <ele>390.3</ele>
        <time>2017-10-22T07:45:38.999Z</time>
      </trkpt>
      <trkpt lat="47.49383" lon="6.73922">
        <ele>390.4</ele>
        <time>2017-10-22T07:45:39.999Z</time>
      </trkpt>
      <trkpt lat="47.4938" lon="6.73919">
        <ele>390.3</ele>
        <time>2017-10-22T07:45:40.999Z</time>
      </trkpt>
      <trkpt lat="47.49374" lon="6.7391">
        <ele>390.2</ele>
        <time>2017-10-22T07:45:41.999Z</time>
      </trkpt>
      <trkpt lat="47.49368" lon="6.73902">
        <ele>390.3</ele>
        <time>2017-10-22T07:45:42.999Z</time>
      </trkpt>
      <trkpt lat="47.49361" lon="6.73891">
        <ele>390.3</ele>
        <time>2017-10-22T07:45:43.999Z</time>
      </trkpt>
      <trkpt lat="47.49352" lon="6.73875">
        <ele>390.5</ele>
        <time>2017-10-22T07:45:44.999Z</time>
      </trkpt>
      <trkpt lat="47.49346" lon="6.73867">
        <ele>391.6</ele>
        <time>2017-10-22T07:45:45.999Z</time>
      </trkpt>
      <trkpt lat="47.49337" lon="6.73855">
        <ele>391.7</ele>
        <time>2017-10-22T07:45:46.999Z</time>
      </trkpt>
      <trkpt lat="47.4933" lon="6.73843">
        <ele>391.4</ele>
        <time>2017-10-22T07:45:47.999Z</time>
      </trkpt>
      <trkpt lat="47.49326" lon="6.73833">
        <ele>391.4</ele>
        <time>2017-10-22T07:45:48.999Z</time>
      </trkpt>
      <trkpt lat="47.49323" lon="6.73823">
        <ele>391.4</ele>
        <time>2017-10-22T07:45:49.999Z</time>
      </trkpt>
      <trkpt lat="47.4932" lon="6.73821">
        <ele>391.4</ele>
        <time>2017-10-22T07:45:50.999Z</time>
      </trkpt>
      <trkpt lat="47.49315" lon="6.73819">
        <ele>391.5</ele>
        <time>2017-10-22T07:45:51.999Z</time>
      </trkpt>
      <trkpt lat="47.49312" lon="6.73816">
        <ele>391.2</ele>
        <time>2017-10-22T07:45:58.999Z</time>
      </trkpt>
      <trkpt lat="47.49311" lon="6.73815">
        <ele>391</ele>
        <time>2017-10-22T07:45:59.999Z</time>
      </trkpt>
      <trkpt lat="47.4931" lon="6.73809">
        <ele>390.9</ele>
        <time>2017-10-22T07:46:06.999Z</time>
      </trkpt>
      <trkpt lat="47.4931" lon="6.73803">
        <ele>390.9</ele>
        <time>2017-10-22T07:46:07.999Z</time>
      </trkpt>
      <trkpt lat="47.49312" lon="6.73798">
        <ele>390.9</ele>
        <time>2017-10-22T07:46:08.999Z</time>
      </trkpt>
      <trkpt lat="47.49313" lon="6.73793">
        <ele>390.9</ele>
        <time>2017-10-22T07:46:09.999Z</time>
      </trkpt>
      <trkpt lat="47.49313" lon="6.73787">
        <ele>390.9</ele>
        <time>2017-10-22T07:46:10.999Z</time>
      </trkpt>
      <trkpt lat="47.49313" lon="6.73786">
        <ele>390.9</ele>
        <time>2017-10-22T07:46:11.999Z</time>
      </trkpt>
      <trkpt lat="47.49313" lon="6.73782">
        <ele>390.6</ele>
        <time>2017-10-22T07:46:14.999Z</time>
      </trkpt>
      <trkpt lat="47.49313" lon="6.73776">
        <ele>390.5</ele>
        <time>2017-10-22T07:46:15.999Z</time>
      </trkpt>
      <trkpt lat="47.49315" lon="6.73771">
        <ele>390.6</ele>
        <time>2017-10-22T07:46:17.999Z</time>
      </trkpt>
      <trkpt lat="47.49315" lon="6.73765">
        <ele>390.6</ele>
        <time>2017-10-22T07:46:18.999Z</time>
      </trkpt>
      <trkpt lat="47.49316" lon="6.73759">
        <ele>391.2</ele>
        <time>2017-10-22T07:46:26.999Z</time>
      </trkpt>
      <trkpt lat="47.49315" lon="6.73751">
        <ele>391.4</ele>
        <time>2017-10-22T07:46:27.999Z</time>
      </trkpt>
      <trkpt lat="47.49315" lon="6.73747">
        <ele>392.1</ele>
        <time>2017-10-22T07:46:31.999Z</time>
      </trkpt>
      <trkpt lat="47.49315" lon="6.73742">
        <ele>392.5</ele>
        <time>2017-10-22T07:46:32.999Z</time>
      </trkpt>
      <trkpt lat="47.49314" lon="6.73736">
        <ele>392.9</ele>
        <time>2017-10-22T07:46:33.999Z</time>
      </trkpt>
      <trkpt lat="47.49314" lon="6.73735">
        <ele>393.3</ele>
        <time>2017-10-22T07:46:34.999Z</time>
      </trkpt>
      <trkpt lat="47.49314" lon="6.7373">
        <ele>396</ele>
        <time>2017-10-22T07:46:45.999Z</time>
      </trkpt>
      <trkpt lat="47.49311" lon="6.73729">
        <ele>396.2</ele>
        <time>2017-10-22T07:46:46.999Z</time>
      </trkpt>
      <trkpt lat="47.49308" lon="6.73726">
        <ele>402</ele>
        <time>2017-10-22T07:47:34.999Z</time>
      </trkpt>
      <trkpt lat="47.49308" lon="6.73724">
        <ele>402.2</ele>
        <time>2017-10-22T07:47:35.999Z</time>
      </trkpt>
      <trkpt lat="47.49307" lon="6.7372">
        <ele>403.3</ele>
        <time>2017-10-22T07:47:44.999Z</time>
      </trkpt>
      <trkpt lat="47.49308" lon="6.73717">
        <ele>403.4</ele>
        <time>2017-10-22T07:47:45.999Z</time>
      </trkpt>
      <trkpt lat="47.49304" lon="6.73713">
        <ele>403.6</ele>
        <time>2017-10-22T07:47:46.999Z</time>
      </trkpt>
      <trkpt lat="47.49302" lon="6.73708">
        <ele>403.6</ele>
        <time>2017-10-22T07:47:47.999Z</time>
      </trkpt>
      <trkpt lat="47.49299" lon="6.73703">
        <ele>403.6</ele>
        <time>2017-10-22T07:47:48.999Z</time>
      </trkpt>
      <trkpt lat="47.49297" lon="6.73697">
        <ele>403.5</ele>
        <time>2017-10-22T07:47:49.999Z</time>
      </trkpt>
      <trkpt lat="47.49297" lon="6.73691">
        <ele>403.3</ele>
        <time>2017-10-22T07:47:52.999Z</time>
      </trkpt>
      <trkpt lat="47.49296" lon="6.7369">
        <ele>403.1</ele>
        <time>2017-10-22T07:47:53.999Z</time>
      </trkpt>
      <trkpt lat="47.49297" lon="6.73684">
        <ele>402.1</ele>
        <time>2017-10-22T07:48:00.999Z</time>
      </trkpt>
      <trkpt lat="47.49297" lon="6.73679">
        <ele>402</ele>
        <time>2017-10-22T07:48:01.999Z</time>
      </trkpt>
      <trkpt lat="47.49297" lon="6.73671">
        <ele>401.8</ele>
        <time>2017-10-22T07:48:02.999Z</time>
      </trkpt>
      <trkpt lat="47.49296" lon="6.73664">
        <ele>401.7</ele>
        <time>2017-10-22T07:48:03.999Z</time>
      </trkpt>
      <trkpt lat="47.49294" lon="6.73657">
        <ele>401.6</ele>
        <time>2017-10-22T07:48:04.999Z</time>
      </trkpt>
      <trkpt lat="47.49292" lon="6.73654">
        <ele>401</ele>
        <time>2017-10-22T07:48:11.000Z</time>
      </trkpt>
      <trkpt lat="47.49291" lon="6.73651">
        <ele>400.8</ele>
        <time>2017-10-22T07:48:12.000Z</time>
      </trkpt>
      <trkpt lat="47.49286" lon="6.73652">
        <ele>400.7</ele>
        <time>2017-10-22T07:48:13.000Z</time>
      </trkpt>
      <trkpt lat="47.49283" lon="6.73649">
        <ele>400.7</ele>
        <time>2017-10-22T07:48:14.000Z</time>
      </trkpt>
      <trkpt lat="47.4928" lon="6.73646">
        <ele>400.6</ele>
        <time>2017-10-22T07:48:15.000Z</time>
      </trkpt>
      <trkpt lat="47.49277" lon="6.73644">
        <ele>400.6</ele>
        <time>2017-10-22T07:48:21.000Z</time>
      </trkpt>
      <trkpt lat="47.49275" lon="6.73643">
        <ele>400.7</ele>
        <time>2017-10-22T07:48:22.000Z</time>
      </trkpt>
      <trkpt lat="47.49274" lon="6.73643">
        <ele>401.1</ele>
        <time>2017-10-22T07:48:24.000Z</time>
      </trkpt>
      <trkpt lat="47.49271" lon="6.7364">
        <ele>401.2</ele>
        <time>2017-10-22T07:48:25.000Z</time>
      </trkpt>
      <trkpt lat="47.49267" lon="6.73638">
        <ele>401.3</ele>
        <time>2017-10-22T07:48:26.000Z</time>
      </trkpt>
      <trkpt lat="47.49263" lon="6.73634">
        <ele>401.8</ele>
        <time>2017-10-22T07:48:35.000Z</time>
      </trkpt>
      <trkpt lat="47.49261" lon="6.73631">
        <ele>401.9</ele>
        <time>2017-10-22T07:48:36.000Z</time>
      </trkpt>
      <trkpt lat="47.49259" lon="6.73629">
        <ele>402.2</ele>
        <time>2017-10-22T07:48:38.000Z</time>
      </trkpt>
      <trkpt lat="47.49256" lon="6.73627">
        <ele>402.4</ele>
        <time>2017-10-22T07:48:39.000Z</time>
      </trkpt>
      <trkpt lat="47.49252" lon="6.73624">
        <ele>402.4</ele>
        <time>2017-10-22T07:48:40.000Z</time>
      </trkpt>
      <trkpt lat="47.49249" lon="6.7362">
        <ele>402.8</ele>
        <time>2017-10-22T07:48:43.000Z</time>
      </trkpt>
      <trkpt lat="47.49246" lon="6.73614">
        <ele>403</ele>
        <time>2017-10-22T07:48:44.000Z</time>
      </trkpt>
      <trkpt lat="47.49242" lon="6.73611">
        <ele>403.8</ele>
        <time>2017-10-22T07:48:47.000Z</time>
      </trkpt>
      <trkpt lat="47.49237" lon="6.7361">
        <ele>404.2</ele>
        <time>2017-10-22T07:48:48.000Z</time>
      </trkpt>
      <trkpt lat="47.49234" lon="6.73607">
        <ele>405.6</ele>
        <time>2017-10-22T07:48:55.000Z</time>
      </trkpt>
      <trkpt lat="47.49232" lon="6.73605">
        <ele>405.9</ele>
        <time>2017-10-22T07:48:56.000Z</time>
      </trkpt>
      <trkpt lat="47.49228" lon="6.73599">
        <ele>406.1</ele>
        <time>2017-10-22T07:48:57.000Z</time>
      </trkpt>
      <trkpt lat="47.49225" lon="6.73595">
        <ele>406.2</ele>
        <time>2017-10-22T07:48:58.000Z</time>
      </trkpt>
      <trkpt lat="47.49224" lon="6.73593">
        <ele>406.5</ele>
        <time>2017-10-22T07:48:59.000Z</time>
      </trkpt>
      <trkpt lat="47.49222" lon="6.73589">
        <ele>407.5</ele>
        <time>2017-10-22T07:49:03.000Z</time>
      </trkpt>
      <trkpt lat="47.4922" lon="6.73587">
        <ele>407.8</ele>
        <time>2017-10-22T07:49:04.000Z</time>
      </trkpt>
      <trkpt lat="47.49218" lon="6.73583">
        <ele>409.5</ele>
        <time>2017-10-22T07:49:10.000Z</time>
      </trkpt>
      <trkpt lat="47.49215" lon="6.73582">
        <ele>410</ele>
        <time>2017-10-22T07:49:11.000Z</time>
      </trkpt>
      <trkpt lat="47.49213" lon="6.73579">
        <ele>411.7</ele>
        <time>2017-10-22T07:49:15.000Z</time>
      </trkpt>
      <trkpt lat="47.4921" lon="6.73577">
        <ele>412</ele>
        <time>2017-10-22T07:49:16.000Z</time>
      </trkpt>
      <trkpt lat="47.49203" lon="6.73572">
        <ele>412.3</ele>
        <time>2017-10-22T07:49:17.000Z</time>
      </trkpt>
      <trkpt lat="47.49202" lon="6.73566">
        <ele>412.7</ele>
        <time>2017-10-22T07:49:19.000Z</time>
      </trkpt>
      <trkpt lat="47.492" lon="6.73567">
        <ele>412.9</ele>
        <time>2017-10-22T07:49:20.000Z</time>
      </trkpt>
      <trkpt lat="47.49199" lon="6.73566">
        <ele>413.2</ele>
        <time>2017-10-22T07:49:21.000Z</time>
      </trkpt>
      <trkpt lat="47.49195" lon="6.73563">
        <ele>413.5</ele>
        <time>2017-10-22T07:49:22.000Z</time>
      </trkpt>
      <trkpt lat="47.49191" lon="6.73559">
        <ele>413.8</ele>
        <time>2017-10-22T07:49:23.000Z</time>
      </trkpt>
      <trkpt lat="47.49191" lon="6.73554">
        <ele>415</ele>
        <time>2017-10-22T07:49:35.000Z</time>
      </trkpt>
      <trkpt lat="47.49192" lon="6.73553">
        <ele>414.8</ele>
        <time>2017-10-22T07:49:36.000Z</time>
      </trkpt>
      <trkpt lat="47.49193" lon="6.73548">
        <ele>414.6</ele>
        <time>2017-10-22T07:49:37.000Z</time>
      </trkpt>
      <trkpt lat="47.49195" lon="6.73544">
        <ele>414.4</ele>
        <time>2017-10-22T07:49:38.000Z</time>
      </trkpt>
      <trkpt lat="47.49198" lon="6.7354">
        <ele>414.2</ele>
        <time>2017-10-22T07:49:39.000Z</time>
      </trkpt>
      <trkpt lat="47.49198" lon="6.73535">
        <ele>414.1</ele>
        <time>2017-10-22T07:49:40.000Z</time>
      </trkpt>
      <trkpt lat="47.49199" lon="6.7353">
        <ele>414</ele>
        <time>2017-10-22T07:49:41.000Z</time>
      </trkpt>
      <trkpt lat="47.492" lon="6.73523">
        <ele>413.9</ele>
        <time>2017-10-22T07:49:42.000Z</time>
      </trkpt>
      <trkpt lat="47.492" lon="6.73517">
        <ele>413.8</ele>
        <time>2017-10-22T07:49:43.000Z</time>
      </trkpt>
      <trkpt lat="47.49199" lon="6.7351">
        <ele>413.7</ele>
        <time>2017-10-22T07:49:44.000Z</time>
      </trkpt>
      <trkpt lat="47.49199" lon="6.73503">
        <ele>413.7</ele>
        <time>2017-10-22T07:49:45.000Z</time>
      </trkpt>
      <trkpt lat="47.49198" lon="6.73495">
        <ele>413.6</ele>
        <time>2017-10-22T07:49:46.000Z</time>
      </trkpt>
      <trkpt lat="47.49197" lon="6.73488">
        <ele>413.6</ele>
        <time>2017-10-22T07:49:47.000Z</time>
      </trkpt>
      <trkpt lat="47.49197" lon="6.73483">
        <ele>413.5</ele>
        <time>2017-10-22T07:49:49.000Z</time>
      </trkpt>
      <trkpt lat="47.49197" lon="6.7348">
        <ele>413.5</ele>
        <time>2017-10-22T07:49:50.000Z</time>
      </trkpt>
      <trkpt lat="47.49195" lon="6.73477">
        <ele>413.3</ele>
        <time>2017-10-22T07:49:51.000Z</time>
      </trkpt>
      <trkpt lat="47.49194" lon="6.73472">
        <ele>413.2</ele>
        <time>2017-10-22T07:49:52.000Z</time>
      </trkpt>
      <trkpt lat="47.49193" lon="6.73468">
        <ele>412.6</ele>
        <time>2017-10-22T07:49:57.000Z</time>
      </trkpt>
      <trkpt lat="47.49194" lon="6.73462">
        <ele>412.6</ele>
        <time>2017-10-22T07:49:58.000Z</time>
      </trkpt>
      <trkpt lat="47.49194" lon="6.73456">
        <ele>412.8</ele>
        <time>2017-10-22T07:49:59.000Z</time>
      </trkpt>
      <trkpt lat="47.49193" lon="6.7345">
        <ele>412.8</ele>
        <time>2017-10-22T07:50:00.000Z</time>
      </trkpt>
      <trkpt lat="47.49192" lon="6.73444">
        <ele>413.1</ele>
        <time>2017-10-22T07:50:06.000Z</time>
      </trkpt>
      <trkpt lat="47.49191" lon="6.73441">
        <ele>413.1</ele>
        <time>2017-10-22T07:50:07.000Z</time>
      </trkpt>
      <trkpt lat="47.49188" lon="6.73437">
        <ele>413.4</ele>
        <time>2017-10-22T07:50:11.000Z</time>
      </trkpt>
      <trkpt lat="47.49186" lon="6.73435">
        <ele>413.4</ele>
        <time>2017-10-22T07:50:12.000Z</time>
      </trkpt>
      <trkpt lat="47.49184" lon="6.73433">
        <ele>414</ele>
        <time>2017-10-22T07:50:17.000Z</time>
      </trkpt>
      <trkpt lat="47.49182" lon="6.7343">
        <ele>414.1</ele>
        <time>2017-10-22T07:50:18.000Z</time>
      </trkpt>
      <trkpt lat="47.49179" lon="6.73425">
        <ele>414.4</ele>
        <time>2017-10-22T07:50:19.000Z</time>
      </trkpt>
      <trkpt lat="47.49176" lon="6.7342">
        <ele>414.8</ele>
        <time>2017-10-22T07:50:20.000Z</time>
      </trkpt>
      <trkpt lat="47.49173" lon="6.73416">
        <ele>415</ele>
        <time>2017-10-22T07:50:21.000Z</time>
      </trkpt>
      <trkpt lat="47.49168" lon="6.73412">
        <ele>415.4</ele>
        <time>2017-10-22T07:50:22.000Z</time>
      </trkpt>
      <trkpt lat="47.49164" lon="6.73408">
        <ele>415.7</ele>
        <time>2017-10-22T07:50:23.000Z</time>
      </trkpt>
      <trkpt lat="47.49159" lon="6.73404">
        <ele>416</ele>
        <time>2017-10-22T07:50:24.000Z</time>
      </trkpt>
      <trkpt lat="47.49156" lon="6.73398">
        <ele>416.2</ele>
        <time>2017-10-22T07:50:25.000Z</time>
      </trkpt>
      <trkpt lat="47.49153" lon="6.73395">
        <ele>416.7</ele>
        <time>2017-10-22T07:50:28.000Z</time>
      </trkpt>
      <trkpt lat="47.4915" lon="6.73394">
        <ele>417</ele>
        <time>2017-10-22T07:50:29.000Z</time>
      </trkpt>
      <trkpt lat="47.49148" lon="6.73393">
        <ele>417.3</ele>
        <time>2017-10-22T07:50:30.000Z</time>
      </trkpt>
      <trkpt lat="47.49145" lon="6.7339">
        <ele>417.5</ele>
        <time>2017-10-22T07:50:31.000Z</time>
      </trkpt>
      <trkpt lat="47.49142" lon="6.73387">
        <ele>417.8</ele>
        <time>2017-10-22T07:50:32.000Z</time>
      </trkpt>
      <trkpt lat="47.49141" lon="6.73386">
        <ele>418</ele>
        <time>2017-10-22T07:50:33.000Z</time>
      </trkpt>
      <trkpt lat="47.49136" lon="6.73386">
        <ele>418.2</ele>
        <time>2017-10-22T07:50:34.000Z</time>
      </trkpt>
      <trkpt lat="47.49133" lon="6.73385">
        <ele>418.4</ele>
        <time>2017-10-22T07:50:35.000Z</time>
      </trkpt>
      <trkpt lat="47.4913" lon="6.73385">
        <ele>418.6</ele>
        <time>2017-10-22T07:50:36.000Z</time>
      </trkpt>
      <trkpt lat="47.49127" lon="6.73386">
        <ele>418.9</ele>
        <time>2017-10-22T07:50:37.000Z</time>
      </trkpt>
      <trkpt lat="47.49125" lon="6.73386">
        <ele>419</ele>
        <time>2017-10-22T07:50:38.000Z</time>
      </trkpt>
      <trkpt lat="47.49123" lon="6.73384">
        <ele>419.2</ele>
        <time>2017-10-22T07:50:39.000Z</time>
      </trkpt>
      <trkpt lat="47.49121" lon="6.73378">
        <ele>419.4</ele>
        <time>2017-10-22T07:50:40.000Z</time>
      </trkpt>
      <trkpt lat="47.49118" lon="6.73376">
        <ele>419.5</ele>
        <time>2017-10-22T07:50:42.000Z</time>
      </trkpt>
      <trkpt lat="47.49116" lon="6.73375">
        <ele>419.6</ele>
        <time>2017-10-22T07:50:43.000Z</time>
      </trkpt>
      <trkpt lat="47.49113" lon="6.73373">
        <ele>419.9</ele>
        <time>2017-10-22T07:50:45.000Z</time>
      </trkpt>
      <trkpt lat="47.49112" lon="6.73373">
        <ele>419.9</ele>
        <time>2017-10-22T07:50:46.000Z</time>
      </trkpt>
      <trkpt lat="47.49108" lon="6.73371">
        <ele>420.2</ele>
        <time>2017-10-22T07:50:50.000Z</time>
      </trkpt>
      <trkpt lat="47.49106" lon="6.7337">
        <ele>420.4</ele>
        <time>2017-10-22T07:50:51.000Z</time>
      </trkpt>
      <trkpt lat="47.49103" lon="6.73368">
        <ele>420.9</ele>
        <time>2017-10-22T07:50:53.000Z</time>
      </trkpt>
      <trkpt lat="47.49101" lon="6.73367">
        <ele>421.1</ele>
        <time>2017-10-22T07:50:54.000Z</time>
      </trkpt>
      <trkpt lat="47.49099" lon="6.73364">
        <ele>421.3</ele>
        <time>2017-10-22T07:50:56.000Z</time>
      </trkpt>
      <trkpt lat="47.49097" lon="6.73362">
        <ele>421.4</ele>
        <time>2017-10-22T07:50:57.000Z</time>
      </trkpt>
      <trkpt lat="47.49095" lon="6.73359">
        <ele>421.6</ele>
        <time>2017-10-22T07:50:58.000Z</time>
      </trkpt>
      <trkpt lat="47.49091" lon="6.73351">
        <ele>421.7</ele>
        <time>2017-10-22T07:50:59.000Z</time>
      </trkpt>
      <trkpt lat="47.49093" lon="6.73346">
        <ele>422</ele>
        <time>2017-10-22T07:51:02.000Z</time>
      </trkpt>
      <trkpt lat="47.49094" lon="6.73344">
        <ele>422.1</ele>
        <time>2017-10-22T07:51:03.000Z</time>
      </trkpt>
      <trkpt lat="47.49095" lon="6.7334">
        <ele>422.3</ele>
        <time>2017-10-22T07:51:04.000Z</time>
      </trkpt>
      <trkpt lat="47.49098" lon="6.73334">
        <ele>422.3</ele>
        <time>2017-10-22T07:51:05.000Z</time>
      </trkpt>
      <trkpt lat="47.491" lon="6.73328">
        <ele>422.3</ele>
        <time>2017-10-22T07:51:06.000Z</time>
      </trkpt>
      <trkpt lat="47.49102" lon="6.73322">
        <ele>422.4</ele>
        <time>2017-10-22T07:51:08.000Z</time>
      </trkpt>
      <trkpt lat="47.49103" lon="6.73316">
        <ele>422.5</ele>
        <time>2017-10-22T07:51:09.000Z</time>
      </trkpt>
      <trkpt lat="47.49105" lon="6.73311">
        <ele>422.5</ele>
        <time>2017-10-22T07:51:10.000Z</time>
      </trkpt>
      <trkpt lat="47.49105" lon="6.73308">
        <ele>422.5</ele>
        <time>2017-10-22T07:51:11.000Z</time>
      </trkpt>
      <trkpt lat="47.49105" lon="6.73305">
        <ele>422.7</ele>
        <time>2017-10-22T07:51:12.000Z</time>
      </trkpt>
      <trkpt lat="47.49105" lon="6.73299">
        <ele>422.9</ele>
        <time>2017-10-22T07:51:13.000Z</time>
      </trkpt>
      <trkpt lat="47.49105" lon="6.73296">
        <ele>423.2</ele>
        <time>2017-10-22T07:51:14.000Z</time>
      </trkpt>
      <trkpt lat="47.49105" lon="6.7329">
        <ele>423.5</ele>
        <time>2017-10-22T07:51:15.000Z</time>
      </trkpt>
      <trkpt lat="47.49108" lon="6.73287">
        <ele>423.7</ele>
        <time>2017-10-22T07:51:16.000Z</time>
      </trkpt>
      <trkpt lat="47.4911" lon="6.73286">
        <ele>423.9</ele>
        <time>2017-10-22T07:51:17.000Z</time>
      </trkpt>
      <trkpt lat="47.49111" lon="6.73281">
        <ele>424.4</ele>
        <time>2017-10-22T07:51:19.000Z</time>
      </trkpt>
      <trkpt lat="47.49112" lon="6.73278">
        <ele>424.7</ele>
        <time>2017-10-22T07:51:20.000Z</time>
      </trkpt>
      <trkpt lat="47.49113" lon="6.73272">
        <ele>425.1</ele>
        <time>2017-10-22T07:51:21.000Z</time>
      </trkpt>
      <trkpt lat="47.49114" lon="6.73266">
        <ele>425.5</ele>
        <time>2017-10-22T07:51:23.000Z</time>
      </trkpt>
      <trkpt lat="47.49117" lon="6.73261">
        <ele>425.6</ele>
        <time>2017-10-22T07:51:24.000Z</time>
      </trkpt>
      <trkpt lat="47.49117" lon="6.7326">
        <ele>425.8</ele>
        <time>2017-10-22T07:51:25.000Z</time>
      </trkpt>
      <trkpt lat="47.49119" lon="6.73254">
        <ele>425.9</ele>
        <time>2017-10-22T07:51:26.000Z</time>
      </trkpt>
      <trkpt lat="47.49121" lon="6.7325">
        <ele>426.1</ele>
        <time>2017-10-22T07:51:28.000Z</time>
      </trkpt>
      <trkpt lat="47.49123" lon="6.73248">
        <ele>426.2</ele>
        <time>2017-10-22T07:51:29.000Z</time>
      </trkpt>
      <trkpt lat="47.49126" lon="6.73243">
        <ele>426.6</ele>
        <time>2017-10-22T07:51:31.000Z</time>
      </trkpt>
      <trkpt lat="47.49127" lon="6.7324">
        <ele>426.8</ele>
        <time>2017-10-22T07:51:32.000Z</time>
      </trkpt>
      <trkpt lat="47.4913" lon="6.73236">
        <ele>427.3</ele>
        <time>2017-10-22T07:51:34.000Z</time>
      </trkpt>
      <trkpt lat="47.49131" lon="6.73234">
        <ele>427.7</ele>
        <time>2017-10-22T07:51:35.000Z</time>
      </trkpt>
      <trkpt lat="47.49133" lon="6.73232">
        <ele>428</ele>
        <time>2017-10-22T07:51:36.000Z</time>
      </trkpt>
      <trkpt lat="47.49136" lon="6.73229">
        <ele>428.2</ele>
        <time>2017-10-22T07:51:37.000Z</time>
      </trkpt>
      <trkpt lat="47.49138" lon="6.73224">
        <ele>428.5</ele>
        <time>2017-10-22T07:51:39.000Z</time>
      </trkpt>
      <trkpt lat="47.49139" lon="6.7322">
        <ele>428.6</ele>
        <time>2017-10-22T07:51:40.000Z</time>
      </trkpt>
      <trkpt lat="47.4914" lon="6.73217">
        <ele>428.7</ele>
        <time>2017-10-22T07:51:41.000Z</time>
      </trkpt>
      <trkpt lat="47.49141" lon="6.73214">
        <ele>428.8</ele>
        <time>2017-10-22T07:51:42.000Z</time>
      </trkpt>
      <trkpt lat="47.49143" lon="6.73209">
        <ele>428.8</ele>
        <time>2017-10-22T07:51:44.000Z</time>
      </trkpt>
      <trkpt lat="47.49145" lon="6.73207">
        <ele>428.8</ele>
        <time>2017-10-22T07:51:45.000Z</time>
      </trkpt>
      <trkpt lat="47.49149" lon="6.73203">
        <ele>428.9</ele>
        <time>2017-10-22T07:51:46.000Z</time>
      </trkpt>
      <trkpt lat="47.49151" lon="6.73198">
        <ele>429</ele>
        <time>2017-10-22T07:51:48.000Z</time>
      </trkpt>
      <trkpt lat="47.49152" lon="6.73196">
        <ele>429.1</ele>
        <time>2017-10-22T07:51:49.000Z</time>
      </trkpt>
      <trkpt lat="47.49155" lon="6.73193">
        <ele>429.4</ele>
        <time>2017-10-22T07:51:51.000Z</time>
      </trkpt>
      <trkpt lat="47.49157" lon="6.73191">
        <ele>429.4</ele>
        <time>2017-10-22T07:51:52.000Z</time>
      </trkpt>
      <trkpt lat="47.49159" lon="6.73187">
        <ele>429.6</ele>
        <time>2017-10-22T07:51:53.000Z</time>
      </trkpt>
      <trkpt lat="47.49161" lon="6.73184">
        <ele>429.7</ele>
        <time>2017-10-22T07:51:54.000Z</time>
      </trkpt>
      <trkpt lat="47.49163" lon="6.73182">
        <ele>429.8</ele>
        <time>2017-10-22T07:51:55.000Z</time>
      </trkpt>
      <trkpt lat="47.49165" lon="6.73178">
        <ele>429.9</ele>
        <time>2017-10-22T07:51:56.000Z</time>
      </trkpt>
      <trkpt lat="47.49167" lon="6.73174">
        <ele>430.1</ele>
        <time>2017-10-22T07:51:58.000Z</time>
      </trkpt>
      <trkpt lat="47.49168" lon="6.73172">
        <ele>430.1</ele>
        <time>2017-10-22T07:51:59.000Z</time>
      </trkpt>
      <trkpt lat="47.49169" lon="6.73169">
        <ele>430.3</ele>
        <time>2017-10-22T07:52:00.000Z</time>
      </trkpt>
      <trkpt lat="47.4917" lon="6.73162">
        <ele>430.4</ele>
        <time>2017-10-22T07:52:01.000Z</time>
      </trkpt>
      <trkpt lat="47.4917" lon="6.73155">
        <ele>430.5</ele>
        <time>2017-10-22T07:52:02.000Z</time>
      </trkpt>
      <trkpt lat="47.49171" lon="6.73149">
        <ele>430.7</ele>
        <time>2017-10-22T07:52:03.000Z</time>
      </trkpt>
      <trkpt lat="47.49171" lon="6.73147">
        <ele>430.6</ele>
        <time>2017-10-22T07:52:04.000Z</time>
      </trkpt>
      <trkpt lat="47.49171" lon="6.73141">
        <ele>430.5</ele>
        <time>2017-10-22T07:52:05.000Z</time>
      </trkpt>
      <trkpt lat="47.49173" lon="6.7314">
        <ele>430.5</ele>
        <time>2017-10-22T07:52:06.000Z</time>
      </trkpt>
      <trkpt lat="47.49176" lon="6.73136">
        <ele>430.5</ele>
        <time>2017-10-22T07:52:07.000Z</time>
      </trkpt>
      <trkpt lat="47.49179" lon="6.73131">
        <ele>430.3</ele>
        <time>2017-10-22T07:52:10.000Z</time>
      </trkpt>
      <trkpt lat="47.4918" lon="6.73129">
        <ele>430.3</ele>
        <time>2017-10-22T07:52:11.000Z</time>
      </trkpt>
      <trkpt lat="47.49181" lon="6.73125">
        <ele>430.3</ele>
        <time>2017-10-22T07:52:12.000Z</time>
      </trkpt>
      <trkpt lat="47.49183" lon="6.73121">
        <ele>430.2</ele>
        <time>2017-10-22T07:52:13.000Z</time>
      </trkpt>
      <trkpt lat="47.49186" lon="6.73118">
        <ele>430</ele>
        <time>2017-10-22T07:52:15.000Z</time>
      </trkpt>
      <trkpt lat="47.49187" lon="6.73115">
        <ele>429.8</ele>
        <time>2017-10-22T07:52:16.000Z</time>
      </trkpt>
      <trkpt lat="47.49188" lon="6.73111">
        <ele>429.7</ele>
        <time>2017-10-22T07:52:17.000Z</time>
      </trkpt>
      <trkpt lat="47.49189" lon="6.73102">
        <ele>429.7</ele>
        <time>2017-10-22T07:52:18.000Z</time>
      </trkpt>
      <trkpt lat="47.49187" lon="6.73093">
        <ele>429.6</ele>
        <time>2017-10-22T07:52:19.000Z</time>
      </trkpt>
      <trkpt lat="47.49188" lon="6.73086">
        <ele>429.7</ele>
        <time>2017-10-22T07:52:20.000Z</time>
      </trkpt>
      <trkpt lat="47.49189" lon="6.73081">
        <ele>429.9</ele>
        <time>2017-10-22T07:52:21.000Z</time>
      </trkpt>
      <trkpt lat="47.49189" lon="6.73074">
        <ele>430.1</ele>
        <time>2017-10-22T07:52:22.000Z</time>
      </trkpt>
      <trkpt lat="47.4919" lon="6.73068">
        <ele>430.3</ele>
        <time>2017-10-22T07:52:23.000Z</time>
      </trkpt>
      <trkpt lat="47.4919" lon="6.73066">
        <ele>430.6</ele>
        <time>2017-10-22T07:52:24.000Z</time>
      </trkpt>
      <trkpt lat="47.49189" lon="6.73061">
        <ele>431.3</ele>
        <time>2017-10-22T07:52:26.000Z</time>
      </trkpt>
      <trkpt lat="47.49189" lon="6.73054">
        <ele>431.5</ele>
        <time>2017-10-22T07:52:27.000Z</time>
      </trkpt>
      <trkpt lat="47.49189" lon="6.73051">
        <ele>431.7</ele>
        <time>2017-10-22T07:52:28.000Z</time>
      </trkpt>
      <trkpt lat="47.49191" lon="6.73046">
        <ele>432</ele>
        <time>2017-10-22T07:52:29.000Z</time>
      </trkpt>
      <trkpt lat="47.49193" lon="6.73039">
        <ele>432.9</ele>
        <time>2017-10-22T07:52:32.000Z</time>
      </trkpt>
      <trkpt lat="47.49194" lon="6.73036">
        <ele>433.2</ele>
        <time>2017-10-22T07:52:33.000Z</time>
      </trkpt>
      <trkpt lat="47.49195" lon="6.73033">
        <ele>433.5</ele>
        <time>2017-10-22T07:52:34.000Z</time>
      </trkpt>
      <trkpt lat="47.49197" lon="6.73028">
        <ele>433.7</ele>
        <time>2017-10-22T07:52:35.000Z</time>
      </trkpt>
      <trkpt lat="47.49199" lon="6.73023">
        <ele>433.8</ele>
        <time>2017-10-22T07:52:39.000Z</time>
      </trkpt>
      <trkpt lat="47.49199" lon="6.73018">
        <ele>433.9</ele>
        <time>2017-10-22T07:52:40.000Z</time>
      </trkpt>
      <trkpt lat="47.49199" lon="6.7301">
        <ele>433.9</ele>
        <time>2017-10-22T07:52:41.000Z</time>
      </trkpt>
      <trkpt lat="47.49202" lon="6.73005">
        <ele>434</ele>
        <time>2017-10-22T07:52:42.000Z</time>
      </trkpt>
      <trkpt lat="47.49203" lon="6.72999">
        <ele>434.4</ele>
        <time>2017-10-22T07:52:45.000Z</time>
      </trkpt>
      <trkpt lat="47.49204" lon="6.72996">
        <ele>434.5</ele>
        <time>2017-10-22T07:52:46.000Z</time>
      </trkpt>
      <trkpt lat="47.49204" lon="6.72991">
        <ele>434.5</ele>
        <time>2017-10-22T07:52:47.000Z</time>
      </trkpt>
      <trkpt lat="47.49206" lon="6.72982">
        <ele>434.6</ele>
        <time>2017-10-22T07:52:48.000Z</time>
      </trkpt>
      <trkpt lat="47.49207" lon="6.72977">
        <ele>434.7</ele>
        <time>2017-10-22T07:52:49.000Z</time>
      </trkpt>
      <trkpt lat="47.49207" lon="6.7297">
        <ele>434.8</ele>
        <time>2017-10-22T07:52:50.000Z</time>
      </trkpt>
      <trkpt lat="47.49208" lon="6.72963">
        <ele>435</ele>
        <time>2017-10-22T07:52:51.000Z</time>
      </trkpt>
      <trkpt lat="47.49209" lon="6.72957">
        <ele>435.3</ele>
        <time>2017-10-22T07:52:52.000Z</time>
      </trkpt>
      <trkpt lat="47.49211" lon="6.72952">
        <ele>435.7</ele>
        <time>2017-10-22T07:52:53.000Z</time>
      </trkpt>
      <trkpt lat="47.49214" lon="6.72947">
        <ele>436.1</ele>
        <time>2017-10-22T07:52:54.000Z</time>
      </trkpt>
      <trkpt lat="47.49216" lon="6.72944">
        <ele>437.2</ele>
        <time>2017-10-22T07:52:57.000Z</time>
      </trkpt>
      <trkpt lat="47.49217" lon="6.72942">
        <ele>437.6</ele>
        <time>2017-10-22T07:52:58.000Z</time>
      </trkpt>
      <trkpt lat="47.49217" lon="6.72938">
        <ele>437.9</ele>
        <time>2017-10-22T07:52:59.000Z</time>
      </trkpt>
      <trkpt lat="47.49217" lon="6.72933">
        <ele>438.2</ele>
        <time>2017-10-22T07:53:00.000Z</time>
      </trkpt>
      <trkpt lat="47.49218" lon="6.72925">
        <ele>438.5</ele>
        <time>2017-10-22T07:53:01.000Z</time>
      </trkpt>
      <trkpt lat="47.49218" lon="6.7292">
        <ele>438.7</ele>
        <time>2017-10-22T07:53:02.000Z</time>
      </trkpt>
      <trkpt lat="47.49219" lon="6.72916">
        <ele>438.8</ele>
        <time>2017-10-22T07:53:03.000Z</time>
      </trkpt>
      <trkpt lat="47.49219" lon="6.7291">
        <ele>438.9</ele>
        <time>2017-10-22T07:53:04.000Z</time>
      </trkpt>
      <trkpt lat="47.4922" lon="6.72904">
        <ele>439.1</ele>
        <time>2017-10-22T07:53:05.000Z</time>
      </trkpt>
      <trkpt lat="47.49221" lon="6.72896">
        <ele>439.4</ele>
        <time>2017-10-22T07:53:06.000Z</time>
      </trkpt>
      <trkpt lat="47.49225" lon="6.7289">
        <ele>439.6</ele>
        <time>2017-10-22T07:53:07.000Z</time>
      </trkpt>
      <trkpt lat="47.49226" lon="6.72887">
        <ele>439.7</ele>
        <time>2017-10-22T07:53:08.000Z</time>
      </trkpt>
      <trkpt lat="47.49227" lon="6.72884">
        <ele>439.8</ele>
        <time>2017-10-22T07:53:09.000Z</time>
      </trkpt>
      <trkpt lat="47.4923" lon="6.72882">
        <ele>439.8</ele>
        <time>2017-10-22T07:53:10.000Z</time>
      </trkpt>
      <trkpt lat="47.49231" lon="6.72881">
        <ele>439.9</ele>
        <time>2017-10-22T07:53:11.000Z</time>
      </trkpt>
      <trkpt lat="47.49233" lon="6.72878">
        <ele>439.9</ele>
        <time>2017-10-22T07:53:12.000Z</time>
      </trkpt>
      <trkpt lat="47.49236" lon="6.72876">
        <ele>439.9</ele>
        <time>2017-10-22T07:53:13.000Z</time>
      </trkpt>
      <trkpt lat="47.49238" lon="6.72872">
        <ele>439.9</ele>
        <time>2017-10-22T07:53:14.000Z</time>
      </trkpt>
      <trkpt lat="47.49241" lon="6.72868">
        <ele>439.9</ele>
        <time>2017-10-22T07:53:15.000Z</time>
      </trkpt>
      <trkpt lat="47.49244" lon="6.72862">
        <ele>440.3</ele>
        <time>2017-10-22T07:53:16.000Z</time>
      </trkpt>
      <trkpt lat="47.49247" lon="6.72854">
        <ele>440.2</ele>
        <time>2017-10-22T07:53:17.000Z</time>
      </trkpt>
      <trkpt lat="47.49248" lon="6.72849">
        <ele>440</ele>
        <time>2017-10-22T07:53:18.000Z</time>
      </trkpt>
      <trkpt lat="47.49249" lon="6.72845">
        <ele>439.8</ele>
        <time>2017-10-22T07:53:19.000Z</time>
      </trkpt>
      <trkpt lat="47.49253" lon="6.72839">
        <ele>439.7</ele>
        <time>2017-10-22T07:53:20.000Z</time>
      </trkpt>
      <trkpt lat="47.49255" lon="6.72835">
        <ele>439.5</ele>
        <time>2017-10-22T07:53:21.000Z</time>
      </trkpt>
      <trkpt lat="47.49257" lon="6.72831">
        <ele>439.5</ele>
        <time>2017-10-22T07:53:22.000Z</time>
      </trkpt>
      <trkpt lat="47.49258" lon="6.72825">
        <ele>439.4</ele>
        <time>2017-10-22T07:53:23.000Z</time>
      </trkpt>
      <trkpt lat="47.4926" lon="6.72822">
        <ele>439.3</ele>
        <time>2017-10-22T07:53:24.000Z</time>
      </trkpt>
      <trkpt lat="47.49263" lon="6.72818">
        <ele>439.2</ele>
        <time>2017-10-22T07:53:25.000Z</time>
      </trkpt>
      <trkpt lat="47.49266" lon="6.72815">
        <ele>439.2</ele>
        <time>2017-10-22T07:53:26.000Z</time>
      </trkpt>
      <trkpt lat="47.4927" lon="6.72813">
        <ele>439.2</ele>
        <time>2017-10-22T07:53:27.000Z</time>
      </trkpt>
      <trkpt lat="47.49273" lon="6.72807">
        <ele>439.3</ele>
        <time>2017-10-22T07:53:28.000Z</time>
      </trkpt>
      <trkpt lat="47.49276" lon="6.72804">
        <ele>439.6</ele>
        <time>2017-10-22T07:53:30.000Z</time>
      </trkpt>
      <trkpt lat="47.49277" lon="6.72802">
        <ele>440</ele>
        <time>2017-10-22T07:53:31.000Z</time>
      </trkpt>
      <trkpt lat="47.4928" lon="6.72797">
        <ele>440.6</ele>
        <time>2017-10-22T07:53:33.000Z</time>
      </trkpt>
      <trkpt lat="47.49281" lon="6.72794">
        <ele>441</ele>
        <time>2017-10-22T07:53:34.000Z</time>
      </trkpt>
      <trkpt lat="47.49283" lon="6.72791">
        <ele>441.2</ele>
        <time>2017-10-22T07:53:35.000Z</time>
      </trkpt>
      <trkpt lat="47.49284" lon="6.72788">
        <ele>441.6</ele>
        <time>2017-10-22T07:53:36.000Z</time>
      </trkpt>
      <trkpt lat="47.49287" lon="6.72783">
        <ele>442.1</ele>
        <time>2017-10-22T07:53:38.000Z</time>
      </trkpt>
      <trkpt lat="47.49288" lon="6.7278">
        <ele>442.4</ele>
        <time>2017-10-22T07:53:39.000Z</time>
      </trkpt>
      <trkpt lat="47.4929" lon="6.72775">
        <ele>442.8</ele>
        <time>2017-10-22T07:53:41.000Z</time>
      </trkpt>
      <trkpt lat="47.49291" lon="6.72772">
        <ele>443</ele>
        <time>2017-10-22T07:53:42.000Z</time>
      </trkpt>
      <trkpt lat="47.49293" lon="6.72766">
        <ele>443.1</ele>
        <time>2017-10-22T07:53:43.000Z</time>
      </trkpt>
      <trkpt lat="47.49295" lon="6.72761">
        <ele>443.2</ele>
        <time>2017-10-22T07:53:44.000Z</time>
      </trkpt>
      <trkpt lat="47.49296" lon="6.72757">
        <ele>443.3</ele>
        <time>2017-10-22T07:53:45.000Z</time>
      </trkpt>
      <trkpt lat="47.49298" lon="6.72753">
        <ele>443.7</ele>
        <time>2017-10-22T07:53:47.000Z</time>
      </trkpt>
      <trkpt lat="47.49299" lon="6.72747">
        <ele>443.8</ele>
        <time>2017-10-22T07:53:48.000Z</time>
      </trkpt>
      <trkpt lat="47.49301" lon="6.72741">
        <ele>444.3</ele>
        <time>2017-10-22T07:53:50.000Z</time>
      </trkpt>
      <trkpt lat="47.49302" lon="6.72738">
        <ele>444.5</ele>
        <time>2017-10-22T07:53:51.000Z</time>
      </trkpt>
      <trkpt lat="47.49303" lon="6.72734">
        <ele>444.9</ele>
        <time>2017-10-22T07:53:53.000Z</time>
      </trkpt>
      <trkpt lat="47.49304" lon="6.72732">
        <ele>445.1</ele>
        <time>2017-10-22T07:53:54.000Z</time>
      </trkpt>
      <trkpt lat="47.49305" lon="6.72728">
        <ele>445.3</ele>
        <time>2017-10-22T07:53:56.000Z</time>
      </trkpt>
      <trkpt lat="47.49306" lon="6.72726">
        <ele>445.4</ele>
        <time>2017-10-22T07:53:57.000Z</time>
      </trkpt>
      <trkpt lat="47.49307" lon="6.7272">
        <ele>445.5</ele>
        <time>2017-10-22T07:53:59.000Z</time>
      </trkpt>
      <trkpt lat="47.49307" lon="6.72717">
        <ele>445.5</ele>
        <time>2017-10-22T07:54:00.000Z</time>
      </trkpt>
      <trkpt lat="47.49308" lon="6.72714">
        <ele>445.6</ele>
        <time>2017-10-22T07:54:01.000Z</time>
      </trkpt>
      <trkpt lat="47.4931" lon="6.72708">
        <ele>445.5</ele>
        <time>2017-10-22T07:54:02.000Z</time>
      </trkpt>
      <trkpt lat="47.49312" lon="6.72707">
        <ele>445.5</ele>
        <time>2017-10-22T07:54:03.000Z</time>
      </trkpt>
      <trkpt lat="47.49315" lon="6.72706">
        <ele>445.5</ele>
        <time>2017-10-22T07:54:04.000Z</time>
      </trkpt>
      <trkpt lat="47.49317" lon="6.72703">
        <ele>445.6</ele>
        <time>2017-10-22T07:54:05.000Z</time>
      </trkpt>
      <trkpt lat="47.49319" lon="6.727">
        <ele>445.7</ele>
        <time>2017-10-22T07:54:06.000Z</time>
      </trkpt>
      <trkpt lat="47.49319" lon="6.72696">
        <ele>445.8</ele>
        <time>2017-10-22T07:54:07.000Z</time>
      </trkpt>
      <trkpt lat="47.4932" lon="6.72693">
        <ele>445.7</ele>
        <time>2017-10-22T07:54:08.000Z</time>
      </trkpt>
      <trkpt lat="47.49321" lon="6.72689">
        <ele>445.6</ele>
        <time>2017-10-22T07:54:09.000Z</time>
      </trkpt>
      <trkpt lat="47.49321" lon="6.72686">
        <ele>445.6</ele>
        <time>2017-10-22T07:54:10.000Z</time>
      </trkpt>
      <trkpt lat="47.49321" lon="6.72681">
        <ele>445.6</ele>
        <time>2017-10-22T07:54:11.000Z</time>
      </trkpt>
      <trkpt lat="47.49321" lon="6.72675">
        <ele>445.5</ele>
        <time>2017-10-22T07:54:12.000Z</time>
      </trkpt>
      <trkpt lat="47.4932" lon="6.72667">
        <ele>445.3</ele>
        <time>2017-10-22T07:54:13.000Z</time>
      </trkpt>
      <trkpt lat="47.49319" lon="6.72664">
        <ele>445.2</ele>
        <time>2017-10-22T07:54:14.000Z</time>
      </trkpt>
      <trkpt lat="47.49319" lon="6.7266">
        <ele>445.2</ele>
        <time>2017-10-22T07:54:15.000Z</time>
      </trkpt>
      <trkpt lat="47.4932" lon="6.72656">
        <ele>445.1</ele>
        <time>2017-10-22T07:54:16.000Z</time>
      </trkpt>
      <trkpt lat="47.49319" lon="6.72652">
        <ele>445</ele>
        <time>2017-10-22T07:54:17.000Z</time>
      </trkpt>
      <trkpt lat="47.49318" lon="6.72648">
        <ele>444.9</ele>
        <time>2017-10-22T07:54:18.000Z</time>
      </trkpt>
      <trkpt lat="47.49318" lon="6.72645">
        <ele>444.8</ele>
        <time>2017-10-22T07:54:19.000Z</time>
      </trkpt>
      <trkpt lat="47.49318" lon="6.72641">
        <ele>444.7</ele>
        <time>2017-10-22T07:54:20.000Z</time>
      </trkpt>
      <trkpt lat="47.49319" lon="6.72638">
        <ele>444.6</ele>
        <time>2017-10-22T07:54:21.000Z</time>
      </trkpt>
      <trkpt lat="47.49319" lon="6.72631">
        <ele>444.5</ele>
        <time>2017-10-22T07:54:23.000Z</time>
      </trkpt>
      <trkpt lat="47.49319" lon="6.72628">
        <ele>444.4</ele>
        <time>2017-10-22T07:54:24.000Z</time>
      </trkpt>
      <trkpt lat="47.49319" lon="6.72626">
        <ele>444.1</ele>
        <time>2017-10-22T07:54:26.000Z</time>
      </trkpt>
      <trkpt lat="47.49321" lon="6.7262">
        <ele>444</ele>
        <time>2017-10-22T07:54:27.000Z</time>
      </trkpt>
      <trkpt lat="47.49322" lon="6.72616">
        <ele>443.6</ele>
        <time>2017-10-22T07:54:29.000Z</time>
      </trkpt>
      <trkpt lat="47.49323" lon="6.72613">
        <ele>443.5</ele>
        <time>2017-10-22T07:54:30.000Z</time>
      </trkpt>
      <trkpt lat="47.49324" lon="6.72609">
        <ele>443.3</ele>
        <time>2017-10-22T07:54:31.000Z</time>
      </trkpt>
      <trkpt lat="47.49324" lon="6.72604">
        <ele>443.3</ele>
        <time>2017-10-22T07:54:32.000Z</time>
      </trkpt>
      <trkpt lat="47.49322" lon="6.72599">
        <ele>443.3</ele>
        <time>2017-10-22T07:54:33.000Z</time>
      </trkpt>
      <trkpt lat="47.49321" lon="6.72594">
        <ele>443.4</ele>
        <time>2017-10-22T07:54:34.000Z</time>
      </trkpt>
      <trkpt lat="47.4932" lon="6.72588">
        <ele>443.6</ele>
        <time>2017-10-22T07:54:35.000Z</time>
      </trkpt>
      <trkpt lat="47.4932" lon="6.72582">
        <ele>443.6</ele>
        <time>2017-10-22T07:54:36.000Z</time>
      </trkpt>
      <trkpt lat="47.4932" lon="6.72577">
        <ele>443.8</ele>
        <time>2017-10-22T07:54:37.000Z</time>
      </trkpt>
      <trkpt lat="47.49321" lon="6.72573">
        <ele>444</ele>
        <time>2017-10-22T07:54:38.000Z</time>
      </trkpt>
      <trkpt lat="47.49321" lon="6.72568">
        <ele>444.2</ele>
        <time>2017-10-22T07:54:39.000Z</time>
      </trkpt>
      <trkpt lat="47.49323" lon="6.72565">
        <ele>444.4</ele>
        <time>2017-10-22T07:54:40.000Z</time>
      </trkpt>
      <trkpt lat="47.49326" lon="6.72558">
        <ele>444.5</ele>
        <time>2017-10-22T07:54:41.000Z</time>
      </trkpt>
      <trkpt lat="47.49327" lon="6.72555">
        <ele>444.7</ele>
        <time>2017-10-22T07:54:43.000Z</time>
      </trkpt>
      <trkpt lat="47.49328" lon="6.72551">
        <ele>444.7</ele>
        <time>2017-10-22T07:54:44.000Z</time>
      </trkpt>
      <trkpt lat="47.49328" lon="6.72547">
        <ele>444.7</ele>
        <time>2017-10-22T07:54:45.000Z</time>
      </trkpt>
      <trkpt lat="47.49329" lon="6.72543">
        <ele>444.8</ele>
        <time>2017-10-22T07:54:46.000Z</time>
      </trkpt>
      <trkpt lat="47.4933" lon="6.7254">
        <ele>444.9</ele>
        <time>2017-10-22T07:54:47.000Z</time>
      </trkpt>
      <trkpt lat="47.4933" lon="6.72536">
        <ele>445.1</ele>
        <time>2017-10-22T07:54:48.000Z</time>
      </trkpt>
      <trkpt lat="47.49331" lon="6.72532">
        <ele>445.3</ele>
        <time>2017-10-22T07:54:49.000Z</time>
      </trkpt>
      <trkpt lat="47.49331" lon="6.72527">
        <ele>445.6</ele>
        <time>2017-10-22T07:54:50.000Z</time>
      </trkpt>
      <trkpt lat="47.49332" lon="6.72523">
        <ele>445.9</ele>
        <time>2017-10-22T07:54:51.000Z</time>
      </trkpt>
      <trkpt lat="47.49332" lon="6.72518">
        <ele>446.2</ele>
        <time>2017-10-22T07:54:52.000Z</time>
      </trkpt>
      <trkpt lat="47.49332" lon="6.72513">
        <ele>446.9</ele>
        <time>2017-10-22T07:54:54.000Z</time>
      </trkpt>
      <trkpt lat="47.49332" lon="6.7251">
        <ele>447.2</ele>
        <time>2017-10-22T07:54:55.000Z</time>
      </trkpt>
      <trkpt lat="47.49332" lon="6.72504">
        <ele>448.1</ele>
        <time>2017-10-22T07:54:57.000Z</time>
      </trkpt>
      <trkpt lat="47.49332" lon="6.72501">
        <ele>448.4</ele>
        <time>2017-10-22T07:54:58.000Z</time>
      </trkpt>
      <trkpt lat="47.49332" lon="6.72497">
        <ele>448.8</ele>
        <time>2017-10-22T07:54:59.000Z</time>
      </trkpt>
      <trkpt lat="47.49333" lon="6.72494">
        <ele>449.1</ele>
        <time>2017-10-22T07:55:00.000Z</time>
      </trkpt>
      <trkpt lat="47.49333" lon="6.7249">
        <ele>449.4</ele>
        <time>2017-10-22T07:55:01.000Z</time>
      </trkpt>
      <trkpt lat="47.49333" lon="6.72486">
        <ele>449.7</ele>
        <time>2017-10-22T07:55:02.000Z</time>
      </trkpt>
      <trkpt lat="47.49334" lon="6.72484">
        <ele>450.1</ele>
        <time>2017-10-22T07:55:03.000Z</time>
      </trkpt>
      <trkpt lat="47.49335" lon="6.72481">
        <ele>450.4</ele>
        <time>2017-10-22T07:55:04.000Z</time>
      </trkpt>
      <trkpt lat="47.49336" lon="6.72477">
        <ele>451.1</ele>
        <time>2017-10-22T07:55:06.000Z</time>
      </trkpt>
      <trkpt lat="47.49336" lon="6.72474">
        <ele>451.3</ele>
        <time>2017-10-22T07:55:07.000Z</time>
      </trkpt>
      <trkpt lat="47.49337" lon="6.72468">
        <ele>451.7</ele>
        <time>2017-10-22T07:55:09.000Z</time>
      </trkpt>
      <trkpt lat="47.49337" lon="6.72465">
        <ele>452</ele>
        <time>2017-10-22T07:55:10.000Z</time>
      </trkpt>
      <trkpt lat="47.49338" lon="6.72462">
        <ele>452.3</ele>
        <time>2017-10-22T07:55:11.000Z</time>
      </trkpt>
      <trkpt lat="47.49339" lon="6.72458">
        <ele>452.7</ele>
        <time>2017-10-22T07:55:12.000Z</time>
      </trkpt>
      <trkpt lat="47.4934" lon="6.72455">
        <ele>453.1</ele>
        <time>2017-10-22T07:55:13.000Z</time>
      </trkpt>
      <trkpt lat="47.4934" lon="6.72451">
        <ele>453.5</ele>
        <time>2017-10-22T07:55:14.000Z</time>
      </trkpt>
      <trkpt lat="47.4934" lon="6.72448">
        <ele>453.9</ele>
        <time>2017-10-22T07:55:15.000Z</time>
      </trkpt>
      <trkpt lat="47.4934" lon="6.72444">
        <ele>454.2</ele>
        <time>2017-10-22T07:55:16.000Z</time>
      </trkpt>
      <trkpt lat="47.4934" lon="6.72441">
        <ele>454.6</ele>
        <time>2017-10-22T07:55:17.000Z</time>
      </trkpt>
      <trkpt lat="47.49338" lon="6.72437">
        <ele>454.9</ele>
        <time>2017-10-22T07:55:18.000Z</time>
      </trkpt>
      <trkpt lat="47.49338" lon="6.72432">
        <ele>455.9</ele>
        <time>2017-10-22T07:55:21.000Z</time>
      </trkpt>
      <trkpt lat="47.49336" lon="6.72429">
        <ele>456.1</ele>
        <time>2017-10-22T07:55:22.000Z</time>
      </trkpt>
      <trkpt lat="47.49332" lon="6.7243">
        <ele>456.5</ele>
        <time>2017-10-22T07:55:25.000Z</time>
      </trkpt>
      <trkpt lat="47.4933" lon="6.72428">
        <ele>456.7</ele>
        <time>2017-10-22T07:55:26.000Z</time>
      </trkpt>
      <trkpt lat="47.49329" lon="6.72422">
        <ele>456.8</ele>
        <time>2017-10-22T07:55:28.000Z</time>
      </trkpt>
      <trkpt lat="47.49329" lon="6.72417">
        <ele>456.8</ele>
        <time>2017-10-22T07:55:29.000Z</time>
      </trkpt>
      <trkpt lat="47.4933" lon="6.72412">
        <ele>456.8</ele>
        <time>2017-10-22T07:55:30.000Z</time>
      </trkpt>
      <trkpt lat="47.49329" lon="6.72409">
        <ele>456.9</ele>
        <time>2017-10-22T07:55:31.000Z</time>
      </trkpt>
      <trkpt lat="47.49329" lon="6.72403">
        <ele>456.7</ele>
        <time>2017-10-22T07:55:33.000Z</time>
      </trkpt>
      <trkpt lat="47.49329" lon="6.72398">
        <ele>456.7</ele>
        <time>2017-10-22T07:55:34.000Z</time>
      </trkpt>
      <trkpt lat="47.49329" lon="6.72392">
        <ele>456.5</ele>
        <time>2017-10-22T07:55:36.000Z</time>
      </trkpt>
      <trkpt lat="47.4933" lon="6.72389">
        <ele>456.4</ele>
        <time>2017-10-22T07:55:37.000Z</time>
      </trkpt>
      <trkpt lat="47.49331" lon="6.72384">
        <ele>456</ele>
        <time>2017-10-22T07:55:41.000Z</time>
      </trkpt>
      <trkpt lat="47.49332" lon="6.72382">
        <ele>455.9</ele>
        <time>2017-10-22T07:55:42.000Z</time>
      </trkpt>
      <trkpt lat="47.49334" lon="6.72377">
        <ele>455.7</ele>
        <time>2017-10-22T07:55:44.000Z</time>
      </trkpt>
      <trkpt lat="47.49334" lon="6.72374">
        <ele>455.6</ele>
        <time>2017-10-22T07:55:45.000Z</time>
      </trkpt>
      <trkpt lat="47.49335" lon="6.72372">
        <ele>455.5</ele>
        <time>2017-10-22T07:55:46.000Z</time>
      </trkpt>
      <trkpt lat="47.49337" lon="6.72365">
        <ele>455.3</ele>
        <time>2017-10-22T07:55:47.000Z</time>
      </trkpt>
      <trkpt lat="47.49337" lon="6.72361">
        <ele>455.1</ele>
        <time>2017-10-22T07:55:48.000Z</time>
      </trkpt>
      <trkpt lat="47.49335" lon="6.72353">
        <ele>454.9</ele>
        <time>2017-10-22T07:55:49.000Z</time>
      </trkpt>
      <trkpt lat="47.49336" lon="6.72347">
        <ele>454.3</ele>
        <time>2017-10-22T07:55:51.000Z</time>
      </trkpt>
      <trkpt lat="47.4934" lon="6.72341">
        <ele>454.1</ele>
        <time>2017-10-22T07:55:52.000Z</time>
      </trkpt>
      <trkpt lat="47.4934" lon="6.72337">
        <ele>453.9</ele>
        <time>2017-10-22T07:55:53.000Z</time>
      </trkpt>
      <trkpt lat="47.4934" lon="6.72333">
        <ele>453.8</ele>
        <time>2017-10-22T07:55:54.000Z</time>
      </trkpt>
      <trkpt lat="47.49341" lon="6.72328">
        <ele>453.6</ele>
        <time>2017-10-22T07:55:56.000Z</time>
      </trkpt>
      <trkpt lat="47.49342" lon="6.72324">
        <ele>453.6</ele>
        <time>2017-10-22T07:55:57.000Z</time>
      </trkpt>
      <trkpt lat="47.4934" lon="6.72318">
        <ele>453.6</ele>
        <time>2017-10-22T07:55:58.000Z</time>
      </trkpt>
      <trkpt lat="47.49339" lon="6.72313">
        <ele>453.7</ele>
        <time>2017-10-22T07:55:59.000Z</time>
      </trkpt>
      <trkpt lat="47.4934" lon="6.72307">
        <ele>453.9</ele>
        <time>2017-10-22T07:56:00.000Z</time>
      </trkpt>
      <trkpt lat="47.4934" lon="6.72305">
        <ele>454</ele>
        <time>2017-10-22T07:56:01.000Z</time>
      </trkpt>
      <trkpt lat="47.4934" lon="6.723">
        <ele>454.2</ele>
        <time>2017-10-22T07:56:03.000Z</time>
      </trkpt>
      <trkpt lat="47.4934" lon="6.72297">
        <ele>454.3</ele>
        <time>2017-10-22T07:56:04.000Z</time>
      </trkpt>
      <trkpt lat="47.4934" lon="6.72291">
        <ele>454.5</ele>
        <time>2017-10-22T07:56:06.000Z</time>
      </trkpt>
      <trkpt lat="47.4934" lon="6.7229">
        <ele>454.5</ele>
        <time>2017-10-22T07:56:07.000Z</time>
      </trkpt>
      <trkpt lat="47.49343" lon="6.72286">
        <ele>454.4</ele>
        <time>2017-10-22T07:56:08.000Z</time>
      </trkpt>
      <trkpt lat="47.49346" lon="6.72281">
        <ele>454.5</ele>
        <time>2017-10-22T07:56:09.000Z</time>
      </trkpt>
      <trkpt lat="47.49348" lon="6.72278">
        <ele>454.5</ele>
        <time>2017-10-22T07:56:10.000Z</time>
      </trkpt>
      <trkpt lat="47.4935" lon="6.72272">
        <ele>454.5</ele>
        <time>2017-10-22T07:56:11.000Z</time>
      </trkpt>
      <trkpt lat="47.4935" lon="6.72269">
        <ele>454.5</ele>
        <time>2017-10-22T07:56:12.000Z</time>
      </trkpt>
      <trkpt lat="47.4935" lon="6.72265">
        <ele>454.6</ele>
        <time>2017-10-22T07:56:13.000Z</time>
      </trkpt>
      <trkpt lat="47.49351" lon="6.72259">
        <ele>454.9</ele>
        <time>2017-10-22T07:56:15.000Z</time>
      </trkpt>
      <trkpt lat="47.49351" lon="6.72257">
        <ele>455</ele>
        <time>2017-10-22T07:56:16.000Z</time>
      </trkpt>
      <trkpt lat="47.49352" lon="6.72252">
        <ele>455.1</ele>
        <time>2017-10-22T07:56:18.000Z</time>
      </trkpt>
      <trkpt lat="47.49353" lon="6.7225">
        <ele>455.3</ele>
        <time>2017-10-22T07:56:19.000Z</time>
      </trkpt>
      <trkpt lat="47.49354" lon="6.72247">
        <ele>455.4</ele>
        <time>2017-10-22T07:56:20.000Z</time>
      </trkpt>
      <trkpt lat="47.49355" lon="6.72244">
        <ele>455.5</ele>
        <time>2017-10-22T07:56:21.000Z</time>
      </trkpt>
      <trkpt lat="47.49355" lon="6.7224">
        <ele>455.7</ele>
        <time>2017-10-22T07:56:22.000Z</time>
      </trkpt>
      <trkpt lat="47.49356" lon="6.72237">
        <ele>455.9</ele>
        <time>2017-10-22T07:56:23.000Z</time>
      </trkpt>
      <trkpt lat="47.49356" lon="6.72233">
        <ele>456.2</ele>
        <time>2017-10-22T07:56:24.000Z</time>
      </trkpt>
      <trkpt lat="47.49356" lon="6.7223">
        <ele>456.5</ele>
        <time>2017-10-22T07:56:25.000Z</time>
      </trkpt>
      <trkpt lat="47.49357" lon="6.72226">
        <ele>456.8</ele>
        <time>2017-10-22T07:56:26.000Z</time>
      </trkpt>
      <trkpt lat="47.49357" lon="6.72222">
        <ele>457.1</ele>
        <time>2017-10-22T07:56:27.000Z</time>
      </trkpt>
      <trkpt lat="47.49357" lon="6.72219">
        <ele>457.4</ele>
        <time>2017-10-22T07:56:28.000Z</time>
      </trkpt>
      <trkpt lat="47.49357" lon="6.72214">
        <ele>457.8</ele>
        <time>2017-10-22T07:56:29.000Z</time>
      </trkpt>
      <trkpt lat="47.49358" lon="6.7221">
        <ele>458.1</ele>
        <time>2017-10-22T07:56:30.000Z</time>
      </trkpt>
      <trkpt lat="47.49358" lon="6.72206">
        <ele>458.3</ele>
        <time>2017-10-22T07:56:31.000Z</time>
      </trkpt>
      <trkpt lat="47.4936" lon="6.722">
        <ele>458.6</ele>
        <time>2017-10-22T07:56:33.000Z</time>
      </trkpt>
      <trkpt lat="47.49361" lon="6.72198">
        <ele>458.7</ele>
        <time>2017-10-22T07:56:34.000Z</time>
      </trkpt>
      <trkpt lat="47.49362" lon="6.72196">
        <ele>458.8</ele>
        <time>2017-10-22T07:56:35.000Z</time>
      </trkpt>
      <trkpt lat="47.49363" lon="6.72192">
        <ele>459</ele>
        <time>2017-10-22T07:56:36.000Z</time>
      </trkpt>
      <trkpt lat="47.49364" lon="6.72186">
        <ele>459.4</ele>
        <time>2017-10-22T07:56:38.000Z</time>
      </trkpt>
      <trkpt lat="47.49366" lon="6.72182">
        <ele>459.7</ele>
        <time>2017-10-22T07:56:39.000Z</time>
      </trkpt>
      <trkpt lat="47.49367" lon="6.72178">
        <ele>460.1</ele>
        <time>2017-10-22T07:56:40.000Z</time>
      </trkpt>
      <trkpt lat="47.49367" lon="6.72174">
        <ele>460.3</ele>
        <time>2017-10-22T07:56:41.000Z</time>
      </trkpt>
      <trkpt lat="47.49367" lon="6.7217">
        <ele>460.6</ele>
        <time>2017-10-22T07:56:43.000Z</time>
      </trkpt>
      <trkpt lat="47.49366" lon="6.72167">
        <ele>460.6</ele>
        <time>2017-10-22T07:56:44.000Z</time>
      </trkpt>
      <trkpt lat="47.49367" lon="6.72163">
        <ele>460.6</ele>
        <time>2017-10-22T07:56:45.000Z</time>
      </trkpt>
      <trkpt lat="47.49366" lon="6.72158">
        <ele>460.6</ele>
        <time>2017-10-22T07:56:46.000Z</time>
      </trkpt>
      <trkpt lat="47.49366" lon="6.72154">
        <ele>460.6</ele>
        <time>2017-10-22T07:56:47.000Z</time>
      </trkpt>
      <trkpt lat="47.49366" lon="6.72149">
        <ele>460.6</ele>
        <time>2017-10-22T07:56:48.000Z</time>
      </trkpt>
      <trkpt lat="47.49367" lon="6.72145">
        <ele>460.7</ele>
        <time>2017-10-22T07:56:49.000Z</time>
      </trkpt>
      <trkpt lat="47.49368" lon="6.72141">
        <ele>460.9</ele>
        <time>2017-10-22T07:56:50.000Z</time>
      </trkpt>
      <trkpt lat="47.49369" lon="6.72137">
        <ele>461</ele>
        <time>2017-10-22T07:56:51.000Z</time>
      </trkpt>
      <trkpt lat="47.49369" lon="6.72133">
        <ele>461.2</ele>
        <time>2017-10-22T07:56:52.000Z</time>
      </trkpt>
      <trkpt lat="47.4937" lon="6.72129">
        <ele>461.5</ele>
        <time>2017-10-22T07:56:53.000Z</time>
      </trkpt>
      <trkpt lat="47.4937" lon="6.72126">
        <ele>461.7</ele>
        <time>2017-10-22T07:56:54.000Z</time>
      </trkpt>
      <trkpt lat="47.49371" lon="6.72122">
        <ele>461.9</ele>
        <time>2017-10-22T07:56:55.000Z</time>
      </trkpt>
      <trkpt lat="47.49372" lon="6.72117">
        <ele>462</ele>
        <time>2017-10-22T07:56:56.000Z</time>
      </trkpt>
      <trkpt lat="47.49373" lon="6.72112">
        <ele>462</ele>
        <time>2017-10-22T07:56:57.000Z</time>
      </trkpt>
      <trkpt lat="47.49373" lon="6.72107">
        <ele>462</ele>
        <time>2017-10-22T07:56:58.000Z</time>
      </trkpt>
      <trkpt lat="47.49373" lon="6.72103">
        <ele>461.9</ele>
        <time>2017-10-22T07:56:59.000Z</time>
      </trkpt>
      <trkpt lat="47.49374" lon="6.72099">
        <ele>462</ele>
        <time>2017-10-22T07:57:00.000Z</time>
      </trkpt>
      <trkpt lat="47.49374" lon="6.72093">
        <ele>462.2</ele>
        <time>2017-10-22T07:57:02.000Z</time>
      </trkpt>
      <trkpt lat="47.49375" lon="6.7209">
        <ele>462.5</ele>
        <time>2017-10-22T07:57:03.000Z</time>
      </trkpt>
      <trkpt lat="47.49375" lon="6.72086">
        <ele>462.7</ele>
        <time>2017-10-22T07:57:04.000Z</time>
      </trkpt>
      <trkpt lat="47.49375" lon="6.72083">
        <ele>462.9</ele>
        <time>2017-10-22T07:57:05.000Z</time>
      </trkpt>
      <trkpt lat="47.49375" lon="6.72079">
        <ele>463.1</ele>
        <time>2017-10-22T07:57:06.000Z</time>
      </trkpt>
      <trkpt lat="47.49375" lon="6.72076">
        <ele>463.4</ele>
        <time>2017-10-22T07:57:07.000Z</time>
      </trkpt>
      <trkpt lat="47.49374" lon="6.72071">
        <ele>463.6</ele>
        <time>2017-10-22T07:57:08.000Z</time>
      </trkpt>
      <trkpt lat="47.49374" lon="6.72067">
        <ele>463.8</ele>
        <time>2017-10-22T07:57:09.000Z</time>
      </trkpt>
      <trkpt lat="47.49374" lon="6.72064">
        <ele>463.9</ele>
        <time>2017-10-22T07:57:10.000Z</time>
      </trkpt>
      <trkpt lat="47.49375" lon="6.7206">
        <ele>464.2</ele>
        <time>2017-10-22T07:57:11.000Z</time>
      </trkpt>
      <trkpt lat="47.49375" lon="6.72055">
        <ele>464.7</ele>
        <time>2017-10-22T07:57:13.000Z</time>
      </trkpt>
      <trkpt lat="47.49376" lon="6.72053">
        <ele>465</ele>
        <time>2017-10-22T07:57:14.000Z</time>
      </trkpt>
      <trkpt lat="47.49378" lon="6.72048">
        <ele>465.7</ele>
        <time>2017-10-22T07:57:16.000Z</time>
      </trkpt>
      <trkpt lat="47.49378" lon="6.72045">
        <ele>466.1</ele>
        <time>2017-10-22T07:57:17.000Z</time>
      </trkpt>
      <trkpt lat="47.49381" lon="6.72042">
        <ele>467</ele>
        <time>2017-10-22T07:57:19.000Z</time>
      </trkpt>
      <trkpt lat="47.49382" lon="6.72041">
        <ele>467.5</ele>
        <time>2017-10-22T07:57:20.000Z</time>
      </trkpt>
      <trkpt lat="47.49384" lon="6.72036">
        <ele>468.4</ele>
        <time>2017-10-22T07:57:22.000Z</time>
      </trkpt>
      <trkpt lat="47.49385" lon="6.72033">
        <ele>468.8</ele>
        <time>2017-10-22T07:57:23.000Z</time>
      </trkpt>
      <trkpt lat="47.49386" lon="6.72027">
        <ele>469.4</ele>
        <time>2017-10-22T07:57:25.000Z</time>
      </trkpt>
      <trkpt lat="47.49386" lon="6.72025">
        <ele>469.8</ele>
        <time>2017-10-22T07:57:26.000Z</time>
      </trkpt>
      <trkpt lat="47.49388" lon="6.7202">
        <ele>470.6</ele>
        <time>2017-10-22T07:57:28.000Z</time>
      </trkpt>
      <trkpt lat="47.49388" lon="6.72018">
        <ele>470.9</ele>
        <time>2017-10-22T07:57:29.000Z</time>
      </trkpt>
      <trkpt lat="47.49389" lon="6.72012">
        <ele>471.6</ele>
        <time>2017-10-22T07:57:32.000Z</time>
      </trkpt>
      <trkpt lat="47.49389" lon="6.72009">
        <ele>471.8</ele>
        <time>2017-10-22T07:57:33.000Z</time>
      </trkpt>
      <trkpt lat="47.49391" lon="6.72005">
        <ele>472.4</ele>
        <time>2017-10-22T07:57:37.000Z</time>
      </trkpt>
      <trkpt lat="47.4939" lon="6.72002">
        <ele>472.6</ele>
        <time>2017-10-22T07:57:38.000Z</time>
      </trkpt>
      <trkpt lat="47.49389" lon="6.71996">
        <ele>473.1</ele>
        <time>2017-10-22T07:57:40.000Z</time>
      </trkpt>
      <trkpt lat="47.49389" lon="6.71993">
        <ele>473.3</ele>
        <time>2017-10-22T07:57:41.000Z</time>
      </trkpt>
      <trkpt lat="47.49391" lon="6.71988">
        <ele>473.5</ele>
        <time>2017-10-22T07:57:42.000Z</time>
      </trkpt>
      <trkpt lat="47.49392" lon="6.71983">
        <ele>473.6</ele>
        <time>2017-10-22T07:57:43.000Z</time>
      </trkpt>
      <trkpt lat="47.49393" lon="6.71977">
        <ele>474</ele>
        <time>2017-10-22T07:57:45.000Z</time>
      </trkpt>
      <trkpt lat="47.49394" lon="6.71974">
        <ele>474.2</ele>
        <time>2017-10-22T07:57:46.000Z</time>
      </trkpt>
      <trkpt lat="47.49394" lon="6.71967">
        <ele>474.5</ele>
        <time>2017-10-22T07:57:50.000Z</time>
      </trkpt>
      <trkpt lat="47.49393" lon="6.71963">
        <ele>474.5</ele>
        <time>2017-10-22T07:57:51.000Z</time>
      </trkpt>
      <trkpt lat="47.49393" lon="6.71958">
        <ele>474.5</ele>
        <time>2017-10-22T07:57:53.000Z</time>
      </trkpt>
      <trkpt lat="47.49394" lon="6.71956">
        <ele>474.5</ele>
        <time>2017-10-22T07:57:54.000Z</time>
      </trkpt>
      <trkpt lat="47.49396" lon="6.71951">
        <ele>474.4</ele>
        <time>2017-10-22T07:57:55.000Z</time>
      </trkpt>
      <trkpt lat="47.49397" lon="6.71948">
        <ele>474.4</ele>
        <time>2017-10-22T07:57:56.000Z</time>
      </trkpt>
      <trkpt lat="47.49399" lon="6.71944">
        <ele>474.4</ele>
        <time>2017-10-22T07:57:57.000Z</time>
      </trkpt>
      <trkpt lat="47.494" lon="6.7194">
        <ele>474.3</ele>
        <time>2017-10-22T07:57:58.000Z</time>
      </trkpt>
      <trkpt lat="47.49401" lon="6.71934">
        <ele>474.3</ele>
        <time>2017-10-22T07:58:01.000Z</time>
      </trkpt>
      <trkpt lat="47.49401" lon="6.71932">
        <ele>474.3</ele>
        <time>2017-10-22T07:58:02.000Z</time>
      </trkpt>
      <trkpt lat="47.49402" lon="6.71927">
        <ele>474.2</ele>
        <time>2017-10-22T07:58:04.000Z</time>
      </trkpt>
      <trkpt lat="47.49403" lon="6.71925">
        <ele>474.2</ele>
        <time>2017-10-22T07:58:05.000Z</time>
      </trkpt>
      <trkpt lat="47.49406" lon="6.71923">
        <ele>474.3</ele>
        <time>2017-10-22T07:58:07.000Z</time>
      </trkpt>
      <trkpt lat="47.49407" lon="6.71921">
        <ele>474.2</ele>
        <time>2017-10-22T07:58:08.000Z</time>
      </trkpt>
      <trkpt lat="47.49407" lon="6.71914">
        <ele>474</ele>
        <time>2017-10-22T07:58:11.000Z</time>
      </trkpt>
      <trkpt lat="47.49406" lon="6.71913">
        <ele>473.9</ele>
        <time>2017-10-22T07:58:12.000Z</time>
      </trkpt>
      <trkpt lat="47.49406" lon="6.71908">
        <ele>473.7</ele>
        <time>2017-10-22T07:58:15.000Z</time>
      </trkpt>
      <trkpt lat="47.49406" lon="6.71905">
        <ele>473.6</ele>
        <time>2017-10-22T07:58:16.000Z</time>
      </trkpt>
      <trkpt lat="47.49407" lon="6.71901">
        <ele>472.9</ele>
        <time>2017-10-22T07:58:20.000Z</time>
      </trkpt>
      <trkpt lat="47.49407" lon="6.71899">
        <ele>472.6</ele>
        <time>2017-10-22T07:58:21.000Z</time>
      </trkpt>
      <trkpt lat="47.49409" lon="6.71896">
        <ele>472.4</ele>
        <time>2017-10-22T07:58:22.000Z</time>
      </trkpt>
      <trkpt lat="47.49409" lon="6.71893">
        <ele>472.2</ele>
        <time>2017-10-22T07:58:23.000Z</time>
      </trkpt>
      <trkpt lat="47.49411" lon="6.71888">
        <ele>472</ele>
        <time>2017-10-22T07:58:25.000Z</time>
      </trkpt>
      <trkpt lat="47.49412" lon="6.71886">
        <ele>471.9</ele>
        <time>2017-10-22T07:58:26.000Z</time>
      </trkpt>
      <trkpt lat="47.49413" lon="6.71881">
        <ele>471.7</ele>
        <time>2017-10-22T07:58:29.000Z</time>
      </trkpt>
      <trkpt lat="47.49414" lon="6.71879">
        <ele>471.7</ele>
        <time>2017-10-22T07:58:30.000Z</time>
      </trkpt>
      <trkpt lat="47.49416" lon="6.71875">
        <ele>471.7</ele>
        <time>2017-10-22T07:58:32.000Z</time>
      </trkpt>
      <trkpt lat="47.49417" lon="6.71872">
        <ele>471.8</ele>
        <time>2017-10-22T07:58:33.000Z</time>
      </trkpt>
      <trkpt lat="47.49418" lon="6.7187">
        <ele>471.9</ele>
        <time>2017-10-22T07:58:34.000Z</time>
      </trkpt>
      <trkpt lat="47.4942" lon="6.71867">
        <ele>471.9</ele>
        <time>2017-10-22T07:58:35.000Z</time>
      </trkpt>
      <trkpt lat="47.49421" lon="6.71861">
        <ele>471.8</ele>
        <time>2017-10-22T07:58:37.000Z</time>
      </trkpt>
      <trkpt lat="47.49422" lon="6.71859">
        <ele>471.7</ele>
        <time>2017-10-22T07:58:38.000Z</time>
      </trkpt>
      <trkpt lat="47.49425" lon="6.71855">
        <ele>471.6</ele>
        <time>2017-10-22T07:58:41.000Z</time>
      </trkpt>
      <trkpt lat="47.49426" lon="6.71852">
        <ele>471.6</ele>
        <time>2017-10-22T07:58:42.000Z</time>
      </trkpt>
      <trkpt lat="47.49426" lon="6.7185">
        <ele>471.8</ele>
        <time>2017-10-22T07:58:43.000Z</time>
      </trkpt>
      <trkpt lat="47.49426" lon="6.71844">
        <ele>471.9</ele>
        <time>2017-10-22T07:58:44.000Z</time>
      </trkpt>
      <trkpt lat="47.49427" lon="6.71834">
        <ele>472.2</ele>
        <time>2017-10-22T07:58:46.000Z</time>
      </trkpt>
      <trkpt lat="47.49427" lon="6.71828">
        <ele>472.5</ele>
        <time>2017-10-22T07:58:47.000Z</time>
      </trkpt>
      <trkpt lat="47.49429" lon="6.71821">
        <ele>472.7</ele>
        <time>2017-10-22T07:58:48.000Z</time>
      </trkpt>
      <trkpt lat="47.49429" lon="6.71817">
        <ele>472.9</ele>
        <time>2017-10-22T07:58:49.000Z</time>
      </trkpt>
      <trkpt lat="47.4943" lon="6.71813">
        <ele>473.1</ele>
        <time>2017-10-22T07:58:50.000Z</time>
      </trkpt>
      <trkpt lat="47.49432" lon="6.71808">
        <ele>475.3</ele>
        <time>2017-10-22T07:59:00.000Z</time>
      </trkpt>
      <trkpt lat="47.49433" lon="6.71806">
        <ele>475.6</ele>
        <time>2017-10-22T07:59:01.000Z</time>
      </trkpt>
      <trkpt lat="47.49432" lon="6.71801">
        <ele>476.6</ele>
        <time>2017-10-22T07:59:04.000Z</time>
      </trkpt>
      <trkpt lat="47.49433" lon="6.71798">
        <ele>476.8</ele>
        <time>2017-10-22T07:59:05.000Z</time>
      </trkpt>
      <trkpt lat="47.49434" lon="6.71796">
        <ele>477.1</ele>
        <time>2017-10-22T07:59:06.000Z</time>
      </trkpt>
      <trkpt lat="47.49434" lon="6.7179">
        <ele>477.2</ele>
        <time>2017-10-22T07:59:07.000Z</time>
      </trkpt>
      <trkpt lat="47.49434" lon="6.71786">
        <ele>477.4</ele>
        <time>2017-10-22T07:59:08.000Z</time>
      </trkpt>
      <trkpt lat="47.49434" lon="6.71783">
        <ele>477.6</ele>
        <time>2017-10-22T07:59:09.000Z</time>
      </trkpt>
      <trkpt lat="47.49435" lon="6.71776">
        <ele>477.8</ele>
        <time>2017-10-22T07:59:10.000Z</time>
      </trkpt>
      <trkpt lat="47.49434" lon="6.71768">
        <ele>478.2</ele>
        <time>2017-10-22T07:59:11.000Z</time>
      </trkpt>
      <trkpt lat="47.49433" lon="6.71755">
        <ele>478.5</ele>
        <time>2017-10-22T07:59:12.000Z</time>
      </trkpt>
      <trkpt lat="47.49432" lon="6.71749">
        <ele>478.8</ele>
        <time>2017-10-22T07:59:13.000Z</time>
      </trkpt>
      <trkpt lat="47.4943" lon="6.71743">
        <ele>479.2</ele>
        <time>2017-10-22T07:59:14.000Z</time>
      </trkpt>
      <trkpt lat="47.49429" lon="6.71737">
        <ele>479.3</ele>
        <time>2017-10-22T07:59:15.000Z</time>
      </trkpt>
      <trkpt lat="47.49428" lon="6.71731">
        <ele>479.5</ele>
        <time>2017-10-22T07:59:16.000Z</time>
      </trkpt>
      <trkpt lat="47.49428" lon="6.71726">
        <ele>479.5</ele>
        <time>2017-10-22T07:59:17.000Z</time>
      </trkpt>
      <trkpt lat="47.49427" lon="6.71721">
        <ele>479.5</ele>
        <time>2017-10-22T07:59:18.000Z</time>
      </trkpt>
      <trkpt lat="47.49427" lon="6.71715">
        <ele>479.6</ele>
        <time>2017-10-22T07:59:20.000Z</time>
      </trkpt>
      <trkpt lat="47.49427" lon="6.71714">
        <ele>479.7</ele>
        <time>2017-10-22T07:59:21.000Z</time>
      </trkpt>
      <trkpt lat="47.49427" lon="6.71712">
        <ele>479.8</ele>
        <time>2017-10-22T07:59:22.000Z</time>
      </trkpt>
      <trkpt lat="47.49427" lon="6.71705">
        <ele>480</ele>
        <time>2017-10-22T07:59:23.000Z</time>
      </trkpt>
      <trkpt lat="47.49427" lon="6.717">
        <ele>480.4</ele>
        <time>2017-10-22T07:59:26.000Z</time>
      </trkpt>
      <trkpt lat="47.49429" lon="6.71693">
        <ele>480.5</ele>
        <time>2017-10-22T07:59:27.000Z</time>
      </trkpt>
      <trkpt lat="47.49429" lon="6.71687">
        <ele>480.9</ele>
        <time>2017-10-22T07:59:29.000Z</time>
      </trkpt>
      <trkpt lat="47.49429" lon="6.71684">
        <ele>481.1</ele>
        <time>2017-10-22T07:59:30.000Z</time>
      </trkpt>
      <trkpt lat="47.49428" lon="6.71681">
        <ele>481.4</ele>
        <time>2017-10-22T07:59:31.000Z</time>
      </trkpt>
      <trkpt lat="47.49427" lon="6.71674">
        <ele>481.7</ele>
        <time>2017-10-22T07:59:32.000Z</time>
      </trkpt>
      <trkpt lat="47.49429" lon="6.71668">
        <ele>481.8</ele>
        <time>2017-10-22T07:59:33.000Z</time>
      </trkpt>
      <trkpt lat="47.49429" lon="6.71665">
        <ele>482.1</ele>
        <time>2017-10-22T07:59:34.000Z</time>
      </trkpt>
      <trkpt lat="47.49429" lon="6.7166">
        <ele>482.3</ele>
        <time>2017-10-22T07:59:36.000Z</time>
      </trkpt>
      <trkpt lat="47.4943" lon="6.71657">
        <ele>482.5</ele>
        <time>2017-10-22T07:59:37.000Z</time>
      </trkpt>
      <trkpt lat="47.49431" lon="6.71651">
        <ele>483.1</ele>
        <time>2017-10-22T07:59:41.000Z</time>
      </trkpt>
      <trkpt lat="47.49431" lon="6.71643">
        <ele>483.3</ele>
        <time>2017-10-22T07:59:42.000Z</time>
      </trkpt>
      <trkpt lat="47.49433" lon="6.71636">
        <ele>483.4</ele>
        <time>2017-10-22T07:59:43.000Z</time>
      </trkpt>
      <trkpt lat="47.49431" lon="6.7163">
        <ele>483.5</ele>
        <time>2017-10-22T07:59:44.000Z</time>
      </trkpt>
      <trkpt lat="47.49427" lon="6.71623">
        <ele>483.6</ele>
        <time>2017-10-22T07:59:45.000Z</time>
      </trkpt>
      <trkpt lat="47.49424" lon="6.71614">
        <ele>483.8</ele>
        <time>2017-10-22T07:59:46.000Z</time>
      </trkpt>
      <trkpt lat="47.49423" lon="6.71607">
        <ele>483.8</ele>
        <time>2017-10-22T07:59:47.000Z</time>
      </trkpt>
      <trkpt lat="47.49423" lon="6.71601">
        <ele>484</ele>
        <time>2017-10-22T07:59:48.000Z</time>
      </trkpt>
      <trkpt lat="47.49423" lon="6.71595">
        <ele>484.1</ele>
        <time>2017-10-22T07:59:49.000Z</time>
      </trkpt>
      <trkpt lat="47.49424" lon="6.71589">
        <ele>484.3</ele>
        <time>2017-10-22T07:59:50.000Z</time>
      </trkpt>
      <trkpt lat="47.49422" lon="6.71583">
        <ele>484.4</ele>
        <time>2017-10-22T07:59:51.000Z</time>
      </trkpt>
      <trkpt lat="47.49422" lon="6.7158">
        <ele>484.5</ele>
        <time>2017-10-22T07:59:52.000Z</time>
      </trkpt>
      <trkpt lat="47.4942" lon="6.71576">
        <ele>484.7</ele>
        <time>2017-10-22T07:59:53.000Z</time>
      </trkpt>
      <trkpt lat="47.49419" lon="6.71568">
        <ele>484.9</ele>
        <time>2017-10-22T07:59:54.000Z</time>
      </trkpt>
      <trkpt lat="47.49418" lon="6.71562">
        <ele>485.1</ele>
        <time>2017-10-22T07:59:55.000Z</time>
      </trkpt>
      <trkpt lat="47.49418" lon="6.7156">
        <ele>485.3</ele>
        <time>2017-10-22T07:59:56.000Z</time>
      </trkpt>
      <trkpt lat="47.49418" lon="6.71554">
        <ele>485.5</ele>
        <time>2017-10-22T07:59:57.000Z</time>
      </trkpt>
      <trkpt lat="47.49417" lon="6.71547">
        <ele>485.6</ele>
        <time>2017-10-22T07:59:58.000Z</time>
      </trkpt>
      <trkpt lat="47.49416" lon="6.71545">
        <ele>485.6</ele>
        <time>2017-10-22T07:59:59.000Z</time>
      </trkpt>
      <trkpt lat="47.49416" lon="6.7154">
        <ele>485.6</ele>
        <time>2017-10-22T08:00:00.000Z</time>
      </trkpt>
      <trkpt lat="47.49416" lon="6.71536">
        <ele>485.8</ele>
        <time>2017-10-22T08:00:03.000Z</time>
      </trkpt>
      <trkpt lat="47.49414" lon="6.71528">
        <ele>485.9</ele>
        <time>2017-10-22T08:00:04.000Z</time>
      </trkpt>
      <trkpt lat="47.49414" lon="6.71519">
        <ele>486.1</ele>
        <time>2017-10-22T08:00:05.000Z</time>
      </trkpt>
      <trkpt lat="47.49414" lon="6.7151">
        <ele>486.4</ele>
        <time>2017-10-22T08:00:06.000Z</time>
      </trkpt>
      <trkpt lat="47.49413" lon="6.71501">
        <ele>486.7</ele>
        <time>2017-10-22T08:00:07.000Z</time>
      </trkpt>
      <trkpt lat="47.49412" lon="6.71493">
        <ele>487</ele>
        <time>2017-10-22T08:00:08.000Z</time>
      </trkpt>
      <trkpt lat="47.49411" lon="6.71486">
        <ele>487.3</ele>
        <time>2017-10-22T08:00:09.000Z</time>
      </trkpt>
      <trkpt lat="47.4941" lon="6.71479">
        <ele>487.7</ele>
        <time>2017-10-22T08:00:10.000Z</time>
      </trkpt>
      <trkpt lat="47.49409" lon="6.71475">
        <ele>487.9</ele>
        <time>2017-10-22T08:00:11.000Z</time>
      </trkpt>
      <trkpt lat="47.49409" lon="6.71472">
        <ele>488.1</ele>
        <time>2017-10-22T08:00:12.000Z</time>
      </trkpt>
      <trkpt lat="47.4941" lon="6.71464">
        <ele>488.2</ele>
        <time>2017-10-22T08:00:13.000Z</time>
      </trkpt>
      <trkpt lat="47.49409" lon="6.71457">
        <ele>488.4</ele>
        <time>2017-10-22T08:00:14.000Z</time>
      </trkpt>
      <trkpt lat="47.49409" lon="6.71449">
        <ele>488.6</ele>
        <time>2017-10-22T08:00:15.000Z</time>
      </trkpt>
      <trkpt lat="47.49409" lon="6.71443">
        <ele>488.6</ele>
        <time>2017-10-22T08:00:16.000Z</time>
      </trkpt>
      <trkpt lat="47.49409" lon="6.7144">
        <ele>488.7</ele>
        <time>2017-10-22T08:00:17.000Z</time>
      </trkpt>
      <trkpt lat="47.49408" lon="6.71434">
        <ele>488.8</ele>
        <time>2017-10-22T08:00:18.000Z</time>
      </trkpt>
      <trkpt lat="47.4941" lon="6.71428">
        <ele>488.9</ele>
        <time>2017-10-22T08:00:19.000Z</time>
      </trkpt>
      <trkpt lat="47.49412" lon="6.71423">
        <ele>488.8</ele>
        <time>2017-10-22T08:00:23.000Z</time>
      </trkpt>
      <trkpt lat="47.49413" lon="6.7142">
        <ele>488.8</ele>
        <time>2017-10-22T08:00:24.000Z</time>
      </trkpt>
      <trkpt lat="47.49413" lon="6.71414">
        <ele>488.7</ele>
        <time>2017-10-22T08:00:26.000Z</time>
      </trkpt>
      <trkpt lat="47.49412" lon="6.71408">
        <ele>488.5</ele>
        <time>2017-10-22T08:00:27.000Z</time>
      </trkpt>
      <trkpt lat="47.49412" lon="6.714">
        <ele>488.2</ele>
        <time>2017-10-22T08:00:28.000Z</time>
      </trkpt>
      <trkpt lat="47.49412" lon="6.71394">
        <ele>487.9</ele>
        <time>2017-10-22T08:00:29.000Z</time>
      </trkpt>
      <trkpt lat="47.49412" lon="6.71386">
        <ele>487.5</ele>
        <time>2017-10-22T08:00:30.000Z</time>
      </trkpt>
      <trkpt lat="47.49412" lon="6.71378">
        <ele>487.3</ele>
        <time>2017-10-22T08:00:31.000Z</time>
      </trkpt>
      <trkpt lat="47.49412" lon="6.71371">
        <ele>487.1</ele>
        <time>2017-10-22T08:00:32.000Z</time>
      </trkpt>
      <trkpt lat="47.49408" lon="6.71364">
        <ele>486.9</ele>
        <time>2017-10-22T08:00:33.000Z</time>
      </trkpt>
      <trkpt lat="47.49406" lon="6.71354">
        <ele>486.6</ele>
        <time>2017-10-22T08:00:34.000Z</time>
      </trkpt>
      <trkpt lat="47.49406" lon="6.71346">
        <ele>486.1</ele>
        <time>2017-10-22T08:00:35.000Z</time>
      </trkpt>
      <trkpt lat="47.49405" lon="6.71337">
        <ele>485.7</ele>
        <time>2017-10-22T08:00:36.000Z</time>
      </trkpt>
      <trkpt lat="47.49402" lon="6.71327">
        <ele>485.4</ele>
        <time>2017-10-22T08:00:37.000Z</time>
      </trkpt>
      <trkpt lat="47.494" lon="6.71319">
        <ele>485.1</ele>
        <time>2017-10-22T08:00:38.000Z</time>
      </trkpt>
      <trkpt lat="47.494" lon="6.71311">
        <ele>484.9</ele>
        <time>2017-10-22T08:00:39.000Z</time>
      </trkpt>
      <trkpt lat="47.49401" lon="6.71305">
        <ele>484.6</ele>
        <time>2017-10-22T08:00:40.000Z</time>
      </trkpt>
      <trkpt lat="47.49404" lon="6.71299">
        <ele>484.4</ele>
        <time>2017-10-22T08:00:41.000Z</time>
      </trkpt>
      <trkpt lat="47.49405" lon="6.71296">
        <ele>484.1</ele>
        <time>2017-10-22T08:00:42.000Z</time>
      </trkpt>
      <trkpt lat="47.49404" lon="6.71291">
        <ele>483.9</ele>
        <time>2017-10-22T08:00:43.000Z</time>
      </trkpt>
      <trkpt lat="47.49403" lon="6.71286">
        <ele>483.6</ele>
        <time>2017-10-22T08:00:44.000Z</time>
      </trkpt>
      <trkpt lat="47.49402" lon="6.71281">
        <ele>483.6</ele>
        <time>2017-10-22T08:00:45.000Z</time>
      </trkpt>
      <trkpt lat="47.494" lon="6.71276">
        <ele>483.6</ele>
        <time>2017-10-22T08:00:46.000Z</time>
      </trkpt>
      <trkpt lat="47.49398" lon="6.7127">
        <ele>483.6</ele>
        <time>2017-10-22T08:00:47.000Z</time>
      </trkpt>
      <trkpt lat="47.49397" lon="6.71265">
        <ele>483.8</ele>
        <time>2017-10-22T08:00:48.000Z</time>
      </trkpt>
      <trkpt lat="47.49396" lon="6.71262">
        <ele>483.9</ele>
        <time>2017-10-22T08:00:49.000Z</time>
      </trkpt>
      <trkpt lat="47.49395" lon="6.71257">
        <ele>484.7</ele>
        <time>2017-10-22T08:00:52.000Z</time>
      </trkpt>
      <trkpt lat="47.49394" lon="6.71256">
        <ele>484.9</ele>
        <time>2017-10-22T08:00:53.000Z</time>
      </trkpt>
      <trkpt lat="47.49395" lon="6.71253">
        <ele>485</ele>
        <time>2017-10-22T08:00:54.000Z</time>
      </trkpt>
      <trkpt lat="47.49393" lon="6.71246">
        <ele>485.2</ele>
        <time>2017-10-22T08:00:55.000Z</time>
      </trkpt>
      <trkpt lat="47.49392" lon="6.71242">
        <ele>485.3</ele>
        <time>2017-10-22T08:00:56.000Z</time>
      </trkpt>
      <trkpt lat="47.49391" lon="6.71239">
        <ele>485.5</ele>
        <time>2017-10-22T08:00:57.000Z</time>
      </trkpt>
      <trkpt lat="47.49389" lon="6.71234">
        <ele>485.5</ele>
        <time>2017-10-22T08:00:58.000Z</time>
      </trkpt>
      <trkpt lat="47.49389" lon="6.71229">
        <ele>485.6</ele>
        <time>2017-10-22T08:00:59.000Z</time>
      </trkpt>
      <trkpt lat="47.49386" lon="6.7122">
        <ele>485.6</ele>
        <time>2017-10-22T08:01:00.000Z</time>
      </trkpt>
      <trkpt lat="47.49388" lon="6.71213">
        <ele>485.6</ele>
        <time>2017-10-22T08:01:01.000Z</time>
      </trkpt>
      <trkpt lat="47.49386" lon="6.71207">
        <ele>485.7</ele>
        <time>2017-10-22T08:01:02.000Z</time>
      </trkpt>
      <trkpt lat="47.49384" lon="6.71201">
        <ele>486</ele>
        <time>2017-10-22T08:01:03.000Z</time>
      </trkpt>
      <trkpt lat="47.49383" lon="6.71195">
        <ele>486.2</ele>
        <time>2017-10-22T08:01:04.000Z</time>
      </trkpt>
      <trkpt lat="47.49381" lon="6.7119">
        <ele>486.2</ele>
        <time>2017-10-22T08:01:05.000Z</time>
      </trkpt>
      <trkpt lat="47.49378" lon="6.71185">
        <ele>486.2</ele>
        <time>2017-10-22T08:01:06.000Z</time>
      </trkpt>
      <trkpt lat="47.49377" lon="6.71181">
        <ele>486.2</ele>
        <time>2017-10-22T08:01:08.000Z</time>
      </trkpt>
      <trkpt lat="47.49377" lon="6.71178">
        <ele>486.2</ele>
        <time>2017-10-22T08:01:09.000Z</time>
      </trkpt>
      <trkpt lat="47.49377" lon="6.71176">
        <ele>486.3</ele>
        <time>2017-10-22T08:01:10.000Z</time>
      </trkpt>
      <trkpt lat="47.49374" lon="6.71171">
        <ele>486.2</ele>
        <time>2017-10-22T08:01:11.000Z</time>
      </trkpt>
      <trkpt lat="47.49373" lon="6.71168">
        <ele>486.2</ele>
        <time>2017-10-22T08:01:13.000Z</time>
      </trkpt>
      <trkpt lat="47.49371" lon="6.71164">
        <ele>486.2</ele>
        <time>2017-10-22T08:01:14.000Z</time>
      </trkpt>
      <trkpt lat="47.4937" lon="6.71161">
        <ele>486.2</ele>
        <time>2017-10-22T08:01:15.000Z</time>
      </trkpt>
      <trkpt lat="47.49367" lon="6.71154">
        <ele>486.2</ele>
        <time>2017-10-22T08:01:16.000Z</time>
      </trkpt>
      <trkpt lat="47.49364" lon="6.71146">
        <ele>486</ele>
        <time>2017-10-22T08:01:17.000Z</time>
      </trkpt>
      <trkpt lat="47.49361" lon="6.71138">
        <ele>485.9</ele>
        <time>2017-10-22T08:01:18.000Z</time>
      </trkpt>
      <trkpt lat="47.49358" lon="6.71132">
        <ele>485.8</ele>
        <time>2017-10-22T08:01:19.000Z</time>
      </trkpt>
      <trkpt lat="47.49355" lon="6.71125">
        <ele>485.7</ele>
        <time>2017-10-22T08:01:20.000Z</time>
      </trkpt>
      <trkpt lat="47.49353" lon="6.71118">
        <ele>485.6</ele>
        <time>2017-10-22T08:01:21.000Z</time>
      </trkpt>
      <trkpt lat="47.49353" lon="6.71113">
        <ele>485.6</ele>
        <time>2017-10-22T08:01:22.000Z</time>
      </trkpt>
      <trkpt lat="47.49351" lon="6.71107">
        <ele>485.5</ele>
        <time>2017-10-22T08:01:23.000Z</time>
      </trkpt>
      <trkpt lat="47.49349" lon="6.71101">
        <ele>485.3</ele>
        <time>2017-10-22T08:01:25.000Z</time>
      </trkpt>
      <trkpt lat="47.49348" lon="6.711">
        <ele>485.3</ele>
        <time>2017-10-22T08:01:26.000Z</time>
      </trkpt>
      <trkpt lat="47.49346" lon="6.71094">
        <ele>485.2</ele>
        <time>2017-10-22T08:01:28.000Z</time>
      </trkpt>
      <trkpt lat="47.49344" lon="6.71089">
        <ele>485.1</ele>
        <time>2017-10-22T08:01:29.000Z</time>
      </trkpt>
      <trkpt lat="47.49344" lon="6.71086">
        <ele>485.1</ele>
        <time>2017-10-22T08:01:30.000Z</time>
      </trkpt>
      <trkpt lat="47.49342" lon="6.7108">
        <ele>485.2</ele>
        <time>2017-10-22T08:01:31.000Z</time>
      </trkpt>
      <trkpt lat="47.4934" lon="6.71076">
        <ele>485.4</ele>
        <time>2017-10-22T08:01:32.000Z</time>
      </trkpt>
      <trkpt lat="47.49338" lon="6.7107">
        <ele>485.5</ele>
        <time>2017-10-22T08:01:33.000Z</time>
      </trkpt>
      <trkpt lat="47.49335" lon="6.71064">
        <ele>485.5</ele>
        <time>2017-10-22T08:01:34.000Z</time>
      </trkpt>
      <trkpt lat="47.49332" lon="6.71058">
        <ele>485.6</ele>
        <time>2017-10-22T08:01:35.000Z</time>
      </trkpt>
      <trkpt lat="47.49329" lon="6.71054">
        <ele>485.7</ele>
        <time>2017-10-22T08:01:36.000Z</time>
      </trkpt>
      <trkpt lat="47.49326" lon="6.7105">
        <ele>485.7</ele>
        <time>2017-10-22T08:01:37.000Z</time>
      </trkpt>
      <trkpt lat="47.49323" lon="6.71045">
        <ele>486.1</ele>
        <time>2017-10-22T08:01:39.000Z</time>
      </trkpt>
      <trkpt lat="47.49321" lon="6.71043">
        <ele>486.2</ele>
        <time>2017-10-22T08:01:40.000Z</time>
      </trkpt>
      <trkpt lat="47.49318" lon="6.71037">
        <ele>486.3</ele>
        <time>2017-10-22T08:01:41.000Z</time>
      </trkpt>
      <trkpt lat="47.49314" lon="6.71031">
        <ele>486.5</ele>
        <time>2017-10-22T08:01:42.000Z</time>
      </trkpt>
      <trkpt lat="47.49312" lon="6.71026">
        <ele>486.6</ele>
        <time>2017-10-22T08:01:43.000Z</time>
      </trkpt>
      <trkpt lat="47.4931" lon="6.71023">
        <ele>486.8</ele>
        <time>2017-10-22T08:01:44.000Z</time>
      </trkpt>
      <trkpt lat="47.49309" lon="6.71016">
        <ele>486.9</ele>
        <time>2017-10-22T08:01:45.000Z</time>
      </trkpt>
      <trkpt lat="47.49307" lon="6.71009">
        <ele>486.9</ele>
        <time>2017-10-22T08:01:46.000Z</time>
      </trkpt>
      <trkpt lat="47.49303" lon="6.71001">
        <ele>487</ele>
        <time>2017-10-22T08:01:47.000Z</time>
      </trkpt>
      <trkpt lat="47.49302" lon="6.70996">
        <ele>487.1</ele>
        <time>2017-10-22T08:01:49.000Z</time>
      </trkpt>
      <trkpt lat="47.49301" lon="6.70993">
        <ele>487.1</ele>
        <time>2017-10-22T08:01:50.000Z</time>
      </trkpt>
      <trkpt lat="47.49301" lon="6.70986">
        <ele>487.1</ele>
        <time>2017-10-22T08:01:51.000Z</time>
      </trkpt>
      <trkpt lat="47.493" lon="6.70978">
        <ele>487.1</ele>
        <time>2017-10-22T08:01:52.000Z</time>
      </trkpt>
      <trkpt lat="47.49299" lon="6.70975">
        <ele>487.2</ele>
        <time>2017-10-22T08:01:53.000Z</time>
      </trkpt>
      <trkpt lat="47.49297" lon="6.70969">
        <ele>487.3</ele>
        <time>2017-10-22T08:01:54.000Z</time>
      </trkpt>
      <trkpt lat="47.49295" lon="6.70963">
        <ele>487.4</ele>
        <time>2017-10-22T08:01:55.000Z</time>
      </trkpt>
      <trkpt lat="47.49293" lon="6.7096">
        <ele>487.4</ele>
        <time>2017-10-22T08:01:56.000Z</time>
      </trkpt>
      <trkpt lat="47.49289" lon="6.70957">
        <ele>487.4</ele>
        <time>2017-10-22T08:01:57.000Z</time>
      </trkpt>
      <trkpt lat="47.49284" lon="6.70957">
        <ele>487.4</ele>
        <time>2017-10-22T08:01:58.000Z</time>
      </trkpt>
      <trkpt lat="47.4928" lon="6.70954">
        <ele>487.3</ele>
        <time>2017-10-22T08:01:59.000Z</time>
      </trkpt>
      <trkpt lat="47.49276" lon="6.7095">
        <ele>487.2</ele>
        <time>2017-10-22T08:02:00.000Z</time>
      </trkpt>
      <trkpt lat="47.49273" lon="6.70945">
        <ele>487.1</ele>
        <time>2017-10-22T08:02:01.000Z</time>
      </trkpt>
      <trkpt lat="47.4927" lon="6.7094">
        <ele>487</ele>
        <time>2017-10-22T08:02:02.000Z</time>
      </trkpt>
      <trkpt lat="47.49266" lon="6.70936">
        <ele>487.2</ele>
        <time>2017-10-22T08:02:03.000Z</time>
      </trkpt>
      <trkpt lat="47.49263" lon="6.70929">
        <ele>487.3</ele>
        <time>2017-10-22T08:02:04.000Z</time>
      </trkpt>
      <trkpt lat="47.49261" lon="6.70926">
        <ele>487.5</ele>
        <time>2017-10-22T08:02:05.000Z</time>
      </trkpt>
      <trkpt lat="47.49257" lon="6.7092">
        <ele>487.6</ele>
        <time>2017-10-22T08:02:06.000Z</time>
      </trkpt>
      <trkpt lat="47.49253" lon="6.70915">
        <ele>487.8</ele>
        <time>2017-10-22T08:02:07.000Z</time>
      </trkpt>
      <trkpt lat="47.49249" lon="6.7091">
        <ele>488</ele>
        <time>2017-10-22T08:02:08.000Z</time>
      </trkpt>
      <trkpt lat="47.49246" lon="6.70903">
        <ele>488.1</ele>
        <time>2017-10-22T08:02:09.000Z</time>
      </trkpt>
      <trkpt lat="47.49244" lon="6.70896">
        <ele>488.2</ele>
        <time>2017-10-22T08:02:10.000Z</time>
      </trkpt>
      <trkpt lat="47.49242" lon="6.70893">
        <ele>488.3</ele>
        <time>2017-10-22T08:02:11.000Z</time>
      </trkpt>
      <trkpt lat="47.4924" lon="6.7089">
        <ele>488.3</ele>
        <time>2017-10-22T08:02:12.000Z</time>
      </trkpt>
      <trkpt lat="47.49239" lon="6.70888">
        <ele>488.5</ele>
        <time>2017-10-22T08:02:13.000Z</time>
      </trkpt>
      <trkpt lat="47.49237" lon="6.70884">
        <ele>488.6</ele>
        <time>2017-10-22T08:02:14.000Z</time>
      </trkpt>
      <trkpt lat="47.49233" lon="6.70879">
        <ele>488.7</ele>
        <time>2017-10-22T08:02:15.000Z</time>
      </trkpt>
      <trkpt lat="47.49232" lon="6.70873">
        <ele>488.8</ele>
        <time>2017-10-22T08:02:16.000Z</time>
      </trkpt>
      <trkpt lat="47.49231" lon="6.70867">
        <ele>488.9</ele>
        <time>2017-10-22T08:02:17.000Z</time>
      </trkpt>
      <trkpt lat="47.4923" lon="6.70865">
        <ele>489</ele>
        <time>2017-10-22T08:02:18.000Z</time>
      </trkpt>
      <trkpt lat="47.49229" lon="6.70858">
        <ele>489</ele>
        <time>2017-10-22T08:02:19.000Z</time>
      </trkpt>
      <trkpt lat="47.49226" lon="6.70851">
        <ele>489.1</ele>
        <time>2017-10-22T08:02:20.000Z</time>
      </trkpt>
      <trkpt lat="47.49221" lon="6.70844">
        <ele>489.2</ele>
        <time>2017-10-22T08:02:21.000Z</time>
      </trkpt>
      <trkpt lat="47.49218" lon="6.70837">
        <ele>489.3</ele>
        <time>2017-10-22T08:02:22.000Z</time>
      </trkpt>
      <trkpt lat="47.49216" lon="6.70834">
        <ele>489.3</ele>
        <time>2017-10-22T08:02:23.000Z</time>
      </trkpt>
      <trkpt lat="47.49212" lon="6.70829">
        <ele>489.2</ele>
        <time>2017-10-22T08:02:24.000Z</time>
      </trkpt>
      <trkpt lat="47.4921" lon="6.70822">
        <ele>489.1</ele>
        <time>2017-10-22T08:02:25.000Z</time>
      </trkpt>
      <trkpt lat="47.49207" lon="6.70815">
        <ele>488.9</ele>
        <time>2017-10-22T08:02:26.000Z</time>
      </trkpt>
      <trkpt lat="47.49202" lon="6.70806">
        <ele>488.9</ele>
        <time>2017-10-22T08:02:27.000Z</time>
      </trkpt>
      <trkpt lat="47.49198" lon="6.70803">
        <ele>488.9</ele>
        <time>2017-10-22T08:02:28.000Z</time>
      </trkpt>
      <trkpt lat="47.49196" lon="6.708">
        <ele>489</ele>
        <time>2017-10-22T08:02:29.000Z</time>
      </trkpt>
      <trkpt lat="47.49194" lon="6.70797">
        <ele>489</ele>
        <time>2017-10-22T08:02:30.000Z</time>
      </trkpt>
      <trkpt lat="47.49191" lon="6.70793">
        <ele>489</ele>
        <time>2017-10-22T08:02:31.000Z</time>
      </trkpt>
      <trkpt lat="47.49188" lon="6.70787">
        <ele>489</ele>
        <time>2017-10-22T08:02:32.000Z</time>
      </trkpt>
      <trkpt lat="47.49186" lon="6.70781">
        <ele>488.9</ele>
        <time>2017-10-22T08:02:33.000Z</time>
      </trkpt>
      <trkpt lat="47.49183" lon="6.70777">
        <ele>488.9</ele>
        <time>2017-10-22T08:02:34.000Z</time>
      </trkpt>
      <trkpt lat="47.4918" lon="6.70772">
        <ele>489</ele>
        <time>2017-10-22T08:02:35.000Z</time>
      </trkpt>
      <trkpt lat="47.49176" lon="6.70769">
        <ele>489</ele>
        <time>2017-10-22T08:02:36.000Z</time>
      </trkpt>
      <trkpt lat="47.49174" lon="6.70766">
        <ele>488.9</ele>
        <time>2017-10-22T08:02:37.000Z</time>
      </trkpt>
      <trkpt lat="47.49171" lon="6.70762">
        <ele>488.9</ele>
        <time>2017-10-22T08:02:38.000Z</time>
      </trkpt>
      <trkpt lat="47.49167" lon="6.70757">
        <ele>488.8</ele>
        <time>2017-10-22T08:02:39.000Z</time>
      </trkpt>
      <trkpt lat="47.49164" lon="6.70754">
        <ele>488.7</ele>
        <time>2017-10-22T08:02:40.000Z</time>
      </trkpt>
      <trkpt lat="47.49161" lon="6.70752">
        <ele>488.6</ele>
        <time>2017-10-22T08:02:41.000Z</time>
      </trkpt>
      <trkpt lat="47.49157" lon="6.70747">
        <ele>488.6</ele>
        <time>2017-10-22T08:02:42.000Z</time>
      </trkpt>
      <trkpt lat="47.49154" lon="6.70745">
        <ele>488.6</ele>
        <time>2017-10-22T08:02:43.000Z</time>
      </trkpt>
      <trkpt lat="47.49151" lon="6.7074">
        <ele>488.5</ele>
        <time>2017-10-22T08:02:44.000Z</time>
      </trkpt>
      <trkpt lat="47.49149" lon="6.70736">
        <ele>488.4</ele>
        <time>2017-10-22T08:02:45.000Z</time>
      </trkpt>
      <trkpt lat="47.49147" lon="6.7073">
        <ele>488.2</ele>
        <time>2017-10-22T08:02:46.000Z</time>
      </trkpt>
      <trkpt lat="47.49145" lon="6.70724">
        <ele>488</ele>
        <time>2017-10-22T08:02:47.000Z</time>
      </trkpt>
      <trkpt lat="47.49143" lon="6.70719">
        <ele>487.8</ele>
        <time>2017-10-22T08:02:48.000Z</time>
      </trkpt>
      <trkpt lat="47.49142" lon="6.70716">
        <ele>487.8</ele>
        <time>2017-10-22T08:02:49.000Z</time>
      </trkpt>
      <trkpt lat="47.49138" lon="6.7071">
        <ele>487.8</ele>
        <time>2017-10-22T08:02:50.000Z</time>
      </trkpt>
      <trkpt lat="47.49134" lon="6.70703">
        <ele>487.7</ele>
        <time>2017-10-22T08:02:51.000Z</time>
      </trkpt>
      <trkpt lat="47.49132" lon="6.70694">
        <ele>487.6</ele>
        <time>2017-10-22T08:02:52.000Z</time>
      </trkpt>
      <trkpt lat="47.49131" lon="6.70687">
        <ele>487.5</ele>
        <time>2017-10-22T08:02:53.000Z</time>
      </trkpt>
      <trkpt lat="47.49128" lon="6.70683">
        <ele>487.4</ele>
        <time>2017-10-22T08:02:54.000Z</time>
      </trkpt>
      <trkpt lat="47.49127" lon="6.70681">
        <ele>487.3</ele>
        <time>2017-10-22T08:02:55.000Z</time>
      </trkpt>
      <trkpt lat="47.49122" lon="6.70676">
        <ele>487.1</ele>
        <time>2017-10-22T08:02:56.000Z</time>
      </trkpt>
      <trkpt lat="47.4912" lon="6.70669">
        <ele>487</ele>
        <time>2017-10-22T08:02:57.000Z</time>
      </trkpt>
      <trkpt lat="47.49118" lon="6.70663">
        <ele>487</ele>
        <time>2017-10-22T08:02:58.000Z</time>
      </trkpt>
      <trkpt lat="47.49115" lon="6.70656">
        <ele>487</ele>
        <time>2017-10-22T08:02:59.000Z</time>
      </trkpt>
      <trkpt lat="47.49114" lon="6.70648">
        <ele>487.1</ele>
        <time>2017-10-22T08:03:00.000Z</time>
      </trkpt>
      <trkpt lat="47.49112" lon="6.70642">
        <ele>487.2</ele>
        <time>2017-10-22T08:03:01.000Z</time>
      </trkpt>
      <trkpt lat="47.49109" lon="6.70637">
        <ele>487.3</ele>
        <time>2017-10-22T08:03:02.000Z</time>
      </trkpt>
      <trkpt lat="47.49108" lon="6.7063">
        <ele>487.3</ele>
        <time>2017-10-22T08:03:03.000Z</time>
      </trkpt>
      <trkpt lat="47.49108" lon="6.70625">
        <ele>487.3</ele>
        <time>2017-10-22T08:03:04.000Z</time>
      </trkpt>
      <trkpt lat="47.49106" lon="6.70619">
        <ele>487.2</ele>
        <time>2017-10-22T08:03:05.000Z</time>
      </trkpt>
      <trkpt lat="47.49103" lon="6.70614">
        <ele>487.3</ele>
        <time>2017-10-22T08:03:06.000Z</time>
      </trkpt>
      <trkpt lat="47.491" lon="6.7061">
        <ele>487.2</ele>
        <time>2017-10-22T08:03:07.000Z</time>
      </trkpt>
      <trkpt lat="47.49098" lon="6.70604">
        <ele>487.3</ele>
        <time>2017-10-22T08:03:08.000Z</time>
      </trkpt>
      <trkpt lat="47.49096" lon="6.70599">
        <ele>487.5</ele>
        <time>2017-10-22T08:03:10.000Z</time>
      </trkpt>
      <trkpt lat="47.49095" lon="6.70596">
        <ele>487.6</ele>
        <time>2017-10-22T08:03:11.000Z</time>
      </trkpt>
      <trkpt lat="47.49094" lon="6.70595">
        <ele>487.6</ele>
        <time>2017-10-22T08:03:12.000Z</time>
      </trkpt>
      <trkpt lat="47.49091" lon="6.7059">
        <ele>487.5</ele>
        <time>2017-10-22T08:03:13.000Z</time>
      </trkpt>
      <trkpt lat="47.49087" lon="6.70587">
        <ele>487.5</ele>
        <time>2017-10-22T08:03:14.000Z</time>
      </trkpt>
      <trkpt lat="47.49084" lon="6.70583">
        <ele>487.5</ele>
        <time>2017-10-22T08:03:15.000Z</time>
      </trkpt>
      <trkpt lat="47.49082" lon="6.70579">
        <ele>487.5</ele>
        <time>2017-10-22T08:03:16.000Z</time>
      </trkpt>
      <trkpt lat="47.49079" lon="6.70575">
        <ele>487.5</ele>
        <time>2017-10-22T08:03:17.000Z</time>
      </trkpt>
      <trkpt lat="47.49077" lon="6.70568">
        <ele>487.5</ele>
        <time>2017-10-22T08:03:18.000Z</time>
      </trkpt>
      <trkpt lat="47.49075" lon="6.70557">
        <ele>487.4</ele>
        <time>2017-10-22T08:03:19.000Z</time>
      </trkpt>
      <trkpt lat="47.49075" lon="6.70547">
        <ele>487.5</ele>
        <time>2017-10-22T08:03:20.000Z</time>
      </trkpt>
      <trkpt lat="47.49076" lon="6.70538">
        <ele>487.4</ele>
        <time>2017-10-22T08:03:21.000Z</time>
      </trkpt>
      <trkpt lat="47.49075" lon="6.7053">
        <ele>487.4</ele>
        <time>2017-10-22T08:03:22.000Z</time>
      </trkpt>
      <trkpt lat="47.49073" lon="6.70523">
        <ele>487.2</ele>
        <time>2017-10-22T08:03:23.000Z</time>
      </trkpt>
      <trkpt lat="47.49069" lon="6.70515">
        <ele>487.1</ele>
        <time>2017-10-22T08:03:24.000Z</time>
      </trkpt>
      <trkpt lat="47.49065" lon="6.70505">
        <ele>486.9</ele>
        <time>2017-10-22T08:03:25.000Z</time>
      </trkpt>
      <trkpt lat="47.49062" lon="6.70498">
        <ele>486.6</ele>
        <time>2017-10-22T08:03:26.000Z</time>
      </trkpt>
      <trkpt lat="47.49057" lon="6.70497">
        <ele>486.3</ele>
        <time>2017-10-22T08:03:27.000Z</time>
      </trkpt>
      <trkpt lat="47.49055" lon="6.70493">
        <ele>486</ele>
        <time>2017-10-22T08:03:28.000Z</time>
      </trkpt>
      <trkpt lat="47.49052" lon="6.70488">
        <ele>485.7</ele>
        <time>2017-10-22T08:03:29.000Z</time>
      </trkpt>
      <trkpt lat="47.4905" lon="6.70483">
        <ele>485.5</ele>
        <time>2017-10-22T08:03:30.000Z</time>
      </trkpt>
      <trkpt lat="47.49048" lon="6.7048">
        <ele>485.3</ele>
        <time>2017-10-22T08:03:31.000Z</time>
      </trkpt>
      <trkpt lat="47.49047" lon="6.70475">
        <ele>485.1</ele>
        <time>2017-10-22T08:03:33.000Z</time>
      </trkpt>
      <trkpt lat="47.49046" lon="6.7047">
        <ele>484.8</ele>
        <time>2017-10-22T08:03:34.000Z</time>
      </trkpt>
      <trkpt lat="47.49045" lon="6.70462">
        <ele>484.6</ele>
        <time>2017-10-22T08:03:35.000Z</time>
      </trkpt>
      <trkpt lat="47.49043" lon="6.70451">
        <ele>484.4</ele>
        <time>2017-10-22T08:03:36.000Z</time>
      </trkpt>
      <trkpt lat="47.49041" lon="6.7044">
        <ele>484.1</ele>
        <time>2017-10-22T08:03:37.000Z</time>
      </trkpt>
      <trkpt lat="47.49039" lon="6.70428">
        <ele>483.7</ele>
        <time>2017-10-22T08:03:38.000Z</time>
      </trkpt>
      <trkpt lat="47.49037" lon="6.70417">
        <ele>483.4</ele>
        <time>2017-10-22T08:03:39.000Z</time>
      </trkpt>
      <trkpt lat="47.49034" lon="6.70403">
        <ele>483.1</ele>
        <time>2017-10-22T08:03:40.000Z</time>
      </trkpt>
      <trkpt lat="47.49029" lon="6.70383">
        <ele>482.8</ele>
        <time>2017-10-22T08:03:41.000Z</time>
      </trkpt>
      <trkpt lat="47.49028" lon="6.70377">
        <ele>482.4</ele>
        <time>2017-10-22T08:03:42.000Z</time>
      </trkpt>
      <trkpt lat="47.49026" lon="6.70372">
        <ele>482</ele>
        <time>2017-10-22T08:03:43.000Z</time>
      </trkpt>
      <trkpt lat="47.49023" lon="6.70368">
        <ele>481.3</ele>
        <time>2017-10-22T08:03:44.000Z</time>
      </trkpt>
      <trkpt lat="47.49024" lon="6.70361">
        <ele>480.7</ele>
        <time>2017-10-22T08:03:45.000Z</time>
      </trkpt>
      <trkpt lat="47.49026" lon="6.70352">
        <ele>480.2</ele>
        <time>2017-10-22T08:03:46.000Z</time>
      </trkpt>
      <trkpt lat="47.49025" lon="6.70343">
        <ele>479.9</ele>
        <time>2017-10-22T08:03:47.000Z</time>
      </trkpt>
      <trkpt lat="47.49021" lon="6.70335">
        <ele>479.6</ele>
        <time>2017-10-22T08:03:48.000Z</time>
      </trkpt>
      <trkpt lat="47.49016" lon="6.70327">
        <ele>479.3</ele>
        <time>2017-10-22T08:03:49.000Z</time>
      </trkpt>
      <trkpt lat="47.49011" lon="6.70316">
        <ele>479</ele>
        <time>2017-10-22T08:03:50.000Z</time>
      </trkpt>
      <trkpt lat="47.49008" lon="6.70308">
        <ele>478.6</ele>
        <time>2017-10-22T08:03:51.000Z</time>
      </trkpt>
      <trkpt lat="47.49005" lon="6.70306">
        <ele>478.4</ele>
        <time>2017-10-22T08:03:52.000Z</time>
      </trkpt>
      <trkpt lat="47.49002" lon="6.70299">
        <ele>478.2</ele>
        <time>2017-10-22T08:03:53.000Z</time>
      </trkpt>
      <trkpt lat="47.49" lon="6.70289">
        <ele>478</ele>
        <time>2017-10-22T08:03:54.000Z</time>
      </trkpt>
      <trkpt lat="47.49" lon="6.70284">
        <ele>477.7</ele>
        <time>2017-10-22T08:03:55.000Z</time>
      </trkpt>
      <trkpt lat="47.49" lon="6.7028">
        <ele>477.4</ele>
        <time>2017-10-22T08:03:56.000Z</time>
      </trkpt>
      <trkpt lat="47.49" lon="6.70275">
        <ele>477.2</ele>
        <time>2017-10-22T08:03:57.000Z</time>
      </trkpt>
      <trkpt lat="47.49001" lon="6.70268">
        <ele>477</ele>
        <time>2017-10-22T08:03:58.000Z</time>
      </trkpt>
      <trkpt lat="47.49002" lon="6.70262">
        <ele>476.9</ele>
        <time>2017-10-22T08:03:59.000Z</time>
      </trkpt>
      <trkpt lat="47.49002" lon="6.70257">
        <ele>476.8</ele>
        <time>2017-10-22T08:04:00.000Z</time>
      </trkpt>
      <trkpt lat="47.49001" lon="6.70254">
        <ele>476.7</ele>
        <time>2017-10-22T08:04:10.000Z</time>
      </trkpt>
      <trkpt lat="47.48999" lon="6.70251">
        <ele>476.8</ele>
        <time>2017-10-22T08:04:11.000Z</time>
      </trkpt>
      <trkpt lat="47.48998" lon="6.70243">
        <ele>476.9</ele>
        <time>2017-10-22T08:04:12.000Z</time>
      </trkpt>
      <trkpt lat="47.48996" lon="6.70237">
        <ele>477.1</ele>
        <time>2017-10-22T08:04:13.000Z</time>
      </trkpt>
      <trkpt lat="47.48993" lon="6.70228">
        <ele>477.3</ele>
        <time>2017-10-22T08:04:14.000Z</time>
      </trkpt>
      <trkpt lat="47.48992" lon="6.70223">
        <ele>477.4</ele>
        <time>2017-10-22T08:04:15.000Z</time>
      </trkpt>
      <trkpt lat="47.48991" lon="6.70217">
        <ele>477.6</ele>
        <time>2017-10-22T08:04:16.000Z</time>
      </trkpt>
      <trkpt lat="47.4899" lon="6.70211">
        <ele>477.8</ele>
        <time>2017-10-22T08:04:17.000Z</time>
      </trkpt>
      <trkpt lat="47.48988" lon="6.70202">
        <ele>478</ele>
        <time>2017-10-22T08:04:18.000Z</time>
      </trkpt>
      <trkpt lat="47.48986" lon="6.70197">
        <ele>478.2</ele>
        <time>2017-10-22T08:04:19.000Z</time>
      </trkpt>
      <trkpt lat="47.48984" lon="6.70191">
        <ele>478.4</ele>
        <time>2017-10-22T08:04:20.000Z</time>
      </trkpt>
      <trkpt lat="47.48982" lon="6.70184">
        <ele>478.7</ele>
        <time>2017-10-22T08:04:21.000Z</time>
      </trkpt>
      <trkpt lat="47.4898" lon="6.70176">
        <ele>478.8</ele>
        <time>2017-10-22T08:04:22.000Z</time>
      </trkpt>
      <trkpt lat="47.48977" lon="6.70167">
        <ele>479</ele>
        <time>2017-10-22T08:04:23.000Z</time>
      </trkpt>
      <trkpt lat="47.48975" lon="6.70158">
        <ele>479.2</ele>
        <time>2017-10-22T08:04:24.000Z</time>
      </trkpt>
      <trkpt lat="47.48974" lon="6.70152">
        <ele>479.3</ele>
        <time>2017-10-22T08:04:25.000Z</time>
      </trkpt>
      <trkpt lat="47.48973" lon="6.70147">
        <ele>479.5</ele>
        <time>2017-10-22T08:04:26.000Z</time>
      </trkpt>
      <trkpt lat="47.4897" lon="6.70138">
        <ele>479.6</ele>
        <time>2017-10-22T08:04:27.000Z</time>
      </trkpt>
      <trkpt lat="47.48969" lon="6.70128">
        <ele>479.8</ele>
        <time>2017-10-22T08:04:28.000Z</time>
      </trkpt>
      <trkpt lat="47.48967" lon="6.70123">
        <ele>480</ele>
        <time>2017-10-22T08:04:29.000Z</time>
      </trkpt>
      <trkpt lat="47.48965" lon="6.70118">
        <ele>480.2</ele>
        <time>2017-10-22T08:04:30.000Z</time>
      </trkpt>
      <trkpt lat="47.48965" lon="6.70115">
        <ele>480.5</ele>
        <time>2017-10-22T08:04:31.000Z</time>
      </trkpt>
      <trkpt lat="47.48965" lon="6.7011">
        <ele>480.7</ele>
        <time>2017-10-22T08:04:32.000Z</time>
      </trkpt>
      <trkpt lat="47.48962" lon="6.70102">
        <ele>482.8</ele>
        <time>2017-10-22T08:04:33.000Z</time>
      </trkpt>
      <trkpt lat="47.48959" lon="6.70093">
        <ele>484.6</ele>
        <time>2017-10-22T08:04:34.000Z</time>
      </trkpt>
      <trkpt lat="47.48955" lon="6.70082">
        <ele>486.2</ele>
        <time>2017-10-22T08:04:35.000Z</time>
      </trkpt>
      <trkpt lat="47.48952" lon="6.70072">
        <ele>487.2</ele>
        <time>2017-10-22T08:04:36.000Z</time>
      </trkpt>
      <trkpt lat="47.48949" lon="6.70065">
        <ele>487.3</ele>
        <time>2017-10-22T08:04:37.000Z</time>
      </trkpt>
      <trkpt lat="47.48945" lon="6.70063">
        <ele>487.4</ele>
        <time>2017-10-22T08:04:38.000Z</time>
      </trkpt>
      <trkpt lat="47.48944" lon="6.70064">
        <ele>487.4</ele>
        <time>2017-10-22T08:04:39.000Z</time>
      </trkpt>
      <trkpt lat="47.48943" lon="6.70059">
        <ele>489.1</ele>
        <time>2017-10-22T08:05:07.000Z</time>
      </trkpt>
      <trkpt lat="47.4894" lon="6.70053">
        <ele>489.1</ele>
        <time>2017-10-22T08:05:08.000Z</time>
      </trkpt>
      <trkpt lat="47.48936" lon="6.70046">
        <ele>489</ele>
        <time>2017-10-22T08:05:09.000Z</time>
      </trkpt>
      <trkpt lat="47.48902" lon="6.69993">
        <ele>484</ele>
        <time>2017-10-22T08:05:16.000Z</time>
      </trkpt>
      <trkpt lat="47.48879" lon="6.69937">
        <ele>483.8</ele>
        <time>2017-10-22T08:05:21.000Z</time>
      </trkpt>
      <trkpt lat="47.48873" lon="6.69924">
        <ele>484</ele>
        <time>2017-10-22T08:05:22.000Z</time>
      </trkpt>
      <trkpt lat="47.48866" lon="6.6991">
        <ele>484.5</ele>
        <time>2017-10-22T08:05:23.000Z</time>
      </trkpt>
      <trkpt lat="47.48847" lon="6.69869">
        <ele>479.8</ele>
        <time>2017-10-22T08:05:26.000Z</time>
      </trkpt>
      <trkpt lat="47.48815" lon="6.69808">
        <ele>473.3</ele>
        <time>2017-10-22T08:05:30.000Z</time>
      </trkpt>
      <trkpt lat="47.48798" lon="6.69777">
        <ele>470.6</ele>
        <time>2017-10-22T08:05:32.000Z</time>
      </trkpt>
      <trkpt lat="47.4879" lon="6.69764">
        <ele>469.3</ele>
        <time>2017-10-22T08:05:33.000Z</time>
      </trkpt>
      <trkpt lat="47.4878" lon="6.69749">
        <ele>469</ele>
        <time>2017-10-22T08:05:34.000Z</time>
      </trkpt>
      <trkpt lat="47.4877" lon="6.69734">
        <ele>467.8</ele>
        <time>2017-10-22T08:05:35.000Z</time>
      </trkpt>
      <trkpt lat="47.48761" lon="6.69723">
        <ele>465.7</ele>
        <time>2017-10-22T08:05:36.000Z</time>
      </trkpt>
      <trkpt lat="47.48753" lon="6.69711">
        <ele>463.9</ele>
        <time>2017-10-22T08:05:37.000Z</time>
      </trkpt>
      <trkpt lat="47.48746" lon="6.69699">
        <ele>462.5</ele>
        <time>2017-10-22T08:05:38.000Z</time>
      </trkpt>
      <trkpt lat="47.48722" lon="6.69666">
        <ele>461.6</ele>
        <time>2017-10-22T08:05:42.000Z</time>
      </trkpt>
      <trkpt lat="47.48717" lon="6.69658">
        <ele>461.5</ele>
        <time>2017-10-22T08:05:43.000Z</time>
      </trkpt>
      <trkpt lat="47.48711" lon="6.6965">
        <ele>460.8</ele>
        <time>2017-10-22T08:05:44.000Z</time>
      </trkpt>
      <trkpt lat="47.48703" lon="6.6964">
        <ele>459.1</ele>
        <time>2017-10-22T08:05:45.000Z</time>
      </trkpt>
      <trkpt lat="47.48696" lon="6.69629">
        <ele>457.5</ele>
        <time>2017-10-22T08:05:46.000Z</time>
      </trkpt>
      <trkpt lat="47.48682" lon="6.69604">
        <ele>453.8</ele>
        <time>2017-10-22T08:05:48.000Z</time>
      </trkpt>
      <trkpt lat="47.48676" lon="6.69589">
        <ele>451.9</ele>
        <time>2017-10-22T08:05:49.000Z</time>
      </trkpt>
      <trkpt lat="47.4867" lon="6.69578">
        <ele>449.8</ele>
        <time>2017-10-22T08:05:50.000Z</time>
      </trkpt>
      <trkpt lat="47.48665" lon="6.69571">
        <ele>448.6</ele>
        <time>2017-10-22T08:05:51.000Z</time>
      </trkpt>
      <trkpt lat="47.48658" lon="6.69563">
        <ele>447.9</ele>
        <time>2017-10-22T08:05:52.000Z</time>
      </trkpt>
      <trkpt lat="47.4865" lon="6.69555">
        <ele>446.8</ele>
        <time>2017-10-22T08:05:53.000Z</time>
      </trkpt>
      <trkpt lat="47.48643" lon="6.69544">
        <ele>445.6</ele>
        <time>2017-10-22T08:05:54.000Z</time>
      </trkpt>
      <trkpt lat="47.48638" lon="6.69535">
        <ele>445.9</ele>
        <time>2017-10-22T08:05:55.000Z</time>
      </trkpt>
      <trkpt lat="47.48632" lon="6.69526">
        <ele>446.7</ele>
        <time>2017-10-22T08:05:56.000Z</time>
      </trkpt>
      <trkpt lat="47.48626" lon="6.69518">
        <ele>447.9</ele>
        <time>2017-10-22T08:05:57.000Z</time>
      </trkpt>
      <trkpt lat="47.4862" lon="6.69509">
        <ele>449.1</ele>
        <time>2017-10-22T08:05:58.000Z</time>
      </trkpt>
      <trkpt lat="47.48614" lon="6.69503">
        <ele>449.3</ele>
        <time>2017-10-22T08:05:59.000Z</time>
      </trkpt>
      <trkpt lat="47.48608" lon="6.69496">
        <ele>448.8</ele>
        <time>2017-10-22T08:06:00.000Z</time>
      </trkpt>
      <trkpt lat="47.48604" lon="6.69492">
        <ele>447.3</ele>
        <time>2017-10-22T08:06:01.000Z</time>
      </trkpt>
      <trkpt lat="47.486" lon="6.69488">
        <ele>445.8</ele>
        <time>2017-10-22T08:06:02.000Z</time>
      </trkpt>
      <trkpt lat="47.48595" lon="6.69484">
        <ele>444</ele>
        <time>2017-10-22T08:06:03.000Z</time>
      </trkpt>
      <trkpt lat="47.4859" lon="6.69477">
        <ele>441.6</ele>
        <time>2017-10-22T08:06:04.000Z</time>
      </trkpt>
      <trkpt lat="47.48584" lon="6.69467">
        <ele>439.5</ele>
        <time>2017-10-22T08:06:05.000Z</time>
      </trkpt>
      <trkpt lat="47.48579" lon="6.69458">
        <ele>437.8</ele>
        <time>2017-10-22T08:06:06.000Z</time>
      </trkpt>
      <trkpt lat="47.48574" lon="6.6945">
        <ele>435.8</ele>
        <time>2017-10-22T08:06:07.000Z</time>
      </trkpt>
      <trkpt lat="47.48568" lon="6.69445">
        <ele>434.9</ele>
        <time>2017-10-22T08:06:08.000Z</time>
      </trkpt>
      <trkpt lat="47.48563" lon="6.69441">
        <ele>433</ele>
        <time>2017-10-22T08:06:09.000Z</time>
      </trkpt>
      <trkpt lat="47.48558" lon="6.69439">
        <ele>432.8</ele>
        <time>2017-10-22T08:06:10.000Z</time>
      </trkpt>
      <trkpt lat="47.48551" lon="6.69434">
        <ele>432.7</ele>
        <time>2017-10-22T08:06:11.000Z</time>
      </trkpt>
      <trkpt lat="47.48544" lon="6.69426">
        <ele>431.8</ele>
        <time>2017-10-22T08:06:12.000Z</time>
      </trkpt>
      <trkpt lat="47.48536" lon="6.69417">
        <ele>431.2</ele>
        <time>2017-10-22T08:06:13.000Z</time>
      </trkpt>
      <trkpt lat="47.4853" lon="6.6941">
        <ele>430.4</ele>
        <time>2017-10-22T08:06:14.000Z</time>
      </trkpt>
      <trkpt lat="47.48522" lon="6.69402">
        <ele>430</ele>
        <time>2017-10-22T08:06:15.000Z</time>
      </trkpt>
      <trkpt lat="47.48516" lon="6.69395">
        <ele>429.2</ele>
        <time>2017-10-22T08:06:16.000Z</time>
      </trkpt>
      <trkpt lat="47.4851" lon="6.69388">
        <ele>427.4</ele>
        <time>2017-10-22T08:06:17.000Z</time>
      </trkpt>
      <trkpt lat="47.48504" lon="6.69381">
        <ele>426.7</ele>
        <time>2017-10-22T08:06:18.000Z</time>
      </trkpt>
      <trkpt lat="47.48498" lon="6.69373">
        <ele>425.6</ele>
        <time>2017-10-22T08:06:19.000Z</time>
      </trkpt>
      <trkpt lat="47.48491" lon="6.69362">
        <ele>423.7</ele>
        <time>2017-10-22T08:06:20.000Z</time>
      </trkpt>
      <trkpt lat="47.48483" lon="6.6935">
        <ele>421.8</ele>
        <time>2017-10-22T08:06:21.000Z</time>
      </trkpt>
      <trkpt lat="47.48475" lon="6.69338">
        <ele>420.3</ele>
        <time>2017-10-22T08:06:22.000Z</time>
      </trkpt>
      <trkpt lat="47.48467" lon="6.69324">
        <ele>419.9</ele>
        <time>2017-10-22T08:06:23.000Z</time>
      </trkpt>
      <trkpt lat="47.48457" lon="6.69308">
        <ele>419.7</ele>
        <time>2017-10-22T08:06:24.000Z</time>
      </trkpt>
      <trkpt lat="47.48452" lon="6.69294">
        <ele>419.4</ele>
        <time>2017-10-22T08:06:25.000Z</time>
      </trkpt>
      <trkpt lat="47.48444" lon="6.6928">
        <ele>419.7</ele>
        <time>2017-10-22T08:06:26.000Z</time>
      </trkpt>
      <trkpt lat="47.48436" lon="6.6927">
        <ele>420.2</ele>
        <time>2017-10-22T08:06:27.000Z</time>
      </trkpt>
      <trkpt lat="47.48429" lon="6.69261">
        <ele>420.1</ele>
        <time>2017-10-22T08:06:28.000Z</time>
      </trkpt>
      <trkpt lat="47.48424" lon="6.69255">
        <ele>419.1</ele>
        <time>2017-10-22T08:06:29.000Z</time>
      </trkpt>
      <trkpt lat="47.4842" lon="6.69249">
        <ele>418.1</ele>
        <time>2017-10-22T08:06:30.000Z</time>
      </trkpt>
      <trkpt lat="47.48416" lon="6.69243">
        <ele>418.1</ele>
        <time>2017-10-22T08:06:31.000Z</time>
      </trkpt>
      <trkpt lat="47.48413" lon="6.69237">
        <ele>418.2</ele>
        <time>2017-10-22T08:06:32.000Z</time>
      </trkpt>
      <trkpt lat="47.48406" lon="6.69231">
        <ele>417.3</ele>
        <time>2017-10-22T08:06:33.000Z</time>
      </trkpt>
      <trkpt lat="47.48399" lon="6.69227">
        <ele>417.2</ele>
        <time>2017-10-22T08:06:34.000Z</time>
      </trkpt>
      <trkpt lat="47.48389" lon="6.69221">
        <ele>417</ele>
        <time>2017-10-22T08:06:35.000Z</time>
      </trkpt>
      <trkpt lat="47.48382" lon="6.69219">
        <ele>414.6</ele>
        <time>2017-10-22T08:06:36.000Z</time>
      </trkpt>
      <trkpt lat="47.48374" lon="6.69217">
        <ele>412.9</ele>
        <time>2017-10-22T08:06:37.000Z</time>
      </trkpt>
      <trkpt lat="47.48367" lon="6.69215">
        <ele>411</ele>
        <time>2017-10-22T08:06:38.000Z</time>
      </trkpt>
      <trkpt lat="47.48361" lon="6.69212">
        <ele>409.3</ele>
        <time>2017-10-22T08:06:39.000Z</time>
      </trkpt>
      <trkpt lat="47.48355" lon="6.69211">
        <ele>407.4</ele>
        <time>2017-10-22T08:06:40.000Z</time>
      </trkpt>
      <trkpt lat="47.48349" lon="6.69208">
        <ele>405.7</ele>
        <time>2017-10-22T08:06:41.000Z</time>
      </trkpt>
      <trkpt lat="47.48343" lon="6.69207">
        <ele>403.9</ele>
        <time>2017-10-22T08:06:42.000Z</time>
      </trkpt>
      <trkpt lat="47.48337" lon="6.69206">
        <ele>403.6</ele>
        <time>2017-10-22T08:06:43.000Z</time>
      </trkpt>
      <trkpt lat="47.48328" lon="6.69206">
        <ele>403.4</ele>
        <time>2017-10-22T08:06:44.000Z</time>
      </trkpt>
      <trkpt lat="47.48322" lon="6.69208">
        <ele>403.2</ele>
        <time>2017-10-22T08:06:45.000Z</time>
      </trkpt>
      <trkpt lat="47.48315" lon="6.69211">
        <ele>403</ele>
        <time>2017-10-22T08:06:46.000Z</time>
      </trkpt>
      <trkpt lat="47.4831" lon="6.69214">
        <ele>400.6</ele>
        <time>2017-10-22T08:06:47.000Z</time>
      </trkpt>
      <trkpt lat="47.48306" lon="6.69219">
        <ele>400.4</ele>
        <time>2017-10-22T08:06:48.000Z</time>
      </trkpt>
      <trkpt lat="47.48301" lon="6.69222">
        <ele>398.3</ele>
        <time>2017-10-22T08:06:49.000Z</time>
      </trkpt>
      <trkpt lat="47.48296" lon="6.69224">
        <ele>398.1</ele>
        <time>2017-10-22T08:06:50.000Z</time>
      </trkpt>
      <trkpt lat="47.4829" lon="6.69224">
        <ele>395.4</ele>
        <time>2017-10-22T08:06:51.000Z</time>
      </trkpt>
      <trkpt lat="47.48282" lon="6.69223">
        <ele>393.8</ele>
        <time>2017-10-22T08:06:52.000Z</time>
      </trkpt>
      <trkpt lat="47.48274" lon="6.69221">
        <ele>392.7</ele>
        <time>2017-10-22T08:06:53.000Z</time>
      </trkpt>
      <trkpt lat="47.48267" lon="6.69219">
        <ele>392.1</ele>
        <time>2017-10-22T08:06:54.000Z</time>
      </trkpt>
      <trkpt lat="47.48262" lon="6.69215">
        <ele>392.3</ele>
        <time>2017-10-22T08:06:55.000Z</time>
      </trkpt>
      <trkpt lat="47.48258" lon="6.6921">
        <ele>392.4</ele>
        <time>2017-10-22T08:06:56.000Z</time>
      </trkpt>
      <trkpt lat="47.48254" lon="6.69202">
        <ele>392.7</ele>
        <time>2017-10-22T08:06:57.000Z</time>
      </trkpt>
      <trkpt lat="47.4825" lon="6.69196">
        <ele>392.9</ele>
        <time>2017-10-22T08:06:58.000Z</time>
      </trkpt>
      <trkpt lat="47.48247" lon="6.6919">
        <ele>393.8</ele>
        <time>2017-10-22T08:06:59.000Z</time>
      </trkpt>
      <trkpt lat="47.48243" lon="6.69183">
        <ele>395.2</ele>
        <time>2017-10-22T08:07:00.000Z</time>
      </trkpt>
      <trkpt lat="47.48239" lon="6.69176">
        <ele>397.4</ele>
        <time>2017-10-22T08:07:01.000Z</time>
      </trkpt>
      <trkpt lat="47.48237" lon="6.6917">
        <ele>398.9</ele>
        <time>2017-10-22T08:07:02.000Z</time>
      </trkpt>
      <trkpt lat="47.48234" lon="6.69164">
        <ele>399.4</ele>
        <time>2017-10-22T08:07:03.000Z</time>
      </trkpt>
      <trkpt lat="47.48232" lon="6.69158">
        <ele>399.4</ele>
        <time>2017-10-22T08:07:04.000Z</time>
      </trkpt>
      <trkpt lat="47.4823" lon="6.69153">
        <ele>399.5</ele>
        <time>2017-10-22T08:07:05.000Z</time>
      </trkpt>
      <trkpt lat="47.48227" lon="6.69149">
        <ele>399.4</ele>
        <time>2017-10-22T08:07:06.000Z</time>
      </trkpt>
      <trkpt lat="47.48225" lon="6.69144">
        <ele>399.3</ele>
        <time>2017-10-22T08:07:07.000Z</time>
      </trkpt>
      <trkpt lat="47.48223" lon="6.69139">
        <ele>399.2</ele>
        <time>2017-10-22T08:07:08.000Z</time>
      </trkpt>
      <trkpt lat="47.48222" lon="6.69135">
        <ele>399.2</ele>
        <time>2017-10-22T08:07:09.000Z</time>
      </trkpt>
      <trkpt lat="47.4822" lon="6.69132">
        <ele>399.1</ele>
        <time>2017-10-22T08:07:10.000Z</time>
      </trkpt>
      <trkpt lat="47.48218" lon="6.69129">
        <ele>399.1</ele>
        <time>2017-10-22T08:07:11.000Z</time>
      </trkpt>
      <trkpt lat="47.48216" lon="6.69125">
        <ele>399.1</ele>
        <time>2017-10-22T08:07:12.000Z</time>
      </trkpt>
      <trkpt lat="47.48214" lon="6.6912">
        <ele>399.2</ele>
        <time>2017-10-22T08:07:13.000Z</time>
      </trkpt>
      <trkpt lat="47.48211" lon="6.69115">
        <ele>399.3</ele>
        <time>2017-10-22T08:07:14.000Z</time>
      </trkpt>
      <trkpt lat="47.48208" lon="6.69112">
        <ele>399.3</ele>
        <time>2017-10-22T08:07:15.000Z</time>
      </trkpt>
      <trkpt lat="47.48205" lon="6.69112">
        <ele>399.3</ele>
        <time>2017-10-22T08:07:16.000Z</time>
      </trkpt>
      <trkpt lat="47.48202" lon="6.69115">
        <ele>399.2</ele>
        <time>2017-10-22T08:07:17.000Z</time>
      </trkpt>
      <trkpt lat="47.482" lon="6.69118">
        <ele>399.1</ele>
        <time>2017-10-22T08:07:18.000Z</time>
      </trkpt>
      <trkpt lat="47.48199" lon="6.69122">
        <ele>399</ele>
        <time>2017-10-22T08:07:19.000Z</time>
      </trkpt>
      <trkpt lat="47.48197" lon="6.69126">
        <ele>398.8</ele>
        <time>2017-10-22T08:07:20.000Z</time>
      </trkpt>
      <trkpt lat="47.48195" lon="6.69129">
        <ele>398.6</ele>
        <time>2017-10-22T08:07:21.000Z</time>
      </trkpt>
      <trkpt lat="47.48192" lon="6.69133">
        <ele>398</ele>
        <time>2017-10-22T08:07:26.000Z</time>
      </trkpt>
      <trkpt lat="47.48192" lon="6.69135">
        <ele>398</ele>
        <time>2017-10-22T08:07:27.000Z</time>
      </trkpt>
      <trkpt lat="47.48189" lon="6.69139">
        <ele>400.1</ele>
        <time>2017-10-22T08:07:57.000Z</time>
      </trkpt>
      <trkpt lat="47.482" lon="6.69137">
        <ele>400.3</ele>
        <time>2017-10-22T08:07:58.000Z</time>
      </trkpt>
      <trkpt lat="47.48204" lon="6.69134">
        <ele>400.5</ele>
        <time>2017-10-22T08:07:59.000Z</time>
      </trkpt>
      <trkpt lat="47.48206" lon="6.69131">
        <ele>400.6</ele>
        <time>2017-10-22T08:08:00.000Z</time>
      </trkpt>
      <trkpt lat="47.48207" lon="6.69128">
        <ele>400.7</ele>
        <time>2017-10-22T08:08:01.000Z</time>
      </trkpt>
      <trkpt lat="47.48207" lon="6.69128">
        <ele>401.1</ele>
        <time>2017-10-22T08:08:05.000Z</time>
      </trkpt>
      <trkpt lat="47.4822" lon="6.69117">
        <ele>401.3</ele>
        <time>2017-10-22T08:08:06.000Z</time>
      </trkpt>
      <trkpt lat="47.4822" lon="6.69117">
        <ele>403</ele>
        <time>2017-10-22T08:08:17.000Z</time>
      </trkpt>
      <trkpt lat="47.4823" lon="6.69126">
        <ele>402.9</ele>
        <time>2017-10-22T08:08:18.000Z</time>
      </trkpt>
      <trkpt lat="47.48231" lon="6.69129">
        <ele>402.9</ele>
        <time>2017-10-22T08:08:19.000Z</time>
      </trkpt>
      <trkpt lat="47.48231" lon="6.69133">
        <ele>402.9</ele>
        <time>2017-10-22T08:08:20.000Z</time>
      </trkpt>
      <trkpt lat="47.48231" lon="6.69136">
        <ele>402.8</ele>
        <time>2017-10-22T08:08:21.000Z</time>
      </trkpt>
      <trkpt lat="47.48232" lon="6.6914">
        <ele>402.6</ele>
        <time>2017-10-22T08:08:22.000Z</time>
      </trkpt>
      <trkpt lat="47.48233" lon="6.69143">
        <ele>402.4</ele>
        <time>2017-10-22T08:08:23.000Z</time>
      </trkpt>
      <trkpt lat="47.48234" lon="6.69147">
        <ele>402.2</ele>
        <time>2017-10-22T08:08:24.000Z</time>
      </trkpt>
      <trkpt lat="47.48235" lon="6.6915">
        <ele>402.2</ele>
        <time>2017-10-22T08:08:25.000Z</time>
      </trkpt>
      <trkpt lat="47.48236" lon="6.69155">
        <ele>402.2</ele>
        <time>2017-10-22T08:08:26.000Z</time>
      </trkpt>
      <trkpt lat="47.48237" lon="6.69159">
        <ele>402.1</ele>
        <time>2017-10-22T08:08:27.000Z</time>
      </trkpt>
      <trkpt lat="47.48239" lon="6.69163">
        <ele>402</ele>
        <time>2017-10-22T08:08:28.000Z</time>
      </trkpt>
      <trkpt lat="47.4824" lon="6.69167">
        <ele>401.9</ele>
        <time>2017-10-22T08:08:29.000Z</time>
      </trkpt>
      <trkpt lat="47.48241" lon="6.69171">
        <ele>401.9</ele>
        <time>2017-10-22T08:08:30.000Z</time>
      </trkpt>
      <trkpt lat="47.48242" lon="6.69175">
        <ele>401.8</ele>
        <time>2017-10-22T08:08:31.000Z</time>
      </trkpt>
      <trkpt lat="47.48243" lon="6.69178">
        <ele>401.8</ele>
        <time>2017-10-22T08:08:32.000Z</time>
      </trkpt>
      <trkpt lat="47.48244" lon="6.69181">
        <ele>401.7</ele>
        <time>2017-10-22T08:08:33.000Z</time>
      </trkpt>
      <trkpt lat="47.48246" lon="6.69185">
        <ele>401.6</ele>
        <time>2017-10-22T08:08:34.000Z</time>
      </trkpt>
      <trkpt lat="47.48247" lon="6.69188">
        <ele>401.6</ele>
        <time>2017-10-22T08:08:35.000Z</time>
      </trkpt>
      <trkpt lat="47.48248" lon="6.69192">
        <ele>401.5</ele>
        <time>2017-10-22T08:08:36.000Z</time>
      </trkpt>
      <trkpt lat="47.48249" lon="6.69196">
        <ele>401.4</ele>
        <time>2017-10-22T08:08:37.000Z</time>
      </trkpt>
      <trkpt lat="47.48251" lon="6.692">
        <ele>401.4</ele>
        <time>2017-10-22T08:08:38.000Z</time>
      </trkpt>
      <trkpt lat="47.48252" lon="6.69204">
        <ele>401.3</ele>
        <time>2017-10-22T08:08:39.000Z</time>
      </trkpt>
      <trkpt lat="47.48253" lon="6.69208">
        <ele>401.3</ele>
        <time>2017-10-22T08:08:40.000Z</time>
      </trkpt>
      <trkpt lat="47.48255" lon="6.69212">
        <ele>401.2</ele>
        <time>2017-10-22T08:08:41.000Z</time>
      </trkpt>
      <trkpt lat="47.48256" lon="6.69215">
        <ele>401.2</ele>
        <time>2017-10-22T08:08:42.000Z</time>
      </trkpt>
      <trkpt lat="47.48257" lon="6.69219">
        <ele>401.1</ele>
        <time>2017-10-22T08:08:43.000Z</time>
      </trkpt>
      <trkpt lat="47.48259" lon="6.69223">
        <ele>401.1</ele>
        <time>2017-10-22T08:08:44.000Z</time>
      </trkpt>
      <trkpt lat="47.48261" lon="6.69226">
        <ele>401.1</ele>
        <time>2017-10-22T08:08:45.000Z</time>
      </trkpt>
      <trkpt lat="47.48263" lon="6.69227">
        <ele>401.1</ele>
        <time>2017-10-22T08:08:46.000Z</time>
      </trkpt>
      <trkpt lat="47.48265" lon="6.69227">
        <ele>401.1</ele>
        <time>2017-10-22T08:08:47.000Z</time>
      </trkpt>
      <trkpt lat="47.48267" lon="6.69226">
        <ele>401.1</ele>
        <time>2017-10-22T08:08:48.000Z</time>
      </trkpt>
      <trkpt lat="47.48272" lon="6.69227">
        <ele>401.1</ele>
        <time>2017-10-22T08:08:50.000Z</time>
      </trkpt>
      <trkpt lat="47.48276" lon="6.69228">
        <ele>401</ele>
        <time>2017-10-22T08:08:51.000Z</time>
      </trkpt>
      <trkpt lat="47.48279" lon="6.69231">
        <ele>401</ele>
        <time>2017-10-22T08:08:52.000Z</time>
      </trkpt>
      <trkpt lat="47.4828" lon="6.69233">
        <ele>400.9</ele>
        <time>2017-10-22T08:08:53.000Z</time>
      </trkpt>
      <trkpt lat="47.4828" lon="6.69233">
        <ele>401.4</ele>
        <time>2017-10-22T08:09:03.000Z</time>
      </trkpt>
      <trkpt lat="47.48297" lon="6.69215">
        <ele>401.6</ele>
        <time>2017-10-22T08:09:04.000Z</time>
      </trkpt>
      <trkpt lat="47.48297" lon="6.69215">
        <ele>404</ele>
        <time>2017-10-22T08:09:21.000Z</time>
      </trkpt>
      <trkpt lat="47.48286" lon="6.69226">
        <ele>404</ele>
        <time>2017-10-22T08:09:22.000Z</time>
      </trkpt>
      <trkpt lat="47.48283" lon="6.6923">
        <ele>404.3</ele>
        <time>2017-10-22T08:09:23.000Z</time>
      </trkpt>
      <trkpt lat="47.48278" lon="6.69236">
        <ele>404.5</ele>
        <time>2017-10-22T08:09:24.000Z</time>
      </trkpt>
      <trkpt lat="47.48274" lon="6.69236">
        <ele>404.7</ele>
        <time>2017-10-22T08:09:25.000Z</time>
      </trkpt>
      <trkpt lat="47.48271" lon="6.69235">
        <ele>404.8</ele>
        <time>2017-10-22T08:09:26.000Z</time>
      </trkpt>
      <trkpt lat="47.48268" lon="6.69231">
        <ele>405</ele>
        <time>2017-10-22T08:09:27.000Z</time>
      </trkpt>
      <trkpt lat="47.48265" lon="6.69228">
        <ele>405.1</ele>
        <time>2017-10-22T08:09:28.000Z</time>
      </trkpt>
      <trkpt lat="47.48262" lon="6.69226">
        <ele>405.1</ele>
        <time>2017-10-22T08:09:29.000Z</time>
      </trkpt>
      <trkpt lat="47.48259" lon="6.69226">
        <ele>405.1</ele>
        <time>2017-10-22T08:09:30.000Z</time>
      </trkpt>
      <trkpt lat="47.48256" lon="6.69226">
        <ele>405.1</ele>
        <time>2017-10-22T08:09:31.000Z</time>
      </trkpt>
      <trkpt lat="47.48254" lon="6.69222">
        <ele>405</ele>
        <time>2017-10-22T08:09:32.000Z</time>
      </trkpt>
      <trkpt lat="47.48252" lon="6.69219">
        <ele>404.8</ele>
        <time>2017-10-22T08:09:33.000Z</time>
      </trkpt>
      <trkpt lat="47.48251" lon="6.69216">
        <ele>404.8</ele>
        <time>2017-10-22T08:09:34.000Z</time>
      </trkpt>
      <trkpt lat="47.48251" lon="6.69214">
        <ele>407.1</ele>
        <time>2017-10-22T08:09:57.000Z</time>
      </trkpt>
      <trkpt lat="47.48246" lon="6.69201">
        <ele>407.3</ele>
        <time>2017-10-22T08:09:58.000Z</time>
      </trkpt>
      <trkpt lat="47.48244" lon="6.69198">
        <ele>407.3</ele>
        <time>2017-10-22T08:09:59.000Z</time>
      </trkpt>
      <trkpt lat="47.48242" lon="6.69194">
        <ele>407.4</ele>
        <time>2017-10-22T08:10:00.000Z</time>
      </trkpt>
      <trkpt lat="47.48241" lon="6.69189">
        <ele>407.5</ele>
        <time>2017-10-22T08:10:01.000Z</time>
      </trkpt>
      <trkpt lat="47.48239" lon="6.69183">
        <ele>407.4</ele>
        <time>2017-10-22T08:10:02.000Z</time>
      </trkpt>
      <trkpt lat="47.48237" lon="6.69178">
        <ele>407.4</ele>
        <time>2017-10-22T08:10:03.000Z</time>
      </trkpt>
      <trkpt lat="47.48235" lon="6.69171">
        <ele>407.4</ele>
        <time>2017-10-22T08:10:04.000Z</time>
      </trkpt>
      <trkpt lat="47.48233" lon="6.69166">
        <ele>407.4</ele>
        <time>2017-10-22T08:10:05.000Z</time>
      </trkpt>
      <trkpt lat="47.48232" lon="6.69162">
        <ele>407.4</ele>
        <time>2017-10-22T08:10:06.000Z</time>
      </trkpt>
      <trkpt lat="47.4823" lon="6.69156">
        <ele>407</ele>
        <time>2017-10-22T08:10:07.000Z</time>
      </trkpt>
      <trkpt lat="47.48229" lon="6.69151">
        <ele>406.6</ele>
        <time>2017-10-22T08:10:08.000Z</time>
      </trkpt>
      <trkpt lat="47.48226" lon="6.69146">
        <ele>406.5</ele>
        <time>2017-10-22T08:10:09.000Z</time>
      </trkpt>
      <trkpt lat="47.48224" lon="6.6914">
        <ele>406.2</ele>
        <time>2017-10-22T08:10:10.000Z</time>
      </trkpt>
      <trkpt lat="47.48222" lon="6.69134">
        <ele>405.6</ele>
        <time>2017-10-22T08:10:11.000Z</time>
      </trkpt>
      <trkpt lat="47.48219" lon="6.69129">
        <ele>405</ele>
        <time>2017-10-22T08:10:12.000Z</time>
      </trkpt>
      <trkpt lat="47.48218" lon="6.69123">
        <ele>404.4</ele>
        <time>2017-10-22T08:10:13.000Z</time>
      </trkpt>
      <trkpt lat="47.48216" lon="6.69116">
        <ele>404</ele>
        <time>2017-10-22T08:10:14.000Z</time>
      </trkpt>
      <trkpt lat="47.48213" lon="6.69113">
        <ele>403.8</ele>
        <time>2017-10-22T08:10:15.000Z</time>
      </trkpt>
      <trkpt lat="47.4821" lon="6.6911">
        <ele>403.7</ele>
        <time>2017-10-22T08:10:16.000Z</time>
      </trkpt>
      <trkpt lat="47.48207" lon="6.69109">
        <ele>403.6</ele>
        <time>2017-10-22T08:10:17.000Z</time>
      </trkpt>
      <trkpt lat="47.48205" lon="6.69113">
        <ele>403.5</ele>
        <time>2017-10-22T08:10:18.000Z</time>
      </trkpt>
      <trkpt lat="47.48202" lon="6.69117">
        <ele>403.4</ele>
        <time>2017-10-22T08:10:19.000Z</time>
      </trkpt>
      <trkpt lat="47.48201" lon="6.6912">
        <ele>403.3</ele>
        <time>2017-10-22T08:10:20.000Z</time>
      </trkpt>
      <trkpt lat="47.48198" lon="6.69123">
        <ele>403.2</ele>
        <time>2017-10-22T08:10:21.000Z</time>
      </trkpt>
      <trkpt lat="47.48196" lon="6.69127">
        <ele>403</ele>
        <time>2017-10-22T08:10:22.000Z</time>
      </trkpt>
      <trkpt lat="47.48191" lon="6.69134">
        <ele>402.7</ele>
        <time>2017-10-22T08:10:23.000Z</time>
      </trkpt>
      <trkpt lat="47.48188" lon="6.69137">
        <ele>402.4</ele>
        <time>2017-10-22T08:10:24.000Z</time>
      </trkpt>
      <trkpt lat="47.48186" lon="6.69139">
        <ele>402.2</ele>
        <time>2017-10-22T08:10:25.000Z</time>
      </trkpt>
      <trkpt lat="47.48185" lon="6.6914">
        <ele>400.8</ele>
        <time>2017-10-22T08:10:38.000Z</time>
      </trkpt>
      <trkpt lat="47.48175" lon="6.69126">
        <ele>400.5</ele>
        <time>2017-10-22T08:10:39.000Z</time>
      </trkpt>
      <trkpt lat="47.48175" lon="6.69126">
        <ele>399.2</ele>
        <time>2017-10-22T08:10:46.000Z</time>
      </trkpt>
      <trkpt lat="47.48164" lon="6.69119">
        <ele>399</ele>
        <time>2017-10-22T08:10:47.000Z</time>
      </trkpt>
      <trkpt lat="47.48164" lon="6.69119">
        <ele>398.5</ele>
        <time>2017-10-22T08:10:53.000Z</time>
      </trkpt>
      <trkpt lat="47.48146" lon="6.69106">
        <ele>398.4</ele>
        <time>2017-10-22T08:10:54.000Z</time>
      </trkpt>
      <trkpt lat="47.48146" lon="6.69106">
        <ele>397.8</ele>
        <time>2017-10-22T08:10:59.000Z</time>
      </trkpt>
      <trkpt lat="47.4813" lon="6.69094">
        <ele>397.7</ele>
        <time>2017-10-22T08:11:00.000Z</time>
      </trkpt>
      <trkpt lat="47.4813" lon="6.69094">
        <ele>397.4</ele>
        <time>2017-10-22T08:11:06.000Z</time>
      </trkpt>
      <trkpt lat="47.4812" lon="6.69079">
        <ele>397.4</ele>
        <time>2017-10-22T08:11:07.000Z</time>
      </trkpt>
      <trkpt lat="47.4812" lon="6.69079">
        <ele>396.9</ele>
        <time>2017-10-22T08:11:12.000Z</time>
      </trkpt>
      <trkpt lat="47.4811" lon="6.69064">
        <ele>396.7</ele>
        <time>2017-10-22T08:11:13.000Z</time>
      </trkpt>
      <trkpt lat="47.4811" lon="6.69064">
        <ele>396.7</ele>
        <time>2017-10-22T08:11:14.000Z</time>
      </trkpt>
      <trkpt lat="47.48098" lon="6.69054">
        <ele>396.6</ele>
        <time>2017-10-22T08:11:15.000Z</time>
      </trkpt>
      <trkpt lat="47.48098" lon="6.69054">
        <ele>396.3</ele>
        <time>2017-10-22T08:11:19.000Z</time>
      </trkpt>
      <trkpt lat="47.48087" lon="6.69046">
        <ele>396.2</ele>
        <time>2017-10-22T08:11:20.000Z</time>
      </trkpt>
      <trkpt lat="47.48084" lon="6.69042">
        <ele>396.1</ele>
        <time>2017-10-22T08:11:21.000Z</time>
      </trkpt>
      <trkpt lat="47.48082" lon="6.6904">
        <ele>395.9</ele>
        <time>2017-10-22T08:11:22.000Z</time>
      </trkpt>
      <trkpt lat="47.48076" lon="6.69036">
        <ele>395.8</ele>
        <time>2017-10-22T08:11:23.000Z</time>
      </trkpt>
      <trkpt lat="47.48076" lon="6.69036">
        <ele>395.3</ele>
        <time>2017-10-22T08:11:28.000Z</time>
      </trkpt>
      <trkpt lat="47.48069" lon="6.69024">
        <ele>395.3</ele>
        <time>2017-10-22T08:11:29.000Z</time>
      </trkpt>
      <trkpt lat="47.48067" lon="6.6902">
        <ele>395.3</ele>
        <time>2017-10-22T08:11:30.000Z</time>
      </trkpt>
      <trkpt lat="47.48064" lon="6.69018">
        <ele>395.2</ele>
        <time>2017-10-22T08:11:31.000Z</time>
      </trkpt>
      <trkpt lat="47.48061" lon="6.69014">
        <ele>394.9</ele>
        <time>2017-10-22T08:11:35.000Z</time>
      </trkpt>
      <trkpt lat="47.48061" lon="6.69013">
        <ele>394.8</ele>
        <time>2017-10-22T08:11:36.000Z</time>
      </trkpt>
      <trkpt lat="47.48061" lon="6.69009">
        <ele>394.5</ele>
        <time>2017-10-22T08:11:47.000Z</time>
      </trkpt>
      <trkpt lat="47.4806" lon="6.69005">
        <ele>394.5</ele>
        <time>2017-10-22T08:11:48.000Z</time>
      </trkpt>
      <trkpt lat="47.4806" lon="6.69001">
        <ele>394.5</ele>
        <time>2017-10-22T08:11:49.000Z</time>
      </trkpt>
      <trkpt lat="47.48059" lon="6.68998">
        <ele>394.5</ele>
        <time>2017-10-22T08:11:50.000Z</time>
      </trkpt>
      <trkpt lat="47.48056" lon="6.68993">
        <ele>394.3</ele>
        <time>2017-10-22T08:11:54.000Z</time>
      </trkpt>
      <trkpt lat="47.48055" lon="6.6899">
        <ele>394.3</ele>
        <time>2017-10-22T08:11:55.000Z</time>
      </trkpt>
      <trkpt lat="47.48052" lon="6.68983">
        <ele>394.3</ele>
        <time>2017-10-22T08:11:56.000Z</time>
      </trkpt>
      <trkpt lat="47.4805" lon="6.68976">
        <ele>394.3</ele>
        <time>2017-10-22T08:11:57.000Z</time>
      </trkpt>
      <trkpt lat="47.48047" lon="6.6897">
        <ele>394.2</ele>
        <time>2017-10-22T08:11:58.000Z</time>
      </trkpt>
      <trkpt lat="47.48044" lon="6.68963">
        <ele>394.2</ele>
        <time>2017-10-22T08:11:59.000Z</time>
      </trkpt>
      <trkpt lat="47.4804" lon="6.68958">
        <ele>394.1</ele>
        <time>2017-10-22T08:12:00.000Z</time>
      </trkpt>
      <trkpt lat="47.48037" lon="6.68954">
        <ele>393.9</ele>
        <time>2017-10-22T08:12:01.000Z</time>
      </trkpt>
      <trkpt lat="47.48035" lon="6.68951">
        <ele>393.7</ele>
        <time>2017-10-22T08:12:02.000Z</time>
      </trkpt>
      <trkpt lat="47.48037" lon="6.68946">
        <ele>393.5</ele>
        <time>2017-10-22T08:12:03.000Z</time>
      </trkpt>
      <trkpt lat="47.48039" lon="6.68939">
        <ele>393.2</ele>
        <time>2017-10-22T08:12:04.000Z</time>
      </trkpt>
      <trkpt lat="47.4804" lon="6.68933">
        <ele>392.9</ele>
        <time>2017-10-22T08:12:05.000Z</time>
      </trkpt>
      <trkpt lat="47.48036" lon="6.6893">
        <ele>392.6</ele>
        <time>2017-10-22T08:12:06.000Z</time>
      </trkpt>
      <trkpt lat="47.48031" lon="6.68925">
        <ele>392.4</ele>
        <time>2017-10-22T08:12:07.000Z</time>
      </trkpt>
      <trkpt lat="47.4803" lon="6.6892">
        <ele>391.3</ele>
        <time>2017-10-22T08:12:10.000Z</time>
      </trkpt>
      <trkpt lat="47.48028" lon="6.68918">
        <ele>390.9</ele>
        <time>2017-10-22T08:12:11.000Z</time>
      </trkpt>
      <trkpt lat="47.48026" lon="6.68912">
        <ele>390.5</ele>
        <time>2017-10-22T08:12:14.000Z</time>
      </trkpt>
      <trkpt lat="47.48026" lon="6.68909">
        <ele>390.4</ele>
        <time>2017-10-22T08:12:15.000Z</time>
      </trkpt>
      <trkpt lat="47.48025" lon="6.68903">
        <ele>390</ele>
        <time>2017-10-22T08:12:20.000Z</time>
      </trkpt>
      <trkpt lat="47.48022" lon="6.68897">
        <ele>389.9</ele>
        <time>2017-10-22T08:12:21.000Z</time>
      </trkpt>
      <trkpt lat="47.48022" lon="6.68894">
        <ele>389.7</ele>
        <time>2017-10-22T08:12:23.000Z</time>
      </trkpt>
      <trkpt lat="47.48019" lon="6.68891">
        <ele>389.6</ele>
        <time>2017-10-22T08:12:24.000Z</time>
      </trkpt>
      <trkpt lat="47.48016" lon="6.68888">
        <ele>389.2</ele>
        <time>2017-10-22T08:12:29.000Z</time>
      </trkpt>
      <trkpt lat="47.48014" lon="6.68886">
        <ele>389.1</ele>
        <time>2017-10-22T08:12:30.000Z</time>
      </trkpt>
      <trkpt lat="47.48012" lon="6.68883">
        <ele>389.2</ele>
        <time>2017-10-22T08:12:37.000Z</time>
      </trkpt>
      <trkpt lat="47.48011" lon="6.68882">
        <ele>389.2</ele>
        <time>2017-10-22T08:12:38.000Z</time>
      </trkpt>
      <trkpt lat="47.48009" lon="6.68878">
        <ele>387</ele>
        <time>2017-10-22T08:13:16.000Z</time>
      </trkpt>
      <trkpt lat="47.48009" lon="6.68875">
        <ele>386.9</ele>
        <time>2017-10-22T08:13:17.000Z</time>
      </trkpt>
      <trkpt lat="47.48009" lon="6.68871">
        <ele>385.9</ele>
        <time>2017-10-22T08:13:18.000Z</time>
      </trkpt>
      <trkpt lat="47.48009" lon="6.68867">
        <ele>385</ele>
        <time>2017-10-22T08:13:19.000Z</time>
      </trkpt>
      <trkpt lat="47.48008" lon="6.68864">
        <ele>384.3</ele>
        <time>2017-10-22T08:13:20.000Z</time>
      </trkpt>
      <trkpt lat="47.48006" lon="6.68861">
        <ele>383.6</ele>
        <time>2017-10-22T08:13:21.000Z</time>
      </trkpt>
      <trkpt lat="47.48002" lon="6.68857">
        <ele>381.2</ele>
        <time>2017-10-22T08:13:25.000Z</time>
      </trkpt>
      <trkpt lat="47.47999" lon="6.68855">
        <ele>380.8</ele>
        <time>2017-10-22T08:13:26.000Z</time>
      </trkpt>
      <trkpt lat="47.47996" lon="6.68853">
        <ele>380.5</ele>
        <time>2017-10-22T08:13:27.000Z</time>
      </trkpt>
      <trkpt lat="47.47993" lon="6.68852">
        <ele>380.3</ele>
        <time>2017-10-22T08:13:28.000Z</time>
      </trkpt>
      <trkpt lat="47.47989" lon="6.68849">
        <ele>380</ele>
        <time>2017-10-22T08:13:29.000Z</time>
      </trkpt>
      <trkpt lat="47.47987" lon="6.68848">
        <ele>379.7</ele>
        <time>2017-10-22T08:13:30.000Z</time>
      </trkpt>
      <trkpt lat="47.47985" lon="6.68845">
        <ele>379.4</ele>
        <time>2017-10-22T08:13:31.000Z</time>
      </trkpt>
      <trkpt lat="47.47982" lon="6.68838">
        <ele>379.3</ele>
        <time>2017-10-22T08:13:32.000Z</time>
      </trkpt>
      <trkpt lat="47.47979" lon="6.68837">
        <ele>379.1</ele>
        <time>2017-10-22T08:13:33.000Z</time>
      </trkpt>
      <trkpt lat="47.47976" lon="6.68835">
        <ele>379</ele>
        <time>2017-10-22T08:13:34.000Z</time>
      </trkpt>
      <trkpt lat="47.47972" lon="6.68833">
        <ele>378.8</ele>
        <time>2017-10-22T08:13:35.000Z</time>
      </trkpt>
      <trkpt lat="47.47969" lon="6.6883">
        <ele>378.6</ele>
        <time>2017-10-22T08:13:36.000Z</time>
      </trkpt>
      <trkpt lat="47.47965" lon="6.68828">
        <ele>378.5</ele>
        <time>2017-10-22T08:13:37.000Z</time>
      </trkpt>
      <trkpt lat="47.4796" lon="6.68825">
        <ele>378.3</ele>
        <time>2017-10-22T08:13:38.000Z</time>
      </trkpt>
      <trkpt lat="47.47955" lon="6.68823">
        <ele>378.2</ele>
        <time>2017-10-22T08:13:39.000Z</time>
      </trkpt>
      <trkpt lat="47.47949" lon="6.68823">
        <ele>378</ele>
        <time>2017-10-22T08:13:40.000Z</time>
      </trkpt>
      <trkpt lat="47.47944" lon="6.68823">
        <ele>377.7</ele>
        <time>2017-10-22T08:13:41.000Z</time>
      </trkpt>
      <trkpt lat="47.47939" lon="6.68821">
        <ele>377.4</ele>
        <time>2017-10-22T08:13:42.000Z</time>
      </trkpt>
      <trkpt lat="47.47937" lon="6.68819">
        <ele>377.1</ele>
        <time>2017-10-22T08:13:43.000Z</time>
      </trkpt>
      <trkpt lat="47.47935" lon="6.68816">
        <ele>376.7</ele>
        <time>2017-10-22T08:13:44.000Z</time>
      </trkpt>
      <trkpt lat="47.4793" lon="6.68816">
        <ele>376.4</ele>
        <time>2017-10-22T08:13:45.000Z</time>
      </trkpt>
      <trkpt lat="47.47924" lon="6.68816">
        <ele>376.1</ele>
        <time>2017-10-22T08:13:46.000Z</time>
      </trkpt>
      <trkpt lat="47.47918" lon="6.68813">
        <ele>375.9</ele>
        <time>2017-10-22T08:13:47.000Z</time>
      </trkpt>
      <trkpt lat="47.47913" lon="6.68808">
        <ele>375.6</ele>
        <time>2017-10-22T08:13:48.000Z</time>
      </trkpt>
      <trkpt lat="47.47911" lon="6.68807">
        <ele>375.2</ele>
        <time>2017-10-22T08:13:50.000Z</time>
      </trkpt>
      <trkpt lat="47.47908" lon="6.68806">
        <ele>374.9</ele>
        <time>2017-10-22T08:13:51.000Z</time>
      </trkpt>
      <trkpt lat="47.47899" lon="6.68803">
        <ele>374.6</ele>
        <time>2017-10-22T08:13:52.000Z</time>
      </trkpt>
      <trkpt lat="47.47892" lon="6.68801">
        <ele>374.1</ele>
        <time>2017-10-22T08:13:53.000Z</time>
      </trkpt>
      <trkpt lat="47.47886" lon="6.68799">
        <ele>373.7</ele>
        <time>2017-10-22T08:13:54.000Z</time>
      </trkpt>
      <trkpt lat="47.4788" lon="6.68797">
        <ele>373.2</ele>
        <time>2017-10-22T08:13:55.000Z</time>
      </trkpt>
      <trkpt lat="47.47874" lon="6.68791">
        <ele>366.8</ele>
        <time>2017-10-22T08:13:56.000Z</time>
      </trkpt>
      <trkpt lat="47.47867" lon="6.68785">
        <ele>361.8</ele>
        <time>2017-10-22T08:13:57.000Z</time>
      </trkpt>
      <trkpt lat="47.47863" lon="6.68783">
        <ele>361.4</ele>
        <time>2017-10-22T08:13:58.000Z</time>
      </trkpt>
      <trkpt lat="47.47859" lon="6.68782">
        <ele>361.1</ele>
        <time>2017-10-22T08:13:59.000Z</time>
      </trkpt>
      <trkpt lat="47.47856" lon="6.68782">
        <ele>360.8</ele>
        <time>2017-10-22T08:14:00.000Z</time>
      </trkpt>
      <trkpt lat="47.47854" lon="6.68781">
        <ele>360.4</ele>
        <time>2017-10-22T08:14:01.000Z</time>
      </trkpt>
      <trkpt lat="47.47852" lon="6.68776">
        <ele>359.1</ele>
        <time>2017-10-22T08:14:48.000Z</time>
      </trkpt>
      <trkpt lat="47.4785" lon="6.68776">
        <ele>359.5</ele>
        <time>2017-10-22T08:14:49.000Z</time>
      </trkpt>
      <trkpt lat="47.47847" lon="6.68779">
        <ele>360.6</ele>
        <time>2017-10-22T08:14:55.000Z</time>
      </trkpt>
      <trkpt lat="47.47846" lon="6.6878">
        <ele>360.6</ele>
        <time>2017-10-22T08:14:56.000Z</time>
      </trkpt>
      <trkpt lat="47.47848" lon="6.68786">
        <ele>360</ele>
        <time>2017-10-22T08:15:00.000Z</time>
      </trkpt>
      <trkpt lat="47.47849" lon="6.68788">
        <ele>359.9</ele>
        <time>2017-10-22T08:15:01.000Z</time>
      </trkpt>
      <trkpt lat="47.47849" lon="6.68793">
        <ele>359.7</ele>
        <time>2017-10-22T08:15:03.000Z</time>
      </trkpt>
      <trkpt lat="47.4785" lon="6.68797">
        <ele>359.7</ele>
        <time>2017-10-22T08:15:04.000Z</time>
      </trkpt>
      <trkpt lat="47.47851" lon="6.688">
        <ele>359.7</ele>
        <time>2017-10-22T08:15:05.000Z</time>
      </trkpt>
      <trkpt lat="47.47852" lon="6.68803">
        <ele>359.7</ele>
        <time>2017-10-22T08:15:06.000Z</time>
      </trkpt>
      <trkpt lat="47.47854" lon="6.68807">
        <ele>359.7</ele>
        <time>2017-10-22T08:15:07.000Z</time>
      </trkpt>
      <trkpt lat="47.47857" lon="6.68811">
        <ele>359.6</ele>
        <time>2017-10-22T08:15:08.000Z</time>
      </trkpt>
      <trkpt lat="47.47861" lon="6.68813">
        <ele>359.6</ele>
        <time>2017-10-22T08:15:09.000Z</time>
      </trkpt>
      <trkpt lat="47.47863" lon="6.68816">
        <ele>359.5</ele>
        <time>2017-10-22T08:15:10.000Z</time>
      </trkpt>
      <trkpt lat="47.47865" lon="6.68819">
        <ele>359.4</ele>
        <time>2017-10-22T08:15:11.000Z</time>
      </trkpt>
      <trkpt lat="47.47868" lon="6.68822">
        <ele>359.4</ele>
        <time>2017-10-22T08:15:12.000Z</time>
      </trkpt>
      <trkpt lat="47.47871" lon="6.68824">
        <ele>359.4</ele>
        <time>2017-10-22T08:15:13.000Z</time>
      </trkpt>
      <trkpt lat="47.47873" lon="6.68827">
        <ele>359.4</ele>
        <time>2017-10-22T08:15:14.000Z</time>
      </trkpt>
      <trkpt lat="47.47876" lon="6.68829">
        <ele>359.4</ele>
        <time>2017-10-22T08:15:15.000Z</time>
      </trkpt>
      <trkpt lat="47.47878" lon="6.68832">
        <ele>359.4</ele>
        <time>2017-10-22T08:15:16.000Z</time>
      </trkpt>
      <trkpt lat="47.47883" lon="6.68836">
        <ele>359.5</ele>
        <time>2017-10-22T08:15:17.000Z</time>
      </trkpt>
      <trkpt lat="47.47884" lon="6.68837">
        <ele>359.6</ele>
        <time>2017-10-22T08:15:18.000Z</time>
      </trkpt>
      <trkpt lat="47.47888" lon="6.6884">
        <ele>359.7</ele>
        <time>2017-10-22T08:15:19.000Z</time>
      </trkpt>
      <trkpt lat="47.47889" lon="6.68843">
        <ele>359.8</ele>
        <time>2017-10-22T08:15:20.000Z</time>
      </trkpt>
      <trkpt lat="47.47891" lon="6.68846">
        <ele>359.7</ele>
        <time>2017-10-22T08:15:21.000Z</time>
      </trkpt>
      <trkpt lat="47.47894" lon="6.68848">
        <ele>359.6</ele>
        <time>2017-10-22T08:15:22.000Z</time>
      </trkpt>
      <trkpt lat="47.47896" lon="6.6885">
        <ele>359.6</ele>
        <time>2017-10-22T08:15:23.000Z</time>
      </trkpt>
      <trkpt lat="47.47899" lon="6.68853">
        <ele>359.4</ele>
        <time>2017-10-22T08:15:24.000Z</time>
      </trkpt>
      <trkpt lat="47.47903" lon="6.68854">
        <ele>359.3</ele>
        <time>2017-10-22T08:15:25.000Z</time>
      </trkpt>
      <trkpt lat="47.47907" lon="6.68855">
        <ele>358.5</ele>
        <time>2017-10-22T08:15:28.000Z</time>
      </trkpt>
      <trkpt lat="47.47908" lon="6.68856">
        <ele>358.3</ele>
        <time>2017-10-22T08:15:29.000Z</time>
      </trkpt>
      <trkpt lat="47.47911" lon="6.68857">
        <ele>358.1</ele>
        <time>2017-10-22T08:15:30.000Z</time>
      </trkpt>
      <trkpt lat="47.47913" lon="6.68858">
        <ele>357.9</ele>
        <time>2017-10-22T08:15:31.000Z</time>
      </trkpt>
      <trkpt lat="47.47915" lon="6.6886">
        <ele>357.6</ele>
        <time>2017-10-22T08:15:32.000Z</time>
      </trkpt>
      <trkpt lat="47.47918" lon="6.68863">
        <ele>357.5</ele>
        <time>2017-10-22T08:15:33.000Z</time>
      </trkpt>
      <trkpt lat="47.4792" lon="6.68865">
        <ele>357.3</ele>
        <time>2017-10-22T08:15:34.000Z</time>
      </trkpt>
      <trkpt lat="47.47922" lon="6.68866">
        <ele>357.2</ele>
        <time>2017-10-22T08:15:35.000Z</time>
      </trkpt>
      <trkpt lat="47.47927" lon="6.68869">
        <ele>357</ele>
        <time>2017-10-22T08:15:36.000Z</time>
      </trkpt>
      <trkpt lat="47.47931" lon="6.68872">
        <ele>356.4</ele>
        <time>2017-10-22T08:15:38.000Z</time>
      </trkpt>
      <trkpt lat="47.47932" lon="6.68872">
        <ele>356.2</ele>
        <time>2017-10-22T08:15:39.000Z</time>
      </trkpt>
      <trkpt lat="47.47936" lon="6.68873">
        <ele>355.8</ele>
        <time>2017-10-22T08:15:41.000Z</time>
      </trkpt>
      <trkpt lat="47.47939" lon="6.68876">
        <ele>355.6</ele>
        <time>2017-10-22T08:15:42.000Z</time>
      </trkpt>
      <trkpt lat="47.47943" lon="6.6888">
        <ele>355.6</ele>
        <time>2017-10-22T08:15:43.000Z</time>
      </trkpt>
      <trkpt lat="47.47946" lon="6.68883">
        <ele>355.5</ele>
        <time>2017-10-22T08:15:44.000Z</time>
      </trkpt>
      <trkpt lat="47.4795" lon="6.68884">
        <ele>355.5</ele>
        <time>2017-10-22T08:15:46.000Z</time>
      </trkpt>
      <trkpt lat="47.47951" lon="6.68884">
        <ele>355.6</ele>
        <time>2017-10-22T08:15:47.000Z</time>
      </trkpt>
      <trkpt lat="47.47953" lon="6.68886">
        <ele>355.5</ele>
        <time>2017-10-22T08:15:48.000Z</time>
      </trkpt>
      <trkpt lat="47.47956" lon="6.68888">
        <ele>355.6</ele>
        <time>2017-10-22T08:15:49.000Z</time>
      </trkpt>
      <trkpt lat="47.47958" lon="6.68892">
        <ele>355.6</ele>
        <time>2017-10-22T08:15:50.000Z</time>
      </trkpt>
      <trkpt lat="47.47961" lon="6.68896">
        <ele>355.7</ele>
        <time>2017-10-22T08:15:51.000Z</time>
      </trkpt>
      <trkpt lat="47.47966" lon="6.68902">
        <ele>355.9</ele>
        <time>2017-10-22T08:15:52.000Z</time>
      </trkpt>
      <trkpt lat="47.4797" lon="6.68907">
        <ele>356</ele>
        <time>2017-10-22T08:15:53.000Z</time>
      </trkpt>
      <trkpt lat="47.47973" lon="6.6891">
        <ele>356</ele>
        <time>2017-10-22T08:15:54.000Z</time>
      </trkpt>
      <trkpt lat="47.47976" lon="6.68914">
        <ele>356.1</ele>
        <time>2017-10-22T08:15:55.000Z</time>
      </trkpt>
      <trkpt lat="47.47979" lon="6.68918">
        <ele>356.1</ele>
        <time>2017-10-22T08:15:56.000Z</time>
      </trkpt>
      <trkpt lat="47.47982" lon="6.68922">
        <ele>356.2</ele>
        <time>2017-10-22T08:15:57.000Z</time>
      </trkpt>
      <trkpt lat="47.47985" lon="6.68926">
        <ele>356.1</ele>
        <time>2017-10-22T08:15:58.000Z</time>
      </trkpt>
      <trkpt lat="47.47986" lon="6.68928">
        <ele>356.2</ele>
        <time>2017-10-22T08:15:59.000Z</time>
      </trkpt>
      <trkpt lat="47.47983" lon="6.68931">
        <ele>356.4</ele>
        <time>2017-10-22T08:16:04.000Z</time>
      </trkpt>
      <trkpt lat="47.47983" lon="6.68933">
        <ele>356.4</ele>
        <time>2017-10-22T08:16:05.000Z</time>
      </trkpt>
      <trkpt lat="47.47979" lon="6.68933">
        <ele>356.4</ele>
        <time>2017-10-22T08:16:07.000Z</time>
      </trkpt>
      <trkpt lat="47.47977" lon="6.68935">
        <ele>356.4</ele>
        <time>2017-10-22T08:16:08.000Z</time>
      </trkpt>
      <trkpt lat="47.47974" lon="6.68935">
        <ele>356.4</ele>
        <time>2017-10-22T08:16:09.000Z</time>
      </trkpt>
      <trkpt lat="47.47972" lon="6.68935">
        <ele>356.3</ele>
        <time>2017-10-22T08:16:10.000Z</time>
      </trkpt>
      <trkpt lat="47.47968" lon="6.68935">
        <ele>356.3</ele>
        <time>2017-10-22T08:16:12.000Z</time>
      </trkpt>
      <trkpt lat="47.47966" lon="6.68935">
        <ele>356.3</ele>
        <time>2017-10-22T08:16:13.000Z</time>
      </trkpt>
      <trkpt lat="47.47961" lon="6.68937">
        <ele>356.2</ele>
        <time>2017-10-22T08:16:14.000Z</time>
      </trkpt>
      <trkpt lat="47.47956" lon="6.68936">
        <ele>356.1</ele>
        <time>2017-10-22T08:16:15.000Z</time>
      </trkpt>
      <trkpt lat="47.47953" lon="6.68934">
        <ele>356.1</ele>
        <time>2017-10-22T08:16:17.000Z</time>
      </trkpt>
      <trkpt lat="47.47952" lon="6.68934">
        <ele>356.1</ele>
        <time>2017-10-22T08:16:18.000Z</time>
      </trkpt>
      <trkpt lat="47.47948" lon="6.68935">
        <ele>356</ele>
        <time>2017-10-22T08:16:19.000Z</time>
      </trkpt>
      <trkpt lat="47.47947" lon="6.68935">
        <ele>356</ele>
        <time>2017-10-22T08:16:20.000Z</time>
      </trkpt>
      <trkpt lat="47.47943" lon="6.68934">
        <ele>356</ele>
        <time>2017-10-22T08:16:22.000Z</time>
      </trkpt>
      <trkpt lat="47.47942" lon="6.68933">
        <ele>356</ele>
        <time>2017-10-22T08:16:23.000Z</time>
      </trkpt>
      <trkpt lat="47.47939" lon="6.68933">
        <ele>356</ele>
        <time>2017-10-22T08:16:24.000Z</time>
      </trkpt>
      <trkpt lat="47.47936" lon="6.68932">
        <ele>355.8</ele>
        <time>2017-10-22T08:16:25.000Z</time>
      </trkpt>
      <trkpt lat="47.47931" lon="6.68931">
        <ele>355.7</ele>
        <time>2017-10-22T08:16:26.000Z</time>
      </trkpt>
      <trkpt lat="47.47928" lon="6.68929">
        <ele>355.6</ele>
        <time>2017-10-22T08:16:32.000Z</time>
      </trkpt>
      <trkpt lat="47.47927" lon="6.68928">
        <ele>355.6</ele>
        <time>2017-10-22T08:16:33.000Z</time>
      </trkpt>
      <trkpt lat="47.47925" lon="6.68929">
        <ele>355.6</ele>
        <time>2017-10-22T08:16:34.000Z</time>
      </trkpt>
      <trkpt lat="47.47922" lon="6.6893">
        <ele>355.5</ele>
        <time>2017-10-22T08:16:35.000Z</time>
      </trkpt>
      <trkpt lat="47.47919" lon="6.68929">
        <ele>355.6</ele>
        <time>2017-10-22T08:16:37.000Z</time>
      </trkpt>
      <trkpt lat="47.47917" lon="6.68929">
        <ele>355.6</ele>
        <time>2017-10-22T08:16:38.000Z</time>
      </trkpt>
      <trkpt lat="47.47914" lon="6.68928">
        <ele>355.9</ele>
        <time>2017-10-22T08:16:41.000Z</time>
      </trkpt>
      <trkpt lat="47.47912" lon="6.68927">
        <ele>356</ele>
        <time>2017-10-22T08:16:42.000Z</time>
      </trkpt>
      <trkpt lat="47.47908" lon="6.68924">
        <ele>356.1</ele>
        <time>2017-10-22T08:16:43.000Z</time>
      </trkpt>
      <trkpt lat="47.47905" lon="6.68928">
        <ele>357</ele>
        <time>2017-10-22T08:16:50.000Z</time>
      </trkpt>
      <trkpt lat="47.47903" lon="6.6893">
        <ele>357</ele>
        <time>2017-10-22T08:16:51.000Z</time>
      </trkpt>
      <trkpt lat="47.47902" lon="6.68932">
        <ele>357.1</ele>
        <time>2017-10-22T08:16:52.000Z</time>
      </trkpt>
      <trkpt lat="47.47899" lon="6.68935">
        <ele>357.3</ele>
        <time>2017-10-22T08:16:53.000Z</time>
      </trkpt>
      <trkpt lat="47.47897" lon="6.68941">
        <ele>357.5</ele>
        <time>2017-10-22T08:16:55.000Z</time>
      </trkpt>
      <trkpt lat="47.47897" lon="6.68943">
        <ele>357.7</ele>
        <time>2017-10-22T08:16:56.000Z</time>
      </trkpt>
      <trkpt lat="47.47894" lon="6.68948">
        <ele>358.7</ele>
        <time>2017-10-22T08:17:02.000Z</time>
      </trkpt>
      <trkpt lat="47.47894" lon="6.68949">
        <ele>359.1</ele>
        <time>2017-10-22T08:17:03.000Z</time>
      </trkpt>
      <trkpt lat="47.47891" lon="6.68955">
        <ele>359.9</ele>
        <time>2017-10-22T08:17:07.000Z</time>
      </trkpt>
      <trkpt lat="47.47891" lon="6.68957">
        <ele>360.3</ele>
        <time>2017-10-22T08:17:08.000Z</time>
      </trkpt>
      <trkpt lat="47.47889" lon="6.68961">
        <ele>362</ele>
        <time>2017-10-22T08:17:13.000Z</time>
      </trkpt>
      <trkpt lat="47.47888" lon="6.68964">
        <ele>362.5</ele>
        <time>2017-10-22T08:17:14.000Z</time>
      </trkpt>
      <trkpt lat="47.47887" lon="6.68969">
        <ele>365</ele>
        <time>2017-10-22T08:17:23.000Z</time>
      </trkpt>
      <trkpt lat="47.47886" lon="6.68972">
        <ele>365.4</ele>
        <time>2017-10-22T08:17:24.000Z</time>
      </trkpt>
      <trkpt lat="47.47885" lon="6.68974">
        <ele>366.8</ele>
        <time>2017-10-22T08:17:29.000Z</time>
      </trkpt>
      <trkpt lat="47.47885" lon="6.68978">
        <ele>367.2</ele>
        <time>2017-10-22T08:17:30.000Z</time>
      </trkpt>
      <trkpt lat="47.47884" lon="6.68982">
        <ele>367.4</ele>
        <time>2017-10-22T08:17:31.000Z</time>
      </trkpt>
      <trkpt lat="47.47883" lon="6.68987">
        <ele>367.6</ele>
        <time>2017-10-22T08:17:32.000Z</time>
      </trkpt>
      <trkpt lat="47.47882" lon="6.68993">
        <ele>367.6</ele>
        <time>2017-10-22T08:17:33.000Z</time>
      </trkpt>
      <trkpt lat="47.47882" lon="6.69002">
        <ele>367.6</ele>
        <time>2017-10-22T08:17:34.000Z</time>
      </trkpt>
      <trkpt lat="47.47882" lon="6.69006">
        <ele>367.9</ele>
        <time>2017-10-22T08:17:38.000Z</time>
      </trkpt>
      <trkpt lat="47.47881" lon="6.69009">
        <ele>368</ele>
        <time>2017-10-22T08:17:39.000Z</time>
      </trkpt>
      <trkpt lat="47.4788" lon="6.69012">
        <ele>368.2</ele>
        <time>2017-10-22T08:17:42.000Z</time>
      </trkpt>
      <trkpt lat="47.47878" lon="6.69016">
        <ele>368.4</ele>
        <time>2017-10-22T08:17:43.000Z</time>
      </trkpt>
      <trkpt lat="47.47878" lon="6.69023">
        <ele>369.3</ele>
        <time>2017-10-22T08:17:47.000Z</time>
      </trkpt>
      <trkpt lat="47.47876" lon="6.69028">
        <ele>369.5</ele>
        <time>2017-10-22T08:17:48.000Z</time>
      </trkpt>
      <trkpt lat="47.47874" lon="6.69034">
        <ele>369.9</ele>
        <time>2017-10-22T08:17:50.000Z</time>
      </trkpt>
      <trkpt lat="47.47874" lon="6.69035">
        <ele>370.1</ele>
        <time>2017-10-22T08:17:51.000Z</time>
      </trkpt>
      <trkpt lat="47.47873" lon="6.6904">
        <ele>370.7</ele>
        <time>2017-10-22T08:17:55.000Z</time>
      </trkpt>
      <trkpt lat="47.47873" lon="6.69042">
        <ele>370.8</ele>
        <time>2017-10-22T08:17:56.000Z</time>
      </trkpt>
      <trkpt lat="47.47875" lon="6.69046">
        <ele>371</ele>
        <time>2017-10-22T08:17:59.000Z</time>
      </trkpt>
      <trkpt lat="47.47876" lon="6.69047">
        <ele>371</ele>
        <time>2017-10-22T08:18:00.000Z</time>
      </trkpt>
      <trkpt lat="47.47876" lon="6.69048">
        <ele>371</ele>
        <time>2017-10-22T08:18:01.000Z</time>
      </trkpt>
      <trkpt lat="47.47878" lon="6.69052">
        <ele>371</ele>
        <time>2017-10-22T08:18:02.000Z</time>
      </trkpt>
      <trkpt lat="47.4788" lon="6.69057">
        <ele>370.9</ele>
        <time>2017-10-22T08:18:03.000Z</time>
      </trkpt>
      <trkpt lat="47.4788" lon="6.69059">
        <ele>371</ele>
        <time>2017-10-22T08:18:04.000Z</time>
      </trkpt>
      <trkpt lat="47.47881" lon="6.69062">
        <ele>372.4</ele>
        <time>2017-10-22T08:18:15.000Z</time>
      </trkpt>
      <trkpt lat="47.4788" lon="6.69067">
        <ele>372.8</ele>
        <time>2017-10-22T08:18:16.000Z</time>
      </trkpt>
      <trkpt lat="47.47879" lon="6.69073">
        <ele>377.9</ele>
        <time>2017-10-22T08:18:29.000Z</time>
      </trkpt>
      <trkpt lat="47.47879" lon="6.69074">
        <ele>378.4</ele>
        <time>2017-10-22T08:18:30.000Z</time>
      </trkpt>
      <trkpt lat="47.47879" lon="6.6908">
        <ele>381.3</ele>
        <time>2017-10-22T08:18:40.000Z</time>
      </trkpt>
      <trkpt lat="47.4788" lon="6.69081">
        <ele>381.8</ele>
        <time>2017-10-22T08:18:41.000Z</time>
      </trkpt>
      <trkpt lat="47.47882" lon="6.69086">
        <ele>384.2</ele>
        <time>2017-10-22T08:18:48.000Z</time>
      </trkpt>
      <trkpt lat="47.47882" lon="6.69087">
        <ele>384.5</ele>
        <time>2017-10-22T08:18:49.000Z</time>
      </trkpt>
      <trkpt lat="47.47881" lon="6.69082">
        <ele>385.4</ele>
        <time>2017-10-22T08:19:06.000Z</time>
      </trkpt>
      <trkpt lat="47.4788" lon="6.69081">
        <ele>385.5</ele>
        <time>2017-10-22T08:19:07.000Z</time>
      </trkpt>
      <trkpt lat="47.4788" lon="6.69087">
        <ele>387.6</ele>
        <time>2017-10-22T08:19:27.000Z</time>
      </trkpt>
      <trkpt lat="47.4788" lon="6.69088">
        <ele>387.8</ele>
        <time>2017-10-22T08:19:28.000Z</time>
      </trkpt>
      <trkpt lat="47.47884" lon="6.6909">
        <ele>394.4</ele>
        <time>2017-10-22T08:21:02.999Z</time>
      </trkpt>
      <trkpt lat="47.47884" lon="6.69091">
        <ele>394.4</ele>
        <time>2017-10-22T08:21:03.999Z</time>
      </trkpt>
      <trkpt lat="47.47881" lon="6.69087">
        <ele>395.4</ele>
        <time>2017-10-22T08:21:44.999Z</time>
      </trkpt>
      <trkpt lat="47.47878" lon="6.69087">
        <ele>395.6</ele>
        <time>2017-10-22T08:21:45.999Z</time>
      </trkpt>
      <trkpt lat="47.47879" lon="6.69087">
        <ele>396.4</ele>
        <time>2017-10-22T08:21:54.999Z</time>
      </trkpt>
      <trkpt lat="47.47882" lon="6.69089">
        <ele>396.7</ele>
        <time>2017-10-22T08:21:55.999Z</time>
      </trkpt>
      <trkpt lat="47.47885" lon="6.69092">
        <ele>398.7</ele>
        <time>2017-10-22T08:22:12.999Z</time>
      </trkpt>
      <trkpt lat="47.47886" lon="6.69093">
        <ele>398.9</ele>
        <time>2017-10-22T08:22:13.999Z</time>
      </trkpt>
      <trkpt lat="47.47888" lon="6.69098">
        <ele>399.2</ele>
        <time>2017-10-22T08:22:17.999Z</time>
      </trkpt>
      <trkpt lat="47.47888" lon="6.69101">
        <ele>399.3</ele>
        <time>2017-10-22T08:22:18.999Z</time>
      </trkpt>
      <trkpt lat="47.47889" lon="6.69107">
        <ele>399.3</ele>
        <time>2017-10-22T08:22:20.999Z</time>
      </trkpt>
      <trkpt lat="47.4789" lon="6.6911">
        <ele>399.4</ele>
        <time>2017-10-22T08:22:21.999Z</time>
      </trkpt>
      <trkpt lat="47.47891" lon="6.69115">
        <ele>399.4</ele>
        <time>2017-10-22T08:22:23.999Z</time>
      </trkpt>
      <trkpt lat="47.47891" lon="6.69117">
        <ele>399.4</ele>
        <time>2017-10-22T08:22:24.999Z</time>
      </trkpt>
      <trkpt lat="47.4789" lon="6.69123">
        <ele>399.2</ele>
        <time>2017-10-22T08:22:31.999Z</time>
      </trkpt>
      <trkpt lat="47.47889" lon="6.69125">
        <ele>399</ele>
        <time>2017-10-22T08:22:32.999Z</time>
      </trkpt>
      <trkpt lat="47.47888" lon="6.69127">
        <ele>398.3</ele>
        <time>2017-10-22T08:22:36.999Z</time>
      </trkpt>
      <trkpt lat="47.47885" lon="6.6913">
        <ele>398.2</ele>
        <time>2017-10-22T08:22:37.999Z</time>
      </trkpt>
      <trkpt lat="47.47881" lon="6.69134">
        <ele>398</ele>
        <time>2017-10-22T08:22:38.999Z</time>
      </trkpt>
      <trkpt lat="47.47877" lon="6.69135">
        <ele>397.9</ele>
        <time>2017-10-22T08:22:39.999Z</time>
      </trkpt>
      <trkpt lat="47.47873" lon="6.69137">
        <ele>397.7</ele>
        <time>2017-10-22T08:22:42.999Z</time>
      </trkpt>
      <trkpt lat="47.47872" lon="6.69137">
        <ele>397.7</ele>
        <time>2017-10-22T08:22:43.999Z</time>
      </trkpt>
      <trkpt lat="47.4787" lon="6.69138">
        <ele>397.6</ele>
        <time>2017-10-22T08:22:44.999Z</time>
      </trkpt>
      <trkpt lat="47.47868" lon="6.69143">
        <ele>397.6</ele>
        <time>2017-10-22T08:22:45.999Z</time>
      </trkpt>
      <trkpt lat="47.47864" lon="6.69142">
        <ele>396.4</ele>
        <time>2017-10-22T08:22:58.999Z</time>
      </trkpt>
      <trkpt lat="47.47864" lon="6.69141">
        <ele>396.1</ele>
        <time>2017-10-22T08:22:59.999Z</time>
      </trkpt>
      <trkpt lat="47.47859" lon="6.69139">
        <ele>395.4</ele>
        <time>2017-10-22T08:23:02.999Z</time>
      </trkpt>
      <trkpt lat="47.47858" lon="6.69139">
        <ele>395.2</ele>
        <time>2017-10-22T08:23:03.999Z</time>
      </trkpt>
      <trkpt lat="47.47854" lon="6.69138">
        <ele>394.1</ele>
        <time>2017-10-22T08:23:07.999Z</time>
      </trkpt>
      <trkpt lat="47.47853" lon="6.69138">
        <ele>394</ele>
        <time>2017-10-22T08:23:08.999Z</time>
      </trkpt>
      <trkpt lat="47.47849" lon="6.69137">
        <ele>392.3</ele>
        <time>2017-10-22T08:23:14.999Z</time>
      </trkpt>
      <trkpt lat="47.47847" lon="6.69138">
        <ele>392</ele>
        <time>2017-10-22T08:23:15.999Z</time>
      </trkpt>
      <trkpt lat="47.47844" lon="6.69139">
        <ele>390.5</ele>
        <time>2017-10-22T08:23:19.999Z</time>
      </trkpt>
      <trkpt lat="47.47841" lon="6.6914">
        <ele>390.1</ele>
        <time>2017-10-22T08:23:20.999Z</time>
      </trkpt>
      <trkpt lat="47.47839" lon="6.69141">
        <ele>389.8</ele>
        <time>2017-10-22T08:23:21.999Z</time>
      </trkpt>
      <trkpt lat="47.47837" lon="6.69143">
        <ele>389.5</ele>
        <time>2017-10-22T08:23:22.999Z</time>
      </trkpt>
      <trkpt lat="47.47834" lon="6.69144">
        <ele>389.2</ele>
        <time>2017-10-22T08:23:23.999Z</time>
      </trkpt>
      <trkpt lat="47.47832" lon="6.69145">
        <ele>388.8</ele>
        <time>2017-10-22T08:23:24.999Z</time>
      </trkpt>
      <trkpt lat="47.4783" lon="6.69148">
        <ele>388.4</ele>
        <time>2017-10-22T08:23:25.999Z</time>
      </trkpt>
      <trkpt lat="47.47827" lon="6.69151">
        <ele>388.1</ele>
        <time>2017-10-22T08:23:26.999Z</time>
      </trkpt>
      <trkpt lat="47.47825" lon="6.69153">
        <ele>387.8</ele>
        <time>2017-10-22T08:23:27.999Z</time>
      </trkpt>
      <trkpt lat="47.47823" lon="6.69157">
        <ele>387.6</ele>
        <time>2017-10-22T08:23:28.999Z</time>
      </trkpt>
      <trkpt lat="47.47821" lon="6.6916">
        <ele>387.3</ele>
        <time>2017-10-22T08:23:29.999Z</time>
      </trkpt>
      <trkpt lat="47.47818" lon="6.69163">
        <ele>387.1</ele>
        <time>2017-10-22T08:23:30.999Z</time>
      </trkpt>
      <trkpt lat="47.47816" lon="6.69167">
        <ele>386.8</ele>
        <time>2017-10-22T08:23:31.999Z</time>
      </trkpt>
      <trkpt lat="47.47814" lon="6.69169">
        <ele>386.5</ele>
        <time>2017-10-22T08:23:32.999Z</time>
      </trkpt>
      <trkpt lat="47.4781" lon="6.69171">
        <ele>385.5</ele>
        <time>2017-10-22T08:23:35.999Z</time>
      </trkpt>
      <trkpt lat="47.47809" lon="6.69171">
        <ele>385.2</ele>
        <time>2017-10-22T08:23:36.999Z</time>
      </trkpt>
      <trkpt lat="47.47804" lon="6.6917">
        <ele>384.3</ele>
        <time>2017-10-22T08:24:27.999Z</time>
      </trkpt>
      <trkpt lat="47.47803" lon="6.6917">
        <ele>384.5</ele>
        <time>2017-10-22T08:24:28.999Z</time>
      </trkpt>
      <trkpt lat="47.47799" lon="6.69172">
        <ele>388.3</ele>
        <time>2017-10-22T08:25:45.999Z</time>
      </trkpt>
      <trkpt lat="47.47797" lon="6.69172">
        <ele>388.7</ele>
        <time>2017-10-22T08:25:46.999Z</time>
      </trkpt>
      <trkpt lat="47.478" lon="6.69169">
        <ele>391.7</ele>
        <time>2017-10-22T08:27:07.999Z</time>
      </trkpt>
      <trkpt lat="47.47801" lon="6.69168">
        <ele>391.7</ele>
        <time>2017-10-22T08:27:08.999Z</time>
      </trkpt>
      <trkpt lat="47.47799" lon="6.69172">
        <ele>399.3</ele>
        <time>2017-10-22T08:30:24.999Z</time>
      </trkpt>
      <trkpt lat="47.47799" lon="6.69175">
        <ele>399.1</ele>
        <time>2017-10-22T08:30:25.999Z</time>
      </trkpt>
      <trkpt lat="47.478" lon="6.69181">
        <ele>397.2</ele>
        <time>2017-10-22T08:30:30.999Z</time>
      </trkpt>
      <trkpt lat="47.47799" lon="6.69182">
        <ele>396.8</ele>
        <time>2017-10-22T08:30:31.999Z</time>
      </trkpt>
      <trkpt lat="47.47796" lon="6.69186">
        <ele>395</ele>
        <time>2017-10-22T08:30:36.999Z</time>
      </trkpt>
      <trkpt lat="47.47795" lon="6.69188">
        <ele>394.7</ele>
        <time>2017-10-22T08:30:37.999Z</time>
      </trkpt>
      <trkpt lat="47.47792" lon="6.69192">
        <ele>394.4</ele>
        <time>2017-10-22T08:30:38.999Z</time>
      </trkpt>
      <trkpt lat="47.4779" lon="6.69193">
        <ele>394.2</ele>
        <time>2017-10-22T08:30:39.999Z</time>
      </trkpt>
      <trkpt lat="47.47787" lon="6.69193">
        <ele>393.6</ele>
        <time>2017-10-22T08:30:41.999Z</time>
      </trkpt>
      <trkpt lat="47.47784" lon="6.69193">
        <ele>393.4</ele>
        <time>2017-10-22T08:30:42.999Z</time>
      </trkpt>
      <trkpt lat="47.4778" lon="6.69194">
        <ele>392.8</ele>
        <time>2017-10-22T08:30:44.999Z</time>
      </trkpt>
      <trkpt lat="47.47779" lon="6.69194">
        <ele>392.6</ele>
        <time>2017-10-22T08:30:45.999Z</time>
      </trkpt>
      <trkpt lat="47.47775" lon="6.69195">
        <ele>392</ele>
        <time>2017-10-22T08:30:47.999Z</time>
      </trkpt>
      <trkpt lat="47.47773" lon="6.69197">
        <ele>391.9</ele>
        <time>2017-10-22T08:30:48.999Z</time>
      </trkpt>
      <trkpt lat="47.4777" lon="6.69199">
        <ele>391.4</ele>
        <time>2017-10-22T08:30:50.999Z</time>
      </trkpt>
      <trkpt lat="47.47768" lon="6.69201">
        <ele>391.2</ele>
        <time>2017-10-22T08:30:51.999Z</time>
      </trkpt>
      <trkpt lat="47.47765" lon="6.69204">
        <ele>391</ele>
        <time>2017-10-22T08:30:53.999Z</time>
      </trkpt>
      <trkpt lat="47.47763" lon="6.69206">
        <ele>390.9</ele>
        <time>2017-10-22T08:30:54.999Z</time>
      </trkpt>
      <trkpt lat="47.4776" lon="6.6921">
        <ele>390.4</ele>
        <time>2017-10-22T08:30:56.999Z</time>
      </trkpt>
      <trkpt lat="47.47759" lon="6.69211">
        <ele>390.2</ele>
        <time>2017-10-22T08:30:57.999Z</time>
      </trkpt>
      <trkpt lat="47.47756" lon="6.69215">
        <ele>389.2</ele>
        <time>2017-10-22T08:31:01.999Z</time>
      </trkpt>
      <trkpt lat="47.47754" lon="6.69217">
        <ele>388.9</ele>
        <time>2017-10-22T08:31:02.999Z</time>
      </trkpt>
      <trkpt lat="47.47751" lon="6.69221">
        <ele>388.4</ele>
        <time>2017-10-22T08:31:04.999Z</time>
      </trkpt>
      <trkpt lat="47.4775" lon="6.69224">
        <ele>388.2</ele>
        <time>2017-10-22T08:31:05.999Z</time>
      </trkpt>
      <trkpt lat="47.47747" lon="6.69228">
        <ele>387.7</ele>
        <time>2017-10-22T08:31:07.999Z</time>
      </trkpt>
      <trkpt lat="47.47746" lon="6.69232">
        <ele>387.5</ele>
        <time>2017-10-22T08:31:08.999Z</time>
      </trkpt>
      <trkpt lat="47.47745" lon="6.69235">
        <ele>387.2</ele>
        <time>2017-10-22T08:31:09.999Z</time>
      </trkpt>
      <trkpt lat="47.47743" lon="6.69238">
        <ele>386.9</ele>
        <time>2017-10-22T08:31:10.999Z</time>
      </trkpt>
      <trkpt lat="47.47741" lon="6.69241">
        <ele>386.6</ele>
        <time>2017-10-22T08:31:11.999Z</time>
      </trkpt>
      <trkpt lat="47.4774" lon="6.69243">
        <ele>386.3</ele>
        <time>2017-10-22T08:31:12.999Z</time>
      </trkpt>
      <trkpt lat="47.47738" lon="6.69248">
        <ele>385.7</ele>
        <time>2017-10-22T08:31:14.999Z</time>
      </trkpt>
      <trkpt lat="47.47737" lon="6.69249">
        <ele>385.5</ele>
        <time>2017-10-22T08:31:15.999Z</time>
      </trkpt>
      <trkpt lat="47.47735" lon="6.69253">
        <ele>385.2</ele>
        <time>2017-10-22T08:31:17.999Z</time>
      </trkpt>
      <trkpt lat="47.47733" lon="6.69255">
        <ele>384.9</ele>
        <time>2017-10-22T08:31:18.999Z</time>
      </trkpt>
      <trkpt lat="47.47731" lon="6.69257">
        <ele>384.6</ele>
        <time>2017-10-22T08:31:19.999Z</time>
      </trkpt>
      <trkpt lat="47.47729" lon="6.6926">
        <ele>384.4</ele>
        <time>2017-10-22T08:31:20.999Z</time>
      </trkpt>
      <trkpt lat="47.47727" lon="6.69263">
        <ele>384.1</ele>
        <time>2017-10-22T08:31:21.999Z</time>
      </trkpt>
      <trkpt lat="47.47725" lon="6.69264">
        <ele>383.9</ele>
        <time>2017-10-22T08:31:22.999Z</time>
      </trkpt>
      <trkpt lat="47.47723" lon="6.69267">
        <ele>383.4</ele>
        <time>2017-10-22T08:31:24.999Z</time>
      </trkpt>
      <trkpt lat="47.47721" lon="6.69268">
        <ele>383.2</ele>
        <time>2017-10-22T08:31:25.999Z</time>
      </trkpt>
      <trkpt lat="47.47719" lon="6.69271">
        <ele>382.8</ele>
        <time>2017-10-22T08:31:27.999Z</time>
      </trkpt>
      <trkpt lat="47.47717" lon="6.69272">
        <ele>382.6</ele>
        <time>2017-10-22T08:31:28.999Z</time>
      </trkpt>
      <trkpt lat="47.47714" lon="6.69275">
        <ele>382</ele>
        <time>2017-10-22T08:31:30.999Z</time>
      </trkpt>
      <trkpt lat="47.47712" lon="6.69276">
        <ele>381.6</ele>
        <time>2017-10-22T08:31:31.999Z</time>
      </trkpt>
      <trkpt lat="47.47711" lon="6.69279">
        <ele>381.2</ele>
        <time>2017-10-22T08:31:32.999Z</time>
      </trkpt>
      <trkpt lat="47.47709" lon="6.69281">
        <ele>380.8</ele>
        <time>2017-10-22T08:31:33.999Z</time>
      </trkpt>
      <trkpt lat="47.47707" lon="6.69284">
        <ele>380.4</ele>
        <time>2017-10-22T08:31:34.999Z</time>
      </trkpt>
      <trkpt lat="47.47705" lon="6.69287">
        <ele>380.1</ele>
        <time>2017-10-22T08:31:35.999Z</time>
      </trkpt>
      <trkpt lat="47.47704" lon="6.69289">
        <ele>379.9</ele>
        <time>2017-10-22T08:31:36.999Z</time>
      </trkpt>
      <trkpt lat="47.47702" lon="6.69292">
        <ele>379.7</ele>
        <time>2017-10-22T08:31:37.999Z</time>
      </trkpt>
      <trkpt lat="47.47701" lon="6.69298">
        <ele>379.4</ele>
        <time>2017-10-22T08:31:39.999Z</time>
      </trkpt>
      <trkpt lat="47.477" lon="6.69301">
        <ele>379.2</ele>
        <time>2017-10-22T08:31:40.999Z</time>
      </trkpt>
      <trkpt lat="47.47699" lon="6.69305">
        <ele>379.1</ele>
        <time>2017-10-22T08:31:41.999Z</time>
      </trkpt>
      <trkpt lat="47.47698" lon="6.69309">
        <ele>378.9</ele>
        <time>2017-10-22T08:31:42.999Z</time>
      </trkpt>
      <trkpt lat="47.47697" lon="6.69313">
        <ele>378.9</ele>
        <time>2017-10-22T08:31:43.999Z</time>
      </trkpt>
      <trkpt lat="47.47696" lon="6.69316">
        <ele>378.8</ele>
        <time>2017-10-22T08:31:44.999Z</time>
      </trkpt>
      <trkpt lat="47.47695" lon="6.6932">
        <ele>378.7</ele>
        <time>2017-10-22T08:31:45.999Z</time>
      </trkpt>
      <trkpt lat="47.47693" lon="6.69324">
        <ele>378.6</ele>
        <time>2017-10-22T08:31:46.999Z</time>
      </trkpt>
      <trkpt lat="47.47691" lon="6.69327">
        <ele>378.5</ele>
        <time>2017-10-22T08:31:47.999Z</time>
      </trkpt>
      <trkpt lat="47.4769" lon="6.69331">
        <ele>378.4</ele>
        <time>2017-10-22T08:31:48.999Z</time>
      </trkpt>
      <trkpt lat="47.47689" lon="6.69335">
        <ele>378.3</ele>
        <time>2017-10-22T08:31:49.999Z</time>
      </trkpt>
      <trkpt lat="47.47688" lon="6.69339">
        <ele>378</ele>
        <time>2017-10-22T08:31:50.999Z</time>
      </trkpt>
      <trkpt lat="47.47687" lon="6.69343">
        <ele>377.8</ele>
        <time>2017-10-22T08:31:51.999Z</time>
      </trkpt>
      <trkpt lat="47.47686" lon="6.69346">
        <ele>377.5</ele>
        <time>2017-10-22T08:31:52.999Z</time>
      </trkpt>
      <trkpt lat="47.47684" lon="6.6935">
        <ele>377</ele>
        <time>2017-10-22T08:31:54.999Z</time>
      </trkpt>
      <trkpt lat="47.47683" lon="6.69352">
        <ele>376.9</ele>
        <time>2017-10-22T08:31:55.999Z</time>
      </trkpt>
      <trkpt lat="47.47681" lon="6.69357">
        <ele>376.4</ele>
        <time>2017-10-22T08:31:57.999Z</time>
      </trkpt>
      <trkpt lat="47.4768" lon="6.69358">
        <ele>376.2</ele>
        <time>2017-10-22T08:31:58.999Z</time>
      </trkpt>
      <trkpt lat="47.47679" lon="6.69362">
        <ele>375.7</ele>
        <time>2017-10-22T08:32:00.999Z</time>
      </trkpt>
      <trkpt lat="47.47679" lon="6.69365">
        <ele>375.4</ele>
        <time>2017-10-22T08:32:01.999Z</time>
      </trkpt>
      <trkpt lat="47.47679" lon="6.69368">
        <ele>375.2</ele>
        <time>2017-10-22T08:32:02.999Z</time>
      </trkpt>
      <trkpt lat="47.47678" lon="6.69372">
        <ele>374.9</ele>
        <time>2017-10-22T08:32:03.999Z</time>
      </trkpt>
      <trkpt lat="47.47677" lon="6.69375">
        <ele>374.7</ele>
        <time>2017-10-22T08:32:04.999Z</time>
      </trkpt>
      <trkpt lat="47.47675" lon="6.69379">
        <ele>374.5</ele>
        <time>2017-10-22T08:32:05.999Z</time>
      </trkpt>
      <trkpt lat="47.47673" lon="6.69383">
        <ele>374.1</ele>
        <time>2017-10-22T08:32:07.999Z</time>
      </trkpt>
      <trkpt lat="47.47671" lon="6.69384">
        <ele>373.9</ele>
        <time>2017-10-22T08:32:08.999Z</time>
      </trkpt>
      <trkpt lat="47.47669" lon="6.69382">
        <ele>373.6</ele>
        <time>2017-10-22T08:32:10.999Z</time>
      </trkpt>
      <trkpt lat="47.47668" lon="6.69379">
        <ele>373.5</ele>
        <time>2017-10-22T08:32:11.999Z</time>
      </trkpt>
      <trkpt lat="47.47665" lon="6.69377">
        <ele>373.3</ele>
        <time>2017-10-22T08:32:12.999Z</time>
      </trkpt>
      <trkpt lat="47.47661" lon="6.69373">
        <ele>373.1</ele>
        <time>2017-10-22T08:32:13.999Z</time>
      </trkpt>
      <trkpt lat="47.47658" lon="6.69371">
        <ele>372.9</ele>
        <time>2017-10-22T08:32:14.999Z</time>
      </trkpt>
      <trkpt lat="47.47654" lon="6.6937">
        <ele>372.6</ele>
        <time>2017-10-22T08:32:15.999Z</time>
      </trkpt>
      <trkpt lat="47.4765" lon="6.69369">
        <ele>372.4</ele>
        <time>2017-10-22T08:32:16.999Z</time>
      </trkpt>
      <trkpt lat="47.47647" lon="6.6937">
        <ele>372.3</ele>
        <time>2017-10-22T08:32:17.999Z</time>
      </trkpt>
      <trkpt lat="47.47644" lon="6.69371">
        <ele>372.1</ele>
        <time>2017-10-22T08:32:18.999Z</time>
      </trkpt>
      <trkpt lat="47.4764" lon="6.69372">
        <ele>372</ele>
        <time>2017-10-22T08:32:19.999Z</time>
      </trkpt>
      <trkpt lat="47.47637" lon="6.69373">
        <ele>371.9</ele>
        <time>2017-10-22T08:32:20.999Z</time>
      </trkpt>
      <trkpt lat="47.47635" lon="6.69373">
        <ele>371.7</ele>
        <time>2017-10-22T08:32:21.999Z</time>
      </trkpt>
      <trkpt lat="47.47632" lon="6.69374">
        <ele>371.6</ele>
        <time>2017-10-22T08:32:22.999Z</time>
      </trkpt>
      <trkpt lat="47.47629" lon="6.69375">
        <ele>371.4</ele>
        <time>2017-10-22T08:32:23.999Z</time>
      </trkpt>
      <trkpt lat="47.47626" lon="6.69377">
        <ele>371.2</ele>
        <time>2017-10-22T08:32:24.999Z</time>
      </trkpt>
      <trkpt lat="47.47623" lon="6.69378">
        <ele>371.1</ele>
        <time>2017-10-22T08:32:25.999Z</time>
      </trkpt>
      <trkpt lat="47.4762" lon="6.6938">
        <ele>371</ele>
        <time>2017-10-22T08:32:26.999Z</time>
      </trkpt>
      <trkpt lat="47.47616" lon="6.69382">
        <ele>371</ele>
        <time>2017-10-22T08:32:27.999Z</time>
      </trkpt>
      <trkpt lat="47.47612" lon="6.69385">
        <ele>370.8</ele>
        <time>2017-10-22T08:32:28.999Z</time>
      </trkpt>
      <trkpt lat="47.47609" lon="6.69387">
        <ele>370.7</ele>
        <time>2017-10-22T08:32:29.999Z</time>
      </trkpt>
      <trkpt lat="47.47607" lon="6.69388">
        <ele>370.5</ele>
        <time>2017-10-22T08:32:30.999Z</time>
      </trkpt>
      <trkpt lat="47.47604" lon="6.69391">
        <ele>370.4</ele>
        <time>2017-10-22T08:32:31.999Z</time>
      </trkpt>
      <trkpt lat="47.47601" lon="6.69393">
        <ele>370.2</ele>
        <time>2017-10-22T08:32:32.999Z</time>
      </trkpt>
      <trkpt lat="47.47598" lon="6.69396">
        <ele>370</ele>
        <time>2017-10-22T08:32:33.999Z</time>
      </trkpt>
      <trkpt lat="47.47594" lon="6.69399">
        <ele>368.1</ele>
        <time>2017-10-22T08:32:34.999Z</time>
      </trkpt>
      <trkpt lat="47.4759" lon="6.69402">
        <ele>367.9</ele>
        <time>2017-10-22T08:32:35.999Z</time>
      </trkpt>
      <trkpt lat="47.47587" lon="6.69404">
        <ele>367.7</ele>
        <time>2017-10-22T08:32:36.999Z</time>
      </trkpt>
      <trkpt lat="47.47583" lon="6.69406">
        <ele>367.6</ele>
        <time>2017-10-22T08:32:37.999Z</time>
      </trkpt>
      <trkpt lat="47.47579" lon="6.69409">
        <ele>366.8</ele>
        <time>2017-10-22T08:32:38.999Z</time>
      </trkpt>
      <trkpt lat="47.47575" lon="6.69412">
        <ele>366.4</ele>
        <time>2017-10-22T08:32:39.999Z</time>
      </trkpt>
      <trkpt lat="47.47571" lon="6.69414">
        <ele>366.4</ele>
        <time>2017-10-22T08:32:40.999Z</time>
      </trkpt>
      <trkpt lat="47.47568" lon="6.69416">
        <ele>366.3</ele>
        <time>2017-10-22T08:32:41.999Z</time>
      </trkpt>
      <trkpt lat="47.47564" lon="6.69418">
        <ele>365.3</ele>
        <time>2017-10-22T08:32:42.999Z</time>
      </trkpt>
      <trkpt lat="47.4756" lon="6.69421">
        <ele>364.8</ele>
        <time>2017-10-22T08:32:43.999Z</time>
      </trkpt>
      <trkpt lat="47.47557" lon="6.69423">
        <ele>364.2</ele>
        <time>2017-10-22T08:32:44.999Z</time>
      </trkpt>
      <trkpt lat="47.47554" lon="6.69425">
        <ele>363.6</ele>
        <time>2017-10-22T08:32:45.999Z</time>
      </trkpt>
      <trkpt lat="47.4755" lon="6.69426">
        <ele>363.4</ele>
        <time>2017-10-22T08:32:46.999Z</time>
      </trkpt>
      <trkpt lat="47.47546" lon="6.69428">
        <ele>363.4</ele>
        <time>2017-10-22T08:32:47.999Z</time>
      </trkpt>
      <trkpt lat="47.47543" lon="6.6943">
        <ele>363.5</ele>
        <time>2017-10-22T08:32:48.999Z</time>
      </trkpt>
      <trkpt lat="47.47539" lon="6.69431">
        <ele>363.8</ele>
        <time>2017-10-22T08:32:49.999Z</time>
      </trkpt>
      <trkpt lat="47.47535" lon="6.69432">
        <ele>364.2</ele>
        <time>2017-10-22T08:32:50.999Z</time>
      </trkpt>
      <trkpt lat="47.4753" lon="6.69434">
        <ele>364.5</ele>
        <time>2017-10-22T08:32:51.999Z</time>
      </trkpt>
      <trkpt lat="47.47525" lon="6.69436">
        <ele>364.9</ele>
        <time>2017-10-22T08:32:52.999Z</time>
      </trkpt>
      <trkpt lat="47.4752" lon="6.69438">
        <ele>365.2</ele>
        <time>2017-10-22T08:32:53.999Z</time>
      </trkpt>
      <trkpt lat="47.47517" lon="6.6944">
        <ele>365.4</ele>
        <time>2017-10-22T08:32:54.999Z</time>
      </trkpt>
      <trkpt lat="47.47513" lon="6.69441">
        <ele>366.1</ele>
        <time>2017-10-22T08:32:55.999Z</time>
      </trkpt>
      <trkpt lat="47.47508" lon="6.69442">
        <ele>367.4</ele>
        <time>2017-10-22T08:32:56.999Z</time>
      </trkpt>
      <trkpt lat="47.47504" lon="6.69444">
        <ele>368.6</ele>
        <time>2017-10-22T08:32:57.999Z</time>
      </trkpt>
      <trkpt lat="47.47499" lon="6.69445">
        <ele>369.5</ele>
        <time>2017-10-22T08:32:58.999Z</time>
      </trkpt>
      <trkpt lat="47.47496" lon="6.69446">
        <ele>369.6</ele>
        <time>2017-10-22T08:32:59.999Z</time>
      </trkpt>
      <trkpt lat="47.47492" lon="6.69446">
        <ele>369.6</ele>
        <time>2017-10-22T08:33:00.999Z</time>
      </trkpt>
      <trkpt lat="47.47489" lon="6.69448">
        <ele>369.6</ele>
        <time>2017-10-22T08:33:01.999Z</time>
      </trkpt>
      <trkpt lat="47.47486" lon="6.69449">
        <ele>369.7</ele>
        <time>2017-10-22T08:33:02.999Z</time>
      </trkpt>
      <trkpt lat="47.47483" lon="6.6945">
        <ele>369.8</ele>
        <time>2017-10-22T08:33:04.999Z</time>
      </trkpt>
      <trkpt lat="47.47481" lon="6.69449">
        <ele>369.8</ele>
        <time>2017-10-22T08:33:05.999Z</time>
      </trkpt>
      <trkpt lat="47.47478" lon="6.69449">
        <ele>369.9</ele>
        <time>2017-10-22T08:33:07.999Z</time>
      </trkpt>
      <trkpt lat="47.47477" lon="6.69447">
        <ele>369.9</ele>
        <time>2017-10-22T08:33:08.999Z</time>
      </trkpt>
      <trkpt lat="47.47475" lon="6.69445">
        <ele>369.9</ele>
        <time>2017-10-22T08:33:09.999Z</time>
      </trkpt>
      <trkpt lat="47.47472" lon="6.69442">
        <ele>369.9</ele>
        <time>2017-10-22T08:33:10.999Z</time>
      </trkpt>
      <trkpt lat="47.47471" lon="6.69439">
        <ele>369.9</ele>
        <time>2017-10-22T08:33:11.999Z</time>
      </trkpt>
      <trkpt lat="47.47469" lon="6.69435">
        <ele>369.8</ele>
        <time>2017-10-22T08:33:12.999Z</time>
      </trkpt>
      <trkpt lat="47.47467" lon="6.69431">
        <ele>369.8</ele>
        <time>2017-10-22T08:33:13.999Z</time>
      </trkpt>
      <trkpt lat="47.47464" lon="6.69427">
        <ele>369.2</ele>
        <time>2017-10-22T08:33:14.999Z</time>
      </trkpt>
      <trkpt lat="47.47462" lon="6.69423">
        <ele>368.7</ele>
        <time>2017-10-22T08:33:15.999Z</time>
      </trkpt>
      <trkpt lat="47.47458" lon="6.69417">
        <ele>368</ele>
        <time>2017-10-22T08:33:16.999Z</time>
      </trkpt>
      <trkpt lat="47.47455" lon="6.69411">
        <ele>367.3</ele>
        <time>2017-10-22T08:33:17.999Z</time>
      </trkpt>
      <trkpt lat="47.47452" lon="6.69407">
        <ele>366.5</ele>
        <time>2017-10-22T08:33:18.999Z</time>
      </trkpt>
      <trkpt lat="47.47449" lon="6.69402">
        <ele>366.5</ele>
        <time>2017-10-22T08:33:19.999Z</time>
      </trkpt>
      <trkpt lat="47.47446" lon="6.69398">
        <ele>366.6</ele>
        <time>2017-10-22T08:33:20.999Z</time>
      </trkpt>
      <trkpt lat="47.47443" lon="6.69395">
        <ele>367</ele>
        <time>2017-10-22T08:33:21.999Z</time>
      </trkpt>
      <trkpt lat="47.47439" lon="6.69389">
        <ele>367.4</ele>
        <time>2017-10-22T08:33:22.999Z</time>
      </trkpt>
      <trkpt lat="47.47436" lon="6.69385">
        <ele>368</ele>
        <time>2017-10-22T08:33:23.999Z</time>
      </trkpt>
      <trkpt lat="47.47434" lon="6.69381">
        <ele>367.6</ele>
        <time>2017-10-22T08:33:24.999Z</time>
      </trkpt>
      <trkpt lat="47.4743" lon="6.69375">
        <ele>368</ele>
        <time>2017-10-22T08:33:25.999Z</time>
      </trkpt>
      <trkpt lat="47.47427" lon="6.69369">
        <ele>368.2</ele>
        <time>2017-10-22T08:33:26.999Z</time>
      </trkpt>
      <trkpt lat="47.47423" lon="6.69363">
        <ele>367.6</ele>
        <time>2017-10-22T08:33:27.999Z</time>
      </trkpt>
      <trkpt lat="47.4742" lon="6.69357">
        <ele>367</ele>
        <time>2017-10-22T08:33:28.999Z</time>
      </trkpt>
      <trkpt lat="47.47416" lon="6.69351">
        <ele>366.6</ele>
        <time>2017-10-22T08:33:29.999Z</time>
      </trkpt>
      <trkpt lat="47.47413" lon="6.69345">
        <ele>366.7</ele>
        <time>2017-10-22T08:33:30.999Z</time>
      </trkpt>
      <trkpt lat="47.4741" lon="6.69339">
        <ele>366.6</ele>
        <time>2017-10-22T08:33:31.999Z</time>
      </trkpt>
      <trkpt lat="47.47407" lon="6.69333">
        <ele>365.9</ele>
        <time>2017-10-22T08:33:32.999Z</time>
      </trkpt>
      <trkpt lat="47.47404" lon="6.69327">
        <ele>365.7</ele>
        <time>2017-10-22T08:33:33.999Z</time>
      </trkpt>
      <trkpt lat="47.47401" lon="6.6932">
        <ele>365.5</ele>
        <time>2017-10-22T08:33:34.999Z</time>
      </trkpt>
      <trkpt lat="47.47398" lon="6.69315">
        <ele>364.5</ele>
        <time>2017-10-22T08:33:35.999Z</time>
      </trkpt>
      <trkpt lat="47.47396" lon="6.6931">
        <ele>363.9</ele>
        <time>2017-10-22T08:33:36.999Z</time>
      </trkpt>
      <trkpt lat="47.47393" lon="6.69305">
        <ele>363.3</ele>
        <time>2017-10-22T08:33:37.999Z</time>
      </trkpt>
      <trkpt lat="47.4739" lon="6.69301">
        <ele>362.6</ele>
        <time>2017-10-22T08:33:38.999Z</time>
      </trkpt>
      <trkpt lat="47.47387" lon="6.69295">
        <ele>362</ele>
        <time>2017-10-22T08:33:39.999Z</time>
      </trkpt>
      <trkpt lat="47.47384" lon="6.69289">
        <ele>361.7</ele>
        <time>2017-10-22T08:33:40.999Z</time>
      </trkpt>
      <trkpt lat="47.47381" lon="6.69284">
        <ele>361.3</ele>
        <time>2017-10-22T08:33:41.999Z</time>
      </trkpt>
      <trkpt lat="47.47378" lon="6.69278">
        <ele>361.2</ele>
        <time>2017-10-22T08:33:42.999Z</time>
      </trkpt>
      <trkpt lat="47.47375" lon="6.69273">
        <ele>361.5</ele>
        <time>2017-10-22T08:33:43.999Z</time>
      </trkpt>
      <trkpt lat="47.47372" lon="6.69268">
        <ele>361.1</ele>
        <time>2017-10-22T08:33:44.999Z</time>
      </trkpt>
      <trkpt lat="47.4737" lon="6.69263">
        <ele>361.4</ele>
        <time>2017-10-22T08:33:45.999Z</time>
      </trkpt>
      <trkpt lat="47.47367" lon="6.69258">
        <ele>361.9</ele>
        <time>2017-10-22T08:33:46.999Z</time>
      </trkpt>
      <trkpt lat="47.47364" lon="6.69252">
        <ele>361.9</ele>
        <time>2017-10-22T08:33:47.999Z</time>
      </trkpt>
      <trkpt lat="47.47361" lon="6.69246">
        <ele>361.8</ele>
        <time>2017-10-22T08:33:48.999Z</time>
      </trkpt>
      <trkpt lat="47.47358" lon="6.6924">
        <ele>361.9</ele>
        <time>2017-10-22T08:33:49.999Z</time>
      </trkpt>
      <trkpt lat="47.47355" lon="6.69235">
        <ele>361.9</ele>
        <time>2017-10-22T08:33:50.999Z</time>
      </trkpt>
      <trkpt lat="47.47352" lon="6.69229">
        <ele>361.8</ele>
        <time>2017-10-22T08:33:51.999Z</time>
      </trkpt>
      <trkpt lat="47.47349" lon="6.69223">
        <ele>361.6</ele>
        <time>2017-10-22T08:33:52.999Z</time>
      </trkpt>
      <trkpt lat="47.47346" lon="6.69217">
        <ele>361.7</ele>
        <time>2017-10-22T08:33:53.999Z</time>
      </trkpt>
      <trkpt lat="47.47343" lon="6.69211">
        <ele>361.8</ele>
        <time>2017-10-22T08:33:54.999Z</time>
      </trkpt>
      <trkpt lat="47.4734" lon="6.69205">
        <ele>362.1</ele>
        <time>2017-10-22T08:33:55.999Z</time>
      </trkpt>
      <trkpt lat="47.47337" lon="6.692">
        <ele>362.2</ele>
        <time>2017-10-22T08:33:56.999Z</time>
      </trkpt>
      <trkpt lat="47.47334" lon="6.69194">
        <ele>361.7</ele>
        <time>2017-10-22T08:33:57.999Z</time>
      </trkpt>
      <trkpt lat="47.47331" lon="6.69189">
        <ele>361.6</ele>
        <time>2017-10-22T08:33:58.999Z</time>
      </trkpt>
      <trkpt lat="47.47329" lon="6.69184">
        <ele>361.2</ele>
        <time>2017-10-22T08:33:59.999Z</time>
      </trkpt>
      <trkpt lat="47.47326" lon="6.69178">
        <ele>360.9</ele>
        <time>2017-10-22T08:34:00.999Z</time>
      </trkpt>
      <trkpt lat="47.47323" lon="6.69173">
        <ele>360.9</ele>
        <time>2017-10-22T08:34:01.999Z</time>
      </trkpt>
      <trkpt lat="47.4732" lon="6.69168">
        <ele>360.6</ele>
        <time>2017-10-22T08:34:02.999Z</time>
      </trkpt>
      <trkpt lat="47.47317" lon="6.69163">
        <ele>360.3</ele>
        <time>2017-10-22T08:34:03.999Z</time>
      </trkpt>
      <trkpt lat="47.47314" lon="6.69157">
        <ele>359.3</ele>
        <time>2017-10-22T08:34:04.999Z</time>
      </trkpt>
      <trkpt lat="47.4731" lon="6.69153">
        <ele>358.8</ele>
        <time>2017-10-22T08:34:05.999Z</time>
      </trkpt>
      <trkpt lat="47.47307" lon="6.69147">
        <ele>358.8</ele>
        <time>2017-10-22T08:34:06.999Z</time>
      </trkpt>
      <trkpt lat="47.47304" lon="6.69142">
        <ele>359</ele>
        <time>2017-10-22T08:34:07.999Z</time>
      </trkpt>
      <trkpt lat="47.47301" lon="6.69136">
        <ele>359.4</ele>
        <time>2017-10-22T08:34:08.999Z</time>
      </trkpt>
      <trkpt lat="47.47299" lon="6.6913">
        <ele>359.8</ele>
        <time>2017-10-22T08:34:09.999Z</time>
      </trkpt>
      <trkpt lat="47.47296" lon="6.69124">
        <ele>360.2</ele>
        <time>2017-10-22T08:34:10.999Z</time>
      </trkpt>
      <trkpt lat="47.47293" lon="6.69118">
        <ele>360.1</ele>
        <time>2017-10-22T08:34:11.999Z</time>
      </trkpt>
      <trkpt lat="47.47291" lon="6.69112">
        <ele>359.7</ele>
        <time>2017-10-22T08:34:12.999Z</time>
      </trkpt>
      <trkpt lat="47.47288" lon="6.69107">
        <ele>359.6</ele>
        <time>2017-10-22T08:34:13.999Z</time>
      </trkpt>
      <trkpt lat="47.47285" lon="6.69101">
        <ele>359</ele>
        <time>2017-10-22T08:34:14.999Z</time>
      </trkpt>
      <trkpt lat="47.47282" lon="6.69096">
        <ele>358.4</ele>
        <time>2017-10-22T08:34:15.999Z</time>
      </trkpt>
      <trkpt lat="47.47279" lon="6.69091">
        <ele>358.4</ele>
        <time>2017-10-22T08:34:16.999Z</time>
      </trkpt>
      <trkpt lat="47.47276" lon="6.69085">
        <ele>359.5</ele>
        <time>2017-10-22T08:34:17.999Z</time>
      </trkpt>
      <trkpt lat="47.47273" lon="6.69079">
        <ele>360.2</ele>
        <time>2017-10-22T08:34:18.999Z</time>
      </trkpt>
      <trkpt lat="47.47269" lon="6.69072">
        <ele>359.9</ele>
        <time>2017-10-22T08:34:19.999Z</time>
      </trkpt>
      <trkpt lat="47.47265" lon="6.69066">
        <ele>359.6</ele>
        <time>2017-10-22T08:34:20.999Z</time>
      </trkpt>
      <trkpt lat="47.47262" lon="6.69061">
        <ele>359.1</ele>
        <time>2017-10-22T08:34:21.999Z</time>
      </trkpt>
      <trkpt lat="47.47259" lon="6.69055">
        <ele>358.8</ele>
        <time>2017-10-22T08:34:22.999Z</time>
      </trkpt>
      <trkpt lat="47.47255" lon="6.69049">
        <ele>358.5</ele>
        <time>2017-10-22T08:34:23.999Z</time>
      </trkpt>
      <trkpt lat="47.47252" lon="6.69043">
        <ele>358.8</ele>
        <time>2017-10-22T08:34:24.999Z</time>
      </trkpt>
      <trkpt lat="47.47249" lon="6.69037">
        <ele>358.9</ele>
        <time>2017-10-22T08:34:25.999Z</time>
      </trkpt>
      <trkpt lat="47.47246" lon="6.69031">
        <ele>359.1</ele>
        <time>2017-10-22T08:34:26.999Z</time>
      </trkpt>
      <trkpt lat="47.47242" lon="6.69025">
        <ele>358.4</ele>
        <time>2017-10-22T08:34:27.999Z</time>
      </trkpt>
      <trkpt lat="47.47238" lon="6.69018">
        <ele>357.6</ele>
        <time>2017-10-22T08:34:28.999Z</time>
      </trkpt>
      <trkpt lat="47.47235" lon="6.69012">
        <ele>357.1</ele>
        <time>2017-10-22T08:34:29.999Z</time>
      </trkpt>
      <trkpt lat="47.47231" lon="6.69005">
        <ele>356.8</ele>
        <time>2017-10-22T08:34:30.999Z</time>
      </trkpt>
      <trkpt lat="47.47228" lon="6.68999">
        <ele>356.4</ele>
        <time>2017-10-22T08:34:31.999Z</time>
      </trkpt>
      <trkpt lat="47.47225" lon="6.68993">
        <ele>356</ele>
        <time>2017-10-22T08:34:32.999Z</time>
      </trkpt>
      <trkpt lat="47.47222" lon="6.68987">
        <ele>355.8</ele>
        <time>2017-10-22T08:34:33.999Z</time>
      </trkpt>
      <trkpt lat="47.47219" lon="6.68981">
        <ele>355.9</ele>
        <time>2017-10-22T08:34:34.999Z</time>
      </trkpt>
      <trkpt lat="47.47216" lon="6.68975">
        <ele>355.7</ele>
        <time>2017-10-22T08:34:35.999Z</time>
      </trkpt>
      <trkpt lat="47.47212" lon="6.6897">
        <ele>355.4</ele>
        <time>2017-10-22T08:34:36.999Z</time>
      </trkpt>
      <trkpt lat="47.4721" lon="6.68965">
        <ele>355.8</ele>
        <time>2017-10-22T08:34:37.999Z</time>
      </trkpt>
      <trkpt lat="47.47206" lon="6.68959">
        <ele>356.2</ele>
        <time>2017-10-22T08:34:38.999Z</time>
      </trkpt>
      <trkpt lat="47.47203" lon="6.68953">
        <ele>356.1</ele>
        <time>2017-10-22T08:34:39.999Z</time>
      </trkpt>
      <trkpt lat="47.47199" lon="6.68947">
        <ele>356.7</ele>
        <time>2017-10-22T08:34:40.999Z</time>
      </trkpt>
      <trkpt lat="47.47196" lon="6.68941">
        <ele>357</ele>
        <time>2017-10-22T08:34:41.999Z</time>
      </trkpt>
      <trkpt lat="47.47192" lon="6.68935">
        <ele>357.3</ele>
        <time>2017-10-22T08:34:42.999Z</time>
      </trkpt>
      <trkpt lat="47.47189" lon="6.6893">
        <ele>357.3</ele>
        <time>2017-10-22T08:34:43.999Z</time>
      </trkpt>
      <trkpt lat="47.47186" lon="6.68924">
        <ele>357.2</ele>
        <time>2017-10-22T08:34:44.999Z</time>
      </trkpt>
      <trkpt lat="47.47183" lon="6.68918">
        <ele>356.9</ele>
        <time>2017-10-22T08:34:45.999Z</time>
      </trkpt>
      <trkpt lat="47.4718" lon="6.68913">
        <ele>357</ele>
        <time>2017-10-22T08:34:46.999Z</time>
      </trkpt>
      <trkpt lat="47.47177" lon="6.68908">
        <ele>356.9</ele>
        <time>2017-10-22T08:34:47.999Z</time>
      </trkpt>
      <trkpt lat="47.47174" lon="6.68902">
        <ele>356.8</ele>
        <time>2017-10-22T08:34:48.999Z</time>
      </trkpt>
      <trkpt lat="47.47171" lon="6.68897">
        <ele>356.7</ele>
        <time>2017-10-22T08:34:49.999Z</time>
      </trkpt>
      <trkpt lat="47.47168" lon="6.68892">
        <ele>356.8</ele>
        <time>2017-10-22T08:34:50.999Z</time>
      </trkpt>
      <trkpt lat="47.47164" lon="6.68887">
        <ele>356.7</ele>
        <time>2017-10-22T08:34:51.999Z</time>
      </trkpt>
      <trkpt lat="47.4716" lon="6.68883">
        <ele>356.7</ele>
        <time>2017-10-22T08:34:52.999Z</time>
      </trkpt>
      <trkpt lat="47.47156" lon="6.68877">
        <ele>356.5</ele>
        <time>2017-10-22T08:34:53.999Z</time>
      </trkpt>
      <trkpt lat="47.47152" lon="6.68873">
        <ele>356</ele>
        <time>2017-10-22T08:34:54.999Z</time>
      </trkpt>
      <trkpt lat="47.47148" lon="6.68869">
        <ele>355.1</ele>
        <time>2017-10-22T08:34:55.999Z</time>
      </trkpt>
      <trkpt lat="47.47145" lon="6.68865">
        <ele>354.6</ele>
        <time>2017-10-22T08:34:56.999Z</time>
      </trkpt>
      <trkpt lat="47.4714" lon="6.6886">
        <ele>354.5</ele>
        <time>2017-10-22T08:34:57.999Z</time>
      </trkpt>
      <trkpt lat="47.47136" lon="6.68855">
        <ele>354.8</ele>
        <time>2017-10-22T08:34:58.999Z</time>
      </trkpt>
      <trkpt lat="47.47132" lon="6.68851">
        <ele>354.4</ele>
        <time>2017-10-22T08:34:59.999Z</time>
      </trkpt>
      <trkpt lat="47.47129" lon="6.68847">
        <ele>353.6</ele>
        <time>2017-10-22T08:35:00.999Z</time>
      </trkpt>
      <trkpt lat="47.47126" lon="6.68841">
        <ele>352.7</ele>
        <time>2017-10-22T08:35:01.999Z</time>
      </trkpt>
      <trkpt lat="47.47122" lon="6.68837">
        <ele>352</ele>
        <time>2017-10-22T08:35:02.999Z</time>
      </trkpt>
      <trkpt lat="47.47119" lon="6.68832">
        <ele>350.9</ele>
        <time>2017-10-22T08:35:03.999Z</time>
      </trkpt>
      <trkpt lat="47.47115" lon="6.68828">
        <ele>350.4</ele>
        <time>2017-10-22T08:35:04.999Z</time>
      </trkpt>
      <trkpt lat="47.47112" lon="6.68823">
        <ele>350.8</ele>
        <time>2017-10-22T08:35:05.999Z</time>
      </trkpt>
      <trkpt lat="47.47109" lon="6.68819">
        <ele>350.8</ele>
        <time>2017-10-22T08:35:06.999Z</time>
      </trkpt>
      <trkpt lat="47.47105" lon="6.68815">
        <ele>351.3</ele>
        <time>2017-10-22T08:35:07.999Z</time>
      </trkpt>
      <trkpt lat="47.47102" lon="6.68811">
        <ele>351</ele>
        <time>2017-10-22T08:35:08.999Z</time>
      </trkpt>
      <trkpt lat="47.47098" lon="6.68807">
        <ele>350.8</ele>
        <time>2017-10-22T08:35:09.999Z</time>
      </trkpt>
      <trkpt lat="47.47094" lon="6.68802">
        <ele>351</ele>
        <time>2017-10-22T08:35:10.999Z</time>
      </trkpt>
      <trkpt lat="47.47091" lon="6.68797">
        <ele>350.7</ele>
        <time>2017-10-22T08:35:11.999Z</time>
      </trkpt>
      <trkpt lat="47.47088" lon="6.68792">
        <ele>350.8</ele>
        <time>2017-10-22T08:35:12.999Z</time>
      </trkpt>
      <trkpt lat="47.47085" lon="6.68788">
        <ele>350.8</ele>
        <time>2017-10-22T08:35:13.999Z</time>
      </trkpt>
      <trkpt lat="47.47083" lon="6.68783">
        <ele>350.8</ele>
        <time>2017-10-22T08:35:14.999Z</time>
      </trkpt>
      <trkpt lat="47.47079" lon="6.68778">
        <ele>350.3</ele>
        <time>2017-10-22T08:35:15.999Z</time>
      </trkpt>
      <trkpt lat="47.47076" lon="6.68774">
        <ele>350.4</ele>
        <time>2017-10-22T08:35:16.999Z</time>
      </trkpt>
      <trkpt lat="47.47074" lon="6.6877">
        <ele>350.9</ele>
        <time>2017-10-22T08:35:17.999Z</time>
      </trkpt>
      <trkpt lat="47.47072" lon="6.68765">
        <ele>350.9</ele>
        <time>2017-10-22T08:35:18.999Z</time>
      </trkpt>
      <trkpt lat="47.4707" lon="6.68761">
        <ele>350.9</ele>
        <time>2017-10-22T08:35:19.999Z</time>
      </trkpt>
      <trkpt lat="47.47071" lon="6.68757">
        <ele>350.9</ele>
        <time>2017-10-22T08:35:20.999Z</time>
      </trkpt>
      <trkpt lat="47.47073" lon="6.68753">
        <ele>351.1</ele>
        <time>2017-10-22T08:35:21.999Z</time>
      </trkpt>
      <trkpt lat="47.47075" lon="6.68751">
        <ele>351.9</ele>
        <time>2017-10-22T08:35:22.999Z</time>
      </trkpt>
      <trkpt lat="47.47078" lon="6.68749">
        <ele>352.8</ele>
        <time>2017-10-22T08:35:23.999Z</time>
      </trkpt>
      <trkpt lat="47.47081" lon="6.68747">
        <ele>352.9</ele>
        <time>2017-10-22T08:35:24.999Z</time>
      </trkpt>
      <trkpt lat="47.47082" lon="6.68744">
        <ele>353</ele>
        <time>2017-10-22T08:35:25.999Z</time>
      </trkpt>
      <trkpt lat="47.47085" lon="6.68742">
        <ele>353</ele>
        <time>2017-10-22T08:35:26.999Z</time>
      </trkpt>
      <trkpt lat="47.47087" lon="6.68741">
        <ele>353.1</ele>
        <time>2017-10-22T08:35:27.999Z</time>
      </trkpt>
      <trkpt lat="47.47089" lon="6.68739">
        <ele>353.3</ele>
        <time>2017-10-22T08:35:28.999Z</time>
      </trkpt>
      <trkpt lat="47.47092" lon="6.68739">
        <ele>353.5</ele>
        <time>2017-10-22T08:35:29.999Z</time>
      </trkpt>
      <trkpt lat="47.47095" lon="6.68738">
        <ele>353.7</ele>
        <time>2017-10-22T08:35:30.999Z</time>
      </trkpt>
      <trkpt lat="47.47099" lon="6.68737">
        <ele>353.9</ele>
        <time>2017-10-22T08:35:31.999Z</time>
      </trkpt>
      <trkpt lat="47.47102" lon="6.68736">
        <ele>354.1</ele>
        <time>2017-10-22T08:35:32.999Z</time>
      </trkpt>
      <trkpt lat="47.47105" lon="6.68736">
        <ele>354.2</ele>
        <time>2017-10-22T08:35:33.999Z</time>
      </trkpt>
      <trkpt lat="47.47107" lon="6.68735">
        <ele>354.4</ele>
        <time>2017-10-22T08:35:34.999Z</time>
      </trkpt>
      <trkpt lat="47.4711" lon="6.68736">
        <ele>354.6</ele>
        <time>2017-10-22T08:35:35.999Z</time>
      </trkpt>
      <trkpt lat="47.47114" lon="6.68737">
        <ele>354.8</ele>
        <time>2017-10-22T08:35:36.999Z</time>
      </trkpt>
      <trkpt lat="47.47118" lon="6.68737">
        <ele>354.9</ele>
        <time>2017-10-22T08:35:37.999Z</time>
      </trkpt>
      <trkpt lat="47.47121" lon="6.68737">
        <ele>355.1</ele>
        <time>2017-10-22T08:35:38.999Z</time>
      </trkpt>
      <trkpt lat="47.47124" lon="6.68736">
        <ele>355.3</ele>
        <time>2017-10-22T08:35:39.999Z</time>
      </trkpt>
      <trkpt lat="47.47127" lon="6.68735">
        <ele>355.5</ele>
        <time>2017-10-22T08:35:40.999Z</time>
      </trkpt>
      <trkpt lat="47.4713" lon="6.68733">
        <ele>355.7</ele>
        <time>2017-10-22T08:35:41.999Z</time>
      </trkpt>
      <trkpt lat="47.47133" lon="6.6873">
        <ele>355.9</ele>
        <time>2017-10-22T08:35:42.999Z</time>
      </trkpt>
      <trkpt lat="47.47135" lon="6.68727">
        <ele>356.1</ele>
        <time>2017-10-22T08:35:43.999Z</time>
      </trkpt>
      <trkpt lat="47.47137" lon="6.68725">
        <ele>356.3</ele>
        <time>2017-10-22T08:35:44.999Z</time>
      </trkpt>
      <trkpt lat="47.4714" lon="6.68723">
        <ele>356.5</ele>
        <time>2017-10-22T08:35:45.999Z</time>
      </trkpt>
      <trkpt lat="47.47142" lon="6.68721">
        <ele>356.8</ele>
        <time>2017-10-22T08:35:46.999Z</time>
      </trkpt>
      <trkpt lat="47.47144" lon="6.68719">
        <ele>357</ele>
        <time>2017-10-22T08:35:47.999Z</time>
      </trkpt>
      <trkpt lat="47.47148" lon="6.68718">
        <ele>357.3</ele>
        <time>2017-10-22T08:35:48.999Z</time>
      </trkpt>
      <trkpt lat="47.4715" lon="6.68715">
        <ele>357.5</ele>
        <time>2017-10-22T08:35:49.999Z</time>
      </trkpt>
      <trkpt lat="47.47152" lon="6.68712">
        <ele>357.8</ele>
        <time>2017-10-22T08:35:50.999Z</time>
      </trkpt>
      <trkpt lat="47.47154" lon="6.68708">
        <ele>358.1</ele>
        <time>2017-10-22T08:35:51.999Z</time>
      </trkpt>
      <trkpt lat="47.47155" lon="6.68705">
        <ele>358.3</ele>
        <time>2017-10-22T08:35:52.999Z</time>
      </trkpt>
      <trkpt lat="47.47156" lon="6.68701">
        <ele>358.6</ele>
        <time>2017-10-22T08:35:53.999Z</time>
      </trkpt>
      <trkpt lat="47.47158" lon="6.68699">
        <ele>358.8</ele>
        <time>2017-10-22T08:35:54.999Z</time>
      </trkpt>
      <trkpt lat="47.4716" lon="6.68696">
        <ele>359</ele>
        <time>2017-10-22T08:35:55.999Z</time>
      </trkpt>
      <trkpt lat="47.47162" lon="6.68694">
        <ele>359.2</ele>
        <time>2017-10-22T08:35:56.999Z</time>
      </trkpt>
      <trkpt lat="47.47163" lon="6.6869">
        <ele>359.4</ele>
        <time>2017-10-22T08:35:57.999Z</time>
      </trkpt>
      <trkpt lat="47.47165" lon="6.68686">
        <ele>359.6</ele>
        <time>2017-10-22T08:35:58.999Z</time>
      </trkpt>
      <trkpt lat="47.47167" lon="6.68683">
        <ele>359.9</ele>
        <time>2017-10-22T08:35:59.999Z</time>
      </trkpt>
      <trkpt lat="47.47169" lon="6.6868">
        <ele>360.2</ele>
        <time>2017-10-22T08:36:00.999Z</time>
      </trkpt>
      <trkpt lat="47.4717" lon="6.68677">
        <ele>360.4</ele>
        <time>2017-10-22T08:36:01.999Z</time>
      </trkpt>
      <trkpt lat="47.47174" lon="6.68673">
        <ele>360.9</ele>
        <time>2017-10-22T08:36:03.999Z</time>
      </trkpt>
      <trkpt lat="47.47176" lon="6.68671">
        <ele>361.1</ele>
        <time>2017-10-22T08:36:04.999Z</time>
      </trkpt>
      <trkpt lat="47.47179" lon="6.68669">
        <ele>361.3</ele>
        <time>2017-10-22T08:36:05.999Z</time>
      </trkpt>
      <trkpt lat="47.47181" lon="6.68666">
        <ele>361.5</ele>
        <time>2017-10-22T08:36:06.999Z</time>
      </trkpt>
      <trkpt lat="47.47184" lon="6.68663">
        <ele>361.8</ele>
        <time>2017-10-22T08:36:07.999Z</time>
      </trkpt>
      <trkpt lat="47.47187" lon="6.6866">
        <ele>362</ele>
        <time>2017-10-22T08:36:08.999Z</time>
      </trkpt>
      <trkpt lat="47.4719" lon="6.68658">
        <ele>362.3</ele>
        <time>2017-10-22T08:36:09.999Z</time>
      </trkpt>
      <trkpt lat="47.47192" lon="6.68655">
        <ele>362.6</ele>
        <time>2017-10-22T08:36:10.999Z</time>
      </trkpt>
      <trkpt lat="47.47194" lon="6.68653">
        <ele>362.9</ele>
        <time>2017-10-22T08:36:11.999Z</time>
      </trkpt>
      <trkpt lat="47.47196" lon="6.68649">
        <ele>363.2</ele>
        <time>2017-10-22T08:36:12.999Z</time>
      </trkpt>
      <trkpt lat="47.47198" lon="6.68646">
        <ele>363.5</ele>
        <time>2017-10-22T08:36:13.999Z</time>
      </trkpt>
      <trkpt lat="47.472" lon="6.68644">
        <ele>363.8</ele>
        <time>2017-10-22T08:36:14.999Z</time>
      </trkpt>
      <trkpt lat="47.47202" lon="6.68641">
        <ele>364.1</ele>
        <time>2017-10-22T08:36:15.999Z</time>
      </trkpt>
      <trkpt lat="47.47204" lon="6.68638">
        <ele>364.4</ele>
        <time>2017-10-22T08:36:16.999Z</time>
      </trkpt>
      <trkpt lat="47.47206" lon="6.68636">
        <ele>364.8</ele>
        <time>2017-10-22T08:36:17.999Z</time>
      </trkpt>
      <trkpt lat="47.47209" lon="6.68634">
        <ele>365.2</ele>
        <time>2017-10-22T08:36:18.999Z</time>
      </trkpt>
      <trkpt lat="47.47211" lon="6.68632">
        <ele>365.6</ele>
        <time>2017-10-22T08:36:19.999Z</time>
      </trkpt>
      <trkpt lat="47.47213" lon="6.68629">
        <ele>366</ele>
        <time>2017-10-22T08:36:20.999Z</time>
      </trkpt>
      <trkpt lat="47.47215" lon="6.68626">
        <ele>366.4</ele>
        <time>2017-10-22T08:36:21.999Z</time>
      </trkpt>
      <trkpt lat="47.47218" lon="6.68623">
        <ele>366.8</ele>
        <time>2017-10-22T08:36:22.999Z</time>
      </trkpt>
      <trkpt lat="47.4722" lon="6.68621">
        <ele>367.2</ele>
        <time>2017-10-22T08:36:23.999Z</time>
      </trkpt>
      <trkpt lat="47.47222" lon="6.68618">
        <ele>367.5</ele>
        <time>2017-10-22T08:36:24.999Z</time>
      </trkpt>
      <trkpt lat="47.47224" lon="6.68615">
        <ele>367.9</ele>
        <time>2017-10-22T08:36:25.999Z</time>
      </trkpt>
      <trkpt lat="47.47226" lon="6.68613">
        <ele>368.3</ele>
        <time>2017-10-22T08:36:26.999Z</time>
      </trkpt>
      <trkpt lat="47.47228" lon="6.6861">
        <ele>368.7</ele>
        <time>2017-10-22T08:36:27.999Z</time>
      </trkpt>
      <trkpt lat="47.47231" lon="6.68608">
        <ele>369</ele>
        <time>2017-10-22T08:36:28.999Z</time>
      </trkpt>
      <trkpt lat="47.47234" lon="6.68606">
        <ele>369.4</ele>
        <time>2017-10-22T08:36:29.999Z</time>
      </trkpt>
      <trkpt lat="47.47235" lon="6.68604">
        <ele>369.8</ele>
        <time>2017-10-22T08:36:30.999Z</time>
      </trkpt>
      <trkpt lat="47.47237" lon="6.68602">
        <ele>370.1</ele>
        <time>2017-10-22T08:36:31.999Z</time>
      </trkpt>
      <trkpt lat="47.47239" lon="6.686">
        <ele>370.5</ele>
        <time>2017-10-22T08:36:32.999Z</time>
      </trkpt>
      <trkpt lat="47.47241" lon="6.68598">
        <ele>370.9</ele>
        <time>2017-10-22T08:36:33.999Z</time>
      </trkpt>
      <trkpt lat="47.47243" lon="6.68595">
        <ele>371.3</ele>
        <time>2017-10-22T08:36:34.999Z</time>
      </trkpt>
      <trkpt lat="47.47245" lon="6.68593">
        <ele>371.6</ele>
        <time>2017-10-22T08:36:35.999Z</time>
      </trkpt>
      <trkpt lat="47.47248" lon="6.68591">
        <ele>371.8</ele>
        <time>2017-10-22T08:36:36.999Z</time>
      </trkpt>
      <trkpt lat="47.4725" lon="6.68589">
        <ele>372.1</ele>
        <time>2017-10-22T08:36:37.999Z</time>
      </trkpt>
      <trkpt lat="47.47252" lon="6.68587">
        <ele>372.4</ele>
        <time>2017-10-22T08:36:38.999Z</time>
      </trkpt>
      <trkpt lat="47.47254" lon="6.68585">
        <ele>372.7</ele>
        <time>2017-10-22T08:36:39.999Z</time>
      </trkpt>
      <trkpt lat="47.47256" lon="6.68582">
        <ele>372.9</ele>
        <time>2017-10-22T08:36:40.999Z</time>
      </trkpt>
      <trkpt lat="47.47259" lon="6.6858">
        <ele>373.2</ele>
        <time>2017-10-22T08:36:41.999Z</time>
      </trkpt>
      <trkpt lat="47.47261" lon="6.68578">
        <ele>373.4</ele>
        <time>2017-10-22T08:36:42.999Z</time>
      </trkpt>
      <trkpt lat="47.47264" lon="6.68577">
        <ele>373.7</ele>
        <time>2017-10-22T08:36:43.999Z</time>
      </trkpt>
      <trkpt lat="47.47266" lon="6.68576">
        <ele>373.8</ele>
        <time>2017-10-22T08:36:44.999Z</time>
      </trkpt>
      <trkpt lat="47.47268" lon="6.68575">
        <ele>373.9</ele>
        <time>2017-10-22T08:36:45.999Z</time>
      </trkpt>
      <trkpt lat="47.47271" lon="6.68573">
        <ele>374.1</ele>
        <time>2017-10-22T08:36:46.999Z</time>
      </trkpt>
      <trkpt lat="47.47274" lon="6.68571">
        <ele>374.4</ele>
        <time>2017-10-22T08:36:47.999Z</time>
      </trkpt>
      <trkpt lat="47.47276" lon="6.6857">
        <ele>374.7</ele>
        <time>2017-10-22T08:36:48.999Z</time>
      </trkpt>
      <trkpt lat="47.4728" lon="6.68568">
        <ele>375.2</ele>
        <time>2017-10-22T08:36:50.999Z</time>
      </trkpt>
      <trkpt lat="47.47282" lon="6.68567">
        <ele>375.4</ele>
        <time>2017-10-22T08:36:51.999Z</time>
      </trkpt>
      <trkpt lat="47.47285" lon="6.68565">
        <ele>375.8</ele>
        <time>2017-10-22T08:36:53.999Z</time>
      </trkpt>
      <trkpt lat="47.47287" lon="6.68564">
        <ele>376.1</ele>
        <time>2017-10-22T08:36:54.999Z</time>
      </trkpt>
      <trkpt lat="47.4729" lon="6.68563">
        <ele>376.7</ele>
        <time>2017-10-22T08:36:56.999Z</time>
      </trkpt>
      <trkpt lat="47.47292" lon="6.68562">
        <ele>376.9</ele>
        <time>2017-10-22T08:36:57.999Z</time>
      </trkpt>
      <trkpt lat="47.47295" lon="6.6856">
        <ele>377.3</ele>
        <time>2017-10-22T08:36:59.999Z</time>
      </trkpt>
      <trkpt lat="47.47296" lon="6.68558">
        <ele>377.3</ele>
        <time>2017-10-22T08:37:00.999Z</time>
      </trkpt>
      <trkpt lat="47.47298" lon="6.68554">
        <ele>377.4</ele>
        <time>2017-10-22T08:37:02.999Z</time>
      </trkpt>
      <trkpt lat="47.47299" lon="6.6855">
        <ele>377.3</ele>
        <time>2017-10-22T08:37:03.999Z</time>
      </trkpt>
      <trkpt lat="47.47301" lon="6.68547">
        <ele>377.2</ele>
        <time>2017-10-22T08:37:05.999Z</time>
      </trkpt>
      <trkpt lat="47.47301" lon="6.68545">
        <ele>377.1</ele>
        <time>2017-10-22T08:37:06.999Z</time>
      </trkpt>
      <trkpt lat="47.47304" lon="6.6854">
        <ele>377.4</ele>
        <time>2017-10-22T08:37:10.999Z</time>
      </trkpt>
      <trkpt lat="47.47304" lon="6.6854">
        <ele>377.5</ele>
        <time>2017-10-22T08:37:11.999Z</time>
      </trkpt>
      <trkpt lat="47.47305" lon="6.68534">
        <ele>377.6</ele>
        <time>2017-10-22T08:37:15.999Z</time>
      </trkpt>
      <trkpt lat="47.47306" lon="6.68533">
        <ele>377.8</ele>
        <time>2017-10-22T08:37:16.999Z</time>
      </trkpt>
      <trkpt lat="47.47308" lon="6.68528">
        <ele>378.4</ele>
        <time>2017-10-22T08:37:21.999Z</time>
      </trkpt>
      <trkpt lat="47.47309" lon="6.68527">
        <ele>378.7</ele>
        <time>2017-10-22T08:37:22.999Z</time>
      </trkpt>
      <trkpt lat="47.47311" lon="6.68522">
        <ele>379.3</ele>
        <time>2017-10-22T08:37:25.999Z</time>
      </trkpt>
      <trkpt lat="47.47311" lon="6.68521">
        <ele>379.5</ele>
        <time>2017-10-22T08:37:26.999Z</time>
      </trkpt>
      <trkpt lat="47.47314" lon="6.68516">
        <ele>380.7</ele>
        <time>2017-10-22T08:37:31.999Z</time>
      </trkpt>
      <trkpt lat="47.47315" lon="6.68515">
        <ele>381</ele>
        <time>2017-10-22T08:37:32.999Z</time>
      </trkpt>
      <trkpt lat="47.47316" lon="6.68509">
        <ele>381.7</ele>
        <time>2017-10-22T08:37:35.999Z</time>
      </trkpt>
      <trkpt lat="47.47316" lon="6.68508">
        <ele>381.9</ele>
        <time>2017-10-22T08:37:36.999Z</time>
      </trkpt>
      <trkpt lat="47.47319" lon="6.68505">
        <ele>382.3</ele>
        <time>2017-10-22T08:37:38.999Z</time>
      </trkpt>
      <trkpt lat="47.4732" lon="6.68504">
        <ele>382.4</ele>
        <time>2017-10-22T08:37:39.999Z</time>
      </trkpt>
      <trkpt lat="47.47323" lon="6.68501">
        <ele>382.9</ele>
        <time>2017-10-22T08:37:42.999Z</time>
      </trkpt>
      <trkpt lat="47.47324" lon="6.685">
        <ele>383.1</ele>
        <time>2017-10-22T08:37:43.999Z</time>
      </trkpt>
      <trkpt lat="47.47328" lon="6.68496">
        <ele>383.7</ele>
        <time>2017-10-22T08:37:46.999Z</time>
      </trkpt>
      <trkpt lat="47.47328" lon="6.68494">
        <ele>384</ele>
        <time>2017-10-22T08:37:47.999Z</time>
      </trkpt>
      <trkpt lat="47.4733" lon="6.6849">
        <ele>384.9</ele>
        <time>2017-10-22T08:37:50.999Z</time>
      </trkpt>
      <trkpt lat="47.47332" lon="6.68489">
        <ele>385.3</ele>
        <time>2017-10-22T08:37:51.999Z</time>
      </trkpt>
      <trkpt lat="47.47334" lon="6.68484">
        <ele>386.1</ele>
        <time>2017-10-22T08:37:54.999Z</time>
      </trkpt>
      <trkpt lat="47.47335" lon="6.68482">
        <ele>386.4</ele>
        <time>2017-10-22T08:37:55.999Z</time>
      </trkpt>
      <trkpt lat="47.47337" lon="6.68478">
        <ele>386.8</ele>
        <time>2017-10-22T08:37:57.999Z</time>
      </trkpt>
      <trkpt lat="47.47338" lon="6.68476">
        <ele>387</ele>
        <time>2017-10-22T08:37:58.999Z</time>
      </trkpt>
      <trkpt lat="47.4734" lon="6.68473">
        <ele>387.3</ele>
        <time>2017-10-22T08:38:00.999Z</time>
      </trkpt>
      <trkpt lat="47.4734" lon="6.6847">
        <ele>387.4</ele>
        <time>2017-10-22T08:38:01.999Z</time>
      </trkpt>
      <trkpt lat="47.47342" lon="6.68465">
        <ele>387.8</ele>
        <time>2017-10-22T08:38:05.999Z</time>
      </trkpt>
      <trkpt lat="47.47342" lon="6.68463">
        <ele>387.9</ele>
        <time>2017-10-22T08:38:06.999Z</time>
      </trkpt>
      <trkpt lat="47.47345" lon="6.6846">
        <ele>388.1</ele>
        <time>2017-10-22T08:38:10.999Z</time>
      </trkpt>
      <trkpt lat="47.47347" lon="6.68459">
        <ele>388</ele>
        <time>2017-10-22T08:38:11.999Z</time>
      </trkpt>
      <trkpt lat="47.47349" lon="6.68454">
        <ele>388.2</ele>
        <time>2017-10-22T08:38:16.999Z</time>
      </trkpt>
      <trkpt lat="47.4735" lon="6.68453">
        <ele>388.3</ele>
        <time>2017-10-22T08:38:17.999Z</time>
      </trkpt>
      <trkpt lat="47.4735" lon="6.68447">
        <ele>388.9</ele>
        <time>2017-10-22T08:38:24.999Z</time>
      </trkpt>
      <trkpt lat="47.47349" lon="6.68445">
        <ele>388.9</ele>
        <time>2017-10-22T08:38:25.999Z</time>
      </trkpt>
      <trkpt lat="47.47349" lon="6.68439">
        <ele>388.6</ele>
        <time>2017-10-22T08:38:30.999Z</time>
      </trkpt>
      <trkpt lat="47.47351" lon="6.68436">
        <ele>388.5</ele>
        <time>2017-10-22T08:38:31.999Z</time>
      </trkpt>
      <trkpt lat="47.47354" lon="6.68432">
        <ele>388.3</ele>
        <time>2017-10-22T08:38:33.999Z</time>
      </trkpt>
      <trkpt lat="47.47354" lon="6.68431">
        <ele>388.2</ele>
        <time>2017-10-22T08:38:34.999Z</time>
      </trkpt>
      <trkpt lat="47.47357" lon="6.68425">
        <ele>387.9</ele>
        <time>2017-10-22T08:38:38.999Z</time>
      </trkpt>
      <trkpt lat="47.47357" lon="6.68424">
        <ele>388</ele>
        <time>2017-10-22T08:38:39.999Z</time>
      </trkpt>
      <trkpt lat="47.47358" lon="6.68419">
        <ele>387.9</ele>
        <time>2017-10-22T08:38:47.999Z</time>
      </trkpt>
      <trkpt lat="47.47359" lon="6.68417">
        <ele>387.9</ele>
        <time>2017-10-22T08:38:48.999Z</time>
      </trkpt>
      <trkpt lat="47.47362" lon="6.68412">
        <ele>388.3</ele>
        <time>2017-10-22T08:38:56.999Z</time>
      </trkpt>
      <trkpt lat="47.47363" lon="6.68411">
        <ele>388.4</ele>
        <time>2017-10-22T08:38:57.999Z</time>
      </trkpt>
      <trkpt lat="47.47365" lon="6.68409">
        <ele>388.4</ele>
        <time>2017-10-22T08:38:59.999Z</time>
      </trkpt>
      <trkpt lat="47.47367" lon="6.68406">
        <ele>388.4</ele>
        <time>2017-10-22T08:39:00.999Z</time>
      </trkpt>
      <trkpt lat="47.4737" lon="6.68404">
        <ele>388.6</ele>
        <time>2017-10-22T08:39:02.999Z</time>
      </trkpt>
      <trkpt lat="47.47373" lon="6.68402">
        <ele>388.8</ele>
        <time>2017-10-22T08:39:03.999Z</time>
      </trkpt>
      <trkpt lat="47.47377" lon="6.68402">
        <ele>389</ele>
        <time>2017-10-22T08:39:05.999Z</time>
      </trkpt>
      <trkpt lat="47.47379" lon="6.68401">
        <ele>389</ele>
        <time>2017-10-22T08:39:06.999Z</time>
      </trkpt>
      <trkpt lat="47.47381" lon="6.68397">
        <ele>389</ele>
        <time>2017-10-22T08:39:08.999Z</time>
      </trkpt>
      <trkpt lat="47.47384" lon="6.68396">
        <ele>389.1</ele>
        <time>2017-10-22T08:39:09.999Z</time>
      </trkpt>
      <trkpt lat="47.47387" lon="6.68393">
        <ele>389.7</ele>
        <time>2017-10-22T08:39:12.999Z</time>
      </trkpt>
      <trkpt lat="47.47389" lon="6.68391">
        <ele>389.9</ele>
        <time>2017-10-22T08:39:13.999Z</time>
      </trkpt>
      <trkpt lat="47.47393" lon="6.68383">
        <ele>390.1</ele>
        <time>2017-10-22T08:39:14.999Z</time>
      </trkpt>
      <trkpt lat="47.47397" lon="6.68378">
        <ele>390.5</ele>
        <time>2017-10-22T08:39:15.999Z</time>
      </trkpt>
      <trkpt lat="47.47399" lon="6.68373">
        <ele>391.1</ele>
        <time>2017-10-22T08:39:17.999Z</time>
      </trkpt>
      <trkpt lat="47.474" lon="6.68371">
        <ele>391.5</ele>
        <time>2017-10-22T08:39:18.999Z</time>
      </trkpt>
      <trkpt lat="47.47402" lon="6.68369">
        <ele>392.4</ele>
        <time>2017-10-22T08:39:20.999Z</time>
      </trkpt>
      <trkpt lat="47.47404" lon="6.68365">
        <ele>392.8</ele>
        <time>2017-10-22T08:39:21.999Z</time>
      </trkpt>
      <trkpt lat="47.47406" lon="6.6836">
        <ele>393.7</ele>
        <time>2017-10-22T08:39:23.999Z</time>
      </trkpt>
      <trkpt lat="47.47406" lon="6.68359">
        <ele>394.2</ele>
        <time>2017-10-22T08:39:24.999Z</time>
      </trkpt>
      <trkpt lat="47.47409" lon="6.68355">
        <ele>395.9</ele>
        <time>2017-10-22T08:39:28.999Z</time>
      </trkpt>
      <trkpt lat="47.47411" lon="6.68353">
        <ele>396.4</ele>
        <time>2017-10-22T08:39:29.999Z</time>
      </trkpt>
      <trkpt lat="47.47413" lon="6.68349">
        <ele>396.9</ele>
        <time>2017-10-22T08:39:30.999Z</time>
      </trkpt>
      <trkpt lat="47.47415" lon="6.68344">
        <ele>397.5</ele>
        <time>2017-10-22T08:39:31.999Z</time>
      </trkpt>
      <trkpt lat="47.47418" lon="6.68339">
        <ele>399.8</ele>
        <time>2017-10-22T08:39:35.999Z</time>
      </trkpt>
      <trkpt lat="47.47419" lon="6.68339">
        <ele>400.3</ele>
        <time>2017-10-22T08:39:36.999Z</time>
      </trkpt>
      <trkpt lat="47.47422" lon="6.68335">
        <ele>402.9</ele>
        <time>2017-10-22T08:39:43.999Z</time>
      </trkpt>
      <trkpt lat="47.47423" lon="6.68334">
        <ele>403.2</ele>
        <time>2017-10-22T08:39:44.999Z</time>
      </trkpt>
      <trkpt lat="47.47426" lon="6.68332">
        <ele>404.7</ele>
        <time>2017-10-22T08:39:49.999Z</time>
      </trkpt>
      <trkpt lat="47.47427" lon="6.68331">
        <ele>405</ele>
        <time>2017-10-22T08:39:50.999Z</time>
      </trkpt>
      <trkpt lat="47.4743" lon="6.68328">
        <ele>405.7</ele>
        <time>2017-10-22T08:39:53.999Z</time>
      </trkpt>
      <trkpt lat="47.47431" lon="6.68328">
        <ele>405.9</ele>
        <time>2017-10-22T08:39:54.999Z</time>
      </trkpt>
      <trkpt lat="47.47435" lon="6.68325">
        <ele>407.2</ele>
        <time>2017-10-22T08:40:00.999Z</time>
      </trkpt>
      <trkpt lat="47.47436" lon="6.68324">
        <ele>407.3</ele>
        <time>2017-10-22T08:40:01.999Z</time>
      </trkpt>
      <trkpt lat="47.47438" lon="6.68323">
        <ele>407.3</ele>
        <time>2017-10-22T08:40:02.999Z</time>
      </trkpt>
      <trkpt lat="47.47441" lon="6.6832">
        <ele>407.5</ele>
        <time>2017-10-22T08:40:03.999Z</time>
      </trkpt>
      <trkpt lat="47.47445" lon="6.6832">
        <ele>407.6</ele>
        <time>2017-10-22T08:40:04.999Z</time>
      </trkpt>
      <trkpt lat="47.47446" lon="6.6832">
        <ele>407.7</ele>
        <time>2017-10-22T08:40:05.999Z</time>
      </trkpt>
      <trkpt lat="47.4745" lon="6.68317">
        <ele>407.8</ele>
        <time>2017-10-22T08:40:08.999Z</time>
      </trkpt>
      <trkpt lat="47.47451" lon="6.68316">
        <ele>407.7</ele>
        <time>2017-10-22T08:40:09.999Z</time>
      </trkpt>
      <trkpt lat="47.47455" lon="6.68314">
        <ele>407.6</ele>
        <time>2017-10-22T08:40:13.999Z</time>
      </trkpt>
      <trkpt lat="47.47455" lon="6.68313">
        <ele>407.5</ele>
        <time>2017-10-22T08:40:14.999Z</time>
      </trkpt>
      <trkpt lat="47.47459" lon="6.68312">
        <ele>408</ele>
        <time>2017-10-22T08:40:18.999Z</time>
      </trkpt>
      <trkpt lat="47.4746" lon="6.68312">
        <ele>408.3</ele>
        <time>2017-10-22T08:40:19.999Z</time>
      </trkpt>
      <trkpt lat="47.47464" lon="6.6831">
        <ele>409.4</ele>
        <time>2017-10-22T08:40:26.999Z</time>
      </trkpt>
      <trkpt lat="47.47465" lon="6.68309">
        <ele>409.6</ele>
        <time>2017-10-22T08:40:27.999Z</time>
      </trkpt>
      <trkpt lat="47.47469" lon="6.68306">
        <ele>411.7</ele>
        <time>2017-10-22T08:40:33.999Z</time>
      </trkpt>
      <trkpt lat="47.47469" lon="6.68306">
        <ele>412.2</ele>
        <time>2017-10-22T08:40:34.999Z</time>
      </trkpt>
      <trkpt lat="47.47471" lon="6.68305">
        <ele>413.2</ele>
        <time>2017-10-22T08:40:36.999Z</time>
      </trkpt>
      <trkpt lat="47.47474" lon="6.68304">
        <ele>413.7</ele>
        <time>2017-10-22T08:40:37.999Z</time>
      </trkpt>
      <trkpt lat="47.47477" lon="6.68304">
        <ele>414.1</ele>
        <time>2017-10-22T08:40:38.999Z</time>
      </trkpt>
      <trkpt lat="47.4748" lon="6.68304">
        <ele>414.6</ele>
        <time>2017-10-22T08:40:39.999Z</time>
      </trkpt>
      <trkpt lat="47.47482" lon="6.68303">
        <ele>415</ele>
        <time>2017-10-22T08:40:40.999Z</time>
      </trkpt>
      <trkpt lat="47.47485" lon="6.68302">
        <ele>415.4</ele>
        <time>2017-10-22T08:40:41.999Z</time>
      </trkpt>
      <trkpt lat="47.47488" lon="6.68301">
        <ele>416</ele>
        <time>2017-10-22T08:40:42.999Z</time>
      </trkpt>
      <trkpt lat="47.47492" lon="6.68299">
        <ele>416.5</ele>
        <time>2017-10-22T08:40:43.999Z</time>
      </trkpt>
      <trkpt lat="47.47499" lon="6.68295">
        <ele>416.9</ele>
        <time>2017-10-22T08:40:44.999Z</time>
      </trkpt>
      <trkpt lat="47.47505" lon="6.68291">
        <ele>417.4</ele>
        <time>2017-10-22T08:40:45.999Z</time>
      </trkpt>
      <trkpt lat="47.47509" lon="6.68289">
        <ele>418</ele>
        <time>2017-10-22T08:40:46.999Z</time>
      </trkpt>
      <trkpt lat="47.47513" lon="6.68288">
        <ele>418.5</ele>
        <time>2017-10-22T08:40:47.999Z</time>
      </trkpt>
      <trkpt lat="47.47517" lon="6.68289">
        <ele>419</ele>
        <time>2017-10-22T08:40:48.999Z</time>
      </trkpt>
      <trkpt lat="47.47518" lon="6.68289">
        <ele>419.5</ele>
        <time>2017-10-22T08:40:49.999Z</time>
      </trkpt>
      <trkpt lat="47.47522" lon="6.68286">
        <ele>420.9</ele>
        <time>2017-10-22T08:40:52.999Z</time>
      </trkpt>
      <trkpt lat="47.47525" lon="6.68286">
        <ele>421.4</ele>
        <time>2017-10-22T08:40:53.999Z</time>
      </trkpt>
      <trkpt lat="47.47531" lon="6.68287">
        <ele>421.9</ele>
        <time>2017-10-22T08:40:54.999Z</time>
      </trkpt>
      <trkpt lat="47.47535" lon="6.68284">
        <ele>423.4</ele>
        <time>2017-10-22T08:40:57.999Z</time>
      </trkpt>
      <trkpt lat="47.47538" lon="6.68282">
        <ele>424</ele>
        <time>2017-10-22T08:40:58.999Z</time>
      </trkpt>
      <trkpt lat="47.47541" lon="6.68281">
        <ele>424.6</ele>
        <time>2017-10-22T08:40:59.999Z</time>
      </trkpt>
      <trkpt lat="47.47546" lon="6.6828">
        <ele>425.1</ele>
        <time>2017-10-22T08:41:00.999Z</time>
      </trkpt>
      <trkpt lat="47.4755" lon="6.68278">
        <ele>425.7</ele>
        <time>2017-10-22T08:41:01.999Z</time>
      </trkpt>
      <trkpt lat="47.47555" lon="6.68276">
        <ele>430.5</ele>
        <time>2017-10-22T08:41:02.999Z</time>
      </trkpt>
      <trkpt lat="47.47558" lon="6.68274">
        <ele>431</ele>
        <time>2017-10-22T08:41:03.999Z</time>
      </trkpt>
      <trkpt lat="47.47563" lon="6.68272">
        <ele>431.4</ele>
        <time>2017-10-22T08:41:04.999Z</time>
      </trkpt>
      <trkpt lat="47.47567" lon="6.68271">
        <ele>431.9</ele>
        <time>2017-10-22T08:41:05.999Z</time>
      </trkpt>
      <trkpt lat="47.47572" lon="6.68268">
        <ele>432.3</ele>
        <time>2017-10-22T08:41:06.999Z</time>
      </trkpt>
      <trkpt lat="47.47575" lon="6.68267">
        <ele>432.6</ele>
        <time>2017-10-22T08:41:07.999Z</time>
      </trkpt>
      <trkpt lat="47.47578" lon="6.68265">
        <ele>432.8</ele>
        <time>2017-10-22T08:41:08.999Z</time>
      </trkpt>
      <trkpt lat="47.47581" lon="6.68264">
        <ele>433.1</ele>
        <time>2017-10-22T08:41:09.999Z</time>
      </trkpt>
      <trkpt lat="47.47585" lon="6.68264">
        <ele>433.3</ele>
        <time>2017-10-22T08:41:10.999Z</time>
      </trkpt>
      <trkpt lat="47.47589" lon="6.68263">
        <ele>433.5</ele>
        <time>2017-10-22T08:41:11.999Z</time>
      </trkpt>
      <trkpt lat="47.47594" lon="6.68262">
        <ele>433.8</ele>
        <time>2017-10-22T08:41:12.999Z</time>
      </trkpt>
      <trkpt lat="47.47598" lon="6.6826">
        <ele>434.2</ele>
        <time>2017-10-22T08:41:13.999Z</time>
      </trkpt>
      <trkpt lat="47.47602" lon="6.68258">
        <ele>434.5</ele>
        <time>2017-10-22T08:41:14.999Z</time>
      </trkpt>
      <trkpt lat="47.47606" lon="6.68257">
        <ele>434.8</ele>
        <time>2017-10-22T08:41:15.999Z</time>
      </trkpt>
      <trkpt lat="47.4761" lon="6.68256">
        <ele>435.2</ele>
        <time>2017-10-22T08:41:16.999Z</time>
      </trkpt>
      <trkpt lat="47.47613" lon="6.68254">
        <ele>435.5</ele>
        <time>2017-10-22T08:41:17.999Z</time>
      </trkpt>
      <trkpt lat="47.47615" lon="6.68251">
        <ele>435.7</ele>
        <time>2017-10-22T08:41:18.999Z</time>
      </trkpt>
      <trkpt lat="47.47618" lon="6.6825">
        <ele>436.1</ele>
        <time>2017-10-22T08:41:20.999Z</time>
      </trkpt>
      <trkpt lat="47.47621" lon="6.68249">
        <ele>436.2</ele>
        <time>2017-10-22T08:41:21.999Z</time>
      </trkpt>
      <trkpt lat="47.47624" lon="6.68245">
        <ele>436.2</ele>
        <time>2017-10-22T08:41:24.999Z</time>
      </trkpt>
      <trkpt lat="47.47625" lon="6.68244">
        <ele>436.2</ele>
        <time>2017-10-22T08:41:25.999Z</time>
      </trkpt>
      <trkpt lat="47.47628" lon="6.68243">
        <ele>435.9</ele>
        <time>2017-10-22T08:41:30.999Z</time>
      </trkpt>
      <trkpt lat="47.47631" lon="6.68242">
        <ele>435.8</ele>
        <time>2017-10-22T08:41:31.999Z</time>
      </trkpt>
      <trkpt lat="47.47633" lon="6.68241">
        <ele>435.3</ele>
        <time>2017-10-22T08:41:34.999Z</time>
      </trkpt>
      <trkpt lat="47.47635" lon="6.68239">
        <ele>435.2</ele>
        <time>2017-10-22T08:41:35.999Z</time>
      </trkpt>
      <trkpt lat="47.47637" lon="6.68237">
        <ele>435</ele>
        <time>2017-10-22T08:41:36.999Z</time>
      </trkpt>
      <trkpt lat="47.47641" lon="6.68236">
        <ele>434.8</ele>
        <time>2017-10-22T08:41:37.999Z</time>
      </trkpt>
      <trkpt lat="47.47643" lon="6.68235">
        <ele>434.4</ele>
        <time>2017-10-22T08:41:40.999Z</time>
      </trkpt>
      <trkpt lat="47.47645" lon="6.68234">
        <ele>434.2</ele>
        <time>2017-10-22T08:41:41.999Z</time>
      </trkpt>
      <trkpt lat="47.47647" lon="6.68234">
        <ele>434.1</ele>
        <time>2017-10-22T08:41:42.999Z</time>
      </trkpt>
      <trkpt lat="47.47651" lon="6.6823">
        <ele>434.1</ele>
        <time>2017-10-22T08:41:43.999Z</time>
      </trkpt>
      <trkpt lat="47.47653" lon="6.68229">
        <ele>434</ele>
        <time>2017-10-22T08:41:45.999Z</time>
      </trkpt>
      <trkpt lat="47.47656" lon="6.68228">
        <ele>433.9</ele>
        <time>2017-10-22T08:41:46.999Z</time>
      </trkpt>
      <trkpt lat="47.47658" lon="6.68228">
        <ele>433.8</ele>
        <time>2017-10-22T08:41:47.999Z</time>
      </trkpt>
      <trkpt lat="47.47661" lon="6.68228">
        <ele>433.7</ele>
        <time>2017-10-22T08:41:48.999Z</time>
      </trkpt>
      <trkpt lat="47.47665" lon="6.68231">
        <ele>433.6</ele>
        <time>2017-10-22T08:41:49.999Z</time>
      </trkpt>
      <trkpt lat="47.47669" lon="6.6823">
        <ele>433.4</ele>
        <time>2017-10-22T08:41:50.999Z</time>
      </trkpt>
      <trkpt lat="47.47672" lon="6.68229">
        <ele>433.3</ele>
        <time>2017-10-22T08:41:51.999Z</time>
      </trkpt>
      <trkpt lat="47.47675" lon="6.6823">
        <ele>432.8</ele>
        <time>2017-10-22T08:41:53.999Z</time>
      </trkpt>
      <trkpt lat="47.47677" lon="6.6823">
        <ele>432.7</ele>
        <time>2017-10-22T08:41:54.999Z</time>
      </trkpt>
      <trkpt lat="47.47683" lon="6.6823">
        <ele>432.5</ele>
        <time>2017-10-22T08:41:55.999Z</time>
      </trkpt>
      <trkpt lat="47.47688" lon="6.68231">
        <ele>432.4</ele>
        <time>2017-10-22T08:41:56.999Z</time>
      </trkpt>
      <trkpt lat="47.47691" lon="6.68231">
        <ele>432.4</ele>
        <time>2017-10-22T08:41:57.999Z</time>
      </trkpt>
      <trkpt lat="47.47694" lon="6.68231">
        <ele>432.4</ele>
        <time>2017-10-22T08:41:58.999Z</time>
      </trkpt>
      <trkpt lat="47.47697" lon="6.68231">
        <ele>432.4</ele>
        <time>2017-10-22T08:41:59.999Z</time>
      </trkpt>
      <trkpt lat="47.47699" lon="6.68232">
        <ele>432.3</ele>
        <time>2017-10-22T08:42:00.999Z</time>
      </trkpt>
      <trkpt lat="47.47702" lon="6.68232">
        <ele>432.2</ele>
        <time>2017-10-22T08:42:01.999Z</time>
      </trkpt>
      <trkpt lat="47.47705" lon="6.68233">
        <ele>432.1</ele>
        <time>2017-10-22T08:42:02.999Z</time>
      </trkpt>
      <trkpt lat="47.47709" lon="6.68235">
        <ele>432</ele>
        <time>2017-10-22T08:42:03.999Z</time>
      </trkpt>
      <trkpt lat="47.47713" lon="6.68236">
        <ele>431.8</ele>
        <time>2017-10-22T08:42:04.999Z</time>
      </trkpt>
      <trkpt lat="47.47717" lon="6.68239">
        <ele>431.6</ele>
        <time>2017-10-22T08:42:07.999Z</time>
      </trkpt>
      <trkpt lat="47.47722" lon="6.68241">
        <ele>431.6</ele>
        <time>2017-10-22T08:42:08.999Z</time>
      </trkpt>
      <trkpt lat="47.47726" lon="6.68241">
        <ele>431.2</ele>
        <time>2017-10-22T08:42:10.999Z</time>
      </trkpt>
      <trkpt lat="47.47727" lon="6.68241">
        <ele>430.8</ele>
        <time>2017-10-22T08:42:11.999Z</time>
      </trkpt>
      <trkpt lat="47.47731" lon="6.68242">
        <ele>430.6</ele>
        <time>2017-10-22T08:42:12.999Z</time>
      </trkpt>
      <trkpt lat="47.47735" lon="6.68241">
        <ele>430.2</ele>
        <time>2017-10-22T08:42:15.999Z</time>
      </trkpt>
      <trkpt lat="47.47738" lon="6.6824">
        <ele>430.1</ele>
        <time>2017-10-22T08:42:16.999Z</time>
      </trkpt>
      <trkpt lat="47.47742" lon="6.68241">
        <ele>429.7</ele>
        <time>2017-10-22T08:42:20.999Z</time>
      </trkpt>
      <trkpt lat="47.47745" lon="6.6824">
        <ele>429.6</ele>
        <time>2017-10-22T08:42:21.999Z</time>
      </trkpt>
      <trkpt lat="47.47747" lon="6.6824">
        <ele>429.6</ele>
        <time>2017-10-22T08:42:22.999Z</time>
      </trkpt>
      <trkpt lat="47.4775" lon="6.68239">
        <ele>429.5</ele>
        <time>2017-10-22T08:42:23.999Z</time>
      </trkpt>
      <trkpt lat="47.47754" lon="6.68241">
        <ele>429.2</ele>
        <time>2017-10-22T08:42:25.999Z</time>
      </trkpt>
      <trkpt lat="47.47756" lon="6.68241">
        <ele>429.2</ele>
        <time>2017-10-22T08:42:26.999Z</time>
      </trkpt>
      <trkpt lat="47.4776" lon="6.68241">
        <ele>429.2</ele>
        <time>2017-10-22T08:42:27.999Z</time>
      </trkpt>
      <trkpt lat="47.47763" lon="6.68242">
        <ele>429.1</ele>
        <time>2017-10-22T08:42:28.999Z</time>
      </trkpt>
      <trkpt lat="47.47767" lon="6.68243">
        <ele>428.9</ele>
        <time>2017-10-22T08:42:29.999Z</time>
      </trkpt>
      <trkpt lat="47.4777" lon="6.68243">
        <ele>428.7</ele>
        <time>2017-10-22T08:42:30.999Z</time>
      </trkpt>
      <trkpt lat="47.47773" lon="6.68244">
        <ele>428.4</ele>
        <time>2017-10-22T08:42:32.999Z</time>
      </trkpt>
      <trkpt lat="47.47776" lon="6.68244">
        <ele>428.2</ele>
        <time>2017-10-22T08:42:33.999Z</time>
      </trkpt>
      <trkpt lat="47.4778" lon="6.68245">
        <ele>427.7</ele>
        <time>2017-10-22T08:42:35.999Z</time>
      </trkpt>
      <trkpt lat="47.47781" lon="6.68246">
        <ele>427.4</ele>
        <time>2017-10-22T08:42:36.999Z</time>
      </trkpt>
      <trkpt lat="47.47783" lon="6.68247">
        <ele>427.2</ele>
        <time>2017-10-22T08:42:37.999Z</time>
      </trkpt>
      <trkpt lat="47.47786" lon="6.68249">
        <ele>426.9</ele>
        <time>2017-10-22T08:42:38.999Z</time>
      </trkpt>
      <trkpt lat="47.47789" lon="6.68252">
        <ele>426.8</ele>
        <time>2017-10-22T08:42:39.999Z</time>
      </trkpt>
      <trkpt lat="47.47792" lon="6.68258">
        <ele>426.1</ele>
        <time>2017-10-22T08:42:40.999Z</time>
      </trkpt>
      <trkpt lat="47.47797" lon="6.68263">
        <ele>425.7</ele>
        <time>2017-10-22T08:42:41.999Z</time>
      </trkpt>
      <trkpt lat="47.478" lon="6.68268">
        <ele>425.6</ele>
        <time>2017-10-22T08:42:42.999Z</time>
      </trkpt>
      <trkpt lat="47.47807" lon="6.68273">
        <ele>424.7</ele>
        <time>2017-10-22T08:42:43.999Z</time>
      </trkpt>
      <trkpt lat="47.47813" lon="6.68279">
        <ele>424.5</ele>
        <time>2017-10-22T08:42:44.999Z</time>
      </trkpt>
      <trkpt lat="47.47818" lon="6.68281">
        <ele>422.5</ele>
        <time>2017-10-22T08:42:45.999Z</time>
      </trkpt>
      <trkpt lat="47.47822" lon="6.68286">
        <ele>422.2</ele>
        <time>2017-10-22T08:42:46.999Z</time>
      </trkpt>
      <trkpt lat="47.47827" lon="6.68295">
        <ele>422</ele>
        <time>2017-10-22T08:42:47.999Z</time>
      </trkpt>
      <trkpt lat="47.47831" lon="6.68303">
        <ele>421.8</ele>
        <time>2017-10-22T08:42:48.999Z</time>
      </trkpt>
      <trkpt lat="47.47835" lon="6.68306">
        <ele>421.3</ele>
        <time>2017-10-22T08:42:50.999Z</time>
      </trkpt>
      <trkpt lat="47.47838" lon="6.68309">
        <ele>421.1</ele>
        <time>2017-10-22T08:42:51.999Z</time>
      </trkpt>
      <trkpt lat="47.4784" lon="6.68311">
        <ele>420.8</ele>
        <time>2017-10-22T08:42:52.999Z</time>
      </trkpt>
      <trkpt lat="47.47841" lon="6.68314">
        <ele>420.5</ele>
        <time>2017-10-22T08:42:53.999Z</time>
      </trkpt>
      <trkpt lat="47.47844" lon="6.68309">
        <ele>417.8</ele>
        <time>2017-10-22T08:43:01.999Z</time>
      </trkpt>
      <trkpt lat="47.47849" lon="6.68306">
        <ele>417.6</ele>
        <time>2017-10-22T08:43:02.999Z</time>
      </trkpt>
      <trkpt lat="47.47852" lon="6.68304">
        <ele>417</ele>
        <time>2017-10-22T08:43:05.999Z</time>
      </trkpt>
      <trkpt lat="47.47855" lon="6.68299">
        <ele>416.9</ele>
        <time>2017-10-22T08:43:06.999Z</time>
      </trkpt>
      <trkpt lat="47.47859" lon="6.68292">
        <ele>416.7</ele>
        <time>2017-10-22T08:43:07.999Z</time>
      </trkpt>
      <trkpt lat="47.47858" lon="6.68284">
        <ele>416.5</ele>
        <time>2017-10-22T08:43:08.999Z</time>
      </trkpt>
      <trkpt lat="47.47858" lon="6.68278">
        <ele>416.2</ele>
        <time>2017-10-22T08:43:11.999Z</time>
      </trkpt>
      <trkpt lat="47.47858" lon="6.68276">
        <ele>416</ele>
        <time>2017-10-22T08:43:12.999Z</time>
      </trkpt>
      <trkpt lat="47.47861" lon="6.68273">
        <ele>415.8</ele>
        <time>2017-10-22T08:43:15.999Z</time>
      </trkpt>
      <trkpt lat="47.47864" lon="6.68268">
        <ele>415.7</ele>
        <time>2017-10-22T08:43:16.999Z</time>
      </trkpt>
      <trkpt lat="47.47864" lon="6.68266">
        <ele>415.6</ele>
        <time>2017-10-22T08:43:17.999Z</time>
      </trkpt>
      <trkpt lat="47.47864" lon="6.6826">
        <ele>415.6</ele>
        <time>2017-10-22T08:43:18.999Z</time>
      </trkpt>
      <trkpt lat="47.47866" lon="6.68253">
        <ele>415.7</ele>
        <time>2017-10-22T08:43:19.999Z</time>
      </trkpt>
      <trkpt lat="47.47867" lon="6.68246">
        <ele>415.7</ele>
        <time>2017-10-22T08:43:20.999Z</time>
      </trkpt>
      <trkpt lat="47.47867" lon="6.6824">
        <ele>415.9</ele>
        <time>2017-10-22T08:43:21.999Z</time>
      </trkpt>
      <trkpt lat="47.47868" lon="6.68238">
        <ele>416</ele>
        <time>2017-10-22T08:43:22.999Z</time>
      </trkpt>
      <trkpt lat="47.47869" lon="6.68234">
        <ele>416.2</ele>
        <time>2017-10-22T08:43:24.999Z</time>
      </trkpt>
      <trkpt lat="47.47873" lon="6.68231">
        <ele>416.2</ele>
        <time>2017-10-22T08:43:25.999Z</time>
      </trkpt>
      <trkpt lat="47.47876" lon="6.68228">
        <ele>416.6</ele>
        <time>2017-10-22T08:43:27.999Z</time>
      </trkpt>
      <trkpt lat="47.47877" lon="6.68228">
        <ele>416.9</ele>
        <time>2017-10-22T08:43:28.999Z</time>
      </trkpt>
      <trkpt lat="47.47879" lon="6.68228">
        <ele>417.2</ele>
        <time>2017-10-22T08:43:29.999Z</time>
      </trkpt>
      <trkpt lat="47.47882" lon="6.68229">
        <ele>417.5</ele>
        <time>2017-10-22T08:43:30.999Z</time>
      </trkpt>
      <trkpt lat="47.47885" lon="6.68226">
        <ele>418.4</ele>
        <time>2017-10-22T08:43:36.999Z</time>
      </trkpt>
      <trkpt lat="47.47887" lon="6.68226">
        <ele>418.6</ele>
        <time>2017-10-22T08:43:37.999Z</time>
      </trkpt>
      <trkpt lat="47.47887" lon="6.6822">
        <ele>418.9</ele>
        <time>2017-10-22T08:43:40.999Z</time>
      </trkpt>
      <trkpt lat="47.47888" lon="6.68217">
        <ele>419.1</ele>
        <time>2017-10-22T08:43:41.999Z</time>
      </trkpt>
      <trkpt lat="47.47888" lon="6.68213">
        <ele>419.6</ele>
        <time>2017-10-22T08:43:44.999Z</time>
      </trkpt>
      <trkpt lat="47.47889" lon="6.68211">
        <ele>419.9</ele>
        <time>2017-10-22T08:43:45.999Z</time>
      </trkpt>
      <trkpt lat="47.47892" lon="6.68209">
        <ele>420.6</ele>
        <time>2017-10-22T08:43:47.999Z</time>
      </trkpt>
      <trkpt lat="47.47894" lon="6.68208">
        <ele>421</ele>
        <time>2017-10-22T08:43:48.999Z</time>
      </trkpt>
      <trkpt lat="47.47898" lon="6.68205">
        <ele>421.9</ele>
        <time>2017-10-22T08:43:50.999Z</time>
      </trkpt>
      <trkpt lat="47.47899" lon="6.68204">
        <ele>422.3</ele>
        <time>2017-10-22T08:43:51.999Z</time>
      </trkpt>
      <trkpt lat="47.47901" lon="6.68199">
        <ele>424.7</ele>
        <time>2017-10-22T08:43:56.999Z</time>
      </trkpt>
      <trkpt lat="47.47904" lon="6.68195">
        <ele>425.2</ele>
        <time>2017-10-22T08:43:57.999Z</time>
      </trkpt>
      <trkpt lat="47.47906" lon="6.68191">
        <ele>427.3</ele>
        <time>2017-10-22T08:44:02.999Z</time>
      </trkpt>
      <trkpt lat="47.47907" lon="6.6819">
        <ele>427.7</ele>
        <time>2017-10-22T08:44:03.999Z</time>
      </trkpt>
      <trkpt lat="47.47907" lon="6.68184">
        <ele>429.1</ele>
        <time>2017-10-22T08:44:08.999Z</time>
      </trkpt>
      <trkpt lat="47.47907" lon="6.68182">
        <ele>429.2</ele>
        <time>2017-10-22T08:44:09.999Z</time>
      </trkpt>
      <trkpt lat="47.47909" lon="6.68178">
        <ele>429.9</ele>
        <time>2017-10-22T08:44:15.999Z</time>
      </trkpt>
      <trkpt lat="47.4791" lon="6.68177">
        <ele>429.9</ele>
        <time>2017-10-22T08:44:16.999Z</time>
      </trkpt>
      <trkpt lat="47.47909" lon="6.68172">
        <ele>430.4</ele>
        <time>2017-10-22T08:44:19.999Z</time>
      </trkpt>
      <trkpt lat="47.4791" lon="6.6817">
        <ele>430.6</ele>
        <time>2017-10-22T08:44:20.999Z</time>
      </trkpt>
      <trkpt lat="47.47909" lon="6.68166">
        <ele>431.4</ele>
        <time>2017-10-22T08:44:23.999Z</time>
      </trkpt>
      <trkpt lat="47.47909" lon="6.68163">
        <ele>431.7</ele>
        <time>2017-10-22T08:44:24.999Z</time>
      </trkpt>
      <trkpt lat="47.4791" lon="6.68157">
        <ele>432.1</ele>
        <time>2017-10-22T08:44:27.999Z</time>
      </trkpt>
      <trkpt lat="47.47908" lon="6.6815">
        <ele>432.2</ele>
        <time>2017-10-22T08:44:28.999Z</time>
      </trkpt>
      <trkpt lat="47.47908" lon="6.68145">
        <ele>432.8</ele>
        <time>2017-10-22T08:44:33.999Z</time>
      </trkpt>
      <trkpt lat="47.47909" lon="6.68142">
        <ele>432.8</ele>
        <time>2017-10-22T08:44:34.999Z</time>
      </trkpt>
      <trkpt lat="47.4791" lon="6.68139">
        <ele>432.8</ele>
        <time>2017-10-22T08:44:35.999Z</time>
      </trkpt>
      <trkpt lat="47.47911" lon="6.68132">
        <ele>432.8</ele>
        <time>2017-10-22T08:44:36.999Z</time>
      </trkpt>
      <trkpt lat="47.47912" lon="6.68126">
        <ele>433.2</ele>
        <time>2017-10-22T08:44:38.999Z</time>
      </trkpt>
      <trkpt lat="47.47912" lon="6.6812">
        <ele>433.4</ele>
        <time>2017-10-22T08:44:39.999Z</time>
      </trkpt>
      <trkpt lat="47.47912" lon="6.68116">
        <ele>434.2</ele>
        <time>2017-10-22T08:44:47.999Z</time>
      </trkpt>
      <trkpt lat="47.47913" lon="6.68113">
        <ele>434.5</ele>
        <time>2017-10-22T08:44:48.999Z</time>
      </trkpt>
      <trkpt lat="47.47912" lon="6.68107">
        <ele>434.8</ele>
        <time>2017-10-22T08:44:56.999Z</time>
      </trkpt>
      <trkpt lat="47.47913" lon="6.68106">
        <ele>434.9</ele>
        <time>2017-10-22T08:44:57.999Z</time>
      </trkpt>
      <trkpt lat="47.47913" lon="6.68101">
        <ele>435.2</ele>
        <time>2017-10-22T08:45:01.999Z</time>
      </trkpt>
      <trkpt lat="47.47914" lon="6.68099">
        <ele>435.3</ele>
        <time>2017-10-22T08:45:02.999Z</time>
      </trkpt>
      <trkpt lat="47.47915" lon="6.68095">
        <ele>435.6</ele>
        <time>2017-10-22T08:45:06.999Z</time>
      </trkpt>
      <trkpt lat="47.47914" lon="6.68092">
        <ele>435.7</ele>
        <time>2017-10-22T08:45:07.999Z</time>
      </trkpt>
      <trkpt lat="47.47912" lon="6.68086">
        <ele>436.1</ele>
        <time>2017-10-22T08:45:10.999Z</time>
      </trkpt>
      <trkpt lat="47.4791" lon="6.68083">
        <ele>436.3</ele>
        <time>2017-10-22T08:45:11.999Z</time>
      </trkpt>
      <trkpt lat="47.47912" lon="6.68078">
        <ele>438.2</ele>
        <time>2017-10-22T08:45:19.999Z</time>
      </trkpt>
      <trkpt lat="47.47911" lon="6.68077">
        <ele>438.5</ele>
        <time>2017-10-22T08:45:20.999Z</time>
      </trkpt>
      <trkpt lat="47.4791" lon="6.6807">
        <ele>441.9</ele>
        <time>2017-10-22T08:45:32.999Z</time>
      </trkpt>
      <trkpt lat="47.4791" lon="6.68069">
        <ele>442.1</ele>
        <time>2017-10-22T08:45:33.999Z</time>
      </trkpt>
      <trkpt lat="47.47908" lon="6.68067">
        <ele>442.2</ele>
        <time>2017-10-22T08:45:34.999Z</time>
      </trkpt>
      <trkpt lat="47.47904" lon="6.68066">
        <ele>442.4</ele>
        <time>2017-10-22T08:45:35.999Z</time>
      </trkpt>
      <trkpt lat="47.47902" lon="6.68061">
        <ele>443.6</ele>
        <time>2017-10-22T08:45:48.999Z</time>
      </trkpt>
      <trkpt lat="47.47902" lon="6.68059">
        <ele>443.8</ele>
        <time>2017-10-22T08:45:49.999Z</time>
      </trkpt>
      <trkpt lat="47.479" lon="6.68055">
        <ele>444.4</ele>
        <time>2017-10-22T08:45:57.999Z</time>
      </trkpt>
      <trkpt lat="47.479" lon="6.68053">
        <ele>444.5</ele>
        <time>2017-10-22T08:45:58.999Z</time>
      </trkpt>
      <trkpt lat="47.47898" lon="6.68052">
        <ele>444.7</ele>
        <time>2017-10-22T08:46:00.999Z</time>
      </trkpt>
      <trkpt lat="47.47894" lon="6.68051">
        <ele>444.8</ele>
        <time>2017-10-22T08:46:01.999Z</time>
      </trkpt>
      <trkpt lat="47.47892" lon="6.68049">
        <ele>445.1</ele>
        <time>2017-10-22T08:46:02.999Z</time>
      </trkpt>
      <trkpt lat="47.47887" lon="6.68043">
        <ele>445.2</ele>
        <time>2017-10-22T08:46:03.999Z</time>
      </trkpt>
      <trkpt lat="47.47885" lon="6.68041">
        <ele>445.3</ele>
        <time>2017-10-22T08:46:04.999Z</time>
      </trkpt>
      <trkpt lat="47.47884" lon="6.6804">
        <ele>445.5</ele>
        <time>2017-10-22T08:46:05.999Z</time>
      </trkpt>
      <trkpt lat="47.47881" lon="6.68036">
        <ele>446.1</ele>
        <time>2017-10-22T08:46:08.999Z</time>
      </trkpt>
      <trkpt lat="47.47879" lon="6.68034">
        <ele>446.3</ele>
        <time>2017-10-22T08:46:09.999Z</time>
      </trkpt>
      <trkpt lat="47.47876" lon="6.68031">
        <ele>446.6</ele>
        <time>2017-10-22T08:46:10.999Z</time>
      </trkpt>
      <trkpt lat="47.47873" lon="6.68026">
        <ele>446.9</ele>
        <time>2017-10-22T08:46:11.999Z</time>
      </trkpt>
      <trkpt lat="47.47871" lon="6.68023">
        <ele>446.7</ele>
        <time>2017-10-22T08:46:18.999Z</time>
      </trkpt>
      <trkpt lat="47.47869" lon="6.68021">
        <ele>446.6</ele>
        <time>2017-10-22T08:46:19.999Z</time>
      </trkpt>
      <trkpt lat="47.47866" lon="6.68019">
        <ele>447.2</ele>
        <time>2017-10-22T08:46:29.999Z</time>
      </trkpt>
      <trkpt lat="47.47863" lon="6.68018">
        <ele>447.2</ele>
        <time>2017-10-22T08:46:30.999Z</time>
      </trkpt>
      <trkpt lat="47.4786" lon="6.68016">
        <ele>447.2</ele>
        <time>2017-10-22T08:46:35.999Z</time>
      </trkpt>
      <trkpt lat="47.47859" lon="6.68015">
        <ele>447.5</ele>
        <time>2017-10-22T08:46:36.999Z</time>
      </trkpt>
      <trkpt lat="47.47855" lon="6.68013">
        <ele>448.4</ele>
        <time>2017-10-22T08:46:40.999Z</time>
      </trkpt>
      <trkpt lat="47.47854" lon="6.68012">
        <ele>448.7</ele>
        <time>2017-10-22T08:46:41.999Z</time>
      </trkpt>
      <trkpt lat="47.47854" lon="6.68007">
        <ele>450.8</ele>
        <time>2017-10-22T08:46:48.999Z</time>
      </trkpt>
      <trkpt lat="47.47854" lon="6.68004">
        <ele>451</ele>
        <time>2017-10-22T08:46:49.999Z</time>
      </trkpt>
      <trkpt lat="47.47854" lon="6.67997">
        <ele>451.4</ele>
        <time>2017-10-22T08:46:50.999Z</time>
      </trkpt>
      <trkpt lat="47.47855" lon="6.67991">
        <ele>452.1</ele>
        <time>2017-10-22T08:46:53.999Z</time>
      </trkpt>
      <trkpt lat="47.47855" lon="6.67989">
        <ele>452.3</ele>
        <time>2017-10-22T08:46:54.999Z</time>
      </trkpt>
      <trkpt lat="47.47855" lon="6.67983">
        <ele>453.2</ele>
        <time>2017-10-22T08:46:57.999Z</time>
      </trkpt>
      <trkpt lat="47.47857" lon="6.67977">
        <ele>453.5</ele>
        <time>2017-10-22T08:46:58.999Z</time>
      </trkpt>
      <trkpt lat="47.47856" lon="6.67972">
        <ele>454.4</ele>
        <time>2017-10-22T08:47:04.999Z</time>
      </trkpt>
      <trkpt lat="47.47856" lon="6.6797">
        <ele>454.5</ele>
        <time>2017-10-22T08:47:05.999Z</time>
      </trkpt>
      <trkpt lat="47.47857" lon="6.67967">
        <ele>454.6</ele>
        <time>2017-10-22T08:47:06.999Z</time>
      </trkpt>
      <trkpt lat="47.47858" lon="6.67961">
        <ele>454.9</ele>
        <time>2017-10-22T08:47:07.999Z</time>
      </trkpt>
      <trkpt lat="47.47861" lon="6.67959">
        <ele>455.3</ele>
        <time>2017-10-22T08:47:09.999Z</time>
      </trkpt>
      <trkpt lat="47.4786" lon="6.67955">
        <ele>455.5</ele>
        <time>2017-10-22T08:47:10.999Z</time>
      </trkpt>
      <trkpt lat="47.47863" lon="6.67952">
        <ele>456.3</ele>
        <time>2017-10-22T08:47:15.999Z</time>
      </trkpt>
      <trkpt lat="47.47863" lon="6.67949">
        <ele>456.4</ele>
        <time>2017-10-22T08:47:16.999Z</time>
      </trkpt>
      <trkpt lat="47.47867" lon="6.67947">
        <ele>458.2</ele>
        <time>2017-10-22T08:47:22.999Z</time>
      </trkpt>
      <trkpt lat="47.47867" lon="6.67946">
        <ele>458.6</ele>
        <time>2017-10-22T08:47:23.999Z</time>
      </trkpt>
      <trkpt lat="47.47866" lon="6.67942">
        <ele>461.3</ele>
        <time>2017-10-22T08:47:31.999Z</time>
      </trkpt>
      <trkpt lat="47.47866" lon="6.67939">
        <ele>461.9</ele>
        <time>2017-10-22T08:47:32.999Z</time>
      </trkpt>
      <trkpt lat="47.47865" lon="6.67934">
        <ele>466.2</ele>
        <time>2017-10-22T08:47:42.999Z</time>
      </trkpt>
      <trkpt lat="47.4786" lon="6.67931">
        <ele>466.7</ele>
        <time>2017-10-22T08:47:43.999Z</time>
      </trkpt>
      <trkpt lat="47.47856" lon="6.67928">
        <ele>468.2</ele>
        <time>2017-10-22T08:47:48.999Z</time>
      </trkpt>
      <trkpt lat="47.47854" lon="6.67927">
        <ele>468.3</ele>
        <time>2017-10-22T08:47:49.999Z</time>
      </trkpt>
      <trkpt lat="47.47852" lon="6.67925">
        <ele>468.5</ele>
        <time>2017-10-22T08:47:50.999Z</time>
      </trkpt>
      <trkpt lat="47.47846" lon="6.67923">
        <ele>468.7</ele>
        <time>2017-10-22T08:47:51.999Z</time>
      </trkpt>
      <trkpt lat="47.47841" lon="6.6792">
        <ele>468.9</ele>
        <time>2017-10-22T08:47:52.999Z</time>
      </trkpt>
      <trkpt lat="47.47837" lon="6.67915">
        <ele>469.1</ele>
        <time>2017-10-22T08:47:53.999Z</time>
      </trkpt>
      <trkpt lat="47.47833" lon="6.67911">
        <ele>469.3</ele>
        <time>2017-10-22T08:47:54.999Z</time>
      </trkpt>
      <trkpt lat="47.47829" lon="6.67907">
        <ele>469.4</ele>
        <time>2017-10-22T08:47:55.999Z</time>
      </trkpt>
      <trkpt lat="47.47828" lon="6.67904">
        <ele>470</ele>
        <time>2017-10-22T08:47:58.999Z</time>
      </trkpt>
      <trkpt lat="47.47825" lon="6.67899">
        <ele>470.1</ele>
        <time>2017-10-22T08:47:59.999Z</time>
      </trkpt>
      <trkpt lat="47.47824" lon="6.67894">
        <ele>470.9</ele>
        <time>2017-10-22T08:48:10.999Z</time>
      </trkpt>
      <trkpt lat="47.47823" lon="6.67888">
        <ele>471</ele>
        <time>2017-10-22T08:48:11.999Z</time>
      </trkpt>
      <trkpt lat="47.47821" lon="6.67883">
        <ele>471.4</ele>
        <time>2017-10-22T08:48:16.999Z</time>
      </trkpt>
      <trkpt lat="47.4782" lon="6.6788">
        <ele>471.5</ele>
        <time>2017-10-22T08:48:17.999Z</time>
      </trkpt>
      <trkpt lat="47.4782" lon="6.67873">
        <ele>471.6</ele>
        <time>2017-10-22T08:48:18.999Z</time>
      </trkpt>
      <trkpt lat="47.4782" lon="6.67867">
        <ele>471.7</ele>
        <time>2017-10-22T08:48:19.999Z</time>
      </trkpt>
      <trkpt lat="47.47819" lon="6.67861">
        <ele>471.9</ele>
        <time>2017-10-22T08:48:28.999Z</time>
      </trkpt>
      <trkpt lat="47.4782" lon="6.6786">
        <ele>472.1</ele>
        <time>2017-10-22T08:48:29.999Z</time>
      </trkpt>
      <trkpt lat="47.47819" lon="6.67853">
        <ele>473.7</ele>
        <time>2017-10-22T08:48:46.999Z</time>
      </trkpt>
      <trkpt lat="47.47819" lon="6.67853">
        <ele>474</ele>
        <time>2017-10-22T08:48:47.999Z</time>
      </trkpt>
      <trkpt lat="47.4782" lon="6.67848">
        <ele>475.6</ele>
        <time>2017-10-22T08:48:57.999Z</time>
      </trkpt>
      <trkpt lat="47.4782" lon="6.67846">
        <ele>475.9</ele>
        <time>2017-10-22T08:48:58.999Z</time>
      </trkpt>
      <trkpt lat="47.4782" lon="6.6784">
        <ele>476.6</ele>
        <time>2017-10-22T08:49:03.999Z</time>
      </trkpt>
      <trkpt lat="47.4782" lon="6.67838">
        <ele>477</ele>
        <time>2017-10-22T08:49:04.999Z</time>
      </trkpt>
      <trkpt lat="47.4782" lon="6.67835">
        <ele>480.6</ele>
        <time>2017-10-22T08:49:14.999Z</time>
      </trkpt>
      <trkpt lat="47.4782" lon="6.67831">
        <ele>481.1</ele>
        <time>2017-10-22T08:49:15.999Z</time>
      </trkpt>
      <trkpt lat="47.47819" lon="6.67824">
        <ele>483.5</ele>
        <time>2017-10-22T08:49:23.999Z</time>
      </trkpt>
      <trkpt lat="47.47819" lon="6.67823">
        <ele>483.9</ele>
        <time>2017-10-22T08:49:24.999Z</time>
      </trkpt>
      <trkpt lat="47.47821" lon="6.67818">
        <ele>486.6</ele>
        <time>2017-10-22T08:49:32.999Z</time>
      </trkpt>
      <trkpt lat="47.47823" lon="6.67817">
        <ele>487.1</ele>
        <time>2017-10-22T08:49:33.999Z</time>
      </trkpt>
      <trkpt lat="47.47822" lon="6.67813">
        <ele>488.2</ele>
        <time>2017-10-22T08:49:39.999Z</time>
      </trkpt>
      <trkpt lat="47.47823" lon="6.6781">
        <ele>488.4</ele>
        <time>2017-10-22T08:49:40.999Z</time>
      </trkpt>
      <trkpt lat="47.47824" lon="6.67804">
        <ele>488.7</ele>
        <time>2017-10-22T08:49:43.999Z</time>
      </trkpt>
      <trkpt lat="47.47823" lon="6.67799">
        <ele>488.8</ele>
        <time>2017-10-22T08:49:45.999Z</time>
      </trkpt>
      <trkpt lat="47.47822" lon="6.67796">
        <ele>488.7</ele>
        <time>2017-10-22T08:49:46.999Z</time>
      </trkpt>
      <trkpt lat="47.47822" lon="6.67792">
        <ele>488.9</ele>
        <time>2017-10-22T08:49:47.999Z</time>
      </trkpt>
      <trkpt lat="47.47821" lon="6.67786">
        <ele>488.2</ele>
        <time>2017-10-22T08:50:03.999Z</time>
      </trkpt>
      <trkpt lat="47.4782" lon="6.67785">
        <ele>488.4</ele>
        <time>2017-10-22T08:50:04.999Z</time>
      </trkpt>
      <trkpt lat="47.47822" lon="6.67781">
        <ele>496.3</ele>
        <time>2017-10-22T08:51:08.999Z</time>
      </trkpt>
      <trkpt lat="47.4782" lon="6.67778">
        <ele>496.9</ele>
        <time>2017-10-22T08:51:09.999Z</time>
      </trkpt>
      <trkpt lat="47.47819" lon="6.67771">
        <ele>497.4</ele>
        <time>2017-10-22T08:51:10.999Z</time>
      </trkpt>
      <trkpt lat="47.4782" lon="6.67766">
        <ele>497.4</ele>
        <time>2017-10-22T08:52:34.000Z</time>
      </trkpt>
      <trkpt lat="47.47822" lon="6.67765">
        <ele>497.2</ele>
        <time>2017-10-22T08:52:35.000Z</time>
      </trkpt>
      <trkpt lat="47.47823" lon="6.67761">
        <ele>497.2</ele>
        <time>2017-10-22T08:52:51.000Z</time>
      </trkpt>
      <trkpt lat="47.47824" lon="6.67759">
        <ele>497.3</ele>
        <time>2017-10-22T08:52:52.000Z</time>
      </trkpt>
      <trkpt lat="47.47824" lon="6.67755">
        <ele>497.1</ele>
        <time>2017-10-22T08:52:54.000Z</time>
      </trkpt>
      <trkpt lat="47.47825" lon="6.67752">
        <ele>497.1</ele>
        <time>2017-10-22T08:52:55.000Z</time>
      </trkpt>
      <trkpt lat="47.47824" lon="6.67748">
        <ele>497.2</ele>
        <time>2017-10-22T08:52:56.000Z</time>
      </trkpt>
      <trkpt lat="47.47824" lon="6.67745">
        <ele>497.2</ele>
        <time>2017-10-22T08:52:57.000Z</time>
      </trkpt>
      <trkpt lat="47.47824" lon="6.67743">
        <ele>497.3</ele>
        <time>2017-10-22T08:52:58.000Z</time>
      </trkpt>
      <trkpt lat="47.47825" lon="6.67738">
        <ele>497.4</ele>
        <time>2017-10-22T08:52:59.000Z</time>
      </trkpt>
      <trkpt lat="47.47825" lon="6.67732">
        <ele>497.6</ele>
        <time>2017-10-22T08:53:00.000Z</time>
      </trkpt>
      <trkpt lat="47.47825" lon="6.67727">
        <ele>497.7</ele>
        <time>2017-10-22T08:53:01.000Z</time>
      </trkpt>
      <trkpt lat="47.47827" lon="6.67722">
        <ele>498.5</ele>
        <time>2017-10-22T08:53:08.000Z</time>
      </trkpt>
      <trkpt lat="47.47827" lon="6.6772">
        <ele>498.6</ele>
        <time>2017-10-22T08:53:09.000Z</time>
      </trkpt>
      <trkpt lat="47.47827" lon="6.67716">
        <ele>498.7</ele>
        <time>2017-10-22T08:53:11.000Z</time>
      </trkpt>
      <trkpt lat="47.47822" lon="6.67712">
        <ele>498.7</ele>
        <time>2017-10-22T08:53:12.000Z</time>
      </trkpt>
      <trkpt lat="47.4782" lon="6.67707">
        <ele>498.5</ele>
        <time>2017-10-22T08:53:13.000Z</time>
      </trkpt>
      <trkpt lat="47.47818" lon="6.67702">
        <ele>498.3</ele>
        <time>2017-10-22T08:53:14.000Z</time>
      </trkpt>
      <trkpt lat="47.47816" lon="6.67698">
        <ele>498</ele>
        <time>2017-10-22T08:53:15.000Z</time>
      </trkpt>
      <trkpt lat="47.47815" lon="6.67696">
        <ele>497.8</ele>
        <time>2017-10-22T08:53:16.000Z</time>
      </trkpt>
      <trkpt lat="47.47815" lon="6.67694">
        <ele>497.8</ele>
        <time>2017-10-22T08:53:17.000Z</time>
      </trkpt>
      <trkpt lat="47.47816" lon="6.67688">
        <ele>497.7</ele>
        <time>2017-10-22T08:53:18.000Z</time>
      </trkpt>
      <trkpt lat="47.47816" lon="6.67685">
        <ele>497.6</ele>
        <time>2017-10-22T08:53:20.000Z</time>
      </trkpt>
      <trkpt lat="47.47815" lon="6.67679">
        <ele>497.6</ele>
        <time>2017-10-22T08:53:21.000Z</time>
      </trkpt>
      <trkpt lat="47.47815" lon="6.67673">
        <ele>497.7</ele>
        <time>2017-10-22T08:53:22.000Z</time>
      </trkpt>
      <trkpt lat="47.47816" lon="6.67671">
        <ele>497.8</ele>
        <time>2017-10-22T08:53:23.000Z</time>
      </trkpt>
      <trkpt lat="47.47815" lon="6.67666">
        <ele>497.9</ele>
        <time>2017-10-22T08:53:25.000Z</time>
      </trkpt>
      <trkpt lat="47.47814" lon="6.67663">
        <ele>497.9</ele>
        <time>2017-10-22T08:53:26.000Z</time>
      </trkpt>
      <trkpt lat="47.47814" lon="6.67657">
        <ele>497.6</ele>
        <time>2017-10-22T08:53:28.000Z</time>
      </trkpt>
      <trkpt lat="47.47814" lon="6.67654">
        <ele>497.4</ele>
        <time>2017-10-22T08:53:29.000Z</time>
      </trkpt>
      <trkpt lat="47.47816" lon="6.67649">
        <ele>497</ele>
        <time>2017-10-22T08:53:33.000Z</time>
      </trkpt>
      <trkpt lat="47.47815" lon="6.67644">
        <ele>497</ele>
        <time>2017-10-22T08:53:34.000Z</time>
      </trkpt>
      <trkpt lat="47.47814" lon="6.67638">
        <ele>497</ele>
        <time>2017-10-22T08:53:35.000Z</time>
      </trkpt>
      <trkpt lat="47.47814" lon="6.67636">
        <ele>497</ele>
        <time>2017-10-22T08:53:36.000Z</time>
      </trkpt>
      <trkpt lat="47.47814" lon="6.6763">
        <ele>497</ele>
        <time>2017-10-22T08:53:38.000Z</time>
      </trkpt>
      <trkpt lat="47.47814" lon="6.67628">
        <ele>496.8</ele>
        <time>2017-10-22T08:53:39.000Z</time>
      </trkpt>
      <trkpt lat="47.47814" lon="6.67622">
        <ele>496.4</ele>
        <time>2017-10-22T08:53:42.000Z</time>
      </trkpt>
      <trkpt lat="47.47813" lon="6.67619">
        <ele>496.3</ele>
        <time>2017-10-22T08:53:43.000Z</time>
      </trkpt>
      <trkpt lat="47.47813" lon="6.67617">
        <ele>496.2</ele>
        <time>2017-10-22T08:53:44.000Z</time>
      </trkpt>
      <trkpt lat="47.47815" lon="6.67611">
        <ele>495.8</ele>
        <time>2017-10-22T08:53:46.000Z</time>
      </trkpt>
      <trkpt lat="47.47814" lon="6.67605">
        <ele>495.2</ele>
        <time>2017-10-22T08:53:50.000Z</time>
      </trkpt>
      <trkpt lat="47.47814" lon="6.67603">
        <ele>494.9</ele>
        <time>2017-10-22T08:53:51.000Z</time>
      </trkpt>
      <trkpt lat="47.47814" lon="6.67598">
        <ele>494.7</ele>
        <time>2017-10-22T08:53:52.000Z</time>
      </trkpt>
      <trkpt lat="47.47814" lon="6.67593">
        <ele>494.6</ele>
        <time>2017-10-22T08:53:53.000Z</time>
      </trkpt>
      <trkpt lat="47.47816" lon="6.67589">
        <ele>494.4</ele>
        <time>2017-10-22T08:53:56.000Z</time>
      </trkpt>
      <trkpt lat="47.47816" lon="6.67586">
        <ele>494.3</ele>
        <time>2017-10-22T08:53:57.000Z</time>
      </trkpt>
      <trkpt lat="47.47816" lon="6.6758">
        <ele>494</ele>
        <time>2017-10-22T08:53:59.000Z</time>
      </trkpt>
      <trkpt lat="47.47816" lon="6.67576">
        <ele>493.8</ele>
        <time>2017-10-22T08:54:00.000Z</time>
      </trkpt>
      <trkpt lat="47.47815" lon="6.67572">
        <ele>493.6</ele>
        <time>2017-10-22T08:54:01.000Z</time>
      </trkpt>
      <trkpt lat="47.47815" lon="6.67569">
        <ele>493.5</ele>
        <time>2017-10-22T08:54:02.000Z</time>
      </trkpt>
      <trkpt lat="47.47814" lon="6.67565">
        <ele>493.3</ele>
        <time>2017-10-22T08:54:03.000Z</time>
      </trkpt>
      <trkpt lat="47.47813" lon="6.6756">
        <ele>493.2</ele>
        <time>2017-10-22T08:54:04.000Z</time>
      </trkpt>
      <trkpt lat="47.47813" lon="6.67556">
        <ele>493.2</ele>
        <time>2017-10-22T08:54:05.000Z</time>
      </trkpt>
      <trkpt lat="47.47813" lon="6.67552">
        <ele>493.1</ele>
        <time>2017-10-22T08:54:06.000Z</time>
      </trkpt>
      <trkpt lat="47.47813" lon="6.67548">
        <ele>493</ele>
        <time>2017-10-22T08:54:07.000Z</time>
      </trkpt>
      <trkpt lat="47.47813" lon="6.67545">
        <ele>492.9</ele>
        <time>2017-10-22T08:54:08.000Z</time>
      </trkpt>
      <trkpt lat="47.47813" lon="6.67538">
        <ele>492.8</ele>
        <time>2017-10-22T08:54:09.000Z</time>
      </trkpt>
      <trkpt lat="47.47813" lon="6.67534">
        <ele>492.6</ele>
        <time>2017-10-22T08:54:10.000Z</time>
      </trkpt>
      <trkpt lat="47.47816" lon="6.6753">
        <ele>492.4</ele>
        <time>2017-10-22T08:54:11.000Z</time>
      </trkpt>
      <trkpt lat="47.47819" lon="6.67526">
        <ele>492.2</ele>
        <time>2017-10-22T08:54:12.000Z</time>
      </trkpt>
      <trkpt lat="47.4782" lon="6.67523">
        <ele>492</ele>
        <time>2017-10-22T08:54:13.000Z</time>
      </trkpt>
      <trkpt lat="47.4782" lon="6.67518">
        <ele>491.9</ele>
        <time>2017-10-22T08:54:14.000Z</time>
      </trkpt>
      <trkpt lat="47.4782" lon="6.67514">
        <ele>491.7</ele>
        <time>2017-10-22T08:54:15.000Z</time>
      </trkpt>
      <trkpt lat="47.4782" lon="6.6751">
        <ele>491.6</ele>
        <time>2017-10-22T08:54:16.000Z</time>
      </trkpt>
      <trkpt lat="47.47822" lon="6.67506">
        <ele>491.5</ele>
        <time>2017-10-22T08:54:17.000Z</time>
      </trkpt>
      <trkpt lat="47.47825" lon="6.67499">
        <ele>491.4</ele>
        <time>2017-10-22T08:54:18.000Z</time>
      </trkpt>
      <trkpt lat="47.47827" lon="6.67495">
        <ele>491.3</ele>
        <time>2017-10-22T08:54:19.000Z</time>
      </trkpt>
      <trkpt lat="47.47829" lon="6.6749">
        <ele>491.2</ele>
        <time>2017-10-22T08:54:20.000Z</time>
      </trkpt>
      <trkpt lat="47.4783" lon="6.67486">
        <ele>491.1</ele>
        <time>2017-10-22T08:54:21.000Z</time>
      </trkpt>
      <trkpt lat="47.47831" lon="6.67481">
        <ele>491.1</ele>
        <time>2017-10-22T08:54:22.000Z</time>
      </trkpt>
      <trkpt lat="47.47832" lon="6.67475">
        <ele>490.9</ele>
        <time>2017-10-22T08:54:23.000Z</time>
      </trkpt>
      <trkpt lat="47.47831" lon="6.6747">
        <ele>490.6</ele>
        <time>2017-10-22T08:54:24.000Z</time>
      </trkpt>
      <trkpt lat="47.47829" lon="6.67465">
        <ele>490.3</ele>
        <time>2017-10-22T08:54:25.000Z</time>
      </trkpt>
      <trkpt lat="47.47828" lon="6.6746">
        <ele>490.1</ele>
        <time>2017-10-22T08:54:26.000Z</time>
      </trkpt>
      <trkpt lat="47.47828" lon="6.67455">
        <ele>489.7</ele>
        <time>2017-10-22T08:54:27.000Z</time>
      </trkpt>
      <trkpt lat="47.47827" lon="6.67446">
        <ele>489.4</ele>
        <time>2017-10-22T08:54:28.000Z</time>
      </trkpt>
      <trkpt lat="47.47827" lon="6.67441">
        <ele>489.2</ele>
        <time>2017-10-22T08:54:29.000Z</time>
      </trkpt>
      <trkpt lat="47.47826" lon="6.67433">
        <ele>489.1</ele>
        <time>2017-10-22T08:54:30.000Z</time>
      </trkpt>
      <trkpt lat="47.47826" lon="6.67428">
        <ele>488.9</ele>
        <time>2017-10-22T08:54:31.000Z</time>
      </trkpt>
      <trkpt lat="47.47828" lon="6.67423">
        <ele>488.7</ele>
        <time>2017-10-22T08:54:32.000Z</time>
      </trkpt>
      <trkpt lat="47.4783" lon="6.67416">
        <ele>488.5</ele>
        <time>2017-10-22T08:54:33.000Z</time>
      </trkpt>
      <trkpt lat="47.47831" lon="6.67412">
        <ele>488.3</ele>
        <time>2017-10-22T08:54:34.000Z</time>
      </trkpt>
      <trkpt lat="47.47832" lon="6.67407">
        <ele>488.1</ele>
        <time>2017-10-22T08:54:35.000Z</time>
      </trkpt>
      <trkpt lat="47.47832" lon="6.674">
        <ele>487.9</ele>
        <time>2017-10-22T08:54:36.000Z</time>
      </trkpt>
      <trkpt lat="47.47835" lon="6.67397">
        <ele>487.7</ele>
        <time>2017-10-22T08:54:37.000Z</time>
      </trkpt>
      <trkpt lat="47.47837" lon="6.67393">
        <ele>487.5</ele>
        <time>2017-10-22T08:54:38.000Z</time>
      </trkpt>
      <trkpt lat="47.47838" lon="6.67389">
        <ele>487.4</ele>
        <time>2017-10-22T08:54:39.000Z</time>
      </trkpt>
      <trkpt lat="47.47839" lon="6.67384">
        <ele>487.2</ele>
        <time>2017-10-22T08:54:40.000Z</time>
      </trkpt>
      <trkpt lat="47.47841" lon="6.67378">
        <ele>487</ele>
        <time>2017-10-22T08:54:41.000Z</time>
      </trkpt>
      <trkpt lat="47.47841" lon="6.67373">
        <ele>486.9</ele>
        <time>2017-10-22T08:54:42.000Z</time>
      </trkpt>
      <trkpt lat="47.47841" lon="6.67368">
        <ele>486.8</ele>
        <time>2017-10-22T08:54:43.000Z</time>
      </trkpt>
      <trkpt lat="47.4784" lon="6.67365">
        <ele>486.6</ele>
        <time>2017-10-22T08:54:44.000Z</time>
      </trkpt>
      <trkpt lat="47.47841" lon="6.67354">
        <ele>486.6</ele>
        <time>2017-10-22T08:54:46.000Z</time>
      </trkpt>
      <trkpt lat="47.4784" lon="6.67348">
        <ele>486.7</ele>
        <time>2017-10-22T08:54:47.000Z</time>
      </trkpt>
      <trkpt lat="47.4784" lon="6.67342">
        <ele>486.6</ele>
        <time>2017-10-22T08:54:48.000Z</time>
      </trkpt>
      <trkpt lat="47.47841" lon="6.67337">
        <ele>486.6</ele>
        <time>2017-10-22T08:54:49.000Z</time>
      </trkpt>
      <trkpt lat="47.47841" lon="6.67331">
        <ele>486.6</ele>
        <time>2017-10-22T08:54:50.000Z</time>
      </trkpt>
      <trkpt lat="47.47843" lon="6.67325">
        <ele>486.7</ele>
        <time>2017-10-22T08:54:51.000Z</time>
      </trkpt>
      <trkpt lat="47.47844" lon="6.6732">
        <ele>486.7</ele>
        <time>2017-10-22T08:54:52.000Z</time>
      </trkpt>
      <trkpt lat="47.47843" lon="6.67314">
        <ele>486.8</ele>
        <time>2017-10-22T08:54:53.000Z</time>
      </trkpt>
      <trkpt lat="47.47843" lon="6.67307">
        <ele>486.9</ele>
        <time>2017-10-22T08:54:54.000Z</time>
      </trkpt>
      <trkpt lat="47.47844" lon="6.67303">
        <ele>486.9</ele>
        <time>2017-10-22T08:54:55.000Z</time>
      </trkpt>
      <trkpt lat="47.47843" lon="6.67298">
        <ele>486.7</ele>
        <time>2017-10-22T08:54:56.000Z</time>
      </trkpt>
      <trkpt lat="47.47844" lon="6.67294">
        <ele>486.7</ele>
        <time>2017-10-22T08:54:57.000Z</time>
      </trkpt>
      <trkpt lat="47.47844" lon="6.67289">
        <ele>486.7</ele>
        <time>2017-10-22T08:54:58.000Z</time>
      </trkpt>
      <trkpt lat="47.47846" lon="6.67284">
        <ele>486.8</ele>
        <time>2017-10-22T08:54:59.000Z</time>
      </trkpt>
      <trkpt lat="47.47849" lon="6.6728">
        <ele>486.9</ele>
        <time>2017-10-22T08:55:00.000Z</time>
      </trkpt>
      <trkpt lat="47.47851" lon="6.67274">
        <ele>486.9</ele>
        <time>2017-10-22T08:55:01.000Z</time>
      </trkpt>
      <trkpt lat="47.47852" lon="6.67268">
        <ele>486.8</ele>
        <time>2017-10-22T08:55:02.000Z</time>
      </trkpt>
      <trkpt lat="47.47852" lon="6.67265">
        <ele>486.8</ele>
        <time>2017-10-22T08:55:03.000Z</time>
      </trkpt>
      <trkpt lat="47.47855" lon="6.67263">
        <ele>486.8</ele>
        <time>2017-10-22T08:55:04.000Z</time>
      </trkpt>
      <trkpt lat="47.47859" lon="6.67262">
        <ele>486.8</ele>
        <time>2017-10-22T08:55:05.000Z</time>
      </trkpt>
      <trkpt lat="47.47863" lon="6.67256">
        <ele>486.7</ele>
        <time>2017-10-22T08:55:06.000Z</time>
      </trkpt>
      <trkpt lat="47.47863" lon="6.6725">
        <ele>486.7</ele>
        <time>2017-10-22T08:55:07.000Z</time>
      </trkpt>
      <trkpt lat="47.47862" lon="6.67243">
        <ele>486.5</ele>
        <time>2017-10-22T08:55:08.000Z</time>
      </trkpt>
      <trkpt lat="47.47861" lon="6.67238">
        <ele>486.4</ele>
        <time>2017-10-22T08:55:09.000Z</time>
      </trkpt>
      <trkpt lat="47.47859" lon="6.6723">
        <ele>486.2</ele>
        <time>2017-10-22T08:55:10.000Z</time>
      </trkpt>
      <trkpt lat="47.47859" lon="6.67222">
        <ele>486</ele>
        <time>2017-10-22T08:55:11.000Z</time>
      </trkpt>
      <trkpt lat="47.47858" lon="6.67215">
        <ele>485.5</ele>
        <time>2017-10-22T08:55:13.000Z</time>
      </trkpt>
      <trkpt lat="47.47856" lon="6.67207">
        <ele>485.3</ele>
        <time>2017-10-22T08:55:14.000Z</time>
      </trkpt>
      <trkpt lat="47.47854" lon="6.672">
        <ele>485.2</ele>
        <time>2017-10-22T08:55:15.000Z</time>
      </trkpt>
      <trkpt lat="47.47855" lon="6.67193">
        <ele>485</ele>
        <time>2017-10-22T08:55:16.000Z</time>
      </trkpt>
      <trkpt lat="47.47855" lon="6.6719">
        <ele>484.8</ele>
        <time>2017-10-22T08:55:17.000Z</time>
      </trkpt>
      <trkpt lat="47.47853" lon="6.67184">
        <ele>482.8</ele>
        <time>2017-10-22T08:55:18.000Z</time>
      </trkpt>
      <trkpt lat="47.47854" lon="6.6718">
        <ele>482.7</ele>
        <time>2017-10-22T08:55:19.000Z</time>
      </trkpt>
      <trkpt lat="47.47854" lon="6.67173">
        <ele>482.6</ele>
        <time>2017-10-22T08:55:20.000Z</time>
      </trkpt>
      <trkpt lat="47.47856" lon="6.67165">
        <ele>482.5</ele>
        <time>2017-10-22T08:55:21.000Z</time>
      </trkpt>
      <trkpt lat="47.47861" lon="6.67159">
        <ele>482.4</ele>
        <time>2017-10-22T08:55:22.000Z</time>
      </trkpt>
      <trkpt lat="47.47865" lon="6.67151">
        <ele>482.4</ele>
        <time>2017-10-22T08:55:23.000Z</time>
      </trkpt>
      <trkpt lat="47.4787" lon="6.67141">
        <ele>482.2</ele>
        <time>2017-10-22T08:55:24.000Z</time>
      </trkpt>
      <trkpt lat="47.47871" lon="6.67134">
        <ele>482</ele>
        <time>2017-10-22T08:55:25.000Z</time>
      </trkpt>
      <trkpt lat="47.47869" lon="6.67126">
        <ele>481.9</ele>
        <time>2017-10-22T08:55:26.000Z</time>
      </trkpt>
      <trkpt lat="47.47868" lon="6.6712">
        <ele>481.6</ele>
        <time>2017-10-22T08:55:27.000Z</time>
      </trkpt>
      <trkpt lat="47.47868" lon="6.67116">
        <ele>481.3</ele>
        <time>2017-10-22T08:55:28.000Z</time>
      </trkpt>
      <trkpt lat="47.47867" lon="6.67109">
        <ele>481</ele>
        <time>2017-10-22T08:55:29.000Z</time>
      </trkpt>
      <trkpt lat="47.47866" lon="6.67103">
        <ele>477.6</ele>
        <time>2017-10-22T08:55:30.000Z</time>
      </trkpt>
      <trkpt lat="47.47867" lon="6.671">
        <ele>477.5</ele>
        <time>2017-10-22T08:55:31.000Z</time>
      </trkpt>
      <trkpt lat="47.47868" lon="6.67094">
        <ele>477.3</ele>
        <time>2017-10-22T08:55:32.000Z</time>
      </trkpt>
      <trkpt lat="47.4787" lon="6.6709">
        <ele>477.1</ele>
        <time>2017-10-22T08:55:33.000Z</time>
      </trkpt>
      <trkpt lat="47.47875" lon="6.67083">
        <ele>476.9</ele>
        <time>2017-10-22T08:55:34.000Z</time>
      </trkpt>
      <trkpt lat="47.47879" lon="6.67076">
        <ele>476.8</ele>
        <time>2017-10-22T08:55:35.000Z</time>
      </trkpt>
      <trkpt lat="47.47882" lon="6.6707">
        <ele>476.6</ele>
        <time>2017-10-22T08:55:36.000Z</time>
      </trkpt>
      <trkpt lat="47.47886" lon="6.67062">
        <ele>476.6</ele>
        <time>2017-10-22T08:55:37.000Z</time>
      </trkpt>
      <trkpt lat="47.47886" lon="6.67055">
        <ele>476.5</ele>
        <time>2017-10-22T08:55:38.000Z</time>
      </trkpt>
      <trkpt lat="47.47889" lon="6.67048">
        <ele>476.5</ele>
        <time>2017-10-22T08:55:39.000Z</time>
      </trkpt>
      <trkpt lat="47.47889" lon="6.67041">
        <ele>476.7</ele>
        <time>2017-10-22T08:55:40.000Z</time>
      </trkpt>
      <trkpt lat="47.4789" lon="6.67034">
        <ele>476.9</ele>
        <time>2017-10-22T08:55:41.000Z</time>
      </trkpt>
      <trkpt lat="47.47892" lon="6.67026">
        <ele>477.1</ele>
        <time>2017-10-22T08:55:42.000Z</time>
      </trkpt>
      <trkpt lat="47.47893" lon="6.67018">
        <ele>477.3</ele>
        <time>2017-10-22T08:55:43.000Z</time>
      </trkpt>
      <trkpt lat="47.47897" lon="6.67012">
        <ele>477.5</ele>
        <time>2017-10-22T08:55:44.000Z</time>
      </trkpt>
      <trkpt lat="47.47901" lon="6.66996">
        <ele>477.9</ele>
        <time>2017-10-22T08:55:46.000Z</time>
      </trkpt>
      <trkpt lat="47.47904" lon="6.6699">
        <ele>478.1</ele>
        <time>2017-10-22T08:55:47.000Z</time>
      </trkpt>
      <trkpt lat="47.47906" lon="6.66982">
        <ele>478.2</ele>
        <time>2017-10-22T08:55:48.000Z</time>
      </trkpt>
      <trkpt lat="47.47908" lon="6.66975">
        <ele>478.3</ele>
        <time>2017-10-22T08:55:49.000Z</time>
      </trkpt>
      <trkpt lat="47.47907" lon="6.66967">
        <ele>478.4</ele>
        <time>2017-10-22T08:55:50.000Z</time>
      </trkpt>
      <trkpt lat="47.47907" lon="6.66958">
        <ele>478.4</ele>
        <time>2017-10-22T08:55:51.000Z</time>
      </trkpt>
      <trkpt lat="47.47908" lon="6.66954">
        <ele>478.5</ele>
        <time>2017-10-22T08:55:52.000Z</time>
      </trkpt>
      <trkpt lat="47.4791" lon="6.66949">
        <ele>480.6</ele>
        <time>2017-10-22T08:55:53.000Z</time>
      </trkpt>
      <trkpt lat="47.47915" lon="6.66942">
        <ele>482.6</ele>
        <time>2017-10-22T08:55:54.000Z</time>
      </trkpt>
      <trkpt lat="47.4792" lon="6.66933">
        <ele>484.2</ele>
        <time>2017-10-22T08:55:55.000Z</time>
      </trkpt>
      <trkpt lat="47.4792" lon="6.66926">
        <ele>484.2</ele>
        <time>2017-10-22T08:55:56.000Z</time>
      </trkpt>
      <trkpt lat="47.47919" lon="6.6692">
        <ele>484.2</ele>
        <time>2017-10-22T08:56:00.000Z</time>
      </trkpt>
      <trkpt lat="47.47919" lon="6.66917">
        <ele>484.4</ele>
        <time>2017-10-22T08:56:01.000Z</time>
      </trkpt>
      <trkpt lat="47.47919" lon="6.66912">
        <ele>484.6</ele>
        <time>2017-10-22T08:56:02.000Z</time>
      </trkpt>
      <trkpt lat="47.47919" lon="6.66909">
        <ele>484.9</ele>
        <time>2017-10-22T08:56:03.000Z</time>
      </trkpt>
      <trkpt lat="47.47918" lon="6.66904">
        <ele>485.1</ele>
        <time>2017-10-22T08:56:04.000Z</time>
      </trkpt>
      <trkpt lat="47.47918" lon="6.66896">
        <ele>485.1</ele>
        <time>2017-10-22T08:56:05.000Z</time>
      </trkpt>
      <trkpt lat="47.47917" lon="6.66891">
        <ele>485.3</ele>
        <time>2017-10-22T08:56:06.000Z</time>
      </trkpt>
      <trkpt lat="47.47917" lon="6.66887">
        <ele>485.4</ele>
        <time>2017-10-22T08:56:07.000Z</time>
      </trkpt>
      <trkpt lat="47.47918" lon="6.6688">
        <ele>485.4</ele>
        <time>2017-10-22T08:56:08.000Z</time>
      </trkpt>
      <trkpt lat="47.47924" lon="6.66878">
        <ele>485.5</ele>
        <time>2017-10-22T08:56:09.000Z</time>
      </trkpt>
      <trkpt lat="47.47928" lon="6.66876">
        <ele>485.5</ele>
        <time>2017-10-22T08:56:11.000Z</time>
      </trkpt>
      <trkpt lat="47.47929" lon="6.66873">
        <ele>485.5</ele>
        <time>2017-10-22T08:56:12.000Z</time>
      </trkpt>
      <trkpt lat="47.47933" lon="6.66865">
        <ele>485.5</ele>
        <time>2017-10-22T08:56:13.000Z</time>
      </trkpt>
      <trkpt lat="47.47937" lon="6.66862">
        <ele>485.5</ele>
        <time>2017-10-22T08:56:14.000Z</time>
      </trkpt>
      <trkpt lat="47.47939" lon="6.66859">
        <ele>485.7</ele>
        <time>2017-10-22T08:56:15.000Z</time>
      </trkpt>
      <trkpt lat="47.4794" lon="6.66852">
        <ele>485.9</ele>
        <time>2017-10-22T08:56:16.000Z</time>
      </trkpt>
      <trkpt lat="47.47942" lon="6.66846">
        <ele>486.2</ele>
        <time>2017-10-22T08:56:17.000Z</time>
      </trkpt>
      <trkpt lat="47.47944" lon="6.6684">
        <ele>486.6</ele>
        <time>2017-10-22T08:56:18.000Z</time>
      </trkpt>
      <trkpt lat="47.47945" lon="6.66834">
        <ele>486.6</ele>
        <time>2017-10-22T08:56:19.000Z</time>
      </trkpt>
      <trkpt lat="47.47943" lon="6.66827">
        <ele>486.6</ele>
        <time>2017-10-22T08:56:20.000Z</time>
      </trkpt>
      <trkpt lat="47.47942" lon="6.66819">
        <ele>486.6</ele>
        <time>2017-10-22T08:56:21.000Z</time>
      </trkpt>
      <trkpt lat="47.4794" lon="6.66808">
        <ele>486.4</ele>
        <time>2017-10-22T08:56:22.000Z</time>
      </trkpt>
      <trkpt lat="47.47939" lon="6.66802">
        <ele>486.2</ele>
        <time>2017-10-22T08:56:23.000Z</time>
      </trkpt>
      <trkpt lat="47.47936" lon="6.66795">
        <ele>485.9</ele>
        <time>2017-10-22T08:56:24.000Z</time>
      </trkpt>
      <trkpt lat="47.47934" lon="6.66786">
        <ele>485.6</ele>
        <time>2017-10-22T08:56:25.000Z</time>
      </trkpt>
      <trkpt lat="47.47932" lon="6.6678">
        <ele>485.3</ele>
        <time>2017-10-22T08:56:26.000Z</time>
      </trkpt>
      <trkpt lat="47.4793" lon="6.66771">
        <ele>485</ele>
        <time>2017-10-22T08:56:27.000Z</time>
      </trkpt>
      <trkpt lat="47.47927" lon="6.66762">
        <ele>484.9</ele>
        <time>2017-10-22T08:56:28.000Z</time>
      </trkpt>
      <trkpt lat="47.47924" lon="6.66753">
        <ele>484.6</ele>
        <time>2017-10-22T08:56:29.000Z</time>
      </trkpt>
      <trkpt lat="47.4792" lon="6.66741">
        <ele>484.4</ele>
        <time>2017-10-22T08:56:30.000Z</time>
      </trkpt>
      <trkpt lat="47.47918" lon="6.66735">
        <ele>484.3</ele>
        <time>2017-10-22T08:56:31.000Z</time>
      </trkpt>
      <trkpt lat="47.47916" lon="6.66728">
        <ele>484.2</ele>
        <time>2017-10-22T08:56:32.000Z</time>
      </trkpt>
      <trkpt lat="47.47914" lon="6.66721">
        <ele>484.2</ele>
        <time>2017-10-22T08:56:33.000Z</time>
      </trkpt>
      <trkpt lat="47.47913" lon="6.66717">
        <ele>484</ele>
        <time>2017-10-22T08:56:34.000Z</time>
      </trkpt>
      <trkpt lat="47.47913" lon="6.66712">
        <ele>483.8</ele>
        <time>2017-10-22T08:56:35.000Z</time>
      </trkpt>
      <trkpt lat="47.47912" lon="6.66706">
        <ele>483.6</ele>
        <time>2017-10-22T08:56:36.000Z</time>
      </trkpt>
      <trkpt lat="47.47912" lon="6.667">
        <ele>483.5</ele>
        <time>2017-10-22T08:56:37.000Z</time>
      </trkpt>
      <trkpt lat="47.47911" lon="6.66691">
        <ele>483.3</ele>
        <time>2017-10-22T08:56:38.000Z</time>
      </trkpt>
      <trkpt lat="47.47911" lon="6.66684">
        <ele>483.3</ele>
        <time>2017-10-22T08:56:39.000Z</time>
      </trkpt>
      <trkpt lat="47.47913" lon="6.66674">
        <ele>483.2</ele>
        <time>2017-10-22T08:56:40.000Z</time>
      </trkpt>
      <trkpt lat="47.47911" lon="6.66669">
        <ele>483.1</ele>
        <time>2017-10-22T08:56:41.000Z</time>
      </trkpt>
      <trkpt lat="47.47908" lon="6.66664">
        <ele>482.8</ele>
        <time>2017-10-22T08:56:42.000Z</time>
      </trkpt>
      <trkpt lat="47.47904" lon="6.66658">
        <ele>483.2</ele>
        <time>2017-10-22T08:56:43.000Z</time>
      </trkpt>
      <trkpt lat="47.47902" lon="6.66653">
        <ele>483.2</ele>
        <time>2017-10-22T08:56:44.000Z</time>
      </trkpt>
      <trkpt lat="47.479" lon="6.66642">
        <ele>483.5</ele>
        <time>2017-10-22T08:56:46.000Z</time>
      </trkpt>
      <trkpt lat="47.479" lon="6.66632">
        <ele>483.6</ele>
        <time>2017-10-22T08:56:47.000Z</time>
      </trkpt>
      <trkpt lat="47.479" lon="6.66626">
        <ele>483.8</ele>
        <time>2017-10-22T08:56:48.000Z</time>
      </trkpt>
      <trkpt lat="47.479" lon="6.66619">
        <ele>483.8</ele>
        <time>2017-10-22T08:56:49.000Z</time>
      </trkpt>
      <trkpt lat="47.479" lon="6.66612">
        <ele>484</ele>
        <time>2017-10-22T08:56:50.000Z</time>
      </trkpt>
      <trkpt lat="47.47901" lon="6.66604">
        <ele>484.2</ele>
        <time>2017-10-22T08:56:51.000Z</time>
      </trkpt>
      <trkpt lat="47.47902" lon="6.66596">
        <ele>486.9</ele>
        <time>2017-10-22T08:56:52.000Z</time>
      </trkpt>
      <trkpt lat="47.47904" lon="6.66588">
        <ele>488.6</ele>
        <time>2017-10-22T08:56:53.000Z</time>
      </trkpt>
      <trkpt lat="47.47904" lon="6.66579">
        <ele>489</ele>
        <time>2017-10-22T08:56:54.000Z</time>
      </trkpt>
      <trkpt lat="47.47904" lon="6.66566">
        <ele>489</ele>
        <time>2017-10-22T08:56:55.000Z</time>
      </trkpt>
      <trkpt lat="47.47903" lon="6.66556">
        <ele>489.1</ele>
        <time>2017-10-22T08:56:56.000Z</time>
      </trkpt>
      <trkpt lat="47.47909" lon="6.6655">
        <ele>489.4</ele>
        <time>2017-10-22T08:56:57.000Z</time>
      </trkpt>
      <trkpt lat="47.47915" lon="6.66547">
        <ele>489.5</ele>
        <time>2017-10-22T08:56:58.000Z</time>
      </trkpt>
      <trkpt lat="47.47919" lon="6.66547">
        <ele>489.6</ele>
        <time>2017-10-22T08:56:59.000Z</time>
      </trkpt>
      <trkpt lat="47.47923" lon="6.66547">
        <ele>489.7</ele>
        <time>2017-10-22T08:57:00.000Z</time>
      </trkpt>
      <trkpt lat="47.47924" lon="6.66543">
        <ele>489.9</ele>
        <time>2017-10-22T08:57:01.000Z</time>
      </trkpt>
      <trkpt lat="47.47925" lon="6.6654">
        <ele>489.9</ele>
        <time>2017-10-22T08:57:02.000Z</time>
      </trkpt>
      <trkpt lat="47.47924" lon="6.6653">
        <ele>489.9</ele>
        <time>2017-10-22T08:57:03.000Z</time>
      </trkpt>
      <trkpt lat="47.47922" lon="6.66521">
        <ele>489.8</ele>
        <time>2017-10-22T08:57:04.000Z</time>
      </trkpt>
      <trkpt lat="47.47918" lon="6.66511">
        <ele>489.7</ele>
        <time>2017-10-22T08:57:05.000Z</time>
      </trkpt>
      <trkpt lat="47.47915" lon="6.66501">
        <ele>489.5</ele>
        <time>2017-10-22T08:57:06.000Z</time>
      </trkpt>
      <trkpt lat="47.47912" lon="6.66489">
        <ele>489.2</ele>
        <time>2017-10-22T08:57:07.000Z</time>
      </trkpt>
      <trkpt lat="47.4791" lon="6.66475">
        <ele>488.2</ele>
        <time>2017-10-22T08:57:08.000Z</time>
      </trkpt>
      <trkpt lat="47.4791" lon="6.66467">
        <ele>488.2</ele>
        <time>2017-10-22T08:57:09.000Z</time>
      </trkpt>
      <trkpt lat="47.47909" lon="6.6646">
        <ele>488.2</ele>
        <time>2017-10-22T08:57:10.000Z</time>
      </trkpt>
      <trkpt lat="47.47909" lon="6.66454">
        <ele>488.3</ele>
        <time>2017-10-22T08:57:11.000Z</time>
      </trkpt>
      <trkpt lat="47.4791" lon="6.6645">
        <ele>488.2</ele>
        <time>2017-10-22T08:57:12.000Z</time>
      </trkpt>
      <trkpt lat="47.47909" lon="6.66445">
        <ele>488</ele>
        <time>2017-10-22T08:57:16.000Z</time>
      </trkpt>
      <trkpt lat="47.47909" lon="6.66444">
        <ele>487.9</ele>
        <time>2017-10-22T08:57:17.000Z</time>
      </trkpt>
      <trkpt lat="47.47909" lon="6.66438">
        <ele>485.9</ele>
        <time>2017-10-22T08:57:39.000Z</time>
      </trkpt>
      <trkpt lat="47.4791" lon="6.66436">
        <ele>485.5</ele>
        <time>2017-10-22T08:57:40.000Z</time>
      </trkpt>
      <trkpt lat="47.4791" lon="6.66431">
        <ele>484.8</ele>
        <time>2017-10-22T08:57:42.000Z</time>
      </trkpt>
      <trkpt lat="47.47911" lon="6.66429">
        <ele>484.4</ele>
        <time>2017-10-22T08:57:43.000Z</time>
      </trkpt>
      <trkpt lat="47.47913" lon="6.66423">
        <ele>483.6</ele>
        <time>2017-10-22T08:57:45.000Z</time>
      </trkpt>
      <trkpt lat="47.47912" lon="6.66418">
        <ele>483.3</ele>
        <time>2017-10-22T08:57:46.000Z</time>
      </trkpt>
      <trkpt lat="47.47913" lon="6.66412">
        <ele>482.9</ele>
        <time>2017-10-22T08:57:47.000Z</time>
      </trkpt>
      <trkpt lat="47.47915" lon="6.66407">
        <ele>482.6</ele>
        <time>2017-10-22T08:57:48.000Z</time>
      </trkpt>
      <trkpt lat="47.47916" lon="6.66403">
        <ele>482.3</ele>
        <time>2017-10-22T08:57:49.000Z</time>
      </trkpt>
      <trkpt lat="47.47917" lon="6.66399">
        <ele>482</ele>
        <time>2017-10-22T08:57:50.000Z</time>
      </trkpt>
      <trkpt lat="47.47918" lon="6.66394">
        <ele>481.7</ele>
        <time>2017-10-22T08:57:51.000Z</time>
      </trkpt>
      <trkpt lat="47.47924" lon="6.66393">
        <ele>479.1</ele>
        <time>2017-10-22T08:57:52.000Z</time>
      </trkpt>
      <trkpt lat="47.4793" lon="6.66392">
        <ele>476.9</ele>
        <time>2017-10-22T08:57:53.000Z</time>
      </trkpt>
      <trkpt lat="47.47935" lon="6.66392">
        <ele>475.9</ele>
        <time>2017-10-22T08:57:54.000Z</time>
      </trkpt>
      <trkpt lat="47.47938" lon="6.66388">
        <ele>475.9</ele>
        <time>2017-10-22T08:57:55.000Z</time>
      </trkpt>
      <trkpt lat="47.4794" lon="6.66383">
        <ele>475.8</ele>
        <time>2017-10-22T08:57:56.000Z</time>
      </trkpt>
      <trkpt lat="47.47941" lon="6.66377">
        <ele>475.8</ele>
        <time>2017-10-22T08:57:57.000Z</time>
      </trkpt>
      <trkpt lat="47.47942" lon="6.66372">
        <ele>475.9</ele>
        <time>2017-10-22T08:57:58.000Z</time>
      </trkpt>
      <trkpt lat="47.47945" lon="6.66368">
        <ele>476</ele>
        <time>2017-10-22T08:57:59.000Z</time>
      </trkpt>
      <trkpt lat="47.47947" lon="6.66365">
        <ele>476.1</ele>
        <time>2017-10-22T08:58:00.000Z</time>
      </trkpt>
      <trkpt lat="47.47946" lon="6.66357">
        <ele>477</ele>
        <time>2017-10-22T08:58:01.000Z</time>
      </trkpt>
      <trkpt lat="47.47945" lon="6.66348">
        <ele>477.7</ele>
        <time>2017-10-22T08:58:02.000Z</time>
      </trkpt>
      <trkpt lat="47.47946" lon="6.66342">
        <ele>477.6</ele>
        <time>2017-10-22T08:58:03.000Z</time>
      </trkpt>
      <trkpt lat="47.47948" lon="6.66335">
        <ele>477.6</ele>
        <time>2017-10-22T08:58:04.000Z</time>
      </trkpt>
      <trkpt lat="47.47949" lon="6.66331">
        <ele>477.7</ele>
        <time>2017-10-22T08:58:05.000Z</time>
      </trkpt>
      <trkpt lat="47.4795" lon="6.66328">
        <ele>477.9</ele>
        <time>2017-10-22T08:58:06.000Z</time>
      </trkpt>
      <trkpt lat="47.47952" lon="6.66321">
        <ele>477.9</ele>
        <time>2017-10-22T08:58:07.000Z</time>
      </trkpt>
      <trkpt lat="47.47953" lon="6.66317">
        <ele>477.9</ele>
        <time>2017-10-22T08:58:08.000Z</time>
      </trkpt>
      <trkpt lat="47.47954" lon="6.66313">
        <ele>477.9</ele>
        <time>2017-10-22T08:58:09.000Z</time>
      </trkpt>
      <trkpt lat="47.47954" lon="6.66308">
        <ele>477.9</ele>
        <time>2017-10-22T08:58:10.000Z</time>
      </trkpt>
      <trkpt lat="47.47954" lon="6.66304">
        <ele>477.7</ele>
        <time>2017-10-22T08:58:11.000Z</time>
      </trkpt>
      <trkpt lat="47.47957" lon="6.66302">
        <ele>477.8</ele>
        <time>2017-10-22T08:58:12.000Z</time>
      </trkpt>
      <trkpt lat="47.4796" lon="6.66301">
        <ele>477.8</ele>
        <time>2017-10-22T08:58:13.000Z</time>
      </trkpt>
      <trkpt lat="47.4796" lon="6.66297">
        <ele>477.9</ele>
        <time>2017-10-22T08:58:14.000Z</time>
      </trkpt>
      <trkpt lat="47.4796" lon="6.66293">
        <ele>478</ele>
        <time>2017-10-22T08:58:15.000Z</time>
      </trkpt>
      <trkpt lat="47.47959" lon="6.66285">
        <ele>478</ele>
        <time>2017-10-22T08:58:16.000Z</time>
      </trkpt>
      <trkpt lat="47.4796" lon="6.66281">
        <ele>478</ele>
        <time>2017-10-22T08:58:17.000Z</time>
      </trkpt>
      <trkpt lat="47.47961" lon="6.66277">
        <ele>478.1</ele>
        <time>2017-10-22T08:58:18.000Z</time>
      </trkpt>
      <trkpt lat="47.47963" lon="6.66273">
        <ele>478.1</ele>
        <time>2017-10-22T08:58:20.000Z</time>
      </trkpt>
      <trkpt lat="47.47963" lon="6.66269">
        <ele>478.1</ele>
        <time>2017-10-22T08:58:21.000Z</time>
      </trkpt>
      <trkpt lat="47.47962" lon="6.66258">
        <ele>478.2</ele>
        <time>2017-10-22T08:58:22.000Z</time>
      </trkpt>
      <trkpt lat="47.47959" lon="6.66253">
        <ele>479.8</ele>
        <time>2017-10-22T08:58:24.000Z</time>
      </trkpt>
      <trkpt lat="47.4796" lon="6.6625">
        <ele>479.7</ele>
        <time>2017-10-22T08:58:25.000Z</time>
      </trkpt>
      <trkpt lat="47.47962" lon="6.66247">
        <ele>479.7</ele>
        <time>2017-10-22T08:58:26.000Z</time>
      </trkpt>
      <trkpt lat="47.47966" lon="6.66243">
        <ele>479.8</ele>
        <time>2017-10-22T08:58:27.000Z</time>
      </trkpt>
      <trkpt lat="47.47969" lon="6.6624">
        <ele>480</ele>
        <time>2017-10-22T08:58:28.000Z</time>
      </trkpt>
      <trkpt lat="47.47972" lon="6.66236">
        <ele>480.1</ele>
        <time>2017-10-22T08:58:29.000Z</time>
      </trkpt>
      <trkpt lat="47.47976" lon="6.6623">
        <ele>480.2</ele>
        <time>2017-10-22T08:58:30.000Z</time>
      </trkpt>
      <trkpt lat="47.47979" lon="6.66226">
        <ele>480.5</ele>
        <time>2017-10-22T08:58:31.000Z</time>
      </trkpt>
      <trkpt lat="47.47984" lon="6.66222">
        <ele>480.8</ele>
        <time>2017-10-22T08:58:32.000Z</time>
      </trkpt>
      <trkpt lat="47.4799" lon="6.6622">
        <ele>481.2</ele>
        <time>2017-10-22T08:58:33.000Z</time>
      </trkpt>
      <trkpt lat="47.47993" lon="6.66215">
        <ele>481.4</ele>
        <time>2017-10-22T08:58:34.000Z</time>
      </trkpt>
      <trkpt lat="47.47995" lon="6.66209">
        <ele>481.6</ele>
        <time>2017-10-22T08:58:35.000Z</time>
      </trkpt>
      <trkpt lat="47.47996" lon="6.66207">
        <ele>481.9</ele>
        <time>2017-10-22T08:58:36.000Z</time>
      </trkpt>
      <trkpt lat="47.48001" lon="6.66204">
        <ele>482.2</ele>
        <time>2017-10-22T08:58:37.000Z</time>
      </trkpt>
      <trkpt lat="47.48002" lon="6.66202">
        <ele>482.5</ele>
        <time>2017-10-22T08:58:38.000Z</time>
      </trkpt>
      <trkpt lat="47.48001" lon="6.66197">
        <ele>482.5</ele>
        <time>2017-10-22T08:58:39.000Z</time>
      </trkpt>
      <trkpt lat="47.48001" lon="6.66194">
        <ele>482.5</ele>
        <time>2017-10-22T08:58:40.000Z</time>
      </trkpt>
      <trkpt lat="47.48001" lon="6.6619">
        <ele>482.5</ele>
        <time>2017-10-22T08:58:41.000Z</time>
      </trkpt>
      <trkpt lat="47.48001" lon="6.66188">
        <ele>482.6</ele>
        <time>2017-10-22T08:58:42.000Z</time>
      </trkpt>
      <trkpt lat="47.48" lon="6.66181">
        <ele>482.8</ele>
        <time>2017-10-22T08:58:43.000Z</time>
      </trkpt>
      <trkpt lat="47.48001" lon="6.66175">
        <ele>483</ele>
        <time>2017-10-22T08:58:44.000Z</time>
      </trkpt>
      <trkpt lat="47.48001" lon="6.66168">
        <ele>483.2</ele>
        <time>2017-10-22T08:58:47.000Z</time>
      </trkpt>
      <trkpt lat="47.47999" lon="6.66166">
        <ele>483.3</ele>
        <time>2017-10-22T08:58:48.000Z</time>
      </trkpt>
      <trkpt lat="47.47999" lon="6.66163">
        <ele>483.3</ele>
        <time>2017-10-22T08:58:49.000Z</time>
      </trkpt>
      <trkpt lat="47.47998" lon="6.66159">
        <ele>483.2</ele>
        <time>2017-10-22T08:58:50.000Z</time>
      </trkpt>
      <trkpt lat="47.47999" lon="6.66155">
        <ele>483.2</ele>
        <time>2017-10-22T08:58:51.000Z</time>
      </trkpt>
      <trkpt lat="47.48001" lon="6.66149">
        <ele>483.1</ele>
        <time>2017-10-22T08:58:52.000Z</time>
      </trkpt>
      <trkpt lat="47.48004" lon="6.66144">
        <ele>483.2</ele>
        <time>2017-10-22T08:58:54.000Z</time>
      </trkpt>
      <trkpt lat="47.48005" lon="6.66137">
        <ele>483.2</ele>
        <time>2017-10-22T08:58:55.000Z</time>
      </trkpt>
      <trkpt lat="47.48007" lon="6.66132">
        <ele>483.2</ele>
        <time>2017-10-22T08:58:57.000Z</time>
      </trkpt>
      <trkpt lat="47.48008" lon="6.66129">
        <ele>483.2</ele>
        <time>2017-10-22T08:58:58.000Z</time>
      </trkpt>
      <trkpt lat="47.48007" lon="6.66123">
        <ele>483.3</ele>
        <time>2017-10-22T08:59:00.000Z</time>
      </trkpt>
      <trkpt lat="47.48008" lon="6.66116">
        <ele>483.4</ele>
        <time>2017-10-22T08:59:01.000Z</time>
      </trkpt>
      <trkpt lat="47.48008" lon="6.6611">
        <ele>483.4</ele>
        <time>2017-10-22T08:59:02.000Z</time>
      </trkpt>
      <trkpt lat="47.48009" lon="6.66102">
        <ele>483.3</ele>
        <time>2017-10-22T08:59:03.000Z</time>
      </trkpt>
      <trkpt lat="47.48009" lon="6.66096">
        <ele>483.4</ele>
        <time>2017-10-22T08:59:04.000Z</time>
      </trkpt>
      <trkpt lat="47.4801" lon="6.66091">
        <ele>483.4</ele>
        <time>2017-10-22T08:59:05.000Z</time>
      </trkpt>
      <trkpt lat="47.48012" lon="6.66088">
        <ele>483.4</ele>
        <time>2017-10-22T08:59:06.000Z</time>
      </trkpt>
      <trkpt lat="47.48014" lon="6.66083">
        <ele>483.3</ele>
        <time>2017-10-22T08:59:07.000Z</time>
      </trkpt>
      <trkpt lat="47.48015" lon="6.66081">
        <ele>483.3</ele>
        <time>2017-10-22T08:59:08.000Z</time>
      </trkpt>
      <trkpt lat="47.48015" lon="6.66076">
        <ele>483.2</ele>
        <time>2017-10-22T08:59:09.000Z</time>
      </trkpt>
      <trkpt lat="47.48015" lon="6.66071">
        <ele>483.2</ele>
        <time>2017-10-22T08:59:11.000Z</time>
      </trkpt>
      <trkpt lat="47.48017" lon="6.66065">
        <ele>483.1</ele>
        <time>2017-10-22T08:59:12.000Z</time>
      </trkpt>
      <trkpt lat="47.48018" lon="6.66062">
        <ele>482.7</ele>
        <time>2017-10-22T08:59:14.000Z</time>
      </trkpt>
      <trkpt lat="47.4802" lon="6.66057">
        <ele>482.4</ele>
        <time>2017-10-22T08:59:15.000Z</time>
      </trkpt>
      <trkpt lat="47.48022" lon="6.66053">
        <ele>482.1</ele>
        <time>2017-10-22T08:59:17.000Z</time>
      </trkpt>
      <trkpt lat="47.48023" lon="6.66047">
        <ele>481.9</ele>
        <time>2017-10-22T08:59:18.000Z</time>
      </trkpt>
      <trkpt lat="47.48024" lon="6.6604">
        <ele>481.8</ele>
        <time>2017-10-22T08:59:19.000Z</time>
      </trkpt>
      <trkpt lat="47.48026" lon="6.66036">
        <ele>481.6</ele>
        <time>2017-10-22T08:59:22.000Z</time>
      </trkpt>
      <trkpt lat="47.4803" lon="6.66035">
        <ele>481.6</ele>
        <time>2017-10-22T08:59:23.000Z</time>
      </trkpt>
      <trkpt lat="47.48033" lon="6.66031">
        <ele>481.6</ele>
        <time>2017-10-22T08:59:25.000Z</time>
      </trkpt>
      <trkpt lat="47.48035" lon="6.66028">
        <ele>481.6</ele>
        <time>2017-10-22T08:59:26.000Z</time>
      </trkpt>
      <trkpt lat="47.48037" lon="6.66025">
        <ele>481.8</ele>
        <time>2017-10-22T08:59:27.000Z</time>
      </trkpt>
      <trkpt lat="47.4804" lon="6.66018">
        <ele>482</ele>
        <time>2017-10-22T08:59:28.000Z</time>
      </trkpt>
      <trkpt lat="47.48043" lon="6.66012">
        <ele>482.1</ele>
        <time>2017-10-22T08:59:29.000Z</time>
      </trkpt>
      <trkpt lat="47.48045" lon="6.66008">
        <ele>482.2</ele>
        <time>2017-10-22T08:59:30.000Z</time>
      </trkpt>
      <trkpt lat="47.48048" lon="6.66006">
        <ele>482.3</ele>
        <time>2017-10-22T08:59:31.000Z</time>
      </trkpt>
      <trkpt lat="47.48052" lon="6.66004">
        <ele>482.4</ele>
        <time>2017-10-22T08:59:33.000Z</time>
      </trkpt>
      <trkpt lat="47.48055" lon="6.66">
        <ele>482.4</ele>
        <time>2017-10-22T08:59:34.000Z</time>
      </trkpt>
      <trkpt lat="47.48056" lon="6.65997">
        <ele>482.1</ele>
        <time>2017-10-22T08:59:35.000Z</time>
      </trkpt>
      <trkpt lat="47.48057" lon="6.65989">
        <ele>481.9</ele>
        <time>2017-10-22T08:59:36.000Z</time>
      </trkpt>
      <trkpt lat="47.48058" lon="6.65986">
        <ele>481.8</ele>
        <time>2017-10-22T08:59:37.000Z</time>
      </trkpt>
      <trkpt lat="47.4806" lon="6.65979">
        <ele>481.6</ele>
        <time>2017-10-22T08:59:38.000Z</time>
      </trkpt>
      <trkpt lat="47.4806" lon="6.65974">
        <ele>481.5</ele>
        <time>2017-10-22T08:59:40.000Z</time>
      </trkpt>
      <trkpt lat="47.48062" lon="6.65968">
        <ele>481.4</ele>
        <time>2017-10-22T08:59:41.000Z</time>
      </trkpt>
      <trkpt lat="47.48063" lon="6.65964">
        <ele>481.6</ele>
        <time>2017-10-22T08:59:43.000Z</time>
      </trkpt>
      <trkpt lat="47.48063" lon="6.6596">
        <ele>481.7</ele>
        <time>2017-10-22T08:59:44.000Z</time>
      </trkpt>
      <trkpt lat="47.48065" lon="6.65955">
        <ele>481.9</ele>
        <time>2017-10-22T08:59:47.000Z</time>
      </trkpt>
      <trkpt lat="47.48066" lon="6.65951">
        <ele>482</ele>
        <time>2017-10-22T08:59:48.000Z</time>
      </trkpt>
      <trkpt lat="47.48068" lon="6.65945">
        <ele>482</ele>
        <time>2017-10-22T08:59:49.000Z</time>
      </trkpt>
      <trkpt lat="47.48071" lon="6.65937">
        <ele>482.1</ele>
        <time>2017-10-22T08:59:50.000Z</time>
      </trkpt>
      <trkpt lat="47.48073" lon="6.65931">
        <ele>482.3</ele>
        <time>2017-10-22T08:59:51.000Z</time>
      </trkpt>
      <trkpt lat="47.48074" lon="6.65929">
        <ele>482.4</ele>
        <time>2017-10-22T08:59:52.000Z</time>
      </trkpt>
      <trkpt lat="47.48076" lon="6.65926">
        <ele>482.6</ele>
        <time>2017-10-22T08:59:53.000Z</time>
      </trkpt>
      <trkpt lat="47.48078" lon="6.65921">
        <ele>483.4</ele>
        <time>2017-10-22T08:59:57.000Z</time>
      </trkpt>
      <trkpt lat="47.48081" lon="6.65921">
        <ele>483.6</ele>
        <time>2017-10-22T08:59:58.000Z</time>
      </trkpt>
      <trkpt lat="47.48083" lon="6.6592">
        <ele>483.8</ele>
        <time>2017-10-22T08:59:59.000Z</time>
      </trkpt>
      <trkpt lat="47.48085" lon="6.65918">
        <ele>484</ele>
        <time>2017-10-22T09:00:00.000Z</time>
      </trkpt>
      <trkpt lat="47.48088" lon="6.65915">
        <ele>484.2</ele>
        <time>2017-10-22T09:00:01.000Z</time>
      </trkpt>
      <trkpt lat="47.48092" lon="6.65914">
        <ele>484.4</ele>
        <time>2017-10-22T09:00:02.000Z</time>
      </trkpt>
      <trkpt lat="47.48097" lon="6.65912">
        <ele>484.5</ele>
        <time>2017-10-22T09:00:03.000Z</time>
      </trkpt>
      <trkpt lat="47.48101" lon="6.65911">
        <ele>484.7</ele>
        <time>2017-10-22T09:00:05.000Z</time>
      </trkpt>
      <trkpt lat="47.48106" lon="6.6591">
        <ele>485</ele>
        <time>2017-10-22T09:00:06.000Z</time>
      </trkpt>
      <trkpt lat="47.48109" lon="6.6591">
        <ele>485.2</ele>
        <time>2017-10-22T09:00:07.000Z</time>
      </trkpt>
      <trkpt lat="47.48112" lon="6.6591">
        <ele>485.4</ele>
        <time>2017-10-22T09:00:08.000Z</time>
      </trkpt>
      <trkpt lat="47.48114" lon="6.65911">
        <ele>485.3</ele>
        <time>2017-10-22T09:00:09.000Z</time>
      </trkpt>
      <trkpt lat="47.48118" lon="6.65908">
        <ele>485.3</ele>
        <time>2017-10-22T09:00:10.000Z</time>
      </trkpt>
      <trkpt lat="47.48122" lon="6.65907">
        <ele>485.3</ele>
        <time>2017-10-22T09:00:11.000Z</time>
      </trkpt>
      <trkpt lat="47.48127" lon="6.65905">
        <ele>485.5</ele>
        <time>2017-10-22T09:00:12.000Z</time>
      </trkpt>
      <trkpt lat="47.48132" lon="6.65902">
        <ele>485.6</ele>
        <time>2017-10-22T09:00:13.000Z</time>
      </trkpt>
      <trkpt lat="47.48137" lon="6.659">
        <ele>485.6</ele>
        <time>2017-10-22T09:00:14.000Z</time>
      </trkpt>
      <trkpt lat="47.48142" lon="6.65896">
        <ele>485.6</ele>
        <time>2017-10-22T09:00:15.000Z</time>
      </trkpt>
      <trkpt lat="47.48145" lon="6.65894">
        <ele>485.7</ele>
        <time>2017-10-22T09:00:16.000Z</time>
      </trkpt>
      <trkpt lat="47.48148" lon="6.65892">
        <ele>485.7</ele>
        <time>2017-10-22T09:00:17.000Z</time>
      </trkpt>
      <trkpt lat="47.48152" lon="6.65891">
        <ele>486.3</ele>
        <time>2017-10-22T09:00:21.000Z</time>
      </trkpt>
      <trkpt lat="47.48156" lon="6.65891">
        <ele>486.6</ele>
        <time>2017-10-22T09:00:22.000Z</time>
      </trkpt>
      <trkpt lat="47.48158" lon="6.65887">
        <ele>487.3</ele>
        <time>2017-10-22T09:00:24.000Z</time>
      </trkpt>
      <trkpt lat="47.4816" lon="6.65879">
        <ele>487.6</ele>
        <time>2017-10-22T09:00:25.000Z</time>
      </trkpt>
      <trkpt lat="47.48163" lon="6.65872">
        <ele>487.9</ele>
        <time>2017-10-22T09:00:26.000Z</time>
      </trkpt>
      <trkpt lat="47.48167" lon="6.65865">
        <ele>488.1</ele>
        <time>2017-10-22T09:00:27.000Z</time>
      </trkpt>
      <trkpt lat="47.48171" lon="6.65859">
        <ele>488.3</ele>
        <time>2017-10-22T09:00:28.000Z</time>
      </trkpt>
      <trkpt lat="47.48172" lon="6.65855">
        <ele>488.6</ele>
        <time>2017-10-22T09:00:30.000Z</time>
      </trkpt>
      <trkpt lat="47.48172" lon="6.65849">
        <ele>488.9</ele>
        <time>2017-10-22T09:00:31.000Z</time>
      </trkpt>
      <trkpt lat="47.48171" lon="6.65845">
        <ele>489.1</ele>
        <time>2017-10-22T09:00:33.000Z</time>
      </trkpt>
      <trkpt lat="47.48172" lon="6.65842">
        <ele>489.2</ele>
        <time>2017-10-22T09:00:34.000Z</time>
      </trkpt>
      <trkpt lat="47.48175" lon="6.65836">
        <ele>489.7</ele>
        <time>2017-10-22T09:00:36.000Z</time>
      </trkpt>
      <trkpt lat="47.48175" lon="6.65832">
        <ele>489.9</ele>
        <time>2017-10-22T09:00:37.000Z</time>
      </trkpt>
      <trkpt lat="47.48175" lon="6.65828">
        <ele>490</ele>
        <time>2017-10-22T09:00:38.000Z</time>
      </trkpt>
      <trkpt lat="47.48175" lon="6.65824">
        <ele>490.1</ele>
        <time>2017-10-22T09:00:39.000Z</time>
      </trkpt>
      <trkpt lat="47.48175" lon="6.65816">
        <ele>490.1</ele>
        <time>2017-10-22T09:00:40.000Z</time>
      </trkpt>
      <trkpt lat="47.48175" lon="6.65812">
        <ele>490.3</ele>
        <time>2017-10-22T09:00:41.000Z</time>
      </trkpt>
      <trkpt lat="47.48178" lon="6.65809">
        <ele>490.5</ele>
        <time>2017-10-22T09:00:42.000Z</time>
      </trkpt>
      <trkpt lat="47.4818" lon="6.65806">
        <ele>490.7</ele>
        <time>2017-10-22T09:00:43.000Z</time>
      </trkpt>
      <trkpt lat="47.48181" lon="6.65803">
        <ele>490.9</ele>
        <time>2017-10-22T09:00:44.000Z</time>
      </trkpt>
      <trkpt lat="47.48181" lon="6.65788">
        <ele>491.4</ele>
        <time>2017-10-22T09:00:46.000Z</time>
      </trkpt>
      <trkpt lat="47.48182" lon="6.65785">
        <ele>491.7</ele>
        <time>2017-10-22T09:00:47.000Z</time>
      </trkpt>
      <trkpt lat="47.48183" lon="6.65781">
        <ele>491.8</ele>
        <time>2017-10-22T09:00:48.000Z</time>
      </trkpt>
      <trkpt lat="47.48185" lon="6.65777">
        <ele>492</ele>
        <time>2017-10-22T09:00:49.000Z</time>
      </trkpt>
      <trkpt lat="47.48187" lon="6.65773">
        <ele>492.1</ele>
        <time>2017-10-22T09:00:50.000Z</time>
      </trkpt>
      <trkpt lat="47.48191" lon="6.65768">
        <ele>492.1</ele>
        <time>2017-10-22T09:00:51.000Z</time>
      </trkpt>
      <trkpt lat="47.48194" lon="6.65763">
        <ele>492.1</ele>
        <time>2017-10-22T09:00:52.000Z</time>
      </trkpt>
      <trkpt lat="47.48195" lon="6.6576">
        <ele>492.2</ele>
        <time>2017-10-22T09:00:53.000Z</time>
      </trkpt>
      <trkpt lat="47.48197" lon="6.65757">
        <ele>492.2</ele>
        <time>2017-10-22T09:00:54.000Z</time>
      </trkpt>
      <trkpt lat="47.48202" lon="6.65752">
        <ele>492.3</ele>
        <time>2017-10-22T09:00:55.000Z</time>
      </trkpt>
      <trkpt lat="47.48205" lon="6.6575">
        <ele>492.5</ele>
        <time>2017-10-22T09:00:56.000Z</time>
      </trkpt>
      <trkpt lat="47.48209" lon="6.65745">
        <ele>492.5</ele>
        <time>2017-10-22T09:00:57.000Z</time>
      </trkpt>
      <trkpt lat="47.48213" lon="6.6574">
        <ele>492.6</ele>
        <time>2017-10-22T09:00:58.000Z</time>
      </trkpt>
      <trkpt lat="47.48214" lon="6.65734">
        <ele>492.7</ele>
        <time>2017-10-22T09:01:01.000Z</time>
      </trkpt>
      <trkpt lat="47.48215" lon="6.65732">
        <ele>492.9</ele>
        <time>2017-10-22T09:01:02.000Z</time>
      </trkpt>
      <trkpt lat="47.48217" lon="6.65726">
        <ele>493.3</ele>
        <time>2017-10-22T09:01:04.000Z</time>
      </trkpt>
      <trkpt lat="47.48219" lon="6.65723">
        <ele>493.5</ele>
        <time>2017-10-22T09:01:05.000Z</time>
      </trkpt>
      <trkpt lat="47.48221" lon="6.6572">
        <ele>493.7</ele>
        <time>2017-10-22T09:01:06.000Z</time>
      </trkpt>
      <trkpt lat="47.48224" lon="6.65715">
        <ele>493.7</ele>
        <time>2017-10-22T09:01:07.000Z</time>
      </trkpt>
      <trkpt lat="47.48226" lon="6.65713">
        <ele>493.8</ele>
        <time>2017-10-22T09:01:08.000Z</time>
      </trkpt>
      <trkpt lat="47.48228" lon="6.65711">
        <ele>493.8</ele>
        <time>2017-10-22T09:01:09.000Z</time>
      </trkpt>
      <trkpt lat="47.48232" lon="6.65707">
        <ele>493.8</ele>
        <time>2017-10-22T09:01:11.000Z</time>
      </trkpt>
      <trkpt lat="47.48234" lon="6.65704">
        <ele>493.8</ele>
        <time>2017-10-22T09:01:12.000Z</time>
      </trkpt>
      <trkpt lat="47.48236" lon="6.65702">
        <ele>493.8</ele>
        <time>2017-10-22T09:01:13.000Z</time>
      </trkpt>
      <trkpt lat="47.48238" lon="6.65699">
        <ele>493.9</ele>
        <time>2017-10-22T09:01:14.000Z</time>
      </trkpt>
      <trkpt lat="47.48243" lon="6.65696">
        <ele>494</ele>
        <time>2017-10-22T09:01:15.000Z</time>
      </trkpt>
      <trkpt lat="47.48245" lon="6.65693">
        <ele>494.2</ele>
        <time>2017-10-22T09:01:16.000Z</time>
      </trkpt>
      <trkpt lat="47.48247" lon="6.6569">
        <ele>494.3</ele>
        <time>2017-10-22T09:01:17.000Z</time>
      </trkpt>
      <trkpt lat="47.4825" lon="6.65686">
        <ele>494.5</ele>
        <time>2017-10-22T09:01:18.000Z</time>
      </trkpt>
      <trkpt lat="47.4825" lon="6.65682">
        <ele>494.8</ele>
        <time>2017-10-22T09:01:19.000Z</time>
      </trkpt>
      <trkpt lat="47.4825" lon="6.65678">
        <ele>495</ele>
        <time>2017-10-22T09:01:20.000Z</time>
      </trkpt>
      <trkpt lat="47.48252" lon="6.65672">
        <ele>495.2</ele>
        <time>2017-10-22T09:01:21.000Z</time>
      </trkpt>
      <trkpt lat="47.48253" lon="6.65668">
        <ele>495.5</ele>
        <time>2017-10-22T09:01:22.000Z</time>
      </trkpt>
      <trkpt lat="47.48254" lon="6.65665">
        <ele>495.7</ele>
        <time>2017-10-22T09:01:23.000Z</time>
      </trkpt>
      <trkpt lat="47.48254" lon="6.6566">
        <ele>496.4</ele>
        <time>2017-10-22T09:01:37.000Z</time>
      </trkpt>
      <trkpt lat="47.48254" lon="6.65658">
        <ele>496.5</ele>
        <time>2017-10-22T09:01:38.000Z</time>
      </trkpt>
      <trkpt lat="47.48258" lon="6.65656">
        <ele>496.5</ele>
        <time>2017-10-22T09:01:39.000Z</time>
      </trkpt>
      <trkpt lat="47.48261" lon="6.65654">
        <ele>496.5</ele>
        <time>2017-10-22T09:01:40.000Z</time>
      </trkpt>
      <trkpt lat="47.48263" lon="6.6565">
        <ele>498.6</ele>
        <time>2017-10-22T09:02:10.000Z</time>
      </trkpt>
      <trkpt lat="47.48264" lon="6.65649">
        <ele>499</ele>
        <time>2017-10-22T09:02:11.000Z</time>
      </trkpt>
      <trkpt lat="47.48265" lon="6.65645">
        <ele>504.3</ele>
        <time>2017-10-22T09:02:55.000Z</time>
      </trkpt>
      <trkpt lat="47.48265" lon="6.65642">
        <ele>504.7</ele>
        <time>2017-10-22T09:02:56.000Z</time>
      </trkpt>
      <trkpt lat="47.48269" lon="6.6564">
        <ele>505.5</ele>
        <time>2017-10-22T09:02:58.000Z</time>
      </trkpt>
      <trkpt lat="47.4827" lon="6.65641">
        <ele>506.1</ele>
        <time>2017-10-22T09:02:59.000Z</time>
      </trkpt>
      <trkpt lat="47.48272" lon="6.65643">
        <ele>507.6</ele>
        <time>2017-10-22T09:03:03.000Z</time>
      </trkpt>
      <trkpt lat="47.48274" lon="6.65646">
        <ele>508.1</ele>
        <time>2017-10-22T09:03:04.000Z</time>
      </trkpt>
      <trkpt lat="47.48277" lon="6.65648">
        <ele>508.6</ele>
        <time>2017-10-22T09:03:05.000Z</time>
      </trkpt>
      <trkpt lat="47.4828" lon="6.6565">
        <ele>508.9</ele>
        <time>2017-10-22T09:03:06.000Z</time>
      </trkpt>
      <trkpt lat="47.48282" lon="6.65654">
        <ele>509.3</ele>
        <time>2017-10-22T09:03:07.000Z</time>
      </trkpt>
      <trkpt lat="47.48286" lon="6.65656">
        <ele>509.6</ele>
        <time>2017-10-22T09:03:08.000Z</time>
      </trkpt>
      <trkpt lat="47.48288" lon="6.65658">
        <ele>509.9</ele>
        <time>2017-10-22T09:03:09.000Z</time>
      </trkpt>
      <trkpt lat="47.48293" lon="6.65661">
        <ele>510.1</ele>
        <time>2017-10-22T09:03:10.000Z</time>
      </trkpt>
      <trkpt lat="47.48297" lon="6.65664">
        <ele>510.4</ele>
        <time>2017-10-22T09:03:11.000Z</time>
      </trkpt>
      <trkpt lat="47.483" lon="6.65665">
        <ele>510.6</ele>
        <time>2017-10-22T09:03:12.000Z</time>
      </trkpt>
      <trkpt lat="47.48303" lon="6.65669">
        <ele>510.6</ele>
        <time>2017-10-22T09:03:13.000Z</time>
      </trkpt>
      <trkpt lat="47.4831" lon="6.6567">
        <ele>510.4</ele>
        <time>2017-10-22T09:03:14.000Z</time>
      </trkpt>
      <trkpt lat="47.48316" lon="6.65674">
        <ele>510.3</ele>
        <time>2017-10-22T09:03:15.000Z</time>
      </trkpt>
      <trkpt lat="47.48322" lon="6.65678">
        <ele>510.3</ele>
        <time>2017-10-22T09:03:16.000Z</time>
      </trkpt>
      <trkpt lat="47.48328" lon="6.65683">
        <ele>510.2</ele>
        <time>2017-10-22T09:03:17.000Z</time>
      </trkpt>
      <trkpt lat="47.48334" lon="6.65689">
        <ele>510.2</ele>
        <time>2017-10-22T09:03:18.000Z</time>
      </trkpt>
      <trkpt lat="47.48337" lon="6.65692">
        <ele>510</ele>
        <time>2017-10-22T09:03:19.000Z</time>
      </trkpt>
      <trkpt lat="47.48338" lon="6.65694">
        <ele>509.9</ele>
        <time>2017-10-22T09:03:20.000Z</time>
      </trkpt>
      <trkpt lat="47.4834" lon="6.65694">
        <ele>509.8</ele>
        <time>2017-10-22T09:03:21.000Z</time>
      </trkpt>
      <trkpt lat="47.48344" lon="6.65692">
        <ele>509.6</ele>
        <time>2017-10-22T09:03:22.000Z</time>
      </trkpt>
      <trkpt lat="47.48346" lon="6.6569">
        <ele>509.1</ele>
        <time>2017-10-22T09:03:25.000Z</time>
      </trkpt>
      <trkpt lat="47.48346" lon="6.65683">
        <ele>508.8</ele>
        <time>2017-10-22T09:03:26.000Z</time>
      </trkpt>
      <trkpt lat="47.48345" lon="6.65674">
        <ele>508.5</ele>
        <time>2017-10-22T09:03:27.000Z</time>
      </trkpt>
      <trkpt lat="47.48346" lon="6.6567">
        <ele>508.4</ele>
        <time>2017-10-22T09:03:28.000Z</time>
      </trkpt>
      <trkpt lat="47.48349" lon="6.65665">
        <ele>508.1</ele>
        <time>2017-10-22T09:03:29.000Z</time>
      </trkpt>
      <trkpt lat="47.48353" lon="6.65659">
        <ele>507.7</ele>
        <time>2017-10-22T09:03:30.000Z</time>
      </trkpt>
      <trkpt lat="47.48356" lon="6.65655">
        <ele>507.3</ele>
        <time>2017-10-22T09:03:31.000Z</time>
      </trkpt>
      <trkpt lat="47.4836" lon="6.65652">
        <ele>503.7</ele>
        <time>2017-10-22T09:03:32.000Z</time>
      </trkpt>
      <trkpt lat="47.48363" lon="6.65648">
        <ele>500.7</ele>
        <time>2017-10-22T09:03:33.000Z</time>
      </trkpt>
      <trkpt lat="47.48366" lon="6.65645">
        <ele>498.1</ele>
        <time>2017-10-22T09:03:34.000Z</time>
      </trkpt>
      <trkpt lat="47.48369" lon="6.65641">
        <ele>495.6</ele>
        <time>2017-10-22T09:03:35.000Z</time>
      </trkpt>
      <trkpt lat="47.48372" lon="6.65638">
        <ele>493.7</ele>
        <time>2017-10-22T09:03:36.000Z</time>
      </trkpt>
      <trkpt lat="47.48377" lon="6.65635">
        <ele>491.4</ele>
        <time>2017-10-22T09:03:37.000Z</time>
      </trkpt>
      <trkpt lat="47.48385" lon="6.65634">
        <ele>488.9</ele>
        <time>2017-10-22T09:03:38.000Z</time>
      </trkpt>
      <trkpt lat="47.48391" lon="6.65636">
        <ele>488.7</ele>
        <time>2017-10-22T09:03:39.000Z</time>
      </trkpt>
      <trkpt lat="47.48397" lon="6.65641">
        <ele>488.4</ele>
        <time>2017-10-22T09:03:40.000Z</time>
      </trkpt>
      <trkpt lat="47.48402" lon="6.65643">
        <ele>484.6</ele>
        <time>2017-10-22T09:03:41.000Z</time>
      </trkpt>
      <trkpt lat="47.48406" lon="6.65643">
        <ele>484.1</ele>
        <time>2017-10-22T09:03:42.000Z</time>
      </trkpt>
      <trkpt lat="47.48413" lon="6.65647">
        <ele>483.6</ele>
        <time>2017-10-22T09:03:43.000Z</time>
      </trkpt>
      <trkpt lat="47.48417" lon="6.65657">
        <ele>478.7</ele>
        <time>2017-10-22T09:03:44.000Z</time>
      </trkpt>
      <trkpt lat="47.4842" lon="6.65669">
        <ele>474.7</ele>
        <time>2017-10-22T09:03:45.000Z</time>
      </trkpt>
      <trkpt lat="47.48423" lon="6.65681">
        <ele>472</ele>
        <time>2017-10-22T09:03:46.000Z</time>
      </trkpt>
      <trkpt lat="47.48432" lon="6.65686">
        <ele>469.1</ele>
        <time>2017-10-22T09:03:47.000Z</time>
      </trkpt>
      <trkpt lat="47.48439" lon="6.65686">
        <ele>466.4</ele>
        <time>2017-10-22T09:03:48.000Z</time>
      </trkpt>
      <trkpt lat="47.48446" lon="6.65684">
        <ele>463.5</ele>
        <time>2017-10-22T09:03:49.000Z</time>
      </trkpt>
      <trkpt lat="47.48454" lon="6.65683">
        <ele>462.3</ele>
        <time>2017-10-22T09:03:50.000Z</time>
      </trkpt>
      <trkpt lat="47.48461" lon="6.65687">
        <ele>463</ele>
        <time>2017-10-22T09:03:51.000Z</time>
      </trkpt>
      <trkpt lat="47.48469" lon="6.65691">
        <ele>463.6</ele>
        <time>2017-10-22T09:03:52.000Z</time>
      </trkpt>
      <trkpt lat="47.48476" lon="6.65695">
        <ele>463.8</ele>
        <time>2017-10-22T09:03:53.000Z</time>
      </trkpt>
      <trkpt lat="47.48484" lon="6.65695">
        <ele>462.6</ele>
        <time>2017-10-22T09:03:54.000Z</time>
      </trkpt>
      <trkpt lat="47.48492" lon="6.65696">
        <ele>460.5</ele>
        <time>2017-10-22T09:03:55.000Z</time>
      </trkpt>
      <trkpt lat="47.48498" lon="6.65702">
        <ele>459.2</ele>
        <time>2017-10-22T09:03:56.000Z</time>
      </trkpt>
      <trkpt lat="47.48503" lon="6.65707">
        <ele>458.1</ele>
        <time>2017-10-22T09:03:57.000Z</time>
      </trkpt>
      <trkpt lat="47.48509" lon="6.6571">
        <ele>456.9</ele>
        <time>2017-10-22T09:03:58.000Z</time>
      </trkpt>
      <trkpt lat="47.48517" lon="6.65711">
        <ele>455.3</ele>
        <time>2017-10-22T09:03:59.000Z</time>
      </trkpt>
      <trkpt lat="47.48521" lon="6.65713">
        <ele>455.1</ele>
        <time>2017-10-22T09:04:00.000Z</time>
      </trkpt>
      <trkpt lat="47.48525" lon="6.65716">
        <ele>453</ele>
        <time>2017-10-22T09:04:01.000Z</time>
      </trkpt>
      <trkpt lat="47.48527" lon="6.65717">
        <ele>452.9</ele>
        <time>2017-10-22T09:04:02.000Z</time>
      </trkpt>
      <trkpt lat="47.4853" lon="6.65718">
        <ele>452.8</ele>
        <time>2017-10-22T09:04:03.000Z</time>
      </trkpt>
      <trkpt lat="47.48535" lon="6.65719">
        <ele>452.8</ele>
        <time>2017-10-22T09:04:04.000Z</time>
      </trkpt>
      <trkpt lat="47.48537" lon="6.65723">
        <ele>453.1</ele>
        <time>2017-10-22T09:04:07.000Z</time>
      </trkpt>
      <trkpt lat="47.48539" lon="6.65725">
        <ele>453</ele>
        <time>2017-10-22T09:04:08.000Z</time>
      </trkpt>
      <trkpt lat="47.48541" lon="6.65726">
        <ele>452.9</ele>
        <time>2017-10-22T09:04:09.000Z</time>
      </trkpt>
      <trkpt lat="47.48543" lon="6.65729">
        <ele>452.8</ele>
        <time>2017-10-22T09:04:10.000Z</time>
      </trkpt>
      <trkpt lat="47.48546" lon="6.65731">
        <ele>452.9</ele>
        <time>2017-10-22T09:04:11.000Z</time>
      </trkpt>
      <trkpt lat="47.48549" lon="6.65733">
        <ele>453</ele>
        <time>2017-10-22T09:04:12.000Z</time>
      </trkpt>
      <trkpt lat="47.48552" lon="6.65737">
        <ele>453.1</ele>
        <time>2017-10-22T09:04:14.000Z</time>
      </trkpt>
      <trkpt lat="47.48554" lon="6.65738">
        <ele>453.2</ele>
        <time>2017-10-22T09:04:15.000Z</time>
      </trkpt>
      <trkpt lat="47.48556" lon="6.6574">
        <ele>453.3</ele>
        <time>2017-10-22T09:04:16.000Z</time>
      </trkpt>
      <trkpt lat="47.48558" lon="6.65742">
        <ele>453.4</ele>
        <time>2017-10-22T09:04:17.000Z</time>
      </trkpt>
      <trkpt lat="47.48561" lon="6.65745">
        <ele>453.7</ele>
        <time>2017-10-22T09:04:20.000Z</time>
      </trkpt>
      <trkpt lat="47.48563" lon="6.65746">
        <ele>453.8</ele>
        <time>2017-10-22T09:04:21.000Z</time>
      </trkpt>
      <trkpt lat="47.48566" lon="6.6575">
        <ele>454.2</ele>
        <time>2017-10-22T09:04:24.000Z</time>
      </trkpt>
      <trkpt lat="47.48567" lon="6.6575">
        <ele>454.4</ele>
        <time>2017-10-22T09:04:25.000Z</time>
      </trkpt>
      <trkpt lat="47.4857" lon="6.65751">
        <ele>454.7</ele>
        <time>2017-10-22T09:04:26.000Z</time>
      </trkpt>
      <trkpt lat="47.48573" lon="6.65755">
        <ele>455</ele>
        <time>2017-10-22T09:04:27.000Z</time>
      </trkpt>
      <trkpt lat="47.48574" lon="6.65757">
        <ele>455.2</ele>
        <time>2017-10-22T09:04:28.000Z</time>
      </trkpt>
      <trkpt lat="47.48577" lon="6.6576">
        <ele>455.2</ele>
        <time>2017-10-22T09:04:29.000Z</time>
      </trkpt>
      <trkpt lat="47.4858" lon="6.65762">
        <ele>455.2</ele>
        <time>2017-10-22T09:04:30.000Z</time>
      </trkpt>
      <trkpt lat="47.48583" lon="6.65764">
        <ele>455.3</ele>
        <time>2017-10-22T09:04:31.000Z</time>
      </trkpt>
      <trkpt lat="47.48586" lon="6.65767">
        <ele>455.4</ele>
        <time>2017-10-22T09:04:33.000Z</time>
      </trkpt>
      <trkpt lat="47.48587" lon="6.65769">
        <ele>455.5</ele>
        <time>2017-10-22T09:04:34.000Z</time>
      </trkpt>
      <trkpt lat="47.48589" lon="6.65771">
        <ele>455.7</ele>
        <time>2017-10-22T09:04:35.000Z</time>
      </trkpt>
      <trkpt lat="47.48591" lon="6.65774">
        <ele>455.9</ele>
        <time>2017-10-22T09:04:36.000Z</time>
      </trkpt>
      <trkpt lat="47.48593" lon="6.65778">
        <ele>456</ele>
        <time>2017-10-22T09:04:37.000Z</time>
      </trkpt>
      <trkpt lat="47.48596" lon="6.65783">
        <ele>456.1</ele>
        <time>2017-10-22T09:04:38.000Z</time>
      </trkpt>
      <trkpt lat="47.48599" lon="6.65787">
        <ele>456.2</ele>
        <time>2017-10-22T09:04:39.000Z</time>
      </trkpt>
      <trkpt lat="47.486" lon="6.65789">
        <ele>456.2</ele>
        <time>2017-10-22T09:04:40.000Z</time>
      </trkpt>
      <trkpt lat="47.48603" lon="6.65793">
        <ele>456.5</ele>
        <time>2017-10-22T09:04:42.000Z</time>
      </trkpt>
      <trkpt lat="47.48605" lon="6.65796">
        <ele>456.6</ele>
        <time>2017-10-22T09:04:43.000Z</time>
      </trkpt>
      <trkpt lat="47.48608" lon="6.65799">
        <ele>456.8</ele>
        <time>2017-10-22T09:04:44.000Z</time>
      </trkpt>
      <trkpt lat="47.48614" lon="6.65806">
        <ele>457.1</ele>
        <time>2017-10-22T09:04:46.000Z</time>
      </trkpt>
      <trkpt lat="47.48616" lon="6.65808">
        <ele>457</ele>
        <time>2017-10-22T09:04:47.000Z</time>
      </trkpt>
      <trkpt lat="47.48618" lon="6.65811">
        <ele>457.1</ele>
        <time>2017-10-22T09:04:48.000Z</time>
      </trkpt>
      <trkpt lat="47.4862" lon="6.65814">
        <ele>457.1</ele>
        <time>2017-10-22T09:04:49.000Z</time>
      </trkpt>
      <trkpt lat="47.48622" lon="6.65817">
        <ele>457.2</ele>
        <time>2017-10-22T09:04:50.000Z</time>
      </trkpt>
      <trkpt lat="47.48624" lon="6.6582">
        <ele>457.3</ele>
        <time>2017-10-22T09:04:51.000Z</time>
      </trkpt>
      <trkpt lat="47.48626" lon="6.65822">
        <ele>457.5</ele>
        <time>2017-10-22T09:04:52.000Z</time>
      </trkpt>
      <trkpt lat="47.48629" lon="6.65825">
        <ele>457.6</ele>
        <time>2017-10-22T09:04:54.000Z</time>
      </trkpt>
      <trkpt lat="47.48631" lon="6.65826">
        <ele>457.7</ele>
        <time>2017-10-22T09:04:55.000Z</time>
      </trkpt>
      <trkpt lat="47.48633" lon="6.6583">
        <ele>458</ele>
        <time>2017-10-22T09:04:58.000Z</time>
      </trkpt>
      <trkpt lat="47.48634" lon="6.6583">
        <ele>458.1</ele>
        <time>2017-10-22T09:04:59.000Z</time>
      </trkpt>
      <trkpt lat="47.48638" lon="6.65832">
        <ele>458.6</ele>
        <time>2017-10-22T09:05:02.000Z</time>
      </trkpt>
      <trkpt lat="47.48639" lon="6.65832">
        <ele>458.8</ele>
        <time>2017-10-22T09:05:03.000Z</time>
      </trkpt>
      <trkpt lat="47.48643" lon="6.65836">
        <ele>459.5</ele>
        <time>2017-10-22T09:05:06.000Z</time>
      </trkpt>
      <trkpt lat="47.48644" lon="6.65838">
        <ele>459.8</ele>
        <time>2017-10-22T09:05:07.000Z</time>
      </trkpt>
      <trkpt lat="47.48646" lon="6.65839">
        <ele>460</ele>
        <time>2017-10-22T09:05:08.000Z</time>
      </trkpt>
      <trkpt lat="47.48649" lon="6.6584">
        <ele>460.3</ele>
        <time>2017-10-22T09:05:09.000Z</time>
      </trkpt>
      <trkpt lat="47.48652" lon="6.65841">
        <ele>460.7</ele>
        <time>2017-10-22T09:05:11.000Z</time>
      </trkpt>
      <trkpt lat="47.48654" lon="6.65841">
        <ele>460.8</ele>
        <time>2017-10-22T09:05:12.000Z</time>
      </trkpt>
      <trkpt lat="47.48656" lon="6.65842">
        <ele>461.1</ele>
        <time>2017-10-22T09:05:13.000Z</time>
      </trkpt>
      <trkpt lat="47.4866" lon="6.65843">
        <ele>461.3</ele>
        <time>2017-10-22T09:05:14.000Z</time>
      </trkpt>
      <trkpt lat="47.48665" lon="6.65844">
        <ele>461.7</ele>
        <time>2017-10-22T09:05:15.000Z</time>
      </trkpt>
      <trkpt lat="47.48671" lon="6.65844">
        <ele>462</ele>
        <time>2017-10-22T09:05:16.000Z</time>
      </trkpt>
      <trkpt lat="47.48673" lon="6.65845">
        <ele>462.4</ele>
        <time>2017-10-22T09:05:17.000Z</time>
      </trkpt>
      <trkpt lat="47.48679" lon="6.65846">
        <ele>462.7</ele>
        <time>2017-10-22T09:05:18.000Z</time>
      </trkpt>
      <trkpt lat="47.48684" lon="6.65848">
        <ele>463</ele>
        <time>2017-10-22T09:05:19.000Z</time>
      </trkpt>
      <trkpt lat="47.48688" lon="6.65851">
        <ele>463.2</ele>
        <time>2017-10-22T09:05:20.000Z</time>
      </trkpt>
      <trkpt lat="47.48692" lon="6.65853">
        <ele>463.3</ele>
        <time>2017-10-22T09:05:21.000Z</time>
      </trkpt>
      <trkpt lat="47.48696" lon="6.65855">
        <ele>463.3</ele>
        <time>2017-10-22T09:05:22.000Z</time>
      </trkpt>
      <trkpt lat="47.487" lon="6.65857">
        <ele>464.3</ele>
        <time>2017-10-22T09:05:23.000Z</time>
      </trkpt>
      <trkpt lat="47.48704" lon="6.65858">
        <ele>464.6</ele>
        <time>2017-10-22T09:05:24.000Z</time>
      </trkpt>
      <trkpt lat="47.48708" lon="6.65859">
        <ele>464.8</ele>
        <time>2017-10-22T09:05:25.000Z</time>
      </trkpt>
      <trkpt lat="47.48712" lon="6.6586">
        <ele>464.6</ele>
        <time>2017-10-22T09:05:26.000Z</time>
      </trkpt>
      <trkpt lat="47.48717" lon="6.65861">
        <ele>464.6</ele>
        <time>2017-10-22T09:05:27.000Z</time>
      </trkpt>
      <trkpt lat="47.48722" lon="6.65863">
        <ele>464</ele>
        <time>2017-10-22T09:05:28.000Z</time>
      </trkpt>
      <trkpt lat="47.48726" lon="6.65865">
        <ele>463.7</ele>
        <time>2017-10-22T09:05:29.000Z</time>
      </trkpt>
      <trkpt lat="47.4873" lon="6.65867">
        <ele>463.6</ele>
        <time>2017-10-22T09:05:30.000Z</time>
      </trkpt>
      <trkpt lat="47.48735" lon="6.65869">
        <ele>463.4</ele>
        <time>2017-10-22T09:05:31.000Z</time>
      </trkpt>
      <trkpt lat="47.4874" lon="6.65871">
        <ele>462.9</ele>
        <time>2017-10-22T09:05:32.000Z</time>
      </trkpt>
      <trkpt lat="47.48743" lon="6.65874">
        <ele>462</ele>
        <time>2017-10-22T09:05:33.000Z</time>
      </trkpt>
      <trkpt lat="47.48747" lon="6.65875">
        <ele>460.6</ele>
        <time>2017-10-22T09:05:34.000Z</time>
      </trkpt>
      <trkpt lat="47.48751" lon="6.65876">
        <ele>460.3</ele>
        <time>2017-10-22T09:05:35.000Z</time>
      </trkpt>
      <trkpt lat="47.48755" lon="6.65878">
        <ele>459.4</ele>
        <time>2017-10-22T09:05:36.000Z</time>
      </trkpt>
      <trkpt lat="47.48758" lon="6.65878">
        <ele>459.4</ele>
        <time>2017-10-22T09:05:37.000Z</time>
      </trkpt>
      <trkpt lat="47.48762" lon="6.65879">
        <ele>459.3</ele>
        <time>2017-10-22T09:05:38.000Z</time>
      </trkpt>
      <trkpt lat="47.48764" lon="6.65879">
        <ele>459.3</ele>
        <time>2017-10-22T09:05:39.000Z</time>
      </trkpt>
      <trkpt lat="47.48766" lon="6.65879">
        <ele>459.2</ele>
        <time>2017-10-22T09:05:40.000Z</time>
      </trkpt>
      <trkpt lat="47.4877" lon="6.65878">
        <ele>459.1</ele>
        <time>2017-10-22T09:05:41.000Z</time>
      </trkpt>
      <trkpt lat="47.48773" lon="6.65879">
        <ele>459</ele>
        <time>2017-10-22T09:05:42.000Z</time>
      </trkpt>
      <trkpt lat="47.48776" lon="6.6588">
        <ele>459</ele>
        <time>2017-10-22T09:05:43.000Z</time>
      </trkpt>
      <trkpt lat="47.48779" lon="6.6588">
        <ele>458.9</ele>
        <time>2017-10-22T09:05:44.000Z</time>
      </trkpt>
      <trkpt lat="47.48782" lon="6.65881">
        <ele>458.8</ele>
        <time>2017-10-22T09:05:45.000Z</time>
      </trkpt>
      <trkpt lat="47.48785" lon="6.65882">
        <ele>458.7</ele>
        <time>2017-10-22T09:05:46.000Z</time>
      </trkpt>
      <trkpt lat="47.48787" lon="6.65881">
        <ele>458.7</ele>
        <time>2017-10-22T09:05:47.000Z</time>
      </trkpt>
      <trkpt lat="47.48792" lon="6.6588">
        <ele>458.6</ele>
        <time>2017-10-22T09:05:48.000Z</time>
      </trkpt>
      <trkpt lat="47.48796" lon="6.65879">
        <ele>458.6</ele>
        <time>2017-10-22T09:05:49.000Z</time>
      </trkpt>
      <trkpt lat="47.48801" lon="6.6588">
        <ele>458.6</ele>
        <time>2017-10-22T09:05:50.000Z</time>
      </trkpt>
      <trkpt lat="47.48806" lon="6.65879">
        <ele>458.5</ele>
        <time>2017-10-22T09:05:51.000Z</time>
      </trkpt>
      <trkpt lat="47.4881" lon="6.65879">
        <ele>457.2</ele>
        <time>2017-10-22T09:05:52.000Z</time>
      </trkpt>
      <trkpt lat="47.48815" lon="6.6588">
        <ele>456.8</ele>
        <time>2017-10-22T09:05:53.000Z</time>
      </trkpt>
      <trkpt lat="47.4882" lon="6.6588">
        <ele>456.7</ele>
        <time>2017-10-22T09:05:54.000Z</time>
      </trkpt>
      <trkpt lat="47.48825" lon="6.6588">
        <ele>456.7</ele>
        <time>2017-10-22T09:05:55.000Z</time>
      </trkpt>
      <trkpt lat="47.48829" lon="6.6588">
        <ele>456.7</ele>
        <time>2017-10-22T09:05:56.000Z</time>
      </trkpt>
      <trkpt lat="47.48834" lon="6.6588">
        <ele>456.2</ele>
        <time>2017-10-22T09:05:57.000Z</time>
      </trkpt>
      <trkpt lat="47.48838" lon="6.65881">
        <ele>456</ele>
        <time>2017-10-22T09:05:58.000Z</time>
      </trkpt>
      <trkpt lat="47.48842" lon="6.65882">
        <ele>455.4</ele>
        <time>2017-10-22T09:05:59.000Z</time>
      </trkpt>
      <trkpt lat="47.48845" lon="6.65883">
        <ele>455.1</ele>
        <time>2017-10-22T09:06:00.000Z</time>
      </trkpt>
      <trkpt lat="47.48849" lon="6.65883">
        <ele>455.1</ele>
        <time>2017-10-22T09:06:01.000Z</time>
      </trkpt>
      <trkpt lat="47.48853" lon="6.65884">
        <ele>455.1</ele>
        <time>2017-10-22T09:06:02.000Z</time>
      </trkpt>
      <trkpt lat="47.48857" lon="6.65884">
        <ele>454.9</ele>
        <time>2017-10-22T09:06:03.000Z</time>
      </trkpt>
      <trkpt lat="47.48861" lon="6.65885">
        <ele>454.9</ele>
        <time>2017-10-22T09:06:04.000Z</time>
      </trkpt>
      <trkpt lat="47.48866" lon="6.65886">
        <ele>454.9</ele>
        <time>2017-10-22T09:06:05.000Z</time>
      </trkpt>
      <trkpt lat="47.4887" lon="6.65887">
        <ele>454.9</ele>
        <time>2017-10-22T09:06:06.000Z</time>
      </trkpt>
      <trkpt lat="47.48874" lon="6.65888">
        <ele>454.9</ele>
        <time>2017-10-22T09:06:07.000Z</time>
      </trkpt>
      <trkpt lat="47.48877" lon="6.65889">
        <ele>454.9</ele>
        <time>2017-10-22T09:06:08.000Z</time>
      </trkpt>
      <trkpt lat="47.4888" lon="6.6589">
        <ele>454.9</ele>
        <time>2017-10-22T09:06:09.000Z</time>
      </trkpt>
      <trkpt lat="47.48884" lon="6.65891">
        <ele>454.9</ele>
        <time>2017-10-22T09:06:10.000Z</time>
      </trkpt>
      <trkpt lat="47.48888" lon="6.65892">
        <ele>454.8</ele>
        <time>2017-10-22T09:06:11.000Z</time>
      </trkpt>
      <trkpt lat="47.48891" lon="6.65893">
        <ele>454.8</ele>
        <time>2017-10-22T09:06:12.000Z</time>
      </trkpt>
      <trkpt lat="47.48895" lon="6.65895">
        <ele>454.8</ele>
        <time>2017-10-22T09:06:13.000Z</time>
      </trkpt>
      <trkpt lat="47.48897" lon="6.65896">
        <ele>454.8</ele>
        <time>2017-10-22T09:06:14.000Z</time>
      </trkpt>
      <trkpt lat="47.48901" lon="6.65897">
        <ele>454.8</ele>
        <time>2017-10-22T09:06:15.000Z</time>
      </trkpt>
      <trkpt lat="47.48904" lon="6.65899">
        <ele>454.9</ele>
        <time>2017-10-22T09:06:16.000Z</time>
      </trkpt>
      <trkpt lat="47.48907" lon="6.659">
        <ele>454.9</ele>
        <time>2017-10-22T09:06:17.000Z</time>
      </trkpt>
      <trkpt lat="47.48911" lon="6.65901">
        <ele>455</ele>
        <time>2017-10-22T09:06:18.000Z</time>
      </trkpt>
      <trkpt lat="47.48914" lon="6.65902">
        <ele>455</ele>
        <time>2017-10-22T09:06:19.000Z</time>
      </trkpt>
      <trkpt lat="47.48917" lon="6.65903">
        <ele>455.1</ele>
        <time>2017-10-22T09:06:20.000Z</time>
      </trkpt>
      <trkpt lat="47.48919" lon="6.65904">
        <ele>455.2</ele>
        <time>2017-10-22T09:06:21.000Z</time>
      </trkpt>
      <trkpt lat="47.48922" lon="6.65906">
        <ele>455.2</ele>
        <time>2017-10-22T09:06:22.000Z</time>
      </trkpt>
      <trkpt lat="47.48925" lon="6.65907">
        <ele>455.4</ele>
        <time>2017-10-22T09:06:23.000Z</time>
      </trkpt>
      <trkpt lat="47.48929" lon="6.65909">
        <ele>455.4</ele>
        <time>2017-10-22T09:06:24.000Z</time>
      </trkpt>
      <trkpt lat="47.48932" lon="6.6591">
        <ele>455.5</ele>
        <time>2017-10-22T09:06:25.000Z</time>
      </trkpt>
      <trkpt lat="47.48936" lon="6.65912">
        <ele>455.6</ele>
        <time>2017-10-22T09:06:26.000Z</time>
      </trkpt>
      <trkpt lat="47.4894" lon="6.65914">
        <ele>455.5</ele>
        <time>2017-10-22T09:06:27.000Z</time>
      </trkpt>
      <trkpt lat="47.48944" lon="6.65916">
        <ele>455.5</ele>
        <time>2017-10-22T09:06:28.000Z</time>
      </trkpt>
      <trkpt lat="47.48947" lon="6.65919">
        <ele>455.6</ele>
        <time>2017-10-22T09:06:29.000Z</time>
      </trkpt>
      <trkpt lat="47.48951" lon="6.65921">
        <ele>455.5</ele>
        <time>2017-10-22T09:06:30.000Z</time>
      </trkpt>
      <trkpt lat="47.48954" lon="6.65923">
        <ele>455.8</ele>
        <time>2017-10-22T09:06:31.000Z</time>
      </trkpt>
      <trkpt lat="47.48957" lon="6.65925">
        <ele>455.1</ele>
        <time>2017-10-22T09:06:32.000Z</time>
      </trkpt>
      <trkpt lat="47.4896" lon="6.65928">
        <ele>454.3</ele>
        <time>2017-10-22T09:06:33.000Z</time>
      </trkpt>
      <trkpt lat="47.48964" lon="6.65931">
        <ele>453.9</ele>
        <time>2017-10-22T09:06:34.000Z</time>
      </trkpt>
      <trkpt lat="47.48967" lon="6.65934">
        <ele>453.8</ele>
        <time>2017-10-22T09:06:35.000Z</time>
      </trkpt>
      <trkpt lat="47.48971" lon="6.65937">
        <ele>453.7</ele>
        <time>2017-10-22T09:06:36.000Z</time>
      </trkpt>
      <trkpt lat="47.48974" lon="6.65939">
        <ele>453.6</ele>
        <time>2017-10-22T09:06:37.000Z</time>
      </trkpt>
      <trkpt lat="47.48977" lon="6.65942">
        <ele>453.5</ele>
        <time>2017-10-22T09:06:38.000Z</time>
      </trkpt>
      <trkpt lat="47.4898" lon="6.65945">
        <ele>453.4</ele>
        <time>2017-10-22T09:06:39.000Z</time>
      </trkpt>
      <trkpt lat="47.48984" lon="6.65947">
        <ele>453.3</ele>
        <time>2017-10-22T09:06:40.000Z</time>
      </trkpt>
      <trkpt lat="47.48987" lon="6.6595">
        <ele>453.2</ele>
        <time>2017-10-22T09:06:41.000Z</time>
      </trkpt>
      <trkpt lat="47.4899" lon="6.65952">
        <ele>453.1</ele>
        <time>2017-10-22T09:06:42.000Z</time>
      </trkpt>
      <trkpt lat="47.48994" lon="6.65955">
        <ele>453</ele>
        <time>2017-10-22T09:06:43.000Z</time>
      </trkpt>
      <trkpt lat="47.48998" lon="6.65959">
        <ele>453</ele>
        <time>2017-10-22T09:06:44.000Z</time>
      </trkpt>
      <trkpt lat="47.49" lon="6.65962">
        <ele>453</ele>
        <time>2017-10-22T09:06:45.000Z</time>
      </trkpt>
      <trkpt lat="47.49002" lon="6.65965">
        <ele>453</ele>
        <time>2017-10-22T09:06:46.000Z</time>
      </trkpt>
      <trkpt lat="47.49005" lon="6.65968">
        <ele>452.9</ele>
        <time>2017-10-22T09:06:47.000Z</time>
      </trkpt>
      <trkpt lat="47.49008" lon="6.65972">
        <ele>452.9</ele>
        <time>2017-10-22T09:06:48.000Z</time>
      </trkpt>
      <trkpt lat="47.4901" lon="6.65975">
        <ele>452.9</ele>
        <time>2017-10-22T09:06:49.000Z</time>
      </trkpt>
      <trkpt lat="47.49012" lon="6.65979">
        <ele>452.9</ele>
        <time>2017-10-22T09:06:50.000Z</time>
      </trkpt>
      <trkpt lat="47.49015" lon="6.65983">
        <ele>453</ele>
        <time>2017-10-22T09:06:51.000Z</time>
      </trkpt>
      <trkpt lat="47.49018" lon="6.65988">
        <ele>453.1</ele>
        <time>2017-10-22T09:06:52.000Z</time>
      </trkpt>
      <trkpt lat="47.49022" lon="6.65991">
        <ele>453.9</ele>
        <time>2017-10-22T09:06:53.000Z</time>
      </trkpt>
      <trkpt lat="47.49025" lon="6.65996">
        <ele>453.9</ele>
        <time>2017-10-22T09:06:54.000Z</time>
      </trkpt>
      <trkpt lat="47.49028" lon="6.66">
        <ele>453.9</ele>
        <time>2017-10-22T09:06:55.000Z</time>
      </trkpt>
      <trkpt lat="47.4903" lon="6.66003">
        <ele>454</ele>
        <time>2017-10-22T09:06:56.000Z</time>
      </trkpt>
      <trkpt lat="47.49033" lon="6.66006">
        <ele>454.1</ele>
        <time>2017-10-22T09:06:57.000Z</time>
      </trkpt>
      <trkpt lat="47.49035" lon="6.6601">
        <ele>454.1</ele>
        <time>2017-10-22T09:06:58.000Z</time>
      </trkpt>
      <trkpt lat="47.49038" lon="6.66014">
        <ele>454.2</ele>
        <time>2017-10-22T09:06:59.000Z</time>
      </trkpt>
      <trkpt lat="47.49041" lon="6.66019">
        <ele>454.2</ele>
        <time>2017-10-22T09:07:00.000Z</time>
      </trkpt>
      <trkpt lat="47.49044" lon="6.66023">
        <ele>454.3</ele>
        <time>2017-10-22T09:07:01.000Z</time>
      </trkpt>
      <trkpt lat="47.49047" lon="6.66027">
        <ele>454.4</ele>
        <time>2017-10-22T09:07:02.000Z</time>
      </trkpt>
      <trkpt lat="47.49049" lon="6.6603">
        <ele>454.5</ele>
        <time>2017-10-22T09:07:03.000Z</time>
      </trkpt>
      <trkpt lat="47.49052" lon="6.66034">
        <ele>454.5</ele>
        <time>2017-10-22T09:07:04.000Z</time>
      </trkpt>
      <trkpt lat="47.49054" lon="6.66037">
        <ele>454.6</ele>
        <time>2017-10-22T09:07:05.000Z</time>
      </trkpt>
      <trkpt lat="47.49057" lon="6.66041">
        <ele>454.6</ele>
        <time>2017-10-22T09:07:06.000Z</time>
      </trkpt>
      <trkpt lat="47.49059" lon="6.66045">
        <ele>454.7</ele>
        <time>2017-10-22T09:07:07.000Z</time>
      </trkpt>
      <trkpt lat="47.49062" lon="6.66049">
        <ele>455.3</ele>
        <time>2017-10-22T09:07:08.000Z</time>
      </trkpt>
      <trkpt lat="47.49064" lon="6.66053">
        <ele>455.4</ele>
        <time>2017-10-22T09:07:09.000Z</time>
      </trkpt>
      <trkpt lat="47.49066" lon="6.66058">
        <ele>455.5</ele>
        <time>2017-10-22T09:07:10.000Z</time>
      </trkpt>
      <trkpt lat="47.49068" lon="6.66062">
        <ele>455.5</ele>
        <time>2017-10-22T09:07:11.000Z</time>
      </trkpt>
      <trkpt lat="47.4907" lon="6.66066">
        <ele>455.5</ele>
        <time>2017-10-22T09:07:12.000Z</time>
      </trkpt>
      <trkpt lat="47.49073" lon="6.6607">
        <ele>455.6</ele>
        <time>2017-10-22T09:07:13.000Z</time>
      </trkpt>
      <trkpt lat="47.49074" lon="6.66072">
        <ele>455.6</ele>
        <time>2017-10-22T09:07:14.000Z</time>
      </trkpt>
      <trkpt lat="47.49075" lon="6.66075">
        <ele>455.6</ele>
        <time>2017-10-22T09:07:15.000Z</time>
      </trkpt>
      <trkpt lat="47.49078" lon="6.6608">
        <ele>455.7</ele>
        <time>2017-10-22T09:07:16.000Z</time>
      </trkpt>
      <trkpt lat="47.4908" lon="6.66084">
        <ele>455.7</ele>
        <time>2017-10-22T09:07:17.000Z</time>
      </trkpt>
      <trkpt lat="47.49083" lon="6.66088">
        <ele>455.8</ele>
        <time>2017-10-22T09:07:18.000Z</time>
      </trkpt>
      <trkpt lat="47.49086" lon="6.66092">
        <ele>455.9</ele>
        <time>2017-10-22T09:07:19.000Z</time>
      </trkpt>
      <trkpt lat="47.49089" lon="6.66096">
        <ele>456</ele>
        <time>2017-10-22T09:07:20.000Z</time>
      </trkpt>
      <trkpt lat="47.49091" lon="6.661">
        <ele>456.1</ele>
        <time>2017-10-22T09:07:21.000Z</time>
      </trkpt>
      <trkpt lat="47.49093" lon="6.66104">
        <ele>456.2</ele>
        <time>2017-10-22T09:07:22.000Z</time>
      </trkpt>
      <trkpt lat="47.49096" lon="6.66108">
        <ele>456.3</ele>
        <time>2017-10-22T09:07:23.000Z</time>
      </trkpt>
      <trkpt lat="47.49098" lon="6.66112">
        <ele>456.5</ele>
        <time>2017-10-22T09:07:24.000Z</time>
      </trkpt>
      <trkpt lat="47.491" lon="6.66116">
        <ele>456.6</ele>
        <time>2017-10-22T09:07:25.000Z</time>
      </trkpt>
      <trkpt lat="47.49103" lon="6.6612">
        <ele>456.6</ele>
        <time>2017-10-22T09:07:26.000Z</time>
      </trkpt>
      <trkpt lat="47.49105" lon="6.66125">
        <ele>456.7</ele>
        <time>2017-10-22T09:07:27.000Z</time>
      </trkpt>
      <trkpt lat="47.49107" lon="6.66129">
        <ele>456.8</ele>
        <time>2017-10-22T09:07:28.000Z</time>
      </trkpt>
      <trkpt lat="47.49109" lon="6.66133">
        <ele>456.8</ele>
        <time>2017-10-22T09:07:29.000Z</time>
      </trkpt>
      <trkpt lat="47.49112" lon="6.66137">
        <ele>456.9</ele>
        <time>2017-10-22T09:07:30.000Z</time>
      </trkpt>
      <trkpt lat="47.49114" lon="6.66141">
        <ele>456.9</ele>
        <time>2017-10-22T09:07:31.000Z</time>
      </trkpt>
      <trkpt lat="47.49115" lon="6.66144">
        <ele>457</ele>
        <time>2017-10-22T09:07:32.000Z</time>
      </trkpt>
      <trkpt lat="47.49118" lon="6.66148">
        <ele>456.9</ele>
        <time>2017-10-22T09:07:33.000Z</time>
      </trkpt>
      <trkpt lat="47.4912" lon="6.66151">
        <ele>456.9</ele>
        <time>2017-10-22T09:07:34.000Z</time>
      </trkpt>
      <trkpt lat="47.49122" lon="6.66154">
        <ele>456.9</ele>
        <time>2017-10-22T09:07:35.000Z</time>
      </trkpt>
      <trkpt lat="47.49124" lon="6.66157">
        <ele>456.9</ele>
        <time>2017-10-22T09:07:36.000Z</time>
      </trkpt>
      <trkpt lat="47.49126" lon="6.6616">
        <ele>457.1</ele>
        <time>2017-10-22T09:07:37.000Z</time>
      </trkpt>
      <trkpt lat="47.49128" lon="6.66163">
        <ele>457.2</ele>
        <time>2017-10-22T09:07:38.000Z</time>
      </trkpt>
      <trkpt lat="47.49131" lon="6.66167">
        <ele>457.3</ele>
        <time>2017-10-22T09:07:39.000Z</time>
      </trkpt>
      <trkpt lat="47.49134" lon="6.66171">
        <ele>457.3</ele>
        <time>2017-10-22T09:07:40.000Z</time>
      </trkpt>
      <trkpt lat="47.49137" lon="6.66175">
        <ele>457.3</ele>
        <time>2017-10-22T09:07:41.000Z</time>
      </trkpt>
      <trkpt lat="47.49139" lon="6.66179">
        <ele>457.3</ele>
        <time>2017-10-22T09:07:42.000Z</time>
      </trkpt>
      <trkpt lat="47.49142" lon="6.66182">
        <ele>457.4</ele>
        <time>2017-10-22T09:07:43.000Z</time>
      </trkpt>
      <trkpt lat="47.49145" lon="6.66186">
        <ele>457.5</ele>
        <time>2017-10-22T09:07:44.000Z</time>
      </trkpt>
      <trkpt lat="47.49148" lon="6.6619">
        <ele>457.6</ele>
        <time>2017-10-22T09:07:45.000Z</time>
      </trkpt>
      <trkpt lat="47.49151" lon="6.66194">
        <ele>457.6</ele>
        <time>2017-10-22T09:07:46.000Z</time>
      </trkpt>
      <trkpt lat="47.49154" lon="6.66197">
        <ele>457.7</ele>
        <time>2017-10-22T09:07:47.000Z</time>
      </trkpt>
      <trkpt lat="47.49156" lon="6.66198">
        <ele>457.8</ele>
        <time>2017-10-22T09:07:48.000Z</time>
      </trkpt>
      <trkpt lat="47.49158" lon="6.66201">
        <ele>457.9</ele>
        <time>2017-10-22T09:07:49.000Z</time>
      </trkpt>
      <trkpt lat="47.49161" lon="6.66203">
        <ele>458</ele>
        <time>2017-10-22T09:07:50.000Z</time>
      </trkpt>
      <trkpt lat="47.49163" lon="6.66206">
        <ele>458.1</ele>
        <time>2017-10-22T09:07:51.000Z</time>
      </trkpt>
      <trkpt lat="47.49166" lon="6.66209">
        <ele>458.3</ele>
        <time>2017-10-22T09:07:52.000Z</time>
      </trkpt>
      <trkpt lat="47.49168" lon="6.66211">
        <ele>458.5</ele>
        <time>2017-10-22T09:07:53.000Z</time>
      </trkpt>
      <trkpt lat="47.49171" lon="6.66215">
        <ele>458.6</ele>
        <time>2017-10-22T09:07:54.000Z</time>
      </trkpt>
      <trkpt lat="47.49174" lon="6.66218">
        <ele>458.7</ele>
        <time>2017-10-22T09:07:55.000Z</time>
      </trkpt>
      <trkpt lat="47.49177" lon="6.66221">
        <ele>458.8</ele>
        <time>2017-10-22T09:07:56.000Z</time>
      </trkpt>
      <trkpt lat="47.4918" lon="6.66224">
        <ele>458.9</ele>
        <time>2017-10-22T09:07:57.000Z</time>
      </trkpt>
      <trkpt lat="47.49183" lon="6.66228">
        <ele>459</ele>
        <time>2017-10-22T09:07:58.000Z</time>
      </trkpt>
      <trkpt lat="47.49187" lon="6.66231">
        <ele>459.2</ele>
        <time>2017-10-22T09:07:59.000Z</time>
      </trkpt>
      <trkpt lat="47.49191" lon="6.66234">
        <ele>459.2</ele>
        <time>2017-10-22T09:08:00.000Z</time>
      </trkpt>
      <trkpt lat="47.49195" lon="6.66237">
        <ele>459.3</ele>
        <time>2017-10-22T09:08:01.000Z</time>
      </trkpt>
      <trkpt lat="47.49198" lon="6.6624">
        <ele>459.3</ele>
        <time>2017-10-22T09:08:02.000Z</time>
      </trkpt>
      <trkpt lat="47.49202" lon="6.66244">
        <ele>459.4</ele>
        <time>2017-10-22T09:08:03.000Z</time>
      </trkpt>
      <trkpt lat="47.49204" lon="6.66246">
        <ele>459.5</ele>
        <time>2017-10-22T09:08:04.000Z</time>
      </trkpt>
      <trkpt lat="47.49207" lon="6.66249">
        <ele>459.5</ele>
        <time>2017-10-22T09:08:05.000Z</time>
      </trkpt>
      <trkpt lat="47.49211" lon="6.66251">
        <ele>459.6</ele>
        <time>2017-10-22T09:08:06.000Z</time>
      </trkpt>
      <trkpt lat="47.49214" lon="6.66254">
        <ele>459.7</ele>
        <time>2017-10-22T09:08:07.000Z</time>
      </trkpt>
      <trkpt lat="47.49217" lon="6.66256">
        <ele>459.8</ele>
        <time>2017-10-22T09:08:08.000Z</time>
      </trkpt>
      <trkpt lat="47.4922" lon="6.66259">
        <ele>459.8</ele>
        <time>2017-10-22T09:08:09.000Z</time>
      </trkpt>
      <trkpt lat="47.49223" lon="6.66261">
        <ele>459.9</ele>
        <time>2017-10-22T09:08:10.000Z</time>
      </trkpt>
      <trkpt lat="47.49225" lon="6.66264">
        <ele>459.9</ele>
        <time>2017-10-22T09:08:11.000Z</time>
      </trkpt>
      <trkpt lat="47.49228" lon="6.66268">
        <ele>459.9</ele>
        <time>2017-10-22T09:08:12.000Z</time>
      </trkpt>
      <trkpt lat="47.49231" lon="6.6627">
        <ele>459.9</ele>
        <time>2017-10-22T09:08:13.000Z</time>
      </trkpt>
      <trkpt lat="47.49233" lon="6.66272">
        <ele>459.9</ele>
        <time>2017-10-22T09:08:14.000Z</time>
      </trkpt>
      <trkpt lat="47.49237" lon="6.66275">
        <ele>459.9</ele>
        <time>2017-10-22T09:08:16.000Z</time>
      </trkpt>
      <trkpt lat="47.49239" lon="6.66276">
        <ele>459.9</ele>
        <time>2017-10-22T09:08:17.000Z</time>
      </trkpt>
      <trkpt lat="47.49243" lon="6.66278">
        <ele>460</ele>
        <time>2017-10-22T09:08:18.000Z</time>
      </trkpt>
      <trkpt lat="47.49247" lon="6.66279">
        <ele>460.2</ele>
        <time>2017-10-22T09:08:19.000Z</time>
      </trkpt>
      <trkpt lat="47.49251" lon="6.66281">
        <ele>460.7</ele>
        <time>2017-10-22T09:08:20.000Z</time>
      </trkpt>
      <trkpt lat="47.49254" lon="6.66282">
        <ele>460.7</ele>
        <time>2017-10-22T09:08:21.000Z</time>
      </trkpt>
      <trkpt lat="47.49256" lon="6.66282">
        <ele>460.7</ele>
        <time>2017-10-22T09:08:22.000Z</time>
      </trkpt>
      <trkpt lat="47.49259" lon="6.66284">
        <ele>460.7</ele>
        <time>2017-10-22T09:08:23.000Z</time>
      </trkpt>
      <trkpt lat="47.49262" lon="6.66285">
        <ele>460.7</ele>
        <time>2017-10-22T09:08:24.000Z</time>
      </trkpt>
      <trkpt lat="47.49265" lon="6.66286">
        <ele>460.7</ele>
        <time>2017-10-22T09:08:25.000Z</time>
      </trkpt>
      <trkpt lat="47.49269" lon="6.66287">
        <ele>460.7</ele>
        <time>2017-10-22T09:08:26.000Z</time>
      </trkpt>
      <trkpt lat="47.49272" lon="6.66288">
        <ele>460.8</ele>
        <time>2017-10-22T09:08:27.000Z</time>
      </trkpt>
      <trkpt lat="47.49275" lon="6.66288">
        <ele>460.8</ele>
        <time>2017-10-22T09:08:28.000Z</time>
      </trkpt>
      <trkpt lat="47.49278" lon="6.66289">
        <ele>460.9</ele>
        <time>2017-10-22T09:08:29.000Z</time>
      </trkpt>
      <trkpt lat="47.49282" lon="6.66289">
        <ele>461.1</ele>
        <time>2017-10-22T09:08:30.000Z</time>
      </trkpt>
      <trkpt lat="47.49286" lon="6.66291">
        <ele>461.2</ele>
        <time>2017-10-22T09:08:31.000Z</time>
      </trkpt>
      <trkpt lat="47.49289" lon="6.66292">
        <ele>461.4</ele>
        <time>2017-10-22T09:08:32.000Z</time>
      </trkpt>
      <trkpt lat="47.49293" lon="6.66293">
        <ele>461.6</ele>
        <time>2017-10-22T09:08:33.000Z</time>
      </trkpt>
      <trkpt lat="47.49297" lon="6.66293">
        <ele>461.9</ele>
        <time>2017-10-22T09:08:34.000Z</time>
      </trkpt>
      <trkpt lat="47.493" lon="6.66293">
        <ele>462.1</ele>
        <time>2017-10-22T09:08:35.000Z</time>
      </trkpt>
      <trkpt lat="47.49303" lon="6.66293">
        <ele>462.2</ele>
        <time>2017-10-22T09:08:36.000Z</time>
      </trkpt>
      <trkpt lat="47.49306" lon="6.66294">
        <ele>462.4</ele>
        <time>2017-10-22T09:08:37.000Z</time>
      </trkpt>
      <trkpt lat="47.4931" lon="6.66294">
        <ele>462.5</ele>
        <time>2017-10-22T09:08:38.000Z</time>
      </trkpt>
      <trkpt lat="47.49313" lon="6.66294">
        <ele>462.7</ele>
        <time>2017-10-22T09:08:39.000Z</time>
      </trkpt>
      <trkpt lat="47.49317" lon="6.66295">
        <ele>462.7</ele>
        <time>2017-10-22T09:08:40.000Z</time>
      </trkpt>
      <trkpt lat="47.49319" lon="6.66296">
        <ele>462.8</ele>
        <time>2017-10-22T09:08:41.000Z</time>
      </trkpt>
      <trkpt lat="47.49322" lon="6.66296">
        <ele>462.9</ele>
        <time>2017-10-22T09:08:42.000Z</time>
      </trkpt>
      <trkpt lat="47.49325" lon="6.66298">
        <ele>462.9</ele>
        <time>2017-10-22T09:08:43.000Z</time>
      </trkpt>
      <trkpt lat="47.49328" lon="6.663">
        <ele>463</ele>
        <time>2017-10-22T09:08:44.000Z</time>
      </trkpt>
      <trkpt lat="47.49331" lon="6.66304">
        <ele>463.1</ele>
        <time>2017-10-22T09:08:45.000Z</time>
      </trkpt>
      <trkpt lat="47.49334" lon="6.66308">
        <ele>463.1</ele>
        <time>2017-10-22T09:08:46.000Z</time>
      </trkpt>
      <trkpt lat="47.49337" lon="6.66313">
        <ele>463.2</ele>
        <time>2017-10-22T09:08:47.000Z</time>
      </trkpt>
      <trkpt lat="47.4934" lon="6.66317">
        <ele>463.3</ele>
        <time>2017-10-22T09:08:48.000Z</time>
      </trkpt>
      <trkpt lat="47.49342" lon="6.66321">
        <ele>463.4</ele>
        <time>2017-10-22T09:08:49.000Z</time>
      </trkpt>
      <trkpt lat="47.49344" lon="6.66325">
        <ele>463.5</ele>
        <time>2017-10-22T09:08:50.000Z</time>
      </trkpt>
      <trkpt lat="47.49346" lon="6.66329">
        <ele>463.6</ele>
        <time>2017-10-22T09:08:51.000Z</time>
      </trkpt>
      <trkpt lat="47.49348" lon="6.66334">
        <ele>463.7</ele>
        <time>2017-10-22T09:08:52.000Z</time>
      </trkpt>
      <trkpt lat="47.4935" lon="6.66337">
        <ele>463.8</ele>
        <time>2017-10-22T09:08:53.000Z</time>
      </trkpt>
      <trkpt lat="47.49352" lon="6.66341">
        <ele>463.9</ele>
        <time>2017-10-22T09:08:54.000Z</time>
      </trkpt>
      <trkpt lat="47.49353" lon="6.66345">
        <ele>464.1</ele>
        <time>2017-10-22T09:08:55.000Z</time>
      </trkpt>
      <trkpt lat="47.49355" lon="6.66349">
        <ele>464.2</ele>
        <time>2017-10-22T09:08:56.000Z</time>
      </trkpt>
      <trkpt lat="47.49357" lon="6.66354">
        <ele>464.3</ele>
        <time>2017-10-22T09:08:57.000Z</time>
      </trkpt>
      <trkpt lat="47.49357" lon="6.66357">
        <ele>464.4</ele>
        <time>2017-10-22T09:08:58.000Z</time>
      </trkpt>
      <trkpt lat="47.49359" lon="6.66361">
        <ele>464.5</ele>
        <time>2017-10-22T09:08:59.000Z</time>
      </trkpt>
      <trkpt lat="47.49361" lon="6.66366">
        <ele>464.5</ele>
        <time>2017-10-22T09:09:00.000Z</time>
      </trkpt>
      <trkpt lat="47.49363" lon="6.66371">
        <ele>464.5</ele>
        <time>2017-10-22T09:09:01.000Z</time>
      </trkpt>
      <trkpt lat="47.49364" lon="6.66376">
        <ele>464.5</ele>
        <time>2017-10-22T09:09:02.000Z</time>
      </trkpt>
      <trkpt lat="47.49366" lon="6.66381">
        <ele>464.5</ele>
        <time>2017-10-22T09:09:03.000Z</time>
      </trkpt>
      <trkpt lat="47.49368" lon="6.66385">
        <ele>464.5</ele>
        <time>2017-10-22T09:09:04.000Z</time>
      </trkpt>
      <trkpt lat="47.49369" lon="6.66389">
        <ele>464.4</ele>
        <time>2017-10-22T09:09:05.000Z</time>
      </trkpt>
      <trkpt lat="47.49371" lon="6.66395">
        <ele>464.4</ele>
        <time>2017-10-22T09:09:06.000Z</time>
      </trkpt>
      <trkpt lat="47.49373" lon="6.664">
        <ele>464.3</ele>
        <time>2017-10-22T09:09:07.000Z</time>
      </trkpt>
      <trkpt lat="47.49375" lon="6.66404">
        <ele>464.3</ele>
        <time>2017-10-22T09:09:08.000Z</time>
      </trkpt>
      <trkpt lat="47.49377" lon="6.66409">
        <ele>464.2</ele>
        <time>2017-10-22T09:09:09.000Z</time>
      </trkpt>
      <trkpt lat="47.4938" lon="6.66416">
        <ele>463.1</ele>
        <time>2017-10-22T09:09:10.000Z</time>
      </trkpt>
      <trkpt lat="47.49381" lon="6.66422">
        <ele>462.6</ele>
        <time>2017-10-22T09:09:11.000Z</time>
      </trkpt>
      <trkpt lat="47.49383" lon="6.66429">
        <ele>462</ele>
        <time>2017-10-22T09:09:12.000Z</time>
      </trkpt>
      <trkpt lat="47.49386" lon="6.66436">
        <ele>461.7</ele>
        <time>2017-10-22T09:09:13.000Z</time>
      </trkpt>
      <trkpt lat="47.49388" lon="6.66443">
        <ele>461.5</ele>
        <time>2017-10-22T09:09:14.000Z</time>
      </trkpt>
      <trkpt lat="47.4939" lon="6.6645">
        <ele>461.6</ele>
        <time>2017-10-22T09:09:15.000Z</time>
      </trkpt>
      <trkpt lat="47.49392" lon="6.66457">
        <ele>461.8</ele>
        <time>2017-10-22T09:09:16.000Z</time>
      </trkpt>
      <trkpt lat="47.49394" lon="6.66464">
        <ele>461.9</ele>
        <time>2017-10-22T09:09:17.000Z</time>
      </trkpt>
      <trkpt lat="47.49396" lon="6.66471">
        <ele>461.9</ele>
        <time>2017-10-22T09:09:18.000Z</time>
      </trkpt>
      <trkpt lat="47.49398" lon="6.66474">
        <ele>462</ele>
        <time>2017-10-22T09:09:19.000Z</time>
      </trkpt>
      <trkpt lat="47.49399" lon="6.66477">
        <ele>462</ele>
        <time>2017-10-22T09:09:20.000Z</time>
      </trkpt>
      <trkpt lat="47.49401" lon="6.6648">
        <ele>462.1</ele>
        <time>2017-10-22T09:09:21.000Z</time>
      </trkpt>
      <trkpt lat="47.49404" lon="6.66482">
        <ele>462.1</ele>
        <time>2017-10-22T09:09:22.000Z</time>
      </trkpt>
      <trkpt lat="47.49407" lon="6.66484">
        <ele>462.2</ele>
        <time>2017-10-22T09:09:23.000Z</time>
      </trkpt>
      <trkpt lat="47.49409" lon="6.66486">
        <ele>462.2</ele>
        <time>2017-10-22T09:09:24.000Z</time>
      </trkpt>
      <trkpt lat="47.49412" lon="6.66488">
        <ele>463.2</ele>
        <time>2017-10-22T09:09:32.000Z</time>
      </trkpt>
      <trkpt lat="47.49414" lon="6.66487">
        <ele>463.3</ele>
        <time>2017-10-22T09:09:33.000Z</time>
      </trkpt>
      <trkpt lat="47.49418" lon="6.66484">
        <ele>463.7</ele>
        <time>2017-10-22T09:09:36.000Z</time>
      </trkpt>
      <trkpt lat="47.49419" lon="6.66484">
        <ele>463.8</ele>
        <time>2017-10-22T09:09:37.000Z</time>
      </trkpt>
      <trkpt lat="47.49423" lon="6.66483">
        <ele>463.9</ele>
        <time>2017-10-22T09:09:39.000Z</time>
      </trkpt>
      <trkpt lat="47.49426" lon="6.66483">
        <ele>463.9</ele>
        <time>2017-10-22T09:09:40.000Z</time>
      </trkpt>
      <trkpt lat="47.49429" lon="6.6648">
        <ele>463.9</ele>
        <time>2017-10-22T09:09:42.000Z</time>
      </trkpt>
      <trkpt lat="47.49431" lon="6.66478">
        <ele>463.9</ele>
        <time>2017-10-22T09:09:43.000Z</time>
      </trkpt>
      <trkpt lat="47.49434" lon="6.66476">
        <ele>464</ele>
        <time>2017-10-22T09:09:44.000Z</time>
      </trkpt>
      <trkpt lat="47.49436" lon="6.66475">
        <ele>464.1</ele>
        <time>2017-10-22T09:09:45.000Z</time>
      </trkpt>
      <trkpt lat="47.49438" lon="6.66473">
        <ele>464.2</ele>
        <time>2017-10-22T09:09:46.000Z</time>
      </trkpt>
      <trkpt lat="47.4944" lon="6.66471">
        <ele>464.3</ele>
        <time>2017-10-22T09:09:47.000Z</time>
      </trkpt>
      <trkpt lat="47.49442" lon="6.66469">
        <ele>464.4</ele>
        <time>2017-10-22T09:09:48.000Z</time>
      </trkpt>
      <trkpt lat="47.49444" lon="6.66467">
        <ele>464.4</ele>
        <time>2017-10-22T09:09:49.000Z</time>
      </trkpt>
      <trkpt lat="47.49446" lon="6.66465">
        <ele>464.5</ele>
        <time>2017-10-22T09:09:50.000Z</time>
      </trkpt>
      <trkpt lat="47.49448" lon="6.66464">
        <ele>464.5</ele>
        <time>2017-10-22T09:09:51.000Z</time>
      </trkpt>
      <trkpt lat="47.4945" lon="6.66462">
        <ele>464.6</ele>
        <time>2017-10-22T09:09:52.000Z</time>
      </trkpt>
      <trkpt lat="47.49452" lon="6.66459">
        <ele>464.6</ele>
        <time>2017-10-22T09:09:53.000Z</time>
      </trkpt>
      <trkpt lat="47.49454" lon="6.66457">
        <ele>464.7</ele>
        <time>2017-10-22T09:09:54.000Z</time>
      </trkpt>
      <trkpt lat="47.49456" lon="6.66455">
        <ele>464.7</ele>
        <time>2017-10-22T09:09:55.000Z</time>
      </trkpt>
      <trkpt lat="47.49458" lon="6.66453">
        <ele>464.7</ele>
        <time>2017-10-22T09:09:56.000Z</time>
      </trkpt>
      <trkpt lat="47.4946" lon="6.66451">
        <ele>464.7</ele>
        <time>2017-10-22T09:09:57.000Z</time>
      </trkpt>
      <trkpt lat="47.49462" lon="6.6645">
        <ele>464.7</ele>
        <time>2017-10-22T09:09:58.000Z</time>
      </trkpt>
      <trkpt lat="47.49464" lon="6.66448">
        <ele>464.6</ele>
        <time>2017-10-22T09:09:59.000Z</time>
      </trkpt>
      <trkpt lat="47.49467" lon="6.66446">
        <ele>464.5</ele>
        <time>2017-10-22T09:10:00.000Z</time>
      </trkpt>
      <trkpt lat="47.49469" lon="6.66445">
        <ele>464.4</ele>
        <time>2017-10-22T09:10:01.000Z</time>
      </trkpt>
      <trkpt lat="47.49472" lon="6.66443">
        <ele>464.3</ele>
        <time>2017-10-22T09:10:02.000Z</time>
      </trkpt>
      <trkpt lat="47.49474" lon="6.66441">
        <ele>464.3</ele>
        <time>2017-10-22T09:10:03.000Z</time>
      </trkpt>
      <trkpt lat="47.49476" lon="6.6644">
        <ele>464.3</ele>
        <time>2017-10-22T09:10:04.000Z</time>
      </trkpt>
      <trkpt lat="47.49478" lon="6.66438">
        <ele>464.3</ele>
        <time>2017-10-22T09:10:05.000Z</time>
      </trkpt>
      <trkpt lat="47.49481" lon="6.66436">
        <ele>464.2</ele>
        <time>2017-10-22T09:10:06.000Z</time>
      </trkpt>
      <trkpt lat="47.49484" lon="6.66434">
        <ele>464.1</ele>
        <time>2017-10-22T09:10:07.000Z</time>
      </trkpt>
      <trkpt lat="47.49486" lon="6.66432">
        <ele>464</ele>
        <time>2017-10-22T09:10:08.000Z</time>
      </trkpt>
      <trkpt lat="47.49487" lon="6.6643">
        <ele>464</ele>
        <time>2017-10-22T09:10:09.000Z</time>
      </trkpt>
      <trkpt lat="47.4949" lon="6.66428">
        <ele>463.9</ele>
        <time>2017-10-22T09:10:10.000Z</time>
      </trkpt>
      <trkpt lat="47.49492" lon="6.66427">
        <ele>463.9</ele>
        <time>2017-10-22T09:10:11.000Z</time>
      </trkpt>
      <trkpt lat="47.49495" lon="6.66426">
        <ele>463.9</ele>
        <time>2017-10-22T09:10:12.000Z</time>
      </trkpt>
      <trkpt lat="47.49498" lon="6.66425">
        <ele>463.8</ele>
        <time>2017-10-22T09:10:13.000Z</time>
      </trkpt>
      <trkpt lat="47.495" lon="6.66423">
        <ele>463.8</ele>
        <time>2017-10-22T09:10:14.000Z</time>
      </trkpt>
      <trkpt lat="47.49502" lon="6.66421">
        <ele>463.7</ele>
        <time>2017-10-22T09:10:15.000Z</time>
      </trkpt>
      <trkpt lat="47.49505" lon="6.66417">
        <ele>463.7</ele>
        <time>2017-10-22T09:10:16.000Z</time>
      </trkpt>
      <trkpt lat="47.49507" lon="6.66415">
        <ele>463.7</ele>
        <time>2017-10-22T09:10:17.000Z</time>
      </trkpt>
      <trkpt lat="47.4951" lon="6.66412">
        <ele>463.6</ele>
        <time>2017-10-22T09:10:18.000Z</time>
      </trkpt>
      <trkpt lat="47.49513" lon="6.6641">
        <ele>463.6</ele>
        <time>2017-10-22T09:10:19.000Z</time>
      </trkpt>
      <trkpt lat="47.49515" lon="6.66408">
        <ele>463.6</ele>
        <time>2017-10-22T09:10:20.000Z</time>
      </trkpt>
      <trkpt lat="47.49518" lon="6.66405">
        <ele>463.6</ele>
        <time>2017-10-22T09:10:21.000Z</time>
      </trkpt>
      <trkpt lat="47.49522" lon="6.66403">
        <ele>464.1</ele>
        <time>2017-10-22T09:10:22.000Z</time>
      </trkpt>
      <trkpt lat="47.49525" lon="6.66401">
        <ele>464.2</ele>
        <time>2017-10-22T09:10:23.000Z</time>
      </trkpt>
      <trkpt lat="47.49528" lon="6.66399">
        <ele>464.3</ele>
        <time>2017-10-22T09:10:24.000Z</time>
      </trkpt>
      <trkpt lat="47.49531" lon="6.66396">
        <ele>464.3</ele>
        <time>2017-10-22T09:10:25.000Z</time>
      </trkpt>
      <trkpt lat="47.49534" lon="6.66394">
        <ele>464.3</ele>
        <time>2017-10-22T09:10:26.000Z</time>
      </trkpt>
      <trkpt lat="47.49537" lon="6.66391">
        <ele>464.3</ele>
        <time>2017-10-22T09:10:27.000Z</time>
      </trkpt>
      <trkpt lat="47.4954" lon="6.66389">
        <ele>464.3</ele>
        <time>2017-10-22T09:10:28.000Z</time>
      </trkpt>
      <trkpt lat="47.49543" lon="6.66387">
        <ele>464.3</ele>
        <time>2017-10-22T09:10:29.000Z</time>
      </trkpt>
      <trkpt lat="47.49547" lon="6.66384">
        <ele>464.2</ele>
        <time>2017-10-22T09:10:30.000Z</time>
      </trkpt>
      <trkpt lat="47.4955" lon="6.66381">
        <ele>464.2</ele>
        <time>2017-10-22T09:10:31.000Z</time>
      </trkpt>
      <trkpt lat="47.49553" lon="6.66379">
        <ele>464.1</ele>
        <time>2017-10-22T09:10:32.000Z</time>
      </trkpt>
      <trkpt lat="47.49556" lon="6.66376">
        <ele>464</ele>
        <time>2017-10-22T09:10:33.000Z</time>
      </trkpt>
      <trkpt lat="47.49559" lon="6.66373">
        <ele>463.9</ele>
        <time>2017-10-22T09:10:34.000Z</time>
      </trkpt>
      <trkpt lat="47.49561" lon="6.66369">
        <ele>463.8</ele>
        <time>2017-10-22T09:10:35.000Z</time>
      </trkpt>
      <trkpt lat="47.49563" lon="6.66365">
        <ele>463.7</ele>
        <time>2017-10-22T09:10:36.000Z</time>
      </trkpt>
      <trkpt lat="47.49565" lon="6.66361">
        <ele>463.6</ele>
        <time>2017-10-22T09:10:37.000Z</time>
      </trkpt>
      <trkpt lat="47.49567" lon="6.66358">
        <ele>463.5</ele>
        <time>2017-10-22T09:10:38.000Z</time>
      </trkpt>
      <trkpt lat="47.4957" lon="6.66354">
        <ele>463.4</ele>
        <time>2017-10-22T09:10:39.000Z</time>
      </trkpt>
      <trkpt lat="47.49572" lon="6.66351">
        <ele>463.3</ele>
        <time>2017-10-22T09:10:40.000Z</time>
      </trkpt>
      <trkpt lat="47.49575" lon="6.66348">
        <ele>463.2</ele>
        <time>2017-10-22T09:10:41.000Z</time>
      </trkpt>
      <trkpt lat="47.49578" lon="6.66344">
        <ele>463.2</ele>
        <time>2017-10-22T09:10:42.000Z</time>
      </trkpt>
      <trkpt lat="47.49579" lon="6.66341">
        <ele>463.2</ele>
        <time>2017-10-22T09:10:43.000Z</time>
      </trkpt>
      <trkpt lat="47.49581" lon="6.66339">
        <ele>463.2</ele>
        <time>2017-10-22T09:10:44.000Z</time>
      </trkpt>
      <trkpt lat="47.49585" lon="6.66332">
        <ele>463.1</ele>
        <time>2017-10-22T09:10:46.000Z</time>
      </trkpt>
      <trkpt lat="47.49587" lon="6.66328">
        <ele>463.1</ele>
        <time>2017-10-22T09:10:47.000Z</time>
      </trkpt>
      <trkpt lat="47.49589" lon="6.66324">
        <ele>463</ele>
        <time>2017-10-22T09:10:48.000Z</time>
      </trkpt>
      <trkpt lat="47.49591" lon="6.6632">
        <ele>462.9</ele>
        <time>2017-10-22T09:10:49.000Z</time>
      </trkpt>
      <trkpt lat="47.49593" lon="6.66316">
        <ele>462.8</ele>
        <time>2017-10-22T09:10:50.000Z</time>
      </trkpt>
      <trkpt lat="47.49595" lon="6.66313">
        <ele>462.7</ele>
        <time>2017-10-22T09:10:51.000Z</time>
      </trkpt>
      <trkpt lat="47.49596" lon="6.66308">
        <ele>462.6</ele>
        <time>2017-10-22T09:10:52.000Z</time>
      </trkpt>
      <trkpt lat="47.49599" lon="6.66304">
        <ele>462.5</ele>
        <time>2017-10-22T09:10:53.000Z</time>
      </trkpt>
      <trkpt lat="47.49601" lon="6.66299">
        <ele>462.5</ele>
        <time>2017-10-22T09:10:54.000Z</time>
      </trkpt>
      <trkpt lat="47.49604" lon="6.66293">
        <ele>462.4</ele>
        <time>2017-10-22T09:10:55.000Z</time>
      </trkpt>
      <trkpt lat="47.49607" lon="6.66288">
        <ele>462.4</ele>
        <time>2017-10-22T09:10:56.000Z</time>
      </trkpt>
      <trkpt lat="47.49609" lon="6.66283">
        <ele>462.4</ele>
        <time>2017-10-22T09:10:57.000Z</time>
      </trkpt>
      <trkpt lat="47.49612" lon="6.66277">
        <ele>462.4</ele>
        <time>2017-10-22T09:10:58.000Z</time>
      </trkpt>
      <trkpt lat="47.49614" lon="6.66272">
        <ele>462.5</ele>
        <time>2017-10-22T09:10:59.000Z</time>
      </trkpt>
      <trkpt lat="47.49617" lon="6.66268">
        <ele>462.6</ele>
        <time>2017-10-22T09:11:00.000Z</time>
      </trkpt>
      <trkpt lat="47.49619" lon="6.66263">
        <ele>462.6</ele>
        <time>2017-10-22T09:11:01.000Z</time>
      </trkpt>
      <trkpt lat="47.49622" lon="6.66259">
        <ele>462.7</ele>
        <time>2017-10-22T09:11:02.000Z</time>
      </trkpt>
      <trkpt lat="47.49625" lon="6.66255">
        <ele>462.8</ele>
        <time>2017-10-22T09:11:03.000Z</time>
      </trkpt>
      <trkpt lat="47.49628" lon="6.66252">
        <ele>463.3</ele>
        <time>2017-10-22T09:11:04.000Z</time>
      </trkpt>
      <trkpt lat="47.49632" lon="6.66248">
        <ele>463.3</ele>
        <time>2017-10-22T09:11:05.000Z</time>
      </trkpt>
      <trkpt lat="47.49635" lon="6.66245">
        <ele>463.4</ele>
        <time>2017-10-22T09:11:06.000Z</time>
      </trkpt>
      <trkpt lat="47.49638" lon="6.6624">
        <ele>463.4</ele>
        <time>2017-10-22T09:11:07.000Z</time>
      </trkpt>
      <trkpt lat="47.49641" lon="6.66236">
        <ele>463.5</ele>
        <time>2017-10-22T09:11:08.000Z</time>
      </trkpt>
      <trkpt lat="47.49645" lon="6.66231">
        <ele>463.2</ele>
        <time>2017-10-22T09:11:09.000Z</time>
      </trkpt>
      <trkpt lat="47.49649" lon="6.66226">
        <ele>463.2</ele>
        <time>2017-10-22T09:11:10.000Z</time>
      </trkpt>
      <trkpt lat="47.49652" lon="6.66221">
        <ele>463.4</ele>
        <time>2017-10-22T09:11:11.000Z</time>
      </trkpt>
      <trkpt lat="47.49655" lon="6.66215">
        <ele>463.1</ele>
        <time>2017-10-22T09:11:12.000Z</time>
      </trkpt>
      <trkpt lat="47.49658" lon="6.66209">
        <ele>463.1</ele>
        <time>2017-10-22T09:11:13.000Z</time>
      </trkpt>
      <trkpt lat="47.4966" lon="6.66204">
        <ele>463.6</ele>
        <time>2017-10-22T09:11:14.000Z</time>
      </trkpt>
      <trkpt lat="47.49662" lon="6.66198">
        <ele>463.5</ele>
        <time>2017-10-22T09:11:15.000Z</time>
      </trkpt>
      <trkpt lat="47.49663" lon="6.66191">
        <ele>463.8</ele>
        <time>2017-10-22T09:11:16.000Z</time>
      </trkpt>
      <trkpt lat="47.49665" lon="6.66184">
        <ele>464.2</ele>
        <time>2017-10-22T09:11:17.000Z</time>
      </trkpt>
      <trkpt lat="47.49666" lon="6.66179">
        <ele>465.1</ele>
        <time>2017-10-22T09:11:18.000Z</time>
      </trkpt>
      <trkpt lat="47.49667" lon="6.66173">
        <ele>465.1</ele>
        <time>2017-10-22T09:11:19.000Z</time>
      </trkpt>
      <trkpt lat="47.49668" lon="6.66168">
        <ele>465.2</ele>
        <time>2017-10-22T09:11:20.000Z</time>
      </trkpt>
      <trkpt lat="47.4967" lon="6.66162">
        <ele>465.2</ele>
        <time>2017-10-22T09:11:21.000Z</time>
      </trkpt>
      <trkpt lat="47.49672" lon="6.66157">
        <ele>465.3</ele>
        <time>2017-10-22T09:11:22.000Z</time>
      </trkpt>
      <trkpt lat="47.49674" lon="6.66152">
        <ele>465.8</ele>
        <time>2017-10-22T09:11:23.000Z</time>
      </trkpt>
      <trkpt lat="47.49678" lon="6.66147">
        <ele>465.9</ele>
        <time>2017-10-22T09:11:24.000Z</time>
      </trkpt>
      <trkpt lat="47.49681" lon="6.66142">
        <ele>465.9</ele>
        <time>2017-10-22T09:11:25.000Z</time>
      </trkpt>
      <trkpt lat="47.49684" lon="6.66137">
        <ele>465.3</ele>
        <time>2017-10-22T09:11:26.000Z</time>
      </trkpt>
      <trkpt lat="47.49687" lon="6.66132">
        <ele>465</ele>
        <time>2017-10-22T09:11:27.000Z</time>
      </trkpt>
      <trkpt lat="47.4969" lon="6.66126">
        <ele>465.2</ele>
        <time>2017-10-22T09:11:28.000Z</time>
      </trkpt>
      <trkpt lat="47.49693" lon="6.66121">
        <ele>464.6</ele>
        <time>2017-10-22T09:11:29.000Z</time>
      </trkpt>
      <trkpt lat="47.49697" lon="6.66115">
        <ele>463.7</ele>
        <time>2017-10-22T09:11:30.000Z</time>
      </trkpt>
      <trkpt lat="47.497" lon="6.66109">
        <ele>463</ele>
        <time>2017-10-22T09:11:31.000Z</time>
      </trkpt>
      <trkpt lat="47.49703" lon="6.66104">
        <ele>462.2</ele>
        <time>2017-10-22T09:11:32.000Z</time>
      </trkpt>
      <trkpt lat="47.49706" lon="6.66099">
        <ele>461.6</ele>
        <time>2017-10-22T09:11:33.000Z</time>
      </trkpt>
      <trkpt lat="47.49709" lon="6.66095">
        <ele>461.4</ele>
        <time>2017-10-22T09:11:34.000Z</time>
      </trkpt>
      <trkpt lat="47.49712" lon="6.6609">
        <ele>461.2</ele>
        <time>2017-10-22T09:11:35.000Z</time>
      </trkpt>
      <trkpt lat="47.49714" lon="6.66085">
        <ele>461.3</ele>
        <time>2017-10-22T09:11:36.000Z</time>
      </trkpt>
      <trkpt lat="47.49716" lon="6.66081">
        <ele>461.2</ele>
        <time>2017-10-22T09:11:37.000Z</time>
      </trkpt>
      <trkpt lat="47.49719" lon="6.66075">
        <ele>461</ele>
        <time>2017-10-22T09:11:38.000Z</time>
      </trkpt>
      <trkpt lat="47.49723" lon="6.66069">
        <ele>461</ele>
        <time>2017-10-22T09:11:39.000Z</time>
      </trkpt>
      <trkpt lat="47.49726" lon="6.66064">
        <ele>460.7</ele>
        <time>2017-10-22T09:11:40.000Z</time>
      </trkpt>
      <trkpt lat="47.49729" lon="6.66059">
        <ele>460.4</ele>
        <time>2017-10-22T09:11:41.000Z</time>
      </trkpt>
      <trkpt lat="47.49732" lon="6.66054">
        <ele>460.7</ele>
        <time>2017-10-22T09:11:42.000Z</time>
      </trkpt>
      <trkpt lat="47.49735" lon="6.66047">
        <ele>461.5</ele>
        <time>2017-10-22T09:11:43.000Z</time>
      </trkpt>
      <trkpt lat="47.49738" lon="6.66041">
        <ele>462</ele>
        <time>2017-10-22T09:11:44.000Z</time>
      </trkpt>
      <trkpt lat="47.4974" lon="6.66036">
        <ele>463.3</ele>
        <time>2017-10-22T09:11:45.000Z</time>
      </trkpt>
      <trkpt lat="47.49743" lon="6.66031">
        <ele>464.4</ele>
        <time>2017-10-22T09:11:46.000Z</time>
      </trkpt>
      <trkpt lat="47.49746" lon="6.66025">
        <ele>464.7</ele>
        <time>2017-10-22T09:11:47.000Z</time>
      </trkpt>
      <trkpt lat="47.49749" lon="6.66021">
        <ele>464</ele>
        <time>2017-10-22T09:11:48.000Z</time>
      </trkpt>
      <trkpt lat="47.49751" lon="6.66016">
        <ele>464</ele>
        <time>2017-10-22T09:11:49.000Z</time>
      </trkpt>
      <trkpt lat="47.49754" lon="6.6601">
        <ele>462.8</ele>
        <time>2017-10-22T09:11:50.000Z</time>
      </trkpt>
      <trkpt lat="47.49757" lon="6.66005">
        <ele>462.4</ele>
        <time>2017-10-22T09:11:51.000Z</time>
      </trkpt>
      <trkpt lat="47.49759" lon="6.65999">
        <ele>461.7</ele>
        <time>2017-10-22T09:11:52.000Z</time>
      </trkpt>
      <trkpt lat="47.49761" lon="6.65993">
        <ele>461.4</ele>
        <time>2017-10-22T09:11:53.000Z</time>
      </trkpt>
      <trkpt lat="47.49764" lon="6.65986">
        <ele>461.4</ele>
        <time>2017-10-22T09:11:54.000Z</time>
      </trkpt>
      <trkpt lat="47.49768" lon="6.65981">
        <ele>461.3</ele>
        <time>2017-10-22T09:11:55.000Z</time>
      </trkpt>
      <trkpt lat="47.49771" lon="6.65975">
        <ele>461.4</ele>
        <time>2017-10-22T09:11:56.000Z</time>
      </trkpt>
      <trkpt lat="47.49774" lon="6.6597">
        <ele>462.2</ele>
        <time>2017-10-22T09:11:57.000Z</time>
      </trkpt>
      <trkpt lat="47.49778" lon="6.65965">
        <ele>462.7</ele>
        <time>2017-10-22T09:11:58.000Z</time>
      </trkpt>
      <trkpt lat="47.49781" lon="6.65959">
        <ele>462.3</ele>
        <time>2017-10-22T09:11:59.000Z</time>
      </trkpt>
      <trkpt lat="47.49785" lon="6.65952">
        <ele>461.8</ele>
        <time>2017-10-22T09:12:00.000Z</time>
      </trkpt>
      <trkpt lat="47.49788" lon="6.65945">
        <ele>461.7</ele>
        <time>2017-10-22T09:12:01.000Z</time>
      </trkpt>
      <trkpt lat="47.4979" lon="6.65939">
        <ele>461.1</ele>
        <time>2017-10-22T09:12:02.000Z</time>
      </trkpt>
      <trkpt lat="47.49792" lon="6.65934">
        <ele>460.9</ele>
        <time>2017-10-22T09:12:03.000Z</time>
      </trkpt>
      <trkpt lat="47.49794" lon="6.65927">
        <ele>460.9</ele>
        <time>2017-10-22T09:12:04.000Z</time>
      </trkpt>
      <trkpt lat="47.49796" lon="6.6592">
        <ele>460.7</ele>
        <time>2017-10-22T09:12:05.000Z</time>
      </trkpt>
      <trkpt lat="47.49799" lon="6.65913">
        <ele>460.2</ele>
        <time>2017-10-22T09:12:06.000Z</time>
      </trkpt>
      <trkpt lat="47.49801" lon="6.65905">
        <ele>459.8</ele>
        <time>2017-10-22T09:12:07.000Z</time>
      </trkpt>
      <trkpt lat="47.49803" lon="6.65896">
        <ele>459.4</ele>
        <time>2017-10-22T09:12:08.000Z</time>
      </trkpt>
      <trkpt lat="47.49805" lon="6.65887">
        <ele>459.4</ele>
        <time>2017-10-22T09:12:09.000Z</time>
      </trkpt>
      <trkpt lat="47.49808" lon="6.6588">
        <ele>459.6</ele>
        <time>2017-10-22T09:12:10.000Z</time>
      </trkpt>
      <trkpt lat="47.49809" lon="6.65872">
        <ele>459.2</ele>
        <time>2017-10-22T09:12:11.000Z</time>
      </trkpt>
      <trkpt lat="47.49811" lon="6.65864">
        <ele>459.1</ele>
        <time>2017-10-22T09:12:12.000Z</time>
      </trkpt>
      <trkpt lat="47.49812" lon="6.65857">
        <ele>459.7</ele>
        <time>2017-10-22T09:12:13.000Z</time>
      </trkpt>
      <trkpt lat="47.49814" lon="6.6585">
        <ele>460.5</ele>
        <time>2017-10-22T09:12:14.000Z</time>
      </trkpt>
      <trkpt lat="47.49816" lon="6.65842">
        <ele>460.6</ele>
        <time>2017-10-22T09:12:15.000Z</time>
      </trkpt>
      <trkpt lat="47.49817" lon="6.65835">
        <ele>460.5</ele>
        <time>2017-10-22T09:12:16.000Z</time>
      </trkpt>
      <trkpt lat="47.49819" lon="6.65828">
        <ele>461.2</ele>
        <time>2017-10-22T09:12:17.000Z</time>
      </trkpt>
      <trkpt lat="47.49821" lon="6.65821">
        <ele>462.1</ele>
        <time>2017-10-22T09:12:18.000Z</time>
      </trkpt>
      <trkpt lat="47.49822" lon="6.65814">
        <ele>462.8</ele>
        <time>2017-10-22T09:12:19.000Z</time>
      </trkpt>
      <trkpt lat="47.49824" lon="6.65807">
        <ele>463.3</ele>
        <time>2017-10-22T09:12:20.000Z</time>
      </trkpt>
      <trkpt lat="47.49825" lon="6.65801">
        <ele>464</ele>
        <time>2017-10-22T09:12:21.000Z</time>
      </trkpt>
      <trkpt lat="47.49827" lon="6.65794">
        <ele>464.5</ele>
        <time>2017-10-22T09:12:22.000Z</time>
      </trkpt>
      <trkpt lat="47.49829" lon="6.65788">
        <ele>464.7</ele>
        <time>2017-10-22T09:12:23.000Z</time>
      </trkpt>
      <trkpt lat="47.49831" lon="6.6578">
        <ele>464.7</ele>
        <time>2017-10-22T09:12:24.000Z</time>
      </trkpt>
      <trkpt lat="47.49834" lon="6.65773">
        <ele>464.8</ele>
        <time>2017-10-22T09:12:25.000Z</time>
      </trkpt>
      <trkpt lat="47.49836" lon="6.65767">
        <ele>465</ele>
        <time>2017-10-22T09:12:26.000Z</time>
      </trkpt>
      <trkpt lat="47.49838" lon="6.6576">
        <ele>465.2</ele>
        <time>2017-10-22T09:12:27.000Z</time>
      </trkpt>
      <trkpt lat="47.4984" lon="6.65753">
        <ele>465.4</ele>
        <time>2017-10-22T09:12:28.000Z</time>
      </trkpt>
      <trkpt lat="47.49842" lon="6.65747">
        <ele>465.2</ele>
        <time>2017-10-22T09:12:29.000Z</time>
      </trkpt>
      <trkpt lat="47.49845" lon="6.65741">
        <ele>465</ele>
        <time>2017-10-22T09:12:30.000Z</time>
      </trkpt>
      <trkpt lat="47.49847" lon="6.65734">
        <ele>464.7</ele>
        <time>2017-10-22T09:12:31.000Z</time>
      </trkpt>
      <trkpt lat="47.49849" lon="6.65728">
        <ele>465.1</ele>
        <time>2017-10-22T09:12:32.000Z</time>
      </trkpt>
      <trkpt lat="47.49851" lon="6.6572">
        <ele>465.4</ele>
        <time>2017-10-22T09:12:33.000Z</time>
      </trkpt>
      <trkpt lat="47.49854" lon="6.65713">
        <ele>466</ele>
        <time>2017-10-22T09:12:34.000Z</time>
      </trkpt>
      <trkpt lat="47.49855" lon="6.65706">
        <ele>466.4</ele>
        <time>2017-10-22T09:12:35.000Z</time>
      </trkpt>
      <trkpt lat="47.49857" lon="6.65698">
        <ele>466.7</ele>
        <time>2017-10-22T09:12:36.000Z</time>
      </trkpt>
      <trkpt lat="47.49859" lon="6.65691">
        <ele>466.4</ele>
        <time>2017-10-22T09:12:37.000Z</time>
      </trkpt>
      <trkpt lat="47.49861" lon="6.65683">
        <ele>466.1</ele>
        <time>2017-10-22T09:12:38.000Z</time>
      </trkpt>
      <trkpt lat="47.49862" lon="6.65677">
        <ele>465.4</ele>
        <time>2017-10-22T09:12:39.000Z</time>
      </trkpt>
      <trkpt lat="47.49864" lon="6.6567">
        <ele>465</ele>
        <time>2017-10-22T09:12:40.000Z</time>
      </trkpt>
      <trkpt lat="47.49866" lon="6.65664">
        <ele>464.9</ele>
        <time>2017-10-22T09:12:41.000Z</time>
      </trkpt>
      <trkpt lat="47.49867" lon="6.65658">
        <ele>464.9</ele>
        <time>2017-10-22T09:12:42.000Z</time>
      </trkpt>
      <trkpt lat="47.49869" lon="6.65651">
        <ele>464.5</ele>
        <time>2017-10-22T09:12:43.000Z</time>
      </trkpt>
      <trkpt lat="47.49871" lon="6.65644">
        <ele>463.6</ele>
        <time>2017-10-22T09:12:44.000Z</time>
      </trkpt>
      <trkpt lat="47.49873" lon="6.65637">
        <ele>463.4</ele>
        <time>2017-10-22T09:12:45.000Z</time>
      </trkpt>
      <trkpt lat="47.49874" lon="6.6563">
        <ele>462.8</ele>
        <time>2017-10-22T09:12:46.000Z</time>
      </trkpt>
      <trkpt lat="47.49875" lon="6.65625">
        <ele>462.3</ele>
        <time>2017-10-22T09:12:47.000Z</time>
      </trkpt>
      <trkpt lat="47.49877" lon="6.65618">
        <ele>462.5</ele>
        <time>2017-10-22T09:12:48.000Z</time>
      </trkpt>
      <trkpt lat="47.49879" lon="6.65612">
        <ele>462.8</ele>
        <time>2017-10-22T09:12:49.000Z</time>
      </trkpt>
      <trkpt lat="47.49881" lon="6.65606">
        <ele>463.1</ele>
        <time>2017-10-22T09:12:50.000Z</time>
      </trkpt>
      <trkpt lat="47.49883" lon="6.656">
        <ele>463.1</ele>
        <time>2017-10-22T09:12:51.000Z</time>
      </trkpt>
      <trkpt lat="47.49885" lon="6.65593">
        <ele>463.4</ele>
        <time>2017-10-22T09:12:52.000Z</time>
      </trkpt>
      <trkpt lat="47.49888" lon="6.65586">
        <ele>463.5</ele>
        <time>2017-10-22T09:12:53.000Z</time>
      </trkpt>
      <trkpt lat="47.4989" lon="6.6558">
        <ele>463.5</ele>
        <time>2017-10-22T09:12:54.000Z</time>
      </trkpt>
      <trkpt lat="47.49893" lon="6.65574">
        <ele>462.8</ele>
        <time>2017-10-22T09:12:55.000Z</time>
      </trkpt>
      <trkpt lat="47.49895" lon="6.65569">
        <ele>462.3</ele>
        <time>2017-10-22T09:12:56.000Z</time>
      </trkpt>
      <trkpt lat="47.49898" lon="6.65562">
        <ele>462.2</ele>
        <time>2017-10-22T09:12:57.000Z</time>
      </trkpt>
      <trkpt lat="47.49902" lon="6.65557">
        <ele>462.8</ele>
        <time>2017-10-22T09:12:58.000Z</time>
      </trkpt>
      <trkpt lat="47.49905" lon="6.65551">
        <ele>463.3</ele>
        <time>2017-10-22T09:12:59.000Z</time>
      </trkpt>
      <trkpt lat="47.49908" lon="6.65545">
        <ele>463.4</ele>
        <time>2017-10-22T09:13:00.000Z</time>
      </trkpt>
      <trkpt lat="47.49911" lon="6.65538">
        <ele>462.7</ele>
        <time>2017-10-22T09:13:01.000Z</time>
      </trkpt>
      <trkpt lat="47.49914" lon="6.65532">
        <ele>462.3</ele>
        <time>2017-10-22T09:13:02.000Z</time>
      </trkpt>
      <trkpt lat="47.49916" lon="6.65526">
        <ele>462</ele>
        <time>2017-10-22T09:13:03.000Z</time>
      </trkpt>
      <trkpt lat="47.49919" lon="6.65521">
        <ele>461.9</ele>
        <time>2017-10-22T09:13:04.000Z</time>
      </trkpt>
      <trkpt lat="47.49922" lon="6.65514">
        <ele>462.1</ele>
        <time>2017-10-22T09:13:05.000Z</time>
      </trkpt>
      <trkpt lat="47.49925" lon="6.65509">
        <ele>462.4</ele>
        <time>2017-10-22T09:13:06.000Z</time>
      </trkpt>
      <trkpt lat="47.49927" lon="6.65503">
        <ele>462.6</ele>
        <time>2017-10-22T09:13:07.000Z</time>
      </trkpt>
      <trkpt lat="47.4993" lon="6.65496">
        <ele>462.9</ele>
        <time>2017-10-22T09:13:08.000Z</time>
      </trkpt>
      <trkpt lat="47.49933" lon="6.6549">
        <ele>463.1</ele>
        <time>2017-10-22T09:13:09.000Z</time>
      </trkpt>
      <trkpt lat="47.49936" lon="6.65484">
        <ele>463.2</ele>
        <time>2017-10-22T09:13:10.000Z</time>
      </trkpt>
      <trkpt lat="47.49939" lon="6.65479">
        <ele>463.4</ele>
        <time>2017-10-22T09:13:11.000Z</time>
      </trkpt>
      <trkpt lat="47.49942" lon="6.65474">
        <ele>463.7</ele>
        <time>2017-10-22T09:13:12.000Z</time>
      </trkpt>
      <trkpt lat="47.49945" lon="6.65468">
        <ele>463.8</ele>
        <time>2017-10-22T09:13:13.000Z</time>
      </trkpt>
      <trkpt lat="47.49948" lon="6.65463">
        <ele>463.9</ele>
        <time>2017-10-22T09:13:14.000Z</time>
      </trkpt>
      <trkpt lat="47.49951" lon="6.65458">
        <ele>463.8</ele>
        <time>2017-10-22T09:13:15.000Z</time>
      </trkpt>
      <trkpt lat="47.49954" lon="6.65452">
        <ele>464.2</ele>
        <time>2017-10-22T09:13:16.000Z</time>
      </trkpt>
      <trkpt lat="47.49958" lon="6.65446">
        <ele>464.1</ele>
        <time>2017-10-22T09:13:17.000Z</time>
      </trkpt>
      <trkpt lat="47.49961" lon="6.65441">
        <ele>463.8</ele>
        <time>2017-10-22T09:13:18.000Z</time>
      </trkpt>
      <trkpt lat="47.49964" lon="6.65436">
        <ele>464.2</ele>
        <time>2017-10-22T09:13:19.000Z</time>
      </trkpt>
      <trkpt lat="47.49968" lon="6.65431">
        <ele>464.5</ele>
        <time>2017-10-22T09:13:20.000Z</time>
      </trkpt>
      <trkpt lat="47.49971" lon="6.65426">
        <ele>464.6</ele>
        <time>2017-10-22T09:13:21.000Z</time>
      </trkpt>
      <trkpt lat="47.49974" lon="6.65421">
        <ele>464.6</ele>
        <time>2017-10-22T09:13:22.000Z</time>
      </trkpt>
      <trkpt lat="47.49977" lon="6.65416">
        <ele>464.9</ele>
        <time>2017-10-22T09:13:23.000Z</time>
      </trkpt>
      <trkpt lat="47.4998" lon="6.65411">
        <ele>464.8</ele>
        <time>2017-10-22T09:13:24.000Z</time>
      </trkpt>
      <trkpt lat="47.49984" lon="6.65406">
        <ele>464.5</ele>
        <time>2017-10-22T09:13:25.000Z</time>
      </trkpt>
      <trkpt lat="47.49987" lon="6.65401">
        <ele>464.3</ele>
        <time>2017-10-22T09:13:26.000Z</time>
      </trkpt>
      <trkpt lat="47.49991" lon="6.65396">
        <ele>464.8</ele>
        <time>2017-10-22T09:13:27.000Z</time>
      </trkpt>
      <trkpt lat="47.49995" lon="6.65391">
        <ele>465.2</ele>
        <time>2017-10-22T09:13:28.000Z</time>
      </trkpt>
      <trkpt lat="47.49998" lon="6.65386">
        <ele>465.4</ele>
        <time>2017-10-22T09:13:29.000Z</time>
      </trkpt>
      <trkpt lat="47.50002" lon="6.65382">
        <ele>465.9</ele>
        <time>2017-10-22T09:13:30.000Z</time>
      </trkpt>
      <trkpt lat="47.50005" lon="6.65378">
        <ele>466.1</ele>
        <time>2017-10-22T09:13:31.000Z</time>
      </trkpt>
      <trkpt lat="47.50009" lon="6.65373">
        <ele>466</ele>
        <time>2017-10-22T09:13:32.000Z</time>
      </trkpt>
      <trkpt lat="47.50013" lon="6.65368">
        <ele>466.4</ele>
        <time>2017-10-22T09:13:33.000Z</time>
      </trkpt>
      <trkpt lat="47.50016" lon="6.65364">
        <ele>465.5</ele>
        <time>2017-10-22T09:13:34.000Z</time>
      </trkpt>
      <trkpt lat="47.50019" lon="6.6536">
        <ele>464.4</ele>
        <time>2017-10-22T09:13:35.000Z</time>
      </trkpt>
      <trkpt lat="47.50023" lon="6.65356">
        <ele>463.2</ele>
        <time>2017-10-22T09:13:36.000Z</time>
      </trkpt>
      <trkpt lat="47.50027" lon="6.65351">
        <ele>461.8</ele>
        <time>2017-10-22T09:13:37.000Z</time>
      </trkpt>
      <trkpt lat="47.50031" lon="6.65347">
        <ele>461</ele>
        <time>2017-10-22T09:13:38.000Z</time>
      </trkpt>
      <trkpt lat="47.50035" lon="6.65341">
        <ele>459.9</ele>
        <time>2017-10-22T09:13:39.000Z</time>
      </trkpt>
      <trkpt lat="47.50039" lon="6.65336">
        <ele>459.8</ele>
        <time>2017-10-22T09:13:40.000Z</time>
      </trkpt>
      <trkpt lat="47.50044" lon="6.65331">
        <ele>459.8</ele>
        <time>2017-10-22T09:13:41.000Z</time>
      </trkpt>
      <trkpt lat="47.50048" lon="6.65326">
        <ele>459.7</ele>
        <time>2017-10-22T09:13:42.000Z</time>
      </trkpt>
      <trkpt lat="47.50053" lon="6.6532">
        <ele>459.8</ele>
        <time>2017-10-22T09:13:43.000Z</time>
      </trkpt>
      <trkpt lat="47.50057" lon="6.65316">
        <ele>460.2</ele>
        <time>2017-10-22T09:13:44.000Z</time>
      </trkpt>
      <trkpt lat="47.50066" lon="6.65306">
        <ele>461.3</ele>
        <time>2017-10-22T09:13:46.000Z</time>
      </trkpt>
      <trkpt lat="47.50071" lon="6.65301">
        <ele>461.8</ele>
        <time>2017-10-22T09:13:47.000Z</time>
      </trkpt>
      <trkpt lat="47.50075" lon="6.65296">
        <ele>462</ele>
        <time>2017-10-22T09:13:48.000Z</time>
      </trkpt>
      <trkpt lat="47.5008" lon="6.6529">
        <ele>461.4</ele>
        <time>2017-10-22T09:13:49.000Z</time>
      </trkpt>
      <trkpt lat="47.50084" lon="6.65285">
        <ele>461.1</ele>
        <time>2017-10-22T09:13:50.000Z</time>
      </trkpt>
      <trkpt lat="47.50089" lon="6.65278">
        <ele>460.9</ele>
        <time>2017-10-22T09:13:51.000Z</time>
      </trkpt>
      <trkpt lat="47.50095" lon="6.65272">
        <ele>461.1</ele>
        <time>2017-10-22T09:13:52.000Z</time>
      </trkpt>
      <trkpt lat="47.50099" lon="6.65266">
        <ele>461.2</ele>
        <time>2017-10-22T09:13:53.000Z</time>
      </trkpt>
      <trkpt lat="47.50103" lon="6.65261">
        <ele>461.6</ele>
        <time>2017-10-22T09:13:54.000Z</time>
      </trkpt>
      <trkpt lat="47.50107" lon="6.65255">
        <ele>461.6</ele>
        <time>2017-10-22T09:13:55.000Z</time>
      </trkpt>
      <trkpt lat="47.50112" lon="6.6525">
        <ele>460.9</ele>
        <time>2017-10-22T09:13:56.000Z</time>
      </trkpt>
      <trkpt lat="47.50116" lon="6.65245">
        <ele>459.7</ele>
        <time>2017-10-22T09:13:57.000Z</time>
      </trkpt>
      <trkpt lat="47.50119" lon="6.6524">
        <ele>458.6</ele>
        <time>2017-10-22T09:13:58.000Z</time>
      </trkpt>
      <trkpt lat="47.50123" lon="6.65236">
        <ele>457.7</ele>
        <time>2017-10-22T09:13:59.000Z</time>
      </trkpt>
      <trkpt lat="47.50127" lon="6.65231">
        <ele>456.9</ele>
        <time>2017-10-22T09:14:00.000Z</time>
      </trkpt>
      <trkpt lat="47.50132" lon="6.65225">
        <ele>457.1</ele>
        <time>2017-10-22T09:14:01.000Z</time>
      </trkpt>
      <trkpt lat="47.50138" lon="6.65219">
        <ele>457.6</ele>
        <time>2017-10-22T09:14:02.000Z</time>
      </trkpt>
      <trkpt lat="47.50143" lon="6.65214">
        <ele>458.2</ele>
        <time>2017-10-22T09:14:03.000Z</time>
      </trkpt>
      <trkpt lat="47.50148" lon="6.65208">
        <ele>457.8</ele>
        <time>2017-10-22T09:14:04.000Z</time>
      </trkpt>
      <trkpt lat="47.50152" lon="6.65203">
        <ele>457.9</ele>
        <time>2017-10-22T09:14:05.000Z</time>
      </trkpt>
      <trkpt lat="47.50156" lon="6.65198">
        <ele>457.7</ele>
        <time>2017-10-22T09:14:06.000Z</time>
      </trkpt>
      <trkpt lat="47.50161" lon="6.65193">
        <ele>457.7</ele>
        <time>2017-10-22T09:14:07.000Z</time>
      </trkpt>
      <trkpt lat="47.50165" lon="6.65189">
        <ele>457.5</ele>
        <time>2017-10-22T09:14:08.000Z</time>
      </trkpt>
      <trkpt lat="47.50169" lon="6.65184">
        <ele>457</ele>
        <time>2017-10-22T09:14:09.000Z</time>
      </trkpt>
      <trkpt lat="47.50173" lon="6.65179">
        <ele>456.3</ele>
        <time>2017-10-22T09:14:10.000Z</time>
      </trkpt>
      <trkpt lat="47.50177" lon="6.65174">
        <ele>455.7</ele>
        <time>2017-10-22T09:14:11.000Z</time>
      </trkpt>
      <trkpt lat="47.50181" lon="6.65169">
        <ele>455.6</ele>
        <time>2017-10-22T09:14:12.000Z</time>
      </trkpt>
      <trkpt lat="47.50186" lon="6.65164">
        <ele>455.2</ele>
        <time>2017-10-22T09:14:13.000Z</time>
      </trkpt>
      <trkpt lat="47.5019" lon="6.65158">
        <ele>454.5</ele>
        <time>2017-10-22T09:14:14.000Z</time>
      </trkpt>
      <trkpt lat="47.50195" lon="6.65153">
        <ele>452.9</ele>
        <time>2017-10-22T09:14:15.000Z</time>
      </trkpt>
      <trkpt lat="47.50198" lon="6.65148">
        <ele>451.2</ele>
        <time>2017-10-22T09:14:16.000Z</time>
      </trkpt>
      <trkpt lat="47.50202" lon="6.65142">
        <ele>450.6</ele>
        <time>2017-10-22T09:14:17.000Z</time>
      </trkpt>
      <trkpt lat="47.50206" lon="6.65136">
        <ele>450.7</ele>
        <time>2017-10-22T09:14:18.000Z</time>
      </trkpt>
      <trkpt lat="47.5021" lon="6.65131">
        <ele>449.7</ele>
        <time>2017-10-22T09:14:19.000Z</time>
      </trkpt>
      <trkpt lat="47.50213" lon="6.65127">
        <ele>449.3</ele>
        <time>2017-10-22T09:14:20.000Z</time>
      </trkpt>
      <trkpt lat="47.50218" lon="6.65122">
        <ele>449</ele>
        <time>2017-10-22T09:14:21.000Z</time>
      </trkpt>
      <trkpt lat="47.50222" lon="6.65117">
        <ele>447.8</ele>
        <time>2017-10-22T09:14:22.000Z</time>
      </trkpt>
      <trkpt lat="47.50225" lon="6.65111">
        <ele>447.2</ele>
        <time>2017-10-22T09:14:23.000Z</time>
      </trkpt>
      <trkpt lat="47.50229" lon="6.65107">
        <ele>445.8</ele>
        <time>2017-10-22T09:14:24.000Z</time>
      </trkpt>
      <trkpt lat="47.50231" lon="6.65103">
        <ele>445.6</ele>
        <time>2017-10-22T09:14:25.000Z</time>
      </trkpt>
      <trkpt lat="47.50234" lon="6.651">
        <ele>445.6</ele>
        <time>2017-10-22T09:14:26.000Z</time>
      </trkpt>
      <trkpt lat="47.50238" lon="6.65095">
        <ele>445.7</ele>
        <time>2017-10-22T09:14:27.000Z</time>
      </trkpt>
      <trkpt lat="47.50242" lon="6.65091">
        <ele>445.9</ele>
        <time>2017-10-22T09:14:28.000Z</time>
      </trkpt>
      <trkpt lat="47.50245" lon="6.65085">
        <ele>445.7</ele>
        <time>2017-10-22T09:14:29.000Z</time>
      </trkpt>
      <trkpt lat="47.50249" lon="6.65079">
        <ele>445.9</ele>
        <time>2017-10-22T09:14:30.000Z</time>
      </trkpt>
      <trkpt lat="47.50253" lon="6.65073">
        <ele>446.4</ele>
        <time>2017-10-22T09:14:31.000Z</time>
      </trkpt>
      <trkpt lat="47.50255" lon="6.65067">
        <ele>446.4</ele>
        <time>2017-10-22T09:14:32.000Z</time>
      </trkpt>
      <trkpt lat="47.50257" lon="6.6506">
        <ele>446.4</ele>
        <time>2017-10-22T09:14:33.000Z</time>
      </trkpt>
      <trkpt lat="47.50258" lon="6.65055">
        <ele>446.5</ele>
        <time>2017-10-22T09:14:34.000Z</time>
      </trkpt>
      <trkpt lat="47.50258" lon="6.65048">
        <ele>446.6</ele>
        <time>2017-10-22T09:14:35.000Z</time>
      </trkpt>
      <trkpt lat="47.50259" lon="6.65041">
        <ele>448</ele>
        <time>2017-10-22T09:14:36.000Z</time>
      </trkpt>
      <trkpt lat="47.5026" lon="6.65035">
        <ele>448.1</ele>
        <time>2017-10-22T09:14:37.000Z</time>
      </trkpt>
      <trkpt lat="47.50261" lon="6.65028">
        <ele>449</ele>
        <time>2017-10-22T09:14:38.000Z</time>
      </trkpt>
      <trkpt lat="47.50263" lon="6.65021">
        <ele>449.2</ele>
        <time>2017-10-22T09:14:39.000Z</time>
      </trkpt>
      <trkpt lat="47.50265" lon="6.65015">
        <ele>449</ele>
        <time>2017-10-22T09:14:40.000Z</time>
      </trkpt>
      <trkpt lat="47.50266" lon="6.6501">
        <ele>449.4</ele>
        <time>2017-10-22T09:14:41.000Z</time>
      </trkpt>
      <trkpt lat="47.50268" lon="6.65005">
        <ele>450</ele>
        <time>2017-10-22T09:14:42.000Z</time>
      </trkpt>
      <trkpt lat="47.5027" lon="6.65001">
        <ele>450.1</ele>
        <time>2017-10-22T09:14:43.000Z</time>
      </trkpt>
      <trkpt lat="47.50273" lon="6.64995">
        <ele>450.2</ele>
        <time>2017-10-22T09:14:44.000Z</time>
      </trkpt>
      <trkpt lat="47.50277" lon="6.64984">
        <ele>450.1</ele>
        <time>2017-10-22T09:14:46.000Z</time>
      </trkpt>
      <trkpt lat="47.5028" lon="6.64977">
        <ele>449.8</ele>
        <time>2017-10-22T09:14:47.000Z</time>
      </trkpt>
      <trkpt lat="47.50282" lon="6.64971">
        <ele>449</ele>
        <time>2017-10-22T09:14:48.000Z</time>
      </trkpt>
      <trkpt lat="47.50285" lon="6.64965">
        <ele>448.3</ele>
        <time>2017-10-22T09:14:49.000Z</time>
      </trkpt>
      <trkpt lat="47.50288" lon="6.64959">
        <ele>448</ele>
        <time>2017-10-22T09:14:50.000Z</time>
      </trkpt>
      <trkpt lat="47.50291" lon="6.64954">
        <ele>448.1</ele>
        <time>2017-10-22T09:14:51.000Z</time>
      </trkpt>
      <trkpt lat="47.50294" lon="6.6495">
        <ele>448.6</ele>
        <time>2017-10-22T09:14:52.000Z</time>
      </trkpt>
      <trkpt lat="47.50298" lon="6.64946">
        <ele>449.5</ele>
        <time>2017-10-22T09:14:53.000Z</time>
      </trkpt>
      <trkpt lat="47.50302" lon="6.64941">
        <ele>450.8</ele>
        <time>2017-10-22T09:14:54.000Z</time>
      </trkpt>
      <trkpt lat="47.50306" lon="6.64937">
        <ele>451</ele>
        <time>2017-10-22T09:14:55.000Z</time>
      </trkpt>
      <trkpt lat="47.5031" lon="6.64933">
        <ele>451</ele>
        <time>2017-10-22T09:14:56.000Z</time>
      </trkpt>
      <trkpt lat="47.50314" lon="6.64928">
        <ele>450.7</ele>
        <time>2017-10-22T09:14:57.000Z</time>
      </trkpt>
      <trkpt lat="47.50318" lon="6.64923">
        <ele>450.7</ele>
        <time>2017-10-22T09:14:58.000Z</time>
      </trkpt>
      <trkpt lat="47.50322" lon="6.64918">
        <ele>451</ele>
        <time>2017-10-22T09:14:59.000Z</time>
      </trkpt>
      <trkpt lat="47.50326" lon="6.64913">
        <ele>451</ele>
        <time>2017-10-22T09:15:00.000Z</time>
      </trkpt>
      <trkpt lat="47.50331" lon="6.64908">
        <ele>451.2</ele>
        <time>2017-10-22T09:15:01.000Z</time>
      </trkpt>
      <trkpt lat="47.50336" lon="6.64903">
        <ele>451.4</ele>
        <time>2017-10-22T09:15:02.000Z</time>
      </trkpt>
      <trkpt lat="47.50339" lon="6.64898">
        <ele>451.5</ele>
        <time>2017-10-22T09:15:03.000Z</time>
      </trkpt>
      <trkpt lat="47.50344" lon="6.64893">
        <ele>451.6</ele>
        <time>2017-10-22T09:15:04.000Z</time>
      </trkpt>
      <trkpt lat="47.50348" lon="6.64889">
        <ele>451.1</ele>
        <time>2017-10-22T09:15:05.000Z</time>
      </trkpt>
      <trkpt lat="47.50352" lon="6.64884">
        <ele>450.2</ele>
        <time>2017-10-22T09:15:06.000Z</time>
      </trkpt>
      <trkpt lat="47.50355" lon="6.64881">
        <ele>450.1</ele>
        <time>2017-10-22T09:15:07.000Z</time>
      </trkpt>
      <trkpt lat="47.50358" lon="6.64877">
        <ele>450.1</ele>
        <time>2017-10-22T09:15:08.000Z</time>
      </trkpt>
      <trkpt lat="47.50362" lon="6.64873">
        <ele>450.4</ele>
        <time>2017-10-22T09:15:09.000Z</time>
      </trkpt>
      <trkpt lat="47.50366" lon="6.64869">
        <ele>451.1</ele>
        <time>2017-10-22T09:15:10.000Z</time>
      </trkpt>
      <trkpt lat="47.50369" lon="6.64865">
        <ele>451.7</ele>
        <time>2017-10-22T09:15:11.000Z</time>
      </trkpt>
      <trkpt lat="47.50373" lon="6.64862">
        <ele>452</ele>
        <time>2017-10-22T09:15:12.000Z</time>
      </trkpt>
      <trkpt lat="47.50377" lon="6.64858">
        <ele>451.5</ele>
        <time>2017-10-22T09:15:13.000Z</time>
      </trkpt>
      <trkpt lat="47.50381" lon="6.64855">
        <ele>451</ele>
        <time>2017-10-22T09:15:14.000Z</time>
      </trkpt>
      <trkpt lat="47.50385" lon="6.64852">
        <ele>450.8</ele>
        <time>2017-10-22T09:15:15.000Z</time>
      </trkpt>
      <trkpt lat="47.50389" lon="6.64849">
        <ele>450.5</ele>
        <time>2017-10-22T09:15:16.000Z</time>
      </trkpt>
      <trkpt lat="47.50393" lon="6.64846">
        <ele>449.8</ele>
        <time>2017-10-22T09:15:17.000Z</time>
      </trkpt>
      <trkpt lat="47.50397" lon="6.64844">
        <ele>449.7</ele>
        <time>2017-10-22T09:15:18.000Z</time>
      </trkpt>
      <trkpt lat="47.504" lon="6.64841">
        <ele>449.2</ele>
        <time>2017-10-22T09:15:19.000Z</time>
      </trkpt>
      <trkpt lat="47.50404" lon="6.64839">
        <ele>448.1</ele>
        <time>2017-10-22T09:15:20.000Z</time>
      </trkpt>
      <trkpt lat="47.50408" lon="6.64836">
        <ele>446.7</ele>
        <time>2017-10-22T09:15:21.000Z</time>
      </trkpt>
      <trkpt lat="47.50412" lon="6.64833">
        <ele>446</ele>
        <time>2017-10-22T09:15:22.000Z</time>
      </trkpt>
      <trkpt lat="47.50416" lon="6.64831">
        <ele>445.2</ele>
        <time>2017-10-22T09:15:23.000Z</time>
      </trkpt>
      <trkpt lat="47.50419" lon="6.64827">
        <ele>444</ele>
        <time>2017-10-22T09:15:24.000Z</time>
      </trkpt>
      <trkpt lat="47.50422" lon="6.64823">
        <ele>442.5</ele>
        <time>2017-10-22T09:15:25.000Z</time>
      </trkpt>
      <trkpt lat="47.50426" lon="6.6482">
        <ele>441.5</ele>
        <time>2017-10-22T09:15:26.000Z</time>
      </trkpt>
      <trkpt lat="47.50431" lon="6.64815">
        <ele>441</ele>
        <time>2017-10-22T09:15:27.000Z</time>
      </trkpt>
      <trkpt lat="47.50434" lon="6.64812">
        <ele>440.8</ele>
        <time>2017-10-22T09:15:28.000Z</time>
      </trkpt>
      <trkpt lat="47.50437" lon="6.64809">
        <ele>440.8</ele>
        <time>2017-10-22T09:15:29.000Z</time>
      </trkpt>
      <trkpt lat="47.5044" lon="6.64805">
        <ele>440.7</ele>
        <time>2017-10-22T09:15:30.000Z</time>
      </trkpt>
      <trkpt lat="47.50443" lon="6.64802">
        <ele>440.7</ele>
        <time>2017-10-22T09:15:31.000Z</time>
      </trkpt>
      <trkpt lat="47.50445" lon="6.64798">
        <ele>440.6</ele>
        <time>2017-10-22T09:15:32.000Z</time>
      </trkpt>
      <trkpt lat="47.50449" lon="6.64795">
        <ele>440.6</ele>
        <time>2017-10-22T09:15:33.000Z</time>
      </trkpt>
      <trkpt lat="47.50452" lon="6.64792">
        <ele>440.5</ele>
        <time>2017-10-22T09:15:34.000Z</time>
      </trkpt>
      <trkpt lat="47.50458" lon="6.64789">
        <ele>440.4</ele>
        <time>2017-10-22T09:15:35.000Z</time>
      </trkpt>
      <trkpt lat="47.50462" lon="6.64787">
        <ele>440</ele>
        <time>2017-10-22T09:15:37.000Z</time>
      </trkpt>
      <trkpt lat="47.50463" lon="6.64787">
        <ele>439.9</ele>
        <time>2017-10-22T09:15:38.000Z</time>
      </trkpt>
      <trkpt lat="47.50464" lon="6.64794">
        <ele>439.4</ele>
        <time>2017-10-22T09:15:41.000Z</time>
      </trkpt>
      <trkpt lat="47.50465" lon="6.64796">
        <ele>439.2</ele>
        <time>2017-10-22T09:15:42.000Z</time>
      </trkpt>
      <trkpt lat="47.50466" lon="6.64799">
        <ele>439.1</ele>
        <time>2017-10-22T09:15:43.000Z</time>
      </trkpt>
      <trkpt lat="47.50468" lon="6.64806">
        <ele>438.8</ele>
        <time>2017-10-22T09:15:44.000Z</time>
      </trkpt>
      <trkpt lat="47.5047" lon="6.64813">
        <ele>438.5</ele>
        <time>2017-10-22T09:15:45.000Z</time>
      </trkpt>
      <trkpt lat="47.50471" lon="6.64817">
        <ele>438.1</ele>
        <time>2017-10-22T09:15:47.000Z</time>
      </trkpt>
      <trkpt lat="47.50472" lon="6.64821">
        <ele>437.9</ele>
        <time>2017-10-22T09:15:48.000Z</time>
      </trkpt>
      <trkpt lat="47.50474" lon="6.64826">
        <ele>435.7</ele>
        <time>2017-10-22T09:15:49.000Z</time>
      </trkpt>
      <trkpt lat="47.50475" lon="6.64832">
        <ele>433.8</ele>
        <time>2017-10-22T09:15:50.000Z</time>
      </trkpt>
      <trkpt lat="47.50475" lon="6.64837">
        <ele>433.5</ele>
        <time>2017-10-22T09:15:52.000Z</time>
      </trkpt>
      <trkpt lat="47.50477" lon="6.64842">
        <ele>433.3</ele>
        <time>2017-10-22T09:15:53.000Z</time>
      </trkpt>
      <trkpt lat="47.50482" lon="6.64846">
        <ele>430.9</ele>
        <time>2017-10-22T09:15:54.000Z</time>
      </trkpt>
      <trkpt lat="47.50487" lon="6.6485">
        <ele>428.5</ele>
        <time>2017-10-22T09:15:55.000Z</time>
      </trkpt>
      <trkpt lat="47.50494" lon="6.64859">
        <ele>426.7</ele>
        <time>2017-10-22T09:15:56.000Z</time>
      </trkpt>
      <trkpt lat="47.505" lon="6.64866">
        <ele>425.4</ele>
        <time>2017-10-22T09:15:57.000Z</time>
      </trkpt>
      <trkpt lat="47.50506" lon="6.64879">
        <ele>424</ele>
        <time>2017-10-22T09:15:58.000Z</time>
      </trkpt>
      <trkpt lat="47.5051" lon="6.64888">
        <ele>424.2</ele>
        <time>2017-10-22T09:15:59.000Z</time>
      </trkpt>
      <trkpt lat="47.50514" lon="6.64896">
        <ele>424.6</ele>
        <time>2017-10-22T09:16:00.000Z</time>
      </trkpt>
      <trkpt lat="47.50518" lon="6.64906">
        <ele>425</ele>
        <time>2017-10-22T09:16:01.000Z</time>
      </trkpt>
      <trkpt lat="47.50524" lon="6.64912">
        <ele>424.7</ele>
        <time>2017-10-22T09:16:02.000Z</time>
      </trkpt>
      <trkpt lat="47.50531" lon="6.64916">
        <ele>424.7</ele>
        <time>2017-10-22T09:16:03.000Z</time>
      </trkpt>
      <trkpt lat="47.50534" lon="6.64923">
        <ele>425.2</ele>
        <time>2017-10-22T09:16:04.000Z</time>
      </trkpt>
      <trkpt lat="47.50537" lon="6.64929">
        <ele>425.4</ele>
        <time>2017-10-22T09:16:05.000Z</time>
      </trkpt>
      <trkpt lat="47.50544" lon="6.64938">
        <ele>426.2</ele>
        <time>2017-10-22T09:16:06.000Z</time>
      </trkpt>
      <trkpt lat="47.5055" lon="6.64947">
        <ele>426.3</ele>
        <time>2017-10-22T09:16:07.000Z</time>
      </trkpt>
      <trkpt lat="47.50556" lon="6.64955">
        <ele>426.6</ele>
        <time>2017-10-22T09:16:08.000Z</time>
      </trkpt>
      <trkpt lat="47.50563" lon="6.64965">
        <ele>427.4</ele>
        <time>2017-10-22T09:16:09.000Z</time>
      </trkpt>
      <trkpt lat="47.50569" lon="6.64973">
        <ele>429.6</ele>
        <time>2017-10-22T09:16:10.000Z</time>
      </trkpt>
      <trkpt lat="47.50573" lon="6.64986">
        <ele>430.7</ele>
        <time>2017-10-22T09:16:11.000Z</time>
      </trkpt>
      <trkpt lat="47.50577" lon="6.64998">
        <ele>431.5</ele>
        <time>2017-10-22T09:16:12.000Z</time>
      </trkpt>
      <trkpt lat="47.50583" lon="6.65004">
        <ele>432.6</ele>
        <time>2017-10-22T09:16:13.000Z</time>
      </trkpt>
      <trkpt lat="47.5059" lon="6.65009">
        <ele>432.7</ele>
        <time>2017-10-22T09:16:14.000Z</time>
      </trkpt>
      <trkpt lat="47.50595" lon="6.65009">
        <ele>432.3</ele>
        <time>2017-10-22T09:16:15.000Z</time>
      </trkpt>
      <trkpt lat="47.50601" lon="6.65011">
        <ele>431.9</ele>
        <time>2017-10-22T09:16:16.000Z</time>
      </trkpt>
      <trkpt lat="47.50609" lon="6.65017">
        <ele>431.5</ele>
        <time>2017-10-22T09:16:17.000Z</time>
      </trkpt>
      <trkpt lat="47.50614" lon="6.65022">
        <ele>432.1</ele>
        <time>2017-10-22T09:16:18.000Z</time>
      </trkpt>
      <trkpt lat="47.50618" lon="6.65027">
        <ele>432.1</ele>
        <time>2017-10-22T09:16:19.000Z</time>
      </trkpt>
      <trkpt lat="47.50624" lon="6.6503">
        <ele>432.1</ele>
        <time>2017-10-22T09:16:20.000Z</time>
      </trkpt>
      <trkpt lat="47.50631" lon="6.65033">
        <ele>432.1</ele>
        <time>2017-10-22T09:16:21.000Z</time>
      </trkpt>
      <trkpt lat="47.50638" lon="6.6504">
        <ele>431.8</ele>
        <time>2017-10-22T09:16:22.000Z</time>
      </trkpt>
      <trkpt lat="47.50641" lon="6.65048">
        <ele>432.4</ele>
        <time>2017-10-22T09:16:23.000Z</time>
      </trkpt>
      <trkpt lat="47.50644" lon="6.6506">
        <ele>433.3</ele>
        <time>2017-10-22T09:16:24.000Z</time>
      </trkpt>
      <trkpt lat="47.50651" lon="6.65071">
        <ele>431.9</ele>
        <time>2017-10-22T09:16:25.000Z</time>
      </trkpt>
      <trkpt lat="47.5066" lon="6.65082">
        <ele>429.8</ele>
        <time>2017-10-22T09:16:26.000Z</time>
      </trkpt>
      <trkpt lat="47.50669" lon="6.65094">
        <ele>428.1</ele>
        <time>2017-10-22T09:16:27.000Z</time>
      </trkpt>
      <trkpt lat="47.50676" lon="6.65099">
        <ele>426.7</ele>
        <time>2017-10-22T09:16:28.000Z</time>
      </trkpt>
      <trkpt lat="47.50683" lon="6.65107">
        <ele>424.9</ele>
        <time>2017-10-22T09:16:29.000Z</time>
      </trkpt>
      <trkpt lat="47.50686" lon="6.6511">
        <ele>424.7</ele>
        <time>2017-10-22T09:16:30.000Z</time>
      </trkpt>
      <trkpt lat="47.50692" lon="6.65115">
        <ele>424.6</ele>
        <time>2017-10-22T09:16:31.000Z</time>
      </trkpt>
      <trkpt lat="47.50696" lon="6.65115">
        <ele>424.1</ele>
        <time>2017-10-22T09:16:33.000Z</time>
      </trkpt>
      <trkpt lat="47.507" lon="6.65119">
        <ele>422.2</ele>
        <time>2017-10-22T09:16:34.000Z</time>
      </trkpt>
      <trkpt lat="47.50705" lon="6.65125">
        <ele>421.4</ele>
        <time>2017-10-22T09:16:35.000Z</time>
      </trkpt>
      <trkpt lat="47.50711" lon="6.65128">
        <ele>420.5</ele>
        <time>2017-10-22T09:16:36.000Z</time>
      </trkpt>
      <trkpt lat="47.50718" lon="6.65133">
        <ele>419.8</ele>
        <time>2017-10-22T09:16:37.000Z</time>
      </trkpt>
      <trkpt lat="47.50724" lon="6.65138">
        <ele>419</ele>
        <time>2017-10-22T09:16:38.000Z</time>
      </trkpt>
      <trkpt lat="47.50728" lon="6.65146">
        <ele>418.5</ele>
        <time>2017-10-22T09:16:39.000Z</time>
      </trkpt>
      <trkpt lat="47.50732" lon="6.65151">
        <ele>417</ele>
        <time>2017-10-22T09:16:40.000Z</time>
      </trkpt>
      <trkpt lat="47.50735" lon="6.65151">
        <ele>416.9</ele>
        <time>2017-10-22T09:16:41.000Z</time>
      </trkpt>
      <trkpt lat="47.50736" lon="6.65154">
        <ele>417</ele>
        <time>2017-10-22T09:16:42.000Z</time>
      </trkpt>
      <trkpt lat="47.50736" lon="6.65157">
        <ele>416.9</ele>
        <time>2017-10-22T09:16:43.000Z</time>
      </trkpt>
      <trkpt lat="47.50738" lon="6.65162">
        <ele>416.8</ele>
        <time>2017-10-22T09:16:44.000Z</time>
      </trkpt>
      <trkpt lat="47.50741" lon="6.65168">
        <ele>416.7</ele>
        <time>2017-10-22T09:16:45.000Z</time>
      </trkpt>
      <trkpt lat="47.50743" lon="6.65173">
        <ele>416.7</ele>
        <time>2017-10-22T09:16:46.000Z</time>
      </trkpt>
      <trkpt lat="47.50746" lon="6.65177">
        <ele>416.6</ele>
        <time>2017-10-22T09:16:47.000Z</time>
      </trkpt>
      <trkpt lat="47.5075" lon="6.65182">
        <ele>416.6</ele>
        <time>2017-10-22T09:16:48.000Z</time>
      </trkpt>
      <trkpt lat="47.50753" lon="6.65185">
        <ele>416.6</ele>
        <time>2017-10-22T09:16:49.000Z</time>
      </trkpt>
      <trkpt lat="47.50756" lon="6.6519">
        <ele>416.4</ele>
        <time>2017-10-22T09:16:50.000Z</time>
      </trkpt>
      <trkpt lat="47.50761" lon="6.65198">
        <ele>416.3</ele>
        <time>2017-10-22T09:16:51.000Z</time>
      </trkpt>
      <trkpt lat="47.50765" lon="6.652">
        <ele>415.2</ele>
        <time>2017-10-22T09:16:52.000Z</time>
      </trkpt>
      <trkpt lat="47.50769" lon="6.65202">
        <ele>415.1</ele>
        <time>2017-10-22T09:16:53.000Z</time>
      </trkpt>
      <trkpt lat="47.50773" lon="6.65205">
        <ele>414.9</ele>
        <time>2017-10-22T09:16:54.000Z</time>
      </trkpt>
      <trkpt lat="47.50778" lon="6.65207">
        <ele>413.7</ele>
        <time>2017-10-22T09:16:55.000Z</time>
      </trkpt>
      <trkpt lat="47.50782" lon="6.65208">
        <ele>413</ele>
        <time>2017-10-22T09:16:56.000Z</time>
      </trkpt>
      <trkpt lat="47.50786" lon="6.65211">
        <ele>412.9</ele>
        <time>2017-10-22T09:16:57.000Z</time>
      </trkpt>
      <trkpt lat="47.50787" lon="6.65214">
        <ele>412.8</ele>
        <time>2017-10-22T09:16:58.000Z</time>
      </trkpt>
      <trkpt lat="47.50789" lon="6.65217">
        <ele>412.6</ele>
        <time>2017-10-22T09:16:59.000Z</time>
      </trkpt>
      <trkpt lat="47.50792" lon="6.65219">
        <ele>412.5</ele>
        <time>2017-10-22T09:17:00.000Z</time>
      </trkpt>
      <trkpt lat="47.50795" lon="6.6522">
        <ele>412</ele>
        <time>2017-10-22T09:17:02.000Z</time>
      </trkpt>
      <trkpt lat="47.50798" lon="6.65218">
        <ele>411.8</ele>
        <time>2017-10-22T09:17:03.000Z</time>
      </trkpt>
      <trkpt lat="47.50802" lon="6.65216">
        <ele>410.9</ele>
        <time>2017-10-22T09:17:08.000Z</time>
      </trkpt>
      <trkpt lat="47.50804" lon="6.65215">
        <ele>410.7</ele>
        <time>2017-10-22T09:17:09.000Z</time>
      </trkpt>
      <trkpt lat="47.50801" lon="6.65218">
        <ele>407.8</ele>
        <time>2017-10-22T09:17:16.000Z</time>
      </trkpt>
      <trkpt lat="47.508" lon="6.65219">
        <ele>407.5</ele>
        <time>2017-10-22T09:17:17.000Z</time>
      </trkpt>
      <trkpt lat="47.50796" lon="6.65222">
        <ele>406.4</ele>
        <time>2017-10-22T09:17:20.000Z</time>
      </trkpt>
      <trkpt lat="47.50796" lon="6.65223">
        <ele>406</ele>
        <time>2017-10-22T09:17:21.000Z</time>
      </trkpt>
      <trkpt lat="47.50792" lon="6.65224">
        <ele>402.9</ele>
        <time>2017-10-22T09:17:55.000Z</time>
      </trkpt>
      <trkpt lat="47.5079" lon="6.65218">
        <ele>402.8</ele>
        <time>2017-10-22T09:17:56.000Z</time>
      </trkpt>
      <trkpt lat="47.50793" lon="6.65215">
        <ele>402.5</ele>
        <time>2017-10-22T09:18:02.000Z</time>
      </trkpt>
      <trkpt lat="47.50794" lon="6.65214">
        <ele>402.4</ele>
        <time>2017-10-22T09:18:03.000Z</time>
      </trkpt>
      <trkpt lat="47.50798" lon="6.65212">
        <ele>402.3</ele>
        <time>2017-10-22T09:18:05.000Z</time>
      </trkpt>
      <trkpt lat="47.508" lon="6.6521">
        <ele>402.2</ele>
        <time>2017-10-22T09:18:06.000Z</time>
      </trkpt>
      <trkpt lat="47.50802" lon="6.65207">
        <ele>401.9</ele>
        <time>2017-10-22T09:18:08.000Z</time>
      </trkpt>
      <trkpt lat="47.50807" lon="6.65204">
        <ele>401.8</ele>
        <time>2017-10-22T09:18:09.000Z</time>
      </trkpt>
      <trkpt lat="47.50811" lon="6.65201">
        <ele>401.8</ele>
        <time>2017-10-22T09:18:10.000Z</time>
      </trkpt>
      <trkpt lat="47.50816" lon="6.65199">
        <ele>401.8</ele>
        <time>2017-10-22T09:18:11.000Z</time>
      </trkpt>
      <trkpt lat="47.50819" lon="6.65197">
        <ele>401.5</ele>
        <time>2017-10-22T09:18:13.000Z</time>
      </trkpt>
      <trkpt lat="47.5082" lon="6.65195">
        <ele>401.5</ele>
        <time>2017-10-22T09:18:14.000Z</time>
      </trkpt>
      <trkpt lat="47.50822" lon="6.6519">
        <ele>401.3</ele>
        <time>2017-10-22T09:18:16.000Z</time>
      </trkpt>
      <trkpt lat="47.50824" lon="6.65188">
        <ele>401.2</ele>
        <time>2017-10-22T09:18:17.000Z</time>
      </trkpt>
      <trkpt lat="47.50825" lon="6.65187">
        <ele>401.3</ele>
        <time>2017-10-22T09:18:18.000Z</time>
      </trkpt>
      <trkpt lat="47.50829" lon="6.65184">
        <ele>401.2</ele>
        <time>2017-10-22T09:18:19.000Z</time>
      </trkpt>
      <trkpt lat="47.50835" lon="6.65181">
        <ele>401.3</ele>
        <time>2017-10-22T09:18:20.000Z</time>
      </trkpt>
      <trkpt lat="47.50841" lon="6.65179">
        <ele>401.2</ele>
        <time>2017-10-22T09:18:21.000Z</time>
      </trkpt>
      <trkpt lat="47.50846" lon="6.65176">
        <ele>401.1</ele>
        <time>2017-10-22T09:18:22.000Z</time>
      </trkpt>
      <trkpt lat="47.50849" lon="6.6517">
        <ele>401.1</ele>
        <time>2017-10-22T09:18:23.000Z</time>
      </trkpt>
      <trkpt lat="47.50851" lon="6.65164">
        <ele>401.1</ele>
        <time>2017-10-22T09:18:24.000Z</time>
      </trkpt>
      <trkpt lat="47.50855" lon="6.65162">
        <ele>401</ele>
        <time>2017-10-22T09:18:25.000Z</time>
      </trkpt>
      <trkpt lat="47.50859" lon="6.65161">
        <ele>400.2</ele>
        <time>2017-10-22T09:18:26.000Z</time>
      </trkpt>
      <trkpt lat="47.50863" lon="6.65156">
        <ele>400.2</ele>
        <time>2017-10-22T09:18:27.000Z</time>
      </trkpt>
      <trkpt lat="47.50867" lon="6.65149">
        <ele>400.2</ele>
        <time>2017-10-22T09:18:28.000Z</time>
      </trkpt>
      <trkpt lat="47.50872" lon="6.65141">
        <ele>400.3</ele>
        <time>2017-10-22T09:18:29.000Z</time>
      </trkpt>
      <trkpt lat="47.50875" lon="6.65136">
        <ele>400.2</ele>
        <time>2017-10-22T09:18:30.000Z</time>
      </trkpt>
      <trkpt lat="47.50876" lon="6.65133">
        <ele>400.3</ele>
        <time>2017-10-22T09:18:31.000Z</time>
      </trkpt>
      <trkpt lat="47.50878" lon="6.6513">
        <ele>400.4</ele>
        <time>2017-10-22T09:18:32.000Z</time>
      </trkpt>
      <trkpt lat="47.50882" lon="6.65126">
        <ele>400.5</ele>
        <time>2017-10-22T09:18:33.000Z</time>
      </trkpt>
      <trkpt lat="47.50885" lon="6.65124">
        <ele>400.5</ele>
        <time>2017-10-22T09:18:34.000Z</time>
      </trkpt>
      <trkpt lat="47.50887" lon="6.65122">
        <ele>400.5</ele>
        <time>2017-10-22T09:18:35.000Z</time>
      </trkpt>
      <trkpt lat="47.50889" lon="6.65119">
        <ele>400.5</ele>
        <time>2017-10-22T09:18:36.000Z</time>
      </trkpt>
      <trkpt lat="47.50892" lon="6.65117">
        <ele>400.5</ele>
        <time>2017-10-22T09:18:37.000Z</time>
      </trkpt>
      <trkpt lat="47.50894" lon="6.65114">
        <ele>400.6</ele>
        <time>2017-10-22T09:18:38.000Z</time>
      </trkpt>
      <trkpt lat="47.50898" lon="6.65112">
        <ele>400.6</ele>
        <time>2017-10-22T09:18:39.000Z</time>
      </trkpt>
      <trkpt lat="47.50902" lon="6.65111">
        <ele>400.6</ele>
        <time>2017-10-22T09:18:40.000Z</time>
      </trkpt>
      <trkpt lat="47.50907" lon="6.65109">
        <ele>399.9</ele>
        <time>2017-10-22T09:18:41.000Z</time>
      </trkpt>
      <trkpt lat="47.5091" lon="6.65108">
        <ele>399.7</ele>
        <time>2017-10-22T09:18:42.000Z</time>
      </trkpt>
      <trkpt lat="47.50914" lon="6.65107">
        <ele>399.4</ele>
        <time>2017-10-22T09:18:43.000Z</time>
      </trkpt>
      <trkpt lat="47.50915" lon="6.65106">
        <ele>399.1</ele>
        <time>2017-10-22T09:18:44.000Z</time>
      </trkpt>
      <trkpt lat="47.50919" lon="6.65104">
        <ele>398.9</ele>
        <time>2017-10-22T09:18:45.000Z</time>
      </trkpt>
      <trkpt lat="47.50921" lon="6.65103">
        <ele>398.6</ele>
        <time>2017-10-22T09:18:46.000Z</time>
      </trkpt>
      <trkpt lat="47.50926" lon="6.65098">
        <ele>398.4</ele>
        <time>2017-10-22T09:18:47.000Z</time>
      </trkpt>
      <trkpt lat="47.50931" lon="6.65094">
        <ele>398.2</ele>
        <time>2017-10-22T09:18:48.000Z</time>
      </trkpt>
      <trkpt lat="47.50933" lon="6.65091">
        <ele>398</ele>
        <time>2017-10-22T09:18:49.000Z</time>
      </trkpt>
      <trkpt lat="47.50936" lon="6.65089">
        <ele>397.7</ele>
        <time>2017-10-22T09:18:50.000Z</time>
      </trkpt>
      <trkpt lat="47.50938" lon="6.65087">
        <ele>397.5</ele>
        <time>2017-10-22T09:18:51.000Z</time>
      </trkpt>
      <trkpt lat="47.5094" lon="6.65086">
        <ele>397.4</ele>
        <time>2017-10-22T09:18:52.000Z</time>
      </trkpt>
      <trkpt lat="47.50943" lon="6.65081">
        <ele>397.1</ele>
        <time>2017-10-22T09:18:53.000Z</time>
      </trkpt>
      <trkpt lat="47.50948" lon="6.65076">
        <ele>397</ele>
        <time>2017-10-22T09:18:54.000Z</time>
      </trkpt>
      <trkpt lat="47.50953" lon="6.65075">
        <ele>395.4</ele>
        <time>2017-10-22T09:18:55.000Z</time>
      </trkpt>
      <trkpt lat="47.50957" lon="6.65072">
        <ele>395.3</ele>
        <time>2017-10-22T09:18:56.000Z</time>
      </trkpt>
      <trkpt lat="47.50962" lon="6.6507">
        <ele>395.3</ele>
        <time>2017-10-22T09:18:57.000Z</time>
      </trkpt>
      <trkpt lat="47.50966" lon="6.65068">
        <ele>395.7</ele>
        <time>2017-10-22T09:18:58.000Z</time>
      </trkpt>
      <trkpt lat="47.5097" lon="6.65066">
        <ele>395.8</ele>
        <time>2017-10-22T09:18:59.000Z</time>
      </trkpt>
      <trkpt lat="47.50972" lon="6.65065">
        <ele>395.8</ele>
        <time>2017-10-22T09:19:00.000Z</time>
      </trkpt>
      <trkpt lat="47.50976" lon="6.65061">
        <ele>395.7</ele>
        <time>2017-10-22T09:19:01.000Z</time>
      </trkpt>
      <trkpt lat="47.50979" lon="6.65057">
        <ele>395.7</ele>
        <time>2017-10-22T09:19:02.000Z</time>
      </trkpt>
      <trkpt lat="47.50983" lon="6.65053">
        <ele>395.6</ele>
        <time>2017-10-22T09:19:03.000Z</time>
      </trkpt>
      <trkpt lat="47.50987" lon="6.6505">
        <ele>395.5</ele>
        <time>2017-10-22T09:19:04.000Z</time>
      </trkpt>
      <trkpt lat="47.50993" lon="6.6505">
        <ele>395.4</ele>
        <time>2017-10-22T09:19:05.000Z</time>
      </trkpt>
      <trkpt lat="47.50998" lon="6.65047">
        <ele>395.4</ele>
        <time>2017-10-22T09:19:06.000Z</time>
      </trkpt>
      <trkpt lat="47.51" lon="6.65046">
        <ele>395.3</ele>
        <time>2017-10-22T09:19:07.000Z</time>
      </trkpt>
      <trkpt lat="47.51003" lon="6.65042">
        <ele>395.2</ele>
        <time>2017-10-22T09:19:08.000Z</time>
      </trkpt>
      <trkpt lat="47.51006" lon="6.6504">
        <ele>395.1</ele>
        <time>2017-10-22T09:19:09.000Z</time>
      </trkpt>
      <trkpt lat="47.51011" lon="6.65036">
        <ele>395.1</ele>
        <time>2017-10-22T09:19:10.000Z</time>
      </trkpt>
      <trkpt lat="47.51016" lon="6.65036">
        <ele>395</ele>
        <time>2017-10-22T09:19:11.000Z</time>
      </trkpt>
      <trkpt lat="47.51022" lon="6.65035">
        <ele>394.9</ele>
        <time>2017-10-22T09:19:12.000Z</time>
      </trkpt>
      <trkpt lat="47.51028" lon="6.65035">
        <ele>395</ele>
        <time>2017-10-22T09:19:13.000Z</time>
      </trkpt>
      <trkpt lat="47.5103" lon="6.65035">
        <ele>395</ele>
        <time>2017-10-22T09:19:14.000Z</time>
      </trkpt>
      <trkpt lat="47.51033" lon="6.65032">
        <ele>395</ele>
        <time>2017-10-22T09:19:15.000Z</time>
      </trkpt>
      <trkpt lat="47.51036" lon="6.6503">
        <ele>395</ele>
        <time>2017-10-22T09:19:16.000Z</time>
      </trkpt>
      <trkpt lat="47.51039" lon="6.65028">
        <ele>394.9</ele>
        <time>2017-10-22T09:19:17.000Z</time>
      </trkpt>
      <trkpt lat="47.51045" lon="6.65026">
        <ele>394.8</ele>
        <time>2017-10-22T09:19:18.000Z</time>
      </trkpt>
      <trkpt lat="47.51048" lon="6.65024">
        <ele>394.7</ele>
        <time>2017-10-22T09:19:19.000Z</time>
      </trkpt>
      <trkpt lat="47.51051" lon="6.65023">
        <ele>394.6</ele>
        <time>2017-10-22T09:19:20.000Z</time>
      </trkpt>
      <trkpt lat="47.51054" lon="6.6502">
        <ele>394.5</ele>
        <time>2017-10-22T09:19:21.000Z</time>
      </trkpt>
      <trkpt lat="47.51055" lon="6.65019">
        <ele>394.4</ele>
        <time>2017-10-22T09:19:22.000Z</time>
      </trkpt>
      <trkpt lat="47.51056" lon="6.65012">
        <ele>394.2</ele>
        <time>2017-10-22T09:19:23.000Z</time>
      </trkpt>
      <trkpt lat="47.51057" lon="6.65009">
        <ele>394.1</ele>
        <time>2017-10-22T09:19:24.000Z</time>
      </trkpt>
      <trkpt lat="47.5106" lon="6.65003">
        <ele>394</ele>
        <time>2017-10-22T09:19:25.000Z</time>
      </trkpt>
      <trkpt lat="47.51061" lon="6.65">
        <ele>393.9</ele>
        <time>2017-10-22T09:19:26.000Z</time>
      </trkpt>
      <trkpt lat="47.51063" lon="6.64992">
        <ele>393.8</ele>
        <time>2017-10-22T09:19:27.000Z</time>
      </trkpt>
      <trkpt lat="47.51067" lon="6.64986">
        <ele>393.7</ele>
        <time>2017-10-22T09:19:28.000Z</time>
      </trkpt>
      <trkpt lat="47.51073" lon="6.64981">
        <ele>393.7</ele>
        <time>2017-10-22T09:19:29.000Z</time>
      </trkpt>
      <trkpt lat="47.51078" lon="6.64976">
        <ele>393.7</ele>
        <time>2017-10-22T09:19:30.000Z</time>
      </trkpt>
      <trkpt lat="47.51083" lon="6.64971">
        <ele>393.7</ele>
        <time>2017-10-22T09:19:31.000Z</time>
      </trkpt>
      <trkpt lat="47.51087" lon="6.64965">
        <ele>393.6</ele>
        <time>2017-10-22T09:19:32.000Z</time>
      </trkpt>
      <trkpt lat="47.51089" lon="6.64959">
        <ele>393.6</ele>
        <time>2017-10-22T09:19:33.000Z</time>
      </trkpt>
      <trkpt lat="47.51093" lon="6.64951">
        <ele>393.6</ele>
        <time>2017-10-22T09:19:34.000Z</time>
      </trkpt>
      <trkpt lat="47.51099" lon="6.64944">
        <ele>393.6</ele>
        <time>2017-10-22T09:19:35.000Z</time>
      </trkpt>
      <trkpt lat="47.51106" lon="6.64938">
        <ele>394.2</ele>
        <time>2017-10-22T09:19:36.000Z</time>
      </trkpt>
      <trkpt lat="47.51109" lon="6.64934">
        <ele>394.4</ele>
        <time>2017-10-22T09:19:37.000Z</time>
      </trkpt>
      <trkpt lat="47.51116" lon="6.64926">
        <ele>394.5</ele>
        <time>2017-10-22T09:19:38.000Z</time>
      </trkpt>
      <trkpt lat="47.51121" lon="6.64921">
        <ele>394.6</ele>
        <time>2017-10-22T09:19:39.000Z</time>
      </trkpt>
      <trkpt lat="47.51124" lon="6.64918">
        <ele>394.9</ele>
        <time>2017-10-22T09:19:40.000Z</time>
      </trkpt>
      <trkpt lat="47.51125" lon="6.64915">
        <ele>395</ele>
        <time>2017-10-22T09:19:41.000Z</time>
      </trkpt>
      <trkpt lat="47.51127" lon="6.64911">
        <ele>395.1</ele>
        <time>2017-10-22T09:19:42.000Z</time>
      </trkpt>
      <trkpt lat="47.5113" lon="6.64907">
        <ele>395.2</ele>
        <time>2017-10-22T09:19:43.000Z</time>
      </trkpt>
      <trkpt lat="47.51133" lon="6.64903">
        <ele>395.2</ele>
        <time>2017-10-22T09:19:44.000Z</time>
      </trkpt>
      <trkpt lat="47.51138" lon="6.64896">
        <ele>395.4</ele>
        <time>2017-10-22T09:19:46.000Z</time>
      </trkpt>
      <trkpt lat="47.51141" lon="6.64892">
        <ele>395.4</ele>
        <time>2017-10-22T09:19:47.000Z</time>
      </trkpt>
      <trkpt lat="47.51144" lon="6.64888">
        <ele>396.3</ele>
        <time>2017-10-22T09:19:48.000Z</time>
      </trkpt>
      <trkpt lat="47.51148" lon="6.64884">
        <ele>396.4</ele>
        <time>2017-10-22T09:19:49.000Z</time>
      </trkpt>
      <trkpt lat="47.51151" lon="6.64881">
        <ele>396.5</ele>
        <time>2017-10-22T09:19:50.000Z</time>
      </trkpt>
      <trkpt lat="47.51155" lon="6.64879">
        <ele>396.5</ele>
        <time>2017-10-22T09:19:51.000Z</time>
      </trkpt>
      <trkpt lat="47.51158" lon="6.64876">
        <ele>396.5</ele>
        <time>2017-10-22T09:19:52.000Z</time>
      </trkpt>
      <trkpt lat="47.51161" lon="6.64873">
        <ele>396.5</ele>
        <time>2017-10-22T09:19:53.000Z</time>
      </trkpt>
      <trkpt lat="47.51165" lon="6.64873">
        <ele>396.5</ele>
        <time>2017-10-22T09:19:54.000Z</time>
      </trkpt>
      <trkpt lat="47.51169" lon="6.64874">
        <ele>396.4</ele>
        <time>2017-10-22T09:19:55.000Z</time>
      </trkpt>
      <trkpt lat="47.51172" lon="6.64875">
        <ele>396.2</ele>
        <time>2017-10-22T09:19:56.000Z</time>
      </trkpt>
      <trkpt lat="47.51175" lon="6.64876">
        <ele>396</ele>
        <time>2017-10-22T09:19:57.000Z</time>
      </trkpt>
      <trkpt lat="47.51178" lon="6.64877">
        <ele>395.8</ele>
        <time>2017-10-22T09:19:58.000Z</time>
      </trkpt>
      <trkpt lat="47.51181" lon="6.64878">
        <ele>395.6</ele>
        <time>2017-10-22T09:19:59.000Z</time>
      </trkpt>
      <trkpt lat="47.51186" lon="6.64879">
        <ele>395.4</ele>
        <time>2017-10-22T09:20:00.000Z</time>
      </trkpt>
      <trkpt lat="47.51192" lon="6.6488">
        <ele>395.2</ele>
        <time>2017-10-22T09:20:01.000Z</time>
      </trkpt>
      <trkpt lat="47.51198" lon="6.6488">
        <ele>395.2</ele>
        <time>2017-10-22T09:20:02.000Z</time>
      </trkpt>
      <trkpt lat="47.51202" lon="6.6488">
        <ele>395.2</ele>
        <time>2017-10-22T09:20:03.000Z</time>
      </trkpt>
      <trkpt lat="47.51207" lon="6.6488">
        <ele>394.1</ele>
        <time>2017-10-22T09:20:04.000Z</time>
      </trkpt>
      <trkpt lat="47.51213" lon="6.64879">
        <ele>394</ele>
        <time>2017-10-22T09:20:05.000Z</time>
      </trkpt>
      <trkpt lat="47.51217" lon="6.64876">
        <ele>394</ele>
        <time>2017-10-22T09:20:06.000Z</time>
      </trkpt>
      <trkpt lat="47.51223" lon="6.64875">
        <ele>394</ele>
        <time>2017-10-22T09:20:07.000Z</time>
      </trkpt>
      <trkpt lat="47.51228" lon="6.64876">
        <ele>394.1</ele>
        <time>2017-10-22T09:20:08.000Z</time>
      </trkpt>
      <trkpt lat="47.51231" lon="6.64875">
        <ele>394.3</ele>
        <time>2017-10-22T09:20:12.000Z</time>
      </trkpt>
      <trkpt lat="47.51232" lon="6.64874">
        <ele>394.4</ele>
        <time>2017-10-22T09:20:13.000Z</time>
      </trkpt>
      <trkpt lat="47.51236" lon="6.64874">
        <ele>394.5</ele>
        <time>2017-10-22T09:20:14.000Z</time>
      </trkpt>
      <trkpt lat="47.51241" lon="6.64874">
        <ele>394.6</ele>
        <time>2017-10-22T09:20:15.000Z</time>
      </trkpt>
      <trkpt lat="47.51244" lon="6.64873">
        <ele>394.6</ele>
        <time>2017-10-22T09:20:16.000Z</time>
      </trkpt>
      <trkpt lat="47.51246" lon="6.64873">
        <ele>394.8</ele>
        <time>2017-10-22T09:20:17.000Z</time>
      </trkpt>
      <trkpt lat="47.51249" lon="6.64875">
        <ele>394.9</ele>
        <time>2017-10-22T09:20:18.000Z</time>
      </trkpt>
      <trkpt lat="47.51252" lon="6.64877">
        <ele>395</ele>
        <time>2017-10-22T09:20:19.000Z</time>
      </trkpt>
      <trkpt lat="47.51255" lon="6.64878">
        <ele>395</ele>
        <time>2017-10-22T09:20:20.000Z</time>
      </trkpt>
      <trkpt lat="47.51258" lon="6.6488">
        <ele>395.1</ele>
        <time>2017-10-22T09:20:21.000Z</time>
      </trkpt>
      <trkpt lat="47.51261" lon="6.64882">
        <ele>395.2</ele>
        <time>2017-10-22T09:20:22.000Z</time>
      </trkpt>
      <trkpt lat="47.51265" lon="6.64884">
        <ele>395.3</ele>
        <time>2017-10-22T09:20:23.000Z</time>
      </trkpt>
      <trkpt lat="47.51268" lon="6.64887">
        <ele>395.4</ele>
        <time>2017-10-22T09:20:24.000Z</time>
      </trkpt>
      <trkpt lat="47.51271" lon="6.64891">
        <ele>395.6</ele>
        <time>2017-10-22T09:20:25.000Z</time>
      </trkpt>
      <trkpt lat="47.51274" lon="6.64894">
        <ele>395.7</ele>
        <time>2017-10-22T09:20:26.000Z</time>
      </trkpt>
      <trkpt lat="47.51277" lon="6.64898">
        <ele>396</ele>
        <time>2017-10-22T09:20:27.000Z</time>
      </trkpt>
      <trkpt lat="47.51279" lon="6.64902">
        <ele>396.2</ele>
        <time>2017-10-22T09:20:28.000Z</time>
      </trkpt>
      <trkpt lat="47.51281" lon="6.64906">
        <ele>396.3</ele>
        <time>2017-10-22T09:20:29.000Z</time>
      </trkpt>
      <trkpt lat="47.51283" lon="6.64909">
        <ele>396.4</ele>
        <time>2017-10-22T09:20:30.000Z</time>
      </trkpt>
      <trkpt lat="47.51285" lon="6.64912">
        <ele>396.6</ele>
        <time>2017-10-22T09:20:31.000Z</time>
      </trkpt>
      <trkpt lat="47.51287" lon="6.64915">
        <ele>396.6</ele>
        <time>2017-10-22T09:20:32.000Z</time>
      </trkpt>
      <trkpt lat="47.51288" lon="6.64918">
        <ele>396.7</ele>
        <time>2017-10-22T09:20:33.000Z</time>
      </trkpt>
      <trkpt lat="47.5129" lon="6.64922">
        <ele>396.9</ele>
        <time>2017-10-22T09:20:34.000Z</time>
      </trkpt>
      <trkpt lat="47.51292" lon="6.64925">
        <ele>397.1</ele>
        <time>2017-10-22T09:20:35.000Z</time>
      </trkpt>
      <trkpt lat="47.51294" lon="6.64928">
        <ele>397.4</ele>
        <time>2017-10-22T09:20:36.000Z</time>
      </trkpt>
      <trkpt lat="47.51296" lon="6.64932">
        <ele>397.6</ele>
        <time>2017-10-22T09:20:37.000Z</time>
      </trkpt>
      <trkpt lat="47.51297" lon="6.64935">
        <ele>397.9</ele>
        <time>2017-10-22T09:20:38.000Z</time>
      </trkpt>
      <trkpt lat="47.51299" lon="6.64938">
        <ele>398.1</ele>
        <time>2017-10-22T09:20:39.000Z</time>
      </trkpt>
      <trkpt lat="47.51302" lon="6.64944">
        <ele>398.4</ele>
        <time>2017-10-22T09:20:40.000Z</time>
      </trkpt>
      <trkpt lat="47.51304" lon="6.64947">
        <ele>398.7</ele>
        <time>2017-10-22T09:20:41.000Z</time>
      </trkpt>
      <trkpt lat="47.51305" lon="6.6495">
        <ele>399.1</ele>
        <time>2017-10-22T09:20:42.000Z</time>
      </trkpt>
      <trkpt lat="47.51307" lon="6.64953">
        <ele>399.4</ele>
        <time>2017-10-22T09:20:43.000Z</time>
      </trkpt>
      <trkpt lat="47.51309" lon="6.64956">
        <ele>399.6</ele>
        <time>2017-10-22T09:20:44.000Z</time>
      </trkpt>
      <trkpt lat="47.5131" lon="6.64959">
        <ele>399.9</ele>
        <time>2017-10-22T09:20:45.000Z</time>
      </trkpt>
      <trkpt lat="47.51312" lon="6.64961">
        <ele>400.1</ele>
        <time>2017-10-22T09:20:46.000Z</time>
      </trkpt>
      <trkpt lat="47.51315" lon="6.64962">
        <ele>400.4</ele>
        <time>2017-10-22T09:20:47.000Z</time>
      </trkpt>
      <trkpt lat="47.51318" lon="6.64965">
        <ele>400.6</ele>
        <time>2017-10-22T09:20:48.000Z</time>
      </trkpt>
      <trkpt lat="47.5132" lon="6.64967">
        <ele>400.8</ele>
        <time>2017-10-22T09:20:49.000Z</time>
      </trkpt>
      <trkpt lat="47.51322" lon="6.64969">
        <ele>401</ele>
        <time>2017-10-22T09:20:50.000Z</time>
      </trkpt>
      <trkpt lat="47.51325" lon="6.64971">
        <ele>401.2</ele>
        <time>2017-10-22T09:20:51.000Z</time>
      </trkpt>
      <trkpt lat="47.51328" lon="6.64974">
        <ele>401.4</ele>
        <time>2017-10-22T09:20:52.000Z</time>
      </trkpt>
      <trkpt lat="47.51331" lon="6.64977">
        <ele>401.7</ele>
        <time>2017-10-22T09:20:53.000Z</time>
      </trkpt>
      <trkpt lat="47.51334" lon="6.6498">
        <ele>402</ele>
        <time>2017-10-22T09:20:54.000Z</time>
      </trkpt>
      <trkpt lat="47.51336" lon="6.64983">
        <ele>402.4</ele>
        <time>2017-10-22T09:20:55.000Z</time>
      </trkpt>
      <trkpt lat="47.5134" lon="6.64986">
        <ele>402.7</ele>
        <time>2017-10-22T09:20:56.000Z</time>
      </trkpt>
      <trkpt lat="47.51342" lon="6.64989">
        <ele>403.1</ele>
        <time>2017-10-22T09:20:57.000Z</time>
      </trkpt>
      <trkpt lat="47.51345" lon="6.64992">
        <ele>403.4</ele>
        <time>2017-10-22T09:20:58.000Z</time>
      </trkpt>
      <trkpt lat="47.51348" lon="6.64995">
        <ele>403.7</ele>
        <time>2017-10-22T09:20:59.000Z</time>
      </trkpt>
      <trkpt lat="47.5135" lon="6.64999">
        <ele>404</ele>
        <time>2017-10-22T09:21:00.000Z</time>
      </trkpt>
      <trkpt lat="47.51353" lon="6.65002">
        <ele>404.2</ele>
        <time>2017-10-22T09:21:01.000Z</time>
      </trkpt>
      <trkpt lat="47.51356" lon="6.65005">
        <ele>404.5</ele>
        <time>2017-10-22T09:21:02.000Z</time>
      </trkpt>
      <trkpt lat="47.51357" lon="6.65009">
        <ele>404.8</ele>
        <time>2017-10-22T09:21:03.000Z</time>
      </trkpt>
      <trkpt lat="47.51359" lon="6.65014">
        <ele>405.1</ele>
        <time>2017-10-22T09:21:04.000Z</time>
      </trkpt>
      <trkpt lat="47.51362" lon="6.65019">
        <ele>405.3</ele>
        <time>2017-10-22T09:21:05.000Z</time>
      </trkpt>
      <trkpt lat="47.51364" lon="6.65024">
        <ele>405.4</ele>
        <time>2017-10-22T09:21:06.000Z</time>
      </trkpt>
      <trkpt lat="47.51367" lon="6.65027">
        <ele>405.5</ele>
        <time>2017-10-22T09:21:07.000Z</time>
      </trkpt>
      <trkpt lat="47.51368" lon="6.6503">
        <ele>405.7</ele>
        <time>2017-10-22T09:21:08.000Z</time>
      </trkpt>
      <trkpt lat="47.51371" lon="6.65034">
        <ele>405.8</ele>
        <time>2017-10-22T09:21:09.000Z</time>
      </trkpt>
      <trkpt lat="47.51373" lon="6.65039">
        <ele>405.9</ele>
        <time>2017-10-22T09:21:10.000Z</time>
      </trkpt>
      <trkpt lat="47.51376" lon="6.65044">
        <ele>406</ele>
        <time>2017-10-22T09:21:11.000Z</time>
      </trkpt>
      <trkpt lat="47.51378" lon="6.65048">
        <ele>406.2</ele>
        <time>2017-10-22T09:21:12.000Z</time>
      </trkpt>
      <trkpt lat="47.5138" lon="6.65052">
        <ele>406.2</ele>
        <time>2017-10-22T09:21:13.000Z</time>
      </trkpt>
      <trkpt lat="47.51382" lon="6.65054">
        <ele>406.3</ele>
        <time>2017-10-22T09:21:14.000Z</time>
      </trkpt>
      <trkpt lat="47.51384" lon="6.65057">
        <ele>406.3</ele>
        <time>2017-10-22T09:21:15.000Z</time>
      </trkpt>
      <trkpt lat="47.51386" lon="6.65061">
        <ele>406.3</ele>
        <time>2017-10-22T09:21:16.000Z</time>
      </trkpt>
      <trkpt lat="47.51389" lon="6.65064">
        <ele>406.4</ele>
        <time>2017-10-22T09:21:17.000Z</time>
      </trkpt>
      <trkpt lat="47.51391" lon="6.65067">
        <ele>406.5</ele>
        <time>2017-10-22T09:21:18.000Z</time>
      </trkpt>
      <trkpt lat="47.51394" lon="6.6507">
        <ele>406.6</ele>
        <time>2017-10-22T09:21:19.000Z</time>
      </trkpt>
      <trkpt lat="47.51396" lon="6.65073">
        <ele>406.8</ele>
        <time>2017-10-22T09:21:20.000Z</time>
      </trkpt>
      <trkpt lat="47.51399" lon="6.65076">
        <ele>406.9</ele>
        <time>2017-10-22T09:21:21.000Z</time>
      </trkpt>
      <trkpt lat="47.51402" lon="6.6508">
        <ele>407.1</ele>
        <time>2017-10-22T09:21:22.000Z</time>
      </trkpt>
      <trkpt lat="47.51404" lon="6.65083">
        <ele>407.2</ele>
        <time>2017-10-22T09:21:23.000Z</time>
      </trkpt>
      <trkpt lat="47.51407" lon="6.65086">
        <ele>407.3</ele>
        <time>2017-10-22T09:21:24.000Z</time>
      </trkpt>
      <trkpt lat="47.5141" lon="6.6509">
        <ele>407.4</ele>
        <time>2017-10-22T09:21:25.000Z</time>
      </trkpt>
      <trkpt lat="47.51413" lon="6.65092">
        <ele>407.6</ele>
        <time>2017-10-22T09:21:26.000Z</time>
      </trkpt>
      <trkpt lat="47.51416" lon="6.65095">
        <ele>407.9</ele>
        <time>2017-10-22T09:21:27.000Z</time>
      </trkpt>
      <trkpt lat="47.51418" lon="6.65098">
        <ele>408.1</ele>
        <time>2017-10-22T09:21:28.000Z</time>
      </trkpt>
      <trkpt lat="47.51419" lon="6.651">
        <ele>408.3</ele>
        <time>2017-10-22T09:21:29.000Z</time>
      </trkpt>
      <trkpt lat="47.51421" lon="6.65103">
        <ele>408.5</ele>
        <time>2017-10-22T09:21:30.000Z</time>
      </trkpt>
      <trkpt lat="47.51422" lon="6.65107">
        <ele>408.7</ele>
        <time>2017-10-22T09:21:31.000Z</time>
      </trkpt>
      <trkpt lat="47.51424" lon="6.65111">
        <ele>408.9</ele>
        <time>2017-10-22T09:21:32.000Z</time>
      </trkpt>
      <trkpt lat="47.51427" lon="6.65116">
        <ele>409.1</ele>
        <time>2017-10-22T09:21:33.000Z</time>
      </trkpt>
      <trkpt lat="47.51431" lon="6.65122">
        <ele>410.8</ele>
        <time>2017-10-22T09:21:34.000Z</time>
      </trkpt>
      <trkpt lat="47.51434" lon="6.65125">
        <ele>412</ele>
        <time>2017-10-22T09:21:35.000Z</time>
      </trkpt>
      <trkpt lat="47.51439" lon="6.6513">
        <ele>413.3</ele>
        <time>2017-10-22T09:21:36.000Z</time>
      </trkpt>
      <trkpt lat="47.51442" lon="6.65134">
        <ele>414.5</ele>
        <time>2017-10-22T09:21:37.000Z</time>
      </trkpt>
      <trkpt lat="47.51446" lon="6.65137">
        <ele>415.6</ele>
        <time>2017-10-22T09:21:38.000Z</time>
      </trkpt>
      <trkpt lat="47.51449" lon="6.65141">
        <ele>416.2</ele>
        <time>2017-10-22T09:21:39.000Z</time>
      </trkpt>
      <trkpt lat="47.51453" lon="6.65145">
        <ele>416.6</ele>
        <time>2017-10-22T09:21:40.000Z</time>
      </trkpt>
      <trkpt lat="47.51456" lon="6.65148">
        <ele>416.6</ele>
        <time>2017-10-22T09:21:41.000Z</time>
      </trkpt>
      <trkpt lat="47.5146" lon="6.65151">
        <ele>416.4</ele>
        <time>2017-10-22T09:21:42.000Z</time>
      </trkpt>
      <trkpt lat="47.51463" lon="6.65155">
        <ele>416.4</ele>
        <time>2017-10-22T09:21:43.000Z</time>
      </trkpt>
      <trkpt lat="47.51467" lon="6.65159">
        <ele>416.7</ele>
        <time>2017-10-22T09:21:44.000Z</time>
      </trkpt>
      <trkpt lat="47.51476" lon="6.65167">
        <ele>417.8</ele>
        <time>2017-10-22T09:21:46.000Z</time>
      </trkpt>
      <trkpt lat="47.51481" lon="6.65172">
        <ele>418</ele>
        <time>2017-10-22T09:21:47.000Z</time>
      </trkpt>
      <trkpt lat="47.51487" lon="6.65177">
        <ele>418.1</ele>
        <time>2017-10-22T09:21:48.000Z</time>
      </trkpt>
      <trkpt lat="47.51492" lon="6.65182">
        <ele>418.6</ele>
        <time>2017-10-22T09:21:49.000Z</time>
      </trkpt>
      <trkpt lat="47.51495" lon="6.65186">
        <ele>419.1</ele>
        <time>2017-10-22T09:21:50.000Z</time>
      </trkpt>
      <trkpt lat="47.51499" lon="6.65191">
        <ele>418.8</ele>
        <time>2017-10-22T09:21:51.000Z</time>
      </trkpt>
      <trkpt lat="47.51503" lon="6.65196">
        <ele>419</ele>
        <time>2017-10-22T09:21:52.000Z</time>
      </trkpt>
      <trkpt lat="47.51507" lon="6.65201">
        <ele>419.9</ele>
        <time>2017-10-22T09:21:53.000Z</time>
      </trkpt>
      <trkpt lat="47.51512" lon="6.65206">
        <ele>420.8</ele>
        <time>2017-10-22T09:21:54.000Z</time>
      </trkpt>
      <trkpt lat="47.51516" lon="6.65211">
        <ele>420.9</ele>
        <time>2017-10-22T09:21:55.000Z</time>
      </trkpt>
      <trkpt lat="47.5152" lon="6.65216">
        <ele>421.1</ele>
        <time>2017-10-22T09:21:56.000Z</time>
      </trkpt>
      <trkpt lat="47.51524" lon="6.65222">
        <ele>420.8</ele>
        <time>2017-10-22T09:21:57.000Z</time>
      </trkpt>
      <trkpt lat="47.51528" lon="6.65228">
        <ele>420.3</ele>
        <time>2017-10-22T09:21:58.000Z</time>
      </trkpt>
      <trkpt lat="47.51532" lon="6.65233">
        <ele>420</ele>
        <time>2017-10-22T09:21:59.000Z</time>
      </trkpt>
      <trkpt lat="47.51535" lon="6.65239">
        <ele>419.2</ele>
        <time>2017-10-22T09:22:00.000Z</time>
      </trkpt>
      <trkpt lat="47.51539" lon="6.65245">
        <ele>418.4</ele>
        <time>2017-10-22T09:22:01.000Z</time>
      </trkpt>
      <trkpt lat="47.51541" lon="6.6525">
        <ele>417.6</ele>
        <time>2017-10-22T09:22:02.000Z</time>
      </trkpt>
      <trkpt lat="47.51544" lon="6.65255">
        <ele>416.6</ele>
        <time>2017-10-22T09:22:03.000Z</time>
      </trkpt>
      <trkpt lat="47.51548" lon="6.6526">
        <ele>415.8</ele>
        <time>2017-10-22T09:22:04.000Z</time>
      </trkpt>
      <trkpt lat="47.51551" lon="6.65265">
        <ele>415.4</ele>
        <time>2017-10-22T09:22:05.000Z</time>
      </trkpt>
      <trkpt lat="47.51556" lon="6.65272">
        <ele>415.2</ele>
        <time>2017-10-22T09:22:06.000Z</time>
      </trkpt>
      <trkpt lat="47.5156" lon="6.65278">
        <ele>415</ele>
        <time>2017-10-22T09:22:07.000Z</time>
      </trkpt>
      <trkpt lat="47.51563" lon="6.65282">
        <ele>414.8</ele>
        <time>2017-10-22T09:22:08.000Z</time>
      </trkpt>
      <trkpt lat="47.51567" lon="6.65285">
        <ele>414.3</ele>
        <time>2017-10-22T09:22:09.000Z</time>
      </trkpt>
      <trkpt lat="47.5157" lon="6.65288">
        <ele>413.6</ele>
        <time>2017-10-22T09:22:10.000Z</time>
      </trkpt>
      <trkpt lat="47.51574" lon="6.65292">
        <ele>413</ele>
        <time>2017-10-22T09:22:11.000Z</time>
      </trkpt>
      <trkpt lat="47.51578" lon="6.65296">
        <ele>411.9</ele>
        <time>2017-10-22T09:22:12.000Z</time>
      </trkpt>
      <trkpt lat="47.51582" lon="6.653">
        <ele>411.4</ele>
        <time>2017-10-22T09:22:13.000Z</time>
      </trkpt>
      <trkpt lat="47.51587" lon="6.65305">
        <ele>411.4</ele>
        <time>2017-10-22T09:22:14.000Z</time>
      </trkpt>
      <trkpt lat="47.51592" lon="6.65311">
        <ele>411.7</ele>
        <time>2017-10-22T09:22:15.000Z</time>
      </trkpt>
      <trkpt lat="47.51596" lon="6.65317">
        <ele>412.1</ele>
        <time>2017-10-22T09:22:16.000Z</time>
      </trkpt>
      <trkpt lat="47.51601" lon="6.65323">
        <ele>412.4</ele>
        <time>2017-10-22T09:22:17.000Z</time>
      </trkpt>
      <trkpt lat="47.51607" lon="6.65329">
        <ele>412.4</ele>
        <time>2017-10-22T09:22:18.000Z</time>
      </trkpt>
      <trkpt lat="47.51611" lon="6.65336">
        <ele>412.1</ele>
        <time>2017-10-22T09:22:19.000Z</time>
      </trkpt>
      <trkpt lat="47.51616" lon="6.65342">
        <ele>412.3</ele>
        <time>2017-10-22T09:22:20.000Z</time>
      </trkpt>
      <trkpt lat="47.51621" lon="6.65347">
        <ele>412.3</ele>
        <time>2017-10-22T09:22:21.000Z</time>
      </trkpt>
      <trkpt lat="47.51626" lon="6.65353">
        <ele>411.8</ele>
        <time>2017-10-22T09:22:22.000Z</time>
      </trkpt>
      <trkpt lat="47.51631" lon="6.65359">
        <ele>411.5</ele>
        <time>2017-10-22T09:22:23.000Z</time>
      </trkpt>
      <trkpt lat="47.51637" lon="6.65366">
        <ele>411.3</ele>
        <time>2017-10-22T09:22:24.000Z</time>
      </trkpt>
      <trkpt lat="47.51642" lon="6.65373">
        <ele>410.3</ele>
        <time>2017-10-22T09:22:25.000Z</time>
      </trkpt>
      <trkpt lat="47.51647" lon="6.65379">
        <ele>409.7</ele>
        <time>2017-10-22T09:22:26.000Z</time>
      </trkpt>
      <trkpt lat="47.51652" lon="6.65385">
        <ele>409.5</ele>
        <time>2017-10-22T09:22:27.000Z</time>
      </trkpt>
      <trkpt lat="47.51657" lon="6.65392">
        <ele>409.5</ele>
        <time>2017-10-22T09:22:28.000Z</time>
      </trkpt>
      <trkpt lat="47.51662" lon="6.65398">
        <ele>409.6</ele>
        <time>2017-10-22T09:22:29.000Z</time>
      </trkpt>
      <trkpt lat="47.51666" lon="6.65405">
        <ele>409.8</ele>
        <time>2017-10-22T09:22:30.000Z</time>
      </trkpt>
      <trkpt lat="47.51671" lon="6.65411">
        <ele>410.7</ele>
        <time>2017-10-22T09:22:31.000Z</time>
      </trkpt>
      <trkpt lat="47.51676" lon="6.65417">
        <ele>411.1</ele>
        <time>2017-10-22T09:22:32.000Z</time>
      </trkpt>
      <trkpt lat="47.5168" lon="6.65423">
        <ele>411.9</ele>
        <time>2017-10-22T09:22:33.000Z</time>
      </trkpt>
      <trkpt lat="47.51684" lon="6.65428">
        <ele>412.9</ele>
        <time>2017-10-22T09:22:34.000Z</time>
      </trkpt>
      <trkpt lat="47.51689" lon="6.65433">
        <ele>413.3</ele>
        <time>2017-10-22T09:22:35.000Z</time>
      </trkpt>
      <trkpt lat="47.51694" lon="6.6544">
        <ele>413.7</ele>
        <time>2017-10-22T09:22:36.000Z</time>
      </trkpt>
      <trkpt lat="47.517" lon="6.65447">
        <ele>414.1</ele>
        <time>2017-10-22T09:22:37.000Z</time>
      </trkpt>
      <trkpt lat="47.51704" lon="6.65453">
        <ele>414.5</ele>
        <time>2017-10-22T09:22:38.000Z</time>
      </trkpt>
      <trkpt lat="47.51709" lon="6.6546">
        <ele>414.5</ele>
        <time>2017-10-22T09:22:39.000Z</time>
      </trkpt>
      <trkpt lat="47.51713" lon="6.65468">
        <ele>414.2</ele>
        <time>2017-10-22T09:22:40.000Z</time>
      </trkpt>
      <trkpt lat="47.51714" lon="6.65477">
        <ele>413.7</ele>
        <time>2017-10-22T09:22:41.000Z</time>
      </trkpt>
      <trkpt lat="47.51712" lon="6.65486">
        <ele>413.4</ele>
        <time>2017-10-22T09:22:42.000Z</time>
      </trkpt>
      <trkpt lat="47.5171" lon="6.65491">
        <ele>413.9</ele>
        <time>2017-10-22T09:22:43.000Z</time>
      </trkpt>
      <trkpt lat="47.51707" lon="6.65496">
        <ele>414.2</ele>
        <time>2017-10-22T09:22:44.000Z</time>
      </trkpt>
      <trkpt lat="47.51701" lon="6.65506">
        <ele>413.9</ele>
        <time>2017-10-22T09:22:46.000Z</time>
      </trkpt>
      <trkpt lat="47.51697" lon="6.65511">
        <ele>413.1</ele>
        <time>2017-10-22T09:22:47.000Z</time>
      </trkpt>
      <trkpt lat="47.51694" lon="6.65516">
        <ele>412.5</ele>
        <time>2017-10-22T09:22:48.000Z</time>
      </trkpt>
      <trkpt lat="47.51691" lon="6.65523">
        <ele>411.7</ele>
        <time>2017-10-22T09:22:49.000Z</time>
      </trkpt>
      <trkpt lat="47.51688" lon="6.6553">
        <ele>411.4</ele>
        <time>2017-10-22T09:22:50.000Z</time>
      </trkpt>
      <trkpt lat="47.51685" lon="6.65536">
        <ele>411.3</ele>
        <time>2017-10-22T09:22:51.000Z</time>
      </trkpt>
      <trkpt lat="47.51683" lon="6.65542">
        <ele>411.2</ele>
        <time>2017-10-22T09:22:52.000Z</time>
      </trkpt>
      <trkpt lat="47.5168" lon="6.65549">
        <ele>411.3</ele>
        <time>2017-10-22T09:22:53.000Z</time>
      </trkpt>
      <trkpt lat="47.51676" lon="6.65556">
        <ele>411.9</ele>
        <time>2017-10-22T09:22:54.000Z</time>
      </trkpt>
      <trkpt lat="47.51673" lon="6.65563">
        <ele>411.9</ele>
        <time>2017-10-22T09:22:55.000Z</time>
      </trkpt>
      <trkpt lat="47.51671" lon="6.65571">
        <ele>411.8</ele>
        <time>2017-10-22T09:22:56.000Z</time>
      </trkpt>
      <trkpt lat="47.51668" lon="6.65579">
        <ele>411.9</ele>
        <time>2017-10-22T09:22:57.000Z</time>
      </trkpt>
      <trkpt lat="47.51666" lon="6.65587">
        <ele>412.2</ele>
        <time>2017-10-22T09:22:58.000Z</time>
      </trkpt>
      <trkpt lat="47.51665" lon="6.65595">
        <ele>412.3</ele>
        <time>2017-10-22T09:22:59.000Z</time>
      </trkpt>
      <trkpt lat="47.51664" lon="6.65601">
        <ele>412.2</ele>
        <time>2017-10-22T09:23:00.000Z</time>
      </trkpt>
      <trkpt lat="47.51663" lon="6.65608">
        <ele>412.3</ele>
        <time>2017-10-22T09:23:01.000Z</time>
      </trkpt>
      <trkpt lat="47.51662" lon="6.65615">
        <ele>412.3</ele>
        <time>2017-10-22T09:23:02.000Z</time>
      </trkpt>
      <trkpt lat="47.51661" lon="6.65622">
        <ele>412.3</ele>
        <time>2017-10-22T09:23:03.000Z</time>
      </trkpt>
      <trkpt lat="47.5166" lon="6.65629">
        <ele>412.2</ele>
        <time>2017-10-22T09:23:04.000Z</time>
      </trkpt>
      <trkpt lat="47.51659" lon="6.65637">
        <ele>412</ele>
        <time>2017-10-22T09:23:05.000Z</time>
      </trkpt>
      <trkpt lat="47.51658" lon="6.65645">
        <ele>412</ele>
        <time>2017-10-22T09:23:06.000Z</time>
      </trkpt>
      <trkpt lat="47.51657" lon="6.65652">
        <ele>412.1</ele>
        <time>2017-10-22T09:23:07.000Z</time>
      </trkpt>
      <trkpt lat="47.51655" lon="6.6566">
        <ele>412.1</ele>
        <time>2017-10-22T09:23:08.000Z</time>
      </trkpt>
      <trkpt lat="47.51654" lon="6.65667">
        <ele>411.9</ele>
        <time>2017-10-22T09:23:08.999Z</time>
      </trkpt>
      <trkpt lat="47.51653" lon="6.65674">
        <ele>412.4</ele>
        <time>2017-10-22T09:23:09.999Z</time>
      </trkpt>
      <trkpt lat="47.51652" lon="6.65681">
        <ele>413.2</ele>
        <time>2017-10-22T09:23:10.999Z</time>
      </trkpt>
      <trkpt lat="47.51651" lon="6.65688">
        <ele>414.1</ele>
        <time>2017-10-22T09:23:11.999Z</time>
      </trkpt>
      <trkpt lat="47.5165" lon="6.65692">
        <ele>415.3</ele>
        <time>2017-10-22T09:23:12.999Z</time>
      </trkpt>
      <trkpt lat="47.5165" lon="6.65697">
        <ele>416</ele>
        <time>2017-10-22T09:23:13.999Z</time>
      </trkpt>
      <trkpt lat="47.51649" lon="6.65704">
        <ele>416.2</ele>
        <time>2017-10-22T09:23:14.999Z</time>
      </trkpt>
      <trkpt lat="47.51648" lon="6.65709">
        <ele>416.3</ele>
        <time>2017-10-22T09:23:15.999Z</time>
      </trkpt>
      <trkpt lat="47.51648" lon="6.65715">
        <ele>416</ele>
        <time>2017-10-22T09:23:16.999Z</time>
      </trkpt>
      <trkpt lat="47.51647" lon="6.65721">
        <ele>416</ele>
        <time>2017-10-22T09:23:17.999Z</time>
      </trkpt>
      <trkpt lat="47.51647" lon="6.65727">
        <ele>415.4</ele>
        <time>2017-10-22T09:23:18.999Z</time>
      </trkpt>
      <trkpt lat="47.51646" lon="6.65732">
        <ele>415.4</ele>
        <time>2017-10-22T09:23:19.999Z</time>
      </trkpt>
      <trkpt lat="47.51645" lon="6.65737">
        <ele>415.5</ele>
        <time>2017-10-22T09:23:20.999Z</time>
      </trkpt>
      <trkpt lat="47.51645" lon="6.65742">
        <ele>416.3</ele>
        <time>2017-10-22T09:23:21.999Z</time>
      </trkpt>
      <trkpt lat="47.51644" lon="6.65748">
        <ele>416.3</ele>
        <time>2017-10-22T09:23:22.999Z</time>
      </trkpt>
      <trkpt lat="47.51644" lon="6.65752">
        <ele>416.4</ele>
        <time>2017-10-22T09:23:23.999Z</time>
      </trkpt>
      <trkpt lat="47.51643" lon="6.65756">
        <ele>416.4</ele>
        <time>2017-10-22T09:23:24.999Z</time>
      </trkpt>
      <trkpt lat="47.51642" lon="6.65762">
        <ele>417.2</ele>
        <time>2017-10-22T09:23:25.999Z</time>
      </trkpt>
      <trkpt lat="47.51642" lon="6.65768">
        <ele>417.3</ele>
        <time>2017-10-22T09:23:26.999Z</time>
      </trkpt>
      <trkpt lat="47.51642" lon="6.65773">
        <ele>417.3</ele>
        <time>2017-10-22T09:23:27.999Z</time>
      </trkpt>
      <trkpt lat="47.51642" lon="6.6578">
        <ele>417.4</ele>
        <time>2017-10-22T09:23:28.999Z</time>
      </trkpt>
      <trkpt lat="47.51641" lon="6.65786">
        <ele>418.2</ele>
        <time>2017-10-22T09:23:29.999Z</time>
      </trkpt>
      <trkpt lat="47.51641" lon="6.65792">
        <ele>419</ele>
        <time>2017-10-22T09:23:30.999Z</time>
      </trkpt>
      <trkpt lat="47.51641" lon="6.65798">
        <ele>419.7</ele>
        <time>2017-10-22T09:23:31.999Z</time>
      </trkpt>
      <trkpt lat="47.5164" lon="6.65802">
        <ele>419.8</ele>
        <time>2017-10-22T09:23:32.999Z</time>
      </trkpt>
      <trkpt lat="47.5164" lon="6.65808">
        <ele>419.8</ele>
        <time>2017-10-22T09:23:33.999Z</time>
      </trkpt>
      <trkpt lat="47.5164" lon="6.65814">
        <ele>419.8</ele>
        <time>2017-10-22T09:23:34.999Z</time>
      </trkpt>
      <trkpt lat="47.5164" lon="6.65821">
        <ele>419.8</ele>
        <time>2017-10-22T09:23:35.999Z</time>
      </trkpt>
      <trkpt lat="47.5164" lon="6.65827">
        <ele>419.9</ele>
        <time>2017-10-22T09:23:36.999Z</time>
      </trkpt>
      <trkpt lat="47.5164" lon="6.65832">
        <ele>419.9</ele>
        <time>2017-10-22T09:23:37.999Z</time>
      </trkpt>
      <trkpt lat="47.51639" lon="6.65838">
        <ele>419.9</ele>
        <time>2017-10-22T09:23:38.999Z</time>
      </trkpt>
      <trkpt lat="47.51638" lon="6.65844">
        <ele>420.3</ele>
        <time>2017-10-22T09:23:39.999Z</time>
      </trkpt>
      <trkpt lat="47.51637" lon="6.6585">
        <ele>420.8</ele>
        <time>2017-10-22T09:23:40.999Z</time>
      </trkpt>
      <trkpt lat="47.51636" lon="6.65857">
        <ele>421.3</ele>
        <time>2017-10-22T09:23:41.999Z</time>
      </trkpt>
      <trkpt lat="47.51634" lon="6.65864">
        <ele>421.6</ele>
        <time>2017-10-22T09:23:42.999Z</time>
      </trkpt>
      <trkpt lat="47.51632" lon="6.6587">
        <ele>421.7</ele>
        <time>2017-10-22T09:23:43.999Z</time>
      </trkpt>
      <trkpt lat="47.51631" lon="6.65876">
        <ele>422.1</ele>
        <time>2017-10-22T09:23:44.999Z</time>
      </trkpt>
      <trkpt lat="47.51629" lon="6.65882">
        <ele>423</ele>
        <time>2017-10-22T09:23:45.999Z</time>
      </trkpt>
      <trkpt lat="47.51627" lon="6.65888">
        <ele>423.4</ele>
        <time>2017-10-22T09:23:46.999Z</time>
      </trkpt>
      <trkpt lat="47.51625" lon="6.65894">
        <ele>423.9</ele>
        <time>2017-10-22T09:23:47.999Z</time>
      </trkpt>
      <trkpt lat="47.51623" lon="6.65902">
        <ele>424.3</ele>
        <time>2017-10-22T09:23:48.999Z</time>
      </trkpt>
      <trkpt lat="47.51621" lon="6.65909">
        <ele>423.5</ele>
        <time>2017-10-22T09:23:49.999Z</time>
      </trkpt>
      <trkpt lat="47.51619" lon="6.65916">
        <ele>423</ele>
        <time>2017-10-22T09:23:50.999Z</time>
      </trkpt>
      <trkpt lat="47.51617" lon="6.65923">
        <ele>422</ele>
        <time>2017-10-22T09:23:51.999Z</time>
      </trkpt>
      <trkpt lat="47.51614" lon="6.65931">
        <ele>420.9</ele>
        <time>2017-10-22T09:23:52.999Z</time>
      </trkpt>
      <trkpt lat="47.51612" lon="6.65939">
        <ele>420.7</ele>
        <time>2017-10-22T09:23:53.999Z</time>
      </trkpt>
      <trkpt lat="47.5161" lon="6.65947">
        <ele>420.4</ele>
        <time>2017-10-22T09:23:54.999Z</time>
      </trkpt>
      <trkpt lat="47.51608" lon="6.65955">
        <ele>420.2</ele>
        <time>2017-10-22T09:23:55.999Z</time>
      </trkpt>
      <trkpt lat="47.51606" lon="6.65963">
        <ele>420.5</ele>
        <time>2017-10-22T09:23:56.999Z</time>
      </trkpt>
      <trkpt lat="47.51605" lon="6.65972">
        <ele>420.9</ele>
        <time>2017-10-22T09:23:57.999Z</time>
      </trkpt>
      <trkpt lat="47.51604" lon="6.6598">
        <ele>421.5</ele>
        <time>2017-10-22T09:23:58.999Z</time>
      </trkpt>
      <trkpt lat="47.51605" lon="6.65988">
        <ele>422.2</ele>
        <time>2017-10-22T09:23:59.999Z</time>
      </trkpt>
      <trkpt lat="47.51607" lon="6.65997">
        <ele>422.4</ele>
        <time>2017-10-22T09:24:00.999Z</time>
      </trkpt>
      <trkpt lat="47.51609" lon="6.66003">
        <ele>422.8</ele>
        <time>2017-10-22T09:24:01.999Z</time>
      </trkpt>
      <trkpt lat="47.51612" lon="6.6601">
        <ele>422.9</ele>
        <time>2017-10-22T09:24:02.999Z</time>
      </trkpt>
      <trkpt lat="47.51615" lon="6.66016">
        <ele>422.9</ele>
        <time>2017-10-22T09:24:03.999Z</time>
      </trkpt>
      <trkpt lat="47.51619" lon="6.66021">
        <ele>422.8</ele>
        <time>2017-10-22T09:24:04.999Z</time>
      </trkpt>
      <trkpt lat="47.51623" lon="6.66025">
        <ele>421.6</ele>
        <time>2017-10-22T09:24:05.999Z</time>
      </trkpt>
      <trkpt lat="47.51627" lon="6.66028">
        <ele>420.8</ele>
        <time>2017-10-22T09:24:06.999Z</time>
      </trkpt>
      <trkpt lat="47.51632" lon="6.66033">
        <ele>420.9</ele>
        <time>2017-10-22T09:24:07.999Z</time>
      </trkpt>
      <trkpt lat="47.51637" lon="6.66039">
        <ele>421</ele>
        <time>2017-10-22T09:24:08.999Z</time>
      </trkpt>
      <trkpt lat="47.51641" lon="6.66044">
        <ele>420.2</ele>
        <time>2017-10-22T09:24:09.999Z</time>
      </trkpt>
      <trkpt lat="47.51645" lon="6.66049">
        <ele>420.5</ele>
        <time>2017-10-22T09:24:10.999Z</time>
      </trkpt>
      <trkpt lat="47.51648" lon="6.66053">
        <ele>420.9</ele>
        <time>2017-10-22T09:24:11.999Z</time>
      </trkpt>
      <trkpt lat="47.51651" lon="6.66057">
        <ele>420.4</ele>
        <time>2017-10-22T09:24:12.999Z</time>
      </trkpt>
      <trkpt lat="47.51655" lon="6.6606">
        <ele>420.2</ele>
        <time>2017-10-22T09:24:13.999Z</time>
      </trkpt>
      <trkpt lat="47.51657" lon="6.66064">
        <ele>419.9</ele>
        <time>2017-10-22T09:24:14.999Z</time>
      </trkpt>
      <trkpt lat="47.5166" lon="6.66068">
        <ele>419.6</ele>
        <time>2017-10-22T09:24:15.999Z</time>
      </trkpt>
      <trkpt lat="47.51663" lon="6.66073">
        <ele>419.5</ele>
        <time>2017-10-22T09:24:16.999Z</time>
      </trkpt>
      <trkpt lat="47.51667" lon="6.66078">
        <ele>419.5</ele>
        <time>2017-10-22T09:24:17.999Z</time>
      </trkpt>
      <trkpt lat="47.51671" lon="6.66083">
        <ele>419.4</ele>
        <time>2017-10-22T09:24:18.999Z</time>
      </trkpt>
      <trkpt lat="47.51675" lon="6.66087">
        <ele>419.3</ele>
        <time>2017-10-22T09:24:19.999Z</time>
      </trkpt>
      <trkpt lat="47.51678" lon="6.66092">
        <ele>419.3</ele>
        <time>2017-10-22T09:24:20.999Z</time>
      </trkpt>
      <trkpt lat="47.51682" lon="6.66096">
        <ele>419.3</ele>
        <time>2017-10-22T09:24:21.999Z</time>
      </trkpt>
      <trkpt lat="47.51685" lon="6.66099">
        <ele>419.3</ele>
        <time>2017-10-22T09:24:22.999Z</time>
      </trkpt>
      <trkpt lat="47.51688" lon="6.66102">
        <ele>419.3</ele>
        <time>2017-10-22T09:24:23.999Z</time>
      </trkpt>
      <trkpt lat="47.51692" lon="6.66107">
        <ele>419.2</ele>
        <time>2017-10-22T09:24:24.999Z</time>
      </trkpt>
      <trkpt lat="47.51696" lon="6.66112">
        <ele>419.7</ele>
        <time>2017-10-22T09:24:25.999Z</time>
      </trkpt>
      <trkpt lat="47.51699" lon="6.66116">
        <ele>420.3</ele>
        <time>2017-10-22T09:24:26.999Z</time>
      </trkpt>
      <trkpt lat="47.51702" lon="6.66122">
        <ele>420.9</ele>
        <time>2017-10-22T09:24:27.999Z</time>
      </trkpt>
      <trkpt lat="47.51706" lon="6.66127">
        <ele>421.3</ele>
        <time>2017-10-22T09:24:28.999Z</time>
      </trkpt>
      <trkpt lat="47.5171" lon="6.66132">
        <ele>421.8</ele>
        <time>2017-10-22T09:24:29.999Z</time>
      </trkpt>
      <trkpt lat="47.51713" lon="6.66137">
        <ele>421.9</ele>
        <time>2017-10-22T09:24:30.999Z</time>
      </trkpt>
      <trkpt lat="47.51716" lon="6.66141">
        <ele>422.1</ele>
        <time>2017-10-22T09:24:31.999Z</time>
      </trkpt>
      <trkpt lat="47.5172" lon="6.66147">
        <ele>422.1</ele>
        <time>2017-10-22T09:24:32.999Z</time>
      </trkpt>
      <trkpt lat="47.51723" lon="6.66152">
        <ele>422.3</ele>
        <time>2017-10-22T09:24:33.999Z</time>
      </trkpt>
      <trkpt lat="47.51726" lon="6.66157">
        <ele>422.5</ele>
        <time>2017-10-22T09:24:34.999Z</time>
      </trkpt>
      <trkpt lat="47.5173" lon="6.66162">
        <ele>422.4</ele>
        <time>2017-10-22T09:24:35.999Z</time>
      </trkpt>
      <trkpt lat="47.51733" lon="6.66168">
        <ele>422.4</ele>
        <time>2017-10-22T09:24:36.999Z</time>
      </trkpt>
      <trkpt lat="47.51737" lon="6.66174">
        <ele>422.3</ele>
        <time>2017-10-22T09:24:37.999Z</time>
      </trkpt>
      <trkpt lat="47.5174" lon="6.6618">
        <ele>422.3</ele>
        <time>2017-10-22T09:24:38.999Z</time>
      </trkpt>
      <trkpt lat="47.51743" lon="6.66186">
        <ele>422.5</ele>
        <time>2017-10-22T09:24:39.999Z</time>
      </trkpt>
      <trkpt lat="47.51746" lon="6.6619">
        <ele>422.6</ele>
        <time>2017-10-22T09:24:40.999Z</time>
      </trkpt>
      <trkpt lat="47.51748" lon="6.66195">
        <ele>422.5</ele>
        <time>2017-10-22T09:24:41.999Z</time>
      </trkpt>
      <trkpt lat="47.51752" lon="6.662">
        <ele>422.5</ele>
        <time>2017-10-22T09:24:42.999Z</time>
      </trkpt>
      <trkpt lat="47.51755" lon="6.66206">
        <ele>422.3</ele>
        <time>2017-10-22T09:24:43.999Z</time>
      </trkpt>
      <trkpt lat="47.51762" lon="6.66217">
        <ele>421.8</ele>
        <time>2017-10-22T09:24:45.999Z</time>
      </trkpt>
      <trkpt lat="47.51765" lon="6.66222">
        <ele>421.6</ele>
        <time>2017-10-22T09:24:46.999Z</time>
      </trkpt>
      <trkpt lat="47.51768" lon="6.66227">
        <ele>421.7</ele>
        <time>2017-10-22T09:24:47.999Z</time>
      </trkpt>
      <trkpt lat="47.51771" lon="6.66233">
        <ele>421.7</ele>
        <time>2017-10-22T09:24:48.999Z</time>
      </trkpt>
      <trkpt lat="47.51775" lon="6.66238">
        <ele>421.8</ele>
        <time>2017-10-22T09:24:49.999Z</time>
      </trkpt>
      <trkpt lat="47.51779" lon="6.66244">
        <ele>422.2</ele>
        <time>2017-10-22T09:24:50.999Z</time>
      </trkpt>
      <trkpt lat="47.51782" lon="6.66249">
        <ele>422.7</ele>
        <time>2017-10-22T09:24:51.999Z</time>
      </trkpt>
      <trkpt lat="47.51786" lon="6.66254">
        <ele>422.9</ele>
        <time>2017-10-22T09:24:52.999Z</time>
      </trkpt>
      <trkpt lat="47.51788" lon="6.66258">
        <ele>422.1</ele>
        <time>2017-10-22T09:24:53.999Z</time>
      </trkpt>
      <trkpt lat="47.5179" lon="6.66261">
        <ele>421.5</ele>
        <time>2017-10-22T09:24:54.999Z</time>
      </trkpt>
      <trkpt lat="47.51792" lon="6.66265">
        <ele>421.5</ele>
        <time>2017-10-22T09:24:55.999Z</time>
      </trkpt>
      <trkpt lat="47.51794" lon="6.66267">
        <ele>421.4</ele>
        <time>2017-10-22T09:24:56.999Z</time>
      </trkpt>
      <trkpt lat="47.51797" lon="6.66272">
        <ele>421.3</ele>
        <time>2017-10-22T09:24:57.999Z</time>
      </trkpt>
      <trkpt lat="47.518" lon="6.66277">
        <ele>421.2</ele>
        <time>2017-10-22T09:24:58.999Z</time>
      </trkpt>
      <trkpt lat="47.51802" lon="6.6628">
        <ele>421.1</ele>
        <time>2017-10-22T09:24:59.999Z</time>
      </trkpt>
      <trkpt lat="47.51803" lon="6.66283">
        <ele>421</ele>
        <time>2017-10-22T09:25:00.999Z</time>
      </trkpt>
      <trkpt lat="47.51804" lon="6.66288">
        <ele>421</ele>
        <time>2017-10-22T09:25:01.999Z</time>
      </trkpt>
      <trkpt lat="47.51803" lon="6.66292">
        <ele>421</ele>
        <time>2017-10-22T09:25:02.999Z</time>
      </trkpt>
      <trkpt lat="47.51802" lon="6.66295">
        <ele>421</ele>
        <time>2017-10-22T09:25:03.999Z</time>
      </trkpt>
      <trkpt lat="47.518" lon="6.66299">
        <ele>421</ele>
        <time>2017-10-22T09:25:04.999Z</time>
      </trkpt>
      <trkpt lat="47.51799" lon="6.66302">
        <ele>421</ele>
        <time>2017-10-22T09:25:05.999Z</time>
      </trkpt>
      <trkpt lat="47.51798" lon="6.66305">
        <ele>421</ele>
        <time>2017-10-22T09:25:06.999Z</time>
      </trkpt>
      <trkpt lat="47.51796" lon="6.66308">
        <ele>421</ele>
        <time>2017-10-22T09:25:07.999Z</time>
      </trkpt>
      <trkpt lat="47.51795" lon="6.6631">
        <ele>421</ele>
        <time>2017-10-22T09:25:08.999Z</time>
      </trkpt>
      <trkpt lat="47.51795" lon="6.66314">
        <ele>421</ele>
        <time>2017-10-22T09:25:09.999Z</time>
      </trkpt>
      <trkpt lat="47.51796" lon="6.66317">
        <ele>421.1</ele>
        <time>2017-10-22T09:25:10.999Z</time>
      </trkpt>
      <trkpt lat="47.51798" lon="6.66322">
        <ele>421.2</ele>
        <time>2017-10-22T09:25:12.999Z</time>
      </trkpt>
      <trkpt lat="47.518" lon="6.66326">
        <ele>421.2</ele>
        <time>2017-10-22T09:25:13.999Z</time>
      </trkpt>
      <trkpt lat="47.51802" lon="6.66328">
        <ele>421.2</ele>
        <time>2017-10-22T09:25:14.999Z</time>
      </trkpt>
      <trkpt lat="47.51804" lon="6.6633">
        <ele>421.2</ele>
        <time>2017-10-22T09:25:15.999Z</time>
      </trkpt>
      <trkpt lat="47.51807" lon="6.66334">
        <ele>421.2</ele>
        <time>2017-10-22T09:25:17.999Z</time>
      </trkpt>
      <trkpt lat="47.51809" lon="6.66335">
        <ele>421.2</ele>
        <time>2017-10-22T09:25:18.999Z</time>
      </trkpt>
      <trkpt lat="47.51812" lon="6.66337">
        <ele>421.3</ele>
        <time>2017-10-22T09:25:20.999Z</time>
      </trkpt>
      <trkpt lat="47.51814" lon="6.66339">
        <ele>421.4</ele>
        <time>2017-10-22T09:25:21.999Z</time>
      </trkpt>
      <trkpt lat="47.51816" lon="6.6634">
        <ele>421.4</ele>
        <time>2017-10-22T09:25:22.999Z</time>
      </trkpt>
      <trkpt lat="47.51818" lon="6.66343">
        <ele>421.4</ele>
        <time>2017-10-22T09:25:23.999Z</time>
      </trkpt>
      <trkpt lat="47.5182" lon="6.66345">
        <ele>421.4</ele>
        <time>2017-10-22T09:25:24.999Z</time>
      </trkpt>
      <trkpt lat="47.51823" lon="6.66347">
        <ele>421.3</ele>
        <time>2017-10-22T09:25:25.999Z</time>
      </trkpt>
      <trkpt lat="47.51825" lon="6.6635">
        <ele>421.4</ele>
        <time>2017-10-22T09:25:26.999Z</time>
      </trkpt>
      <trkpt lat="47.51827" lon="6.66352">
        <ele>421.5</ele>
        <time>2017-10-22T09:25:27.999Z</time>
      </trkpt>
      <trkpt lat="47.51828" lon="6.66355">
        <ele>421.5</ele>
        <time>2017-10-22T09:25:28.999Z</time>
      </trkpt>
      <trkpt lat="47.51831" lon="6.66358">
        <ele>421.5</ele>
        <time>2017-10-22T09:25:29.999Z</time>
      </trkpt>
      <trkpt lat="47.51833" lon="6.66361">
        <ele>421.5</ele>
        <time>2017-10-22T09:25:30.999Z</time>
      </trkpt>
      <trkpt lat="47.51836" lon="6.66364">
        <ele>421.5</ele>
        <time>2017-10-22T09:25:31.999Z</time>
      </trkpt>
      <trkpt lat="47.51838" lon="6.66367">
        <ele>421.5</ele>
        <time>2017-10-22T09:25:32.999Z</time>
      </trkpt>
      <trkpt lat="47.5184" lon="6.6637">
        <ele>421.5</ele>
        <time>2017-10-22T09:25:33.999Z</time>
      </trkpt>
      <trkpt lat="47.51842" lon="6.66373">
        <ele>421.4</ele>
        <time>2017-10-22T09:25:34.999Z</time>
      </trkpt>
      <trkpt lat="47.51843" lon="6.66375">
        <ele>421.4</ele>
        <time>2017-10-22T09:25:35.999Z</time>
      </trkpt>
      <trkpt lat="47.51845" lon="6.66378">
        <ele>421.5</ele>
        <time>2017-10-22T09:25:37.999Z</time>
      </trkpt>
      <trkpt lat="47.51847" lon="6.6638">
        <ele>421.5</ele>
        <time>2017-10-22T09:25:38.999Z</time>
      </trkpt>
      <trkpt lat="47.5185" lon="6.66384">
        <ele>421.5</ele>
        <time>2017-10-22T09:25:40.999Z</time>
      </trkpt>
      <trkpt lat="47.51852" lon="6.66386">
        <ele>421.5</ele>
        <time>2017-10-22T09:25:41.999Z</time>
      </trkpt>
      <trkpt lat="47.51855" lon="6.66389">
        <ele>421.5</ele>
        <time>2017-10-22T09:25:43.999Z</time>
      </trkpt>
      <trkpt lat="47.51856" lon="6.6639">
        <ele>421.6</ele>
        <time>2017-10-22T09:25:44.999Z</time>
      </trkpt>
      <trkpt lat="47.51859" lon="6.66393">
        <ele>421.6</ele>
        <time>2017-10-22T09:25:45.999Z</time>
      </trkpt>
      <trkpt lat="47.51862" lon="6.66397">
        <ele>421.7</ele>
        <time>2017-10-22T09:25:46.999Z</time>
      </trkpt>
      <trkpt lat="47.51865" lon="6.664">
        <ele>421.8</ele>
        <time>2017-10-22T09:25:47.999Z</time>
      </trkpt>
      <trkpt lat="47.51868" lon="6.66404">
        <ele>421.8</ele>
        <time>2017-10-22T09:25:48.999Z</time>
      </trkpt>
      <trkpt lat="47.5187" lon="6.66407">
        <ele>421.9</ele>
        <time>2017-10-22T09:25:49.999Z</time>
      </trkpt>
      <trkpt lat="47.51871" lon="6.66409">
        <ele>421.9</ele>
        <time>2017-10-22T09:25:50.999Z</time>
      </trkpt>
      <trkpt lat="47.51873" lon="6.66412">
        <ele>421.9</ele>
        <time>2017-10-22T09:25:51.999Z</time>
      </trkpt>
      <trkpt lat="47.51875" lon="6.66415">
        <ele>422</ele>
        <time>2017-10-22T09:25:52.999Z</time>
      </trkpt>
      <trkpt lat="47.51876" lon="6.66418">
        <ele>422</ele>
        <time>2017-10-22T09:25:53.999Z</time>
      </trkpt>
      <trkpt lat="47.51878" lon="6.66421">
        <ele>422.1</ele>
        <time>2017-10-22T09:25:54.999Z</time>
      </trkpt>
      <trkpt lat="47.51881" lon="6.66425">
        <ele>422.1</ele>
        <time>2017-10-22T09:25:55.999Z</time>
      </trkpt>
      <trkpt lat="47.51883" lon="6.66428">
        <ele>422.1</ele>
        <time>2017-10-22T09:25:56.999Z</time>
      </trkpt>
      <trkpt lat="47.51885" lon="6.66431">
        <ele>422.2</ele>
        <time>2017-10-22T09:25:57.999Z</time>
      </trkpt>
      <trkpt lat="47.51886" lon="6.66434">
        <ele>422.3</ele>
        <time>2017-10-22T09:25:58.999Z</time>
      </trkpt>
      <trkpt lat="47.51888" lon="6.66436">
        <ele>422.3</ele>
        <time>2017-10-22T09:25:59.999Z</time>
      </trkpt>
      <trkpt lat="47.5189" lon="6.66439">
        <ele>422.4</ele>
        <time>2017-10-22T09:26:00.999Z</time>
      </trkpt>
      <trkpt lat="47.51891" lon="6.66441">
        <ele>422.4</ele>
        <time>2017-10-22T09:26:01.999Z</time>
      </trkpt>
      <trkpt lat="47.51893" lon="6.66444">
        <ele>422.3</ele>
        <time>2017-10-22T09:26:02.999Z</time>
      </trkpt>
      <trkpt lat="47.51895" lon="6.66447">
        <ele>422.3</ele>
        <time>2017-10-22T09:26:03.999Z</time>
      </trkpt>
      <trkpt lat="47.51897" lon="6.6645">
        <ele>422.4</ele>
        <time>2017-10-22T09:26:04.999Z</time>
      </trkpt>
      <trkpt lat="47.51899" lon="6.66453">
        <ele>422.5</ele>
        <time>2017-10-22T09:26:05.999Z</time>
      </trkpt>
      <trkpt lat="47.519" lon="6.66455">
        <ele>422.6</ele>
        <time>2017-10-22T09:26:06.999Z</time>
      </trkpt>
      <trkpt lat="47.51902" lon="6.66458">
        <ele>422.7</ele>
        <time>2017-10-22T09:26:07.999Z</time>
      </trkpt>
      <trkpt lat="47.51904" lon="6.66461">
        <ele>422.8</ele>
        <time>2017-10-22T09:26:08.999Z</time>
      </trkpt>
      <trkpt lat="47.51906" lon="6.66464">
        <ele>422.9</ele>
        <time>2017-10-22T09:26:09.999Z</time>
      </trkpt>
      <trkpt lat="47.51908" lon="6.66467">
        <ele>423</ele>
        <time>2017-10-22T09:26:10.999Z</time>
      </trkpt>
      <trkpt lat="47.5191" lon="6.6647">
        <ele>423.1</ele>
        <time>2017-10-22T09:26:11.999Z</time>
      </trkpt>
      <trkpt lat="47.51912" lon="6.66473">
        <ele>423.1</ele>
        <time>2017-10-22T09:26:12.999Z</time>
      </trkpt>
      <trkpt lat="47.51914" lon="6.66476">
        <ele>423.2</ele>
        <time>2017-10-22T09:26:13.999Z</time>
      </trkpt>
      <trkpt lat="47.51915" lon="6.66478">
        <ele>423.2</ele>
        <time>2017-10-22T09:26:14.999Z</time>
      </trkpt>
      <trkpt lat="47.51917" lon="6.6648">
        <ele>423.2</ele>
        <time>2017-10-22T09:26:15.999Z</time>
      </trkpt>
      <trkpt lat="47.51919" lon="6.66483">
        <ele>423.2</ele>
        <time>2017-10-22T09:26:16.999Z</time>
      </trkpt>
      <trkpt lat="47.51923" lon="6.66486">
        <ele>423.4</ele>
        <time>2017-10-22T09:26:18.999Z</time>
      </trkpt>
      <trkpt lat="47.51924" lon="6.66489">
        <ele>423.5</ele>
        <time>2017-10-22T09:26:19.999Z</time>
      </trkpt>
      <trkpt lat="47.51926" lon="6.66492">
        <ele>423.7</ele>
        <time>2017-10-22T09:26:21.999Z</time>
      </trkpt>
      <trkpt lat="47.51928" lon="6.66495">
        <ele>423.8</ele>
        <time>2017-10-22T09:26:22.999Z</time>
      </trkpt>
      <trkpt lat="47.51931" lon="6.66499">
        <ele>424</ele>
        <time>2017-10-22T09:26:24.999Z</time>
      </trkpt>
      <trkpt lat="47.51932" lon="6.66498">
        <ele>424.1</ele>
        <time>2017-10-22T09:26:25.999Z</time>
      </trkpt>
      <trkpt lat="47.51936" lon="6.66494">
        <ele>424.1</ele>
        <time>2017-10-22T09:26:26.999Z</time>
      </trkpt>
      <trkpt lat="47.5194" lon="6.66491">
        <ele>424.1</ele>
        <time>2017-10-22T09:26:27.999Z</time>
      </trkpt>
      <trkpt lat="47.51943" lon="6.66488">
        <ele>424.1</ele>
        <time>2017-10-22T09:26:28.999Z</time>
      </trkpt>
      <trkpt lat="47.51946" lon="6.66486">
        <ele>424.1</ele>
        <time>2017-10-22T09:26:29.999Z</time>
      </trkpt>
      <trkpt lat="47.51948" lon="6.66484">
        <ele>424</ele>
        <time>2017-10-22T09:26:30.999Z</time>
      </trkpt>
      <trkpt lat="47.51951" lon="6.66482">
        <ele>424</ele>
        <time>2017-10-22T09:26:31.999Z</time>
      </trkpt>
      <trkpt lat="47.51953" lon="6.66479">
        <ele>423.9</ele>
        <time>2017-10-22T09:26:32.999Z</time>
      </trkpt>
      <trkpt lat="47.51956" lon="6.66477">
        <ele>423.8</ele>
        <time>2017-10-22T09:26:33.999Z</time>
      </trkpt>
      <trkpt lat="47.51958" lon="6.66474">
        <ele>423.6</ele>
        <time>2017-10-22T09:26:34.999Z</time>
      </trkpt>
      <trkpt lat="47.51961" lon="6.66472">
        <ele>423.4</ele>
        <time>2017-10-22T09:26:35.999Z</time>
      </trkpt>
      <trkpt lat="47.51963" lon="6.6647">
        <ele>423.2</ele>
        <time>2017-10-22T09:26:36.999Z</time>
      </trkpt>
      <trkpt lat="47.51966" lon="6.66467">
        <ele>423</ele>
        <time>2017-10-22T09:26:37.999Z</time>
      </trkpt>
      <trkpt lat="47.51968" lon="6.66465">
        <ele>422.8</ele>
        <time>2017-10-22T09:26:38.999Z</time>
      </trkpt>
      <trkpt lat="47.5197" lon="6.66462">
        <ele>422.6</ele>
        <time>2017-10-22T09:26:39.999Z</time>
      </trkpt>
      <trkpt lat="47.51973" lon="6.6646">
        <ele>422.4</ele>
        <time>2017-10-22T09:26:40.999Z</time>
      </trkpt>
      <trkpt lat="47.51976" lon="6.66458">
        <ele>422.1</ele>
        <time>2017-10-22T09:26:41.999Z</time>
      </trkpt>
      <trkpt lat="47.51979" lon="6.66454">
        <ele>421.9</ele>
        <time>2017-10-22T09:26:42.999Z</time>
      </trkpt>
      <trkpt lat="47.51982" lon="6.66452">
        <ele>421.6</ele>
        <time>2017-10-22T09:26:43.999Z</time>
      </trkpt>
      <trkpt lat="47.51985" lon="6.6645">
        <ele>421.4</ele>
        <time>2017-10-22T09:26:44.999Z</time>
      </trkpt>
      <trkpt lat="47.51987" lon="6.66448">
        <ele>421.2</ele>
        <time>2017-10-22T09:26:45.999Z</time>
      </trkpt>
      <trkpt lat="47.5199" lon="6.66446">
        <ele>421</ele>
        <time>2017-10-22T09:26:46.999Z</time>
      </trkpt>
      <trkpt lat="47.51993" lon="6.66443">
        <ele>420.7</ele>
        <time>2017-10-22T09:26:47.999Z</time>
      </trkpt>
      <trkpt lat="47.51996" lon="6.66441">
        <ele>420.5</ele>
        <time>2017-10-22T09:26:48.999Z</time>
      </trkpt>
      <trkpt lat="47.51999" lon="6.66438">
        <ele>420.3</ele>
        <time>2017-10-22T09:26:49.999Z</time>
      </trkpt>
      <trkpt lat="47.52003" lon="6.66436">
        <ele>420.1</ele>
        <time>2017-10-22T09:26:50.999Z</time>
      </trkpt>
      <trkpt lat="47.52006" lon="6.66433">
        <ele>419.8</ele>
        <time>2017-10-22T09:26:51.999Z</time>
      </trkpt>
      <trkpt lat="47.52009" lon="6.6643">
        <ele>419.6</ele>
        <time>2017-10-22T09:26:52.999Z</time>
      </trkpt>
      <trkpt lat="47.52011" lon="6.66428">
        <ele>419.4</ele>
        <time>2017-10-22T09:26:53.999Z</time>
      </trkpt>
      <trkpt lat="47.52014" lon="6.66425">
        <ele>419.2</ele>
        <time>2017-10-22T09:26:54.999Z</time>
      </trkpt>
      <trkpt lat="47.52018" lon="6.66421">
        <ele>419</ele>
        <time>2017-10-22T09:26:55.999Z</time>
      </trkpt>
      <trkpt lat="47.52021" lon="6.66418">
        <ele>418.8</ele>
        <time>2017-10-22T09:26:56.999Z</time>
      </trkpt>
      <trkpt lat="47.52025" lon="6.66414">
        <ele>418.7</ele>
        <time>2017-10-22T09:26:57.999Z</time>
      </trkpt>
      <trkpt lat="47.52028" lon="6.66411">
        <ele>418.5</ele>
        <time>2017-10-22T09:26:58.999Z</time>
      </trkpt>
      <trkpt lat="47.52031" lon="6.66408">
        <ele>417.4</ele>
        <time>2017-10-22T09:26:59.999Z</time>
      </trkpt>
      <trkpt lat="47.52034" lon="6.66405">
        <ele>416.8</ele>
        <time>2017-10-22T09:27:00.999Z</time>
      </trkpt>
      <trkpt lat="47.52037" lon="6.66402">
        <ele>416.2</ele>
        <time>2017-10-22T09:27:01.999Z</time>
      </trkpt>
      <trkpt lat="47.5204" lon="6.66398">
        <ele>416.1</ele>
        <time>2017-10-22T09:27:02.999Z</time>
      </trkpt>
      <trkpt lat="47.52043" lon="6.66394">
        <ele>414.7</ele>
        <time>2017-10-22T09:27:03.999Z</time>
      </trkpt>
      <trkpt lat="47.52046" lon="6.6639">
        <ele>413.5</ele>
        <time>2017-10-22T09:27:04.999Z</time>
      </trkpt>
      <trkpt lat="47.5205" lon="6.66386">
        <ele>413.1</ele>
        <time>2017-10-22T09:27:05.999Z</time>
      </trkpt>
      <trkpt lat="47.52053" lon="6.66382">
        <ele>412.4</ele>
        <time>2017-10-22T09:27:06.999Z</time>
      </trkpt>
      <trkpt lat="47.52056" lon="6.66377">
        <ele>412.1</ele>
        <time>2017-10-22T09:27:07.999Z</time>
      </trkpt>
      <trkpt lat="47.52059" lon="6.66373">
        <ele>412</ele>
        <time>2017-10-22T09:27:08.999Z</time>
      </trkpt>
      <trkpt lat="47.52062" lon="6.66368">
        <ele>411</ele>
        <time>2017-10-22T09:27:09.999Z</time>
      </trkpt>
      <trkpt lat="47.52065" lon="6.66364">
        <ele>410.2</ele>
        <time>2017-10-22T09:27:10.999Z</time>
      </trkpt>
      <trkpt lat="47.52066" lon="6.66361">
        <ele>410.1</ele>
        <time>2017-10-22T09:27:11.999Z</time>
      </trkpt>
      <trkpt lat="47.52069" lon="6.66358">
        <ele>410.1</ele>
        <time>2017-10-22T09:27:12.999Z</time>
      </trkpt>
      <trkpt lat="47.52071" lon="6.66354">
        <ele>410</ele>
        <time>2017-10-22T09:27:13.999Z</time>
      </trkpt>
      <trkpt lat="47.52074" lon="6.6635">
        <ele>410</ele>
        <time>2017-10-22T09:27:14.999Z</time>
      </trkpt>
      <trkpt lat="47.52076" lon="6.66347">
        <ele>410</ele>
        <time>2017-10-22T09:27:15.999Z</time>
      </trkpt>
      <trkpt lat="47.52079" lon="6.66344">
        <ele>410</ele>
        <time>2017-10-22T09:27:16.999Z</time>
      </trkpt>
      <trkpt lat="47.52081" lon="6.66341">
        <ele>410</ele>
        <time>2017-10-22T09:27:17.999Z</time>
      </trkpt>
      <trkpt lat="47.52083" lon="6.66338">
        <ele>410</ele>
        <time>2017-10-22T09:27:18.999Z</time>
      </trkpt>
      <trkpt lat="47.52085" lon="6.66334">
        <ele>410</ele>
        <time>2017-10-22T09:27:19.999Z</time>
      </trkpt>
      <trkpt lat="47.52087" lon="6.66331">
        <ele>410</ele>
        <time>2017-10-22T09:27:20.999Z</time>
      </trkpt>
      <trkpt lat="47.5209" lon="6.6633">
        <ele>410</ele>
        <time>2017-10-22T09:27:21.999Z</time>
      </trkpt>
      <trkpt lat="47.52092" lon="6.66333">
        <ele>410.1</ele>
        <time>2017-10-22T09:27:23.999Z</time>
      </trkpt>
      <trkpt lat="47.52093" lon="6.66336">
        <ele>410.3</ele>
        <time>2017-10-22T09:27:24.999Z</time>
      </trkpt>
      <trkpt lat="47.52096" lon="6.66341">
        <ele>412.5</ele>
        <time>2017-10-22T09:27:25.999Z</time>
      </trkpt>
      <trkpt lat="47.52098" lon="6.66346">
        <ele>414.9</ele>
        <time>2017-10-22T09:27:26.999Z</time>
      </trkpt>
      <trkpt lat="47.52099" lon="6.66351">
        <ele>415.1</ele>
        <time>2017-10-22T09:27:27.999Z</time>
      </trkpt>
      <trkpt lat="47.52101" lon="6.66357">
        <ele>415.3</ele>
        <time>2017-10-22T09:27:28.999Z</time>
      </trkpt>
      <trkpt lat="47.52103" lon="6.66364">
        <ele>417.7</ele>
        <time>2017-10-22T09:27:29.999Z</time>
      </trkpt>
      <trkpt lat="47.52104" lon="6.6637">
        <ele>419.3</ele>
        <time>2017-10-22T09:27:30.999Z</time>
      </trkpt>
      <trkpt lat="47.52106" lon="6.66377">
        <ele>420.9</ele>
        <time>2017-10-22T09:27:31.999Z</time>
      </trkpt>
      <trkpt lat="47.52108" lon="6.66385">
        <ele>422.2</ele>
        <time>2017-10-22T09:27:32.999Z</time>
      </trkpt>
      <trkpt lat="47.52109" lon="6.66392">
        <ele>423.9</ele>
        <time>2017-10-22T09:27:33.999Z</time>
      </trkpt>
      <trkpt lat="47.52111" lon="6.66398">
        <ele>425.1</ele>
        <time>2017-10-22T09:27:34.999Z</time>
      </trkpt>
      <trkpt lat="47.52112" lon="6.66406">
        <ele>425.9</ele>
        <time>2017-10-22T09:27:35.999Z</time>
      </trkpt>
      <trkpt lat="47.52114" lon="6.66413">
        <ele>426.5</ele>
        <time>2017-10-22T09:27:36.999Z</time>
      </trkpt>
      <trkpt lat="47.52114" lon="6.66419">
        <ele>427.4</ele>
        <time>2017-10-22T09:27:37.999Z</time>
      </trkpt>
      <trkpt lat="47.52115" lon="6.66426">
        <ele>428.1</ele>
        <time>2017-10-22T09:27:38.999Z</time>
      </trkpt>
      <trkpt lat="47.52116" lon="6.66434">
        <ele>428.6</ele>
        <time>2017-10-22T09:27:39.999Z</time>
      </trkpt>
      <trkpt lat="47.52117" lon="6.66441">
        <ele>429.3</ele>
        <time>2017-10-22T09:27:40.999Z</time>
      </trkpt>
      <trkpt lat="47.52117" lon="6.66448">
        <ele>430</ele>
        <time>2017-10-22T09:27:41.999Z</time>
      </trkpt>
      <trkpt lat="47.52117" lon="6.66455">
        <ele>429.7</ele>
        <time>2017-10-22T09:27:42.999Z</time>
      </trkpt>
      <trkpt lat="47.52117" lon="6.66462">
        <ele>429.9</ele>
        <time>2017-10-22T09:27:43.999Z</time>
      </trkpt>
      <trkpt lat="47.52116" lon="6.66475">
        <ele>429.9</ele>
        <time>2017-10-22T09:27:45.999Z</time>
      </trkpt>
      <trkpt lat="47.52115" lon="6.66481">
        <ele>430</ele>
        <time>2017-10-22T09:27:46.999Z</time>
      </trkpt>
      <trkpt lat="47.52115" lon="6.66488">
        <ele>430.4</ele>
        <time>2017-10-22T09:27:47.999Z</time>
      </trkpt>
      <trkpt lat="47.52114" lon="6.66495">
        <ele>430.4</ele>
        <time>2017-10-22T09:27:48.999Z</time>
      </trkpt>
      <trkpt lat="47.52113" lon="6.66502">
        <ele>429.9</ele>
        <time>2017-10-22T09:27:49.999Z</time>
      </trkpt>
      <trkpt lat="47.52113" lon="6.66509">
        <ele>429.3</ele>
        <time>2017-10-22T09:27:50.999Z</time>
      </trkpt>
      <trkpt lat="47.52112" lon="6.66516">
        <ele>428.5</ele>
        <time>2017-10-22T09:27:51.999Z</time>
      </trkpt>
      <trkpt lat="47.52112" lon="6.66522">
        <ele>427.7</ele>
        <time>2017-10-22T09:27:52.999Z</time>
      </trkpt>
      <trkpt lat="47.52111" lon="6.66528">
        <ele>427.4</ele>
        <time>2017-10-22T09:27:53.999Z</time>
      </trkpt>
      <trkpt lat="47.5211" lon="6.66533">
        <ele>427.2</ele>
        <time>2017-10-22T09:27:54.999Z</time>
      </trkpt>
      <trkpt lat="47.5211" lon="6.6654">
        <ele>427.1</ele>
        <time>2017-10-22T09:27:55.999Z</time>
      </trkpt>
      <trkpt lat="47.5211" lon="6.66546">
        <ele>427.5</ele>
        <time>2017-10-22T09:27:56.999Z</time>
      </trkpt>
      <trkpt lat="47.5211" lon="6.66552">
        <ele>427.7</ele>
        <time>2017-10-22T09:27:57.999Z</time>
      </trkpt>
      <trkpt lat="47.52109" lon="6.66559">
        <ele>428</ele>
        <time>2017-10-22T09:27:58.999Z</time>
      </trkpt>
      <trkpt lat="47.52109" lon="6.66565">
        <ele>428.5</ele>
        <time>2017-10-22T09:27:59.999Z</time>
      </trkpt>
      <trkpt lat="47.52109" lon="6.66572">
        <ele>428.8</ele>
        <time>2017-10-22T09:28:00.999Z</time>
      </trkpt>
      <trkpt lat="47.52109" lon="6.66578">
        <ele>429.1</ele>
        <time>2017-10-22T09:28:01.999Z</time>
      </trkpt>
      <trkpt lat="47.52109" lon="6.66583">
        <ele>429.1</ele>
        <time>2017-10-22T09:28:02.999Z</time>
      </trkpt>
      <trkpt lat="47.52108" lon="6.66589">
        <ele>428.8</ele>
        <time>2017-10-22T09:28:03.999Z</time>
      </trkpt>
      <trkpt lat="47.52108" lon="6.66595">
        <ele>428.5</ele>
        <time>2017-10-22T09:28:04.999Z</time>
      </trkpt>
      <trkpt lat="47.52108" lon="6.66601">
        <ele>428</ele>
        <time>2017-10-22T09:28:05.999Z</time>
      </trkpt>
      <trkpt lat="47.52108" lon="6.66608">
        <ele>427.7</ele>
        <time>2017-10-22T09:28:06.999Z</time>
      </trkpt>
      <trkpt lat="47.52108" lon="6.66616">
        <ele>428</ele>
        <time>2017-10-22T09:28:07.999Z</time>
      </trkpt>
      <trkpt lat="47.52108" lon="6.66622">
        <ele>428.2</ele>
        <time>2017-10-22T09:28:08.999Z</time>
      </trkpt>
      <trkpt lat="47.52108" lon="6.66629">
        <ele>428.4</ele>
        <time>2017-10-22T09:28:09.999Z</time>
      </trkpt>
      <trkpt lat="47.52108" lon="6.66636">
        <ele>428.9</ele>
        <time>2017-10-22T09:28:10.999Z</time>
      </trkpt>
      <trkpt lat="47.52108" lon="6.66643">
        <ele>428.7</ele>
        <time>2017-10-22T09:28:11.999Z</time>
      </trkpt>
      <trkpt lat="47.52109" lon="6.6665">
        <ele>428.3</ele>
        <time>2017-10-22T09:28:12.999Z</time>
      </trkpt>
      <trkpt lat="47.52109" lon="6.66657">
        <ele>427.8</ele>
        <time>2017-10-22T09:28:13.999Z</time>
      </trkpt>
      <trkpt lat="47.52109" lon="6.66664">
        <ele>427.5</ele>
        <time>2017-10-22T09:28:14.999Z</time>
      </trkpt>
      <trkpt lat="47.52109" lon="6.66672">
        <ele>427.2</ele>
        <time>2017-10-22T09:28:15.999Z</time>
      </trkpt>
      <trkpt lat="47.52109" lon="6.66681">
        <ele>427</ele>
        <time>2017-10-22T09:28:16.999Z</time>
      </trkpt>
      <trkpt lat="47.52109" lon="6.66689">
        <ele>426.8</ele>
        <time>2017-10-22T09:28:17.999Z</time>
      </trkpt>
      <trkpt lat="47.52109" lon="6.66697">
        <ele>426.4</ele>
        <time>2017-10-22T09:28:18.999Z</time>
      </trkpt>
      <trkpt lat="47.52108" lon="6.66705">
        <ele>426.6</ele>
        <time>2017-10-22T09:28:19.999Z</time>
      </trkpt>
      <trkpt lat="47.52108" lon="6.66714">
        <ele>426.9</ele>
        <time>2017-10-22T09:28:20.999Z</time>
      </trkpt>
      <trkpt lat="47.52108" lon="6.66722">
        <ele>427.1</ele>
        <time>2017-10-22T09:28:21.999Z</time>
      </trkpt>
      <trkpt lat="47.52108" lon="6.66731">
        <ele>427.3</ele>
        <time>2017-10-22T09:28:22.999Z</time>
      </trkpt>
      <trkpt lat="47.52107" lon="6.6674">
        <ele>427.3</ele>
        <time>2017-10-22T09:28:23.999Z</time>
      </trkpt>
      <trkpt lat="47.52107" lon="6.66748">
        <ele>427.4</ele>
        <time>2017-10-22T09:28:24.999Z</time>
      </trkpt>
      <trkpt lat="47.52107" lon="6.66757">
        <ele>427.5</ele>
        <time>2017-10-22T09:28:25.999Z</time>
      </trkpt>
      <trkpt lat="47.52106" lon="6.66765">
        <ele>427.7</ele>
        <time>2017-10-22T09:28:26.999Z</time>
      </trkpt>
      <trkpt lat="47.52106" lon="6.66774">
        <ele>428.1</ele>
        <time>2017-10-22T09:28:27.999Z</time>
      </trkpt>
      <trkpt lat="47.52106" lon="6.66782">
        <ele>428.5</ele>
        <time>2017-10-22T09:28:28.999Z</time>
      </trkpt>
      <trkpt lat="47.52105" lon="6.66791">
        <ele>428.7</ele>
        <time>2017-10-22T09:28:29.999Z</time>
      </trkpt>
      <trkpt lat="47.52105" lon="6.66801">
        <ele>428.8</ele>
        <time>2017-10-22T09:28:30.999Z</time>
      </trkpt>
      <trkpt lat="47.52106" lon="6.6681">
        <ele>428.9</ele>
        <time>2017-10-22T09:28:31.999Z</time>
      </trkpt>
      <trkpt lat="47.52106" lon="6.6682">
        <ele>429.1</ele>
        <time>2017-10-22T09:28:32.999Z</time>
      </trkpt>
      <trkpt lat="47.52107" lon="6.6683">
        <ele>429.4</ele>
        <time>2017-10-22T09:28:33.999Z</time>
      </trkpt>
      <trkpt lat="47.52108" lon="6.6684">
        <ele>429.7</ele>
        <time>2017-10-22T09:28:34.999Z</time>
      </trkpt>
      <trkpt lat="47.52108" lon="6.66849">
        <ele>430.3</ele>
        <time>2017-10-22T09:28:35.999Z</time>
      </trkpt>
      <trkpt lat="47.52109" lon="6.66857">
        <ele>430.9</ele>
        <time>2017-10-22T09:28:36.999Z</time>
      </trkpt>
      <trkpt lat="47.5211" lon="6.66867">
        <ele>431.6</ele>
        <time>2017-10-22T09:28:37.999Z</time>
      </trkpt>
      <trkpt lat="47.5211" lon="6.66876">
        <ele>431.7</ele>
        <time>2017-10-22T09:28:38.999Z</time>
      </trkpt>
      <trkpt lat="47.5211" lon="6.66885">
        <ele>431.8</ele>
        <time>2017-10-22T09:28:39.999Z</time>
      </trkpt>
      <trkpt lat="47.5211" lon="6.66894">
        <ele>431.5</ele>
        <time>2017-10-22T09:28:40.999Z</time>
      </trkpt>
      <trkpt lat="47.52111" lon="6.66903">
        <ele>431</ele>
        <time>2017-10-22T09:28:41.999Z</time>
      </trkpt>
      <trkpt lat="47.52111" lon="6.66912">
        <ele>430.7</ele>
        <time>2017-10-22T09:28:42.999Z</time>
      </trkpt>
      <trkpt lat="47.52112" lon="6.66922">
        <ele>430.6</ele>
        <time>2017-10-22T09:28:43.999Z</time>
      </trkpt>
      <trkpt lat="47.52112" lon="6.66932">
        <ele>430.1</ele>
        <time>2017-10-22T09:28:44.999Z</time>
      </trkpt>
      <trkpt lat="47.52112" lon="6.66941">
        <ele>429.5</ele>
        <time>2017-10-22T09:28:45.999Z</time>
      </trkpt>
      <trkpt lat="47.52112" lon="6.66951">
        <ele>429.1</ele>
        <time>2017-10-22T09:28:46.999Z</time>
      </trkpt>
      <trkpt lat="47.52113" lon="6.66962">
        <ele>429.2</ele>
        <time>2017-10-22T09:28:47.999Z</time>
      </trkpt>
      <trkpt lat="47.52113" lon="6.66971">
        <ele>429.3</ele>
        <time>2017-10-22T09:28:48.999Z</time>
      </trkpt>
      <trkpt lat="47.52114" lon="6.6698">
        <ele>429.1</ele>
        <time>2017-10-22T09:28:49.999Z</time>
      </trkpt>
      <trkpt lat="47.52115" lon="6.66989">
        <ele>428.7</ele>
        <time>2017-10-22T09:28:50.999Z</time>
      </trkpt>
      <trkpt lat="47.52117" lon="6.66999">
        <ele>428.6</ele>
        <time>2017-10-22T09:28:51.999Z</time>
      </trkpt>
      <trkpt lat="47.52118" lon="6.67009">
        <ele>428.4</ele>
        <time>2017-10-22T09:28:52.999Z</time>
      </trkpt>
      <trkpt lat="47.5212" lon="6.67019">
        <ele>428.1</ele>
        <time>2017-10-22T09:28:53.999Z</time>
      </trkpt>
      <trkpt lat="47.52122" lon="6.67029">
        <ele>428.3</ele>
        <time>2017-10-22T09:28:54.999Z</time>
      </trkpt>
      <trkpt lat="47.52124" lon="6.67039">
        <ele>428</ele>
        <time>2017-10-22T09:28:55.999Z</time>
      </trkpt>
      <trkpt lat="47.52127" lon="6.67052">
        <ele>427.3</ele>
        <time>2017-10-22T09:28:56.999Z</time>
      </trkpt>
      <trkpt lat="47.52129" lon="6.67063">
        <ele>426.7</ele>
        <time>2017-10-22T09:28:57.999Z</time>
      </trkpt>
      <trkpt lat="47.52131" lon="6.67074">
        <ele>426.2</ele>
        <time>2017-10-22T09:28:58.999Z</time>
      </trkpt>
      <trkpt lat="47.52133" lon="6.67085">
        <ele>425.9</ele>
        <time>2017-10-22T09:28:59.999Z</time>
      </trkpt>
      <trkpt lat="47.52136" lon="6.67096">
        <ele>425.5</ele>
        <time>2017-10-22T09:29:00.999Z</time>
      </trkpt>
      <trkpt lat="47.52138" lon="6.67106">
        <ele>425.1</ele>
        <time>2017-10-22T09:29:01.999Z</time>
      </trkpt>
      <trkpt lat="47.52141" lon="6.67117">
        <ele>424.4</ele>
        <time>2017-10-22T09:29:02.999Z</time>
      </trkpt>
      <trkpt lat="47.52143" lon="6.67128">
        <ele>424.7</ele>
        <time>2017-10-22T09:29:03.999Z</time>
      </trkpt>
      <trkpt lat="47.52145" lon="6.67139">
        <ele>424.4</ele>
        <time>2017-10-22T09:29:04.999Z</time>
      </trkpt>
      <trkpt lat="47.52147" lon="6.6715">
        <ele>424.1</ele>
        <time>2017-10-22T09:29:05.999Z</time>
      </trkpt>
      <trkpt lat="47.52149" lon="6.67162">
        <ele>424.1</ele>
        <time>2017-10-22T09:29:06.999Z</time>
      </trkpt>
      <trkpt lat="47.52152" lon="6.67174">
        <ele>424.1</ele>
        <time>2017-10-22T09:29:07.999Z</time>
      </trkpt>
      <trkpt lat="47.52154" lon="6.67185">
        <ele>424.1</ele>
        <time>2017-10-22T09:29:08.999Z</time>
      </trkpt>
      <trkpt lat="47.52156" lon="6.67196">
        <ele>424.5</ele>
        <time>2017-10-22T09:29:09.999Z</time>
      </trkpt>
      <trkpt lat="47.52158" lon="6.67207">
        <ele>425</ele>
        <time>2017-10-22T09:29:10.999Z</time>
      </trkpt>
      <trkpt lat="47.5216" lon="6.67218">
        <ele>425.6</ele>
        <time>2017-10-22T09:29:11.999Z</time>
      </trkpt>
      <trkpt lat="47.52162" lon="6.67229">
        <ele>425.9</ele>
        <time>2017-10-22T09:29:12.999Z</time>
      </trkpt>
      <trkpt lat="47.52164" lon="6.6724">
        <ele>425.3</ele>
        <time>2017-10-22T09:29:13.999Z</time>
      </trkpt>
      <trkpt lat="47.52166" lon="6.67252">
        <ele>424.5</ele>
        <time>2017-10-22T09:29:14.999Z</time>
      </trkpt>
      <trkpt lat="47.52168" lon="6.67264">
        <ele>424.3</ele>
        <time>2017-10-22T09:29:15.999Z</time>
      </trkpt>
      <trkpt lat="47.52169" lon="6.67275">
        <ele>424.6</ele>
        <time>2017-10-22T09:29:16.999Z</time>
      </trkpt>
      <trkpt lat="47.5217" lon="6.67286">
        <ele>424.9</ele>
        <time>2017-10-22T09:29:17.999Z</time>
      </trkpt>
      <trkpt lat="47.52171" lon="6.67296">
        <ele>424.8</ele>
        <time>2017-10-22T09:29:18.999Z</time>
      </trkpt>
      <trkpt lat="47.52171" lon="6.67308">
        <ele>424.3</ele>
        <time>2017-10-22T09:29:19.999Z</time>
      </trkpt>
      <trkpt lat="47.52172" lon="6.67321">
        <ele>423.7</ele>
        <time>2017-10-22T09:29:20.999Z</time>
      </trkpt>
      <trkpt lat="47.52172" lon="6.67332">
        <ele>423.9</ele>
        <time>2017-10-22T09:29:21.999Z</time>
      </trkpt>
      <trkpt lat="47.52173" lon="6.67343">
        <ele>424</ele>
        <time>2017-10-22T09:29:22.999Z</time>
      </trkpt>
      <trkpt lat="47.52174" lon="6.67356">
        <ele>424.4</ele>
        <time>2017-10-22T09:29:23.999Z</time>
      </trkpt>
      <trkpt lat="47.52176" lon="6.67369">
        <ele>425.2</ele>
        <time>2017-10-22T09:29:24.999Z</time>
      </trkpt>
      <trkpt lat="47.52179" lon="6.67382">
        <ele>425.9</ele>
        <time>2017-10-22T09:29:25.999Z</time>
      </trkpt>
      <trkpt lat="47.52181" lon="6.67394">
        <ele>426</ele>
        <time>2017-10-22T09:29:26.999Z</time>
      </trkpt>
      <trkpt lat="47.52184" lon="6.67404">
        <ele>425.5</ele>
        <time>2017-10-22T09:29:27.999Z</time>
      </trkpt>
      <trkpt lat="47.52187" lon="6.67414">
        <ele>425.3</ele>
        <time>2017-10-22T09:29:28.999Z</time>
      </trkpt>
      <trkpt lat="47.5219" lon="6.67424">
        <ele>425.4</ele>
        <time>2017-10-22T09:29:29.999Z</time>
      </trkpt>
      <trkpt lat="47.52194" lon="6.67433">
        <ele>425.6</ele>
        <time>2017-10-22T09:29:30.999Z</time>
      </trkpt>
      <trkpt lat="47.52197" lon="6.67443">
        <ele>425.6</ele>
        <time>2017-10-22T09:29:31.999Z</time>
      </trkpt>
      <trkpt lat="47.522" lon="6.67452">
        <ele>425.5</ele>
        <time>2017-10-22T09:29:32.999Z</time>
      </trkpt>
      <trkpt lat="47.52203" lon="6.67461">
        <ele>425.8</ele>
        <time>2017-10-22T09:29:33.999Z</time>
      </trkpt>
      <trkpt lat="47.52205" lon="6.67471">
        <ele>425.1</ele>
        <time>2017-10-22T09:29:34.999Z</time>
      </trkpt>
      <trkpt lat="47.52206" lon="6.6748">
        <ele>424.6</ele>
        <time>2017-10-22T09:29:35.999Z</time>
      </trkpt>
      <trkpt lat="47.52206" lon="6.67491">
        <ele>423.7</ele>
        <time>2017-10-22T09:29:36.999Z</time>
      </trkpt>
      <trkpt lat="47.52206" lon="6.67501">
        <ele>423</ele>
        <time>2017-10-22T09:29:37.999Z</time>
      </trkpt>
      <trkpt lat="47.52206" lon="6.67512">
        <ele>422.3</ele>
        <time>2017-10-22T09:29:38.999Z</time>
      </trkpt>
      <trkpt lat="47.52206" lon="6.6752">
        <ele>421.9</ele>
        <time>2017-10-22T09:29:39.999Z</time>
      </trkpt>
      <trkpt lat="47.52206" lon="6.6753">
        <ele>421.5</ele>
        <time>2017-10-22T09:29:40.999Z</time>
      </trkpt>
      <trkpt lat="47.52205" lon="6.67541">
        <ele>421.1</ele>
        <time>2017-10-22T09:29:41.999Z</time>
      </trkpt>
      <trkpt lat="47.52205" lon="6.67551">
        <ele>420.8</ele>
        <time>2017-10-22T09:29:42.999Z</time>
      </trkpt>
      <trkpt lat="47.52205" lon="6.67561">
        <ele>420.4</ele>
        <time>2017-10-22T09:29:43.999Z</time>
      </trkpt>
      <trkpt lat="47.52205" lon="6.67571">
        <ele>420</ele>
        <time>2017-10-22T09:29:44.999Z</time>
      </trkpt>
      <trkpt lat="47.52204" lon="6.6758">
        <ele>419.8</ele>
        <time>2017-10-22T09:29:45.999Z</time>
      </trkpt>
      <trkpt lat="47.52204" lon="6.67589">
        <ele>419.3</ele>
        <time>2017-10-22T09:29:46.999Z</time>
      </trkpt>
      <trkpt lat="47.52204" lon="6.67599">
        <ele>418.5</ele>
        <time>2017-10-22T09:29:47.999Z</time>
      </trkpt>
      <trkpt lat="47.52203" lon="6.67609">
        <ele>417.5</ele>
        <time>2017-10-22T09:29:48.999Z</time>
      </trkpt>
      <trkpt lat="47.52203" lon="6.67618">
        <ele>417</ele>
        <time>2017-10-22T09:29:49.999Z</time>
      </trkpt>
      <trkpt lat="47.52202" lon="6.67628">
        <ele>416.5</ele>
        <time>2017-10-22T09:29:50.999Z</time>
      </trkpt>
      <trkpt lat="47.52202" lon="6.67637">
        <ele>416.7</ele>
        <time>2017-10-22T09:29:51.999Z</time>
      </trkpt>
      <trkpt lat="47.52202" lon="6.67646">
        <ele>416.5</ele>
        <time>2017-10-22T09:29:52.999Z</time>
      </trkpt>
      <trkpt lat="47.52201" lon="6.67656">
        <ele>416.7</ele>
        <time>2017-10-22T09:29:53.999Z</time>
      </trkpt>
      <trkpt lat="47.52201" lon="6.67666">
        <ele>416.8</ele>
        <time>2017-10-22T09:29:54.999Z</time>
      </trkpt>
      <trkpt lat="47.52201" lon="6.67676">
        <ele>417.2</ele>
        <time>2017-10-22T09:29:55.999Z</time>
      </trkpt>
      <trkpt lat="47.522" lon="6.67687">
        <ele>417.3</ele>
        <time>2017-10-22T09:29:56.999Z</time>
      </trkpt>
      <trkpt lat="47.522" lon="6.67698">
        <ele>417.2</ele>
        <time>2017-10-22T09:29:57.999Z</time>
      </trkpt>
      <trkpt lat="47.522" lon="6.67708">
        <ele>416.8</ele>
        <time>2017-10-22T09:29:58.999Z</time>
      </trkpt>
      <trkpt lat="47.52199" lon="6.67719">
        <ele>416.4</ele>
        <time>2017-10-22T09:29:59.999Z</time>
      </trkpt>
      <trkpt lat="47.52199" lon="6.67729">
        <ele>415.9</ele>
        <time>2017-10-22T09:30:00.999Z</time>
      </trkpt>
      <trkpt lat="47.52198" lon="6.67739">
        <ele>415.3</ele>
        <time>2017-10-22T09:30:01.999Z</time>
      </trkpt>
      <trkpt lat="47.52197" lon="6.6775">
        <ele>414.5</ele>
        <time>2017-10-22T09:30:02.999Z</time>
      </trkpt>
      <trkpt lat="47.52197" lon="6.67761">
        <ele>413.8</ele>
        <time>2017-10-22T09:30:03.999Z</time>
      </trkpt>
      <trkpt lat="47.52196" lon="6.67772">
        <ele>413</ele>
        <time>2017-10-22T09:30:04.999Z</time>
      </trkpt>
      <trkpt lat="47.52195" lon="6.67782">
        <ele>412.1</ele>
        <time>2017-10-22T09:30:05.999Z</time>
      </trkpt>
      <trkpt lat="47.52194" lon="6.67793">
        <ele>411.7</ele>
        <time>2017-10-22T09:30:06.999Z</time>
      </trkpt>
      <trkpt lat="47.52193" lon="6.67804">
        <ele>411.5</ele>
        <time>2017-10-22T09:30:07.999Z</time>
      </trkpt>
      <trkpt lat="47.52192" lon="6.67814">
        <ele>411.4</ele>
        <time>2017-10-22T09:30:08.999Z</time>
      </trkpt>
      <trkpt lat="47.52191" lon="6.67825">
        <ele>411.4</ele>
        <time>2017-10-22T09:30:09.999Z</time>
      </trkpt>
      <trkpt lat="47.52191" lon="6.67835">
        <ele>411.6</ele>
        <time>2017-10-22T09:30:10.999Z</time>
      </trkpt>
      <trkpt lat="47.5219" lon="6.67844">
        <ele>412</ele>
        <time>2017-10-22T09:30:11.999Z</time>
      </trkpt>
      <trkpt lat="47.5219" lon="6.67853">
        <ele>412.6</ele>
        <time>2017-10-22T09:30:12.999Z</time>
      </trkpt>
      <trkpt lat="47.52189" lon="6.67864">
        <ele>412.8</ele>
        <time>2017-10-22T09:30:13.999Z</time>
      </trkpt>
      <trkpt lat="47.52188" lon="6.67874">
        <ele>413</ele>
        <time>2017-10-22T09:30:14.999Z</time>
      </trkpt>
      <trkpt lat="47.52188" lon="6.67883">
        <ele>413.3</ele>
        <time>2017-10-22T09:30:15.999Z</time>
      </trkpt>
      <trkpt lat="47.52187" lon="6.67893">
        <ele>413.1</ele>
        <time>2017-10-22T09:30:16.999Z</time>
      </trkpt>
      <trkpt lat="47.52187" lon="6.67902">
        <ele>413.1</ele>
        <time>2017-10-22T09:30:17.999Z</time>
      </trkpt>
      <trkpt lat="47.52186" lon="6.67912">
        <ele>413.4</ele>
        <time>2017-10-22T09:30:18.999Z</time>
      </trkpt>
      <trkpt lat="47.52186" lon="6.67922">
        <ele>413.5</ele>
        <time>2017-10-22T09:30:19.999Z</time>
      </trkpt>
      <trkpt lat="47.52185" lon="6.67932">
        <ele>413.3</ele>
        <time>2017-10-22T09:30:20.999Z</time>
      </trkpt>
      <trkpt lat="47.52184" lon="6.67943">
        <ele>413.3</ele>
        <time>2017-10-22T09:30:21.999Z</time>
      </trkpt>
      <trkpt lat="47.52183" lon="6.67953">
        <ele>413.3</ele>
        <time>2017-10-22T09:30:22.999Z</time>
      </trkpt>
      <trkpt lat="47.52182" lon="6.67963">
        <ele>413.4</ele>
        <time>2017-10-22T09:30:23.999Z</time>
      </trkpt>
      <trkpt lat="47.52181" lon="6.67974">
        <ele>413.3</ele>
        <time>2017-10-22T09:30:24.999Z</time>
      </trkpt>
      <trkpt lat="47.5218" lon="6.67986">
        <ele>412.7</ele>
        <time>2017-10-22T09:30:25.999Z</time>
      </trkpt>
      <trkpt lat="47.5218" lon="6.67997">
        <ele>412.1</ele>
        <time>2017-10-22T09:30:26.999Z</time>
      </trkpt>
      <trkpt lat="47.52179" lon="6.68008">
        <ele>411.7</ele>
        <time>2017-10-22T09:30:27.999Z</time>
      </trkpt>
      <trkpt lat="47.52178" lon="6.68019">
        <ele>411.7</ele>
        <time>2017-10-22T09:30:28.999Z</time>
      </trkpt>
      <trkpt lat="47.52177" lon="6.6803">
        <ele>411.3</ele>
        <time>2017-10-22T09:30:29.999Z</time>
      </trkpt>
      <trkpt lat="47.52176" lon="6.68041">
        <ele>410.5</ele>
        <time>2017-10-22T09:30:30.999Z</time>
      </trkpt>
      <trkpt lat="47.52175" lon="6.68051">
        <ele>409.8</ele>
        <time>2017-10-22T09:30:31.999Z</time>
      </trkpt>
      <trkpt lat="47.52174" lon="6.6806">
        <ele>409.5</ele>
        <time>2017-10-22T09:30:32.999Z</time>
      </trkpt>
      <trkpt lat="47.52174" lon="6.6807">
        <ele>409.1</ele>
        <time>2017-10-22T09:30:33.999Z</time>
      </trkpt>
      <trkpt lat="47.52173" lon="6.68078">
        <ele>409.8</ele>
        <time>2017-10-22T09:30:34.999Z</time>
      </trkpt>
      <trkpt lat="47.52172" lon="6.68089">
        <ele>409.6</ele>
        <time>2017-10-22T09:30:35.999Z</time>
      </trkpt>
      <trkpt lat="47.52171" lon="6.68098">
        <ele>409.9</ele>
        <time>2017-10-22T09:30:36.999Z</time>
      </trkpt>
      <trkpt lat="47.5217" lon="6.6811">
        <ele>409.9</ele>
        <time>2017-10-22T09:30:37.999Z</time>
      </trkpt>
      <trkpt lat="47.52167" lon="6.6812">
        <ele>410.8</ele>
        <time>2017-10-22T09:30:38.999Z</time>
      </trkpt>
      <trkpt lat="47.52164" lon="6.68131">
        <ele>411.6</ele>
        <time>2017-10-22T09:30:39.999Z</time>
      </trkpt>
      <trkpt lat="47.52161" lon="6.68141">
        <ele>412.3</ele>
        <time>2017-10-22T09:30:40.999Z</time>
      </trkpt>
      <trkpt lat="47.52159" lon="6.68152">
        <ele>413.4</ele>
        <time>2017-10-22T09:30:41.999Z</time>
      </trkpt>
      <trkpt lat="47.52159" lon="6.68162">
        <ele>413.9</ele>
        <time>2017-10-22T09:30:42.999Z</time>
      </trkpt>
      <trkpt lat="47.5216" lon="6.68174">
        <ele>414.6</ele>
        <time>2017-10-22T09:30:43.999Z</time>
      </trkpt>
      <trkpt lat="47.5216" lon="6.68195">
        <ele>415.8</ele>
        <time>2017-10-22T09:30:45.999Z</time>
      </trkpt>
      <trkpt lat="47.52161" lon="6.68205">
        <ele>415.5</ele>
        <time>2017-10-22T09:30:46.999Z</time>
      </trkpt>
      <trkpt lat="47.52162" lon="6.68216">
        <ele>414.8</ele>
        <time>2017-10-22T09:30:47.999Z</time>
      </trkpt>
      <trkpt lat="47.52163" lon="6.68226">
        <ele>414.2</ele>
        <time>2017-10-22T09:30:48.999Z</time>
      </trkpt>
      <trkpt lat="47.52167" lon="6.68237">
        <ele>414</ele>
        <time>2017-10-22T09:30:49.999Z</time>
      </trkpt>
      <trkpt lat="47.5217" lon="6.68248">
        <ele>413.2</ele>
        <time>2017-10-22T09:30:50.999Z</time>
      </trkpt>
      <trkpt lat="47.52173" lon="6.6826">
        <ele>412.6</ele>
        <time>2017-10-22T09:30:51.999Z</time>
      </trkpt>
      <trkpt lat="47.52176" lon="6.68271">
        <ele>412.8</ele>
        <time>2017-10-22T09:30:52.999Z</time>
      </trkpt>
      <trkpt lat="47.52178" lon="6.68282">
        <ele>412.5</ele>
        <time>2017-10-22T09:30:53.999Z</time>
      </trkpt>
      <trkpt lat="47.52181" lon="6.68291">
        <ele>412.7</ele>
        <time>2017-10-22T09:30:54.999Z</time>
      </trkpt>
      <trkpt lat="47.52183" lon="6.68301">
        <ele>412.4</ele>
        <time>2017-10-22T09:30:55.999Z</time>
      </trkpt>
      <trkpt lat="47.52185" lon="6.6831">
        <ele>411.8</ele>
        <time>2017-10-22T09:30:56.999Z</time>
      </trkpt>
      <trkpt lat="47.52186" lon="6.68318">
        <ele>410.9</ele>
        <time>2017-10-22T09:30:57.999Z</time>
      </trkpt>
      <trkpt lat="47.52188" lon="6.68326">
        <ele>410</ele>
        <time>2017-10-22T09:30:58.999Z</time>
      </trkpt>
      <trkpt lat="47.52189" lon="6.68334">
        <ele>409.2</ele>
        <time>2017-10-22T09:30:59.999Z</time>
      </trkpt>
      <trkpt lat="47.52191" lon="6.68342">
        <ele>409.2</ele>
        <time>2017-10-22T09:31:00.999Z</time>
      </trkpt>
      <trkpt lat="47.52193" lon="6.6835">
        <ele>408.9</ele>
        <time>2017-10-22T09:31:01.999Z</time>
      </trkpt>
      <trkpt lat="47.52194" lon="6.68358">
        <ele>408.4</ele>
        <time>2017-10-22T09:31:02.999Z</time>
      </trkpt>
      <trkpt lat="47.52196" lon="6.68367">
        <ele>408.3</ele>
        <time>2017-10-22T09:31:03.999Z</time>
      </trkpt>
      <trkpt lat="47.52197" lon="6.68376">
        <ele>408.7</ele>
        <time>2017-10-22T09:31:04.999Z</time>
      </trkpt>
      <trkpt lat="47.52199" lon="6.68384">
        <ele>409.7</ele>
        <time>2017-10-22T09:31:05.999Z</time>
      </trkpt>
      <trkpt lat="47.522" lon="6.68393">
        <ele>410.6</ele>
        <time>2017-10-22T09:31:06.999Z</time>
      </trkpt>
      <trkpt lat="47.52202" lon="6.68402">
        <ele>410.6</ele>
        <time>2017-10-22T09:31:07.999Z</time>
      </trkpt>
      <trkpt lat="47.52203" lon="6.68411">
        <ele>410.4</ele>
        <time>2017-10-22T09:31:08.999Z</time>
      </trkpt>
      <trkpt lat="47.52205" lon="6.6842">
        <ele>410.5</ele>
        <time>2017-10-22T09:31:09.999Z</time>
      </trkpt>
      <trkpt lat="47.52206" lon="6.68429">
        <ele>411.3</ele>
        <time>2017-10-22T09:31:10.999Z</time>
      </trkpt>
      <trkpt lat="47.52208" lon="6.68438">
        <ele>411.5</ele>
        <time>2017-10-22T09:31:11.999Z</time>
      </trkpt>
      <trkpt lat="47.5221" lon="6.68447">
        <ele>411.9</ele>
        <time>2017-10-22T09:31:12.999Z</time>
      </trkpt>
      <trkpt lat="47.52212" lon="6.68455">
        <ele>412.6</ele>
        <time>2017-10-22T09:31:13.999Z</time>
      </trkpt>
      <trkpt lat="47.52214" lon="6.68464">
        <ele>413</ele>
        <time>2017-10-22T09:31:14.999Z</time>
      </trkpt>
      <trkpt lat="47.52216" lon="6.68472">
        <ele>413.2</ele>
        <time>2017-10-22T09:31:15.999Z</time>
      </trkpt>
      <trkpt lat="47.52218" lon="6.68481">
        <ele>413.3</ele>
        <time>2017-10-22T09:31:16.999Z</time>
      </trkpt>
      <trkpt lat="47.5222" lon="6.6849">
        <ele>413.3</ele>
        <time>2017-10-22T09:31:17.999Z</time>
      </trkpt>
      <trkpt lat="47.52222" lon="6.68498">
        <ele>413.4</ele>
        <time>2017-10-22T09:31:18.999Z</time>
      </trkpt>
      <trkpt lat="47.52224" lon="6.68505">
        <ele>413.5</ele>
        <time>2017-10-22T09:31:19.999Z</time>
      </trkpt>
      <trkpt lat="47.52227" lon="6.68512">
        <ele>413.5</ele>
        <time>2017-10-22T09:31:20.999Z</time>
      </trkpt>
      <trkpt lat="47.52229" lon="6.68519">
        <ele>413.3</ele>
        <time>2017-10-22T09:31:21.999Z</time>
      </trkpt>
      <trkpt lat="47.5223" lon="6.68526">
        <ele>412.6</ele>
        <time>2017-10-22T09:31:22.999Z</time>
      </trkpt>
      <trkpt lat="47.52232" lon="6.68534">
        <ele>411.6</ele>
        <time>2017-10-22T09:31:23.999Z</time>
      </trkpt>
      <trkpt lat="47.52234" lon="6.6854">
        <ele>410.8</ele>
        <time>2017-10-22T09:31:24.999Z</time>
      </trkpt>
      <trkpt lat="47.52236" lon="6.68545">
        <ele>410.3</ele>
        <time>2017-10-22T09:31:25.999Z</time>
      </trkpt>
      <trkpt lat="47.5224" lon="6.6855">
        <ele>409.7</ele>
        <time>2017-10-22T09:31:26.999Z</time>
      </trkpt>
      <trkpt lat="47.52243" lon="6.68554">
        <ele>409.7</ele>
        <time>2017-10-22T09:31:27.999Z</time>
      </trkpt>
      <trkpt lat="47.52247" lon="6.68559">
        <ele>409.7</ele>
        <time>2017-10-22T09:31:28.999Z</time>
      </trkpt>
      <trkpt lat="47.5225" lon="6.68562">
        <ele>409.6</ele>
        <time>2017-10-22T09:31:29.999Z</time>
      </trkpt>
      <trkpt lat="47.52253" lon="6.68565">
        <ele>409.5</ele>
        <time>2017-10-22T09:31:30.999Z</time>
      </trkpt>
      <trkpt lat="47.52255" lon="6.68567">
        <ele>409.4</ele>
        <time>2017-10-22T09:31:31.999Z</time>
      </trkpt>
      <trkpt lat="47.52258" lon="6.6857">
        <ele>409.3</ele>
        <time>2017-10-22T09:31:32.999Z</time>
      </trkpt>
      <trkpt lat="47.5226" lon="6.68571">
        <ele>409.1</ele>
        <time>2017-10-22T09:31:33.999Z</time>
      </trkpt>
      <trkpt lat="47.52263" lon="6.68572">
        <ele>409</ele>
        <time>2017-10-22T09:31:34.999Z</time>
      </trkpt>
      <trkpt lat="47.52265" lon="6.68571">
        <ele>408.9</ele>
        <time>2017-10-22T09:31:35.999Z</time>
      </trkpt>
      <trkpt lat="47.52268" lon="6.68572">
        <ele>408.8</ele>
        <time>2017-10-22T09:31:36.999Z</time>
      </trkpt>
      <trkpt lat="47.52272" lon="6.68572">
        <ele>408.7</ele>
        <time>2017-10-22T09:31:38.999Z</time>
      </trkpt>
      <trkpt lat="47.52274" lon="6.68571">
        <ele>408.7</ele>
        <time>2017-10-22T09:31:39.999Z</time>
      </trkpt>
      <trkpt lat="47.52277" lon="6.68571">
        <ele>408.7</ele>
        <time>2017-10-22T09:31:40.999Z</time>
      </trkpt>
      <trkpt lat="47.52279" lon="6.68569">
        <ele>408.6</ele>
        <time>2017-10-22T09:31:41.999Z</time>
      </trkpt>
      <trkpt lat="47.52281" lon="6.68569">
        <ele>407.3</ele>
        <time>2017-10-22T09:31:50.999Z</time>
      </trkpt>
      <trkpt lat="47.52294" lon="6.68566">
        <ele>407.1</ele>
        <time>2017-10-22T09:31:51.999Z</time>
      </trkpt>
      <trkpt lat="47.52298" lon="6.68565">
        <ele>406.6</ele>
        <time>2017-10-22T09:31:53.999Z</time>
      </trkpt>
      <trkpt lat="47.523" lon="6.68565">
        <ele>406.4</ele>
        <time>2017-10-22T09:31:54.999Z</time>
      </trkpt>
      <trkpt lat="47.52303" lon="6.68565">
        <ele>406</ele>
        <time>2017-10-22T09:31:56.999Z</time>
      </trkpt>
      <trkpt lat="47.52305" lon="6.68564">
        <ele>405.8</ele>
        <time>2017-10-22T09:31:57.999Z</time>
      </trkpt>
      <trkpt lat="47.52308" lon="6.68563">
        <ele>405.2</ele>
        <time>2017-10-22T09:31:59.999Z</time>
      </trkpt>
      <trkpt lat="47.5231" lon="6.68561">
        <ele>404.8</ele>
        <time>2017-10-22T09:32:00.999Z</time>
      </trkpt>
      <trkpt lat="47.52314" lon="6.6856">
        <ele>404</ele>
        <time>2017-10-22T09:32:02.999Z</time>
      </trkpt>
      <trkpt lat="47.52316" lon="6.68559">
        <ele>403.5</ele>
        <time>2017-10-22T09:32:03.999Z</time>
      </trkpt>
      <trkpt lat="47.52319" lon="6.68558">
        <ele>403</ele>
        <time>2017-10-22T09:32:04.999Z</time>
      </trkpt>
      <trkpt lat="47.52322" lon="6.68556">
        <ele>402.5</ele>
        <time>2017-10-22T09:32:05.999Z</time>
      </trkpt>
      <trkpt lat="47.52326" lon="6.68554">
        <ele>401.5</ele>
        <time>2017-10-22T09:32:07.999Z</time>
      </trkpt>
      <trkpt lat="47.52328" lon="6.68554">
        <ele>401</ele>
        <time>2017-10-22T09:32:08.999Z</time>
      </trkpt>
      <trkpt lat="47.5233" lon="6.68555">
        <ele>400.5</ele>
        <time>2017-10-22T09:32:09.999Z</time>
      </trkpt>
      <trkpt lat="47.52334" lon="6.68555">
        <ele>400.1</ele>
        <time>2017-10-22T09:32:10.999Z</time>
      </trkpt>
      <trkpt lat="47.52336" lon="6.68556">
        <ele>399.8</ele>
        <time>2017-10-22T09:32:11.999Z</time>
      </trkpt>
      <trkpt lat="47.52339" lon="6.68558">
        <ele>399.5</ele>
        <time>2017-10-22T09:32:12.999Z</time>
      </trkpt>
      <trkpt lat="47.52341" lon="6.6856">
        <ele>399.3</ele>
        <time>2017-10-22T09:32:13.999Z</time>
      </trkpt>
      <trkpt lat="47.52343" lon="6.68562">
        <ele>399.1</ele>
        <time>2017-10-22T09:32:14.999Z</time>
      </trkpt>
      <trkpt lat="47.52345" lon="6.68565">
        <ele>398.9</ele>
        <time>2017-10-22T09:32:15.999Z</time>
      </trkpt>
      <trkpt lat="47.52346" lon="6.68567">
        <ele>398.9</ele>
        <time>2017-10-22T09:32:16.999Z</time>
      </trkpt>
      <trkpt lat="47.52348" lon="6.68569">
        <ele>398.7</ele>
        <time>2017-10-22T09:32:17.999Z</time>
      </trkpt>
      <trkpt lat="47.5235" lon="6.68572">
        <ele>398.6</ele>
        <time>2017-10-22T09:32:18.999Z</time>
      </trkpt>
      <trkpt lat="47.52353" lon="6.68577">
        <ele>398.6</ele>
        <time>2017-10-22T09:32:20.999Z</time>
      </trkpt>
      <trkpt lat="47.52354" lon="6.6858">
        <ele>398.6</ele>
        <time>2017-10-22T09:32:21.999Z</time>
      </trkpt>
      <trkpt lat="47.52356" lon="6.68583">
        <ele>398.6</ele>
        <time>2017-10-22T09:32:22.999Z</time>
      </trkpt>
      <trkpt lat="47.5236" lon="6.68584">
        <ele>398.8</ele>
        <time>2017-10-22T09:32:23.999Z</time>
      </trkpt>
      <trkpt lat="47.5236" lon="6.68584">
        <ele>401.7</ele>
        <time>2017-10-22T09:32:30.999Z</time>
      </trkpt>
      <trkpt lat="47.52361" lon="6.68606">
        <ele>402.1</ele>
        <time>2017-10-22T09:32:31.999Z</time>
      </trkpt>
      <trkpt lat="47.5236" lon="6.6861">
        <ele>402.5</ele>
        <time>2017-10-22T09:32:32.999Z</time>
      </trkpt>
      <trkpt lat="47.52359" lon="6.68614">
        <ele>402.9</ele>
        <time>2017-10-22T09:32:33.999Z</time>
      </trkpt>
      <trkpt lat="47.52358" lon="6.68616">
        <ele>403.2</ele>
        <time>2017-10-22T09:32:34.999Z</time>
      </trkpt>
      <trkpt lat="47.52357" lon="6.6862">
        <ele>403.6</ele>
        <time>2017-10-22T09:32:35.999Z</time>
      </trkpt>
      <trkpt lat="47.52355" lon="6.68625">
        <ele>404.4</ele>
        <time>2017-10-22T09:32:37.999Z</time>
      </trkpt>
      <trkpt lat="47.52353" lon="6.68628">
        <ele>404.8</ele>
        <time>2017-10-22T09:32:38.999Z</time>
      </trkpt>
      <trkpt lat="47.52352" lon="6.68631">
        <ele>405.2</ele>
        <time>2017-10-22T09:32:39.999Z</time>
      </trkpt>
      <trkpt lat="47.52352" lon="6.68635">
        <ele>405.5</ele>
        <time>2017-10-22T09:32:40.999Z</time>
      </trkpt>
      <trkpt lat="47.52351" lon="6.68638">
        <ele>405.7</ele>
        <time>2017-10-22T09:32:41.999Z</time>
      </trkpt>
      <trkpt lat="47.5235" lon="6.68642">
        <ele>406</ele>
        <time>2017-10-22T09:32:42.999Z</time>
      </trkpt>
      <trkpt lat="47.52349" lon="6.68646">
        <ele>406.3</ele>
        <time>2017-10-22T09:32:43.999Z</time>
      </trkpt>
      <trkpt lat="47.52347" lon="6.68655">
        <ele>406.7</ele>
        <time>2017-10-22T09:32:45.999Z</time>
      </trkpt>
      <trkpt lat="47.52346" lon="6.6866">
        <ele>407</ele>
        <time>2017-10-22T09:32:46.999Z</time>
      </trkpt>
      <trkpt lat="47.52346" lon="6.68666">
        <ele>407.2</ele>
        <time>2017-10-22T09:32:47.999Z</time>
      </trkpt>
      <trkpt lat="47.52345" lon="6.68671">
        <ele>407.4</ele>
        <time>2017-10-22T09:32:48.999Z</time>
      </trkpt>
      <trkpt lat="47.52345" lon="6.68677">
        <ele>407.7</ele>
        <time>2017-10-22T09:32:49.999Z</time>
      </trkpt>
      <trkpt lat="47.52345" lon="6.68682">
        <ele>408</ele>
        <time>2017-10-22T09:32:50.999Z</time>
      </trkpt>
      <trkpt lat="47.52346" lon="6.68686">
        <ele>408.2</ele>
        <time>2017-10-22T09:32:51.999Z</time>
      </trkpt>
      <trkpt lat="47.52347" lon="6.6869">
        <ele>408.5</ele>
        <time>2017-10-22T09:32:52.999Z</time>
      </trkpt>
      <trkpt lat="47.52347" lon="6.68694">
        <ele>408.8</ele>
        <time>2017-10-22T09:32:53.999Z</time>
      </trkpt>
      <trkpt lat="47.52349" lon="6.68698">
        <ele>409.1</ele>
        <time>2017-10-22T09:32:54.999Z</time>
      </trkpt>
      <trkpt lat="47.5235" lon="6.68702">
        <ele>409.4</ele>
        <time>2017-10-22T09:32:55.999Z</time>
      </trkpt>
      <trkpt lat="47.52351" lon="6.68706">
        <ele>409.7</ele>
        <time>2017-10-22T09:32:56.999Z</time>
      </trkpt>
      <trkpt lat="47.52353" lon="6.68711">
        <ele>410</ele>
        <time>2017-10-22T09:32:57.999Z</time>
      </trkpt>
      <trkpt lat="47.52356" lon="6.68716">
        <ele>410.3</ele>
        <time>2017-10-22T09:32:58.999Z</time>
      </trkpt>
      <trkpt lat="47.52358" lon="6.68721">
        <ele>410.6</ele>
        <time>2017-10-22T09:32:59.999Z</time>
      </trkpt>
      <trkpt lat="47.5236" lon="6.68726">
        <ele>410.9</ele>
        <time>2017-10-22T09:33:00.999Z</time>
      </trkpt>
      <trkpt lat="47.52362" lon="6.68731">
        <ele>411.2</ele>
        <time>2017-10-22T09:33:01.999Z</time>
      </trkpt>
      <trkpt lat="47.52364" lon="6.68736">
        <ele>411.5</ele>
        <time>2017-10-22T09:33:02.999Z</time>
      </trkpt>
      <trkpt lat="47.52365" lon="6.68742">
        <ele>411.7</ele>
        <time>2017-10-22T09:33:03.999Z</time>
      </trkpt>
      <trkpt lat="47.52367" lon="6.68747">
        <ele>412</ele>
        <time>2017-10-22T09:33:04.999Z</time>
      </trkpt>
      <trkpt lat="47.52368" lon="6.68752">
        <ele>412.3</ele>
        <time>2017-10-22T09:33:05.999Z</time>
      </trkpt>
      <trkpt lat="47.52369" lon="6.68757">
        <ele>412.5</ele>
        <time>2017-10-22T09:33:06.999Z</time>
      </trkpt>
      <trkpt lat="47.5237" lon="6.68762">
        <ele>412.7</ele>
        <time>2017-10-22T09:33:07.999Z</time>
      </trkpt>
      <trkpt lat="47.52371" lon="6.68766">
        <ele>412.9</ele>
        <time>2017-10-22T09:33:08.999Z</time>
      </trkpt>
      <trkpt lat="47.52372" lon="6.6877">
        <ele>413.1</ele>
        <time>2017-10-22T09:33:09.999Z</time>
      </trkpt>
      <trkpt lat="47.52373" lon="6.68776">
        <ele>413.3</ele>
        <time>2017-10-22T09:33:10.999Z</time>
      </trkpt>
      <trkpt lat="47.52375" lon="6.68782">
        <ele>413.5</ele>
        <time>2017-10-22T09:33:11.999Z</time>
      </trkpt>
      <trkpt lat="47.52377" lon="6.68786">
        <ele>413.7</ele>
        <time>2017-10-22T09:33:12.999Z</time>
      </trkpt>
      <trkpt lat="47.52379" lon="6.68792">
        <ele>413.9</ele>
        <time>2017-10-22T09:33:13.999Z</time>
      </trkpt>
      <trkpt lat="47.5238" lon="6.68796">
        <ele>414.1</ele>
        <time>2017-10-22T09:33:14.999Z</time>
      </trkpt>
      <trkpt lat="47.52382" lon="6.68802">
        <ele>415.2</ele>
        <time>2017-10-22T09:33:15.999Z</time>
      </trkpt>
      <trkpt lat="47.52384" lon="6.68808">
        <ele>416.6</ele>
        <time>2017-10-22T09:33:16.999Z</time>
      </trkpt>
      <trkpt lat="47.52387" lon="6.68814">
        <ele>417.7</ele>
        <time>2017-10-22T09:33:17.999Z</time>
      </trkpt>
      <trkpt lat="47.52389" lon="6.6882">
        <ele>418.8</ele>
        <time>2017-10-22T09:33:18.999Z</time>
      </trkpt>
      <trkpt lat="47.52392" lon="6.68825">
        <ele>419.7</ele>
        <time>2017-10-22T09:33:19.999Z</time>
      </trkpt>
      <trkpt lat="47.52395" lon="6.68831">
        <ele>419.8</ele>
        <time>2017-10-22T09:33:20.999Z</time>
      </trkpt>
      <trkpt lat="47.52397" lon="6.68835">
        <ele>419.9</ele>
        <time>2017-10-22T09:33:21.999Z</time>
      </trkpt>
      <trkpt lat="47.524" lon="6.6884">
        <ele>419.9</ele>
        <time>2017-10-22T09:33:22.999Z</time>
      </trkpt>
      <trkpt lat="47.52402" lon="6.68846">
        <ele>419.9</ele>
        <time>2017-10-22T09:33:23.999Z</time>
      </trkpt>
      <trkpt lat="47.52405" lon="6.68852">
        <ele>420.4</ele>
        <time>2017-10-22T09:33:24.999Z</time>
      </trkpt>
      <trkpt lat="47.52408" lon="6.68859">
        <ele>420.9</ele>
        <time>2017-10-22T09:33:25.999Z</time>
      </trkpt>
      <trkpt lat="47.52411" lon="6.68864">
        <ele>421</ele>
        <time>2017-10-22T09:33:26.999Z</time>
      </trkpt>
      <trkpt lat="47.52416" lon="6.6887">
        <ele>421.2</ele>
        <time>2017-10-22T09:33:27.999Z</time>
      </trkpt>
      <trkpt lat="47.5242" lon="6.68877">
        <ele>420.9</ele>
        <time>2017-10-22T09:33:28.999Z</time>
      </trkpt>
      <trkpt lat="47.52425" lon="6.68884">
        <ele>420.7</ele>
        <time>2017-10-22T09:33:29.999Z</time>
      </trkpt>
      <trkpt lat="47.52429" lon="6.68891">
        <ele>420.2</ele>
        <time>2017-10-22T09:33:30.999Z</time>
      </trkpt>
      <trkpt lat="47.52433" lon="6.68897">
        <ele>419.4</ele>
        <time>2017-10-22T09:33:31.999Z</time>
      </trkpt>
      <trkpt lat="47.52437" lon="6.68904">
        <ele>419</ele>
        <time>2017-10-22T09:33:32.999Z</time>
      </trkpt>
      <trkpt lat="47.52441" lon="6.68911">
        <ele>418.6</ele>
        <time>2017-10-22T09:33:33.999Z</time>
      </trkpt>
      <trkpt lat="47.52445" lon="6.68919">
        <ele>417.9</ele>
        <time>2017-10-22T09:33:34.999Z</time>
      </trkpt>
      <trkpt lat="47.52449" lon="6.68925">
        <ele>416.8</ele>
        <time>2017-10-22T09:33:35.999Z</time>
      </trkpt>
      <trkpt lat="47.52452" lon="6.68931">
        <ele>416</ele>
        <time>2017-10-22T09:33:36.999Z</time>
      </trkpt>
      <trkpt lat="47.52456" lon="6.68937">
        <ele>415.4</ele>
        <time>2017-10-22T09:33:37.999Z</time>
      </trkpt>
      <trkpt lat="47.5246" lon="6.68944">
        <ele>415.4</ele>
        <time>2017-10-22T09:33:38.999Z</time>
      </trkpt>
      <trkpt lat="47.52463" lon="6.68951">
        <ele>415.5</ele>
        <time>2017-10-22T09:33:39.999Z</time>
      </trkpt>
      <trkpt lat="47.52468" lon="6.68958">
        <ele>415.9</ele>
        <time>2017-10-22T09:33:40.999Z</time>
      </trkpt>
      <trkpt lat="47.52473" lon="6.68965">
        <ele>416.2</ele>
        <time>2017-10-22T09:33:41.999Z</time>
      </trkpt>
      <trkpt lat="47.52478" lon="6.68971">
        <ele>416.2</ele>
        <time>2017-10-22T09:33:42.999Z</time>
      </trkpt>
      <trkpt lat="47.52482" lon="6.68977">
        <ele>415.9</ele>
        <time>2017-10-22T09:33:43.999Z</time>
      </trkpt>
      <trkpt lat="47.52493" lon="6.68989">
        <ele>416.3</ele>
        <time>2017-10-22T09:33:45.999Z</time>
      </trkpt>
      <trkpt lat="47.52499" lon="6.68995">
        <ele>416.7</ele>
        <time>2017-10-22T09:33:46.999Z</time>
      </trkpt>
      <trkpt lat="47.52504" lon="6.69001">
        <ele>417.3</ele>
        <time>2017-10-22T09:33:47.999Z</time>
      </trkpt>
      <trkpt lat="47.52508" lon="6.69007">
        <ele>417.6</ele>
        <time>2017-10-22T09:33:48.999Z</time>
      </trkpt>
      <trkpt lat="47.52514" lon="6.69014">
        <ele>417.7</ele>
        <time>2017-10-22T09:33:49.999Z</time>
      </trkpt>
      <trkpt lat="47.52519" lon="6.69021">
        <ele>417.7</ele>
        <time>2017-10-22T09:33:50.999Z</time>
      </trkpt>
      <trkpt lat="47.52524" lon="6.69028">
        <ele>417.8</ele>
        <time>2017-10-22T09:33:51.999Z</time>
      </trkpt>
      <trkpt lat="47.52529" lon="6.69034">
        <ele>417.8</ele>
        <time>2017-10-22T09:33:52.999Z</time>
      </trkpt>
      <trkpt lat="47.52534" lon="6.69041">
        <ele>417.6</ele>
        <time>2017-10-22T09:33:53.999Z</time>
      </trkpt>
      <trkpt lat="47.5254" lon="6.69048">
        <ele>417.3</ele>
        <time>2017-10-22T09:33:54.999Z</time>
      </trkpt>
      <trkpt lat="47.52545" lon="6.69054">
        <ele>417</ele>
        <time>2017-10-22T09:33:55.999Z</time>
      </trkpt>
      <trkpt lat="47.5255" lon="6.6906">
        <ele>416.4</ele>
        <time>2017-10-22T09:33:56.999Z</time>
      </trkpt>
      <trkpt lat="47.52555" lon="6.69067">
        <ele>415.7</ele>
        <time>2017-10-22T09:33:57.999Z</time>
      </trkpt>
      <trkpt lat="47.5256" lon="6.69076">
        <ele>414.9</ele>
        <time>2017-10-22T09:33:58.999Z</time>
      </trkpt>
      <trkpt lat="47.52564" lon="6.69084">
        <ele>413.8</ele>
        <time>2017-10-22T09:33:59.999Z</time>
      </trkpt>
      <trkpt lat="47.52568" lon="6.69093">
        <ele>412.8</ele>
        <time>2017-10-22T09:34:00.999Z</time>
      </trkpt>
      <trkpt lat="47.5257" lon="6.69105">
        <ele>411.9</ele>
        <time>2017-10-22T09:34:01.999Z</time>
      </trkpt>
      <trkpt lat="47.52573" lon="6.69116">
        <ele>411.2</ele>
        <time>2017-10-22T09:34:02.999Z</time>
      </trkpt>
      <trkpt lat="47.52575" lon="6.69128">
        <ele>410.9</ele>
        <time>2017-10-22T09:34:03.999Z</time>
      </trkpt>
      <trkpt lat="47.52577" lon="6.69139">
        <ele>410.5</ele>
        <time>2017-10-22T09:34:04.999Z</time>
      </trkpt>
      <trkpt lat="47.52579" lon="6.69149">
        <ele>410.5</ele>
        <time>2017-10-22T09:34:05.999Z</time>
      </trkpt>
      <trkpt lat="47.52581" lon="6.6916">
        <ele>410.7</ele>
        <time>2017-10-22T09:34:06.999Z</time>
      </trkpt>
      <trkpt lat="47.52583" lon="6.69171">
        <ele>411.1</ele>
        <time>2017-10-22T09:34:07.999Z</time>
      </trkpt>
      <trkpt lat="47.52585" lon="6.69182">
        <ele>411.3</ele>
        <time>2017-10-22T09:34:08.999Z</time>
      </trkpt>
      <trkpt lat="47.52586" lon="6.69193">
        <ele>411.6</ele>
        <time>2017-10-22T09:34:09.999Z</time>
      </trkpt>
      <trkpt lat="47.52588" lon="6.69204">
        <ele>411.4</ele>
        <time>2017-10-22T09:34:10.999Z</time>
      </trkpt>
      <trkpt lat="47.52589" lon="6.69214">
        <ele>411</ele>
        <time>2017-10-22T09:34:11.999Z</time>
      </trkpt>
      <trkpt lat="47.52589" lon="6.69223">
        <ele>410.7</ele>
        <time>2017-10-22T09:34:12.999Z</time>
      </trkpt>
      <trkpt lat="47.5259" lon="6.69232">
        <ele>410.1</ele>
        <time>2017-10-22T09:34:13.999Z</time>
      </trkpt>
      <trkpt lat="47.5259" lon="6.69239">
        <ele>409.2</ele>
        <time>2017-10-22T09:34:14.999Z</time>
      </trkpt>
      <trkpt lat="47.52591" lon="6.69247">
        <ele>408.2</ele>
        <time>2017-10-22T09:34:15.999Z</time>
      </trkpt>
      <trkpt lat="47.52591" lon="6.69258">
        <ele>407.4</ele>
        <time>2017-10-22T09:34:16.999Z</time>
      </trkpt>
      <trkpt lat="47.52592" lon="6.69265">
        <ele>406.5</ele>
        <time>2017-10-22T09:34:17.999Z</time>
      </trkpt>
      <trkpt lat="47.52592" lon="6.69273">
        <ele>405.6</ele>
        <time>2017-10-22T09:34:18.999Z</time>
      </trkpt>
      <trkpt lat="47.52592" lon="6.69283">
        <ele>405.2</ele>
        <time>2017-10-22T09:34:19.999Z</time>
      </trkpt>
      <trkpt lat="47.52593" lon="6.69293">
        <ele>404.4</ele>
        <time>2017-10-22T09:34:20.999Z</time>
      </trkpt>
      <trkpt lat="47.52594" lon="6.69305">
        <ele>403.2</ele>
        <time>2017-10-22T09:34:21.999Z</time>
      </trkpt>
      <trkpt lat="47.52594" lon="6.69316">
        <ele>401.9</ele>
        <time>2017-10-22T09:34:22.999Z</time>
      </trkpt>
      <trkpt lat="47.52594" lon="6.69328">
        <ele>401.1</ele>
        <time>2017-10-22T09:34:23.999Z</time>
      </trkpt>
      <trkpt lat="47.52593" lon="6.69339">
        <ele>400.7</ele>
        <time>2017-10-22T09:34:24.999Z</time>
      </trkpt>
      <trkpt lat="47.52592" lon="6.6935">
        <ele>400.6</ele>
        <time>2017-10-22T09:34:25.999Z</time>
      </trkpt>
      <trkpt lat="47.52591" lon="6.69359">
        <ele>400.2</ele>
        <time>2017-10-22T09:34:26.999Z</time>
      </trkpt>
      <trkpt lat="47.5259" lon="6.69369">
        <ele>399.7</ele>
        <time>2017-10-22T09:34:27.999Z</time>
      </trkpt>
      <trkpt lat="47.5259" lon="6.69379">
        <ele>399.9</ele>
        <time>2017-10-22T09:34:28.999Z</time>
      </trkpt>
      <trkpt lat="47.5259" lon="6.6939">
        <ele>400.4</ele>
        <time>2017-10-22T09:34:29.999Z</time>
      </trkpt>
      <trkpt lat="47.52591" lon="6.694">
        <ele>400.5</ele>
        <time>2017-10-22T09:34:30.999Z</time>
      </trkpt>
      <trkpt lat="47.52591" lon="6.6941">
        <ele>400.5</ele>
        <time>2017-10-22T09:34:31.999Z</time>
      </trkpt>
      <trkpt lat="47.52592" lon="6.6942">
        <ele>400.6</ele>
        <time>2017-10-22T09:34:32.999Z</time>
      </trkpt>
      <trkpt lat="47.52592" lon="6.6943">
        <ele>400.4</ele>
        <time>2017-10-22T09:34:33.999Z</time>
      </trkpt>
      <trkpt lat="47.52593" lon="6.6944">
        <ele>400.5</ele>
        <time>2017-10-22T09:34:34.999Z</time>
      </trkpt>
      <trkpt lat="47.52593" lon="6.69449">
        <ele>400.5</ele>
        <time>2017-10-22T09:34:35.999Z</time>
      </trkpt>
      <trkpt lat="47.52593" lon="6.69455">
        <ele>400.2</ele>
        <time>2017-10-22T09:34:36.999Z</time>
      </trkpt>
      <trkpt lat="47.52594" lon="6.6946">
        <ele>400.1</ele>
        <time>2017-10-22T09:34:37.999Z</time>
      </trkpt>
      <trkpt lat="47.52595" lon="6.69466">
        <ele>400</ele>
        <time>2017-10-22T09:34:38.999Z</time>
      </trkpt>
      <trkpt lat="47.52597" lon="6.6947">
        <ele>399.9</ele>
        <time>2017-10-22T09:34:39.999Z</time>
      </trkpt>
      <trkpt lat="47.52601" lon="6.69473">
        <ele>399.8</ele>
        <time>2017-10-22T09:34:40.999Z</time>
      </trkpt>
      <trkpt lat="47.52605" lon="6.69475">
        <ele>399</ele>
        <time>2017-10-22T09:34:41.999Z</time>
      </trkpt>
      <trkpt lat="47.5261" lon="6.69475">
        <ele>397.6</ele>
        <time>2017-10-22T09:34:42.999Z</time>
      </trkpt>
      <trkpt lat="47.52615" lon="6.69477">
        <ele>396.8</ele>
        <time>2017-10-22T09:34:43.999Z</time>
      </trkpt>
      <trkpt lat="47.52624" lon="6.69481">
        <ele>396.3</ele>
        <time>2017-10-22T09:34:45.999Z</time>
      </trkpt>
      <trkpt lat="47.52625" lon="6.69486">
        <ele>396.3</ele>
        <time>2017-10-22T09:34:46.999Z</time>
      </trkpt>
      <trkpt lat="47.52627" lon="6.69493">
        <ele>397</ele>
        <time>2017-10-22T09:34:47.999Z</time>
      </trkpt>
      <trkpt lat="47.52627" lon="6.69503">
        <ele>397.4</ele>
        <time>2017-10-22T09:34:48.999Z</time>
      </trkpt>
      <trkpt lat="47.52626" lon="6.69513">
        <ele>397.3</ele>
        <time>2017-10-22T09:34:49.999Z</time>
      </trkpt>
      <trkpt lat="47.52626" lon="6.69521">
        <ele>397.6</ele>
        <time>2017-10-22T09:34:50.999Z</time>
      </trkpt>
      <trkpt lat="47.52625" lon="6.69538">
        <ele>395.2</ele>
        <time>2017-10-22T09:34:52.999Z</time>
      </trkpt>
      <trkpt lat="47.52624" lon="6.69548">
        <ele>393.6</ele>
        <time>2017-10-22T09:34:53.999Z</time>
      </trkpt>
      <trkpt lat="47.52623" lon="6.69558">
        <ele>391.7</ele>
        <time>2017-10-22T09:34:54.999Z</time>
      </trkpt>
      <trkpt lat="47.52622" lon="6.69566">
        <ele>389.8</ele>
        <time>2017-10-22T09:34:55.999Z</time>
      </trkpt>
      <trkpt lat="47.52622" lon="6.69574">
        <ele>388</ele>
        <time>2017-10-22T09:34:56.999Z</time>
      </trkpt>
      <trkpt lat="47.52622" lon="6.69582">
        <ele>386.1</ele>
        <time>2017-10-22T09:34:57.999Z</time>
      </trkpt>
      <trkpt lat="47.52622" lon="6.69591">
        <ele>384.4</ele>
        <time>2017-10-22T09:34:58.999Z</time>
      </trkpt>
      <trkpt lat="47.52622" lon="6.69599">
        <ele>382.9</ele>
        <time>2017-10-22T09:34:59.999Z</time>
      </trkpt>
      <trkpt lat="47.52622" lon="6.69606">
        <ele>381.5</ele>
        <time>2017-10-22T09:35:00.999Z</time>
      </trkpt>
      <trkpt lat="47.52622" lon="6.69614">
        <ele>379.8</ele>
        <time>2017-10-22T09:35:01.999Z</time>
      </trkpt>
      <trkpt lat="47.52622" lon="6.6962">
        <ele>378.6</ele>
        <time>2017-10-22T09:35:02.999Z</time>
      </trkpt>
      <trkpt lat="47.52623" lon="6.69627">
        <ele>377.2</ele>
        <time>2017-10-22T09:35:03.999Z</time>
      </trkpt>
      <trkpt lat="47.52623" lon="6.69633">
        <ele>376.9</ele>
        <time>2017-10-22T09:35:04.999Z</time>
      </trkpt>
      <trkpt lat="47.52624" lon="6.69638">
        <ele>376.8</ele>
        <time>2017-10-22T09:35:05.999Z</time>
      </trkpt>
      <trkpt lat="47.52624" lon="6.69643">
        <ele>376.4</ele>
        <time>2017-10-22T09:35:06.999Z</time>
      </trkpt>
      <trkpt lat="47.52623" lon="6.69648">
        <ele>376</ele>
        <time>2017-10-22T09:35:07.999Z</time>
      </trkpt>
      <trkpt lat="47.52622" lon="6.69653">
        <ele>376.4</ele>
        <time>2017-10-22T09:35:08.999Z</time>
      </trkpt>
      <trkpt lat="47.52621" lon="6.69658">
        <ele>376.4</ele>
        <time>2017-10-22T09:35:09.999Z</time>
      </trkpt>
      <trkpt lat="47.52621" lon="6.69663">
        <ele>376.5</ele>
        <time>2017-10-22T09:35:10.999Z</time>
      </trkpt>
      <trkpt lat="47.5262" lon="6.69669">
        <ele>377.3</ele>
        <time>2017-10-22T09:35:11.999Z</time>
      </trkpt>
      <trkpt lat="47.52619" lon="6.69676">
        <ele>378.3</ele>
        <time>2017-10-22T09:35:12.999Z</time>
      </trkpt>
      <trkpt lat="47.52617" lon="6.69682">
        <ele>380</ele>
        <time>2017-10-22T09:35:13.999Z</time>
      </trkpt>
      <trkpt lat="47.52616" lon="6.69687">
        <ele>380.2</ele>
        <time>2017-10-22T09:35:14.999Z</time>
      </trkpt>
      <trkpt lat="47.52615" lon="6.69691">
        <ele>380.3</ele>
        <time>2017-10-22T09:35:15.999Z</time>
      </trkpt>
      <trkpt lat="47.52615" lon="6.69696">
        <ele>380.5</ele>
        <time>2017-10-22T09:35:16.999Z</time>
      </trkpt>
      <trkpt lat="47.52615" lon="6.69702">
        <ele>380.7</ele>
        <time>2017-10-22T09:35:17.999Z</time>
      </trkpt>
      <trkpt lat="47.52616" lon="6.69707">
        <ele>381</ele>
        <time>2017-10-22T09:35:18.999Z</time>
      </trkpt>
      <trkpt lat="47.52619" lon="6.69711">
        <ele>383.7</ele>
        <time>2017-10-22T09:35:19.999Z</time>
      </trkpt>
      <trkpt lat="47.52622" lon="6.69715">
        <ele>385.6</ele>
        <time>2017-10-22T09:35:20.999Z</time>
      </trkpt>
      <trkpt lat="47.52626" lon="6.6972">
        <ele>387</ele>
        <time>2017-10-22T09:35:21.999Z</time>
      </trkpt>
      <trkpt lat="47.5263" lon="6.69723">
        <ele>388.5</ele>
        <time>2017-10-22T09:35:22.999Z</time>
      </trkpt>
      <trkpt lat="47.52634" lon="6.69725">
        <ele>389.3</ele>
        <time>2017-10-22T09:35:23.999Z</time>
      </trkpt>
      <trkpt lat="47.52638" lon="6.69728">
        <ele>390.4</ele>
        <time>2017-10-22T09:35:24.999Z</time>
      </trkpt>
      <trkpt lat="47.52642" lon="6.6973">
        <ele>391.9</ele>
        <time>2017-10-22T09:35:25.999Z</time>
      </trkpt>
      <trkpt lat="47.52647" lon="6.69732">
        <ele>392.6</ele>
        <time>2017-10-22T09:35:26.999Z</time>
      </trkpt>
      <trkpt lat="47.52652" lon="6.69733">
        <ele>392.5</ele>
        <time>2017-10-22T09:35:27.999Z</time>
      </trkpt>
      <trkpt lat="47.52656" lon="6.69735">
        <ele>392.7</ele>
        <time>2017-10-22T09:35:28.999Z</time>
      </trkpt>
      <trkpt lat="47.52661" lon="6.69736">
        <ele>392.8</ele>
        <time>2017-10-22T09:35:29.999Z</time>
      </trkpt>
      <trkpt lat="47.52665" lon="6.69736">
        <ele>392.9</ele>
        <time>2017-10-22T09:35:30.999Z</time>
      </trkpt>
      <trkpt lat="47.5267" lon="6.69739">
        <ele>393</ele>
        <time>2017-10-22T09:35:31.999Z</time>
      </trkpt>
      <trkpt lat="47.52674" lon="6.69741">
        <ele>392.2</ele>
        <time>2017-10-22T09:35:32.999Z</time>
      </trkpt>
      <trkpt lat="47.52679" lon="6.69744">
        <ele>391.9</ele>
        <time>2017-10-22T09:35:33.999Z</time>
      </trkpt>
      <trkpt lat="47.52684" lon="6.6975">
        <ele>391.8</ele>
        <time>2017-10-22T09:35:34.999Z</time>
      </trkpt>
      <trkpt lat="47.52689" lon="6.69756">
        <ele>390.9</ele>
        <time>2017-10-22T09:35:35.999Z</time>
      </trkpt>
      <trkpt lat="47.52693" lon="6.6976">
        <ele>390.8</ele>
        <time>2017-10-22T09:35:36.999Z</time>
      </trkpt>
      <trkpt lat="47.52697" lon="6.69766">
        <ele>391.2</ele>
        <time>2017-10-22T09:35:37.999Z</time>
      </trkpt>
      <trkpt lat="47.527" lon="6.69771">
        <ele>391.3</ele>
        <time>2017-10-22T09:35:38.999Z</time>
      </trkpt>
      <trkpt lat="47.52704" lon="6.69777">
        <ele>391.5</ele>
        <time>2017-10-22T09:35:39.999Z</time>
      </trkpt>
      <trkpt lat="47.52707" lon="6.69786">
        <ele>391.7</ele>
        <time>2017-10-22T09:35:40.999Z</time>
      </trkpt>
      <trkpt lat="47.5271" lon="6.69796">
        <ele>392</ele>
        <time>2017-10-22T09:35:41.999Z</time>
      </trkpt>
      <trkpt lat="47.52712" lon="6.69806">
        <ele>392.4</ele>
        <time>2017-10-22T09:35:42.999Z</time>
      </trkpt>
      <trkpt lat="47.52714" lon="6.69815">
        <ele>393.2</ele>
        <time>2017-10-22T09:35:43.999Z</time>
      </trkpt>
      <trkpt lat="47.52716" lon="6.69825">
        <ele>394.2</ele>
        <time>2017-10-22T09:35:44.999Z</time>
      </trkpt>
      <trkpt lat="47.52718" lon="6.69835">
        <ele>394.6</ele>
        <time>2017-10-22T09:35:45.999Z</time>
      </trkpt>
      <trkpt lat="47.52719" lon="6.69846">
        <ele>394.6</ele>
        <time>2017-10-22T09:35:46.999Z</time>
      </trkpt>
      <trkpt lat="47.52721" lon="6.69856">
        <ele>394</ele>
        <time>2017-10-22T09:35:47.999Z</time>
      </trkpt>
      <trkpt lat="47.52723" lon="6.69866">
        <ele>393.3</ele>
        <time>2017-10-22T09:35:48.999Z</time>
      </trkpt>
      <trkpt lat="47.52724" lon="6.69877">
        <ele>392.8</ele>
        <time>2017-10-22T09:35:49.999Z</time>
      </trkpt>
      <trkpt lat="47.52726" lon="6.69886">
        <ele>391.9</ele>
        <time>2017-10-22T09:35:50.999Z</time>
      </trkpt>
      <trkpt lat="47.52727" lon="6.69896">
        <ele>391.1</ele>
        <time>2017-10-22T09:35:51.999Z</time>
      </trkpt>
      <trkpt lat="47.52729" lon="6.69907">
        <ele>390.5</ele>
        <time>2017-10-22T09:35:52.999Z</time>
      </trkpt>
      <trkpt lat="47.5273" lon="6.69916">
        <ele>389.9</ele>
        <time>2017-10-22T09:35:53.999Z</time>
      </trkpt>
      <trkpt lat="47.52731" lon="6.69925">
        <ele>389.2</ele>
        <time>2017-10-22T09:35:54.999Z</time>
      </trkpt>
      <trkpt lat="47.52733" lon="6.69932">
        <ele>388.7</ele>
        <time>2017-10-22T09:35:55.999Z</time>
      </trkpt>
      <trkpt lat="47.52734" lon="6.69941">
        <ele>388.2</ele>
        <time>2017-10-22T09:35:56.999Z</time>
      </trkpt>
      <trkpt lat="47.52735" lon="6.6995">
        <ele>387.9</ele>
        <time>2017-10-22T09:35:57.999Z</time>
      </trkpt>
      <trkpt lat="47.52736" lon="6.69959">
        <ele>387.9</ele>
        <time>2017-10-22T09:35:58.999Z</time>
      </trkpt>
      <trkpt lat="47.52737" lon="6.69967">
        <ele>387.8</ele>
        <time>2017-10-22T09:35:59.999Z</time>
      </trkpt>
      <trkpt lat="47.52738" lon="6.69976">
        <ele>387.6</ele>
        <time>2017-10-22T09:36:00.999Z</time>
      </trkpt>
      <trkpt lat="47.52739" lon="6.69983">
        <ele>387</ele>
        <time>2017-10-22T09:36:01.999Z</time>
      </trkpt>
      <trkpt lat="47.5274" lon="6.6999">
        <ele>386.8</ele>
        <time>2017-10-22T09:36:02.999Z</time>
      </trkpt>
      <trkpt lat="47.52742" lon="6.69997">
        <ele>387</ele>
        <time>2017-10-22T09:36:03.999Z</time>
      </trkpt>
      <trkpt lat="47.52743" lon="6.70004">
        <ele>386.9</ele>
        <time>2017-10-22T09:36:04.999Z</time>
      </trkpt>
      <trkpt lat="47.52745" lon="6.70011">
        <ele>386.8</ele>
        <time>2017-10-22T09:36:05.999Z</time>
      </trkpt>
      <trkpt lat="47.52747" lon="6.70018">
        <ele>386.4</ele>
        <time>2017-10-22T09:36:06.999Z</time>
      </trkpt>
      <trkpt lat="47.52749" lon="6.70027">
        <ele>386.5</ele>
        <time>2017-10-22T09:36:07.999Z</time>
      </trkpt>
      <trkpt lat="47.52751" lon="6.70033">
        <ele>386.5</ele>
        <time>2017-10-22T09:36:08.999Z</time>
      </trkpt>
      <trkpt lat="47.52752" lon="6.70041">
        <ele>386.7</ele>
        <time>2017-10-22T09:36:09.999Z</time>
      </trkpt>
      <trkpt lat="47.52753" lon="6.70049">
        <ele>386.3</ele>
        <time>2017-10-22T09:36:10.999Z</time>
      </trkpt>
      <trkpt lat="47.52755" lon="6.70056">
        <ele>386.3</ele>
        <time>2017-10-22T09:36:11.999Z</time>
      </trkpt>
      <trkpt lat="47.52757" lon="6.70064">
        <ele>387.1</ele>
        <time>2017-10-22T09:36:12.999Z</time>
      </trkpt>
      <trkpt lat="47.52758" lon="6.70071">
        <ele>387.3</ele>
        <time>2017-10-22T09:36:13.999Z</time>
      </trkpt>
      <trkpt lat="47.52759" lon="6.70078">
        <ele>387.6</ele>
        <time>2017-10-22T09:36:14.999Z</time>
      </trkpt>
      <trkpt lat="47.52761" lon="6.70085">
        <ele>386.9</ele>
        <time>2017-10-22T09:36:15.999Z</time>
      </trkpt>
      <trkpt lat="47.52762" lon="6.70093">
        <ele>386.9</ele>
        <time>2017-10-22T09:36:16.999Z</time>
      </trkpt>
      <trkpt lat="47.52763" lon="6.70101">
        <ele>386.4</ele>
        <time>2017-10-22T09:36:17.999Z</time>
      </trkpt>
      <trkpt lat="47.52764" lon="6.7011">
        <ele>385.6</ele>
        <time>2017-10-22T09:36:18.999Z</time>
      </trkpt>
      <trkpt lat="47.52765" lon="6.70116">
        <ele>385.4</ele>
        <time>2017-10-22T09:36:19.999Z</time>
      </trkpt>
      <trkpt lat="47.52767" lon="6.70121">
        <ele>385.3</ele>
        <time>2017-10-22T09:36:20.999Z</time>
      </trkpt>
      <trkpt lat="47.52768" lon="6.70127">
        <ele>385.3</ele>
        <time>2017-10-22T09:36:21.999Z</time>
      </trkpt>
      <trkpt lat="47.52769" lon="6.70134">
        <ele>385.4</ele>
        <time>2017-10-22T09:36:22.999Z</time>
      </trkpt>
      <trkpt lat="47.5277" lon="6.7014">
        <ele>385.9</ele>
        <time>2017-10-22T09:36:23.999Z</time>
      </trkpt>
      <trkpt lat="47.52772" lon="6.70146">
        <ele>386.4</ele>
        <time>2017-10-22T09:36:24.999Z</time>
      </trkpt>
      <trkpt lat="47.52773" lon="6.70154">
        <ele>387.4</ele>
        <time>2017-10-22T09:36:25.999Z</time>
      </trkpt>
      <trkpt lat="47.52774" lon="6.70161">
        <ele>388.1</ele>
        <time>2017-10-22T09:36:26.999Z</time>
      </trkpt>
      <trkpt lat="47.52775" lon="6.70168">
        <ele>388.6</ele>
        <time>2017-10-22T09:36:27.999Z</time>
      </trkpt>
      <trkpt lat="47.52777" lon="6.70175">
        <ele>388.8</ele>
        <time>2017-10-22T09:36:28.999Z</time>
      </trkpt>
      <trkpt lat="47.52778" lon="6.70183">
        <ele>388.7</ele>
        <time>2017-10-22T09:36:29.999Z</time>
      </trkpt>
      <trkpt lat="47.5278" lon="6.70189">
        <ele>388.7</ele>
        <time>2017-10-22T09:36:30.999Z</time>
      </trkpt>
      <trkpt lat="47.5278" lon="6.70196">
        <ele>388.7</ele>
        <time>2017-10-22T09:36:31.999Z</time>
      </trkpt>
      <trkpt lat="47.52781" lon="6.70204">
        <ele>388.4</ele>
        <time>2017-10-22T09:36:32.999Z</time>
      </trkpt>
      <trkpt lat="47.52782" lon="6.70212">
        <ele>388.3</ele>
        <time>2017-10-22T09:36:33.999Z</time>
      </trkpt>
      <trkpt lat="47.52785" lon="6.70222">
        <ele>388.4</ele>
        <time>2017-10-22T09:36:34.999Z</time>
      </trkpt>
      <trkpt lat="47.52788" lon="6.70232">
        <ele>388.9</ele>
        <time>2017-10-22T09:36:35.999Z</time>
      </trkpt>
      <trkpt lat="47.52791" lon="6.70242">
        <ele>388.9</ele>
        <time>2017-10-22T09:36:36.999Z</time>
      </trkpt>
      <trkpt lat="47.52793" lon="6.70251">
        <ele>389</ele>
        <time>2017-10-22T09:36:37.999Z</time>
      </trkpt>
      <trkpt lat="47.52795" lon="6.70261">
        <ele>389.1</ele>
        <time>2017-10-22T09:36:38.999Z</time>
      </trkpt>
      <trkpt lat="47.52796" lon="6.70269">
        <ele>389.4</ele>
        <time>2017-10-22T09:36:39.999Z</time>
      </trkpt>
      <trkpt lat="47.52798" lon="6.70276">
        <ele>389.5</ele>
        <time>2017-10-22T09:36:40.999Z</time>
      </trkpt>
      <trkpt lat="47.52799" lon="6.70282">
        <ele>389.3</ele>
        <time>2017-10-22T09:36:41.999Z</time>
      </trkpt>
      <trkpt lat="47.52801" lon="6.7029">
        <ele>389.1</ele>
        <time>2017-10-22T09:36:42.999Z</time>
      </trkpt>
      <trkpt lat="47.52802" lon="6.70298">
        <ele>388.9</ele>
        <time>2017-10-22T09:36:43.999Z</time>
      </trkpt>
      <trkpt lat="47.52802" lon="6.70305">
        <ele>388.8</ele>
        <time>2017-10-22T09:36:44.999Z</time>
      </trkpt>
      <trkpt lat="47.52803" lon="6.70313">
        <ele>388.5</ele>
        <time>2017-10-22T09:36:45.999Z</time>
      </trkpt>
      <trkpt lat="47.52803" lon="6.70319">
        <ele>388.6</ele>
        <time>2017-10-22T09:36:46.999Z</time>
      </trkpt>
      <trkpt lat="47.52804" lon="6.70325">
        <ele>388.5</ele>
        <time>2017-10-22T09:36:47.999Z</time>
      </trkpt>
      <trkpt lat="47.52805" lon="6.70333">
        <ele>388.1</ele>
        <time>2017-10-22T09:36:48.999Z</time>
      </trkpt>
      <trkpt lat="47.52805" lon="6.7034">
        <ele>387.7</ele>
        <time>2017-10-22T09:36:49.999Z</time>
      </trkpt>
      <trkpt lat="47.52806" lon="6.70345">
        <ele>387.7</ele>
        <time>2017-10-22T09:36:50.999Z</time>
      </trkpt>
      <trkpt lat="47.52807" lon="6.70351">
        <ele>387.6</ele>
        <time>2017-10-22T09:36:51.999Z</time>
      </trkpt>
      <trkpt lat="47.52808" lon="6.7036">
        <ele>386</ele>
        <time>2017-10-22T09:36:52.999Z</time>
      </trkpt>
      <trkpt lat="47.52809" lon="6.70369">
        <ele>385.3</ele>
        <time>2017-10-22T09:36:53.999Z</time>
      </trkpt>
      <trkpt lat="47.5281" lon="6.70376">
        <ele>384.8</ele>
        <time>2017-10-22T09:36:54.999Z</time>
      </trkpt>
      <trkpt lat="47.52811" lon="6.70385">
        <ele>384.6</ele>
        <time>2017-10-22T09:36:55.999Z</time>
      </trkpt>
      <trkpt lat="47.52812" lon="6.70393">
        <ele>384.3</ele>
        <time>2017-10-22T09:36:56.999Z</time>
      </trkpt>
      <trkpt lat="47.52813" lon="6.70401">
        <ele>384.1</ele>
        <time>2017-10-22T09:36:57.999Z</time>
      </trkpt>
      <trkpt lat="47.52814" lon="6.70411">
        <ele>384.2</ele>
        <time>2017-10-22T09:36:58.999Z</time>
      </trkpt>
      <trkpt lat="47.52814" lon="6.70418">
        <ele>384.1</ele>
        <time>2017-10-22T09:36:59.999Z</time>
      </trkpt>
      <trkpt lat="47.52815" lon="6.70426">
        <ele>384.3</ele>
        <time>2017-10-22T09:37:00.999Z</time>
      </trkpt>
      <trkpt lat="47.52817" lon="6.70433">
        <ele>383.6</ele>
        <time>2017-10-22T09:37:01.999Z</time>
      </trkpt>
      <trkpt lat="47.52819" lon="6.70439">
        <ele>383.5</ele>
        <time>2017-10-22T09:37:02.999Z</time>
      </trkpt>
      <trkpt lat="47.52822" lon="6.70444">
        <ele>383.4</ele>
        <time>2017-10-22T09:37:03.999Z</time>
      </trkpt>
      <trkpt lat="47.52825" lon="6.7045">
        <ele>382.4</ele>
        <time>2017-10-22T09:37:04.999Z</time>
      </trkpt>
      <trkpt lat="47.52829" lon="6.70457">
        <ele>381</ele>
        <time>2017-10-22T09:37:05.999Z</time>
      </trkpt>
      <trkpt lat="47.52833" lon="6.70463">
        <ele>380.9</ele>
        <time>2017-10-22T09:37:06.999Z</time>
      </trkpt>
      <trkpt lat="47.52836" lon="6.7047">
        <ele>380.8</ele>
        <time>2017-10-22T09:37:07.999Z</time>
      </trkpt>
      <trkpt lat="47.52839" lon="6.70476">
        <ele>380.7</ele>
        <time>2017-10-22T09:37:08.999Z</time>
      </trkpt>
      <trkpt lat="47.52841" lon="6.70483">
        <ele>379</ele>
        <time>2017-10-22T09:37:09.999Z</time>
      </trkpt>
      <trkpt lat="47.52842" lon="6.70488">
        <ele>378.2</ele>
        <time>2017-10-22T09:37:10.999Z</time>
      </trkpt>
      <trkpt lat="47.52844" lon="6.70493">
        <ele>377.1</ele>
        <time>2017-10-22T09:37:11.999Z</time>
      </trkpt>
      <trkpt lat="47.52845" lon="6.70499">
        <ele>375.2</ele>
        <time>2017-10-22T09:37:12.999Z</time>
      </trkpt>
      <trkpt lat="47.52847" lon="6.70505">
        <ele>373.8</ele>
        <time>2017-10-22T09:37:13.999Z</time>
      </trkpt>
      <trkpt lat="47.52848" lon="6.7051">
        <ele>372.9</ele>
        <time>2017-10-22T09:37:14.999Z</time>
      </trkpt>
      <trkpt lat="47.52849" lon="6.70513">
        <ele>372.8</ele>
        <time>2017-10-22T09:37:15.999Z</time>
      </trkpt>
      <trkpt lat="47.52849" lon="6.70518">
        <ele>372.6</ele>
        <time>2017-10-22T09:37:16.999Z</time>
      </trkpt>
      <trkpt lat="47.52849" lon="6.70522">
        <ele>372.4</ele>
        <time>2017-10-22T09:37:17.999Z</time>
      </trkpt>
      <trkpt lat="47.52849" lon="6.70528">
        <ele>372.1</ele>
        <time>2017-10-22T09:37:18.999Z</time>
      </trkpt>
      <trkpt lat="47.52849" lon="6.70534">
        <ele>371.8</ele>
        <time>2017-10-22T09:37:19.999Z</time>
      </trkpt>
      <trkpt lat="47.52849" lon="6.70537">
        <ele>371.6</ele>
        <time>2017-10-22T09:37:20.999Z</time>
      </trkpt>
      <trkpt lat="47.52849" lon="6.70541">
        <ele>371.3</ele>
        <time>2017-10-22T09:37:21.999Z</time>
      </trkpt>
      <trkpt lat="47.52847" lon="6.70544">
        <ele>371</ele>
        <time>2017-10-22T09:37:22.999Z</time>
      </trkpt>
      <trkpt lat="47.52843" lon="6.70547">
        <ele>370.8</ele>
        <time>2017-10-22T09:37:24.999Z</time>
      </trkpt>
      <trkpt lat="47.52841" lon="6.70548">
        <ele>370.7</ele>
        <time>2017-10-22T09:37:25.999Z</time>
      </trkpt>
      <trkpt lat="47.52838" lon="6.7055">
        <ele>370.6</ele>
        <time>2017-10-22T09:37:26.999Z</time>
      </trkpt>
      <trkpt lat="47.52835" lon="6.70553">
        <ele>369.5</ele>
        <time>2017-10-22T09:37:27.999Z</time>
      </trkpt>
      <trkpt lat="47.52831" lon="6.70554">
        <ele>369.4</ele>
        <time>2017-10-22T09:37:28.999Z</time>
      </trkpt>
      <trkpt lat="47.52828" lon="6.70556">
        <ele>369.5</ele>
        <time>2017-10-22T09:37:29.999Z</time>
      </trkpt>
      <trkpt lat="47.52826" lon="6.70556">
        <ele>369.6</ele>
        <time>2017-10-22T09:37:30.999Z</time>
      </trkpt>
      <trkpt lat="47.52822" lon="6.70555">
        <ele>369.8</ele>
        <time>2017-10-22T09:37:31.999Z</time>
      </trkpt>
      <trkpt lat="47.52819" lon="6.70555">
        <ele>369.9</ele>
        <time>2017-10-22T09:37:32.999Z</time>
      </trkpt>
      <trkpt lat="47.52816" lon="6.70553">
        <ele>370</ele>
        <time>2017-10-22T09:37:33.999Z</time>
      </trkpt>
      <trkpt lat="47.52813" lon="6.70551">
        <ele>370.1</ele>
        <time>2017-10-22T09:37:34.999Z</time>
      </trkpt>
      <trkpt lat="47.5281" lon="6.70551">
        <ele>370.3</ele>
        <time>2017-10-22T09:37:35.999Z</time>
      </trkpt>
      <trkpt lat="47.52806" lon="6.70551">
        <ele>370.5</ele>
        <time>2017-10-22T09:37:36.999Z</time>
      </trkpt>
      <trkpt lat="47.52802" lon="6.70552">
        <ele>370.8</ele>
        <time>2017-10-22T09:37:37.999Z</time>
      </trkpt>
      <trkpt lat="47.52798" lon="6.70552">
        <ele>371.1</ele>
        <time>2017-10-22T09:37:38.999Z</time>
      </trkpt>
      <trkpt lat="47.52796" lon="6.70551">
        <ele>371.5</ele>
        <time>2017-10-22T09:37:39.999Z</time>
      </trkpt>
      <trkpt lat="47.52791" lon="6.70553">
        <ele>372.3</ele>
        <time>2017-10-22T09:37:41.999Z</time>
      </trkpt>
      <trkpt lat="47.52789" lon="6.70556">
        <ele>372.6</ele>
        <time>2017-10-22T09:37:42.999Z</time>
      </trkpt>
      <trkpt lat="47.52788" lon="6.7056">
        <ele>372.9</ele>
        <time>2017-10-22T09:37:43.999Z</time>
      </trkpt>
      <trkpt lat="47.52787" lon="6.70568">
        <ele>373.4</ele>
        <time>2017-10-22T09:37:45.999Z</time>
      </trkpt>
      <trkpt lat="47.52787" lon="6.70571">
        <ele>373.6</ele>
        <time>2017-10-22T09:37:46.999Z</time>
      </trkpt>
      <trkpt lat="47.52787" lon="6.70575">
        <ele>373.7</ele>
        <time>2017-10-22T09:37:47.999Z</time>
      </trkpt>
      <trkpt lat="47.52786" lon="6.70578">
        <ele>373.8</ele>
        <time>2017-10-22T09:37:48.999Z</time>
      </trkpt>
      <trkpt lat="47.52785" lon="6.70582">
        <ele>373.9</ele>
        <time>2017-10-22T09:37:49.999Z</time>
      </trkpt>
      <trkpt lat="47.52784" lon="6.70585">
        <ele>373.9</ele>
        <time>2017-10-22T09:37:50.999Z</time>
      </trkpt>
      <trkpt lat="47.52782" lon="6.70587">
        <ele>374</ele>
        <time>2017-10-22T09:37:51.999Z</time>
      </trkpt>
      <trkpt lat="47.5278" lon="6.70591">
        <ele>374.2</ele>
        <time>2017-10-22T09:37:52.999Z</time>
      </trkpt>
      <trkpt lat="47.52779" lon="6.70593">
        <ele>374.4</ele>
        <time>2017-10-22T09:37:53.999Z</time>
      </trkpt>
      <trkpt lat="47.52776" lon="6.70593">
        <ele>374.5</ele>
        <time>2017-10-22T09:37:54.999Z</time>
      </trkpt>
      <trkpt lat="47.52772" lon="6.70593">
        <ele>376.1</ele>
        <time>2017-10-22T09:37:55.999Z</time>
      </trkpt>
      <trkpt lat="47.52767" lon="6.70593">
        <ele>376.2</ele>
        <time>2017-10-22T09:37:56.999Z</time>
      </trkpt>
      <trkpt lat="47.52764" lon="6.70593">
        <ele>376.4</ele>
        <time>2017-10-22T09:37:57.999Z</time>
      </trkpt>
      <trkpt lat="47.52761" lon="6.70593">
        <ele>376.5</ele>
        <time>2017-10-22T09:37:58.999Z</time>
      </trkpt>
      <trkpt lat="47.52757" lon="6.70593">
        <ele>376.6</ele>
        <time>2017-10-22T09:37:59.999Z</time>
      </trkpt>
      <trkpt lat="47.52754" lon="6.70594">
        <ele>376.6</ele>
        <time>2017-10-22T09:38:00.999Z</time>
      </trkpt>
      <trkpt lat="47.5275" lon="6.70595">
        <ele>376.7</ele>
        <time>2017-10-22T09:38:01.999Z</time>
      </trkpt>
      <trkpt lat="47.52748" lon="6.70598">
        <ele>376.7</ele>
        <time>2017-10-22T09:38:02.999Z</time>
      </trkpt>
      <trkpt lat="47.52745" lon="6.706">
        <ele>376.9</ele>
        <time>2017-10-22T09:38:04.999Z</time>
      </trkpt>
      <trkpt lat="47.52743" lon="6.70601">
        <ele>376.9</ele>
        <time>2017-10-22T09:38:05.999Z</time>
      </trkpt>
      <trkpt lat="47.52742" lon="6.70606">
        <ele>376.9</ele>
        <time>2017-10-22T09:38:07.999Z</time>
      </trkpt>
      <trkpt lat="47.52743" lon="6.70612">
        <ele>376.9</ele>
        <time>2017-10-22T09:38:08.999Z</time>
      </trkpt>
      <trkpt lat="47.52745" lon="6.70617">
        <ele>377</ele>
        <time>2017-10-22T09:38:09.999Z</time>
      </trkpt>
      <trkpt lat="47.52747" lon="6.70621">
        <ele>377.1</ele>
        <time>2017-10-22T09:38:10.999Z</time>
      </trkpt>
      <trkpt lat="47.52747" lon="6.70624">
        <ele>377.3</ele>
        <time>2017-10-22T09:38:11.999Z</time>
      </trkpt>
      <trkpt lat="47.52748" lon="6.70628">
        <ele>377.4</ele>
        <time>2017-10-22T09:38:12.999Z</time>
      </trkpt>
      <trkpt lat="47.52749" lon="6.70633">
        <ele>377.8</ele>
        <time>2017-10-22T09:38:14.999Z</time>
      </trkpt>
      <trkpt lat="47.52749" lon="6.70635">
        <ele>378</ele>
        <time>2017-10-22T09:38:15.999Z</time>
      </trkpt>
      <trkpt lat="47.52749" lon="6.7064">
        <ele>378.2</ele>
        <time>2017-10-22T09:38:17.999Z</time>
      </trkpt>
      <trkpt lat="47.5275" lon="6.70643">
        <ele>378.2</ele>
        <time>2017-10-22T09:38:18.999Z</time>
      </trkpt>
      <trkpt lat="47.5275" lon="6.70648">
        <ele>378.1</ele>
        <time>2017-10-22T09:38:19.999Z</time>
      </trkpt>
      <trkpt lat="47.52751" lon="6.70652">
        <ele>378.1</ele>
        <time>2017-10-22T09:38:20.999Z</time>
      </trkpt>
      <trkpt lat="47.52752" lon="6.7066">
        <ele>378</ele>
        <time>2017-10-22T09:38:21.999Z</time>
      </trkpt>
      <trkpt lat="47.52752" lon="6.70667">
        <ele>378</ele>
        <time>2017-10-22T09:38:22.999Z</time>
      </trkpt>
      <trkpt lat="47.52752" lon="6.70676">
        <ele>378</ele>
        <time>2017-10-22T09:38:23.999Z</time>
      </trkpt>
      <trkpt lat="47.52752" lon="6.7068">
        <ele>378.1</ele>
        <time>2017-10-22T09:38:24.999Z</time>
      </trkpt>
      <trkpt lat="47.52751" lon="6.70691">
        <ele>378.2</ele>
        <time>2017-10-22T09:38:25.999Z</time>
      </trkpt>
      <trkpt lat="47.52751" lon="6.707">
        <ele>378.4</ele>
        <time>2017-10-22T09:38:26.999Z</time>
      </trkpt>
      <trkpt lat="47.5275" lon="6.70708">
        <ele>378.5</ele>
        <time>2017-10-22T09:38:27.999Z</time>
      </trkpt>
      <trkpt lat="47.52748" lon="6.70717">
        <ele>378.6</ele>
        <time>2017-10-22T09:38:28.999Z</time>
      </trkpt>
      <trkpt lat="47.52748" lon="6.70723">
        <ele>378.8</ele>
        <time>2017-10-22T09:38:29.999Z</time>
      </trkpt>
      <trkpt lat="47.52747" lon="6.7073">
        <ele>378.9</ele>
        <time>2017-10-22T09:38:30.999Z</time>
      </trkpt>
      <trkpt lat="47.52746" lon="6.70735">
        <ele>379.1</ele>
        <time>2017-10-22T09:38:31.999Z</time>
      </trkpt>
      <trkpt lat="47.52744" lon="6.70743">
        <ele>379.3</ele>
        <time>2017-10-22T09:38:32.999Z</time>
      </trkpt>
      <trkpt lat="47.52744" lon="6.70749">
        <ele>379.5</ele>
        <time>2017-10-22T09:38:33.999Z</time>
      </trkpt>
      <trkpt lat="47.52743" lon="6.70754">
        <ele>379.7</ele>
        <time>2017-10-22T09:38:34.999Z</time>
      </trkpt>
      <trkpt lat="47.52743" lon="6.70758">
        <ele>379.9</ele>
        <time>2017-10-22T09:38:35.999Z</time>
      </trkpt>
      <trkpt lat="47.52743" lon="6.70764">
        <ele>380.1</ele>
        <time>2017-10-22T09:38:36.999Z</time>
      </trkpt>
      <trkpt lat="47.52742" lon="6.7077">
        <ele>380.3</ele>
        <time>2017-10-22T09:38:37.999Z</time>
      </trkpt>
      <trkpt lat="47.52742" lon="6.70774">
        <ele>380.5</ele>
        <time>2017-10-22T09:38:38.999Z</time>
      </trkpt>
      <trkpt lat="47.52742" lon="6.7078">
        <ele>380.7</ele>
        <time>2017-10-22T09:38:39.999Z</time>
      </trkpt>
      <trkpt lat="47.52742" lon="6.70785">
        <ele>380.9</ele>
        <time>2017-10-22T09:38:40.999Z</time>
      </trkpt>
      <trkpt lat="47.52743" lon="6.70796">
        <ele>381.1</ele>
        <time>2017-10-22T09:38:41.999Z</time>
      </trkpt>
      <trkpt lat="47.52743" lon="6.70804">
        <ele>381.3</ele>
        <time>2017-10-22T09:38:42.999Z</time>
      </trkpt>
      <trkpt lat="47.52743" lon="6.7081">
        <ele>381.4</ele>
        <time>2017-10-22T09:38:43.999Z</time>
      </trkpt>
      <trkpt lat="47.52743" lon="6.70819">
        <ele>381.5</ele>
        <time>2017-10-22T09:38:44.999Z</time>
      </trkpt>
      <trkpt lat="47.52741" lon="6.70825">
        <ele>381.7</ele>
        <time>2017-10-22T09:38:45.999Z</time>
      </trkpt>
      <trkpt lat="47.52739" lon="6.70832">
        <ele>381.9</ele>
        <time>2017-10-22T09:38:46.999Z</time>
      </trkpt>
      <trkpt lat="47.52738" lon="6.70837">
        <ele>382.1</ele>
        <time>2017-10-22T09:38:47.999Z</time>
      </trkpt>
      <trkpt lat="47.52737" lon="6.70843">
        <ele>382.2</ele>
        <time>2017-10-22T09:38:48.999Z</time>
      </trkpt>
      <trkpt lat="47.52736" lon="6.70848">
        <ele>382.3</ele>
        <time>2017-10-22T09:38:49.999Z</time>
      </trkpt>
      <trkpt lat="47.52736" lon="6.70855">
        <ele>382.4</ele>
        <time>2017-10-22T09:38:50.999Z</time>
      </trkpt>
      <trkpt lat="47.52735" lon="6.70859">
        <ele>382.4</ele>
        <time>2017-10-22T09:38:51.999Z</time>
      </trkpt>
      <trkpt lat="47.52735" lon="6.70867">
        <ele>382.5</ele>
        <time>2017-10-22T09:38:52.999Z</time>
      </trkpt>
      <trkpt lat="47.52735" lon="6.70875">
        <ele>382.5</ele>
        <time>2017-10-22T09:38:53.999Z</time>
      </trkpt>
      <trkpt lat="47.52733" lon="6.70882">
        <ele>382.5</ele>
        <time>2017-10-22T09:38:54.999Z</time>
      </trkpt>
      <trkpt lat="47.52732" lon="6.70889">
        <ele>382.6</ele>
        <time>2017-10-22T09:38:55.999Z</time>
      </trkpt>
      <trkpt lat="47.52731" lon="6.70895">
        <ele>382.7</ele>
        <time>2017-10-22T09:38:56.999Z</time>
      </trkpt>
      <trkpt lat="47.52731" lon="6.70901">
        <ele>382.8</ele>
        <time>2017-10-22T09:38:57.999Z</time>
      </trkpt>
      <trkpt lat="47.52729" lon="6.70907">
        <ele>382.9</ele>
        <time>2017-10-22T09:38:58.999Z</time>
      </trkpt>
      <trkpt lat="47.52728" lon="6.70912">
        <ele>383</ele>
        <time>2017-10-22T09:38:59.999Z</time>
      </trkpt>
      <trkpt lat="47.52727" lon="6.70917">
        <ele>383.1</ele>
        <time>2017-10-22T09:39:00.999Z</time>
      </trkpt>
      <trkpt lat="47.52727" lon="6.70921">
        <ele>383.2</ele>
        <time>2017-10-22T09:39:01.999Z</time>
      </trkpt>
      <trkpt lat="47.52727" lon="6.70925">
        <ele>383.2</ele>
        <time>2017-10-22T09:39:02.999Z</time>
      </trkpt>
      <trkpt lat="47.52726" lon="6.70934">
        <ele>383.2</ele>
        <time>2017-10-22T09:39:03.999Z</time>
      </trkpt>
      <trkpt lat="47.52725" lon="6.70941">
        <ele>383.2</ele>
        <time>2017-10-22T09:39:04.999Z</time>
      </trkpt>
      <trkpt lat="47.52726" lon="6.70949">
        <ele>383.3</ele>
        <time>2017-10-22T09:39:05.999Z</time>
      </trkpt>
      <trkpt lat="47.52726" lon="6.70955">
        <ele>383.6</ele>
        <time>2017-10-22T09:39:07.999Z</time>
      </trkpt>
      <trkpt lat="47.52726" lon="6.70959">
        <ele>383.7</ele>
        <time>2017-10-22T09:39:08.999Z</time>
      </trkpt>
      <trkpt lat="47.52727" lon="6.70962">
        <ele>383.8</ele>
        <time>2017-10-22T09:39:09.999Z</time>
      </trkpt>
      <trkpt lat="47.52728" lon="6.70968">
        <ele>383.9</ele>
        <time>2017-10-22T09:39:10.999Z</time>
      </trkpt>
      <trkpt lat="47.5273" lon="6.70974">
        <ele>384.1</ele>
        <time>2017-10-22T09:39:11.999Z</time>
      </trkpt>
      <trkpt lat="47.52732" lon="6.70982">
        <ele>384.6</ele>
        <time>2017-10-22T09:39:12.999Z</time>
      </trkpt>
      <trkpt lat="47.52734" lon="6.70991">
        <ele>384.7</ele>
        <time>2017-10-22T09:39:13.999Z</time>
      </trkpt>
      <trkpt lat="47.52735" lon="6.70997">
        <ele>384.7</ele>
        <time>2017-10-22T09:39:14.999Z</time>
      </trkpt>
      <trkpt lat="47.52737" lon="6.71004">
        <ele>384.8</ele>
        <time>2017-10-22T09:39:15.999Z</time>
      </trkpt>
      <trkpt lat="47.5274" lon="6.71013">
        <ele>384.7</ele>
        <time>2017-10-22T09:39:16.999Z</time>
      </trkpt>
      <trkpt lat="47.52741" lon="6.71019">
        <ele>384.8</ele>
        <time>2017-10-22T09:39:17.999Z</time>
      </trkpt>
      <trkpt lat="47.52743" lon="6.71025">
        <ele>384.8</ele>
        <time>2017-10-22T09:39:18.999Z</time>
      </trkpt>
      <trkpt lat="47.52744" lon="6.7103">
        <ele>384.9</ele>
        <time>2017-10-22T09:39:19.999Z</time>
      </trkpt>
      <trkpt lat="47.52746" lon="6.71036">
        <ele>385</ele>
        <time>2017-10-22T09:39:20.999Z</time>
      </trkpt>
      <trkpt lat="47.52746" lon="6.71042">
        <ele>385.1</ele>
        <time>2017-10-22T09:39:21.999Z</time>
      </trkpt>
      <trkpt lat="47.52745" lon="6.71046">
        <ele>385.2</ele>
        <time>2017-10-22T09:39:22.999Z</time>
      </trkpt>
      <trkpt lat="47.52744" lon="6.7105">
        <ele>385.3</ele>
        <time>2017-10-22T09:39:23.999Z</time>
      </trkpt>
      <trkpt lat="47.52743" lon="6.71055">
        <ele>385.3</ele>
        <time>2017-10-22T09:39:24.999Z</time>
      </trkpt>
      <trkpt lat="47.52741" lon="6.71059">
        <ele>385.3</ele>
        <time>2017-10-22T09:39:25.999Z</time>
      </trkpt>
      <trkpt lat="47.5274" lon="6.71064">
        <ele>384.3</ele>
        <time>2017-10-22T09:39:26.999Z</time>
      </trkpt>
      <trkpt lat="47.52738" lon="6.71071">
        <ele>383.8</ele>
        <time>2017-10-22T09:39:27.999Z</time>
      </trkpt>
      <trkpt lat="47.52737" lon="6.71076">
        <ele>383.8</ele>
        <time>2017-10-22T09:39:28.999Z</time>
      </trkpt>
      <trkpt lat="47.52736" lon="6.7108">
        <ele>383.8</ele>
        <time>2017-10-22T09:39:29.999Z</time>
      </trkpt>
      <trkpt lat="47.52736" lon="6.71084">
        <ele>383.7</ele>
        <time>2017-10-22T09:39:30.999Z</time>
      </trkpt>
      <trkpt lat="47.52737" lon="6.71089">
        <ele>383.7</ele>
        <time>2017-10-22T09:39:31.999Z</time>
      </trkpt>
      <trkpt lat="47.52738" lon="6.71094">
        <ele>383.7</ele>
        <time>2017-10-22T09:39:32.999Z</time>
      </trkpt>
      <trkpt lat="47.52738" lon="6.71097">
        <ele>383.7</ele>
        <time>2017-10-22T09:39:33.999Z</time>
      </trkpt>
      <trkpt lat="47.52738" lon="6.71101">
        <ele>383.7</ele>
        <time>2017-10-22T09:39:34.999Z</time>
      </trkpt>
      <trkpt lat="47.52738" lon="6.71104">
        <ele>383.6</ele>
        <time>2017-10-22T09:39:35.999Z</time>
      </trkpt>
      <trkpt lat="47.52739" lon="6.71108">
        <ele>383.6</ele>
        <time>2017-10-22T09:39:36.999Z</time>
      </trkpt>
      <trkpt lat="47.5274" lon="6.71112">
        <ele>383.6</ele>
        <time>2017-10-22T09:39:37.999Z</time>
      </trkpt>
      <trkpt lat="47.52741" lon="6.71118">
        <ele>383.6</ele>
        <time>2017-10-22T09:39:39.999Z</time>
      </trkpt>
      <trkpt lat="47.52741" lon="6.71121">
        <ele>383.7</ele>
        <time>2017-10-22T09:39:40.999Z</time>
      </trkpt>
      <trkpt lat="47.52741" lon="6.71125">
        <ele>383.7</ele>
        <time>2017-10-22T09:39:41.999Z</time>
      </trkpt>
      <trkpt lat="47.52741" lon="6.71128">
        <ele>383.8</ele>
        <time>2017-10-22T09:39:42.999Z</time>
      </trkpt>
      <trkpt lat="47.52741" lon="6.71134">
        <ele>383.8</ele>
        <time>2017-10-22T09:39:44.999Z</time>
      </trkpt>
      <trkpt lat="47.5274" lon="6.71138">
        <ele>383.8</ele>
        <time>2017-10-22T09:39:45.999Z</time>
      </trkpt>
      <trkpt lat="47.5274" lon="6.71142">
        <ele>384</ele>
        <time>2017-10-22T09:39:47.999Z</time>
      </trkpt>
      <trkpt lat="47.52739" lon="6.71145">
        <ele>384.2</ele>
        <time>2017-10-22T09:39:48.999Z</time>
      </trkpt>
      <trkpt lat="47.52738" lon="6.71151">
        <ele>384.6</ele>
        <time>2017-10-22T09:39:50.999Z</time>
      </trkpt>
      <trkpt lat="47.52737" lon="6.71154">
        <ele>384.9</ele>
        <time>2017-10-22T09:39:51.999Z</time>
      </trkpt>
      <trkpt lat="47.52736" lon="6.71159">
        <ele>385.5</ele>
        <time>2017-10-22T09:39:53.999Z</time>
      </trkpt>
      <trkpt lat="47.52735" lon="6.71164">
        <ele>385.8</ele>
        <time>2017-10-22T09:39:54.999Z</time>
      </trkpt>
      <trkpt lat="47.52733" lon="6.71167">
        <ele>386.2</ele>
        <time>2017-10-22T09:39:55.999Z</time>
      </trkpt>
      <trkpt lat="47.52731" lon="6.7117">
        <ele>386.5</ele>
        <time>2017-10-22T09:39:56.999Z</time>
      </trkpt>
      <trkpt lat="47.5273" lon="6.71172">
        <ele>386.8</ele>
        <time>2017-10-22T09:39:57.999Z</time>
      </trkpt>
      <trkpt lat="47.52728" lon="6.71175">
        <ele>387.2</ele>
        <time>2017-10-22T09:39:58.999Z</time>
      </trkpt>
      <trkpt lat="47.52726" lon="6.7118">
        <ele>387.9</ele>
        <time>2017-10-22T09:40:00.999Z</time>
      </trkpt>
      <trkpt lat="47.52725" lon="6.71182">
        <ele>388.2</ele>
        <time>2017-10-22T09:40:01.999Z</time>
      </trkpt>
      <trkpt lat="47.52723" lon="6.71186">
        <ele>388.6</ele>
        <time>2017-10-22T09:40:03.999Z</time>
      </trkpt>
      <trkpt lat="47.52721" lon="6.71188">
        <ele>388.8</ele>
        <time>2017-10-22T09:40:04.999Z</time>
      </trkpt>
      <trkpt lat="47.52718" lon="6.7119">
        <ele>389.3</ele>
        <time>2017-10-22T09:40:07.999Z</time>
      </trkpt>
      <trkpt lat="47.52717" lon="6.71191">
        <ele>389.4</ele>
        <time>2017-10-22T09:40:08.999Z</time>
      </trkpt>
      <trkpt lat="47.52715" lon="6.71194">
        <ele>389.7</ele>
        <time>2017-10-22T09:40:10.999Z</time>
      </trkpt>
      <trkpt lat="47.52713" lon="6.71195">
        <ele>389.9</ele>
        <time>2017-10-22T09:40:11.999Z</time>
      </trkpt>
      <trkpt lat="47.52711" lon="6.71198">
        <ele>390.3</ele>
        <time>2017-10-22T09:40:14.999Z</time>
      </trkpt>
      <trkpt lat="47.52709" lon="6.71198">
        <ele>390.5</ele>
        <time>2017-10-22T09:40:15.999Z</time>
      </trkpt>
      <trkpt lat="47.52706" lon="6.712">
        <ele>390.7</ele>
        <time>2017-10-22T09:40:17.999Z</time>
      </trkpt>
      <trkpt lat="47.52706" lon="6.71203">
        <ele>390.7</ele>
        <time>2017-10-22T09:40:18.999Z</time>
      </trkpt>
      <trkpt lat="47.52708" lon="6.71206">
        <ele>390.7</ele>
        <time>2017-10-22T09:40:19.999Z</time>
      </trkpt>
      <trkpt lat="47.52709" lon="6.7121">
        <ele>390.7</ele>
        <time>2017-10-22T09:40:20.999Z</time>
      </trkpt>
      <trkpt lat="47.52709" lon="6.71213">
        <ele>390.7</ele>
        <time>2017-10-22T09:40:21.999Z</time>
      </trkpt>
      <trkpt lat="47.52709" lon="6.71221">
        <ele>390.5</ele>
        <time>2017-10-22T09:40:22.999Z</time>
      </trkpt>
      <trkpt lat="47.5271" lon="6.71228">
        <ele>390.5</ele>
        <time>2017-10-22T09:40:23.999Z</time>
      </trkpt>
      <trkpt lat="47.52711" lon="6.71234">
        <ele>390.4</ele>
        <time>2017-10-22T09:40:24.999Z</time>
      </trkpt>
      <trkpt lat="47.52712" lon="6.7124">
        <ele>390.3</ele>
        <time>2017-10-22T09:40:25.999Z</time>
      </trkpt>
      <trkpt lat="47.52712" lon="6.71247">
        <ele>390.1</ele>
        <time>2017-10-22T09:40:26.999Z</time>
      </trkpt>
      <trkpt lat="47.52713" lon="6.71253">
        <ele>390</ele>
        <time>2017-10-22T09:40:27.999Z</time>
      </trkpt>
      <trkpt lat="47.52714" lon="6.71259">
        <ele>389.9</ele>
        <time>2017-10-22T09:40:28.999Z</time>
      </trkpt>
      <trkpt lat="47.52714" lon="6.71266">
        <ele>389.7</ele>
        <time>2017-10-22T09:40:29.999Z</time>
      </trkpt>
      <trkpt lat="47.52713" lon="6.71271">
        <ele>389.6</ele>
        <time>2017-10-22T09:40:30.999Z</time>
      </trkpt>
      <trkpt lat="47.52712" lon="6.71275">
        <ele>389.5</ele>
        <time>2017-10-22T09:40:31.999Z</time>
      </trkpt>
      <trkpt lat="47.52709" lon="6.71278">
        <ele>389.6</ele>
        <time>2017-10-22T09:40:32.999Z</time>
      </trkpt>
      <trkpt lat="47.52707" lon="6.7128">
        <ele>389.7</ele>
        <time>2017-10-22T09:40:33.999Z</time>
      </trkpt>
      <trkpt lat="47.52704" lon="6.71282">
        <ele>389.8</ele>
        <time>2017-10-22T09:40:34.999Z</time>
      </trkpt>
      <trkpt lat="47.52701" lon="6.71282">
        <ele>389.9</ele>
        <time>2017-10-22T09:40:36.999Z</time>
      </trkpt>
      <trkpt lat="47.52699" lon="6.71282">
        <ele>390</ele>
        <time>2017-10-22T09:40:37.999Z</time>
      </trkpt>
      <trkpt lat="47.52696" lon="6.71282">
        <ele>390</ele>
        <time>2017-10-22T09:40:38.999Z</time>
      </trkpt>
      <trkpt lat="47.52693" lon="6.71282">
        <ele>390.1</ele>
        <time>2017-10-22T09:40:39.999Z</time>
      </trkpt>
      <trkpt lat="47.5269" lon="6.71282">
        <ele>390.2</ele>
        <time>2017-10-22T09:40:40.999Z</time>
      </trkpt>
      <trkpt lat="47.52687" lon="6.71281">
        <ele>390.4</ele>
        <time>2017-10-22T09:40:41.999Z</time>
      </trkpt>
      <trkpt lat="47.52685" lon="6.71281">
        <ele>390.5</ele>
        <time>2017-10-22T09:40:42.999Z</time>
      </trkpt>
      <trkpt lat="47.52683" lon="6.7128">
        <ele>390.5</ele>
        <time>2017-10-22T09:40:43.999Z</time>
      </trkpt>
      <trkpt lat="47.52674" lon="6.71278">
        <ele>390.6</ele>
        <time>2017-10-22T09:40:45.999Z</time>
      </trkpt>
      <trkpt lat="47.52672" lon="6.71278">
        <ele>390.7</ele>
        <time>2017-10-22T09:40:46.999Z</time>
      </trkpt>
      <trkpt lat="47.52669" lon="6.71278">
        <ele>390.8</ele>
        <time>2017-10-22T09:40:47.999Z</time>
      </trkpt>
      <trkpt lat="47.52666" lon="6.71278">
        <ele>390.9</ele>
        <time>2017-10-22T09:40:48.999Z</time>
      </trkpt>
      <trkpt lat="47.52664" lon="6.71277">
        <ele>391</ele>
        <time>2017-10-22T09:40:49.999Z</time>
      </trkpt>
      <trkpt lat="47.5266" lon="6.71276">
        <ele>391.1</ele>
        <time>2017-10-22T09:40:50.999Z</time>
      </trkpt>
      <trkpt lat="47.52656" lon="6.71275">
        <ele>391.3</ele>
        <time>2017-10-22T09:40:51.999Z</time>
      </trkpt>
      <trkpt lat="47.52653" lon="6.71274">
        <ele>391.5</ele>
        <time>2017-10-22T09:40:52.999Z</time>
      </trkpt>
      <trkpt lat="47.5265" lon="6.71273">
        <ele>391.8</ele>
        <time>2017-10-22T09:40:53.999Z</time>
      </trkpt>
      <trkpt lat="47.52645" lon="6.71273">
        <ele>392.2</ele>
        <time>2017-10-22T09:40:56.999Z</time>
      </trkpt>
      <trkpt lat="47.52638" lon="6.71271">
        <ele>392.3</ele>
        <time>2017-10-22T09:40:57.999Z</time>
      </trkpt>
      <trkpt lat="47.52633" lon="6.71269">
        <ele>392.4</ele>
        <time>2017-10-22T09:40:58.999Z</time>
      </trkpt>
      <trkpt lat="47.5263" lon="6.71268">
        <ele>392.5</ele>
        <time>2017-10-22T09:40:59.999Z</time>
      </trkpt>
      <trkpt lat="47.52627" lon="6.71266">
        <ele>392.6</ele>
        <time>2017-10-22T09:41:00.999Z</time>
      </trkpt>
      <trkpt lat="47.52623" lon="6.71265">
        <ele>392.8</ele>
        <time>2017-10-22T09:41:02.999Z</time>
      </trkpt>
      <trkpt lat="47.52621" lon="6.71264">
        <ele>393</ele>
        <time>2017-10-22T09:41:03.999Z</time>
      </trkpt>
      <trkpt lat="47.52618" lon="6.71264">
        <ele>393.1</ele>
        <time>2017-10-22T09:41:04.999Z</time>
      </trkpt>
      <trkpt lat="47.52615" lon="6.71264">
        <ele>393.3</ele>
        <time>2017-10-22T09:41:05.999Z</time>
      </trkpt>
      <trkpt lat="47.52613" lon="6.71264">
        <ele>393.4</ele>
        <time>2017-10-22T09:41:06.999Z</time>
      </trkpt>
      <trkpt lat="47.5261" lon="6.71263">
        <ele>393.6</ele>
        <time>2017-10-22T09:41:07.999Z</time>
      </trkpt>
      <trkpt lat="47.52606" lon="6.71262">
        <ele>394</ele>
        <time>2017-10-22T09:41:09.999Z</time>
      </trkpt>
      <trkpt lat="47.52604" lon="6.71261">
        <ele>394.2</ele>
        <time>2017-10-22T09:41:10.999Z</time>
      </trkpt>
      <trkpt lat="47.52602" lon="6.7126">
        <ele>394.4</ele>
        <time>2017-10-22T09:41:11.999Z</time>
      </trkpt>
      <trkpt lat="47.52599" lon="6.71259">
        <ele>394.6</ele>
        <time>2017-10-22T09:41:12.999Z</time>
      </trkpt>
      <trkpt lat="47.52597" lon="6.71257">
        <ele>394.7</ele>
        <time>2017-10-22T09:41:13.999Z</time>
      </trkpt>
      <trkpt lat="47.52595" lon="6.71255">
        <ele>394.7</ele>
        <time>2017-10-22T09:41:14.999Z</time>
      </trkpt>
      <trkpt lat="47.52591" lon="6.71254">
        <ele>394.7</ele>
        <time>2017-10-22T09:41:15.999Z</time>
      </trkpt>
      <trkpt lat="47.52586" lon="6.71251">
        <ele>394.7</ele>
        <time>2017-10-22T09:41:16.999Z</time>
      </trkpt>
      <trkpt lat="47.52582" lon="6.71249">
        <ele>394.6</ele>
        <time>2017-10-22T09:41:17.999Z</time>
      </trkpt>
      <trkpt lat="47.52578" lon="6.71248">
        <ele>394.6</ele>
        <time>2017-10-22T09:41:18.999Z</time>
      </trkpt>
      <trkpt lat="47.52575" lon="6.71247">
        <ele>394.5</ele>
        <time>2017-10-22T09:41:19.999Z</time>
      </trkpt>
      <trkpt lat="47.52571" lon="6.71247">
        <ele>394.4</ele>
        <time>2017-10-22T09:41:20.999Z</time>
      </trkpt>
      <trkpt lat="47.52566" lon="6.71246">
        <ele>394.4</ele>
        <time>2017-10-22T09:41:21.999Z</time>
      </trkpt>
      <trkpt lat="47.52561" lon="6.71246">
        <ele>394.2</ele>
        <time>2017-10-22T09:41:22.999Z</time>
      </trkpt>
      <trkpt lat="47.52556" lon="6.71244">
        <ele>394.1</ele>
        <time>2017-10-22T09:41:23.999Z</time>
      </trkpt>
      <trkpt lat="47.52551" lon="6.71242">
        <ele>394</ele>
        <time>2017-10-22T09:41:24.999Z</time>
      </trkpt>
      <trkpt lat="47.52547" lon="6.71241">
        <ele>393.8</ele>
        <time>2017-10-22T09:41:25.999Z</time>
      </trkpt>
      <trkpt lat="47.52543" lon="6.71238">
        <ele>393.1</ele>
        <time>2017-10-22T09:41:26.999Z</time>
      </trkpt>
      <trkpt lat="47.52538" lon="6.71235">
        <ele>392.9</ele>
        <time>2017-10-22T09:41:27.999Z</time>
      </trkpt>
      <trkpt lat="47.52534" lon="6.71232">
        <ele>391.8</ele>
        <time>2017-10-22T09:41:28.999Z</time>
      </trkpt>
      <trkpt lat="47.52529" lon="6.71229">
        <ele>390.7</ele>
        <time>2017-10-22T09:41:29.999Z</time>
      </trkpt>
      <trkpt lat="47.52525" lon="6.71226">
        <ele>390.8</ele>
        <time>2017-10-22T09:41:30.999Z</time>
      </trkpt>
      <trkpt lat="47.52521" lon="6.71222">
        <ele>391.2</ele>
        <time>2017-10-22T09:41:31.999Z</time>
      </trkpt>
      <trkpt lat="47.52517" lon="6.71218">
        <ele>391.4</ele>
        <time>2017-10-22T09:41:32.999Z</time>
      </trkpt>
      <trkpt lat="47.52513" lon="6.71214">
        <ele>392.3</ele>
        <time>2017-10-22T09:41:33.999Z</time>
      </trkpt>
      <trkpt lat="47.52509" lon="6.71209">
        <ele>392.5</ele>
        <time>2017-10-22T09:41:34.999Z</time>
      </trkpt>
      <trkpt lat="47.52506" lon="6.71204">
        <ele>393.3</ele>
        <time>2017-10-22T09:41:35.999Z</time>
      </trkpt>
      <trkpt lat="47.52502" lon="6.71199">
        <ele>394.5</ele>
        <time>2017-10-22T09:41:36.999Z</time>
      </trkpt>
      <trkpt lat="47.52499" lon="6.71194">
        <ele>396.1</ele>
        <time>2017-10-22T09:41:37.999Z</time>
      </trkpt>
      <trkpt lat="47.52496" lon="6.71188">
        <ele>396.3</ele>
        <time>2017-10-22T09:41:38.999Z</time>
      </trkpt>
      <trkpt lat="47.52493" lon="6.71184">
        <ele>397.2</ele>
        <time>2017-10-22T09:41:39.999Z</time>
      </trkpt>
      <trkpt lat="47.52489" lon="6.71181">
        <ele>397.3</ele>
        <time>2017-10-22T09:41:40.999Z</time>
      </trkpt>
      <trkpt lat="47.52487" lon="6.71179">
        <ele>397.4</ele>
        <time>2017-10-22T09:41:41.999Z</time>
      </trkpt>
      <trkpt lat="47.52484" lon="6.71177">
        <ele>397.6</ele>
        <time>2017-10-22T09:41:42.999Z</time>
      </trkpt>
      <trkpt lat="47.52481" lon="6.71175">
        <ele>397.8</ele>
        <time>2017-10-22T09:41:43.999Z</time>
      </trkpt>
      <trkpt lat="47.52474" lon="6.71173">
        <ele>398.1</ele>
        <time>2017-10-22T09:41:45.999Z</time>
      </trkpt>
      <trkpt lat="47.52471" lon="6.71171">
        <ele>398.3</ele>
        <time>2017-10-22T09:41:46.999Z</time>
      </trkpt>
      <trkpt lat="47.52468" lon="6.71171">
        <ele>398.4</ele>
        <time>2017-10-22T09:41:47.999Z</time>
      </trkpt>
      <trkpt lat="47.52465" lon="6.7117">
        <ele>398.5</ele>
        <time>2017-10-22T09:41:48.999Z</time>
      </trkpt>
      <trkpt lat="47.52461" lon="6.7117">
        <ele>398.5</ele>
        <time>2017-10-22T09:41:49.999Z</time>
      </trkpt>
      <trkpt lat="47.52457" lon="6.7117">
        <ele>398.6</ele>
        <time>2017-10-22T09:41:50.999Z</time>
      </trkpt>
      <trkpt lat="47.52454" lon="6.7117">
        <ele>398.6</ele>
        <time>2017-10-22T09:41:51.999Z</time>
      </trkpt>
      <trkpt lat="47.5245" lon="6.71171">
        <ele>398.7</ele>
        <time>2017-10-22T09:41:52.999Z</time>
      </trkpt>
      <trkpt lat="47.52446" lon="6.71171">
        <ele>398.7</ele>
        <time>2017-10-22T09:41:53.999Z</time>
      </trkpt>
      <trkpt lat="47.52442" lon="6.71172">
        <ele>399.6</ele>
        <time>2017-10-22T09:41:54.999Z</time>
      </trkpt>
      <trkpt lat="47.52437" lon="6.71172">
        <ele>399.6</ele>
        <time>2017-10-22T09:41:55.999Z</time>
      </trkpt>
      <trkpt lat="47.52433" lon="6.71174">
        <ele>399.6</ele>
        <time>2017-10-22T09:41:56.999Z</time>
      </trkpt>
      <trkpt lat="47.52429" lon="6.71174">
        <ele>399.6</ele>
        <time>2017-10-22T09:41:57.999Z</time>
      </trkpt>
      <trkpt lat="47.52424" lon="6.71174">
        <ele>399.5</ele>
        <time>2017-10-22T09:41:59.999Z</time>
      </trkpt>
      <trkpt lat="47.52421" lon="6.71174">
        <ele>399.4</ele>
        <time>2017-10-22T09:42:00.999Z</time>
      </trkpt>
      <trkpt lat="47.52418" lon="6.71174">
        <ele>399.4</ele>
        <time>2017-10-22T09:42:01.999Z</time>
      </trkpt>
      <trkpt lat="47.52415" lon="6.71174">
        <ele>399.4</ele>
        <time>2017-10-22T09:42:02.999Z</time>
      </trkpt>
      <trkpt lat="47.52411" lon="6.71176">
        <ele>399.4</ele>
        <time>2017-10-22T09:42:03.999Z</time>
      </trkpt>
      <trkpt lat="47.52408" lon="6.71177">
        <ele>399.4</ele>
        <time>2017-10-22T09:42:04.999Z</time>
      </trkpt>
      <trkpt lat="47.52405" lon="6.71178">
        <ele>399.4</ele>
        <time>2017-10-22T09:42:05.999Z</time>
      </trkpt>
      <trkpt lat="47.52401" lon="6.7118">
        <ele>399.4</ele>
        <time>2017-10-22T09:42:06.999Z</time>
      </trkpt>
      <trkpt lat="47.52397" lon="6.7118">
        <ele>399.4</ele>
        <time>2017-10-22T09:42:07.999Z</time>
      </trkpt>
      <trkpt lat="47.52393" lon="6.71181">
        <ele>399.5</ele>
        <time>2017-10-22T09:42:08.999Z</time>
      </trkpt>
      <trkpt lat="47.5239" lon="6.71182">
        <ele>399.5</ele>
        <time>2017-10-22T09:42:09.999Z</time>
      </trkpt>
      <trkpt lat="47.52387" lon="6.71182">
        <ele>399.5</ele>
        <time>2017-10-22T09:42:10.999Z</time>
      </trkpt>
      <trkpt lat="47.52384" lon="6.71182">
        <ele>399.6</ele>
        <time>2017-10-22T09:42:11.999Z</time>
      </trkpt>
      <trkpt lat="47.52381" lon="6.71182">
        <ele>399.7</ele>
        <time>2017-10-22T09:42:12.999Z</time>
      </trkpt>
      <trkpt lat="47.52378" lon="6.71182">
        <ele>399.9</ele>
        <time>2017-10-22T09:42:13.999Z</time>
      </trkpt>
      <trkpt lat="47.52375" lon="6.71182">
        <ele>400.1</ele>
        <time>2017-10-22T09:42:14.999Z</time>
      </trkpt>
      <trkpt lat="47.52373" lon="6.71182">
        <ele>400.2</ele>
        <time>2017-10-22T09:42:15.999Z</time>
      </trkpt>
      <trkpt lat="47.5237" lon="6.7118">
        <ele>400.4</ele>
        <time>2017-10-22T09:42:16.999Z</time>
      </trkpt>
      <trkpt lat="47.52367" lon="6.71178">
        <ele>400.4</ele>
        <time>2017-10-22T09:42:17.999Z</time>
      </trkpt>
      <trkpt lat="47.52365" lon="6.71176">
        <ele>400.4</ele>
        <time>2017-10-22T09:42:18.999Z</time>
      </trkpt>
      <trkpt lat="47.52363" lon="6.71173">
        <ele>400.5</ele>
        <time>2017-10-22T09:42:19.999Z</time>
      </trkpt>
      <trkpt lat="47.5236" lon="6.7117">
        <ele>400.5</ele>
        <time>2017-10-22T09:42:20.999Z</time>
      </trkpt>
      <trkpt lat="47.52357" lon="6.71168">
        <ele>400.5</ele>
        <time>2017-10-22T09:42:21.999Z</time>
      </trkpt>
      <trkpt lat="47.52354" lon="6.71165">
        <ele>400.4</ele>
        <time>2017-10-22T09:42:22.999Z</time>
      </trkpt>
      <trkpt lat="47.52351" lon="6.71163">
        <ele>400.4</ele>
        <time>2017-10-22T09:42:23.999Z</time>
      </trkpt>
      <trkpt lat="47.52348" lon="6.71159">
        <ele>400.5</ele>
        <time>2017-10-22T09:42:24.999Z</time>
      </trkpt>
      <trkpt lat="47.52346" lon="6.71156">
        <ele>400.5</ele>
        <time>2017-10-22T09:42:25.999Z</time>
      </trkpt>
      <trkpt lat="47.52343" lon="6.71155">
        <ele>400.5</ele>
        <time>2017-10-22T09:42:26.999Z</time>
      </trkpt>
      <trkpt lat="47.52341" lon="6.71154">
        <ele>400.6</ele>
        <time>2017-10-22T09:42:27.999Z</time>
      </trkpt>
      <trkpt lat="47.52338" lon="6.71153">
        <ele>400.7</ele>
        <time>2017-10-22T09:42:28.999Z</time>
      </trkpt>
      <trkpt lat="47.52335" lon="6.71153">
        <ele>400.9</ele>
        <time>2017-10-22T09:42:29.999Z</time>
      </trkpt>
      <trkpt lat="47.52332" lon="6.71155">
        <ele>401.1</ele>
        <time>2017-10-22T09:42:30.999Z</time>
      </trkpt>
      <trkpt lat="47.52328" lon="6.71158">
        <ele>401.2</ele>
        <time>2017-10-22T09:42:31.999Z</time>
      </trkpt>
      <trkpt lat="47.52325" lon="6.71162">
        <ele>401.3</ele>
        <time>2017-10-22T09:42:32.999Z</time>
      </trkpt>
      <trkpt lat="47.52321" lon="6.71166">
        <ele>401.5</ele>
        <time>2017-10-22T09:42:33.999Z</time>
      </trkpt>
      <trkpt lat="47.52318" lon="6.7117">
        <ele>401.5</ele>
        <time>2017-10-22T09:42:34.999Z</time>
      </trkpt>
      <trkpt lat="47.52314" lon="6.71174">
        <ele>401.5</ele>
        <time>2017-10-22T09:42:35.999Z</time>
      </trkpt>
      <trkpt lat="47.5231" lon="6.71179">
        <ele>401.6</ele>
        <time>2017-10-22T09:42:36.999Z</time>
      </trkpt>
      <trkpt lat="47.52306" lon="6.71183">
        <ele>402.9</ele>
        <time>2017-10-22T09:42:37.999Z</time>
      </trkpt>
      <trkpt lat="47.52302" lon="6.71187">
        <ele>403.7</ele>
        <time>2017-10-22T09:42:38.999Z</time>
      </trkpt>
      <trkpt lat="47.52299" lon="6.71191">
        <ele>403.9</ele>
        <time>2017-10-22T09:42:39.999Z</time>
      </trkpt>
      <trkpt lat="47.52297" lon="6.71195">
        <ele>404</ele>
        <time>2017-10-22T09:42:40.999Z</time>
      </trkpt>
      <trkpt lat="47.52294" lon="6.71199">
        <ele>404.1</ele>
        <time>2017-10-22T09:42:41.999Z</time>
      </trkpt>
      <trkpt lat="47.52291" lon="6.71203">
        <ele>404.2</ele>
        <time>2017-10-22T09:42:42.999Z</time>
      </trkpt>
      <trkpt lat="47.52288" lon="6.71206">
        <ele>404.4</ele>
        <time>2017-10-22T09:42:43.999Z</time>
      </trkpt>
      <trkpt lat="47.52284" lon="6.7121">
        <ele>405.9</ele>
        <time>2017-10-22T09:42:44.999Z</time>
      </trkpt>
      <trkpt lat="47.52281" lon="6.71213">
        <ele>406.9</ele>
        <time>2017-10-22T09:42:45.999Z</time>
      </trkpt>
      <trkpt lat="47.52278" lon="6.71215">
        <ele>407.1</ele>
        <time>2017-10-22T09:42:46.999Z</time>
      </trkpt>
      <trkpt lat="47.52276" lon="6.71216">
        <ele>407.2</ele>
        <time>2017-10-22T09:42:47.999Z</time>
      </trkpt>
      <trkpt lat="47.52273" lon="6.71218">
        <ele>407.3</ele>
        <time>2017-10-22T09:42:48.999Z</time>
      </trkpt>
      <trkpt lat="47.52269" lon="6.71221">
        <ele>407.3</ele>
        <time>2017-10-22T09:42:49.999Z</time>
      </trkpt>
      <trkpt lat="47.52266" lon="6.71222">
        <ele>407.3</ele>
        <time>2017-10-22T09:42:50.999Z</time>
      </trkpt>
      <trkpt lat="47.52263" lon="6.71219">
        <ele>407.3</ele>
        <time>2017-10-22T09:42:51.999Z</time>
      </trkpt>
      <trkpt lat="47.52261" lon="6.71215">
        <ele>407.4</ele>
        <time>2017-10-22T09:42:52.999Z</time>
      </trkpt>
      <trkpt lat="47.52258" lon="6.71211">
        <ele>407.5</ele>
        <time>2017-10-22T09:42:53.999Z</time>
      </trkpt>
      <trkpt lat="47.52257" lon="6.71207">
        <ele>407.5</ele>
        <time>2017-10-22T09:42:54.999Z</time>
      </trkpt>
      <trkpt lat="47.52254" lon="6.71203">
        <ele>407.5</ele>
        <time>2017-10-22T09:42:55.999Z</time>
      </trkpt>
      <trkpt lat="47.52251" lon="6.71197">
        <ele>407.1</ele>
        <time>2017-10-22T09:42:56.999Z</time>
      </trkpt>
      <trkpt lat="47.52249" lon="6.71194">
        <ele>407</ele>
        <time>2017-10-22T09:42:57.999Z</time>
      </trkpt>
      <trkpt lat="47.52246" lon="6.7119">
        <ele>406.5</ele>
        <time>2017-10-22T09:42:58.999Z</time>
      </trkpt>
      <trkpt lat="47.52243" lon="6.71185">
        <ele>406.4</ele>
        <time>2017-10-22T09:42:59.999Z</time>
      </trkpt>
      <trkpt lat="47.5224" lon="6.71181">
        <ele>406</ele>
        <time>2017-10-22T09:43:00.999Z</time>
      </trkpt>
      <trkpt lat="47.52237" lon="6.71175">
        <ele>405.7</ele>
        <time>2017-10-22T09:43:01.999Z</time>
      </trkpt>
      <trkpt lat="47.52234" lon="6.71169">
        <ele>405.4</ele>
        <time>2017-10-22T09:43:02.999Z</time>
      </trkpt>
      <trkpt lat="47.52229" lon="6.71162">
        <ele>406.2</ele>
        <time>2017-10-22T09:43:03.999Z</time>
      </trkpt>
      <trkpt lat="47.52226" lon="6.71156">
        <ele>406.5</ele>
        <time>2017-10-22T09:43:04.999Z</time>
      </trkpt>
      <trkpt lat="47.52222" lon="6.71151">
        <ele>406.6</ele>
        <time>2017-10-22T09:43:05.999Z</time>
      </trkpt>
      <trkpt lat="47.52219" lon="6.71145">
        <ele>406.6</ele>
        <time>2017-10-22T09:43:06.999Z</time>
      </trkpt>
      <trkpt lat="47.52215" lon="6.71139">
        <ele>406.2</ele>
        <time>2017-10-22T09:43:07.999Z</time>
      </trkpt>
      <trkpt lat="47.5221" lon="6.71134">
        <ele>405.6</ele>
        <time>2017-10-22T09:43:08.999Z</time>
      </trkpt>
      <trkpt lat="47.52207" lon="6.71129">
        <ele>405</ele>
        <time>2017-10-22T09:43:09.999Z</time>
      </trkpt>
      <trkpt lat="47.52203" lon="6.71123">
        <ele>404.6</ele>
        <time>2017-10-22T09:43:10.999Z</time>
      </trkpt>
      <trkpt lat="47.52199" lon="6.71119">
        <ele>404.1</ele>
        <time>2017-10-22T09:43:11.999Z</time>
      </trkpt>
      <trkpt lat="47.52194" lon="6.71114">
        <ele>403.6</ele>
        <time>2017-10-22T09:43:12.999Z</time>
      </trkpt>
      <trkpt lat="47.5219" lon="6.71109">
        <ele>403.7</ele>
        <time>2017-10-22T09:43:13.999Z</time>
      </trkpt>
      <trkpt lat="47.52186" lon="6.71104">
        <ele>404.3</ele>
        <time>2017-10-22T09:43:14.999Z</time>
      </trkpt>
      <trkpt lat="47.52182" lon="6.71099">
        <ele>404.9</ele>
        <time>2017-10-22T09:43:15.999Z</time>
      </trkpt>
      <trkpt lat="47.52177" lon="6.71095">
        <ele>405</ele>
        <time>2017-10-22T09:43:16.999Z</time>
      </trkpt>
      <trkpt lat="47.52174" lon="6.71092">
        <ele>405.1</ele>
        <time>2017-10-22T09:43:17.999Z</time>
      </trkpt>
      <trkpt lat="47.5217" lon="6.71088">
        <ele>404.9</ele>
        <time>2017-10-22T09:43:18.999Z</time>
      </trkpt>
      <trkpt lat="47.52164" lon="6.71084">
        <ele>404.3</ele>
        <time>2017-10-22T09:43:19.999Z</time>
      </trkpt>
      <trkpt lat="47.5216" lon="6.7108">
        <ele>404.5</ele>
        <time>2017-10-22T09:43:20.999Z</time>
      </trkpt>
      <trkpt lat="47.52155" lon="6.71077">
        <ele>405</ele>
        <time>2017-10-22T09:43:21.999Z</time>
      </trkpt>
      <trkpt lat="47.52152" lon="6.71073">
        <ele>405</ele>
        <time>2017-10-22T09:43:22.999Z</time>
      </trkpt>
      <trkpt lat="47.52149" lon="6.71069">
        <ele>405.1</ele>
        <time>2017-10-22T09:43:23.999Z</time>
      </trkpt>
      <trkpt lat="47.52145" lon="6.71066">
        <ele>405.1</ele>
        <time>2017-10-22T09:43:24.999Z</time>
      </trkpt>
      <trkpt lat="47.52142" lon="6.71064">
        <ele>405</ele>
        <time>2017-10-22T09:43:25.999Z</time>
      </trkpt>
      <trkpt lat="47.52137" lon="6.71061">
        <ele>403.7</ele>
        <time>2017-10-22T09:43:26.999Z</time>
      </trkpt>
      <trkpt lat="47.52133" lon="6.71058">
        <ele>403.4</ele>
        <time>2017-10-22T09:43:27.999Z</time>
      </trkpt>
      <trkpt lat="47.52129" lon="6.71055">
        <ele>403.6</ele>
        <time>2017-10-22T09:43:28.999Z</time>
      </trkpt>
      <trkpt lat="47.52126" lon="6.71053">
        <ele>404.2</ele>
        <time>2017-10-22T09:43:29.999Z</time>
      </trkpt>
      <trkpt lat="47.52121" lon="6.71049">
        <ele>404.3</ele>
        <time>2017-10-22T09:43:30.999Z</time>
      </trkpt>
      <trkpt lat="47.52117" lon="6.71047">
        <ele>405.1</ele>
        <time>2017-10-22T09:43:31.999Z</time>
      </trkpt>
      <trkpt lat="47.52113" lon="6.71042">
        <ele>405.5</ele>
        <time>2017-10-22T09:43:32.999Z</time>
      </trkpt>
      <trkpt lat="47.52109" lon="6.71039">
        <ele>406.3</ele>
        <time>2017-10-22T09:43:33.999Z</time>
      </trkpt>
      <trkpt lat="47.52106" lon="6.71036">
        <ele>406.5</ele>
        <time>2017-10-22T09:43:34.999Z</time>
      </trkpt>
      <trkpt lat="47.52103" lon="6.71032">
        <ele>407.1</ele>
        <time>2017-10-22T09:43:35.999Z</time>
      </trkpt>
      <trkpt lat="47.52099" lon="6.71028">
        <ele>407.8</ele>
        <time>2017-10-22T09:43:36.999Z</time>
      </trkpt>
      <trkpt lat="47.52095" lon="6.71025">
        <ele>408.2</ele>
        <time>2017-10-22T09:43:37.999Z</time>
      </trkpt>
      <trkpt lat="47.52092" lon="6.71022">
        <ele>408.8</ele>
        <time>2017-10-22T09:43:38.999Z</time>
      </trkpt>
      <trkpt lat="47.52088" lon="6.71018">
        <ele>408.8</ele>
        <time>2017-10-22T09:43:39.999Z</time>
      </trkpt>
      <trkpt lat="47.52083" lon="6.71016">
        <ele>408.8</ele>
        <time>2017-10-22T09:43:40.999Z</time>
      </trkpt>
      <trkpt lat="47.52078" lon="6.71016">
        <ele>408.9</ele>
        <time>2017-10-22T09:43:41.999Z</time>
      </trkpt>
      <trkpt lat="47.52073" lon="6.71016">
        <ele>408</ele>
        <time>2017-10-22T09:43:42.999Z</time>
      </trkpt>
      <trkpt lat="47.52071" lon="6.71015">
        <ele>407.9</ele>
        <time>2017-10-22T09:43:43.999Z</time>
      </trkpt>
      <trkpt lat="47.52066" lon="6.71011">
        <ele>407.8</ele>
        <time>2017-10-22T09:43:45.999Z</time>
      </trkpt>
      <trkpt lat="47.52063" lon="6.7101">
        <ele>407.7</ele>
        <time>2017-10-22T09:43:46.999Z</time>
      </trkpt>
      <trkpt lat="47.52059" lon="6.71009">
        <ele>407.6</ele>
        <time>2017-10-22T09:43:47.999Z</time>
      </trkpt>
      <trkpt lat="47.52056" lon="6.71008">
        <ele>407.6</ele>
        <time>2017-10-22T09:43:48.999Z</time>
      </trkpt>
      <trkpt lat="47.52053" lon="6.71008">
        <ele>407.5</ele>
        <time>2017-10-22T09:43:49.999Z</time>
      </trkpt>
      <trkpt lat="47.52051" lon="6.71006">
        <ele>407.5</ele>
        <time>2017-10-22T09:43:50.999Z</time>
      </trkpt>
      <trkpt lat="47.52048" lon="6.71005">
        <ele>407.4</ele>
        <time>2017-10-22T09:43:51.999Z</time>
      </trkpt>
      <trkpt lat="47.52045" lon="6.71004">
        <ele>407.3</ele>
        <time>2017-10-22T09:43:52.999Z</time>
      </trkpt>
      <trkpt lat="47.52041" lon="6.71002">
        <ele>407.2</ele>
        <time>2017-10-22T09:43:53.999Z</time>
      </trkpt>
      <trkpt lat="47.52038" lon="6.71001">
        <ele>407.2</ele>
        <time>2017-10-22T09:43:54.999Z</time>
      </trkpt>
      <trkpt lat="47.52034" lon="6.70998">
        <ele>407.2</ele>
        <time>2017-10-22T09:43:55.999Z</time>
      </trkpt>
      <trkpt lat="47.5203" lon="6.70995">
        <ele>407.3</ele>
        <time>2017-10-22T09:43:56.999Z</time>
      </trkpt>
      <trkpt lat="47.52028" lon="6.70993">
        <ele>407.4</ele>
        <time>2017-10-22T09:43:57.999Z</time>
      </trkpt>
      <trkpt lat="47.52024" lon="6.70992">
        <ele>407.8</ele>
        <time>2017-10-22T09:43:58.999Z</time>
      </trkpt>
      <trkpt lat="47.5202" lon="6.70989">
        <ele>407.9</ele>
        <time>2017-10-22T09:43:59.999Z</time>
      </trkpt>
      <trkpt lat="47.52017" lon="6.70987">
        <ele>407.9</ele>
        <time>2017-10-22T09:44:00.999Z</time>
      </trkpt>
      <trkpt lat="47.52013" lon="6.70984">
        <ele>407.8</ele>
        <time>2017-10-22T09:44:01.999Z</time>
      </trkpt>
      <trkpt lat="47.52009" lon="6.70983">
        <ele>407.8</ele>
        <time>2017-10-22T09:44:02.999Z</time>
      </trkpt>
      <trkpt lat="47.52006" lon="6.70981">
        <ele>407.8</ele>
        <time>2017-10-22T09:44:03.999Z</time>
      </trkpt>
      <trkpt lat="47.52004" lon="6.7098">
        <ele>407.7</ele>
        <time>2017-10-22T09:44:04.999Z</time>
      </trkpt>
      <trkpt lat="47.52001" lon="6.70979">
        <ele>407.7</ele>
        <time>2017-10-22T09:44:05.999Z</time>
      </trkpt>
      <trkpt lat="47.51998" lon="6.70979">
        <ele>407.7</ele>
        <time>2017-10-22T09:44:06.999Z</time>
      </trkpt>
      <trkpt lat="47.51994" lon="6.7098">
        <ele>407.6</ele>
        <time>2017-10-22T09:44:07.999Z</time>
      </trkpt>
      <trkpt lat="47.51992" lon="6.7098">
        <ele>407.6</ele>
        <time>2017-10-22T09:44:08.999Z</time>
      </trkpt>
      <trkpt lat="47.51996" lon="6.70979">
        <ele>407.7</ele>
        <time>2017-10-22T09:44:25.999Z</time>
      </trkpt>
      <trkpt lat="47.51996" lon="6.70978">
        <ele>407.6</ele>
        <time>2017-10-22T09:44:26.999Z</time>
      </trkpt>
      <trkpt lat="47.51993" lon="6.70979">
        <ele>407.5</ele>
        <time>2017-10-22T09:44:29.999Z</time>
      </trkpt>
      <trkpt lat="47.51991" lon="6.7098">
        <ele>407.5</ele>
        <time>2017-10-22T09:44:30.999Z</time>
      </trkpt>
      <trkpt lat="47.51988" lon="6.70981">
        <ele>407.5</ele>
        <time>2017-10-22T09:44:31.999Z</time>
      </trkpt>
      <trkpt lat="47.51985" lon="6.70982">
        <ele>407.4</ele>
        <time>2017-10-22T09:44:32.999Z</time>
      </trkpt>
      <trkpt lat="47.51981" lon="6.70984">
        <ele>407.3</ele>
        <time>2017-10-22T09:44:33.999Z</time>
      </trkpt>
      <trkpt lat="47.51977" lon="6.70984">
        <ele>407.3</ele>
        <time>2017-10-22T09:44:34.999Z</time>
      </trkpt>
      <trkpt lat="47.51974" lon="6.70985">
        <ele>407.3</ele>
        <time>2017-10-22T09:44:35.999Z</time>
      </trkpt>
      <trkpt lat="47.51971" lon="6.70985">
        <ele>407.4</ele>
        <time>2017-10-22T09:44:36.999Z</time>
      </trkpt>
      <trkpt lat="47.51969" lon="6.70985">
        <ele>407.4</ele>
        <time>2017-10-22T09:44:37.999Z</time>
      </trkpt>
      <trkpt lat="47.51966" lon="6.70985">
        <ele>407.5</ele>
        <time>2017-10-22T09:44:38.999Z</time>
      </trkpt>
      <trkpt lat="47.51963" lon="6.70985">
        <ele>407.4</ele>
        <time>2017-10-22T09:44:39.999Z</time>
      </trkpt>
      <trkpt lat="47.5196" lon="6.70987">
        <ele>407.4</ele>
        <time>2017-10-22T09:44:40.999Z</time>
      </trkpt>
      <trkpt lat="47.51957" lon="6.70988">
        <ele>407.4</ele>
        <time>2017-10-22T09:44:42.999Z</time>
      </trkpt>
      <trkpt lat="47.51955" lon="6.70989">
        <ele>407.4</ele>
        <time>2017-10-22T09:44:43.999Z</time>
      </trkpt>
      <trkpt lat="47.51951" lon="6.70989">
        <ele>407.4</ele>
        <time>2017-10-22T09:44:46.999Z</time>
      </trkpt>
      <trkpt lat="47.51949" lon="6.70989">
        <ele>407.4</ele>
        <time>2017-10-22T09:44:47.999Z</time>
      </trkpt>
      <trkpt lat="47.51945" lon="6.70988">
        <ele>407.5</ele>
        <time>2017-10-22T09:44:50.999Z</time>
      </trkpt>
      <trkpt lat="47.51944" lon="6.70988">
        <ele>407.5</ele>
        <time>2017-10-22T09:44:51.999Z</time>
      </trkpt>
      <trkpt lat="47.5194" lon="6.70989">
        <ele>407.7</ele>
        <time>2017-10-22T09:44:55.999Z</time>
      </trkpt>
      <trkpt lat="47.51938" lon="6.70989">
        <ele>407.8</ele>
        <time>2017-10-22T09:44:56.999Z</time>
      </trkpt>
      <trkpt lat="47.51935" lon="6.70991">
        <ele>407.7</ele>
        <time>2017-10-22T09:44:57.999Z</time>
      </trkpt>
      <trkpt lat="47.51932" lon="6.70991">
        <ele>407.7</ele>
        <time>2017-10-22T09:44:58.999Z</time>
      </trkpt>
      <trkpt lat="47.51928" lon="6.70992">
        <ele>407.8</ele>
        <time>2017-10-22T09:45:00.999Z</time>
      </trkpt>
      <trkpt lat="47.51926" lon="6.70992">
        <ele>407.9</ele>
        <time>2017-10-22T09:45:01.999Z</time>
      </trkpt>
      <trkpt lat="47.51923" lon="6.70994">
        <ele>407.8</ele>
        <time>2017-10-22T09:45:03.999Z</time>
      </trkpt>
      <trkpt lat="47.51921" lon="6.70995">
        <ele>407.8</ele>
        <time>2017-10-22T09:45:04.999Z</time>
      </trkpt>
      <trkpt lat="47.51917" lon="6.70996">
        <ele>407.6</ele>
        <time>2017-10-22T09:45:06.999Z</time>
      </trkpt>
      <trkpt lat="47.51916" lon="6.70996">
        <ele>407.7</ele>
        <time>2017-10-22T09:45:07.999Z</time>
      </trkpt>
      <trkpt lat="47.51912" lon="6.70996">
        <ele>407.9</ele>
        <time>2017-10-22T09:45:09.999Z</time>
      </trkpt>
      <trkpt lat="47.5191" lon="6.70997">
        <ele>408.1</ele>
        <time>2017-10-22T09:45:10.999Z</time>
      </trkpt>
      <trkpt lat="47.51906" lon="6.70997">
        <ele>408.6</ele>
        <time>2017-10-22T09:45:13.999Z</time>
      </trkpt>
      <trkpt lat="47.51904" lon="6.70998">
        <ele>408.7</ele>
        <time>2017-10-22T09:45:14.999Z</time>
      </trkpt>
      <trkpt lat="47.519" lon="6.70998">
        <ele>409.2</ele>
        <time>2017-10-22T09:45:17.999Z</time>
      </trkpt>
      <trkpt lat="47.51898" lon="6.70999">
        <ele>409.4</ele>
        <time>2017-10-22T09:45:18.999Z</time>
      </trkpt>
      <trkpt lat="47.51895" lon="6.70999">
        <ele>410</ele>
        <time>2017-10-22T09:45:21.999Z</time>
      </trkpt>
      <trkpt lat="47.51893" lon="6.71">
        <ele>410.1</ele>
        <time>2017-10-22T09:45:22.999Z</time>
      </trkpt>
      <trkpt lat="47.5189" lon="6.71">
        <ele>410.2</ele>
        <time>2017-10-22T09:45:23.999Z</time>
      </trkpt>
      <trkpt lat="47.51888" lon="6.71">
        <ele>410.3</ele>
        <time>2017-10-22T09:45:24.999Z</time>
      </trkpt>
      <trkpt lat="47.51884" lon="6.71">
        <ele>410.6</ele>
        <time>2017-10-22T09:45:27.999Z</time>
      </trkpt>
      <trkpt lat="47.51882" lon="6.71">
        <ele>410.8</ele>
        <time>2017-10-22T09:45:28.999Z</time>
      </trkpt>
      <trkpt lat="47.51879" lon="6.71001">
        <ele>411</ele>
        <time>2017-10-22T09:45:29.999Z</time>
      </trkpt>
      <trkpt lat="47.51877" lon="6.71002">
        <ele>411.1</ele>
        <time>2017-10-22T09:45:30.999Z</time>
      </trkpt>
      <trkpt lat="47.51873" lon="6.71005">
        <ele>412.3</ele>
        <time>2017-10-22T09:45:34.999Z</time>
      </trkpt>
      <trkpt lat="47.51871" lon="6.71005">
        <ele>412.7</ele>
        <time>2017-10-22T09:45:35.999Z</time>
      </trkpt>
      <trkpt lat="47.51867" lon="6.71004">
        <ele>413.4</ele>
        <time>2017-10-22T09:45:37.999Z</time>
      </trkpt>
      <trkpt lat="47.51866" lon="6.71004">
        <ele>413.7</ele>
        <time>2017-10-22T09:45:38.999Z</time>
      </trkpt>
      <trkpt lat="47.51861" lon="6.71003">
        <ele>414.2</ele>
        <time>2017-10-22T09:45:40.999Z</time>
      </trkpt>
      <trkpt lat="47.5186" lon="6.71003">
        <ele>414.5</ele>
        <time>2017-10-22T09:45:41.999Z</time>
      </trkpt>
      <trkpt lat="47.51858" lon="6.71003">
        <ele>414.7</ele>
        <time>2017-10-22T09:45:42.999Z</time>
      </trkpt>
      <trkpt lat="47.51855" lon="6.71002">
        <ele>415</ele>
        <time>2017-10-22T09:45:43.999Z</time>
      </trkpt>
      <trkpt lat="47.51851" lon="6.71002">
        <ele>415.8</ele>
        <time>2017-10-22T09:45:46.999Z</time>
      </trkpt>
      <trkpt lat="47.5185" lon="6.71002">
        <ele>416.2</ele>
        <time>2017-10-22T09:45:47.999Z</time>
      </trkpt>
      <trkpt lat="47.51845" lon="6.71002">
        <ele>417.6</ele>
        <time>2017-10-22T09:45:52.999Z</time>
      </trkpt>
      <trkpt lat="47.51843" lon="6.71003">
        <ele>417.9</ele>
        <time>2017-10-22T09:45:53.999Z</time>
      </trkpt>
      <trkpt lat="47.5184" lon="6.71004">
        <ele>418.4</ele>
        <time>2017-10-22T09:45:55.999Z</time>
      </trkpt>
      <trkpt lat="47.51838" lon="6.71007">
        <ele>418.8</ele>
        <time>2017-10-22T09:45:56.999Z</time>
      </trkpt>
      <trkpt lat="47.51835" lon="6.71008">
        <ele>419.4</ele>
        <time>2017-10-22T09:45:58.999Z</time>
      </trkpt>
      <trkpt lat="47.51833" lon="6.71009">
        <ele>419.6</ele>
        <time>2017-10-22T09:45:59.999Z</time>
      </trkpt>
      <trkpt lat="47.51829" lon="6.71009">
        <ele>420.7</ele>
        <time>2017-10-22T09:46:02.999Z</time>
      </trkpt>
      <trkpt lat="47.51827" lon="6.71009">
        <ele>421.1</ele>
        <time>2017-10-22T09:46:03.999Z</time>
      </trkpt>
      <trkpt lat="47.51823" lon="6.7101">
        <ele>421.8</ele>
        <time>2017-10-22T09:46:05.999Z</time>
      </trkpt>
      <trkpt lat="47.51822" lon="6.71011">
        <ele>422</ele>
        <time>2017-10-22T09:46:06.999Z</time>
      </trkpt>
      <trkpt lat="47.51818" lon="6.71011">
        <ele>423.1</ele>
        <time>2017-10-22T09:46:10.999Z</time>
      </trkpt>
      <trkpt lat="47.51817" lon="6.71011">
        <ele>423.3</ele>
        <time>2017-10-22T09:46:11.999Z</time>
      </trkpt>
      <trkpt lat="47.51814" lon="6.71011">
        <ele>424</ele>
        <time>2017-10-22T09:46:13.999Z</time>
      </trkpt>
      <trkpt lat="47.51812" lon="6.71012">
        <ele>424.3</ele>
        <time>2017-10-22T09:46:14.999Z</time>
      </trkpt>
      <trkpt lat="47.51808" lon="6.71013">
        <ele>425.6</ele>
        <time>2017-10-22T09:46:18.999Z</time>
      </trkpt>
      <trkpt lat="47.51806" lon="6.71015">
        <ele>425.8</ele>
        <time>2017-10-22T09:46:19.999Z</time>
      </trkpt>
      <trkpt lat="47.51803" lon="6.71016">
        <ele>426.3</ele>
        <time>2017-10-22T09:46:21.999Z</time>
      </trkpt>
      <trkpt lat="47.51802" lon="6.71017">
        <ele>426.4</ele>
        <time>2017-10-22T09:46:22.999Z</time>
      </trkpt>
      <trkpt lat="47.51799" lon="6.71018">
        <ele>426.6</ele>
        <time>2017-10-22T09:46:25.999Z</time>
      </trkpt>
      <trkpt lat="47.51797" lon="6.71018">
        <ele>426.7</ele>
        <time>2017-10-22T09:46:26.999Z</time>
      </trkpt>
      <trkpt lat="47.51793" lon="6.71018">
        <ele>426.9</ele>
        <time>2017-10-22T09:46:28.999Z</time>
      </trkpt>
      <trkpt lat="47.51792" lon="6.71018">
        <ele>427</ele>
        <time>2017-10-22T09:46:29.999Z</time>
      </trkpt>
      <trkpt lat="47.51788" lon="6.71018">
        <ele>427.1</ele>
        <time>2017-10-22T09:46:31.999Z</time>
      </trkpt>
      <trkpt lat="47.51786" lon="6.71018">
        <ele>427.1</ele>
        <time>2017-10-22T09:46:32.999Z</time>
      </trkpt>
      <trkpt lat="47.51782" lon="6.71018">
        <ele>427.4</ele>
        <time>2017-10-22T09:46:34.999Z</time>
      </trkpt>
      <trkpt lat="47.51781" lon="6.71018">
        <ele>427.6</ele>
        <time>2017-10-22T09:46:35.999Z</time>
      </trkpt>
      <trkpt lat="47.51777" lon="6.71019">
        <ele>428</ele>
        <time>2017-10-22T09:46:37.999Z</time>
      </trkpt>
      <trkpt lat="47.51776" lon="6.71019">
        <ele>428.2</ele>
        <time>2017-10-22T09:46:38.999Z</time>
      </trkpt>
      <trkpt lat="47.51772" lon="6.71019">
        <ele>428.5</ele>
        <time>2017-10-22T09:46:41.999Z</time>
      </trkpt>
      <trkpt lat="47.51771" lon="6.71018">
        <ele>428.7</ele>
        <time>2017-10-22T09:46:42.999Z</time>
      </trkpt>
      <trkpt lat="47.51768" lon="6.71017">
        <ele>428.8</ele>
        <time>2017-10-22T09:46:43.999Z</time>
      </trkpt>
      <trkpt lat="47.51766" lon="6.71017">
        <ele>429</ele>
        <time>2017-10-22T09:46:44.999Z</time>
      </trkpt>
      <trkpt lat="47.51762" lon="6.71015">
        <ele>429.3</ele>
        <time>2017-10-22T09:46:46.999Z</time>
      </trkpt>
      <trkpt lat="47.5176" lon="6.71016">
        <ele>429.5</ele>
        <time>2017-10-22T09:46:47.999Z</time>
      </trkpt>
      <trkpt lat="47.51756" lon="6.71017">
        <ele>429.9</ele>
        <time>2017-10-22T09:46:49.999Z</time>
      </trkpt>
      <trkpt lat="47.51754" lon="6.71017">
        <ele>430.1</ele>
        <time>2017-10-22T09:46:50.999Z</time>
      </trkpt>
      <trkpt lat="47.51752" lon="6.71017">
        <ele>430.3</ele>
        <time>2017-10-22T09:46:51.999Z</time>
      </trkpt>
      <trkpt lat="47.51749" lon="6.71018">
        <ele>430.5</ele>
        <time>2017-10-22T09:46:52.999Z</time>
      </trkpt>
      <trkpt lat="47.51746" lon="6.71019">
        <ele>430.9</ele>
        <time>2017-10-22T09:46:54.999Z</time>
      </trkpt>
      <trkpt lat="47.51744" lon="6.71019">
        <ele>431.1</ele>
        <time>2017-10-22T09:46:55.999Z</time>
      </trkpt>
      <trkpt lat="47.51741" lon="6.7102">
        <ele>431.3</ele>
        <time>2017-10-22T09:46:56.999Z</time>
      </trkpt>
      <trkpt lat="47.51739" lon="6.7102">
        <ele>431.4</ele>
        <time>2017-10-22T09:46:57.999Z</time>
      </trkpt>
      <trkpt lat="47.51735" lon="6.71022">
        <ele>431.9</ele>
        <time>2017-10-22T09:46:59.999Z</time>
      </trkpt>
      <trkpt lat="47.51732" lon="6.71023">
        <ele>432.1</ele>
        <time>2017-10-22T09:47:00.999Z</time>
      </trkpt>
      <trkpt lat="47.51728" lon="6.71023">
        <ele>432.5</ele>
        <time>2017-10-22T09:47:02.999Z</time>
      </trkpt>
      <trkpt lat="47.51726" lon="6.71023">
        <ele>432.7</ele>
        <time>2017-10-22T09:47:03.999Z</time>
      </trkpt>
      <trkpt lat="47.51722" lon="6.71023">
        <ele>433.1</ele>
        <time>2017-10-22T09:47:05.999Z</time>
      </trkpt>
      <trkpt lat="47.5172" lon="6.71023">
        <ele>433.3</ele>
        <time>2017-10-22T09:47:06.999Z</time>
      </trkpt>
      <trkpt lat="47.51716" lon="6.71023">
        <ele>433.7</ele>
        <time>2017-10-22T09:47:08.999Z</time>
      </trkpt>
      <trkpt lat="47.51713" lon="6.71022">
        <ele>433.9</ele>
        <time>2017-10-22T09:47:09.999Z</time>
      </trkpt>
      <trkpt lat="47.5171" lon="6.71021">
        <ele>434.2</ele>
        <time>2017-10-22T09:47:10.999Z</time>
      </trkpt>
      <trkpt lat="47.51708" lon="6.71021">
        <ele>434.3</ele>
        <time>2017-10-22T09:47:11.999Z</time>
      </trkpt>
      <trkpt lat="47.51705" lon="6.71019">
        <ele>434.6</ele>
        <time>2017-10-22T09:47:13.999Z</time>
      </trkpt>
      <trkpt lat="47.51703" lon="6.71019">
        <ele>434.8</ele>
        <time>2017-10-22T09:47:14.999Z</time>
      </trkpt>
      <trkpt lat="47.517" lon="6.71018">
        <ele>435</ele>
        <time>2017-10-22T09:47:15.999Z</time>
      </trkpt>
      <trkpt lat="47.51697" lon="6.71017">
        <ele>435.2</ele>
        <time>2017-10-22T09:47:16.999Z</time>
      </trkpt>
      <trkpt lat="47.51694" lon="6.71016">
        <ele>435.6</ele>
        <time>2017-10-22T09:47:18.999Z</time>
      </trkpt>
      <trkpt lat="47.51692" lon="6.71017">
        <ele>435.8</ele>
        <time>2017-10-22T09:47:19.999Z</time>
      </trkpt>
      <trkpt lat="47.5169" lon="6.71017">
        <ele>436</ele>
        <time>2017-10-22T09:47:20.999Z</time>
      </trkpt>
      <trkpt lat="47.51687" lon="6.71017">
        <ele>436.2</ele>
        <time>2017-10-22T09:47:21.999Z</time>
      </trkpt>
      <trkpt lat="47.51685" lon="6.71016">
        <ele>436.5</ele>
        <time>2017-10-22T09:47:22.999Z</time>
      </trkpt>
      <trkpt lat="47.51682" lon="6.71014">
        <ele>436.7</ele>
        <time>2017-10-22T09:47:23.999Z</time>
      </trkpt>
      <trkpt lat="47.5168" lon="6.71013">
        <ele>436.8</ele>
        <time>2017-10-22T09:47:24.999Z</time>
      </trkpt>
      <trkpt lat="47.51677" lon="6.71013">
        <ele>436.8</ele>
        <time>2017-10-22T09:47:25.999Z</time>
      </trkpt>
      <trkpt lat="47.51673" lon="6.7101">
        <ele>437</ele>
        <time>2017-10-22T09:47:27.999Z</time>
      </trkpt>
      <trkpt lat="47.5167" lon="6.7101">
        <ele>437.1</ele>
        <time>2017-10-22T09:47:28.999Z</time>
      </trkpt>
      <trkpt lat="47.51667" lon="6.71009">
        <ele>437.4</ele>
        <time>2017-10-22T09:47:30.999Z</time>
      </trkpt>
      <trkpt lat="47.51665" lon="6.71008">
        <ele>437.4</ele>
        <time>2017-10-22T09:47:31.999Z</time>
      </trkpt>
      <trkpt lat="47.51662" lon="6.71007">
        <ele>437.7</ele>
        <time>2017-10-22T09:47:32.999Z</time>
      </trkpt>
      <trkpt lat="47.5166" lon="6.71006">
        <ele>437.9</ele>
        <time>2017-10-22T09:47:33.999Z</time>
      </trkpt>
      <trkpt lat="47.51657" lon="6.71005">
        <ele>438.5</ele>
        <time>2017-10-22T09:47:35.999Z</time>
      </trkpt>
      <trkpt lat="47.51655" lon="6.71004">
        <ele>438.8</ele>
        <time>2017-10-22T09:47:36.999Z</time>
      </trkpt>
      <trkpt lat="47.51652" lon="6.71004">
        <ele>439.4</ele>
        <time>2017-10-22T09:47:38.999Z</time>
      </trkpt>
      <trkpt lat="47.5165" lon="6.71004">
        <ele>439.6</ele>
        <time>2017-10-22T09:47:39.999Z</time>
      </trkpt>
      <trkpt lat="47.51648" lon="6.71003">
        <ele>439.7</ele>
        <time>2017-10-22T09:47:40.999Z</time>
      </trkpt>
      <trkpt lat="47.51646" lon="6.71003">
        <ele>439.9</ele>
        <time>2017-10-22T09:47:41.999Z</time>
      </trkpt>
      <trkpt lat="47.51643" lon="6.71002">
        <ele>440</ele>
        <time>2017-10-22T09:47:42.999Z</time>
      </trkpt>
      <trkpt lat="47.51641" lon="6.71">
        <ele>440.1</ele>
        <time>2017-10-22T09:47:43.999Z</time>
      </trkpt>
      <trkpt lat="47.51635" lon="6.70999">
        <ele>440</ele>
        <time>2017-10-22T09:47:45.999Z</time>
      </trkpt>
      <trkpt lat="47.51633" lon="6.70999">
        <ele>440</ele>
        <time>2017-10-22T09:47:46.999Z</time>
      </trkpt>
      <trkpt lat="47.5163" lon="6.70998">
        <ele>439.9</ele>
        <time>2017-10-22T09:47:47.999Z</time>
      </trkpt>
      <trkpt lat="47.51626" lon="6.70998">
        <ele>439.8</ele>
        <time>2017-10-22T09:47:49.999Z</time>
      </trkpt>
      <trkpt lat="47.51624" lon="6.70997">
        <ele>439.8</ele>
        <time>2017-10-22T09:47:50.999Z</time>
      </trkpt>
      <trkpt lat="47.5162" lon="6.70997">
        <ele>439.9</ele>
        <time>2017-10-22T09:47:52.999Z</time>
      </trkpt>
      <trkpt lat="47.51619" lon="6.70997">
        <ele>439.9</ele>
        <time>2017-10-22T09:47:53.999Z</time>
      </trkpt>
      <trkpt lat="47.51615" lon="6.70998">
        <ele>439.8</ele>
        <time>2017-10-22T09:47:55.999Z</time>
      </trkpt>
      <trkpt lat="47.51613" lon="6.70997">
        <ele>439.8</ele>
        <time>2017-10-22T09:47:56.999Z</time>
      </trkpt>
      <trkpt lat="47.51609" lon="6.70997">
        <ele>439.8</ele>
        <time>2017-10-22T09:47:58.999Z</time>
      </trkpt>
      <trkpt lat="47.51607" lon="6.70996">
        <ele>439.8</ele>
        <time>2017-10-22T09:47:59.999Z</time>
      </trkpt>
      <trkpt lat="47.51604" lon="6.70995">
        <ele>439.8</ele>
        <time>2017-10-22T09:48:00.999Z</time>
      </trkpt>
      <trkpt lat="47.51602" lon="6.70994">
        <ele>439.7</ele>
        <time>2017-10-22T09:48:01.999Z</time>
      </trkpt>
      <trkpt lat="47.51599" lon="6.70992">
        <ele>439.6</ele>
        <time>2017-10-22T09:48:02.999Z</time>
      </trkpt>
      <trkpt lat="47.51597" lon="6.70991">
        <ele>439.4</ele>
        <time>2017-10-22T09:48:03.999Z</time>
      </trkpt>
      <trkpt lat="47.51594" lon="6.70991">
        <ele>439.4</ele>
        <time>2017-10-22T09:48:04.999Z</time>
      </trkpt>
      <trkpt lat="47.51592" lon="6.70991">
        <ele>439.3</ele>
        <time>2017-10-22T09:48:05.999Z</time>
      </trkpt>
      <trkpt lat="47.51589" lon="6.7099">
        <ele>439.2</ele>
        <time>2017-10-22T09:48:06.999Z</time>
      </trkpt>
      <trkpt lat="47.51587" lon="6.7099">
        <ele>439</ele>
        <time>2017-10-22T09:48:07.999Z</time>
      </trkpt>
      <trkpt lat="47.51584" lon="6.70989">
        <ele>439.1</ele>
        <time>2017-10-22T09:48:08.999Z</time>
      </trkpt>
      <trkpt lat="47.51582" lon="6.70987">
        <ele>439.1</ele>
        <time>2017-10-22T09:48:09.999Z</time>
      </trkpt>
      <trkpt lat="47.51578" lon="6.70985">
        <ele>439</ele>
        <time>2017-10-22T09:48:11.999Z</time>
      </trkpt>
      <trkpt lat="47.51576" lon="6.70984">
        <ele>438.9</ele>
        <time>2017-10-22T09:48:12.999Z</time>
      </trkpt>
      <trkpt lat="47.51572" lon="6.70984">
        <ele>439.4</ele>
        <time>2017-10-22T09:48:17.999Z</time>
      </trkpt>
      <trkpt lat="47.5157" lon="6.70983">
        <ele>439.6</ele>
        <time>2017-10-22T09:48:18.999Z</time>
      </trkpt>
      <trkpt lat="47.51567" lon="6.70981">
        <ele>440.3</ele>
        <time>2017-10-22T09:48:22.999Z</time>
      </trkpt>
      <trkpt lat="47.51565" lon="6.7098">
        <ele>440.6</ele>
        <time>2017-10-22T09:48:23.999Z</time>
      </trkpt>
      <trkpt lat="47.51562" lon="6.7098">
        <ele>441</ele>
        <time>2017-10-22T09:48:24.999Z</time>
      </trkpt>
      <trkpt lat="47.51556" lon="6.70977">
        <ele>441.4</ele>
        <time>2017-10-22T09:48:25.999Z</time>
      </trkpt>
      <trkpt lat="47.51553" lon="6.70975">
        <ele>441.6</ele>
        <time>2017-10-22T09:48:26.999Z</time>
      </trkpt>
      <trkpt lat="47.51551" lon="6.70974">
        <ele>441.9</ele>
        <time>2017-10-22T09:48:27.999Z</time>
      </trkpt>
      <trkpt lat="47.51547" lon="6.70972">
        <ele>442.4</ele>
        <time>2017-10-22T09:48:29.999Z</time>
      </trkpt>
      <trkpt lat="47.51544" lon="6.7097">
        <ele>442.8</ele>
        <time>2017-10-22T09:48:30.999Z</time>
      </trkpt>
      <trkpt lat="47.5154" lon="6.70969">
        <ele>444</ele>
        <time>2017-10-22T09:48:33.999Z</time>
      </trkpt>
      <trkpt lat="47.51539" lon="6.70968">
        <ele>444.4</ele>
        <time>2017-10-22T09:48:34.999Z</time>
      </trkpt>
      <trkpt lat="47.51535" lon="6.70966">
        <ele>445.3</ele>
        <time>2017-10-22T09:48:36.999Z</time>
      </trkpt>
      <trkpt lat="47.51533" lon="6.70966">
        <ele>445.8</ele>
        <time>2017-10-22T09:48:37.999Z</time>
      </trkpt>
      <trkpt lat="47.5153" lon="6.70964">
        <ele>446.2</ele>
        <time>2017-10-22T09:48:38.999Z</time>
      </trkpt>
      <trkpt lat="47.51527" lon="6.70962">
        <ele>446.7</ele>
        <time>2017-10-22T09:48:39.999Z</time>
      </trkpt>
      <trkpt lat="47.51524" lon="6.7096">
        <ele>446.9</ele>
        <time>2017-10-22T09:48:40.999Z</time>
      </trkpt>
      <trkpt lat="47.51522" lon="6.70958">
        <ele>447.3</ele>
        <time>2017-10-22T09:48:41.999Z</time>
      </trkpt>
      <trkpt lat="47.5152" lon="6.70956">
        <ele>447.6</ele>
        <time>2017-10-22T09:48:42.999Z</time>
      </trkpt>
      <trkpt lat="47.51517" lon="6.70954">
        <ele>447.9</ele>
        <time>2017-10-22T09:48:43.999Z</time>
      </trkpt>
      <trkpt lat="47.5151" lon="6.70951">
        <ele>448.4</ele>
        <time>2017-10-22T09:48:45.999Z</time>
      </trkpt>
      <trkpt lat="47.51508" lon="6.7095">
        <ele>448.7</ele>
        <time>2017-10-22T09:48:46.999Z</time>
      </trkpt>
      <trkpt lat="47.51506" lon="6.7095">
        <ele>448.9</ele>
        <time>2017-10-22T09:48:47.999Z</time>
      </trkpt>
      <trkpt lat="47.51501" lon="6.70948">
        <ele>449.4</ele>
        <time>2017-10-22T09:48:49.999Z</time>
      </trkpt>
      <trkpt lat="47.51499" lon="6.70948">
        <ele>449.6</ele>
        <time>2017-10-22T09:48:50.999Z</time>
      </trkpt>
      <trkpt lat="47.51496" lon="6.70947">
        <ele>450.5</ele>
        <time>2017-10-22T09:48:52.999Z</time>
      </trkpt>
      <trkpt lat="47.51492" lon="6.70945">
        <ele>451</ele>
        <time>2017-10-22T09:48:53.999Z</time>
      </trkpt>
      <trkpt lat="47.51489" lon="6.70944">
        <ele>451.6</ele>
        <time>2017-10-22T09:48:54.999Z</time>
      </trkpt>
      <trkpt lat="47.51486" lon="6.70944">
        <ele>452.1</ele>
        <time>2017-10-22T09:48:55.999Z</time>
      </trkpt>
      <trkpt lat="47.51482" lon="6.70943">
        <ele>453.5</ele>
        <time>2017-10-22T09:48:58.999Z</time>
      </trkpt>
      <trkpt lat="47.51481" lon="6.70942">
        <ele>453.9</ele>
        <time>2017-10-22T09:48:59.999Z</time>
      </trkpt>
      <trkpt lat="47.51477" lon="6.70942">
        <ele>455.2</ele>
        <time>2017-10-22T09:49:02.999Z</time>
      </trkpt>
      <trkpt lat="47.51476" lon="6.70942">
        <ele>455.6</ele>
        <time>2017-10-22T09:49:03.999Z</time>
      </trkpt>
      <trkpt lat="47.51472" lon="6.70941">
        <ele>456.7</ele>
        <time>2017-10-22T09:49:07.999Z</time>
      </trkpt>
      <trkpt lat="47.51471" lon="6.70941">
        <ele>456.9</ele>
        <time>2017-10-22T09:49:08.999Z</time>
      </trkpt>
      <trkpt lat="47.51467" lon="6.70942">
        <ele>457.5</ele>
        <time>2017-10-22T09:49:11.999Z</time>
      </trkpt>
      <trkpt lat="47.51465" lon="6.70941">
        <ele>457.7</ele>
        <time>2017-10-22T09:49:12.999Z</time>
      </trkpt>
      <trkpt lat="47.51461" lon="6.70941">
        <ele>458</ele>
        <time>2017-10-22T09:49:15.999Z</time>
      </trkpt>
      <trkpt lat="47.5146" lon="6.70941">
        <ele>458.1</ele>
        <time>2017-10-22T09:49:16.999Z</time>
      </trkpt>
      <trkpt lat="47.51456" lon="6.70942">
        <ele>458.3</ele>
        <time>2017-10-22T09:49:18.999Z</time>
      </trkpt>
      <trkpt lat="47.51453" lon="6.70942">
        <ele>458.5</ele>
        <time>2017-10-22T09:49:19.999Z</time>
      </trkpt>
      <trkpt lat="47.5145" lon="6.70941">
        <ele>458.6</ele>
        <time>2017-10-22T09:49:21.999Z</time>
      </trkpt>
      <trkpt lat="47.51448" lon="6.70941">
        <ele>458.7</ele>
        <time>2017-10-22T09:49:22.999Z</time>
      </trkpt>
      <trkpt lat="47.51445" lon="6.70941">
        <ele>459.5</ele>
        <time>2017-10-22T09:49:26.999Z</time>
      </trkpt>
      <trkpt lat="47.51443" lon="6.70939">
        <ele>459.9</ele>
        <time>2017-10-22T09:49:27.999Z</time>
      </trkpt>
      <trkpt lat="47.5144" lon="6.70938">
        <ele>460.8</ele>
        <time>2017-10-22T09:49:29.999Z</time>
      </trkpt>
      <trkpt lat="47.51436" lon="6.70937">
        <ele>461.3</ele>
        <time>2017-10-22T09:49:30.999Z</time>
      </trkpt>
      <trkpt lat="47.51432" lon="6.70935">
        <ele>461.6</ele>
        <time>2017-10-22T09:49:31.999Z</time>
      </trkpt>
      <trkpt lat="47.5143" lon="6.70935">
        <ele>461.9</ele>
        <time>2017-10-22T09:49:32.999Z</time>
      </trkpt>
      <trkpt lat="47.51427" lon="6.70935">
        <ele>462.3</ele>
        <time>2017-10-22T09:49:33.999Z</time>
      </trkpt>
      <trkpt lat="47.51423" lon="6.70933">
        <ele>462.6</ele>
        <time>2017-10-22T09:49:34.999Z</time>
      </trkpt>
      <trkpt lat="47.5142" lon="6.70932">
        <ele>462.8</ele>
        <time>2017-10-22T09:49:35.999Z</time>
      </trkpt>
      <trkpt lat="47.51417" lon="6.70931">
        <ele>463.6</ele>
        <time>2017-10-22T09:49:38.999Z</time>
      </trkpt>
      <trkpt lat="47.51415" lon="6.70931">
        <ele>463.8</ele>
        <time>2017-10-22T09:49:39.999Z</time>
      </trkpt>
      <trkpt lat="47.51412" lon="6.70929">
        <ele>463.9</ele>
        <time>2017-10-22T09:49:40.999Z</time>
      </trkpt>
      <trkpt lat="47.5141" lon="6.70928">
        <ele>464.1</ele>
        <time>2017-10-22T09:49:41.999Z</time>
      </trkpt>
      <trkpt lat="47.51407" lon="6.70926">
        <ele>464.2</ele>
        <time>2017-10-22T09:49:42.999Z</time>
      </trkpt>
      <trkpt lat="47.51405" lon="6.70925">
        <ele>464.5</ele>
        <time>2017-10-22T09:49:43.999Z</time>
      </trkpt>
      <trkpt lat="47.51401" lon="6.70924">
        <ele>465.1</ele>
        <time>2017-10-22T09:49:46.999Z</time>
      </trkpt>
      <trkpt lat="47.51398" lon="6.70923">
        <ele>465.2</ele>
        <time>2017-10-22T09:49:47.999Z</time>
      </trkpt>
      <trkpt lat="47.51394" lon="6.70923">
        <ele>465.4</ele>
        <time>2017-10-22T09:49:48.999Z</time>
      </trkpt>
      <trkpt lat="47.51392" lon="6.70921">
        <ele>465.7</ele>
        <time>2017-10-22T09:49:49.999Z</time>
      </trkpt>
      <trkpt lat="47.51389" lon="6.70919">
        <ele>466.1</ele>
        <time>2017-10-22T09:49:50.999Z</time>
      </trkpt>
      <trkpt lat="47.51386" lon="6.70917">
        <ele>466.6</ele>
        <time>2017-10-22T09:49:51.999Z</time>
      </trkpt>
      <trkpt lat="47.51384" lon="6.70916">
        <ele>467.1</ele>
        <time>2017-10-22T09:49:52.999Z</time>
      </trkpt>
      <trkpt lat="47.5138" lon="6.70915">
        <ele>467.5</ele>
        <time>2017-10-22T09:49:53.999Z</time>
      </trkpt>
      <trkpt lat="47.51377" lon="6.70914">
        <ele>468</ele>
        <time>2017-10-22T09:49:54.999Z</time>
      </trkpt>
      <trkpt lat="47.51374" lon="6.70913">
        <ele>468.5</ele>
        <time>2017-10-22T09:49:55.999Z</time>
      </trkpt>
      <trkpt lat="47.51371" lon="6.70912">
        <ele>469</ele>
        <time>2017-10-22T09:49:56.999Z</time>
      </trkpt>
      <trkpt lat="47.51366" lon="6.70909">
        <ele>469.6</ele>
        <time>2017-10-22T09:49:57.999Z</time>
      </trkpt>
      <trkpt lat="47.51363" lon="6.70908">
        <ele>470.2</ele>
        <time>2017-10-22T09:49:58.999Z</time>
      </trkpt>
      <trkpt lat="47.51361" lon="6.70908">
        <ele>470.7</ele>
        <time>2017-10-22T09:49:59.999Z</time>
      </trkpt>
      <trkpt lat="47.51358" lon="6.70905">
        <ele>472</ele>
        <time>2017-10-22T09:50:02.999Z</time>
      </trkpt>
      <trkpt lat="47.51357" lon="6.70905">
        <ele>472.4</ele>
        <time>2017-10-22T09:50:03.999Z</time>
      </trkpt>
      <trkpt lat="47.51353" lon="6.70902">
        <ele>473.7</ele>
        <time>2017-10-22T09:50:07.999Z</time>
      </trkpt>
      <trkpt lat="47.51352" lon="6.70901">
        <ele>474.1</ele>
        <time>2017-10-22T09:50:08.999Z</time>
      </trkpt>
      <trkpt lat="47.51348" lon="6.70899">
        <ele>474.8</ele>
        <time>2017-10-22T09:50:10.999Z</time>
      </trkpt>
      <trkpt lat="47.51346" lon="6.70898">
        <ele>475.2</ele>
        <time>2017-10-22T09:50:11.999Z</time>
      </trkpt>
      <trkpt lat="47.51342" lon="6.70897">
        <ele>475.6</ele>
        <time>2017-10-22T09:50:13.999Z</time>
      </trkpt>
      <trkpt lat="47.51341" lon="6.70897">
        <ele>475.8</ele>
        <time>2017-10-22T09:50:14.999Z</time>
      </trkpt>
      <trkpt lat="47.51339" lon="6.70893">
        <ele>476</ele>
        <time>2017-10-22T09:50:18.999Z</time>
      </trkpt>
      <trkpt lat="47.51337" lon="6.70891">
        <ele>475.9</ele>
        <time>2017-10-22T09:50:19.999Z</time>
      </trkpt>
      <trkpt lat="47.51333" lon="6.70891">
        <ele>475.6</ele>
        <time>2017-10-22T09:50:22.999Z</time>
      </trkpt>
      <trkpt lat="47.5133" lon="6.7089">
        <ele>475.6</ele>
        <time>2017-10-22T09:50:23.999Z</time>
      </trkpt>
      <trkpt lat="47.51327" lon="6.7089">
        <ele>475.5</ele>
        <time>2017-10-22T09:50:24.999Z</time>
      </trkpt>
      <trkpt lat="47.51325" lon="6.70889">
        <ele>475.5</ele>
        <time>2017-10-22T09:50:25.999Z</time>
      </trkpt>
      <trkpt lat="47.51322" lon="6.70889">
        <ele>475.5</ele>
        <time>2017-10-22T09:50:27.999Z</time>
      </trkpt>
      <trkpt lat="47.51319" lon="6.70889">
        <ele>475.5</ele>
        <time>2017-10-22T09:50:28.999Z</time>
      </trkpt>
      <trkpt lat="47.51317" lon="6.70889">
        <ele>475.5</ele>
        <time>2017-10-22T09:50:29.999Z</time>
      </trkpt>
      <trkpt lat="47.51315" lon="6.70888">
        <ele>475.4</ele>
        <time>2017-10-22T09:50:30.999Z</time>
      </trkpt>
      <trkpt lat="47.51311" lon="6.7089">
        <ele>475.7</ele>
        <time>2017-10-22T09:50:35.999Z</time>
      </trkpt>
      <trkpt lat="47.51309" lon="6.70892">
        <ele>475.7</ele>
        <time>2017-10-22T09:50:36.999Z</time>
      </trkpt>
      <trkpt lat="47.51306" lon="6.70894">
        <ele>475.8</ele>
        <time>2017-10-22T09:50:37.999Z</time>
      </trkpt>
      <trkpt lat="47.51303" lon="6.70896">
        <ele>475.9</ele>
        <time>2017-10-22T09:50:38.999Z</time>
      </trkpt>
      <trkpt lat="47.513" lon="6.70898">
        <ele>476.1</ele>
        <time>2017-10-22T09:50:39.999Z</time>
      </trkpt>
      <trkpt lat="47.51298" lon="6.70899">
        <ele>476.3</ele>
        <time>2017-10-22T09:50:40.999Z</time>
      </trkpt>
      <trkpt lat="47.51296" lon="6.709">
        <ele>477.1</ele>
        <time>2017-10-22T09:50:43.999Z</time>
      </trkpt>
      <trkpt lat="47.51293" lon="6.70902">
        <ele>477.7</ele>
        <time>2017-10-22T09:50:45.999Z</time>
      </trkpt>
      <trkpt lat="47.5129" lon="6.70903">
        <ele>478.5</ele>
        <time>2017-10-22T09:50:47.999Z</time>
      </trkpt>
      <trkpt lat="47.51288" lon="6.70904">
        <ele>478.9</ele>
        <time>2017-10-22T09:50:48.999Z</time>
      </trkpt>
      <trkpt lat="47.51286" lon="6.70906">
        <ele>479.2</ele>
        <time>2017-10-22T09:50:49.999Z</time>
      </trkpt>
      <trkpt lat="47.51284" lon="6.70907">
        <ele>479.6</ele>
        <time>2017-10-22T09:50:50.999Z</time>
      </trkpt>
      <trkpt lat="47.51282" lon="6.7091">
        <ele>480.1</ele>
        <time>2017-10-22T09:50:51.999Z</time>
      </trkpt>
      <trkpt lat="47.51282" lon="6.70913">
        <ele>480.4</ele>
        <time>2017-10-22T09:50:52.999Z</time>
      </trkpt>
      <trkpt lat="47.5128" lon="6.70917">
        <ele>480.8</ele>
        <time>2017-10-22T09:50:53.999Z</time>
      </trkpt>
      <trkpt lat="47.5128" lon="6.7092">
        <ele>481.1</ele>
        <time>2017-10-22T09:50:54.999Z</time>
      </trkpt>
      <trkpt lat="47.51281" lon="6.70927">
        <ele>484.1</ele>
        <time>2017-10-22T09:51:03.999Z</time>
      </trkpt>
      <trkpt lat="47.5128" lon="6.70929">
        <ele>484.4</ele>
        <time>2017-10-22T09:51:04.999Z</time>
      </trkpt>
      <trkpt lat="47.51279" lon="6.70934">
        <ele>485.6</ele>
        <time>2017-10-22T09:51:08.999Z</time>
      </trkpt>
      <trkpt lat="47.51279" lon="6.70936">
        <ele>485.8</ele>
        <time>2017-10-22T09:51:09.999Z</time>
      </trkpt>
      <trkpt lat="47.51278" lon="6.70939">
        <ele>486</ele>
        <time>2017-10-22T09:51:10.999Z</time>
      </trkpt>
      <trkpt lat="47.51277" lon="6.70943">
        <ele>487.9</ele>
        <time>2017-10-22T09:51:11.999Z</time>
      </trkpt>
      <trkpt lat="47.51275" lon="6.70947">
        <ele>488</ele>
        <time>2017-10-22T09:51:12.999Z</time>
      </trkpt>
      <trkpt lat="47.51272" lon="6.70951">
        <ele>488.1</ele>
        <time>2017-10-22T09:51:13.999Z</time>
      </trkpt>
      <trkpt lat="47.51271" lon="6.70956">
        <ele>488.1</ele>
        <time>2017-10-22T09:51:15.999Z</time>
      </trkpt>
      <trkpt lat="47.5127" lon="6.7096">
        <ele>488.1</ele>
        <time>2017-10-22T09:51:16.999Z</time>
      </trkpt>
      <trkpt lat="47.51267" lon="6.70964">
        <ele>488.1</ele>
        <time>2017-10-22T09:51:18.999Z</time>
      </trkpt>
      <trkpt lat="47.51266" lon="6.70966">
        <ele>488.1</ele>
        <time>2017-10-22T09:51:19.999Z</time>
      </trkpt>
      <trkpt lat="47.51264" lon="6.70971">
        <ele>487.8</ele>
        <time>2017-10-22T09:51:21.999Z</time>
      </trkpt>
      <trkpt lat="47.51263" lon="6.70975">
        <ele>487.7</ele>
        <time>2017-10-22T09:51:22.999Z</time>
      </trkpt>
      <trkpt lat="47.51263" lon="6.7098">
        <ele>487.5</ele>
        <time>2017-10-22T09:51:24.999Z</time>
      </trkpt>
      <trkpt lat="47.51263" lon="6.70982">
        <ele>487.3</ele>
        <time>2017-10-22T09:51:25.999Z</time>
      </trkpt>
      <trkpt lat="47.51263" lon="6.70988">
        <ele>487</ele>
        <time>2017-10-22T09:51:27.999Z</time>
      </trkpt>
      <trkpt lat="47.51264" lon="6.7099">
        <ele>486.8</ele>
        <time>2017-10-22T09:51:28.999Z</time>
      </trkpt>
      <trkpt lat="47.51263" lon="6.70997">
        <ele>486.1</ele>
        <time>2017-10-22T09:51:32.999Z</time>
      </trkpt>
      <trkpt lat="47.51263" lon="6.70998">
        <ele>485.9</ele>
        <time>2017-10-22T09:51:33.999Z</time>
      </trkpt>
      <trkpt lat="47.51263" lon="6.71004">
        <ele>485.5</ele>
        <time>2017-10-22T09:51:35.999Z</time>
      </trkpt>
      <trkpt lat="47.51262" lon="6.71008">
        <ele>485.3</ele>
        <time>2017-10-22T09:51:36.999Z</time>
      </trkpt>
      <trkpt lat="47.51262" lon="6.71012">
        <ele>485.1</ele>
        <time>2017-10-22T09:51:37.999Z</time>
      </trkpt>
      <trkpt lat="47.51262" lon="6.71015">
        <ele>484.9</ele>
        <time>2017-10-22T09:51:38.999Z</time>
      </trkpt>
      <trkpt lat="47.51262" lon="6.71022">
        <ele>484.7</ele>
        <time>2017-10-22T09:51:39.999Z</time>
      </trkpt>
      <trkpt lat="47.51262" lon="6.71027">
        <ele>484.4</ele>
        <time>2017-10-22T09:51:40.999Z</time>
      </trkpt>
      <trkpt lat="47.51262" lon="6.71031">
        <ele>484.3</ele>
        <time>2017-10-22T09:51:41.999Z</time>
      </trkpt>
      <trkpt lat="47.51261" lon="6.71035">
        <ele>484.2</ele>
        <time>2017-10-22T09:51:42.999Z</time>
      </trkpt>
      <trkpt lat="47.51261" lon="6.71039">
        <ele>483.9</ele>
        <time>2017-10-22T09:51:43.999Z</time>
      </trkpt>
      <trkpt lat="47.51261" lon="6.71044">
        <ele>484</ele>
        <time>2017-10-22T09:51:44.999Z</time>
      </trkpt>
      <trkpt lat="47.51261" lon="6.71051">
        <ele>484.1</ele>
        <time>2017-10-22T09:51:45.999Z</time>
      </trkpt>
      <trkpt lat="47.51261" lon="6.71058">
        <ele>484.4</ele>
        <time>2017-10-22T09:51:46.999Z</time>
      </trkpt>
      <trkpt lat="47.5126" lon="6.71064">
        <ele>484.6</ele>
        <time>2017-10-22T09:51:47.999Z</time>
      </trkpt>
      <trkpt lat="47.51259" lon="6.71071">
        <ele>484.7</ele>
        <time>2017-10-22T09:51:48.999Z</time>
      </trkpt>
      <trkpt lat="47.51258" lon="6.71075">
        <ele>484.8</ele>
        <time>2017-10-22T09:51:49.999Z</time>
      </trkpt>
      <trkpt lat="47.51258" lon="6.71082">
        <ele>484.9</ele>
        <time>2017-10-22T09:51:50.999Z</time>
      </trkpt>
      <trkpt lat="47.5126" lon="6.71089">
        <ele>484.8</ele>
        <time>2017-10-22T09:51:51.999Z</time>
      </trkpt>
      <trkpt lat="47.51257" lon="6.71094">
        <ele>483.7</ele>
        <time>2017-10-22T09:51:55.999Z</time>
      </trkpt>
      <trkpt lat="47.51254" lon="6.71095">
        <ele>479.7</ele>
        <time>2017-10-22T09:51:56.999Z</time>
      </trkpt>
      <trkpt lat="47.51255" lon="6.71108">
        <ele>477.2</ele>
        <time>2017-10-22T09:51:57.999Z</time>
      </trkpt>
      <trkpt lat="47.51256" lon="6.7112">
        <ele>477.1</ele>
        <time>2017-10-22T09:51:58.999Z</time>
      </trkpt>
      <trkpt lat="47.51256" lon="6.71127">
        <ele>477</ele>
        <time>2017-10-22T09:51:59.999Z</time>
      </trkpt>
      <trkpt lat="47.51255" lon="6.71134">
        <ele>476.8</ele>
        <time>2017-10-22T09:52:00.999Z</time>
      </trkpt>
      <trkpt lat="47.51255" lon="6.7114">
        <ele>476.6</ele>
        <time>2017-10-22T09:52:01.999Z</time>
      </trkpt>
      <trkpt lat="47.51255" lon="6.71145">
        <ele>476.4</ele>
        <time>2017-10-22T09:52:02.999Z</time>
      </trkpt>
      <trkpt lat="47.51255" lon="6.71149">
        <ele>476.1</ele>
        <time>2017-10-22T09:52:03.999Z</time>
      </trkpt>
      <trkpt lat="47.51254" lon="6.71156">
        <ele>474.7</ele>
        <time>2017-10-22T09:52:04.999Z</time>
      </trkpt>
      <trkpt lat="47.51252" lon="6.71164">
        <ele>474</ele>
        <time>2017-10-22T09:52:05.999Z</time>
      </trkpt>
      <trkpt lat="47.51251" lon="6.71168">
        <ele>474</ele>
        <time>2017-10-22T09:52:06.999Z</time>
      </trkpt>
      <trkpt lat="47.51252" lon="6.71173">
        <ele>473.8</ele>
        <time>2017-10-22T09:52:07.999Z</time>
      </trkpt>
      <trkpt lat="47.51252" lon="6.71181">
        <ele>473.6</ele>
        <time>2017-10-22T09:52:08.999Z</time>
      </trkpt>
      <trkpt lat="47.51252" lon="6.71192">
        <ele>473.4</ele>
        <time>2017-10-22T09:52:09.999Z</time>
      </trkpt>
      <trkpt lat="47.51252" lon="6.71199">
        <ele>473.2</ele>
        <time>2017-10-22T09:52:10.999Z</time>
      </trkpt>
      <trkpt lat="47.51251" lon="6.71206">
        <ele>473</ele>
        <time>2017-10-22T09:52:11.999Z</time>
      </trkpt>
      <trkpt lat="47.51251" lon="6.71213">
        <ele>472.8</ele>
        <time>2017-10-22T09:52:12.999Z</time>
      </trkpt>
      <trkpt lat="47.5125" lon="6.71223">
        <ele>472.6</ele>
        <time>2017-10-22T09:52:13.999Z</time>
      </trkpt>
      <trkpt lat="47.5125" lon="6.71231">
        <ele>472.3</ele>
        <time>2017-10-22T09:52:14.999Z</time>
      </trkpt>
      <trkpt lat="47.51249" lon="6.71236">
        <ele>472</ele>
        <time>2017-10-22T09:52:15.999Z</time>
      </trkpt>
      <trkpt lat="47.51247" lon="6.71241">
        <ele>471.8</ele>
        <time>2017-10-22T09:52:16.999Z</time>
      </trkpt>
      <trkpt lat="47.51245" lon="6.71246">
        <ele>471.5</ele>
        <time>2017-10-22T09:52:17.999Z</time>
      </trkpt>
      <trkpt lat="47.51244" lon="6.71252">
        <ele>471.3</ele>
        <time>2017-10-22T09:52:18.999Z</time>
      </trkpt>
      <trkpt lat="47.51243" lon="6.71258">
        <ele>471.1</ele>
        <time>2017-10-22T09:52:19.999Z</time>
      </trkpt>
      <trkpt lat="47.51242" lon="6.71265">
        <ele>470.7</ele>
        <time>2017-10-22T09:52:20.999Z</time>
      </trkpt>
      <trkpt lat="47.51241" lon="6.71272">
        <ele>470.7</ele>
        <time>2017-10-22T09:52:21.999Z</time>
      </trkpt>
      <trkpt lat="47.51242" lon="6.71283">
        <ele>470.6</ele>
        <time>2017-10-22T09:52:22.999Z</time>
      </trkpt>
      <trkpt lat="47.51243" lon="6.71293">
        <ele>470.4</ele>
        <time>2017-10-22T09:52:23.999Z</time>
      </trkpt>
      <trkpt lat="47.51244" lon="6.71298">
        <ele>470.3</ele>
        <time>2017-10-22T09:52:24.999Z</time>
      </trkpt>
      <trkpt lat="47.51242" lon="6.71303">
        <ele>470</ele>
        <time>2017-10-22T09:52:25.999Z</time>
      </trkpt>
      <trkpt lat="47.51241" lon="6.71309">
        <ele>467.3</ele>
        <time>2017-10-22T09:52:26.999Z</time>
      </trkpt>
      <trkpt lat="47.5124" lon="6.71318">
        <ele>465.9</ele>
        <time>2017-10-22T09:52:27.999Z</time>
      </trkpt>
      <trkpt lat="47.5124" lon="6.71327">
        <ele>465</ele>
        <time>2017-10-22T09:52:28.999Z</time>
      </trkpt>
      <trkpt lat="47.51239" lon="6.71337">
        <ele>464.5</ele>
        <time>2017-10-22T09:52:29.999Z</time>
      </trkpt>
      <trkpt lat="47.51238" lon="6.71345">
        <ele>464.4</ele>
        <time>2017-10-22T09:52:30.999Z</time>
      </trkpt>
      <trkpt lat="47.51237" lon="6.7136">
        <ele>464.4</ele>
        <time>2017-10-22T09:52:31.999Z</time>
      </trkpt>
      <trkpt lat="47.51237" lon="6.71373">
        <ele>466.5</ele>
        <time>2017-10-22T09:52:32.999Z</time>
      </trkpt>
      <trkpt lat="47.51238" lon="6.71381">
        <ele>467.9</ele>
        <time>2017-10-22T09:52:33.999Z</time>
      </trkpt>
      <trkpt lat="47.5124" lon="6.71388">
        <ele>468.5</ele>
        <time>2017-10-22T09:52:34.999Z</time>
      </trkpt>
      <trkpt lat="47.5124" lon="6.71395">
        <ele>467.4</ele>
        <time>2017-10-22T09:52:35.999Z</time>
      </trkpt>
      <trkpt lat="47.51239" lon="6.71402">
        <ele>467.3</ele>
        <time>2017-10-22T09:52:36.999Z</time>
      </trkpt>
      <trkpt lat="47.5124" lon="6.7141">
        <ele>466.7</ele>
        <time>2017-10-22T09:52:37.999Z</time>
      </trkpt>
      <trkpt lat="47.51241" lon="6.71417">
        <ele>466.7</ele>
        <time>2017-10-22T09:52:38.999Z</time>
      </trkpt>
      <trkpt lat="47.5124" lon="6.71423">
        <ele>466.7</ele>
        <time>2017-10-22T09:52:39.999Z</time>
      </trkpt>
      <trkpt lat="47.51238" lon="6.71429">
        <ele>466.7</ele>
        <time>2017-10-22T09:52:40.999Z</time>
      </trkpt>
      <trkpt lat="47.51237" lon="6.71435">
        <ele>466.6</ele>
        <time>2017-10-22T09:52:41.999Z</time>
      </trkpt>
      <trkpt lat="47.51236" lon="6.71442">
        <ele>466.6</ele>
        <time>2017-10-22T09:52:42.999Z</time>
      </trkpt>
      <trkpt lat="47.51236" lon="6.71452">
        <ele>467.1</ele>
        <time>2017-10-22T09:52:43.999Z</time>
      </trkpt>
      <trkpt lat="47.51238" lon="6.7146">
        <ele>467.1</ele>
        <time>2017-10-22T09:52:44.999Z</time>
      </trkpt>
      <trkpt lat="47.51238" lon="6.71463">
        <ele>467.1</ele>
        <time>2017-10-22T09:52:45.999Z</time>
      </trkpt>
      <trkpt lat="47.51239" lon="6.71468">
        <ele>467.2</ele>
        <time>2017-10-22T09:52:46.999Z</time>
      </trkpt>
      <trkpt lat="47.51239" lon="6.71474">
        <ele>467.2</ele>
        <time>2017-10-22T09:52:47.999Z</time>
      </trkpt>
      <trkpt lat="47.5124" lon="6.71489">
        <ele>467.3</ele>
        <time>2017-10-22T09:52:48.999Z</time>
      </trkpt>
      <trkpt lat="47.51239" lon="6.71497">
        <ele>467.3</ele>
        <time>2017-10-22T09:52:49.999Z</time>
      </trkpt>
      <trkpt lat="47.51238" lon="6.71504">
        <ele>467.2</ele>
        <time>2017-10-22T09:52:50.999Z</time>
      </trkpt>
      <trkpt lat="47.51237" lon="6.71509">
        <ele>467.1</ele>
        <time>2017-10-22T09:52:51.999Z</time>
      </trkpt>
      <trkpt lat="47.51234" lon="6.71516">
        <ele>467.1</ele>
        <time>2017-10-22T09:52:52.999Z</time>
      </trkpt>
      <trkpt lat="47.51231" lon="6.71522">
        <ele>467</ele>
        <time>2017-10-22T09:52:53.999Z</time>
      </trkpt>
      <trkpt lat="47.51226" lon="6.71531">
        <ele>467</ele>
        <time>2017-10-22T09:52:54.999Z</time>
      </trkpt>
      <trkpt lat="47.51222" lon="6.71541">
        <ele>467.3</ele>
        <time>2017-10-22T09:52:55.999Z</time>
      </trkpt>
      <trkpt lat="47.5122" lon="6.71547">
        <ele>466.8</ele>
        <time>2017-10-22T09:52:56.999Z</time>
      </trkpt>
      <trkpt lat="47.51219" lon="6.71555">
        <ele>465.2</ele>
        <time>2017-10-22T09:52:57.999Z</time>
      </trkpt>
      <trkpt lat="47.51217" lon="6.71563">
        <ele>464.3</ele>
        <time>2017-10-22T09:52:58.999Z</time>
      </trkpt>
      <trkpt lat="47.51215" lon="6.71571">
        <ele>463.9</ele>
        <time>2017-10-22T09:52:59.999Z</time>
      </trkpt>
      <trkpt lat="47.51214" lon="6.71576">
        <ele>463.8</ele>
        <time>2017-10-22T09:53:00.999Z</time>
      </trkpt>
      <trkpt lat="47.51213" lon="6.71582">
        <ele>463.8</ele>
        <time>2017-10-22T09:53:01.999Z</time>
      </trkpt>
      <trkpt lat="47.51211" lon="6.71589">
        <ele>463.8</ele>
        <time>2017-10-22T09:53:02.999Z</time>
      </trkpt>
      <trkpt lat="47.5121" lon="6.71595">
        <ele>464</ele>
        <time>2017-10-22T09:53:03.999Z</time>
      </trkpt>
      <trkpt lat="47.5121" lon="6.71599">
        <ele>464.2</ele>
        <time>2017-10-22T09:53:04.999Z</time>
      </trkpt>
      <trkpt lat="47.51209" lon="6.71604">
        <ele>464.3</ele>
        <time>2017-10-22T09:53:05.999Z</time>
      </trkpt>
      <trkpt lat="47.51208" lon="6.7161">
        <ele>464.4</ele>
        <time>2017-10-22T09:53:06.999Z</time>
      </trkpt>
      <trkpt lat="47.51208" lon="6.71616">
        <ele>464.6</ele>
        <time>2017-10-22T09:53:07.999Z</time>
      </trkpt>
      <trkpt lat="47.51208" lon="6.71623">
        <ele>464.8</ele>
        <time>2017-10-22T09:53:08.999Z</time>
      </trkpt>
      <trkpt lat="47.51207" lon="6.7163">
        <ele>465</ele>
        <time>2017-10-22T09:53:09.999Z</time>
      </trkpt>
      <trkpt lat="47.51207" lon="6.71639">
        <ele>465.2</ele>
        <time>2017-10-22T09:53:10.999Z</time>
      </trkpt>
      <trkpt lat="47.51208" lon="6.71645">
        <ele>465.4</ele>
        <time>2017-10-22T09:53:11.999Z</time>
      </trkpt>
      <trkpt lat="47.51209" lon="6.71652">
        <ele>465.6</ele>
        <time>2017-10-22T09:53:12.999Z</time>
      </trkpt>
      <trkpt lat="47.51211" lon="6.71664">
        <ele>465.9</ele>
        <time>2017-10-22T09:53:13.999Z</time>
      </trkpt>
      <trkpt lat="47.51212" lon="6.71671">
        <ele>466</ele>
        <time>2017-10-22T09:53:14.999Z</time>
      </trkpt>
      <trkpt lat="47.51214" lon="6.71677">
        <ele>466</ele>
        <time>2017-10-22T09:53:15.999Z</time>
      </trkpt>
      <trkpt lat="47.51218" lon="6.7169">
        <ele>466.3</ele>
        <time>2017-10-22T09:53:16.999Z</time>
      </trkpt>
      <trkpt lat="47.51217" lon="6.71701">
        <ele>466.3</ele>
        <time>2017-10-22T09:53:17.999Z</time>
      </trkpt>
      <trkpt lat="47.51215" lon="6.71708">
        <ele>466.4</ele>
        <time>2017-10-22T09:53:18.999Z</time>
      </trkpt>
      <trkpt lat="47.51214" lon="6.71715">
        <ele>466.5</ele>
        <time>2017-10-22T09:53:19.999Z</time>
      </trkpt>
      <trkpt lat="47.51214" lon="6.71721">
        <ele>466.6</ele>
        <time>2017-10-22T09:53:20.999Z</time>
      </trkpt>
      <trkpt lat="47.51213" lon="6.71728">
        <ele>468.4</ele>
        <time>2017-10-22T09:53:21.999Z</time>
      </trkpt>
      <trkpt lat="47.51211" lon="6.71734">
        <ele>468.6</ele>
        <time>2017-10-22T09:53:22.999Z</time>
      </trkpt>
      <trkpt lat="47.5121" lon="6.7174">
        <ele>468.7</ele>
        <time>2017-10-22T09:53:23.999Z</time>
      </trkpt>
      <trkpt lat="47.51211" lon="6.71747">
        <ele>469.8</ele>
        <time>2017-10-22T09:53:24.999Z</time>
      </trkpt>
      <trkpt lat="47.51213" lon="6.71753">
        <ele>470</ele>
        <time>2017-10-22T09:53:25.999Z</time>
      </trkpt>
      <trkpt lat="47.51214" lon="6.71759">
        <ele>470</ele>
        <time>2017-10-22T09:53:26.999Z</time>
      </trkpt>
      <trkpt lat="47.51214" lon="6.71766">
        <ele>470.1</ele>
        <time>2017-10-22T09:53:27.999Z</time>
      </trkpt>
      <trkpt lat="47.51214" lon="6.71771">
        <ele>470.1</ele>
        <time>2017-10-22T09:53:28.999Z</time>
      </trkpt>
      <trkpt lat="47.51214" lon="6.71786">
        <ele>470.3</ele>
        <time>2017-10-22T09:53:29.999Z</time>
      </trkpt>
      <trkpt lat="47.51214" lon="6.71795">
        <ele>470.4</ele>
        <time>2017-10-22T09:53:30.999Z</time>
      </trkpt>
      <trkpt lat="47.51214" lon="6.71804">
        <ele>470.6</ele>
        <time>2017-10-22T09:53:31.999Z</time>
      </trkpt>
      <trkpt lat="47.51214" lon="6.7181">
        <ele>470.8</ele>
        <time>2017-10-22T09:53:32.999Z</time>
      </trkpt>
      <trkpt lat="47.51216" lon="6.71815">
        <ele>470.9</ele>
        <time>2017-10-22T09:53:33.999Z</time>
      </trkpt>
      <trkpt lat="47.51218" lon="6.7182">
        <ele>470.9</ele>
        <time>2017-10-22T09:53:34.999Z</time>
      </trkpt>
      <trkpt lat="47.51221" lon="6.71828">
        <ele>470.9</ele>
        <time>2017-10-22T09:53:35.999Z</time>
      </trkpt>
      <trkpt lat="47.51223" lon="6.71837">
        <ele>470.9</ele>
        <time>2017-10-22T09:53:36.999Z</time>
      </trkpt>
      <trkpt lat="47.51224" lon="6.71842">
        <ele>470.8</ele>
        <time>2017-10-22T09:53:37.999Z</time>
      </trkpt>
      <trkpt lat="47.51223" lon="6.71847">
        <ele>470.8</ele>
        <time>2017-10-22T09:53:38.999Z</time>
      </trkpt>
      <trkpt lat="47.51225" lon="6.71852">
        <ele>470.8</ele>
        <time>2017-10-22T09:53:39.999Z</time>
      </trkpt>
      <trkpt lat="47.51225" lon="6.71857">
        <ele>470.7</ele>
        <time>2017-10-22T09:53:40.999Z</time>
      </trkpt>
      <trkpt lat="47.51225" lon="6.71862">
        <ele>470.5</ele>
        <time>2017-10-22T09:53:41.999Z</time>
      </trkpt>
      <trkpt lat="47.51226" lon="6.7187">
        <ele>470.4</ele>
        <time>2017-10-22T09:53:42.999Z</time>
      </trkpt>
      <trkpt lat="47.51227" lon="6.71873">
        <ele>470.2</ele>
        <time>2017-10-22T09:53:43.999Z</time>
      </trkpt>
      <trkpt lat="47.51229" lon="6.71883">
        <ele>469.8</ele>
        <time>2017-10-22T09:53:45.999Z</time>
      </trkpt>
      <trkpt lat="47.51228" lon="6.71892">
        <ele>469.6</ele>
        <time>2017-10-22T09:53:46.999Z</time>
      </trkpt>
      <trkpt lat="47.51229" lon="6.719">
        <ele>469.5</ele>
        <time>2017-10-22T09:53:47.999Z</time>
      </trkpt>
      <trkpt lat="47.5123" lon="6.71905">
        <ele>469</ele>
        <time>2017-10-22T09:53:49.999Z</time>
      </trkpt>
      <trkpt lat="47.5123" lon="6.71907">
        <ele>468.7</ele>
        <time>2017-10-22T09:53:50.999Z</time>
      </trkpt>
      <trkpt lat="47.51232" lon="6.7191">
        <ele>468.4</ele>
        <time>2017-10-22T09:53:51.999Z</time>
      </trkpt>
      <trkpt lat="47.51233" lon="6.71914">
        <ele>468.2</ele>
        <time>2017-10-22T09:53:52.999Z</time>
      </trkpt>
      <trkpt lat="47.51233" lon="6.71919">
        <ele>468.3</ele>
        <time>2017-10-22T09:53:53.999Z</time>
      </trkpt>
      <trkpt lat="47.51234" lon="6.71924">
        <ele>468.4</ele>
        <time>2017-10-22T09:53:54.999Z</time>
      </trkpt>
      <trkpt lat="47.51235" lon="6.7193">
        <ele>468.4</ele>
        <time>2017-10-22T09:53:55.999Z</time>
      </trkpt>
      <trkpt lat="47.51235" lon="6.71937">
        <ele>468.5</ele>
        <time>2017-10-22T09:53:56.999Z</time>
      </trkpt>
      <trkpt lat="47.51236" lon="6.71944">
        <ele>469.3</ele>
        <time>2017-10-22T09:53:57.999Z</time>
      </trkpt>
      <trkpt lat="47.51236" lon="6.71953">
        <ele>469.5</ele>
        <time>2017-10-22T09:53:58.999Z</time>
      </trkpt>
      <trkpt lat="47.51237" lon="6.71962">
        <ele>471.7</ele>
        <time>2017-10-22T09:53:59.999Z</time>
      </trkpt>
      <trkpt lat="47.51237" lon="6.71971">
        <ele>472.5</ele>
        <time>2017-10-22T09:54:00.999Z</time>
      </trkpt>
      <trkpt lat="47.51237" lon="6.71979">
        <ele>472.5</ele>
        <time>2017-10-22T09:54:01.999Z</time>
      </trkpt>
      <trkpt lat="47.51236" lon="6.71987">
        <ele>472.5</ele>
        <time>2017-10-22T09:54:02.999Z</time>
      </trkpt>
      <trkpt lat="47.51236" lon="6.71995">
        <ele>472.7</ele>
        <time>2017-10-22T09:54:03.999Z</time>
      </trkpt>
      <trkpt lat="47.51235" lon="6.72003">
        <ele>472.8</ele>
        <time>2017-10-22T09:54:04.999Z</time>
      </trkpt>
      <trkpt lat="47.51234" lon="6.72012">
        <ele>474.1</ele>
        <time>2017-10-22T09:54:05.999Z</time>
      </trkpt>
      <trkpt lat="47.51232" lon="6.72021">
        <ele>475.6</ele>
        <time>2017-10-22T09:54:06.999Z</time>
      </trkpt>
      <trkpt lat="47.51228" lon="6.72037">
        <ele>476.5</ele>
        <time>2017-10-22T09:54:07.999Z</time>
      </trkpt>
      <trkpt lat="47.51229" lon="6.72045">
        <ele>476.4</ele>
        <time>2017-10-22T09:54:08.999Z</time>
      </trkpt>
      <trkpt lat="47.5123" lon="6.72051">
        <ele>476.2</ele>
        <time>2017-10-22T09:54:09.999Z</time>
      </trkpt>
      <trkpt lat="47.51231" lon="6.72059">
        <ele>475</ele>
        <time>2017-10-22T09:54:10.999Z</time>
      </trkpt>
      <trkpt lat="47.51233" lon="6.72066">
        <ele>474.9</ele>
        <time>2017-10-22T09:54:11.999Z</time>
      </trkpt>
      <trkpt lat="47.51233" lon="6.72073">
        <ele>474.8</ele>
        <time>2017-10-22T09:54:12.999Z</time>
      </trkpt>
      <trkpt lat="47.51232" lon="6.72081">
        <ele>474.6</ele>
        <time>2017-10-22T09:54:13.999Z</time>
      </trkpt>
      <trkpt lat="47.51232" lon="6.72088">
        <ele>473.1</ele>
        <time>2017-10-22T09:54:14.999Z</time>
      </trkpt>
      <trkpt lat="47.51232" lon="6.72097">
        <ele>471.6</ele>
        <time>2017-10-22T09:54:15.999Z</time>
      </trkpt>
      <trkpt lat="47.51231" lon="6.72105">
        <ele>470.5</ele>
        <time>2017-10-22T09:54:16.999Z</time>
      </trkpt>
      <trkpt lat="47.5123" lon="6.72114">
        <ele>470.3</ele>
        <time>2017-10-22T09:54:17.999Z</time>
      </trkpt>
      <trkpt lat="47.5123" lon="6.72125">
        <ele>470.3</ele>
        <time>2017-10-22T09:54:18.999Z</time>
      </trkpt>
      <trkpt lat="47.51231" lon="6.72131">
        <ele>470.3</ele>
        <time>2017-10-22T09:54:19.999Z</time>
      </trkpt>
      <trkpt lat="47.51231" lon="6.72142">
        <ele>470.1</ele>
        <time>2017-10-22T09:54:20.999Z</time>
      </trkpt>
      <trkpt lat="47.51231" lon="6.72154">
        <ele>469.8</ele>
        <time>2017-10-22T09:54:21.999Z</time>
      </trkpt>
      <trkpt lat="47.51231" lon="6.72164">
        <ele>469.7</ele>
        <time>2017-10-22T09:54:22.999Z</time>
      </trkpt>
      <trkpt lat="47.5123" lon="6.72171">
        <ele>469.7</ele>
        <time>2017-10-22T09:54:23.999Z</time>
      </trkpt>
      <trkpt lat="47.5123" lon="6.72176">
        <ele>469.6</ele>
        <time>2017-10-22T09:54:24.999Z</time>
      </trkpt>
      <trkpt lat="47.51228" lon="6.72183">
        <ele>469.6</ele>
        <time>2017-10-22T09:54:25.999Z</time>
      </trkpt>
      <trkpt lat="47.51226" lon="6.72193">
        <ele>469.5</ele>
        <time>2017-10-22T09:54:26.999Z</time>
      </trkpt>
      <trkpt lat="47.51227" lon="6.72204">
        <ele>469.4</ele>
        <time>2017-10-22T09:54:27.999Z</time>
      </trkpt>
      <trkpt lat="47.51228" lon="6.72211">
        <ele>468.2</ele>
        <time>2017-10-22T09:54:28.999Z</time>
      </trkpt>
      <trkpt lat="47.51228" lon="6.72222">
        <ele>467.5</ele>
        <time>2017-10-22T09:54:29.999Z</time>
      </trkpt>
      <trkpt lat="47.51229" lon="6.72228">
        <ele>467.8</ele>
        <time>2017-10-22T09:54:30.999Z</time>
      </trkpt>
      <trkpt lat="47.5123" lon="6.72237">
        <ele>468.1</ele>
        <time>2017-10-22T09:54:31.999Z</time>
      </trkpt>
      <trkpt lat="47.51231" lon="6.72245">
        <ele>468.2</ele>
        <time>2017-10-22T09:54:32.999Z</time>
      </trkpt>
      <trkpt lat="47.51231" lon="6.72253">
        <ele>468.1</ele>
        <time>2017-10-22T09:54:33.999Z</time>
      </trkpt>
      <trkpt lat="47.5123" lon="6.72263">
        <ele>468.9</ele>
        <time>2017-10-22T09:54:34.999Z</time>
      </trkpt>
      <trkpt lat="47.5123" lon="6.72273">
        <ele>469</ele>
        <time>2017-10-22T09:54:35.999Z</time>
      </trkpt>
      <trkpt lat="47.51229" lon="6.72281">
        <ele>468.5</ele>
        <time>2017-10-22T09:54:36.999Z</time>
      </trkpt>
      <trkpt lat="47.51229" lon="6.72287">
        <ele>468.5</ele>
        <time>2017-10-22T09:54:37.999Z</time>
      </trkpt>
      <trkpt lat="47.51228" lon="6.72294">
        <ele>468.2</ele>
        <time>2017-10-22T09:54:38.999Z</time>
      </trkpt>
      <trkpt lat="47.51228" lon="6.723">
        <ele>468.6</ele>
        <time>2017-10-22T09:54:39.999Z</time>
      </trkpt>
      <trkpt lat="47.51228" lon="6.72307">
        <ele>468.2</ele>
        <time>2017-10-22T09:54:40.999Z</time>
      </trkpt>
      <trkpt lat="47.51227" lon="6.72315">
        <ele>467.1</ele>
        <time>2017-10-22T09:54:42.000Z</time>
      </trkpt>
      <trkpt lat="47.51225" lon="6.72323">
        <ele>466</ele>
        <time>2017-10-22T09:54:42.999Z</time>
      </trkpt>
      <trkpt lat="47.51224" lon="6.72332">
        <ele>465.8</ele>
        <time>2017-10-22T09:54:43.999Z</time>
      </trkpt>
      <trkpt lat="47.51223" lon="6.7234">
        <ele>465.4</ele>
        <time>2017-10-22T09:54:45.000Z</time>
      </trkpt>
      <trkpt lat="47.51222" lon="6.72349">
        <ele>464.5</ele>
        <time>2017-10-22T09:54:46.000Z</time>
      </trkpt>
      <trkpt lat="47.51221" lon="6.72358">
        <ele>463.8</ele>
        <time>2017-10-22T09:54:47.000Z</time>
      </trkpt>
      <trkpt lat="47.5122" lon="6.72368">
        <ele>463.1</ele>
        <time>2017-10-22T09:54:48.000Z</time>
      </trkpt>
      <trkpt lat="47.51218" lon="6.72376">
        <ele>462.6</ele>
        <time>2017-10-22T09:54:49.000Z</time>
      </trkpt>
      <trkpt lat="47.51216" lon="6.72383">
        <ele>462</ele>
        <time>2017-10-22T09:54:50.000Z</time>
      </trkpt>
      <trkpt lat="47.51214" lon="6.72391">
        <ele>461.9</ele>
        <time>2017-10-22T09:54:51.000Z</time>
      </trkpt>
      <trkpt lat="47.51209" lon="6.72403">
        <ele>461.6</ele>
        <time>2017-10-22T09:54:52.000Z</time>
      </trkpt>
      <trkpt lat="47.51207" lon="6.72415">
        <ele>459.2</ele>
        <time>2017-10-22T09:54:53.000Z</time>
      </trkpt>
      <trkpt lat="47.51204" lon="6.72426">
        <ele>459.1</ele>
        <time>2017-10-22T09:54:54.000Z</time>
      </trkpt>
      <trkpt lat="47.51202" lon="6.72436">
        <ele>458.9</ele>
        <time>2017-10-22T09:54:55.000Z</time>
      </trkpt>
      <trkpt lat="47.512" lon="6.72445">
        <ele>456.9</ele>
        <time>2017-10-22T09:54:56.000Z</time>
      </trkpt>
      <trkpt lat="47.51196" lon="6.72454">
        <ele>455.4</ele>
        <time>2017-10-22T09:54:57.000Z</time>
      </trkpt>
      <trkpt lat="47.51195" lon="6.72458">
        <ele>455.2</ele>
        <time>2017-10-22T09:54:58.000Z</time>
      </trkpt>
      <trkpt lat="47.51192" lon="6.72463">
        <ele>455</ele>
        <time>2017-10-22T09:54:59.000Z</time>
      </trkpt>
      <trkpt lat="47.51192" lon="6.72466">
        <ele>454.8</ele>
        <time>2017-10-22T09:55:00.000Z</time>
      </trkpt>
      <trkpt lat="47.51189" lon="6.72473">
        <ele>454.7</ele>
        <time>2017-10-22T09:55:01.000Z</time>
      </trkpt>
      <trkpt lat="47.51185" lon="6.7248">
        <ele>454.5</ele>
        <time>2017-10-22T09:55:02.000Z</time>
      </trkpt>
      <trkpt lat="47.51183" lon="6.72487">
        <ele>454.4</ele>
        <time>2017-10-22T09:55:03.000Z</time>
      </trkpt>
      <trkpt lat="47.51179" lon="6.72495">
        <ele>453.6</ele>
        <time>2017-10-22T09:55:04.000Z</time>
      </trkpt>
      <trkpt lat="47.51177" lon="6.72503">
        <ele>453.4</ele>
        <time>2017-10-22T09:55:05.000Z</time>
      </trkpt>
      <trkpt lat="47.51174" lon="6.7251">
        <ele>453</ele>
        <time>2017-10-22T09:55:06.000Z</time>
      </trkpt>
      <trkpt lat="47.51171" lon="6.72518">
        <ele>453.4</ele>
        <time>2017-10-22T09:55:07.000Z</time>
      </trkpt>
      <trkpt lat="47.51167" lon="6.7253">
        <ele>454.5</ele>
        <time>2017-10-22T09:55:08.000Z</time>
      </trkpt>
      <trkpt lat="47.51164" lon="6.72532">
        <ele>455</ele>
        <time>2017-10-22T09:55:11.000Z</time>
      </trkpt>
      <trkpt lat="47.51163" lon="6.72533">
        <ele>455</ele>
        <time>2017-10-22T09:55:12.000Z</time>
      </trkpt>
      <trkpt lat="47.51159" lon="6.72536">
        <ele>455.2</ele>
        <time>2017-10-22T09:55:13.000Z</time>
      </trkpt>
      <trkpt lat="47.51158" lon="6.72537">
        <ele>455.2</ele>
        <time>2017-10-22T09:55:14.000Z</time>
      </trkpt>
      <trkpt lat="47.51156" lon="6.72539">
        <ele>460</ele>
        <time>2017-10-22T09:56:52.000Z</time>
      </trkpt>
      <trkpt lat="47.51155" lon="6.72542">
        <ele>459.9</ele>
        <time>2017-10-22T09:56:53.000Z</time>
      </trkpt>
      <trkpt lat="47.51153" lon="6.72545">
        <ele>460</ele>
        <time>2017-10-22T09:56:54.000Z</time>
      </trkpt>
      <trkpt lat="47.51153" lon="6.72549">
        <ele>460.1</ele>
        <time>2017-10-22T09:56:55.000Z</time>
      </trkpt>
      <trkpt lat="47.5115" lon="6.72555">
        <ele>460.3</ele>
        <time>2017-10-22T09:56:56.000Z</time>
      </trkpt>
      <trkpt lat="47.51148" lon="6.7256">
        <ele>460.4</ele>
        <time>2017-10-22T09:56:57.000Z</time>
      </trkpt>
      <trkpt lat="47.51147" lon="6.72566">
        <ele>460.4</ele>
        <time>2017-10-22T09:56:58.000Z</time>
      </trkpt>
      <trkpt lat="47.51145" lon="6.72571">
        <ele>460.5</ele>
        <time>2017-10-22T09:56:59.000Z</time>
      </trkpt>
      <trkpt lat="47.5114" lon="6.72579">
        <ele>460.6</ele>
        <time>2017-10-22T09:57:00.000Z</time>
      </trkpt>
      <trkpt lat="47.51135" lon="6.72584">
        <ele>460.6</ele>
        <time>2017-10-22T09:57:01.000Z</time>
      </trkpt>
      <trkpt lat="47.51131" lon="6.7259">
        <ele>460.7</ele>
        <time>2017-10-22T09:57:02.000Z</time>
      </trkpt>
      <trkpt lat="47.51126" lon="6.72595">
        <ele>460.6</ele>
        <time>2017-10-22T09:57:03.000Z</time>
      </trkpt>
      <trkpt lat="47.51123" lon="6.72597">
        <ele>460.7</ele>
        <time>2017-10-22T09:57:04.000Z</time>
      </trkpt>
      <trkpt lat="47.5112" lon="6.72599">
        <ele>460.9</ele>
        <time>2017-10-22T09:57:05.000Z</time>
      </trkpt>
      <trkpt lat="47.51116" lon="6.72601">
        <ele>461</ele>
        <time>2017-10-22T09:57:06.000Z</time>
      </trkpt>
      <trkpt lat="47.5111" lon="6.72605">
        <ele>460.8</ele>
        <time>2017-10-22T09:57:07.000Z</time>
      </trkpt>
      <trkpt lat="47.51104" lon="6.72609">
        <ele>460.7</ele>
        <time>2017-10-22T09:57:08.000Z</time>
      </trkpt>
      <trkpt lat="47.511" lon="6.72615">
        <ele>460.7</ele>
        <time>2017-10-22T09:57:09.000Z</time>
      </trkpt>
      <trkpt lat="47.51097" lon="6.72619">
        <ele>460.7</ele>
        <time>2017-10-22T09:57:10.000Z</time>
      </trkpt>
      <trkpt lat="47.51093" lon="6.72623">
        <ele>460.7</ele>
        <time>2017-10-22T09:57:11.000Z</time>
      </trkpt>
      <trkpt lat="47.51089" lon="6.72629">
        <ele>460.6</ele>
        <time>2017-10-22T09:57:12.000Z</time>
      </trkpt>
      <trkpt lat="47.51084" lon="6.72632">
        <ele>460.5</ele>
        <time>2017-10-22T09:57:13.000Z</time>
      </trkpt>
      <trkpt lat="47.51079" lon="6.72634">
        <ele>460.3</ele>
        <time>2017-10-22T09:57:14.000Z</time>
      </trkpt>
      <trkpt lat="47.51073" lon="6.72639">
        <ele>460.2</ele>
        <time>2017-10-22T09:57:15.000Z</time>
      </trkpt>
      <trkpt lat="47.5107" lon="6.72642">
        <ele>460.1</ele>
        <time>2017-10-22T09:57:16.000Z</time>
      </trkpt>
      <trkpt lat="47.51065" lon="6.72646">
        <ele>460.1</ele>
        <time>2017-10-22T09:57:17.000Z</time>
      </trkpt>
      <trkpt lat="47.51061" lon="6.7265">
        <ele>460.1</ele>
        <time>2017-10-22T09:57:18.000Z</time>
      </trkpt>
      <trkpt lat="47.51056" lon="6.72654">
        <ele>460</ele>
        <time>2017-10-22T09:57:19.000Z</time>
      </trkpt>
      <trkpt lat="47.51051" lon="6.72658">
        <ele>460</ele>
        <time>2017-10-22T09:57:20.000Z</time>
      </trkpt>
      <trkpt lat="47.51047" lon="6.72661">
        <ele>460</ele>
        <time>2017-10-22T09:57:21.000Z</time>
      </trkpt>
      <trkpt lat="47.51043" lon="6.72663">
        <ele>459.9</ele>
        <time>2017-10-22T09:57:22.000Z</time>
      </trkpt>
      <trkpt lat="47.51038" lon="6.72667">
        <ele>459.8</ele>
        <time>2017-10-22T09:57:23.000Z</time>
      </trkpt>
      <trkpt lat="47.51034" lon="6.72671">
        <ele>459.8</ele>
        <time>2017-10-22T09:57:24.000Z</time>
      </trkpt>
      <trkpt lat="47.5103" lon="6.72676">
        <ele>459.8</ele>
        <time>2017-10-22T09:57:25.000Z</time>
      </trkpt>
      <trkpt lat="47.51026" lon="6.7268">
        <ele>459.8</ele>
        <time>2017-10-22T09:57:26.000Z</time>
      </trkpt>
      <trkpt lat="47.51021" lon="6.72682">
        <ele>459.7</ele>
        <time>2017-10-22T09:57:27.000Z</time>
      </trkpt>
      <trkpt lat="47.51016" lon="6.72685">
        <ele>459.7</ele>
        <time>2017-10-22T09:57:28.000Z</time>
      </trkpt>
      <trkpt lat="47.51012" lon="6.7269">
        <ele>459.7</ele>
        <time>2017-10-22T09:57:29.000Z</time>
      </trkpt>
      <trkpt lat="47.51008" lon="6.72693">
        <ele>459.7</ele>
        <time>2017-10-22T09:57:30.000Z</time>
      </trkpt>
      <trkpt lat="47.51005" lon="6.72697">
        <ele>459.7</ele>
        <time>2017-10-22T09:57:31.000Z</time>
      </trkpt>
      <trkpt lat="47.51001" lon="6.72702">
        <ele>459.7</ele>
        <time>2017-10-22T09:57:32.000Z</time>
      </trkpt>
      <trkpt lat="47.50998" lon="6.72706">
        <ele>459.7</ele>
        <time>2017-10-22T09:57:33.000Z</time>
      </trkpt>
      <trkpt lat="47.50997" lon="6.72708">
        <ele>459.6</ele>
        <time>2017-10-22T09:57:34.000Z</time>
      </trkpt>
      <trkpt lat="47.50994" lon="6.72711">
        <ele>459.5</ele>
        <time>2017-10-22T09:57:36.000Z</time>
      </trkpt>
      <trkpt lat="47.5099" lon="6.72715">
        <ele>459.4</ele>
        <time>2017-10-22T09:57:37.000Z</time>
      </trkpt>
      <trkpt lat="47.50988" lon="6.72716">
        <ele>459.2</ele>
        <time>2017-10-22T09:57:38.000Z</time>
      </trkpt>
      <trkpt lat="47.50986" lon="6.72717">
        <ele>459.2</ele>
        <time>2017-10-22T09:57:39.000Z</time>
      </trkpt>
      <trkpt lat="47.50983" lon="6.72719">
        <ele>459.1</ele>
        <time>2017-10-22T09:57:40.000Z</time>
      </trkpt>
      <trkpt lat="47.5098" lon="6.72722">
        <ele>458.9</ele>
        <time>2017-10-22T09:57:41.000Z</time>
      </trkpt>
      <trkpt lat="47.50976" lon="6.72726">
        <ele>458.7</ele>
        <time>2017-10-22T09:57:42.000Z</time>
      </trkpt>
      <trkpt lat="47.50973" lon="6.72732">
        <ele>458.7</ele>
        <time>2017-10-22T09:57:43.000Z</time>
      </trkpt>
      <trkpt lat="47.50969" lon="6.72738">
        <ele>458.6</ele>
        <time>2017-10-22T09:57:44.000Z</time>
      </trkpt>
      <trkpt lat="47.50968" lon="6.72742">
        <ele>458.4</ele>
        <time>2017-10-22T09:57:45.000Z</time>
      </trkpt>
      <trkpt lat="47.50965" lon="6.72748">
        <ele>458.2</ele>
        <time>2017-10-22T09:57:46.000Z</time>
      </trkpt>
      <trkpt lat="47.50961" lon="6.72751">
        <ele>458</ele>
        <time>2017-10-22T09:57:47.000Z</time>
      </trkpt>
      <trkpt lat="47.50959" lon="6.72753">
        <ele>457.9</ele>
        <time>2017-10-22T09:57:48.000Z</time>
      </trkpt>
      <trkpt lat="47.50955" lon="6.72757">
        <ele>457.7</ele>
        <time>2017-10-22T09:57:49.000Z</time>
      </trkpt>
      <trkpt lat="47.50954" lon="6.7276">
        <ele>457.6</ele>
        <time>2017-10-22T09:57:50.000Z</time>
      </trkpt>
      <trkpt lat="47.5095" lon="6.72769">
        <ele>457.4</ele>
        <time>2017-10-22T09:57:51.000Z</time>
      </trkpt>
      <trkpt lat="47.50947" lon="6.72777">
        <ele>455</ele>
        <time>2017-10-22T09:57:52.000Z</time>
      </trkpt>
      <trkpt lat="47.50946" lon="6.72783">
        <ele>454.8</ele>
        <time>2017-10-22T09:57:53.000Z</time>
      </trkpt>
      <trkpt lat="47.50942" lon="6.72791">
        <ele>454.7</ele>
        <time>2017-10-22T09:57:54.000Z</time>
      </trkpt>
      <trkpt lat="47.50941" lon="6.72798">
        <ele>454.8</ele>
        <time>2017-10-22T09:57:55.000Z</time>
      </trkpt>
      <trkpt lat="47.50939" lon="6.72806">
        <ele>454.9</ele>
        <time>2017-10-22T09:57:56.000Z</time>
      </trkpt>
      <trkpt lat="47.50937" lon="6.7281">
        <ele>455</ele>
        <time>2017-10-22T09:57:57.000Z</time>
      </trkpt>
      <trkpt lat="47.50934" lon="6.72815">
        <ele>455</ele>
        <time>2017-10-22T09:57:58.000Z</time>
      </trkpt>
      <trkpt lat="47.50933" lon="6.7282">
        <ele>454.9</ele>
        <time>2017-10-22T09:57:59.000Z</time>
      </trkpt>
      <trkpt lat="47.50931" lon="6.72825">
        <ele>455</ele>
        <time>2017-10-22T09:58:00.000Z</time>
      </trkpt>
      <trkpt lat="47.5093" lon="6.7283">
        <ele>455.3</ele>
        <time>2017-10-22T09:58:01.000Z</time>
      </trkpt>
      <trkpt lat="47.50928" lon="6.72837">
        <ele>455.5</ele>
        <time>2017-10-22T09:58:02.000Z</time>
      </trkpt>
      <trkpt lat="47.50925" lon="6.72843">
        <ele>455.7</ele>
        <time>2017-10-22T09:58:03.000Z</time>
      </trkpt>
      <trkpt lat="47.50923" lon="6.72848">
        <ele>455.9</ele>
        <time>2017-10-22T09:58:04.000Z</time>
      </trkpt>
      <trkpt lat="47.50921" lon="6.72852">
        <ele>456</ele>
        <time>2017-10-22T09:58:05.000Z</time>
      </trkpt>
      <trkpt lat="47.50919" lon="6.72857">
        <ele>456.3</ele>
        <time>2017-10-22T09:58:06.000Z</time>
      </trkpt>
      <trkpt lat="47.50915" lon="6.7286">
        <ele>456.5</ele>
        <time>2017-10-22T09:58:07.000Z</time>
      </trkpt>
      <trkpt lat="47.50914" lon="6.72862">
        <ele>456.6</ele>
        <time>2017-10-22T09:58:08.000Z</time>
      </trkpt>
      <trkpt lat="47.50911" lon="6.72867">
        <ele>456.9</ele>
        <time>2017-10-22T09:58:09.000Z</time>
      </trkpt>
      <trkpt lat="47.50909" lon="6.72871">
        <ele>457.1</ele>
        <time>2017-10-22T09:58:10.000Z</time>
      </trkpt>
      <trkpt lat="47.50908" lon="6.72875">
        <ele>457.2</ele>
        <time>2017-10-22T09:58:11.000Z</time>
      </trkpt>
      <trkpt lat="47.50907" lon="6.7288">
        <ele>457.4</ele>
        <time>2017-10-22T09:58:12.000Z</time>
      </trkpt>
      <trkpt lat="47.50906" lon="6.72884">
        <ele>457.5</ele>
        <time>2017-10-22T09:58:13.000Z</time>
      </trkpt>
      <trkpt lat="47.50906" lon="6.72888">
        <ele>457.7</ele>
        <time>2017-10-22T09:58:14.000Z</time>
      </trkpt>
      <trkpt lat="47.50905" lon="6.72893">
        <ele>457.9</ele>
        <time>2017-10-22T09:58:15.000Z</time>
      </trkpt>
      <trkpt lat="47.50903" lon="6.72897">
        <ele>458.1</ele>
        <time>2017-10-22T09:58:16.000Z</time>
      </trkpt>
      <trkpt lat="47.50901" lon="6.72901">
        <ele>458.2</ele>
        <time>2017-10-22T09:58:17.000Z</time>
      </trkpt>
      <trkpt lat="47.509" lon="6.72903">
        <ele>458.4</ele>
        <time>2017-10-22T09:58:20.000Z</time>
      </trkpt>
      <trkpt lat="47.50899" lon="6.72907">
        <ele>458.6</ele>
        <time>2017-10-22T09:58:21.000Z</time>
      </trkpt>
      <trkpt lat="47.50897" lon="6.72912">
        <ele>458.7</ele>
        <time>2017-10-22T09:58:22.000Z</time>
      </trkpt>
      <trkpt lat="47.50895" lon="6.72919">
        <ele>460.5</ele>
        <time>2017-10-22T09:58:23.000Z</time>
      </trkpt>
      <trkpt lat="47.50893" lon="6.72927">
        <ele>462.2</ele>
        <time>2017-10-22T09:58:24.000Z</time>
      </trkpt>
      <trkpt lat="47.50891" lon="6.72936">
        <ele>464.1</ele>
        <time>2017-10-22T09:58:25.000Z</time>
      </trkpt>
      <trkpt lat="47.50888" lon="6.72949">
        <ele>464.9</ele>
        <time>2017-10-22T09:58:26.000Z</time>
      </trkpt>
      <trkpt lat="47.50886" lon="6.7296">
        <ele>465.7</ele>
        <time>2017-10-22T09:58:27.000Z</time>
      </trkpt>
      <trkpt lat="47.50883" lon="6.72971">
        <ele>466.5</ele>
        <time>2017-10-22T09:58:28.000Z</time>
      </trkpt>
      <trkpt lat="47.5088" lon="6.72982">
        <ele>467.5</ele>
        <time>2017-10-22T09:58:29.000Z</time>
      </trkpt>
      <trkpt lat="47.50878" lon="6.72993">
        <ele>468.3</ele>
        <time>2017-10-22T09:58:30.000Z</time>
      </trkpt>
      <trkpt lat="47.50875" lon="6.73004">
        <ele>468.9</ele>
        <time>2017-10-22T09:58:31.000Z</time>
      </trkpt>
      <trkpt lat="47.50873" lon="6.73016">
        <ele>469.9</ele>
        <time>2017-10-22T09:58:32.000Z</time>
      </trkpt>
      <trkpt lat="47.50871" lon="6.73026">
        <ele>469.6</ele>
        <time>2017-10-22T09:58:33.000Z</time>
      </trkpt>
      <trkpt lat="47.50868" lon="6.73036">
        <ele>469.4</ele>
        <time>2017-10-22T09:58:34.000Z</time>
      </trkpt>
      <trkpt lat="47.50866" lon="6.73046">
        <ele>469.4</ele>
        <time>2017-10-22T09:58:35.000Z</time>
      </trkpt>
      <trkpt lat="47.50864" lon="6.73056">
        <ele>468.3</ele>
        <time>2017-10-22T09:58:36.000Z</time>
      </trkpt>
      <trkpt lat="47.50863" lon="6.73066">
        <ele>467.4</ele>
        <time>2017-10-22T09:58:37.000Z</time>
      </trkpt>
      <trkpt lat="47.50861" lon="6.73075">
        <ele>467.1</ele>
        <time>2017-10-22T09:58:38.000Z</time>
      </trkpt>
      <trkpt lat="47.50859" lon="6.73084">
        <ele>466</ele>
        <time>2017-10-22T09:58:39.000Z</time>
      </trkpt>
      <trkpt lat="47.50857" lon="6.73092">
        <ele>464.2</ele>
        <time>2017-10-22T09:58:40.000Z</time>
      </trkpt>
      <trkpt lat="47.50855" lon="6.73099">
        <ele>462.7</ele>
        <time>2017-10-22T09:58:41.000Z</time>
      </trkpt>
      <trkpt lat="47.50853" lon="6.73107">
        <ele>461.7</ele>
        <time>2017-10-22T09:58:42.000Z</time>
      </trkpt>
      <trkpt lat="47.50851" lon="6.73116">
        <ele>460</ele>
        <time>2017-10-22T09:58:43.000Z</time>
      </trkpt>
      <trkpt lat="47.50849" lon="6.73126">
        <ele>457.5</ele>
        <time>2017-10-22T09:58:44.000Z</time>
      </trkpt>
      <trkpt lat="47.50842" lon="6.73145">
        <ele>452.8</ele>
        <time>2017-10-22T09:58:46.000Z</time>
      </trkpt>
      <trkpt lat="47.50837" lon="6.73156">
        <ele>451.3</ele>
        <time>2017-10-22T09:58:47.000Z</time>
      </trkpt>
      <trkpt lat="47.50831" lon="6.73164">
        <ele>450.6</ele>
        <time>2017-10-22T09:58:48.000Z</time>
      </trkpt>
      <trkpt lat="47.50824" lon="6.73171">
        <ele>450.6</ele>
        <time>2017-10-22T09:58:49.000Z</time>
      </trkpt>
      <trkpt lat="47.5082" lon="6.7318">
        <ele>450</ele>
        <time>2017-10-22T09:58:50.000Z</time>
      </trkpt>
      <trkpt lat="47.50815" lon="6.7319">
        <ele>449.6</ele>
        <time>2017-10-22T09:58:51.000Z</time>
      </trkpt>
      <trkpt lat="47.5081" lon="6.73201">
        <ele>448.4</ele>
        <time>2017-10-22T09:58:52.000Z</time>
      </trkpt>
      <trkpt lat="47.50804" lon="6.7321">
        <ele>446.1</ele>
        <time>2017-10-22T09:58:53.000Z</time>
      </trkpt>
      <trkpt lat="47.50798" lon="6.73219">
        <ele>443.5</ele>
        <time>2017-10-22T09:58:54.000Z</time>
      </trkpt>
      <trkpt lat="47.50791" lon="6.7323">
        <ele>442.1</ele>
        <time>2017-10-22T09:58:55.000Z</time>
      </trkpt>
      <trkpt lat="47.50784" lon="6.7324">
        <ele>441</ele>
        <time>2017-10-22T09:58:56.000Z</time>
      </trkpt>
      <trkpt lat="47.50776" lon="6.7325">
        <ele>439.7</ele>
        <time>2017-10-22T09:58:57.000Z</time>
      </trkpt>
      <trkpt lat="47.50768" lon="6.73259">
        <ele>438.3</ele>
        <time>2017-10-22T09:58:58.000Z</time>
      </trkpt>
      <trkpt lat="47.50763" lon="6.73269">
        <ele>436.9</ele>
        <time>2017-10-22T09:58:59.000Z</time>
      </trkpt>
      <trkpt lat="47.50758" lon="6.73279">
        <ele>435.2</ele>
        <time>2017-10-22T09:59:00.000Z</time>
      </trkpt>
      <trkpt lat="47.50752" lon="6.73287">
        <ele>434.6</ele>
        <time>2017-10-22T09:59:01.000Z</time>
      </trkpt>
      <trkpt lat="47.50745" lon="6.73296">
        <ele>434.5</ele>
        <time>2017-10-22T09:59:02.000Z</time>
      </trkpt>
      <trkpt lat="47.50738" lon="6.73307">
        <ele>434.6</ele>
        <time>2017-10-22T09:59:03.000Z</time>
      </trkpt>
      <trkpt lat="47.50734" lon="6.73318">
        <ele>434.4</ele>
        <time>2017-10-22T09:59:04.000Z</time>
      </trkpt>
      <trkpt lat="47.50729" lon="6.73329">
        <ele>434.2</ele>
        <time>2017-10-22T09:59:05.000Z</time>
      </trkpt>
      <trkpt lat="47.50723" lon="6.73337">
        <ele>434.4</ele>
        <time>2017-10-22T09:59:06.000Z</time>
      </trkpt>
      <trkpt lat="47.50718" lon="6.73343">
        <ele>434.5</ele>
        <time>2017-10-22T09:59:07.000Z</time>
      </trkpt>
      <trkpt lat="47.50713" lon="6.7335">
        <ele>435</ele>
        <time>2017-10-22T09:59:08.000Z</time>
      </trkpt>
      <trkpt lat="47.50707" lon="6.73358">
        <ele>434.9</ele>
        <time>2017-10-22T09:59:09.000Z</time>
      </trkpt>
      <trkpt lat="47.50703" lon="6.73368">
        <ele>433.7</ele>
        <time>2017-10-22T09:59:10.000Z</time>
      </trkpt>
      <trkpt lat="47.507" lon="6.73377">
        <ele>432.8</ele>
        <time>2017-10-22T09:59:11.000Z</time>
      </trkpt>
      <trkpt lat="47.50697" lon="6.73387">
        <ele>431.2</ele>
        <time>2017-10-22T09:59:12.000Z</time>
      </trkpt>
      <trkpt lat="47.50694" lon="6.73399">
        <ele>430.1</ele>
        <time>2017-10-22T09:59:13.000Z</time>
      </trkpt>
      <trkpt lat="47.50691" lon="6.73411">
        <ele>429.4</ele>
        <time>2017-10-22T09:59:14.000Z</time>
      </trkpt>
      <trkpt lat="47.50688" lon="6.73425">
        <ele>429.2</ele>
        <time>2017-10-22T09:59:15.000Z</time>
      </trkpt>
      <trkpt lat="47.50684" lon="6.73436">
        <ele>428.1</ele>
        <time>2017-10-22T09:59:16.000Z</time>
      </trkpt>
      <trkpt lat="47.5068" lon="6.73447">
        <ele>427</ele>
        <time>2017-10-22T09:59:17.000Z</time>
      </trkpt>
      <trkpt lat="47.50676" lon="6.73457">
        <ele>425.6</ele>
        <time>2017-10-22T09:59:18.000Z</time>
      </trkpt>
      <trkpt lat="47.50673" lon="6.73467">
        <ele>424.8</ele>
        <time>2017-10-22T09:59:19.000Z</time>
      </trkpt>
      <trkpt lat="47.50671" lon="6.73476">
        <ele>422.9</ele>
        <time>2017-10-22T09:59:20.000Z</time>
      </trkpt>
      <trkpt lat="47.50668" lon="6.7348">
        <ele>422.7</ele>
        <time>2017-10-22T09:59:21.000Z</time>
      </trkpt>
      <trkpt lat="47.50665" lon="6.73483">
        <ele>422.7</ele>
        <time>2017-10-22T09:59:22.000Z</time>
      </trkpt>
      <trkpt lat="47.50661" lon="6.73486">
        <ele>422.6</ele>
        <time>2017-10-22T09:59:23.000Z</time>
      </trkpt>
      <trkpt lat="47.50657" lon="6.7349">
        <ele>422.7</ele>
        <time>2017-10-22T09:59:24.000Z</time>
      </trkpt>
      <trkpt lat="47.50653" lon="6.73494">
        <ele>422.7</ele>
        <time>2017-10-22T09:59:25.000Z</time>
      </trkpt>
      <trkpt lat="47.50649" lon="6.735">
        <ele>422.6</ele>
        <time>2017-10-22T09:59:26.000Z</time>
      </trkpt>
      <trkpt lat="47.50645" lon="6.73506">
        <ele>422.4</ele>
        <time>2017-10-22T09:59:27.000Z</time>
      </trkpt>
      <trkpt lat="47.5064" lon="6.73514">
        <ele>421.3</ele>
        <time>2017-10-22T09:59:28.000Z</time>
      </trkpt>
      <trkpt lat="47.50635" lon="6.73521">
        <ele>420.6</ele>
        <time>2017-10-22T09:59:29.000Z</time>
      </trkpt>
      <trkpt lat="47.50632" lon="6.73526">
        <ele>420.5</ele>
        <time>2017-10-22T09:59:30.000Z</time>
      </trkpt>
      <trkpt lat="47.5063" lon="6.7353">
        <ele>420.3</ele>
        <time>2017-10-22T09:59:31.000Z</time>
      </trkpt>
      <trkpt lat="47.50629" lon="6.73531">
        <ele>420.2</ele>
        <time>2017-10-22T09:59:32.000Z</time>
      </trkpt>
      <trkpt lat="47.50628" lon="6.73533">
        <ele>415.6</ele>
        <time>2017-10-22T10:02:22.000Z</time>
      </trkpt>
      <trkpt lat="47.50632" lon="6.73563">
        <ele>415.5</ele>
        <time>2017-10-22T10:02:23.000Z</time>
      </trkpt>
      <trkpt lat="47.50632" lon="6.73563">
        <ele>415.4</ele>
        <time>2017-10-22T10:02:25.000Z</time>
      </trkpt>
      <trkpt lat="47.50637" lon="6.73576">
        <ele>415.4</ele>
        <time>2017-10-22T10:02:26.000Z</time>
      </trkpt>
      <trkpt lat="47.50639" lon="6.73581">
        <ele>415.3</ele>
        <time>2017-10-22T10:02:27.000Z</time>
      </trkpt>
      <trkpt lat="47.50641" lon="6.73586">
        <ele>415.2</ele>
        <time>2017-10-22T10:02:28.000Z</time>
      </trkpt>
      <trkpt lat="47.50643" lon="6.73591">
        <ele>415.2</ele>
        <time>2017-10-22T10:02:29.000Z</time>
      </trkpt>
      <trkpt lat="47.50646" lon="6.73597">
        <ele>415.1</ele>
        <time>2017-10-22T10:02:30.000Z</time>
      </trkpt>
      <trkpt lat="47.50649" lon="6.73603">
        <ele>414.3</ele>
        <time>2017-10-22T10:02:31.000Z</time>
      </trkpt>
      <trkpt lat="47.50652" lon="6.7361">
        <ele>413.2</ele>
        <time>2017-10-22T10:02:32.000Z</time>
      </trkpt>
      <trkpt lat="47.50653" lon="6.73616">
        <ele>412.4</ele>
        <time>2017-10-22T10:02:33.000Z</time>
      </trkpt>
      <trkpt lat="47.50655" lon="6.73629">
        <ele>412</ele>
        <time>2017-10-22T10:02:35.000Z</time>
      </trkpt>
      <trkpt lat="47.50655" lon="6.73634">
        <ele>411.9</ele>
        <time>2017-10-22T10:02:36.000Z</time>
      </trkpt>
      <trkpt lat="47.50655" lon="6.73641">
        <ele>411.7</ele>
        <time>2017-10-22T10:02:37.000Z</time>
      </trkpt>
      <trkpt lat="47.50655" lon="6.7365">
        <ele>411.6</ele>
        <time>2017-10-22T10:02:38.000Z</time>
      </trkpt>
      <trkpt lat="47.50655" lon="6.73658">
        <ele>410.2</ele>
        <time>2017-10-22T10:02:39.000Z</time>
      </trkpt>
      <trkpt lat="47.50654" lon="6.73673">
        <ele>407.2</ele>
        <time>2017-10-22T10:02:41.000Z</time>
      </trkpt>
      <trkpt lat="47.50655" lon="6.7368">
        <ele>406.3</ele>
        <time>2017-10-22T10:02:42.000Z</time>
      </trkpt>
      <trkpt lat="47.50655" lon="6.73689">
        <ele>406.2</ele>
        <time>2017-10-22T10:02:43.000Z</time>
      </trkpt>
      <trkpt lat="47.50655" lon="6.73696">
        <ele>405.6</ele>
        <time>2017-10-22T10:02:44.000Z</time>
      </trkpt>
      <trkpt lat="47.50655" lon="6.73703">
        <ele>405</ele>
        <time>2017-10-22T10:02:45.000Z</time>
      </trkpt>
      <trkpt lat="47.50654" lon="6.73709">
        <ele>404.5</ele>
        <time>2017-10-22T10:02:46.000Z</time>
      </trkpt>
      <trkpt lat="47.50654" lon="6.73717">
        <ele>404.1</ele>
        <time>2017-10-22T10:02:47.000Z</time>
      </trkpt>
      <trkpt lat="47.50654" lon="6.73725">
        <ele>404</ele>
        <time>2017-10-22T10:02:48.000Z</time>
      </trkpt>
      <trkpt lat="47.50654" lon="6.73733">
        <ele>403.5</ele>
        <time>2017-10-22T10:02:49.000Z</time>
      </trkpt>
      <trkpt lat="47.50654" lon="6.73749">
        <ele>405</ele>
        <time>2017-10-22T10:02:51.000Z</time>
      </trkpt>
      <trkpt lat="47.50653" lon="6.73757">
        <ele>405.4</ele>
        <time>2017-10-22T10:02:52.000Z</time>
      </trkpt>
      <trkpt lat="47.50653" lon="6.73765">
        <ele>406.2</ele>
        <time>2017-10-22T10:02:53.000Z</time>
      </trkpt>
      <trkpt lat="47.50653" lon="6.73772">
        <ele>406.7</ele>
        <time>2017-10-22T10:02:54.000Z</time>
      </trkpt>
      <trkpt lat="47.50652" lon="6.7378">
        <ele>406.6</ele>
        <time>2017-10-22T10:02:55.000Z</time>
      </trkpt>
      <trkpt lat="47.50652" lon="6.73786">
        <ele>406.6</ele>
        <time>2017-10-22T10:02:56.000Z</time>
      </trkpt>
      <trkpt lat="47.50651" lon="6.73793">
        <ele>407.1</ele>
        <time>2017-10-22T10:02:57.000Z</time>
      </trkpt>
      <trkpt lat="47.5065" lon="6.73802">
        <ele>407.2</ele>
        <time>2017-10-22T10:02:58.000Z</time>
      </trkpt>
      <trkpt lat="47.50649" lon="6.73811">
        <ele>406.9</ele>
        <time>2017-10-22T10:02:59.000Z</time>
      </trkpt>
      <trkpt lat="47.50648" lon="6.7382">
        <ele>405.9</ele>
        <time>2017-10-22T10:03:00.000Z</time>
      </trkpt>
      <trkpt lat="47.50647" lon="6.73829">
        <ele>405.5</ele>
        <time>2017-10-22T10:03:01.000Z</time>
      </trkpt>
      <trkpt lat="47.50646" lon="6.73838">
        <ele>404.9</ele>
        <time>2017-10-22T10:03:02.000Z</time>
      </trkpt>
      <trkpt lat="47.50645" lon="6.73845">
        <ele>404.6</ele>
        <time>2017-10-22T10:03:03.000Z</time>
      </trkpt>
      <trkpt lat="47.50643" lon="6.73853">
        <ele>404.2</ele>
        <time>2017-10-22T10:03:04.000Z</time>
      </trkpt>
      <trkpt lat="47.5064" lon="6.73861">
        <ele>404</ele>
        <time>2017-10-22T10:03:05.000Z</time>
      </trkpt>
      <trkpt lat="47.50638" lon="6.73869">
        <ele>402.8</ele>
        <time>2017-10-22T10:03:06.000Z</time>
      </trkpt>
      <trkpt lat="47.50635" lon="6.73876">
        <ele>400.9</ele>
        <time>2017-10-22T10:03:07.000Z</time>
      </trkpt>
      <trkpt lat="47.50633" lon="6.73883">
        <ele>399.7</ele>
        <time>2017-10-22T10:03:08.000Z</time>
      </trkpt>
      <trkpt lat="47.5063" lon="6.7389">
        <ele>398.1</ele>
        <time>2017-10-22T10:03:09.000Z</time>
      </trkpt>
      <trkpt lat="47.50628" lon="6.73897">
        <ele>397.2</ele>
        <time>2017-10-22T10:03:10.000Z</time>
      </trkpt>
      <trkpt lat="47.50625" lon="6.73904">
        <ele>396.9</ele>
        <time>2017-10-22T10:03:11.000Z</time>
      </trkpt>
      <trkpt lat="47.50622" lon="6.73911">
        <ele>396.5</ele>
        <time>2017-10-22T10:03:12.000Z</time>
      </trkpt>
      <trkpt lat="47.5062" lon="6.73917">
        <ele>395.5</ele>
        <time>2017-10-22T10:03:13.000Z</time>
      </trkpt>
      <trkpt lat="47.50617" lon="6.73924">
        <ele>394.8</ele>
        <time>2017-10-22T10:03:14.000Z</time>
      </trkpt>
      <trkpt lat="47.50614" lon="6.73932">
        <ele>393.6</ele>
        <time>2017-10-22T10:03:15.000Z</time>
      </trkpt>
      <trkpt lat="47.5061" lon="6.73941">
        <ele>392.7</ele>
        <time>2017-10-22T10:03:16.000Z</time>
      </trkpt>
      <trkpt lat="47.50606" lon="6.73951">
        <ele>392.1</ele>
        <time>2017-10-22T10:03:17.000Z</time>
      </trkpt>
      <trkpt lat="47.50603" lon="6.73961">
        <ele>391.3</ele>
        <time>2017-10-22T10:03:18.000Z</time>
      </trkpt>
      <trkpt lat="47.50599" lon="6.73971">
        <ele>391.4</ele>
        <time>2017-10-22T10:03:19.000Z</time>
      </trkpt>
      <trkpt lat="47.50596" lon="6.7398">
        <ele>390</ele>
        <time>2017-10-22T10:03:20.000Z</time>
      </trkpt>
      <trkpt lat="47.50592" lon="6.73989">
        <ele>389.4</ele>
        <time>2017-10-22T10:03:21.000Z</time>
      </trkpt>
      <trkpt lat="47.50588" lon="6.73999">
        <ele>388.5</ele>
        <time>2017-10-22T10:03:22.000Z</time>
      </trkpt>
      <trkpt lat="47.50584" lon="6.74009">
        <ele>387.3</ele>
        <time>2017-10-22T10:03:23.000Z</time>
      </trkpt>
      <trkpt lat="47.5058" lon="6.74018">
        <ele>386.6</ele>
        <time>2017-10-22T10:03:24.000Z</time>
      </trkpt>
      <trkpt lat="47.50577" lon="6.74026">
        <ele>385.7</ele>
        <time>2017-10-22T10:03:25.000Z</time>
      </trkpt>
      <trkpt lat="47.50574" lon="6.74034">
        <ele>384.9</ele>
        <time>2017-10-22T10:03:26.000Z</time>
      </trkpt>
      <trkpt lat="47.5057" lon="6.74043">
        <ele>385.5</ele>
        <time>2017-10-22T10:03:27.000Z</time>
      </trkpt>
      <trkpt lat="47.50568" lon="6.7405">
        <ele>385.7</ele>
        <time>2017-10-22T10:03:28.000Z</time>
      </trkpt>
      <trkpt lat="47.50565" lon="6.74055">
        <ele>385.1</ele>
        <time>2017-10-22T10:03:29.000Z</time>
      </trkpt>
      <trkpt lat="47.50562" lon="6.74062">
        <ele>384.7</ele>
        <time>2017-10-22T10:03:30.000Z</time>
      </trkpt>
      <trkpt lat="47.50559" lon="6.74068">
        <ele>383.9</ele>
        <time>2017-10-22T10:03:31.000Z</time>
      </trkpt>
      <trkpt lat="47.50555" lon="6.74075">
        <ele>382.9</ele>
        <time>2017-10-22T10:03:32.000Z</time>
      </trkpt>
      <trkpt lat="47.50552" lon="6.74081">
        <ele>382.4</ele>
        <time>2017-10-22T10:03:33.000Z</time>
      </trkpt>
      <trkpt lat="47.50549" lon="6.74087">
        <ele>381.9</ele>
        <time>2017-10-22T10:03:34.000Z</time>
      </trkpt>
      <trkpt lat="47.50545" lon="6.74094">
        <ele>381.4</ele>
        <time>2017-10-22T10:03:35.000Z</time>
      </trkpt>
      <trkpt lat="47.50541" lon="6.74101">
        <ele>379.9</ele>
        <time>2017-10-22T10:03:36.000Z</time>
      </trkpt>
      <trkpt lat="47.50538" lon="6.74108">
        <ele>378.9</ele>
        <time>2017-10-22T10:03:37.000Z</time>
      </trkpt>
      <trkpt lat="47.50535" lon="6.74113">
        <ele>378.1</ele>
        <time>2017-10-22T10:03:38.000Z</time>
      </trkpt>
      <trkpt lat="47.50532" lon="6.7412">
        <ele>376.9</ele>
        <time>2017-10-22T10:03:39.000Z</time>
      </trkpt>
      <trkpt lat="47.50528" lon="6.74126">
        <ele>375.7</ele>
        <time>2017-10-22T10:03:40.000Z</time>
      </trkpt>
      <trkpt lat="47.50525" lon="6.74131">
        <ele>375.7</ele>
        <time>2017-10-22T10:03:41.000Z</time>
      </trkpt>
      <trkpt lat="47.50522" lon="6.74137">
        <ele>375.6</ele>
        <time>2017-10-22T10:03:42.000Z</time>
      </trkpt>
      <trkpt lat="47.5052" lon="6.74144">
        <ele>375.9</ele>
        <time>2017-10-22T10:03:43.000Z</time>
      </trkpt>
      <trkpt lat="47.50518" lon="6.7415">
        <ele>375.9</ele>
        <time>2017-10-22T10:03:44.000Z</time>
      </trkpt>
      <trkpt lat="47.50515" lon="6.74155">
        <ele>376</ele>
        <time>2017-10-22T10:03:45.000Z</time>
      </trkpt>
      <trkpt lat="47.50513" lon="6.7416">
        <ele>376</ele>
        <time>2017-10-22T10:03:46.000Z</time>
      </trkpt>
      <trkpt lat="47.5051" lon="6.74166">
        <ele>376</ele>
        <time>2017-10-22T10:03:47.000Z</time>
      </trkpt>
      <trkpt lat="47.50508" lon="6.7417">
        <ele>376</ele>
        <time>2017-10-22T10:03:48.000Z</time>
      </trkpt>
      <trkpt lat="47.50507" lon="6.74173">
        <ele>376</ele>
        <time>2017-10-22T10:03:49.000Z</time>
      </trkpt>
      <trkpt lat="47.50505" lon="6.74177">
        <ele>375.8</ele>
        <time>2017-10-22T10:03:50.000Z</time>
      </trkpt>
      <trkpt lat="47.50502" lon="6.74182">
        <ele>375.7</ele>
        <time>2017-10-22T10:03:51.000Z</time>
      </trkpt>
      <trkpt lat="47.50499" lon="6.74187">
        <ele>375.6</ele>
        <time>2017-10-22T10:03:52.000Z</time>
      </trkpt>
      <trkpt lat="47.50494" lon="6.74196">
        <ele>375.6</ele>
        <time>2017-10-22T10:03:53.000Z</time>
      </trkpt>
      <trkpt lat="47.50492" lon="6.74202">
        <ele>375.7</ele>
        <time>2017-10-22T10:03:54.000Z</time>
      </trkpt>
      <trkpt lat="47.5049" lon="6.74208">
        <ele>375.7</ele>
        <time>2017-10-22T10:03:55.000Z</time>
      </trkpt>
      <trkpt lat="47.50487" lon="6.74213">
        <ele>375.7</ele>
        <time>2017-10-22T10:03:56.000Z</time>
      </trkpt>
      <trkpt lat="47.50484" lon="6.74219">
        <ele>375.9</ele>
        <time>2017-10-22T10:03:57.000Z</time>
      </trkpt>
      <trkpt lat="47.50482" lon="6.74225">
        <ele>376.2</ele>
        <time>2017-10-22T10:03:58.000Z</time>
      </trkpt>
      <trkpt lat="47.5048" lon="6.74232">
        <ele>376.5</ele>
        <time>2017-10-22T10:03:59.000Z</time>
      </trkpt>
      <trkpt lat="47.50477" lon="6.74243">
        <ele>377</ele>
        <time>2017-10-22T10:04:00.000Z</time>
      </trkpt>
      <trkpt lat="47.50474" lon="6.7425">
        <ele>377.5</ele>
        <time>2017-10-22T10:04:01.000Z</time>
      </trkpt>
      <trkpt lat="47.50472" lon="6.74256">
        <ele>378</ele>
        <time>2017-10-22T10:04:02.000Z</time>
      </trkpt>
      <trkpt lat="47.50471" lon="6.74261">
        <ele>378.4</ele>
        <time>2017-10-22T10:04:03.000Z</time>
      </trkpt>
      <trkpt lat="47.50468" lon="6.74267">
        <ele>382.5</ele>
        <time>2017-10-22T10:04:04.000Z</time>
      </trkpt>
      <trkpt lat="47.50466" lon="6.74273">
        <ele>385.8</ele>
        <time>2017-10-22T10:04:05.000Z</time>
      </trkpt>
      <trkpt lat="47.50463" lon="6.74281">
        <ele>388.1</ele>
        <time>2017-10-22T10:04:06.000Z</time>
      </trkpt>
      <trkpt lat="47.50459" lon="6.74287">
        <ele>389.4</ele>
        <time>2017-10-22T10:04:07.000Z</time>
      </trkpt>
      <trkpt lat="47.50455" lon="6.74293">
        <ele>390.7</ele>
        <time>2017-10-22T10:04:08.000Z</time>
      </trkpt>
      <trkpt lat="47.50452" lon="6.74301">
        <ele>392.6</ele>
        <time>2017-10-22T10:04:09.000Z</time>
      </trkpt>
      <trkpt lat="47.50448" lon="6.74308">
        <ele>393.6</ele>
        <time>2017-10-22T10:04:10.000Z</time>
      </trkpt>
      <trkpt lat="47.50445" lon="6.74316">
        <ele>394.3</ele>
        <time>2017-10-22T10:04:11.000Z</time>
      </trkpt>
      <trkpt lat="47.50441" lon="6.74324">
        <ele>395.6</ele>
        <time>2017-10-22T10:04:12.000Z</time>
      </trkpt>
      <trkpt lat="47.50438" lon="6.74331">
        <ele>396.7</ele>
        <time>2017-10-22T10:04:13.000Z</time>
      </trkpt>
      <trkpt lat="47.50435" lon="6.74338">
        <ele>397.5</ele>
        <time>2017-10-22T10:04:14.000Z</time>
      </trkpt>
      <trkpt lat="47.50433" lon="6.74345">
        <ele>398.6</ele>
        <time>2017-10-22T10:04:15.000Z</time>
      </trkpt>
      <trkpt lat="47.5043" lon="6.74351">
        <ele>399.6</ele>
        <time>2017-10-22T10:04:16.000Z</time>
      </trkpt>
      <trkpt lat="47.50428" lon="6.74357">
        <ele>400.7</ele>
        <time>2017-10-22T10:04:17.000Z</time>
      </trkpt>
      <trkpt lat="47.50425" lon="6.74362">
        <ele>401.5</ele>
        <time>2017-10-22T10:04:18.000Z</time>
      </trkpt>
      <trkpt lat="47.50423" lon="6.74367">
        <ele>403.3</ele>
        <time>2017-10-22T10:04:19.000Z</time>
      </trkpt>
      <trkpt lat="47.5042" lon="6.74373">
        <ele>405.2</ele>
        <time>2017-10-22T10:04:20.000Z</time>
      </trkpt>
      <trkpt lat="47.50418" lon="6.74379">
        <ele>406</ele>
        <time>2017-10-22T10:04:21.000Z</time>
      </trkpt>
      <trkpt lat="47.50415" lon="6.74386">
        <ele>407.1</ele>
        <time>2017-10-22T10:04:22.000Z</time>
      </trkpt>
      <trkpt lat="47.50412" lon="6.74391">
        <ele>407.6</ele>
        <time>2017-10-22T10:04:23.000Z</time>
      </trkpt>
      <trkpt lat="47.50409" lon="6.74398">
        <ele>407.8</ele>
        <time>2017-10-22T10:04:24.000Z</time>
      </trkpt>
      <trkpt lat="47.50406" lon="6.74406">
        <ele>407.2</ele>
        <time>2017-10-22T10:04:25.000Z</time>
      </trkpt>
      <trkpt lat="47.50402" lon="6.74414">
        <ele>406.6</ele>
        <time>2017-10-22T10:04:26.000Z</time>
      </trkpt>
      <trkpt lat="47.50399" lon="6.74421">
        <ele>406.2</ele>
        <time>2017-10-22T10:04:27.000Z</time>
      </trkpt>
      <trkpt lat="47.50395" lon="6.74429">
        <ele>406</ele>
        <time>2017-10-22T10:04:28.000Z</time>
      </trkpt>
      <trkpt lat="47.50391" lon="6.74438">
        <ele>405.9</ele>
        <time>2017-10-22T10:04:29.000Z</time>
      </trkpt>
      <trkpt lat="47.50387" lon="6.74446">
        <ele>405.7</ele>
        <time>2017-10-22T10:04:30.000Z</time>
      </trkpt>
      <trkpt lat="47.50383" lon="6.74454">
        <ele>405.7</ele>
        <time>2017-10-22T10:04:31.000Z</time>
      </trkpt>
      <trkpt lat="47.5038" lon="6.74462">
        <ele>405.7</ele>
        <time>2017-10-22T10:04:32.000Z</time>
      </trkpt>
      <trkpt lat="47.50376" lon="6.74469">
        <ele>405.5</ele>
        <time>2017-10-22T10:04:33.000Z</time>
      </trkpt>
      <trkpt lat="47.50374" lon="6.74476">
        <ele>404.9</ele>
        <time>2017-10-22T10:04:34.000Z</time>
      </trkpt>
      <trkpt lat="47.50373" lon="6.74483">
        <ele>404.1</ele>
        <time>2017-10-22T10:04:35.000Z</time>
      </trkpt>
      <trkpt lat="47.50374" lon="6.74491">
        <ele>402.8</ele>
        <time>2017-10-22T10:04:36.000Z</time>
      </trkpt>
      <trkpt lat="47.50374" lon="6.74499">
        <ele>401.3</ele>
        <time>2017-10-22T10:04:37.000Z</time>
      </trkpt>
      <trkpt lat="47.50375" lon="6.74507">
        <ele>401.1</ele>
        <time>2017-10-22T10:04:38.000Z</time>
      </trkpt>
      <trkpt lat="47.50376" lon="6.74514">
        <ele>401.3</ele>
        <time>2017-10-22T10:04:39.000Z</time>
      </trkpt>
      <trkpt lat="47.50377" lon="6.74521">
        <ele>401.6</ele>
        <time>2017-10-22T10:04:40.000Z</time>
      </trkpt>
      <trkpt lat="47.50379" lon="6.74529">
        <ele>401.6</ele>
        <time>2017-10-22T10:04:41.000Z</time>
      </trkpt>
      <trkpt lat="47.50381" lon="6.74536">
        <ele>401.4</ele>
        <time>2017-10-22T10:04:42.000Z</time>
      </trkpt>
      <trkpt lat="47.50382" lon="6.74543">
        <ele>401.1</ele>
        <time>2017-10-22T10:04:43.000Z</time>
      </trkpt>
      <trkpt lat="47.50383" lon="6.74551">
        <ele>400.5</ele>
        <time>2017-10-22T10:04:44.000Z</time>
      </trkpt>
      <trkpt lat="47.50385" lon="6.74559">
        <ele>400.5</ele>
        <time>2017-10-22T10:04:45.000Z</time>
      </trkpt>
      <trkpt lat="47.50386" lon="6.74566">
        <ele>399.9</ele>
        <time>2017-10-22T10:04:46.000Z</time>
      </trkpt>
      <trkpt lat="47.50388" lon="6.74573">
        <ele>399.7</ele>
        <time>2017-10-22T10:04:47.000Z</time>
      </trkpt>
      <trkpt lat="47.50389" lon="6.7458">
        <ele>399</ele>
        <time>2017-10-22T10:04:48.000Z</time>
      </trkpt>
      <trkpt lat="47.50389" lon="6.74586">
        <ele>398.9</ele>
        <time>2017-10-22T10:04:49.000Z</time>
      </trkpt>
      <trkpt lat="47.5039" lon="6.74592">
        <ele>398.9</ele>
        <time>2017-10-22T10:04:50.000Z</time>
      </trkpt>
      <trkpt lat="47.5039" lon="6.74598">
        <ele>398.9</ele>
        <time>2017-10-22T10:04:51.000Z</time>
      </trkpt>
      <trkpt lat="47.5039" lon="6.74604">
        <ele>398.9</ele>
        <time>2017-10-22T10:04:52.000Z</time>
      </trkpt>
      <trkpt lat="47.5039" lon="6.74609">
        <ele>399.5</ele>
        <time>2017-10-22T10:04:53.000Z</time>
      </trkpt>
      <trkpt lat="47.5039" lon="6.74614">
        <ele>400</ele>
        <time>2017-10-22T10:04:54.000Z</time>
      </trkpt>
      <trkpt lat="47.5039" lon="6.74619">
        <ele>400</ele>
        <time>2017-10-22T10:04:55.000Z</time>
      </trkpt>
      <trkpt lat="47.50391" lon="6.74626">
        <ele>399.3</ele>
        <time>2017-10-22T10:04:56.000Z</time>
      </trkpt>
      <trkpt lat="47.50391" lon="6.74633">
        <ele>398.8</ele>
        <time>2017-10-22T10:04:57.000Z</time>
      </trkpt>
      <trkpt lat="47.50392" lon="6.74639">
        <ele>398.1</ele>
        <time>2017-10-22T10:04:58.000Z</time>
      </trkpt>
      <trkpt lat="47.50392" lon="6.74645">
        <ele>397.2</ele>
        <time>2017-10-22T10:04:59.000Z</time>
      </trkpt>
      <trkpt lat="47.50393" lon="6.74652">
        <ele>395.7</ele>
        <time>2017-10-22T10:05:00.000Z</time>
      </trkpt>
      <trkpt lat="47.50394" lon="6.74659">
        <ele>393.9</ele>
        <time>2017-10-22T10:05:01.000Z</time>
      </trkpt>
      <trkpt lat="47.50394" lon="6.74665">
        <ele>392.5</ele>
        <time>2017-10-22T10:05:02.000Z</time>
      </trkpt>
      <trkpt lat="47.50395" lon="6.7467">
        <ele>391.2</ele>
        <time>2017-10-22T10:05:03.000Z</time>
      </trkpt>
      <trkpt lat="47.50395" lon="6.74675">
        <ele>389.8</ele>
        <time>2017-10-22T10:05:04.000Z</time>
      </trkpt>
      <trkpt lat="47.50395" lon="6.74681">
        <ele>388.4</ele>
        <time>2017-10-22T10:05:05.000Z</time>
      </trkpt>
      <trkpt lat="47.50394" lon="6.74686">
        <ele>387.6</ele>
        <time>2017-10-22T10:05:06.000Z</time>
      </trkpt>
      <trkpt lat="47.50392" lon="6.74691">
        <ele>388.1</ele>
        <time>2017-10-22T10:05:07.000Z</time>
      </trkpt>
      <trkpt lat="47.50391" lon="6.74696">
        <ele>389.3</ele>
        <time>2017-10-22T10:05:08.000Z</time>
      </trkpt>
      <trkpt lat="47.5039" lon="6.74703">
        <ele>389.8</ele>
        <time>2017-10-22T10:05:09.000Z</time>
      </trkpt>
      <trkpt lat="47.50388" lon="6.74709">
        <ele>389.8</ele>
        <time>2017-10-22T10:05:10.000Z</time>
      </trkpt>
      <trkpt lat="47.50387" lon="6.74716">
        <ele>389.9</ele>
        <time>2017-10-22T10:05:11.000Z</time>
      </trkpt>
      <trkpt lat="47.50385" lon="6.74722">
        <ele>390.1</ele>
        <time>2017-10-22T10:05:12.000Z</time>
      </trkpt>
      <trkpt lat="47.50383" lon="6.74728">
        <ele>390.2</ele>
        <time>2017-10-22T10:05:13.000Z</time>
      </trkpt>
      <trkpt lat="47.50381" lon="6.74735">
        <ele>390.4</ele>
        <time>2017-10-22T10:05:14.000Z</time>
      </trkpt>
      <trkpt lat="47.50379" lon="6.74741">
        <ele>390.7</ele>
        <time>2017-10-22T10:05:15.000Z</time>
      </trkpt>
      <trkpt lat="47.50377" lon="6.74748">
        <ele>391.3</ele>
        <time>2017-10-22T10:05:16.000Z</time>
      </trkpt>
      <trkpt lat="47.50375" lon="6.74755">
        <ele>391.5</ele>
        <time>2017-10-22T10:05:17.000Z</time>
      </trkpt>
      <trkpt lat="47.50372" lon="6.74762">
        <ele>392</ele>
        <time>2017-10-22T10:05:18.000Z</time>
      </trkpt>
      <trkpt lat="47.5037" lon="6.74769">
        <ele>392.5</ele>
        <time>2017-10-22T10:05:19.000Z</time>
      </trkpt>
      <trkpt lat="47.50368" lon="6.74775">
        <ele>393.2</ele>
        <time>2017-10-22T10:05:20.000Z</time>
      </trkpt>
      <trkpt lat="47.50366" lon="6.74782">
        <ele>394.2</ele>
        <time>2017-10-22T10:05:21.000Z</time>
      </trkpt>
      <trkpt lat="47.50364" lon="6.74789">
        <ele>395.1</ele>
        <time>2017-10-22T10:05:22.000Z</time>
      </trkpt>
      <trkpt lat="47.50362" lon="6.74794">
        <ele>395.8</ele>
        <time>2017-10-22T10:05:23.000Z</time>
      </trkpt>
      <trkpt lat="47.50361" lon="6.748">
        <ele>396.1</ele>
        <time>2017-10-22T10:05:24.000Z</time>
      </trkpt>
      <trkpt lat="47.5036" lon="6.74807">
        <ele>396.1</ele>
        <time>2017-10-22T10:05:25.000Z</time>
      </trkpt>
      <trkpt lat="47.50358" lon="6.74813">
        <ele>396</ele>
        <time>2017-10-22T10:05:26.000Z</time>
      </trkpt>
      <trkpt lat="47.50357" lon="6.7482">
        <ele>395.8</ele>
        <time>2017-10-22T10:05:27.000Z</time>
      </trkpt>
      <trkpt lat="47.50356" lon="6.74827">
        <ele>395.6</ele>
        <time>2017-10-22T10:05:28.000Z</time>
      </trkpt>
      <trkpt lat="47.50354" lon="6.74834">
        <ele>394.4</ele>
        <time>2017-10-22T10:05:29.000Z</time>
      </trkpt>
      <trkpt lat="47.50353" lon="6.74841">
        <ele>393.7</ele>
        <time>2017-10-22T10:05:30.000Z</time>
      </trkpt>
      <trkpt lat="47.50351" lon="6.74848">
        <ele>392.4</ele>
        <time>2017-10-22T10:05:31.000Z</time>
      </trkpt>
      <trkpt lat="47.5035" lon="6.74853">
        <ele>391.2</ele>
        <time>2017-10-22T10:05:32.000Z</time>
      </trkpt>
      <trkpt lat="47.50349" lon="6.74859">
        <ele>390.1</ele>
        <time>2017-10-22T10:05:33.000Z</time>
      </trkpt>
      <trkpt lat="47.50347" lon="6.74865">
        <ele>389.1</ele>
        <time>2017-10-22T10:05:34.000Z</time>
      </trkpt>
      <trkpt lat="47.50345" lon="6.74872">
        <ele>387.7</ele>
        <time>2017-10-22T10:05:35.000Z</time>
      </trkpt>
      <trkpt lat="47.50343" lon="6.74879">
        <ele>386.4</ele>
        <time>2017-10-22T10:05:36.000Z</time>
      </trkpt>
      <trkpt lat="47.50342" lon="6.74885">
        <ele>385.7</ele>
        <time>2017-10-22T10:05:37.000Z</time>
      </trkpt>
      <trkpt lat="47.5034" lon="6.74892">
        <ele>385</ele>
        <time>2017-10-22T10:05:38.000Z</time>
      </trkpt>
      <trkpt lat="47.50338" lon="6.74899">
        <ele>384.7</ele>
        <time>2017-10-22T10:05:39.000Z</time>
      </trkpt>
      <trkpt lat="47.50336" lon="6.74905">
        <ele>384.6</ele>
        <time>2017-10-22T10:05:40.000Z</time>
      </trkpt>
      <trkpt lat="47.50334" lon="6.74913">
        <ele>383.9</ele>
        <time>2017-10-22T10:05:41.000Z</time>
      </trkpt>
      <trkpt lat="47.50332" lon="6.7492">
        <ele>383.4</ele>
        <time>2017-10-22T10:05:42.000Z</time>
      </trkpt>
      <trkpt lat="47.5033" lon="6.74928">
        <ele>382.9</ele>
        <time>2017-10-22T10:05:43.000Z</time>
      </trkpt>
      <trkpt lat="47.50328" lon="6.74935">
        <ele>383.2</ele>
        <time>2017-10-22T10:05:44.000Z</time>
      </trkpt>
      <trkpt lat="47.50326" lon="6.74942">
        <ele>383.1</ele>
        <time>2017-10-22T10:05:45.000Z</time>
      </trkpt>
      <trkpt lat="47.50324" lon="6.74949">
        <ele>382.7</ele>
        <time>2017-10-22T10:05:46.000Z</time>
      </trkpt>
      <trkpt lat="47.50321" lon="6.74956">
        <ele>382.2</ele>
        <time>2017-10-22T10:05:47.000Z</time>
      </trkpt>
      <trkpt lat="47.50319" lon="6.74964">
        <ele>382.2</ele>
        <time>2017-10-22T10:05:48.000Z</time>
      </trkpt>
      <trkpt lat="47.50317" lon="6.7497">
        <ele>382.4</ele>
        <time>2017-10-22T10:05:49.000Z</time>
      </trkpt>
      <trkpt lat="47.50315" lon="6.74977">
        <ele>383.1</ele>
        <time>2017-10-22T10:05:50.000Z</time>
      </trkpt>
      <trkpt lat="47.50311" lon="6.74985">
        <ele>383.1</ele>
        <time>2017-10-22T10:05:51.000Z</time>
      </trkpt>
      <trkpt lat="47.50307" lon="6.74991">
        <ele>383.2</ele>
        <time>2017-10-22T10:05:52.000Z</time>
      </trkpt>
      <trkpt lat="47.50303" lon="6.74997">
        <ele>383.1</ele>
        <time>2017-10-22T10:05:53.000Z</time>
      </trkpt>
      <trkpt lat="47.50298" lon="6.75002">
        <ele>383.5</ele>
        <time>2017-10-22T10:05:54.000Z</time>
      </trkpt>
      <trkpt lat="47.50293" lon="6.75007">
        <ele>384.1</ele>
        <time>2017-10-22T10:05:55.000Z</time>
      </trkpt>
      <trkpt lat="47.50288" lon="6.75011">
        <ele>384.6</ele>
        <time>2017-10-22T10:05:56.000Z</time>
      </trkpt>
      <trkpt lat="47.50282" lon="6.75014">
        <ele>385</ele>
        <time>2017-10-22T10:05:57.000Z</time>
      </trkpt>
      <trkpt lat="47.50277" lon="6.75018">
        <ele>385.6</ele>
        <time>2017-10-22T10:05:58.000Z</time>
      </trkpt>
      <trkpt lat="47.50273" lon="6.75021">
        <ele>385.6</ele>
        <time>2017-10-22T10:05:59.000Z</time>
      </trkpt>
      <trkpt lat="47.50267" lon="6.75023">
        <ele>385.1</ele>
        <time>2017-10-22T10:06:00.000Z</time>
      </trkpt>
      <trkpt lat="47.50262" lon="6.7502">
        <ele>384.2</ele>
        <time>2017-10-22T10:06:01.000Z</time>
      </trkpt>
      <trkpt lat="47.50257" lon="6.75015">
        <ele>384.2</ele>
        <time>2017-10-22T10:06:02.000Z</time>
      </trkpt>
      <trkpt lat="47.50255" lon="6.75008">
        <ele>384.1</ele>
        <time>2017-10-22T10:06:03.000Z</time>
      </trkpt>
      <trkpt lat="47.50251" lon="6.74997">
        <ele>383.5</ele>
        <time>2017-10-22T10:06:04.000Z</time>
      </trkpt>
      <trkpt lat="47.50248" lon="6.74988">
        <ele>383.1</ele>
        <time>2017-10-22T10:06:05.000Z</time>
      </trkpt>
      <trkpt lat="47.50243" lon="6.74981">
        <ele>381.8</ele>
        <time>2017-10-22T10:06:06.000Z</time>
      </trkpt>
      <trkpt lat="47.50238" lon="6.74973">
        <ele>380.8</ele>
        <time>2017-10-22T10:06:07.000Z</time>
      </trkpt>
      <trkpt lat="47.50233" lon="6.74967">
        <ele>380.7</ele>
        <time>2017-10-22T10:06:08.000Z</time>
      </trkpt>
      <trkpt lat="47.50231" lon="6.74963">
        <ele>380.6</ele>
        <time>2017-10-22T10:06:09.000Z</time>
      </trkpt>
      <trkpt lat="47.50225" lon="6.7496">
        <ele>379.9</ele>
        <time>2017-10-22T10:06:10.000Z</time>
      </trkpt>
      <trkpt lat="47.50222" lon="6.74961">
        <ele>379</ele>
        <time>2017-10-22T10:06:11.000Z</time>
      </trkpt>
      <trkpt lat="47.50218" lon="6.74964">
        <ele>378.4</ele>
        <time>2017-10-22T10:06:12.000Z</time>
      </trkpt>
      <trkpt lat="47.50213" lon="6.74969">
        <ele>377.9</ele>
        <time>2017-10-22T10:06:13.000Z</time>
      </trkpt>
      <trkpt lat="47.50209" lon="6.74973">
        <ele>377.6</ele>
        <time>2017-10-22T10:06:14.000Z</time>
      </trkpt>
      <trkpt lat="47.50206" lon="6.74978">
        <ele>377.5</ele>
        <time>2017-10-22T10:06:15.000Z</time>
      </trkpt>
      <trkpt lat="47.50203" lon="6.74985">
        <ele>377.4</ele>
        <time>2017-10-22T10:06:16.000Z</time>
      </trkpt>
      <trkpt lat="47.50199" lon="6.74992">
        <ele>377.1</ele>
        <time>2017-10-22T10:06:17.000Z</time>
      </trkpt>
      <trkpt lat="47.50197" lon="6.75">
        <ele>376.6</ele>
        <time>2017-10-22T10:06:18.000Z</time>
      </trkpt>
      <trkpt lat="47.50195" lon="6.75008">
        <ele>376.2</ele>
        <time>2017-10-22T10:06:19.000Z</time>
      </trkpt>
      <trkpt lat="47.50194" lon="6.75016">
        <ele>375.7</ele>
        <time>2017-10-22T10:06:20.000Z</time>
      </trkpt>
      <trkpt lat="47.50193" lon="6.75024">
        <ele>375.1</ele>
        <time>2017-10-22T10:06:21.000Z</time>
      </trkpt>
      <trkpt lat="47.50192" lon="6.75033">
        <ele>374.4</ele>
        <time>2017-10-22T10:06:22.000Z</time>
      </trkpt>
      <trkpt lat="47.50191" lon="6.75043">
        <ele>373.7</ele>
        <time>2017-10-22T10:06:23.000Z</time>
      </trkpt>
      <trkpt lat="47.5019" lon="6.75053">
        <ele>373</ele>
        <time>2017-10-22T10:06:24.000Z</time>
      </trkpt>
      <trkpt lat="47.50189" lon="6.75063">
        <ele>372.4</ele>
        <time>2017-10-22T10:06:25.000Z</time>
      </trkpt>
      <trkpt lat="47.50188" lon="6.75074">
        <ele>371.9</ele>
        <time>2017-10-22T10:06:26.000Z</time>
      </trkpt>
      <trkpt lat="47.50187" lon="6.75084">
        <ele>371.3</ele>
        <time>2017-10-22T10:06:27.000Z</time>
      </trkpt>
      <trkpt lat="47.50186" lon="6.75095">
        <ele>370.8</ele>
        <time>2017-10-22T10:06:28.000Z</time>
      </trkpt>
      <trkpt lat="47.50185" lon="6.75106">
        <ele>370.4</ele>
        <time>2017-10-22T10:06:29.000Z</time>
      </trkpt>
      <trkpt lat="47.50181" lon="6.75116">
        <ele>370</ele>
        <time>2017-10-22T10:06:30.000Z</time>
      </trkpt>
      <trkpt lat="47.50175" lon="6.75123">
        <ele>369.5</ele>
        <time>2017-10-22T10:06:31.000Z</time>
      </trkpt>
      <trkpt lat="47.50169" lon="6.75129">
        <ele>369.6</ele>
        <time>2017-10-22T10:06:32.000Z</time>
      </trkpt>
      <trkpt lat="47.50164" lon="6.75135">
        <ele>370</ele>
        <time>2017-10-22T10:06:33.000Z</time>
      </trkpt>
      <trkpt lat="47.50158" lon="6.7514">
        <ele>369.9</ele>
        <time>2017-10-22T10:06:34.000Z</time>
      </trkpt>
      <trkpt lat="47.50154" lon="6.75144">
        <ele>369.4</ele>
        <time>2017-10-22T10:06:35.000Z</time>
      </trkpt>
      <trkpt lat="47.50148" lon="6.75149">
        <ele>368.4</ele>
        <time>2017-10-22T10:06:36.000Z</time>
      </trkpt>
      <trkpt lat="47.50143" lon="6.75154">
        <ele>367.3</ele>
        <time>2017-10-22T10:06:37.000Z</time>
      </trkpt>
      <trkpt lat="47.50138" lon="6.75158">
        <ele>366.8</ele>
        <time>2017-10-22T10:06:38.000Z</time>
      </trkpt>
      <trkpt lat="47.50132" lon="6.75163">
        <ele>366.5</ele>
        <time>2017-10-22T10:06:39.000Z</time>
      </trkpt>
      <trkpt lat="47.50127" lon="6.75167">
        <ele>366.3</ele>
        <time>2017-10-22T10:06:40.000Z</time>
      </trkpt>
      <trkpt lat="47.50121" lon="6.75172">
        <ele>365.6</ele>
        <time>2017-10-22T10:06:41.000Z</time>
      </trkpt>
      <trkpt lat="47.50115" lon="6.75176">
        <ele>364.7</ele>
        <time>2017-10-22T10:06:42.000Z</time>
      </trkpt>
      <trkpt lat="47.50109" lon="6.75181">
        <ele>364.1</ele>
        <time>2017-10-22T10:06:43.000Z</time>
      </trkpt>
      <trkpt lat="47.50103" lon="6.75184">
        <ele>363.3</ele>
        <time>2017-10-22T10:06:44.000Z</time>
      </trkpt>
      <trkpt lat="47.50097" lon="6.75187">
        <ele>362.5</ele>
        <time>2017-10-22T10:06:45.000Z</time>
      </trkpt>
      <trkpt lat="47.50091" lon="6.7519">
        <ele>361.6</ele>
        <time>2017-10-22T10:06:46.000Z</time>
      </trkpt>
      <trkpt lat="47.50085" lon="6.75192">
        <ele>361.9</ele>
        <time>2017-10-22T10:06:47.000Z</time>
      </trkpt>
      <trkpt lat="47.50078" lon="6.75194">
        <ele>362.4</ele>
        <time>2017-10-22T10:06:48.000Z</time>
      </trkpt>
      <trkpt lat="47.50072" lon="6.75196">
        <ele>362.7</ele>
        <time>2017-10-22T10:06:49.000Z</time>
      </trkpt>
      <trkpt lat="47.50065" lon="6.75198">
        <ele>363.1</ele>
        <time>2017-10-22T10:06:50.000Z</time>
      </trkpt>
      <trkpt lat="47.50058" lon="6.75199">
        <ele>363.2</ele>
        <time>2017-10-22T10:06:51.000Z</time>
      </trkpt>
      <trkpt lat="47.50052" lon="6.75199">
        <ele>362.8</ele>
        <time>2017-10-22T10:06:52.000Z</time>
      </trkpt>
      <trkpt lat="47.50047" lon="6.752">
        <ele>362.7</ele>
        <time>2017-10-22T10:06:53.000Z</time>
      </trkpt>
      <trkpt lat="47.5004" lon="6.75201">
        <ele>362.6</ele>
        <time>2017-10-22T10:06:54.000Z</time>
      </trkpt>
      <trkpt lat="47.50033" lon="6.75204">
        <ele>362.2</ele>
        <time>2017-10-22T10:06:55.000Z</time>
      </trkpt>
      <trkpt lat="47.50028" lon="6.75208">
        <ele>362.2</ele>
        <time>2017-10-22T10:06:56.000Z</time>
      </trkpt>
      <trkpt lat="47.50024" lon="6.75213">
        <ele>362.3</ele>
        <time>2017-10-22T10:06:57.000Z</time>
      </trkpt>
      <trkpt lat="47.50019" lon="6.75218">
        <ele>362.2</ele>
        <time>2017-10-22T10:06:58.000Z</time>
      </trkpt>
      <trkpt lat="47.50014" lon="6.75224">
        <ele>362</ele>
        <time>2017-10-22T10:06:59.000Z</time>
      </trkpt>
      <trkpt lat="47.50011" lon="6.75232">
        <ele>362</ele>
        <time>2017-10-22T10:07:00.000Z</time>
      </trkpt>
      <trkpt lat="47.50008" lon="6.75238">
        <ele>361.3</ele>
        <time>2017-10-22T10:07:01.000Z</time>
      </trkpt>
      <trkpt lat="47.50006" lon="6.75245">
        <ele>361</ele>
        <time>2017-10-22T10:07:02.000Z</time>
      </trkpt>
      <trkpt lat="47.50005" lon="6.75252">
        <ele>361.3</ele>
        <time>2017-10-22T10:07:03.000Z</time>
      </trkpt>
      <trkpt lat="47.50005" lon="6.7526">
        <ele>361.7</ele>
        <time>2017-10-22T10:07:04.000Z</time>
      </trkpt>
      <trkpt lat="47.50004" lon="6.75268">
        <ele>362.2</ele>
        <time>2017-10-22T10:07:05.000Z</time>
      </trkpt>
      <trkpt lat="47.50003" lon="6.75276">
        <ele>362.1</ele>
        <time>2017-10-22T10:07:06.000Z</time>
      </trkpt>
      <trkpt lat="47.50003" lon="6.75284">
        <ele>362.2</ele>
        <time>2017-10-22T10:07:07.000Z</time>
      </trkpt>
      <trkpt lat="47.50003" lon="6.7529">
        <ele>361.3</ele>
        <time>2017-10-22T10:07:08.000Z</time>
      </trkpt>
      <trkpt lat="47.50004" lon="6.75297">
        <ele>360.2</ele>
        <time>2017-10-22T10:07:09.000Z</time>
      </trkpt>
      <trkpt lat="47.50004" lon="6.75304">
        <ele>359.1</ele>
        <time>2017-10-22T10:07:10.000Z</time>
      </trkpt>
      <trkpt lat="47.50005" lon="6.75312">
        <ele>359</ele>
        <time>2017-10-22T10:07:11.000Z</time>
      </trkpt>
      <trkpt lat="47.50005" lon="6.75318">
        <ele>358.8</ele>
        <time>2017-10-22T10:07:12.000Z</time>
      </trkpt>
      <trkpt lat="47.50006" lon="6.75325">
        <ele>358.8</ele>
        <time>2017-10-22T10:07:13.000Z</time>
      </trkpt>
      <trkpt lat="47.50006" lon="6.75332">
        <ele>358.6</ele>
        <time>2017-10-22T10:07:14.000Z</time>
      </trkpt>
      <trkpt lat="47.50007" lon="6.75338">
        <ele>358.4</ele>
        <time>2017-10-22T10:07:15.000Z</time>
      </trkpt>
      <trkpt lat="47.50008" lon="6.75345">
        <ele>358.4</ele>
        <time>2017-10-22T10:07:16.000Z</time>
      </trkpt>
      <trkpt lat="47.50008" lon="6.75352">
        <ele>358.3</ele>
        <time>2017-10-22T10:07:17.000Z</time>
      </trkpt>
      <trkpt lat="47.50008" lon="6.75358">
        <ele>358.7</ele>
        <time>2017-10-22T10:07:18.000Z</time>
      </trkpt>
      <trkpt lat="47.50007" lon="6.75363">
        <ele>358.7</ele>
        <time>2017-10-22T10:07:19.000Z</time>
      </trkpt>
      <trkpt lat="47.50006" lon="6.75368">
        <ele>358.7</ele>
        <time>2017-10-22T10:07:20.000Z</time>
      </trkpt>
      <trkpt lat="47.50005" lon="6.75373">
        <ele>358.7</ele>
        <time>2017-10-22T10:07:21.000Z</time>
      </trkpt>
      <trkpt lat="47.50004" lon="6.75378">
        <ele>358.7</ele>
        <time>2017-10-22T10:07:22.000Z</time>
      </trkpt>
      <trkpt lat="47.50002" lon="6.75382">
        <ele>358.8</ele>
        <time>2017-10-22T10:07:23.000Z</time>
      </trkpt>
      <trkpt lat="47.5" lon="6.75385">
        <ele>358.8</ele>
        <time>2017-10-22T10:07:24.000Z</time>
      </trkpt>
      <trkpt lat="47.49998" lon="6.75387">
        <ele>358.9</ele>
        <time>2017-10-22T10:07:25.000Z</time>
      </trkpt>
      <trkpt lat="47.49997" lon="6.7539">
        <ele>359</ele>
        <time>2017-10-22T10:07:26.000Z</time>
      </trkpt>
      <trkpt lat="47.49995" lon="6.75392">
        <ele>359</ele>
        <time>2017-10-22T10:07:27.000Z</time>
      </trkpt>
      <trkpt lat="47.49992" lon="6.75395">
        <ele>359.2</ele>
        <time>2017-10-22T10:07:29.000Z</time>
      </trkpt>
      <trkpt lat="47.49991" lon="6.75396">
        <ele>359.3</ele>
        <time>2017-10-22T10:07:30.000Z</time>
      </trkpt>
      <trkpt lat="47.49988" lon="6.75401">
        <ele>359.7</ele>
        <time>2017-10-22T10:07:32.000Z</time>
      </trkpt>
      <trkpt lat="47.49987" lon="6.75404">
        <ele>359.9</ele>
        <time>2017-10-22T10:07:33.000Z</time>
      </trkpt>
      <trkpt lat="47.49985" lon="6.7541">
        <ele>360.2</ele>
        <time>2017-10-22T10:07:35.000Z</time>
      </trkpt>
      <trkpt lat="47.49984" lon="6.75413">
        <ele>360.3</ele>
        <time>2017-10-22T10:07:36.000Z</time>
      </trkpt>
      <trkpt lat="47.49983" lon="6.75417">
        <ele>360.2</ele>
        <time>2017-10-22T10:08:41.000Z</time>
      </trkpt>
      <trkpt lat="47.49988" lon="6.75426">
        <ele>360.2</ele>
        <time>2017-10-22T10:08:42.000Z</time>
      </trkpt>
      <trkpt lat="47.49989" lon="6.75429">
        <ele>360.3</ele>
        <time>2017-10-22T10:08:43.000Z</time>
      </trkpt>
      <trkpt lat="47.49991" lon="6.75433">
        <ele>360.4</ele>
        <time>2017-10-22T10:08:44.000Z</time>
      </trkpt>
      <trkpt lat="47.49993" lon="6.75437">
        <ele>360.4</ele>
        <time>2017-10-22T10:08:45.000Z</time>
      </trkpt>
      <trkpt lat="47.49994" lon="6.75441">
        <ele>360.5</ele>
        <time>2017-10-22T10:08:46.000Z</time>
      </trkpt>
      <trkpt lat="47.49995" lon="6.75444">
        <ele>360.6</ele>
        <time>2017-10-22T10:08:47.000Z</time>
      </trkpt>
      <trkpt lat="47.49996" lon="6.75448">
        <ele>360.7</ele>
        <time>2017-10-22T10:08:48.000Z</time>
      </trkpt>
      <trkpt lat="47.49997" lon="6.75451">
        <ele>360.8</ele>
        <time>2017-10-22T10:08:49.000Z</time>
      </trkpt>
      <trkpt lat="47.49999" lon="6.75455">
        <ele>360.9</ele>
        <time>2017-10-22T10:08:50.000Z</time>
      </trkpt>
      <trkpt lat="47.5" lon="6.75458">
        <ele>361.1</ele>
        <time>2017-10-22T10:08:51.000Z</time>
      </trkpt>
      <trkpt lat="47.50002" lon="6.75462">
        <ele>361.2</ele>
        <time>2017-10-22T10:08:52.000Z</time>
      </trkpt>
      <trkpt lat="47.50003" lon="6.75465">
        <ele>361.3</ele>
        <time>2017-10-22T10:08:53.000Z</time>
      </trkpt>
      <trkpt lat="47.50005" lon="6.75468">
        <ele>361.4</ele>
        <time>2017-10-22T10:08:54.000Z</time>
      </trkpt>
      <trkpt lat="47.50007" lon="6.7547">
        <ele>361.5</ele>
        <time>2017-10-22T10:08:55.000Z</time>
      </trkpt>
      <trkpt lat="47.50008" lon="6.75473">
        <ele>361.6</ele>
        <time>2017-10-22T10:08:56.000Z</time>
      </trkpt>
      <trkpt lat="47.5001" lon="6.75478">
        <ele>361.7</ele>
        <time>2017-10-22T10:08:58.000Z</time>
      </trkpt>
      <trkpt lat="47.50011" lon="6.75481">
        <ele>361.7</ele>
        <time>2017-10-22T10:08:59.000Z</time>
      </trkpt>
      <trkpt lat="47.50012" lon="6.75485">
        <ele>361.8</ele>
        <time>2017-10-22T10:09:01.000Z</time>
      </trkpt>
      <trkpt lat="47.50013" lon="6.75489">
        <ele>361.8</ele>
        <time>2017-10-22T10:09:02.000Z</time>
      </trkpt>
      <trkpt lat="47.50014" lon="6.75495">
        <ele>361.8</ele>
        <time>2017-10-22T10:09:04.000Z</time>
      </trkpt>
      <trkpt lat="47.50015" lon="6.75498">
        <ele>361.7</ele>
        <time>2017-10-22T10:09:05.000Z</time>
      </trkpt>
      <trkpt lat="47.50016" lon="6.75504">
        <ele>361.5</ele>
        <time>2017-10-22T10:09:07.000Z</time>
      </trkpt>
      <trkpt lat="47.50017" lon="6.75508">
        <ele>361.4</ele>
        <time>2017-10-22T10:09:08.000Z</time>
      </trkpt>
      <trkpt lat="47.50018" lon="6.75512">
        <ele>361.3</ele>
        <time>2017-10-22T10:09:09.000Z</time>
      </trkpt>
      <trkpt lat="47.50018" lon="6.75515">
        <ele>361.2</ele>
        <time>2017-10-22T10:09:10.000Z</time>
      </trkpt>
      <trkpt lat="47.50018" lon="6.7552">
        <ele>361.2</ele>
        <time>2017-10-22T10:09:12.000Z</time>
      </trkpt>
      <trkpt lat="47.50019" lon="6.75523">
        <ele>361.2</ele>
        <time>2017-10-22T10:09:13.000Z</time>
      </trkpt>
      <trkpt lat="47.5002" lon="6.75528">
        <ele>361.4</ele>
        <time>2017-10-22T10:09:15.000Z</time>
      </trkpt>
      <trkpt lat="47.50021" lon="6.75532">
        <ele>361.4</ele>
        <time>2017-10-22T10:09:16.000Z</time>
      </trkpt>
      <trkpt lat="47.50022" lon="6.75536">
        <ele>361.4</ele>
        <time>2017-10-22T10:09:17.000Z</time>
      </trkpt>
      <trkpt lat="47.50023" lon="6.75539">
        <ele>361.4</ele>
        <time>2017-10-22T10:09:18.000Z</time>
      </trkpt>
      <trkpt lat="47.50025" lon="6.75544">
        <ele>361.3</ele>
        <time>2017-10-22T10:09:20.000Z</time>
      </trkpt>
      <trkpt lat="47.50026" lon="6.75546">
        <ele>361.4</ele>
        <time>2017-10-22T10:09:21.000Z</time>
      </trkpt>
      <trkpt lat="47.50027" lon="6.7555">
        <ele>361.4</ele>
        <time>2017-10-22T10:09:22.000Z</time>
      </trkpt>
      <trkpt lat="47.50027" lon="6.75553">
        <ele>361.4</ele>
        <time>2017-10-22T10:09:23.000Z</time>
      </trkpt>
      <trkpt lat="47.50028" lon="6.75557">
        <ele>361.4</ele>
        <time>2017-10-22T10:09:24.000Z</time>
      </trkpt>
      <trkpt lat="47.50029" lon="6.7556">
        <ele>361.4</ele>
        <time>2017-10-22T10:09:25.000Z</time>
      </trkpt>
      <trkpt lat="47.50031" lon="6.75565">
        <ele>361.4</ele>
        <time>2017-10-22T10:09:27.000Z</time>
      </trkpt>
      <trkpt lat="47.50032" lon="6.75567">
        <ele>361.3</ele>
        <time>2017-10-22T10:09:28.000Z</time>
      </trkpt>
      <trkpt lat="47.50033" lon="6.75573">
        <ele>361.2</ele>
        <time>2017-10-22T10:09:30.000Z</time>
      </trkpt>
      <trkpt lat="47.50034" lon="6.75575">
        <ele>361.1</ele>
        <time>2017-10-22T10:09:31.000Z</time>
      </trkpt>
      <trkpt lat="47.50035" lon="6.75581">
        <ele>360.8</ele>
        <time>2017-10-22T10:09:33.000Z</time>
      </trkpt>
      <trkpt lat="47.50036" lon="6.75584">
        <ele>360.6</ele>
        <time>2017-10-22T10:09:34.000Z</time>
      </trkpt>
      <trkpt lat="47.50038" lon="6.75589">
        <ele>360.3</ele>
        <time>2017-10-22T10:09:36.000Z</time>
      </trkpt>
      <trkpt lat="47.5004" lon="6.75592">
        <ele>360.1</ele>
        <time>2017-10-22T10:09:37.000Z</time>
      </trkpt>
      <trkpt lat="47.50042" lon="6.75596">
        <ele>359.8</ele>
        <time>2017-10-22T10:09:39.000Z</time>
      </trkpt>
      <trkpt lat="47.50044" lon="6.756">
        <ele>359.7</ele>
        <time>2017-10-22T10:09:40.000Z</time>
      </trkpt>
      <trkpt lat="47.50046" lon="6.75605">
        <ele>359.4</ele>
        <time>2017-10-22T10:09:42.000Z</time>
      </trkpt>
      <trkpt lat="47.50046" lon="6.75608">
        <ele>359.1</ele>
        <time>2017-10-22T10:09:43.000Z</time>
      </trkpt>
      <trkpt lat="47.50048" lon="6.75613">
        <ele>358.7</ele>
        <time>2017-10-22T10:09:45.000Z</time>
      </trkpt>
      <trkpt lat="47.50048" lon="6.75615">
        <ele>358.5</ele>
        <time>2017-10-22T10:09:46.000Z</time>
      </trkpt>
      <trkpt lat="47.5005" lon="6.7562">
        <ele>358.2</ele>
        <time>2017-10-22T10:09:48.000Z</time>
      </trkpt>
      <trkpt lat="47.50051" lon="6.75623">
        <ele>358.1</ele>
        <time>2017-10-22T10:09:49.000Z</time>
      </trkpt>
      <trkpt lat="47.50053" lon="6.75628">
        <ele>357.7</ele>
        <time>2017-10-22T10:09:51.000Z</time>
      </trkpt>
      <trkpt lat="47.50053" lon="6.7563">
        <ele>357.6</ele>
        <time>2017-10-22T10:09:52.000Z</time>
      </trkpt>
      <trkpt lat="47.50056" lon="6.75634">
        <ele>357.4</ele>
        <time>2017-10-22T10:09:54.000Z</time>
      </trkpt>
      <trkpt lat="47.50057" lon="6.75637">
        <ele>357.3</ele>
        <time>2017-10-22T10:09:55.000Z</time>
      </trkpt>
      <trkpt lat="47.50059" lon="6.75641">
        <ele>357.4</ele>
        <time>2017-10-22T10:09:57.000Z</time>
      </trkpt>
      <trkpt lat="47.5006" lon="6.75643">
        <ele>357.5</ele>
        <time>2017-10-22T10:09:58.000Z</time>
      </trkpt>
      <trkpt lat="47.50062" lon="6.75645">
        <ele>357.4</ele>
        <time>2017-10-22T10:09:59.000Z</time>
      </trkpt>
      <trkpt lat="47.50064" lon="6.75648">
        <ele>357.4</ele>
        <time>2017-10-22T10:10:00.000Z</time>
      </trkpt>
      <trkpt lat="47.50066" lon="6.75653">
        <ele>357.4</ele>
        <time>2017-10-22T10:10:02.000Z</time>
      </trkpt>
      <trkpt lat="47.50067" lon="6.75656">
        <ele>357.3</ele>
        <time>2017-10-22T10:10:03.000Z</time>
      </trkpt>
      <trkpt lat="47.50069" lon="6.75659">
        <ele>357.4</ele>
        <time>2017-10-22T10:10:05.000Z</time>
      </trkpt>
      <trkpt lat="47.50071" lon="6.75661">
        <ele>357.4</ele>
        <time>2017-10-22T10:10:06.000Z</time>
      </trkpt>
      <trkpt lat="47.50073" lon="6.75663">
        <ele>357.4</ele>
        <time>2017-10-22T10:10:07.000Z</time>
      </trkpt>
      <trkpt lat="47.50075" lon="6.75667">
        <ele>357.4</ele>
        <time>2017-10-22T10:10:08.000Z</time>
      </trkpt>
      <trkpt lat="47.50077" lon="6.75669">
        <ele>357.4</ele>
        <time>2017-10-22T10:10:09.000Z</time>
      </trkpt>
      <trkpt lat="47.50078" lon="6.75672">
        <ele>357.4</ele>
        <time>2017-10-22T10:10:10.000Z</time>
      </trkpt>
      <trkpt lat="47.50081" lon="6.75675">
        <ele>357.6</ele>
        <time>2017-10-22T10:10:12.000Z</time>
      </trkpt>
      <trkpt lat="47.50083" lon="6.75677">
        <ele>357.6</ele>
        <time>2017-10-22T10:10:13.000Z</time>
      </trkpt>
      <trkpt lat="47.50086" lon="6.75681">
        <ele>357.6</ele>
        <time>2017-10-22T10:10:15.000Z</time>
      </trkpt>
      <trkpt lat="47.50087" lon="6.75682">
        <ele>357.7</ele>
        <time>2017-10-22T10:10:16.000Z</time>
      </trkpt>
      <trkpt lat="47.50089" lon="6.75684">
        <ele>357.7</ele>
        <time>2017-10-22T10:10:17.000Z</time>
      </trkpt>
      <trkpt lat="47.50091" lon="6.75686">
        <ele>357.7</ele>
        <time>2017-10-22T10:10:18.000Z</time>
      </trkpt>
      <trkpt lat="47.50094" lon="6.75691">
        <ele>357.7</ele>
        <time>2017-10-22T10:10:20.000Z</time>
      </trkpt>
      <trkpt lat="47.50096" lon="6.75693">
        <ele>357.8</ele>
        <time>2017-10-22T10:10:21.000Z</time>
      </trkpt>
      <trkpt lat="47.50098" lon="6.75695">
        <ele>357.8</ele>
        <time>2017-10-22T10:10:22.000Z</time>
      </trkpt>
      <trkpt lat="47.501" lon="6.75696">
        <ele>357.8</ele>
        <time>2017-10-22T10:10:23.000Z</time>
      </trkpt>
      <trkpt lat="47.50103" lon="6.757">
        <ele>357.8</ele>
        <time>2017-10-22T10:10:25.000Z</time>
      </trkpt>
      <trkpt lat="47.50104" lon="6.75701">
        <ele>357.7</ele>
        <time>2017-10-22T10:10:26.000Z</time>
      </trkpt>
      <trkpt lat="47.50108" lon="6.75703">
        <ele>357.6</ele>
        <time>2017-10-22T10:10:28.000Z</time>
      </trkpt>
      <trkpt lat="47.5011" lon="6.75704">
        <ele>357.5</ele>
        <time>2017-10-22T10:10:29.000Z</time>
      </trkpt>
      <trkpt lat="47.50112" lon="6.75708">
        <ele>357.3</ele>
        <time>2017-10-22T10:10:31.000Z</time>
      </trkpt>
      <trkpt lat="47.50114" lon="6.75711">
        <ele>357.3</ele>
        <time>2017-10-22T10:10:32.000Z</time>
      </trkpt>
      <trkpt lat="47.50115" lon="6.75715">
        <ele>357.3</ele>
        <time>2017-10-22T10:10:33.000Z</time>
      </trkpt>
      <trkpt lat="47.50116" lon="6.75717">
        <ele>357.2</ele>
        <time>2017-10-22T10:10:34.000Z</time>
      </trkpt>
      <trkpt lat="47.50118" lon="6.75723">
        <ele>357</ele>
        <time>2017-10-22T10:10:36.000Z</time>
      </trkpt>
      <trkpt lat="47.50119" lon="6.75726">
        <ele>356.8</ele>
        <time>2017-10-22T10:10:37.000Z</time>
      </trkpt>
      <trkpt lat="47.5012" lon="6.7573">
        <ele>356.7</ele>
        <time>2017-10-22T10:10:38.000Z</time>
      </trkpt>
      <trkpt lat="47.50122" lon="6.75734">
        <ele>356.5</ele>
        <time>2017-10-22T10:10:39.000Z</time>
      </trkpt>
      <trkpt lat="47.50123" lon="6.75737">
        <ele>356.4</ele>
        <time>2017-10-22T10:10:40.000Z</time>
      </trkpt>
      <trkpt lat="47.50125" lon="6.75739">
        <ele>356.3</ele>
        <time>2017-10-22T10:10:41.000Z</time>
      </trkpt>
      <trkpt lat="47.50128" lon="6.75743">
        <ele>355.9</ele>
        <time>2017-10-22T10:10:43.000Z</time>
      </trkpt>
      <trkpt lat="47.5013" lon="6.75745">
        <ele>355.8</ele>
        <time>2017-10-22T10:10:44.000Z</time>
      </trkpt>
      <trkpt lat="47.50133" lon="6.75749">
        <ele>355.7</ele>
        <time>2017-10-22T10:10:47.000Z</time>
      </trkpt>
      <trkpt lat="47.50135" lon="6.75752">
        <ele>355.6</ele>
        <time>2017-10-22T10:10:48.000Z</time>
      </trkpt>
      <trkpt lat="47.50138" lon="6.75754">
        <ele>355.6</ele>
        <time>2017-10-22T10:10:49.000Z</time>
      </trkpt>
      <trkpt lat="47.5014" lon="6.75755">
        <ele>355.5</ele>
        <time>2017-10-22T10:10:50.000Z</time>
      </trkpt>
      <trkpt lat="47.50142" lon="6.75757">
        <ele>355.6</ele>
        <time>2017-10-22T10:10:51.000Z</time>
      </trkpt>
      <trkpt lat="47.50144" lon="6.75759">
        <ele>355.7</ele>
        <time>2017-10-22T10:10:52.000Z</time>
      </trkpt>
      <trkpt lat="47.50147" lon="6.75761">
        <ele>355.7</ele>
        <time>2017-10-22T10:10:53.000Z</time>
      </trkpt>
      <trkpt lat="47.50149" lon="6.75762">
        <ele>355.7</ele>
        <time>2017-10-22T10:10:54.000Z</time>
      </trkpt>
      <trkpt lat="47.50151" lon="6.75764">
        <ele>355.7</ele>
        <time>2017-10-22T10:10:55.000Z</time>
      </trkpt>
      <trkpt lat="47.50153" lon="6.75766">
        <ele>355.7</ele>
        <time>2017-10-22T10:10:56.000Z</time>
      </trkpt>
      <trkpt lat="47.50156" lon="6.75769">
        <ele>355.7</ele>
        <time>2017-10-22T10:10:58.000Z</time>
      </trkpt>
      <trkpt lat="47.50157" lon="6.75771">
        <ele>355.7</ele>
        <time>2017-10-22T10:10:59.000Z</time>
      </trkpt>
      <trkpt lat="47.5016" lon="6.75775">
        <ele>355.9</ele>
        <time>2017-10-22T10:11:01.000Z</time>
      </trkpt>
      <trkpt lat="47.50161" lon="6.75777">
        <ele>355.9</ele>
        <time>2017-10-22T10:11:02.000Z</time>
      </trkpt>
      <trkpt lat="47.50163" lon="6.75781">
        <ele>356</ele>
        <time>2017-10-22T10:11:04.000Z</time>
      </trkpt>
      <trkpt lat="47.50164" lon="6.75783">
        <ele>356.1</ele>
        <time>2017-10-22T10:11:05.000Z</time>
      </trkpt>
      <trkpt lat="47.50166" lon="6.75787">
        <ele>356.2</ele>
        <time>2017-10-22T10:11:06.000Z</time>
      </trkpt>
      <trkpt lat="47.50169" lon="6.7579">
        <ele>356.4</ele>
        <time>2017-10-22T10:11:07.000Z</time>
      </trkpt>
      <trkpt lat="47.50171" lon="6.75794">
        <ele>356.6</ele>
        <time>2017-10-22T10:11:08.000Z</time>
      </trkpt>
      <trkpt lat="47.50173" lon="6.75799">
        <ele>356.8</ele>
        <time>2017-10-22T10:11:09.000Z</time>
      </trkpt>
      <trkpt lat="47.50174" lon="6.75802">
        <ele>357</ele>
        <time>2017-10-22T10:11:10.000Z</time>
      </trkpt>
      <trkpt lat="47.50176" lon="6.75805">
        <ele>357.1</ele>
        <time>2017-10-22T10:11:11.000Z</time>
      </trkpt>
      <trkpt lat="47.50177" lon="6.75807">
        <ele>357.3</ele>
        <time>2017-10-22T10:11:12.000Z</time>
      </trkpt>
      <trkpt lat="47.50178" lon="6.7581">
        <ele>357.5</ele>
        <time>2017-10-22T10:11:13.000Z</time>
      </trkpt>
      <trkpt lat="47.50179" lon="6.75814">
        <ele>357.8</ele>
        <time>2017-10-22T10:11:14.000Z</time>
      </trkpt>
      <trkpt lat="47.5018" lon="6.75817">
        <ele>358.1</ele>
        <time>2017-10-22T10:11:15.000Z</time>
      </trkpt>
      <trkpt lat="47.50181" lon="6.7582">
        <ele>358.4</ele>
        <time>2017-10-22T10:11:16.000Z</time>
      </trkpt>
      <trkpt lat="47.50182" lon="6.75823">
        <ele>358.9</ele>
        <time>2017-10-22T10:11:17.000Z</time>
      </trkpt>
      <trkpt lat="47.50183" lon="6.75827">
        <ele>359.3</ele>
        <time>2017-10-22T10:11:18.000Z</time>
      </trkpt>
      <trkpt lat="47.50184" lon="6.7583">
        <ele>359.7</ele>
        <time>2017-10-22T10:11:19.000Z</time>
      </trkpt>
      <trkpt lat="47.50185" lon="6.75833">
        <ele>360.1</ele>
        <time>2017-10-22T10:11:20.000Z</time>
      </trkpt>
      <trkpt lat="47.50186" lon="6.75837">
        <ele>360.3</ele>
        <time>2017-10-22T10:11:21.000Z</time>
      </trkpt>
      <trkpt lat="47.50187" lon="6.75842">
        <ele>361</ele>
        <time>2017-10-22T10:11:23.000Z</time>
      </trkpt>
      <trkpt lat="47.50189" lon="6.75844">
        <ele>361.2</ele>
        <time>2017-10-22T10:11:24.000Z</time>
      </trkpt>
      <trkpt lat="47.5019" lon="6.75847">
        <ele>361.5</ele>
        <time>2017-10-22T10:11:25.000Z</time>
      </trkpt>
      <trkpt lat="47.50191" lon="6.75851">
        <ele>361.7</ele>
        <time>2017-10-22T10:11:26.000Z</time>
      </trkpt>
      <trkpt lat="47.50192" lon="6.75854">
        <ele>362</ele>
        <time>2017-10-22T10:11:27.000Z</time>
      </trkpt>
      <trkpt lat="47.50193" lon="6.75858">
        <ele>362.3</ele>
        <time>2017-10-22T10:11:28.000Z</time>
      </trkpt>
      <trkpt lat="47.50195" lon="6.75861">
        <ele>362.7</ele>
        <time>2017-10-22T10:11:29.000Z</time>
      </trkpt>
      <trkpt lat="47.50196" lon="6.75865">
        <ele>363</ele>
        <time>2017-10-22T10:11:30.000Z</time>
      </trkpt>
      <trkpt lat="47.50197" lon="6.75869">
        <ele>363.4</ele>
        <time>2017-10-22T10:11:31.000Z</time>
      </trkpt>
      <trkpt lat="47.50199" lon="6.75872">
        <ele>363.8</ele>
        <time>2017-10-22T10:11:32.000Z</time>
      </trkpt>
      <trkpt lat="47.502" lon="6.75875">
        <ele>364.3</ele>
        <time>2017-10-22T10:11:33.000Z</time>
      </trkpt>
      <trkpt lat="47.50201" lon="6.75878">
        <ele>364.7</ele>
        <time>2017-10-22T10:11:34.000Z</time>
      </trkpt>
      <trkpt lat="47.50202" lon="6.75882">
        <ele>365.1</ele>
        <time>2017-10-22T10:11:35.000Z</time>
      </trkpt>
      <trkpt lat="47.50203" lon="6.75885">
        <ele>365.6</ele>
        <time>2017-10-22T10:11:36.000Z</time>
      </trkpt>
      <trkpt lat="47.50203" lon="6.7589">
        <ele>366.5</ele>
        <time>2017-10-22T10:11:38.000Z</time>
      </trkpt>
      <trkpt lat="47.50203" lon="6.75893">
        <ele>366.9</ele>
        <time>2017-10-22T10:11:39.000Z</time>
      </trkpt>
      <trkpt lat="47.50204" lon="6.75898">
        <ele>367.8</ele>
        <time>2017-10-22T10:11:41.000Z</time>
      </trkpt>
      <trkpt lat="47.50204" lon="6.75901">
        <ele>368.3</ele>
        <time>2017-10-22T10:11:42.000Z</time>
      </trkpt>
      <trkpt lat="47.50205" lon="6.75906">
        <ele>369.2</ele>
        <time>2017-10-22T10:11:44.000Z</time>
      </trkpt>
      <trkpt lat="47.50205" lon="6.75908">
        <ele>369.7</ele>
        <time>2017-10-22T10:11:45.000Z</time>
      </trkpt>
      <trkpt lat="47.50206" lon="6.75911">
        <ele>370.1</ele>
        <time>2017-10-22T10:11:46.000Z</time>
      </trkpt>
      <trkpt lat="47.50208" lon="6.75914">
        <ele>370.5</ele>
        <time>2017-10-22T10:11:47.000Z</time>
      </trkpt>
      <trkpt lat="47.5021" lon="6.7592">
        <ele>371.8</ele>
        <time>2017-10-22T10:11:50.000Z</time>
      </trkpt>
      <trkpt lat="47.5021" lon="6.75922">
        <ele>372.2</ele>
        <time>2017-10-22T10:11:51.000Z</time>
      </trkpt>
      <trkpt lat="47.50212" lon="6.75927">
        <ele>373</ele>
        <time>2017-10-22T10:11:53.000Z</time>
      </trkpt>
      <trkpt lat="47.50212" lon="6.75929">
        <ele>373.3</ele>
        <time>2017-10-22T10:11:54.000Z</time>
      </trkpt>
      <trkpt lat="47.50214" lon="6.75933">
        <ele>373.9</ele>
        <time>2017-10-22T10:11:56.000Z</time>
      </trkpt>
      <trkpt lat="47.50215" lon="6.75935">
        <ele>374.2</ele>
        <time>2017-10-22T10:11:57.000Z</time>
      </trkpt>
      <trkpt lat="47.50216" lon="6.75941">
        <ele>374.8</ele>
        <time>2017-10-22T10:11:59.000Z</time>
      </trkpt>
      <trkpt lat="47.50216" lon="6.75943">
        <ele>375.1</ele>
        <time>2017-10-22T10:12:00.000Z</time>
      </trkpt>
      <trkpt lat="47.50217" lon="6.75949">
        <ele>375.5</ele>
        <time>2017-10-22T10:12:02.000Z</time>
      </trkpt>
      <trkpt lat="47.50217" lon="6.75951">
        <ele>375.8</ele>
        <time>2017-10-22T10:12:03.000Z</time>
      </trkpt>
      <trkpt lat="47.50217" lon="6.75957">
        <ele>376.2</ele>
        <time>2017-10-22T10:12:05.000Z</time>
      </trkpt>
      <trkpt lat="47.50218" lon="6.75959">
        <ele>376.4</ele>
        <time>2017-10-22T10:12:06.000Z</time>
      </trkpt>
      <trkpt lat="47.50219" lon="6.75963">
        <ele>376.9</ele>
        <time>2017-10-22T10:12:08.000Z</time>
      </trkpt>
      <trkpt lat="47.5022" lon="6.75965">
        <ele>377.2</ele>
        <time>2017-10-22T10:12:09.000Z</time>
      </trkpt>
      <trkpt lat="47.50222" lon="6.7597">
        <ele>377.7</ele>
        <time>2017-10-22T10:12:12.000Z</time>
      </trkpt>
      <trkpt lat="47.50222" lon="6.75971">
        <ele>377.8</ele>
        <time>2017-10-22T10:12:13.000Z</time>
      </trkpt>
      <trkpt lat="47.50224" lon="6.75976">
        <ele>378.3</ele>
        <time>2017-10-22T10:12:16.000Z</time>
      </trkpt>
      <trkpt lat="47.50225" lon="6.75978">
        <ele>378.4</ele>
        <time>2017-10-22T10:12:17.000Z</time>
      </trkpt>
      <trkpt lat="47.50227" lon="6.75981">
        <ele>378.5</ele>
        <time>2017-10-22T10:12:18.000Z</time>
      </trkpt>
      <trkpt lat="47.50227" lon="6.75984">
        <ele>378.7</ele>
        <time>2017-10-22T10:12:19.000Z</time>
      </trkpt>
      <trkpt lat="47.50225" lon="6.75989">
        <ele>380.8</ele>
        <time>2017-10-22T10:12:27.000Z</time>
      </trkpt>
      <trkpt lat="47.50225" lon="6.7599">
        <ele>381.2</ele>
        <time>2017-10-22T10:12:28.000Z</time>
      </trkpt>
      <trkpt lat="47.50222" lon="6.75993">
        <ele>382.9</ele>
        <time>2017-10-22T10:12:33.000Z</time>
      </trkpt>
      <trkpt lat="47.5022" lon="6.75994">
        <ele>383.2</ele>
        <time>2017-10-22T10:12:34.000Z</time>
      </trkpt>
      <trkpt lat="47.50216" lon="6.75997">
        <ele>386.6</ele>
        <time>2017-10-22T10:12:42.000Z</time>
      </trkpt>
      <trkpt lat="47.50216" lon="6.75998">
        <ele>387.1</ele>
        <time>2017-10-22T10:12:43.000Z</time>
      </trkpt>
      <trkpt lat="47.50211" lon="6.75999">
        <ele>388.6</ele>
        <time>2017-10-22T10:12:48.000Z</time>
      </trkpt>
      <trkpt lat="47.50211" lon="6.75999">
        <ele>388.9</ele>
        <time>2017-10-22T10:12:49.000Z</time>
      </trkpt>
      <trkpt lat="47.50207" lon="6.76001">
        <ele>391.2</ele>
        <time>2017-10-22T10:12:56.000Z</time>
      </trkpt>
      <trkpt lat="47.50207" lon="6.76002">
        <ele>391.6</ele>
        <time>2017-10-22T10:12:57.000Z</time>
      </trkpt>
      <trkpt lat="47.50203" lon="6.76005">
        <ele>392.1</ele>
        <time>2017-10-22T10:13:00.000Z</time>
      </trkpt>
      <trkpt lat="47.50203" lon="6.76006">
        <ele>392.3</ele>
        <time>2017-10-22T10:13:01.000Z</time>
      </trkpt>
      <trkpt lat="47.50199" lon="6.76007">
        <ele>393.1</ele>
        <time>2017-10-22T10:13:04.000Z</time>
      </trkpt>
      <trkpt lat="47.50198" lon="6.76007">
        <ele>393.3</ele>
        <time>2017-10-22T10:13:05.000Z</time>
      </trkpt>
      <trkpt lat="47.50194" lon="6.76008">
        <ele>394.2</ele>
        <time>2017-10-22T10:13:08.000Z</time>
      </trkpt>
      <trkpt lat="47.50191" lon="6.76008">
        <ele>394.5</ele>
        <time>2017-10-22T10:13:09.000Z</time>
      </trkpt>
      <trkpt lat="47.50187" lon="6.76011">
        <ele>395.5</ele>
        <time>2017-10-22T10:13:13.000Z</time>
      </trkpt>
      <trkpt lat="47.50186" lon="6.76011">
        <ele>395.7</ele>
        <time>2017-10-22T10:13:14.000Z</time>
      </trkpt>
      <trkpt lat="47.50182" lon="6.76013">
        <ele>397</ele>
        <time>2017-10-22T10:13:19.000Z</time>
      </trkpt>
      <trkpt lat="47.5018" lon="6.76014">
        <ele>397.3</ele>
        <time>2017-10-22T10:13:20.000Z</time>
      </trkpt>
      <trkpt lat="47.50176" lon="6.76015">
        <ele>398.3</ele>
        <time>2017-10-22T10:13:23.000Z</time>
      </trkpt>
      <trkpt lat="47.50175" lon="6.76015">
        <ele>398.6</ele>
        <time>2017-10-22T10:13:24.000Z</time>
      </trkpt>
      <trkpt lat="47.50171" lon="6.76017">
        <ele>399.8</ele>
        <time>2017-10-22T10:13:28.000Z</time>
      </trkpt>
      <trkpt lat="47.50169" lon="6.76017">
        <ele>400.2</ele>
        <time>2017-10-22T10:13:29.000Z</time>
      </trkpt>
      <trkpt lat="47.50165" lon="6.76017">
        <ele>401.9</ele>
        <time>2017-10-22T10:13:34.000Z</time>
      </trkpt>
      <trkpt lat="47.50164" lon="6.76017">
        <ele>402.2</ele>
        <time>2017-10-22T10:13:35.000Z</time>
      </trkpt>
      <trkpt lat="47.5016" lon="6.76018">
        <ele>403.1</ele>
        <time>2017-10-22T10:13:38.000Z</time>
      </trkpt>
      <trkpt lat="47.50158" lon="6.76019">
        <ele>403.4</ele>
        <time>2017-10-22T10:13:39.000Z</time>
      </trkpt>
      <trkpt lat="47.50154" lon="6.7602">
        <ele>403.7</ele>
        <time>2017-10-22T10:13:40.000Z</time>
      </trkpt>
      <trkpt lat="47.50152" lon="6.76021">
        <ele>404</ele>
        <time>2017-10-22T10:13:41.000Z</time>
      </trkpt>
      <trkpt lat="47.50148" lon="6.76023">
        <ele>404.5</ele>
        <time>2017-10-22T10:13:43.000Z</time>
      </trkpt>
      <trkpt lat="47.50147" lon="6.76023">
        <ele>404.8</ele>
        <time>2017-10-22T10:13:44.000Z</time>
      </trkpt>
      <trkpt lat="47.50144" lon="6.76027">
        <ele>406</ele>
        <time>2017-10-22T10:13:48.000Z</time>
      </trkpt>
      <trkpt lat="47.50144" lon="6.76027">
        <ele>406.3</ele>
        <time>2017-10-22T10:13:49.000Z</time>
      </trkpt>
      <trkpt lat="47.5014" lon="6.7603">
        <ele>407.4</ele>
        <time>2017-10-22T10:13:54.000Z</time>
      </trkpt>
      <trkpt lat="47.50139" lon="6.76031">
        <ele>407.6</ele>
        <time>2017-10-22T10:13:55.000Z</time>
      </trkpt>
      <trkpt lat="47.50135" lon="6.76032">
        <ele>408.1</ele>
        <time>2017-10-22T10:13:57.000Z</time>
      </trkpt>
      <trkpt lat="47.50134" lon="6.76033">
        <ele>408.3</ele>
        <time>2017-10-22T10:13:58.000Z</time>
      </trkpt>
      <trkpt lat="47.50132" lon="6.76034">
        <ele>408.8</ele>
        <time>2017-10-22T10:14:00.000Z</time>
      </trkpt>
      <trkpt lat="47.5013" lon="6.76035">
        <ele>409.1</ele>
        <time>2017-10-22T10:14:01.000Z</time>
      </trkpt>
      <trkpt lat="47.50126" lon="6.76037">
        <ele>410.2</ele>
        <time>2017-10-22T10:14:05.000Z</time>
      </trkpt>
      <trkpt lat="47.50125" lon="6.76037">
        <ele>410.5</ele>
        <time>2017-10-22T10:14:06.000Z</time>
      </trkpt>
      <trkpt lat="47.50121" lon="6.76038">
        <ele>411.9</ele>
        <time>2017-10-22T10:14:10.000Z</time>
      </trkpt>
      <trkpt lat="47.5012" lon="6.76039">
        <ele>412.3</ele>
        <time>2017-10-22T10:14:11.000Z</time>
      </trkpt>
      <trkpt lat="47.50118" lon="6.76039">
        <ele>413.2</ele>
        <time>2017-10-22T10:14:13.000Z</time>
      </trkpt>
      <trkpt lat="47.50115" lon="6.76039">
        <ele>413.6</ele>
        <time>2017-10-22T10:14:14.000Z</time>
      </trkpt>
      <trkpt lat="47.5011" lon="6.76038">
        <ele>415.6</ele>
        <time>2017-10-22T10:14:19.000Z</time>
      </trkpt>
      <trkpt lat="47.50109" lon="6.76039">
        <ele>415.9</ele>
        <time>2017-10-22T10:14:20.000Z</time>
      </trkpt>
      <trkpt lat="47.50107" lon="6.76044">
        <ele>417.1</ele>
        <time>2017-10-22T10:14:28.000Z</time>
      </trkpt>
      <trkpt lat="47.50107" lon="6.76045">
        <ele>417.1</ele>
        <time>2017-10-22T10:14:29.000Z</time>
      </trkpt>
      <trkpt lat="47.50107" lon="6.76051">
        <ele>417.2</ele>
        <time>2017-10-22T10:14:31.000Z</time>
      </trkpt>
      <trkpt lat="47.50107" lon="6.76053">
        <ele>417.2</ele>
        <time>2017-10-22T10:14:32.000Z</time>
      </trkpt>
      <trkpt lat="47.50107" lon="6.76058">
        <ele>417.1</ele>
        <time>2017-10-22T10:14:36.000Z</time>
      </trkpt>
      <trkpt lat="47.50107" lon="6.7606">
        <ele>416.9</ele>
        <time>2017-10-22T10:14:37.000Z</time>
      </trkpt>
      <trkpt lat="47.50109" lon="6.76062">
        <ele>416.6</ele>
        <time>2017-10-22T10:14:39.000Z</time>
      </trkpt>
      <trkpt lat="47.50109" lon="6.76066">
        <ele>416.4</ele>
        <time>2017-10-22T10:14:40.000Z</time>
      </trkpt>
      <trkpt lat="47.50109" lon="6.7607">
        <ele>416.3</ele>
        <time>2017-10-22T10:14:41.000Z</time>
      </trkpt>
      <trkpt lat="47.50109" lon="6.76073">
        <ele>416</ele>
        <time>2017-10-22T10:14:42.000Z</time>
      </trkpt>
      <trkpt lat="47.50111" lon="6.76079">
        <ele>415.3</ele>
        <time>2017-10-22T10:14:45.000Z</time>
      </trkpt>
      <trkpt lat="47.50112" lon="6.76081">
        <ele>415</ele>
        <time>2017-10-22T10:14:46.000Z</time>
      </trkpt>
      <trkpt lat="47.50113" lon="6.76087">
        <ele>414.3</ele>
        <time>2017-10-22T10:14:48.000Z</time>
      </trkpt>
      <trkpt lat="47.50112" lon="6.76089">
        <ele>413.9</ele>
        <time>2017-10-22T10:14:49.000Z</time>
      </trkpt>
      <trkpt lat="47.50113" lon="6.76095">
        <ele>413.2</ele>
        <time>2017-10-22T10:14:51.000Z</time>
      </trkpt>
      <trkpt lat="47.50113" lon="6.76098">
        <ele>412.8</ele>
        <time>2017-10-22T10:14:52.000Z</time>
      </trkpt>
      <trkpt lat="47.50114" lon="6.76103">
        <ele>411.6</ele>
        <time>2017-10-22T10:14:55.000Z</time>
      </trkpt>
      <trkpt lat="47.50114" lon="6.76105">
        <ele>411.3</ele>
        <time>2017-10-22T10:14:56.000Z</time>
      </trkpt>
      <trkpt lat="47.50114" lon="6.76108">
        <ele>410.8</ele>
        <time>2017-10-22T10:14:57.000Z</time>
      </trkpt>
      <trkpt lat="47.50115" lon="6.76112">
        <ele>410.4</ele>
        <time>2017-10-22T10:14:58.000Z</time>
      </trkpt>
      <trkpt lat="47.50115" lon="6.76117">
        <ele>409.6</ele>
        <time>2017-10-22T10:15:00.000Z</time>
      </trkpt>
      <trkpt lat="47.50115" lon="6.76119">
        <ele>409.2</ele>
        <time>2017-10-22T10:15:01.000Z</time>
      </trkpt>
      <trkpt lat="47.50116" lon="6.76125">
        <ele>406.6</ele>
        <time>2017-10-22T10:15:07.000Z</time>
      </trkpt>
      <trkpt lat="47.50115" lon="6.7613">
        <ele>406.3</ele>
        <time>2017-10-22T10:15:08.000Z</time>
      </trkpt>
      <trkpt lat="47.50115" lon="6.76135">
        <ele>405.9</ele>
        <time>2017-10-22T10:15:09.000Z</time>
      </trkpt>
      <trkpt lat="47.50116" lon="6.76139">
        <ele>405.5</ele>
        <time>2017-10-22T10:15:10.000Z</time>
      </trkpt>
      <trkpt lat="47.50117" lon="6.76145">
        <ele>405.1</ele>
        <time>2017-10-22T10:15:11.000Z</time>
      </trkpt>
      <trkpt lat="47.50117" lon="6.76148">
        <ele>404.7</ele>
        <time>2017-10-22T10:15:12.000Z</time>
      </trkpt>
      <trkpt lat="47.50118" lon="6.76152">
        <ele>403.7</ele>
        <time>2017-10-22T10:15:14.000Z</time>
      </trkpt>
      <trkpt lat="47.50118" lon="6.76155">
        <ele>403.1</ele>
        <time>2017-10-22T10:15:15.000Z</time>
      </trkpt>
      <trkpt lat="47.50119" lon="6.76159">
        <ele>402.6</ele>
        <time>2017-10-22T10:15:16.000Z</time>
      </trkpt>
      <trkpt lat="47.5012" lon="6.76165">
        <ele>402.1</ele>
        <time>2017-10-22T10:15:17.000Z</time>
      </trkpt>
      <trkpt lat="47.5012" lon="6.76171">
        <ele>401.7</ele>
        <time>2017-10-22T10:15:18.000Z</time>
      </trkpt>
      <trkpt lat="47.50121" lon="6.76174">
        <ele>401.4</ele>
        <time>2017-10-22T10:15:19.000Z</time>
      </trkpt>
      <trkpt lat="47.50122" lon="6.76179">
        <ele>400.8</ele>
        <time>2017-10-22T10:15:21.000Z</time>
      </trkpt>
      <trkpt lat="47.50122" lon="6.76185">
        <ele>400.4</ele>
        <time>2017-10-22T10:15:22.000Z</time>
      </trkpt>
      <trkpt lat="47.50121" lon="6.76191">
        <ele>400.1</ele>
        <time>2017-10-22T10:15:23.000Z</time>
      </trkpt>
      <trkpt lat="47.50121" lon="6.76197">
        <ele>399.9</ele>
        <time>2017-10-22T10:15:24.000Z</time>
      </trkpt>
      <trkpt lat="47.50122" lon="6.76201">
        <ele>399.5</ele>
        <time>2017-10-22T10:15:28.000Z</time>
      </trkpt>
      <trkpt lat="47.50124" lon="6.76208">
        <ele>399.5</ele>
        <time>2017-10-22T10:15:29.000Z</time>
      </trkpt>
      <trkpt lat="47.50126" lon="6.76214">
        <ele>399.4</ele>
        <time>2017-10-22T10:15:30.000Z</time>
      </trkpt>
      <trkpt lat="47.50126" lon="6.76219">
        <ele>399.6</ele>
        <time>2017-10-22T10:15:32.000Z</time>
      </trkpt>
      <trkpt lat="47.50127" lon="6.76223">
        <ele>399.7</ele>
        <time>2017-10-22T10:15:33.000Z</time>
      </trkpt>
      <trkpt lat="47.50128" lon="6.76227">
        <ele>399.9</ele>
        <time>2017-10-22T10:15:34.000Z</time>
      </trkpt>
      <trkpt lat="47.50128" lon="6.76232">
        <ele>400</ele>
        <time>2017-10-22T10:15:35.000Z</time>
      </trkpt>
      <trkpt lat="47.50129" lon="6.76238">
        <ele>400.4</ele>
        <time>2017-10-22T10:15:37.000Z</time>
      </trkpt>
      <trkpt lat="47.5013" lon="6.76243">
        <ele>400.6</ele>
        <time>2017-10-22T10:15:38.000Z</time>
      </trkpt>
      <trkpt lat="47.50131" lon="6.76248">
        <ele>401</ele>
        <time>2017-10-22T10:15:40.000Z</time>
      </trkpt>
      <trkpt lat="47.50132" lon="6.76251">
        <ele>401.2</ele>
        <time>2017-10-22T10:15:41.000Z</time>
      </trkpt>
      <trkpt lat="47.50133" lon="6.76254">
        <ele>401.6</ele>
        <time>2017-10-22T10:15:43.000Z</time>
      </trkpt>
      <trkpt lat="47.50135" lon="6.76258">
        <ele>401.9</ele>
        <time>2017-10-22T10:15:44.000Z</time>
      </trkpt>
      <trkpt lat="47.50136" lon="6.76262">
        <ele>402.1</ele>
        <time>2017-10-22T10:15:45.000Z</time>
      </trkpt>
      <trkpt lat="47.50137" lon="6.76267">
        <ele>402.2</ele>
        <time>2017-10-22T10:15:46.000Z</time>
      </trkpt>
      <trkpt lat="47.50139" lon="6.76271">
        <ele>402.5</ele>
        <time>2017-10-22T10:15:47.000Z</time>
      </trkpt>
      <trkpt lat="47.5014" lon="6.76277">
        <ele>402.8</ele>
        <time>2017-10-22T10:15:48.000Z</time>
      </trkpt>
      <trkpt lat="47.5014" lon="6.76283">
        <ele>403.1</ele>
        <time>2017-10-22T10:15:49.000Z</time>
      </trkpt>
      <trkpt lat="47.50141" lon="6.76288">
        <ele>403.3</ele>
        <time>2017-10-22T10:15:50.000Z</time>
      </trkpt>
      <trkpt lat="47.50142" lon="6.76292">
        <ele>403.6</ele>
        <time>2017-10-22T10:15:51.000Z</time>
      </trkpt>
      <trkpt lat="47.50142" lon="6.76296">
        <ele>403.7</ele>
        <time>2017-10-22T10:15:52.000Z</time>
      </trkpt>
      <trkpt lat="47.50143" lon="6.76301">
        <ele>404</ele>
        <time>2017-10-22T10:15:54.000Z</time>
      </trkpt>
      <trkpt lat="47.50146" lon="6.76308">
        <ele>404.1</ele>
        <time>2017-10-22T10:15:55.000Z</time>
      </trkpt>
      <trkpt lat="47.50146" lon="6.76311">
        <ele>404.2</ele>
        <time>2017-10-22T10:15:56.000Z</time>
      </trkpt>
      <trkpt lat="47.50148" lon="6.76315">
        <ele>404.3</ele>
        <time>2017-10-22T10:15:57.000Z</time>
      </trkpt>
      <trkpt lat="47.50149" lon="6.76318">
        <ele>404.5</ele>
        <time>2017-10-22T10:15:58.000Z</time>
      </trkpt>
      <trkpt lat="47.5015" lon="6.76322">
        <ele>404.6</ele>
        <time>2017-10-22T10:15:59.000Z</time>
      </trkpt>
      <trkpt lat="47.5015" lon="6.76326">
        <ele>404.7</ele>
        <time>2017-10-22T10:16:00.000Z</time>
      </trkpt>
      <trkpt lat="47.50151" lon="6.76329">
        <ele>404.8</ele>
        <time>2017-10-22T10:16:01.000Z</time>
      </trkpt>
      <trkpt lat="47.5015" lon="6.76334">
        <ele>404.7</ele>
        <time>2017-10-22T10:16:02.000Z</time>
      </trkpt>
      <trkpt lat="47.50151" lon="6.76338">
        <ele>404.8</ele>
        <time>2017-10-22T10:16:03.000Z</time>
      </trkpt>
      <trkpt lat="47.50152" lon="6.76344">
        <ele>404.7</ele>
        <time>2017-10-22T10:16:05.000Z</time>
      </trkpt>
      <trkpt lat="47.50152" lon="6.76348">
        <ele>404.7</ele>
        <time>2017-10-22T10:16:06.000Z</time>
      </trkpt>
      <trkpt lat="47.50153" lon="6.76351">
        <ele>404.6</ele>
        <time>2017-10-22T10:16:07.000Z</time>
      </trkpt>
      <trkpt lat="47.50154" lon="6.76354">
        <ele>404.6</ele>
        <time>2017-10-22T10:16:08.000Z</time>
      </trkpt>
      <trkpt lat="47.50155" lon="6.76359">
        <ele>404.6</ele>
        <time>2017-10-22T10:16:11.000Z</time>
      </trkpt>
      <trkpt lat="47.50155" lon="6.76362">
        <ele>404.6</ele>
        <time>2017-10-22T10:16:12.000Z</time>
      </trkpt>
      <trkpt lat="47.50157" lon="6.76365">
        <ele>404.6</ele>
        <time>2017-10-22T10:16:13.000Z</time>
      </trkpt>
      <trkpt lat="47.50158" lon="6.76369">
        <ele>404.6</ele>
        <time>2017-10-22T10:16:14.000Z</time>
      </trkpt>
      <trkpt lat="47.5016" lon="6.76374">
        <ele>404.6</ele>
        <time>2017-10-22T10:16:15.000Z</time>
      </trkpt>
      <trkpt lat="47.50162" lon="6.76379">
        <ele>404.7</ele>
        <time>2017-10-22T10:16:16.000Z</time>
      </trkpt>
      <trkpt lat="47.50163" lon="6.76384">
        <ele>404.8</ele>
        <time>2017-10-22T10:16:17.000Z</time>
      </trkpt>
      <trkpt lat="47.50165" lon="6.76389">
        <ele>404.9</ele>
        <time>2017-10-22T10:16:18.000Z</time>
      </trkpt>
      <trkpt lat="47.50167" lon="6.76393">
        <ele>405</ele>
        <time>2017-10-22T10:16:19.000Z</time>
      </trkpt>
      <trkpt lat="47.50169" lon="6.76398">
        <ele>405.1</ele>
        <time>2017-10-22T10:16:20.000Z</time>
      </trkpt>
      <trkpt lat="47.5017" lon="6.76401">
        <ele>405.2</ele>
        <time>2017-10-22T10:16:21.000Z</time>
      </trkpt>
      <trkpt lat="47.50172" lon="6.76403">
        <ele>405.3</ele>
        <time>2017-10-22T10:16:22.000Z</time>
      </trkpt>
      <trkpt lat="47.50173" lon="6.76409">
        <ele>405.6</ele>
        <time>2017-10-22T10:16:24.000Z</time>
      </trkpt>
      <trkpt lat="47.50175" lon="6.76412">
        <ele>405.9</ele>
        <time>2017-10-22T10:16:25.000Z</time>
      </trkpt>
      <trkpt lat="47.50176" lon="6.76416">
        <ele>406.1</ele>
        <time>2017-10-22T10:16:26.000Z</time>
      </trkpt>
      <trkpt lat="47.50177" lon="6.76419">
        <ele>406.3</ele>
        <time>2017-10-22T10:16:27.000Z</time>
      </trkpt>
      <trkpt lat="47.50179" lon="6.76422">
        <ele>406.6</ele>
        <time>2017-10-22T10:16:28.000Z</time>
      </trkpt>
      <trkpt lat="47.5018" lon="6.76425">
        <ele>406.9</ele>
        <time>2017-10-22T10:16:29.000Z</time>
      </trkpt>
      <trkpt lat="47.50182" lon="6.76429">
        <ele>407.2</ele>
        <time>2017-10-22T10:16:30.000Z</time>
      </trkpt>
      <trkpt lat="47.50183" lon="6.76434">
        <ele>407.5</ele>
        <time>2017-10-22T10:16:31.000Z</time>
      </trkpt>
      <trkpt lat="47.50184" lon="6.76438">
        <ele>407.7</ele>
        <time>2017-10-22T10:16:32.000Z</time>
      </trkpt>
      <trkpt lat="47.50186" lon="6.76441">
        <ele>407.9</ele>
        <time>2017-10-22T10:16:33.000Z</time>
      </trkpt>
      <trkpt lat="47.50188" lon="6.76446">
        <ele>408.1</ele>
        <time>2017-10-22T10:16:34.000Z</time>
      </trkpt>
      <trkpt lat="47.50189" lon="6.76448">
        <ele>408.2</ele>
        <time>2017-10-22T10:16:35.000Z</time>
      </trkpt>
      <trkpt lat="47.5019" lon="6.7645">
        <ele>408.4</ele>
        <time>2017-10-22T10:16:36.000Z</time>
      </trkpt>
      <trkpt lat="47.50192" lon="6.76457">
        <ele>408.5</ele>
        <time>2017-10-22T10:16:37.000Z</time>
      </trkpt>
      <trkpt lat="47.50194" lon="6.76461">
        <ele>408.7</ele>
        <time>2017-10-22T10:16:38.000Z</time>
      </trkpt>
      <trkpt lat="47.50196" lon="6.76464">
        <ele>408.8</ele>
        <time>2017-10-22T10:16:39.000Z</time>
      </trkpt>
      <trkpt lat="47.50197" lon="6.76467">
        <ele>409</ele>
        <time>2017-10-22T10:16:40.000Z</time>
      </trkpt>
      <trkpt lat="47.50199" lon="6.76472">
        <ele>409.2</ele>
        <time>2017-10-22T10:16:41.000Z</time>
      </trkpt>
      <trkpt lat="47.50201" lon="6.76475">
        <ele>409.4</ele>
        <time>2017-10-22T10:16:42.000Z</time>
      </trkpt>
      <trkpt lat="47.50202" lon="6.76478">
        <ele>409.5</ele>
        <time>2017-10-22T10:16:43.000Z</time>
      </trkpt>
      <trkpt lat="47.50203" lon="6.76481">
        <ele>409.7</ele>
        <time>2017-10-22T10:16:44.000Z</time>
      </trkpt>
      <trkpt lat="47.50204" lon="6.76485">
        <ele>409.8</ele>
        <time>2017-10-22T10:16:45.000Z</time>
      </trkpt>
      <trkpt lat="47.50207" lon="6.7649">
        <ele>410</ele>
        <time>2017-10-22T10:16:47.000Z</time>
      </trkpt>
      <trkpt lat="47.50208" lon="6.76492">
        <ele>410.1</ele>
        <time>2017-10-22T10:16:48.000Z</time>
      </trkpt>
      <trkpt lat="47.5021" lon="6.76496">
        <ele>410.5</ele>
        <time>2017-10-22T10:16:51.000Z</time>
      </trkpt>
      <trkpt lat="47.50211" lon="6.76499">
        <ele>410.5</ele>
        <time>2017-10-22T10:16:52.000Z</time>
      </trkpt>
      <trkpt lat="47.50212" lon="6.76503">
        <ele>410.5</ele>
        <time>2017-10-22T10:16:53.000Z</time>
      </trkpt>
      <trkpt lat="47.50213" lon="6.76507">
        <ele>410.5</ele>
        <time>2017-10-22T10:16:54.000Z</time>
      </trkpt>
      <trkpt lat="47.50213" lon="6.76513">
        <ele>410.6</ele>
        <time>2017-10-22T10:16:56.000Z</time>
      </trkpt>
      <trkpt lat="47.50214" lon="6.76516">
        <ele>410.6</ele>
        <time>2017-10-22T10:16:57.000Z</time>
      </trkpt>
      <trkpt lat="47.50215" lon="6.7652">
        <ele>410.6</ele>
        <time>2017-10-22T10:16:58.000Z</time>
      </trkpt>
      <trkpt lat="47.50216" lon="6.76523">
        <ele>410.6</ele>
        <time>2017-10-22T10:16:59.000Z</time>
      </trkpt>
      <trkpt lat="47.50217" lon="6.76528">
        <ele>410.6</ele>
        <time>2017-10-22T10:17:01.000Z</time>
      </trkpt>
      <trkpt lat="47.50217" lon="6.76532">
        <ele>410.6</ele>
        <time>2017-10-22T10:17:02.000Z</time>
      </trkpt>
      <trkpt lat="47.50218" lon="6.76536">
        <ele>410.6</ele>
        <time>2017-10-22T10:17:03.000Z</time>
      </trkpt>
      <trkpt lat="47.50219" lon="6.7654">
        <ele>410.6</ele>
        <time>2017-10-22T10:17:04.000Z</time>
      </trkpt>
      <trkpt lat="47.50221" lon="6.76544">
        <ele>410.6</ele>
        <time>2017-10-22T10:17:06.000Z</time>
      </trkpt>
      <trkpt lat="47.50221" lon="6.76548">
        <ele>410.6</ele>
        <time>2017-10-22T10:17:07.000Z</time>
      </trkpt>
      <trkpt lat="47.50219" lon="6.76553">
        <ele>410.7</ele>
        <time>2017-10-22T10:17:10.000Z</time>
      </trkpt>
      <trkpt lat="47.50218" lon="6.76554">
        <ele>410.8</ele>
        <time>2017-10-22T10:17:11.000Z</time>
      </trkpt>
      <trkpt lat="47.50215" lon="6.76558">
        <ele>411.5</ele>
        <time>2017-10-22T10:17:16.000Z</time>
      </trkpt>
      <trkpt lat="47.50214" lon="6.76559">
        <ele>411.7</ele>
        <time>2017-10-22T10:17:17.000Z</time>
      </trkpt>
      <trkpt lat="47.50211" lon="6.76561">
        <ele>412.2</ele>
        <time>2017-10-22T10:17:20.000Z</time>
      </trkpt>
      <trkpt lat="47.50209" lon="6.76562">
        <ele>412.5</ele>
        <time>2017-10-22T10:17:21.000Z</time>
      </trkpt>
      <trkpt lat="47.50206" lon="6.76564">
        <ele>412.8</ele>
        <time>2017-10-22T10:17:23.000Z</time>
      </trkpt>
      <trkpt lat="47.50205" lon="6.76565">
        <ele>413.1</ele>
        <time>2017-10-22T10:17:24.000Z</time>
      </trkpt>
      <trkpt lat="47.50202" lon="6.76568">
        <ele>414.4</ele>
        <time>2017-10-22T10:17:28.000Z</time>
      </trkpt>
      <trkpt lat="47.50201" lon="6.76569">
        <ele>414.8</ele>
        <time>2017-10-22T10:17:29.000Z</time>
      </trkpt>
      <trkpt lat="47.502" lon="6.76575">
        <ele>416.6</ele>
        <time>2017-10-22T10:17:34.000Z</time>
      </trkpt>
      <trkpt lat="47.502" lon="6.76576">
        <ele>417</ele>
        <time>2017-10-22T10:17:35.000Z</time>
      </trkpt>
      <trkpt lat="47.502" lon="6.76582">
        <ele>417.7</ele>
        <time>2017-10-22T10:17:37.000Z</time>
      </trkpt>
      <trkpt lat="47.502" lon="6.76585">
        <ele>418.1</ele>
        <time>2017-10-22T10:17:38.000Z</time>
      </trkpt>
      <trkpt lat="47.50199" lon="6.76588">
        <ele>418.5</ele>
        <time>2017-10-22T10:17:39.000Z</time>
      </trkpt>
      <trkpt lat="47.50199" lon="6.76593">
        <ele>418.8</ele>
        <time>2017-10-22T10:17:40.000Z</time>
      </trkpt>
      <trkpt lat="47.502" lon="6.76597">
        <ele>419.2</ele>
        <time>2017-10-22T10:17:41.000Z</time>
      </trkpt>
      <trkpt lat="47.50201" lon="6.76602">
        <ele>419.4</ele>
        <time>2017-10-22T10:17:42.000Z</time>
      </trkpt>
      <trkpt lat="47.50201" lon="6.76608">
        <ele>419.7</ele>
        <time>2017-10-22T10:17:43.000Z</time>
      </trkpt>
      <trkpt lat="47.50202" lon="6.76615">
        <ele>420.1</ele>
        <time>2017-10-22T10:17:44.000Z</time>
      </trkpt>
      <trkpt lat="47.50202" lon="6.76619">
        <ele>420.4</ele>
        <time>2017-10-22T10:17:45.000Z</time>
      </trkpt>
      <trkpt lat="47.50203" lon="6.76623">
        <ele>420.8</ele>
        <time>2017-10-22T10:17:46.000Z</time>
      </trkpt>
      <trkpt lat="47.50204" lon="6.76628">
        <ele>421.4</ele>
        <time>2017-10-22T10:17:48.000Z</time>
      </trkpt>
      <trkpt lat="47.50205" lon="6.76631">
        <ele>421.8</ele>
        <time>2017-10-22T10:17:49.000Z</time>
      </trkpt>
      <trkpt lat="47.50206" lon="6.76637">
        <ele>422.7</ele>
        <time>2017-10-22T10:17:51.000Z</time>
      </trkpt>
      <trkpt lat="47.50207" lon="6.76641">
        <ele>423.1</ele>
        <time>2017-10-22T10:17:52.000Z</time>
      </trkpt>
      <trkpt lat="47.50208" lon="6.76645">
        <ele>423.5</ele>
        <time>2017-10-22T10:17:53.000Z</time>
      </trkpt>
      <trkpt lat="47.50209" lon="6.76648">
        <ele>423.9</ele>
        <time>2017-10-22T10:17:54.000Z</time>
      </trkpt>
      <trkpt lat="47.5021" lon="6.76652">
        <ele>424.3</ele>
        <time>2017-10-22T10:17:55.000Z</time>
      </trkpt>
      <trkpt lat="47.50211" lon="6.76656">
        <ele>424.8</ele>
        <time>2017-10-22T10:17:56.000Z</time>
      </trkpt>
      <trkpt lat="47.50213" lon="6.7666">
        <ele>425.3</ele>
        <time>2017-10-22T10:17:57.000Z</time>
      </trkpt>
      <trkpt lat="47.50214" lon="6.76665">
        <ele>425.7</ele>
        <time>2017-10-22T10:17:58.000Z</time>
      </trkpt>
      <trkpt lat="47.50215" lon="6.76669">
        <ele>426.1</ele>
        <time>2017-10-22T10:17:59.000Z</time>
      </trkpt>
      <trkpt lat="47.50216" lon="6.76673">
        <ele>426.5</ele>
        <time>2017-10-22T10:18:00.000Z</time>
      </trkpt>
      <trkpt lat="47.50217" lon="6.76678">
        <ele>427</ele>
        <time>2017-10-22T10:18:01.000Z</time>
      </trkpt>
      <trkpt lat="47.50218" lon="6.76682">
        <ele>427.3</ele>
        <time>2017-10-22T10:18:02.000Z</time>
      </trkpt>
      <trkpt lat="47.50219" lon="6.76686">
        <ele>427.7</ele>
        <time>2017-10-22T10:18:03.000Z</time>
      </trkpt>
      <trkpt lat="47.50221" lon="6.7669">
        <ele>428.1</ele>
        <time>2017-10-22T10:18:04.000Z</time>
      </trkpt>
      <trkpt lat="47.50222" lon="6.76694">
        <ele>428.6</ele>
        <time>2017-10-22T10:18:05.000Z</time>
      </trkpt>
      <trkpt lat="47.50223" lon="6.76698">
        <ele>428.9</ele>
        <time>2017-10-22T10:18:06.000Z</time>
      </trkpt>
      <trkpt lat="47.50225" lon="6.76703">
        <ele>429.3</ele>
        <time>2017-10-22T10:18:07.000Z</time>
      </trkpt>
      <trkpt lat="47.50226" lon="6.76707">
        <ele>429.7</ele>
        <time>2017-10-22T10:18:08.000Z</time>
      </trkpt>
      <trkpt lat="47.50228" lon="6.7671">
        <ele>430.1</ele>
        <time>2017-10-22T10:18:09.000Z</time>
      </trkpt>
      <trkpt lat="47.50229" lon="6.76713">
        <ele>430.5</ele>
        <time>2017-10-22T10:18:10.000Z</time>
      </trkpt>
      <trkpt lat="47.50231" lon="6.76718">
        <ele>430.9</ele>
        <time>2017-10-22T10:18:11.000Z</time>
      </trkpt>
      <trkpt lat="47.50233" lon="6.76722">
        <ele>431.3</ele>
        <time>2017-10-22T10:18:12.000Z</time>
      </trkpt>
      <trkpt lat="47.50235" lon="6.76726">
        <ele>431.7</ele>
        <time>2017-10-22T10:18:13.000Z</time>
      </trkpt>
      <trkpt lat="47.50237" lon="6.7673">
        <ele>431.9</ele>
        <time>2017-10-22T10:18:14.000Z</time>
      </trkpt>
      <trkpt lat="47.50239" lon="6.76733">
        <ele>432.3</ele>
        <time>2017-10-22T10:18:15.000Z</time>
      </trkpt>
      <trkpt lat="47.50241" lon="6.76737">
        <ele>432.7</ele>
        <time>2017-10-22T10:18:16.000Z</time>
      </trkpt>
      <trkpt lat="47.50244" lon="6.76741">
        <ele>435.6</ele>
        <time>2017-10-22T10:18:17.000Z</time>
      </trkpt>
      <trkpt lat="47.50246" lon="6.76745">
        <ele>435.9</ele>
        <time>2017-10-22T10:18:18.000Z</time>
      </trkpt>
      <trkpt lat="47.5025" lon="6.76748">
        <ele>437.7</ele>
        <time>2017-10-22T10:18:19.000Z</time>
      </trkpt>
      <trkpt lat="47.50253" lon="6.76748">
        <ele>438.7</ele>
        <time>2017-10-22T10:18:20.000Z</time>
      </trkpt>
      <trkpt lat="47.50257" lon="6.76746">
        <ele>439.4</ele>
        <time>2017-10-22T10:18:21.000Z</time>
      </trkpt>
      <trkpt lat="47.5026" lon="6.76745">
        <ele>439.5</ele>
        <time>2017-10-22T10:18:22.000Z</time>
      </trkpt>
      <trkpt lat="47.50263" lon="6.76744">
        <ele>439.5</ele>
        <time>2017-10-22T10:18:23.000Z</time>
      </trkpt>
      <trkpt lat="47.50267" lon="6.76743">
        <ele>439.5</ele>
        <time>2017-10-22T10:18:24.000Z</time>
      </trkpt>
      <trkpt lat="47.5027" lon="6.76742">
        <ele>439.6</ele>
        <time>2017-10-22T10:18:25.000Z</time>
      </trkpt>
      <trkpt lat="47.50274" lon="6.76741">
        <ele>439.6</ele>
        <time>2017-10-22T10:18:26.000Z</time>
      </trkpt>
      <trkpt lat="47.50277" lon="6.7674">
        <ele>439.8</ele>
        <time>2017-10-22T10:18:27.000Z</time>
      </trkpt>
      <trkpt lat="47.50281" lon="6.76738">
        <ele>439.8</ele>
        <time>2017-10-22T10:18:28.000Z</time>
      </trkpt>
      <trkpt lat="47.50284" lon="6.76737">
        <ele>439.8</ele>
        <time>2017-10-22T10:18:29.000Z</time>
      </trkpt>
      <trkpt lat="47.50286" lon="6.76737">
        <ele>439.8</ele>
        <time>2017-10-22T10:18:30.000Z</time>
      </trkpt>
      <trkpt lat="47.5029" lon="6.76736">
        <ele>439.8</ele>
        <time>2017-10-22T10:18:32.000Z</time>
      </trkpt>
      <trkpt lat="47.50291" lon="6.76736">
        <ele>439.8</ele>
        <time>2017-10-22T10:18:33.000Z</time>
      </trkpt>
      <trkpt lat="47.50294" lon="6.76735">
        <ele>439.8</ele>
        <time>2017-10-22T10:18:35.000Z</time>
      </trkpt>
      <trkpt lat="47.50295" lon="6.76735">
        <ele>439.9</ele>
        <time>2017-10-22T10:18:36.000Z</time>
      </trkpt>
      <trkpt lat="47.50297" lon="6.76734">
        <ele>439.9</ele>
        <time>2017-10-22T10:18:37.000Z</time>
      </trkpt>
      <trkpt lat="47.503" lon="6.76733">
        <ele>440</ele>
        <time>2017-10-22T10:18:38.000Z</time>
      </trkpt>
      <trkpt lat="47.50302" lon="6.76733">
        <ele>440</ele>
        <time>2017-10-22T10:18:39.000Z</time>
      </trkpt>
      <trkpt lat="47.50305" lon="6.76732">
        <ele>440</ele>
        <time>2017-10-22T10:18:40.000Z</time>
      </trkpt>
      <trkpt lat="47.50308" lon="6.76731">
        <ele>440.1</ele>
        <time>2017-10-22T10:18:41.000Z</time>
      </trkpt>
      <trkpt lat="47.50311" lon="6.76729">
        <ele>440</ele>
        <time>2017-10-22T10:18:42.000Z</time>
      </trkpt>
      <trkpt lat="47.50315" lon="6.76728">
        <ele>440</ele>
        <time>2017-10-22T10:18:43.000Z</time>
      </trkpt>
      <trkpt lat="47.50319" lon="6.76726">
        <ele>440</ele>
        <time>2017-10-22T10:18:44.000Z</time>
      </trkpt>
      <trkpt lat="47.50323" lon="6.76725">
        <ele>440</ele>
        <time>2017-10-22T10:18:45.000Z</time>
      </trkpt>
      <trkpt lat="47.50326" lon="6.76723">
        <ele>440.1</ele>
        <time>2017-10-22T10:18:46.000Z</time>
      </trkpt>
      <trkpt lat="47.50329" lon="6.76723">
        <ele>440.1</ele>
        <time>2017-10-22T10:18:47.000Z</time>
      </trkpt>
      <trkpt lat="47.50333" lon="6.76721">
        <ele>440.1</ele>
        <time>2017-10-22T10:18:48.000Z</time>
      </trkpt>
      <trkpt lat="47.50336" lon="6.7672">
        <ele>440.1</ele>
        <time>2017-10-22T10:18:49.000Z</time>
      </trkpt>
      <trkpt lat="47.50339" lon="6.76719">
        <ele>440.1</ele>
        <time>2017-10-22T10:18:50.000Z</time>
      </trkpt>
      <trkpt lat="47.50341" lon="6.76718">
        <ele>440.2</ele>
        <time>2017-10-22T10:18:51.000Z</time>
      </trkpt>
      <trkpt lat="47.50344" lon="6.76717">
        <ele>440.3</ele>
        <time>2017-10-22T10:18:52.000Z</time>
      </trkpt>
      <trkpt lat="47.50347" lon="6.76714">
        <ele>440.4</ele>
        <time>2017-10-22T10:18:53.000Z</time>
      </trkpt>
      <trkpt lat="47.50351" lon="6.76712">
        <ele>440.5</ele>
        <time>2017-10-22T10:18:54.000Z</time>
      </trkpt>
      <trkpt lat="47.50355" lon="6.7671">
        <ele>440.6</ele>
        <time>2017-10-22T10:18:55.000Z</time>
      </trkpt>
      <trkpt lat="47.50359" lon="6.76708">
        <ele>440.7</ele>
        <time>2017-10-22T10:18:56.000Z</time>
      </trkpt>
      <trkpt lat="47.50363" lon="6.76707">
        <ele>440.8</ele>
        <time>2017-10-22T10:18:57.000Z</time>
      </trkpt>
      <trkpt lat="47.50366" lon="6.76706">
        <ele>440.9</ele>
        <time>2017-10-22T10:18:58.000Z</time>
      </trkpt>
      <trkpt lat="47.50371" lon="6.76704">
        <ele>441</ele>
        <time>2017-10-22T10:18:59.000Z</time>
      </trkpt>
      <trkpt lat="47.50375" lon="6.76702">
        <ele>441.2</ele>
        <time>2017-10-22T10:19:00.000Z</time>
      </trkpt>
      <trkpt lat="47.50378" lon="6.76701">
        <ele>441.3</ele>
        <time>2017-10-22T10:19:01.000Z</time>
      </trkpt>
      <trkpt lat="47.50382" lon="6.76699">
        <ele>441.5</ele>
        <time>2017-10-22T10:19:02.000Z</time>
      </trkpt>
      <trkpt lat="47.50385" lon="6.76698">
        <ele>441.6</ele>
        <time>2017-10-22T10:19:03.000Z</time>
      </trkpt>
      <trkpt lat="47.50389" lon="6.76697">
        <ele>441.8</ele>
        <time>2017-10-22T10:19:04.000Z</time>
      </trkpt>
      <trkpt lat="47.50393" lon="6.76696">
        <ele>441.9</ele>
        <time>2017-10-22T10:19:05.000Z</time>
      </trkpt>
      <trkpt lat="47.50397" lon="6.76695">
        <ele>441.9</ele>
        <time>2017-10-22T10:19:06.000Z</time>
      </trkpt>
      <trkpt lat="47.504" lon="6.76693">
        <ele>442</ele>
        <time>2017-10-22T10:19:07.000Z</time>
      </trkpt>
      <trkpt lat="47.50404" lon="6.76692">
        <ele>442</ele>
        <time>2017-10-22T10:19:08.000Z</time>
      </trkpt>
      <trkpt lat="47.50407" lon="6.76691">
        <ele>442</ele>
        <time>2017-10-22T10:19:09.000Z</time>
      </trkpt>
      <trkpt lat="47.50411" lon="6.76689">
        <ele>442.1</ele>
        <time>2017-10-22T10:19:10.000Z</time>
      </trkpt>
      <trkpt lat="47.50415" lon="6.76687">
        <ele>442.1</ele>
        <time>2017-10-22T10:19:11.000Z</time>
      </trkpt>
      <trkpt lat="47.50419" lon="6.76686">
        <ele>442.2</ele>
        <time>2017-10-22T10:19:12.000Z</time>
      </trkpt>
      <trkpt lat="47.50422" lon="6.76685">
        <ele>442.2</ele>
        <time>2017-10-22T10:19:13.000Z</time>
      </trkpt>
      <trkpt lat="47.50425" lon="6.76684">
        <ele>442.3</ele>
        <time>2017-10-22T10:19:14.000Z</time>
      </trkpt>
      <trkpt lat="47.50429" lon="6.76683">
        <ele>442.4</ele>
        <time>2017-10-22T10:19:15.000Z</time>
      </trkpt>
      <trkpt lat="47.50433" lon="6.76682">
        <ele>442.5</ele>
        <time>2017-10-22T10:19:16.000Z</time>
      </trkpt>
      <trkpt lat="47.50437" lon="6.7668">
        <ele>442.6</ele>
        <time>2017-10-22T10:19:18.000Z</time>
      </trkpt>
      <trkpt lat="47.50438" lon="6.76679">
        <ele>442.7</ele>
        <time>2017-10-22T10:19:19.000Z</time>
      </trkpt>
      <trkpt lat="47.5044" lon="6.76677">
        <ele>442.7</ele>
        <time>2017-10-22T10:19:20.000Z</time>
      </trkpt>
      <trkpt lat="47.50443" lon="6.76676">
        <ele>442.8</ele>
        <time>2017-10-22T10:19:21.000Z</time>
      </trkpt>
      <trkpt lat="47.50446" lon="6.76674">
        <ele>442.9</ele>
        <time>2017-10-22T10:19:22.000Z</time>
      </trkpt>
      <trkpt lat="47.50449" lon="6.76673">
        <ele>442.9</ele>
        <time>2017-10-22T10:19:23.000Z</time>
      </trkpt>
      <trkpt lat="47.50452" lon="6.76672">
        <ele>443</ele>
        <time>2017-10-22T10:19:24.000Z</time>
      </trkpt>
      <trkpt lat="47.50456" lon="6.76671">
        <ele>443</ele>
        <time>2017-10-22T10:19:25.000Z</time>
      </trkpt>
      <trkpt lat="47.50459" lon="6.76669">
        <ele>443.1</ele>
        <time>2017-10-22T10:19:26.000Z</time>
      </trkpt>
      <trkpt lat="47.50463" lon="6.76668">
        <ele>443.2</ele>
        <time>2017-10-22T10:19:27.000Z</time>
      </trkpt>
      <trkpt lat="47.50466" lon="6.76666">
        <ele>443.2</ele>
        <time>2017-10-22T10:19:28.000Z</time>
      </trkpt>
      <trkpt lat="47.5047" lon="6.76665">
        <ele>443.4</ele>
        <time>2017-10-22T10:19:29.000Z</time>
      </trkpt>
      <trkpt lat="47.50473" lon="6.76664">
        <ele>443.5</ele>
        <time>2017-10-22T10:19:30.000Z</time>
      </trkpt>
      <trkpt lat="47.50475" lon="6.76663">
        <ele>443.6</ele>
        <time>2017-10-22T10:19:31.000Z</time>
      </trkpt>
      <trkpt lat="47.50478" lon="6.76661">
        <ele>443.8</ele>
        <time>2017-10-22T10:19:32.000Z</time>
      </trkpt>
      <trkpt lat="47.50481" lon="6.7666">
        <ele>443.9</ele>
        <time>2017-10-22T10:19:33.000Z</time>
      </trkpt>
      <trkpt lat="47.50484" lon="6.76659">
        <ele>444</ele>
        <time>2017-10-22T10:19:34.000Z</time>
      </trkpt>
      <trkpt lat="47.50487" lon="6.76658">
        <ele>444</ele>
        <time>2017-10-22T10:19:35.000Z</time>
      </trkpt>
      <trkpt lat="47.5049" lon="6.76657">
        <ele>444</ele>
        <time>2017-10-22T10:19:36.000Z</time>
      </trkpt>
      <trkpt lat="47.50493" lon="6.76656">
        <ele>444.1</ele>
        <time>2017-10-22T10:19:37.000Z</time>
      </trkpt>
      <trkpt lat="47.50497" lon="6.76655">
        <ele>444.1</ele>
        <time>2017-10-22T10:19:38.000Z</time>
      </trkpt>
      <trkpt lat="47.505" lon="6.76655">
        <ele>444.3</ele>
        <time>2017-10-22T10:19:39.000Z</time>
      </trkpt>
      <trkpt lat="47.50502" lon="6.76654">
        <ele>444.4</ele>
        <time>2017-10-22T10:19:40.000Z</time>
      </trkpt>
      <trkpt lat="47.50505" lon="6.76653">
        <ele>444.5</ele>
        <time>2017-10-22T10:19:41.000Z</time>
      </trkpt>
      <trkpt lat="47.50507" lon="6.76651">
        <ele>444.6</ele>
        <time>2017-10-22T10:19:42.000Z</time>
      </trkpt>
      <trkpt lat="47.5051" lon="6.7665">
        <ele>444.7</ele>
        <time>2017-10-22T10:19:43.000Z</time>
      </trkpt>
      <trkpt lat="47.50512" lon="6.76656">
        <ele>444.9</ele>
        <time>2017-10-22T10:19:45.000Z</time>
      </trkpt>
      <trkpt lat="47.50513" lon="6.76661">
        <ele>445</ele>
        <time>2017-10-22T10:19:46.000Z</time>
      </trkpt>
      <trkpt lat="47.50514" lon="6.76668">
        <ele>444.9</ele>
        <time>2017-10-22T10:19:47.000Z</time>
      </trkpt>
      <trkpt lat="47.50515" lon="6.76676">
        <ele>444.8</ele>
        <time>2017-10-22T10:19:48.000Z</time>
      </trkpt>
      <trkpt lat="47.50517" lon="6.76682">
        <ele>444.5</ele>
        <time>2017-10-22T10:19:49.000Z</time>
      </trkpt>
      <trkpt lat="47.5052" lon="6.76687">
        <ele>444.2</ele>
        <time>2017-10-22T10:19:50.000Z</time>
      </trkpt>
      <trkpt lat="47.50524" lon="6.76691">
        <ele>443.3</ele>
        <time>2017-10-22T10:19:51.000Z</time>
      </trkpt>
      <trkpt lat="47.50527" lon="6.76692">
        <ele>443.2</ele>
        <time>2017-10-22T10:19:52.000Z</time>
      </trkpt>
      <trkpt lat="47.50532" lon="6.76692">
        <ele>442.8</ele>
        <time>2017-10-22T10:19:53.000Z</time>
      </trkpt>
      <trkpt lat="47.50536" lon="6.76691">
        <ele>442.9</ele>
        <time>2017-10-22T10:19:54.000Z</time>
      </trkpt>
      <trkpt lat="47.5054" lon="6.76691">
        <ele>442.6</ele>
        <time>2017-10-22T10:19:55.000Z</time>
      </trkpt>
      <trkpt lat="47.50545" lon="6.76691">
        <ele>442.6</ele>
        <time>2017-10-22T10:19:56.000Z</time>
      </trkpt>
      <trkpt lat="47.50549" lon="6.7669">
        <ele>442.6</ele>
        <time>2017-10-22T10:19:57.000Z</time>
      </trkpt>
      <trkpt lat="47.50553" lon="6.7669">
        <ele>442.6</ele>
        <time>2017-10-22T10:19:58.000Z</time>
      </trkpt>
      <trkpt lat="47.50557" lon="6.76689">
        <ele>442.6</ele>
        <time>2017-10-22T10:19:59.000Z</time>
      </trkpt>
      <trkpt lat="47.50562" lon="6.76687">
        <ele>442.3</ele>
        <time>2017-10-22T10:20:00.000Z</time>
      </trkpt>
      <trkpt lat="47.50567" lon="6.76685">
        <ele>442.4</ele>
        <time>2017-10-22T10:20:01.000Z</time>
      </trkpt>
      <trkpt lat="47.50571" lon="6.76683">
        <ele>442.2</ele>
        <time>2017-10-22T10:20:02.000Z</time>
      </trkpt>
      <trkpt lat="47.50577" lon="6.76681">
        <ele>442</ele>
        <time>2017-10-22T10:20:03.000Z</time>
      </trkpt>
      <trkpt lat="47.50582" lon="6.76679">
        <ele>441.7</ele>
        <time>2017-10-22T10:20:04.000Z</time>
      </trkpt>
      <trkpt lat="47.50587" lon="6.76677">
        <ele>441.4</ele>
        <time>2017-10-22T10:20:05.000Z</time>
      </trkpt>
      <trkpt lat="47.50592" lon="6.76674">
        <ele>441.1</ele>
        <time>2017-10-22T10:20:06.000Z</time>
      </trkpt>
      <trkpt lat="47.50598" lon="6.76672">
        <ele>441.1</ele>
        <time>2017-10-22T10:20:07.000Z</time>
      </trkpt>
      <trkpt lat="47.50604" lon="6.7667">
        <ele>441.3</ele>
        <time>2017-10-22T10:20:08.000Z</time>
      </trkpt>
      <trkpt lat="47.5061" lon="6.76668">
        <ele>441.3</ele>
        <time>2017-10-22T10:20:09.000Z</time>
      </trkpt>
      <trkpt lat="47.50616" lon="6.76666">
        <ele>441.5</ele>
        <time>2017-10-22T10:20:10.000Z</time>
      </trkpt>
      <trkpt lat="47.50622" lon="6.76663">
        <ele>441.7</ele>
        <time>2017-10-22T10:20:11.000Z</time>
      </trkpt>
      <trkpt lat="47.50628" lon="6.7666">
        <ele>441.7</ele>
        <time>2017-10-22T10:20:12.000Z</time>
      </trkpt>
      <trkpt lat="47.50634" lon="6.76657">
        <ele>441.1</ele>
        <time>2017-10-22T10:20:13.000Z</time>
      </trkpt>
      <trkpt lat="47.50641" lon="6.76655">
        <ele>441.1</ele>
        <time>2017-10-22T10:20:14.000Z</time>
      </trkpt>
      <trkpt lat="47.50649" lon="6.76651">
        <ele>441.3</ele>
        <time>2017-10-22T10:20:15.000Z</time>
      </trkpt>
      <trkpt lat="47.50655" lon="6.76644">
        <ele>441.5</ele>
        <time>2017-10-22T10:20:16.000Z</time>
      </trkpt>
      <trkpt lat="47.50661" lon="6.76638">
        <ele>442.6</ele>
        <time>2017-10-22T10:20:17.000Z</time>
      </trkpt>
      <trkpt lat="47.50669" lon="6.76635">
        <ele>443.2</ele>
        <time>2017-10-22T10:20:18.000Z</time>
      </trkpt>
      <trkpt lat="47.50676" lon="6.76632">
        <ele>443</ele>
        <time>2017-10-22T10:20:19.000Z</time>
      </trkpt>
      <trkpt lat="47.50683" lon="6.7663">
        <ele>442.6</ele>
        <time>2017-10-22T10:20:20.000Z</time>
      </trkpt>
      <trkpt lat="47.50688" lon="6.76628">
        <ele>442.2</ele>
        <time>2017-10-22T10:20:21.000Z</time>
      </trkpt>
      <trkpt lat="47.50695" lon="6.76627">
        <ele>441.7</ele>
        <time>2017-10-22T10:20:22.000Z</time>
      </trkpt>
      <trkpt lat="47.507" lon="6.76628">
        <ele>441.2</ele>
        <time>2017-10-22T10:20:23.000Z</time>
      </trkpt>
      <trkpt lat="47.50706" lon="6.76629">
        <ele>441.1</ele>
        <time>2017-10-22T10:20:24.000Z</time>
      </trkpt>
      <trkpt lat="47.50712" lon="6.7663">
        <ele>441.3</ele>
        <time>2017-10-22T10:20:25.000Z</time>
      </trkpt>
      <trkpt lat="47.50718" lon="6.76631">
        <ele>441.4</ele>
        <time>2017-10-22T10:20:26.000Z</time>
      </trkpt>
      <trkpt lat="47.50724" lon="6.76632">
        <ele>441.3</ele>
        <time>2017-10-22T10:20:27.000Z</time>
      </trkpt>
      <trkpt lat="47.50731" lon="6.76634">
        <ele>441.2</ele>
        <time>2017-10-22T10:20:28.000Z</time>
      </trkpt>
      <trkpt lat="47.50737" lon="6.76638">
        <ele>440.7</ele>
        <time>2017-10-22T10:20:29.000Z</time>
      </trkpt>
      <trkpt lat="47.50742" lon="6.76642">
        <ele>440.9</ele>
        <time>2017-10-22T10:20:30.000Z</time>
      </trkpt>
      <trkpt lat="47.50745" lon="6.76648">
        <ele>440.8</ele>
        <time>2017-10-22T10:20:31.000Z</time>
      </trkpt>
      <trkpt lat="47.50749" lon="6.76655">
        <ele>440.1</ele>
        <time>2017-10-22T10:20:32.000Z</time>
      </trkpt>
      <trkpt lat="47.50753" lon="6.76661">
        <ele>439.4</ele>
        <time>2017-10-22T10:20:33.000Z</time>
      </trkpt>
      <trkpt lat="47.50756" lon="6.76668">
        <ele>439.4</ele>
        <time>2017-10-22T10:20:34.000Z</time>
      </trkpt>
      <trkpt lat="47.50759" lon="6.76674">
        <ele>439.3</ele>
        <time>2017-10-22T10:20:35.000Z</time>
      </trkpt>
      <trkpt lat="47.50763" lon="6.76681">
        <ele>439.4</ele>
        <time>2017-10-22T10:20:36.000Z</time>
      </trkpt>
      <trkpt lat="47.50766" lon="6.76688">
        <ele>439.7</ele>
        <time>2017-10-22T10:20:37.000Z</time>
      </trkpt>
      <trkpt lat="47.5077" lon="6.76694">
        <ele>439.6</ele>
        <time>2017-10-22T10:20:38.000Z</time>
      </trkpt>
      <trkpt lat="47.50773" lon="6.76702">
        <ele>439.4</ele>
        <time>2017-10-22T10:20:39.000Z</time>
      </trkpt>
      <trkpt lat="47.50776" lon="6.76708">
        <ele>438.8</ele>
        <time>2017-10-22T10:20:40.000Z</time>
      </trkpt>
      <trkpt lat="47.50779" lon="6.76714">
        <ele>438.5</ele>
        <time>2017-10-22T10:20:41.000Z</time>
      </trkpt>
      <trkpt lat="47.50782" lon="6.7672">
        <ele>437.8</ele>
        <time>2017-10-22T10:20:42.000Z</time>
      </trkpt>
      <trkpt lat="47.50784" lon="6.76727">
        <ele>437.5</ele>
        <time>2017-10-22T10:20:43.000Z</time>
      </trkpt>
      <trkpt lat="47.50784" lon="6.76736">
        <ele>437.7</ele>
        <time>2017-10-22T10:20:44.000Z</time>
      </trkpt>
      <trkpt lat="47.50786" lon="6.76745">
        <ele>437.9</ele>
        <time>2017-10-22T10:20:45.000Z</time>
      </trkpt>
      <trkpt lat="47.50788" lon="6.76753">
        <ele>438</ele>
        <time>2017-10-22T10:20:46.000Z</time>
      </trkpt>
      <trkpt lat="47.50791" lon="6.76761">
        <ele>437.4</ele>
        <time>2017-10-22T10:20:47.000Z</time>
      </trkpt>
      <trkpt lat="47.50794" lon="6.76768">
        <ele>437.1</ele>
        <time>2017-10-22T10:20:48.000Z</time>
      </trkpt>
      <trkpt lat="47.50798" lon="6.76776">
        <ele>436.7</ele>
        <time>2017-10-22T10:20:49.000Z</time>
      </trkpt>
      <trkpt lat="47.50802" lon="6.76783">
        <ele>436.1</ele>
        <time>2017-10-22T10:20:50.000Z</time>
      </trkpt>
      <trkpt lat="47.50806" lon="6.76791">
        <ele>435.9</ele>
        <time>2017-10-22T10:20:51.000Z</time>
      </trkpt>
      <trkpt lat="47.50811" lon="6.76799">
        <ele>436</ele>
        <time>2017-10-22T10:20:52.000Z</time>
      </trkpt>
      <trkpt lat="47.50815" lon="6.76807">
        <ele>435.8</ele>
        <time>2017-10-22T10:20:53.000Z</time>
      </trkpt>
      <trkpt lat="47.50819" lon="6.76815">
        <ele>435.3</ele>
        <time>2017-10-22T10:20:54.000Z</time>
      </trkpt>
      <trkpt lat="47.50824" lon="6.76823">
        <ele>434.5</ele>
        <time>2017-10-22T10:20:55.000Z</time>
      </trkpt>
      <trkpt lat="47.50828" lon="6.76831">
        <ele>433.4</ele>
        <time>2017-10-22T10:20:56.000Z</time>
      </trkpt>
      <trkpt lat="47.50833" lon="6.7684">
        <ele>432</ele>
        <time>2017-10-22T10:20:57.000Z</time>
      </trkpt>
      <trkpt lat="47.50838" lon="6.76849">
        <ele>431.3</ele>
        <time>2017-10-22T10:20:58.000Z</time>
      </trkpt>
      <trkpt lat="47.50843" lon="6.76858">
        <ele>430.4</ele>
        <time>2017-10-22T10:20:59.000Z</time>
      </trkpt>
      <trkpt lat="47.50848" lon="6.76868">
        <ele>429.5</ele>
        <time>2017-10-22T10:21:00.000Z</time>
      </trkpt>
      <trkpt lat="47.50853" lon="6.76876">
        <ele>428.6</ele>
        <time>2017-10-22T10:21:01.000Z</time>
      </trkpt>
      <trkpt lat="47.50858" lon="6.76884">
        <ele>427.5</ele>
        <time>2017-10-22T10:21:02.000Z</time>
      </trkpt>
      <trkpt lat="47.50864" lon="6.76891">
        <ele>426.1</ele>
        <time>2017-10-22T10:21:03.000Z</time>
      </trkpt>
      <trkpt lat="47.5087" lon="6.76898">
        <ele>424.7</ele>
        <time>2017-10-22T10:21:04.000Z</time>
      </trkpt>
      <trkpt lat="47.50875" lon="6.76905">
        <ele>423.6</ele>
        <time>2017-10-22T10:21:05.000Z</time>
      </trkpt>
      <trkpt lat="47.50881" lon="6.7691">
        <ele>423.6</ele>
        <time>2017-10-22T10:21:06.000Z</time>
      </trkpt>
      <trkpt lat="47.50887" lon="6.76916">
        <ele>423.1</ele>
        <time>2017-10-22T10:21:07.000Z</time>
      </trkpt>
      <trkpt lat="47.50892" lon="6.76921">
        <ele>422.7</ele>
        <time>2017-10-22T10:21:08.000Z</time>
      </trkpt>
      <trkpt lat="47.50899" lon="6.76925">
        <ele>422.5</ele>
        <time>2017-10-22T10:21:09.000Z</time>
      </trkpt>
      <trkpt lat="47.50905" lon="6.76929">
        <ele>422.6</ele>
        <time>2017-10-22T10:21:10.000Z</time>
      </trkpt>
      <trkpt lat="47.50912" lon="6.76933">
        <ele>422.8</ele>
        <time>2017-10-22T10:21:11.000Z</time>
      </trkpt>
      <trkpt lat="47.50918" lon="6.76937">
        <ele>423.2</ele>
        <time>2017-10-22T10:21:12.000Z</time>
      </trkpt>
      <trkpt lat="47.50925" lon="6.76939">
        <ele>423.9</ele>
        <time>2017-10-22T10:21:13.000Z</time>
      </trkpt>
      <trkpt lat="47.50932" lon="6.76941">
        <ele>424.4</ele>
        <time>2017-10-22T10:21:14.000Z</time>
      </trkpt>
      <trkpt lat="47.50939" lon="6.76943">
        <ele>425.2</ele>
        <time>2017-10-22T10:21:15.000Z</time>
      </trkpt>
      <trkpt lat="47.50946" lon="6.76944">
        <ele>426.1</ele>
        <time>2017-10-22T10:21:16.000Z</time>
      </trkpt>
      <trkpt lat="47.50953" lon="6.76944">
        <ele>427.6</ele>
        <time>2017-10-22T10:21:17.000Z</time>
      </trkpt>
      <trkpt lat="47.50959" lon="6.76945">
        <ele>428.8</ele>
        <time>2017-10-22T10:21:18.000Z</time>
      </trkpt>
      <trkpt lat="47.50965" lon="6.76945">
        <ele>429.7</ele>
        <time>2017-10-22T10:21:19.000Z</time>
      </trkpt>
      <trkpt lat="47.50971" lon="6.76946">
        <ele>429.8</ele>
        <time>2017-10-22T10:21:20.000Z</time>
      </trkpt>
      <trkpt lat="47.50977" lon="6.76946">
        <ele>429.5</ele>
        <time>2017-10-22T10:21:21.000Z</time>
      </trkpt>
      <trkpt lat="47.50983" lon="6.76946">
        <ele>428.8</ele>
        <time>2017-10-22T10:21:22.000Z</time>
      </trkpt>
      <trkpt lat="47.50988" lon="6.76945">
        <ele>428.4</ele>
        <time>2017-10-22T10:21:23.000Z</time>
      </trkpt>
      <trkpt lat="47.50993" lon="6.76943">
        <ele>427.9</ele>
        <time>2017-10-22T10:21:24.000Z</time>
      </trkpt>
      <trkpt lat="47.50998" lon="6.76942">
        <ele>427.5</ele>
        <time>2017-10-22T10:21:25.000Z</time>
      </trkpt>
      <trkpt lat="47.51004" lon="6.76942">
        <ele>427.2</ele>
        <time>2017-10-22T10:21:26.000Z</time>
      </trkpt>
      <trkpt lat="47.5101" lon="6.76942">
        <ele>427.4</ele>
        <time>2017-10-22T10:21:27.000Z</time>
      </trkpt>
      <trkpt lat="47.51015" lon="6.76945">
        <ele>427.1</ele>
        <time>2017-10-22T10:21:28.000Z</time>
      </trkpt>
      <trkpt lat="47.5102" lon="6.76947">
        <ele>427</ele>
        <time>2017-10-22T10:21:29.000Z</time>
      </trkpt>
      <trkpt lat="47.51025" lon="6.76951">
        <ele>426.8</ele>
        <time>2017-10-22T10:21:30.000Z</time>
      </trkpt>
      <trkpt lat="47.51029" lon="6.76955">
        <ele>425.6</ele>
        <time>2017-10-22T10:21:31.000Z</time>
      </trkpt>
      <trkpt lat="47.51034" lon="6.76959">
        <ele>424.7</ele>
        <time>2017-10-22T10:21:32.000Z</time>
      </trkpt>
      <trkpt lat="47.51039" lon="6.76964">
        <ele>423.3</ele>
        <time>2017-10-22T10:21:33.000Z</time>
      </trkpt>
      <trkpt lat="47.51044" lon="6.76969">
        <ele>422</ele>
        <time>2017-10-22T10:21:34.000Z</time>
      </trkpt>
      <trkpt lat="47.51049" lon="6.76974">
        <ele>420.9</ele>
        <time>2017-10-22T10:21:35.000Z</time>
      </trkpt>
      <trkpt lat="47.51054" lon="6.76979">
        <ele>419.7</ele>
        <time>2017-10-22T10:21:36.000Z</time>
      </trkpt>
      <trkpt lat="47.51059" lon="6.76983">
        <ele>418.9</ele>
        <time>2017-10-22T10:21:37.000Z</time>
      </trkpt>
      <trkpt lat="47.51064" lon="6.76987">
        <ele>418.4</ele>
        <time>2017-10-22T10:21:38.000Z</time>
      </trkpt>
      <trkpt lat="47.51068" lon="6.76991">
        <ele>417.6</ele>
        <time>2017-10-22T10:21:39.000Z</time>
      </trkpt>
      <trkpt lat="47.51074" lon="6.76997">
        <ele>417</ele>
        <time>2017-10-22T10:21:40.000Z</time>
      </trkpt>
      <trkpt lat="47.51079" lon="6.77002">
        <ele>416.8</ele>
        <time>2017-10-22T10:21:41.000Z</time>
      </trkpt>
      <trkpt lat="47.51083" lon="6.77007">
        <ele>416.9</ele>
        <time>2017-10-22T10:21:42.000Z</time>
      </trkpt>
      <trkpt lat="47.51087" lon="6.77013">
        <ele>416.5</ele>
        <time>2017-10-22T10:21:43.000Z</time>
      </trkpt>
      <trkpt lat="47.51092" lon="6.77019">
        <ele>416.6</ele>
        <time>2017-10-22T10:21:44.000Z</time>
      </trkpt>
      <trkpt lat="47.51098" lon="6.77023">
        <ele>416.7</ele>
        <time>2017-10-22T10:21:45.000Z</time>
      </trkpt>
      <trkpt lat="47.51104" lon="6.77026">
        <ele>416.8</ele>
        <time>2017-10-22T10:21:46.000Z</time>
      </trkpt>
      <trkpt lat="47.51109" lon="6.77029">
        <ele>417.3</ele>
        <time>2017-10-22T10:21:47.000Z</time>
      </trkpt>
      <trkpt lat="47.51113" lon="6.77033">
        <ele>417.5</ele>
        <time>2017-10-22T10:21:48.000Z</time>
      </trkpt>
      <trkpt lat="47.51117" lon="6.77036">
        <ele>417.6</ele>
        <time>2017-10-22T10:21:49.000Z</time>
      </trkpt>
      <trkpt lat="47.51122" lon="6.7704">
        <ele>417.5</ele>
        <time>2017-10-22T10:21:50.000Z</time>
      </trkpt>
      <trkpt lat="47.51127" lon="6.77044">
        <ele>417.2</ele>
        <time>2017-10-22T10:21:51.000Z</time>
      </trkpt>
      <trkpt lat="47.51132" lon="6.77049">
        <ele>417.2</ele>
        <time>2017-10-22T10:21:52.000Z</time>
      </trkpt>
      <trkpt lat="47.51136" lon="6.77052">
        <ele>416.7</ele>
        <time>2017-10-22T10:21:53.000Z</time>
      </trkpt>
      <trkpt lat="47.5114" lon="6.77055">
        <ele>416.6</ele>
        <time>2017-10-22T10:21:54.000Z</time>
      </trkpt>
      <trkpt lat="47.51144" lon="6.77059">
        <ele>416.7</ele>
        <time>2017-10-22T10:21:55.000Z</time>
      </trkpt>
      <trkpt lat="47.51148" lon="6.77063">
        <ele>417.5</ele>
        <time>2017-10-22T10:21:56.000Z</time>
      </trkpt>
      <trkpt lat="47.51152" lon="6.77068">
        <ele>417.9</ele>
        <time>2017-10-22T10:21:57.000Z</time>
      </trkpt>
      <trkpt lat="47.51156" lon="6.77073">
        <ele>418.1</ele>
        <time>2017-10-22T10:21:58.000Z</time>
      </trkpt>
      <trkpt lat="47.51159" lon="6.77078">
        <ele>419.5</ele>
        <time>2017-10-22T10:21:59.000Z</time>
      </trkpt>
      <trkpt lat="47.51163" lon="6.77082">
        <ele>419.9</ele>
        <time>2017-10-22T10:22:00.000Z</time>
      </trkpt>
      <trkpt lat="47.51166" lon="6.77085">
        <ele>419.9</ele>
        <time>2017-10-22T10:22:01.000Z</time>
      </trkpt>
      <trkpt lat="47.51169" lon="6.77089">
        <ele>419.7</ele>
        <time>2017-10-22T10:22:02.000Z</time>
      </trkpt>
      <trkpt lat="47.51172" lon="6.77094">
        <ele>419.5</ele>
        <time>2017-10-22T10:22:03.000Z</time>
      </trkpt>
      <trkpt lat="47.51175" lon="6.77099">
        <ele>419.3</ele>
        <time>2017-10-22T10:22:04.000Z</time>
      </trkpt>
      <trkpt lat="47.51177" lon="6.77104">
        <ele>419.8</ele>
        <time>2017-10-22T10:22:05.000Z</time>
      </trkpt>
      <trkpt lat="47.51179" lon="6.77107">
        <ele>419.8</ele>
        <time>2017-10-22T10:22:06.000Z</time>
      </trkpt>
      <trkpt lat="47.51182" lon="6.77112">
        <ele>419.9</ele>
        <time>2017-10-22T10:22:07.000Z</time>
      </trkpt>
      <trkpt lat="47.51184" lon="6.77116">
        <ele>419.9</ele>
        <time>2017-10-22T10:22:08.000Z</time>
      </trkpt>
      <trkpt lat="47.51187" lon="6.77121">
        <ele>420</ele>
        <time>2017-10-22T10:22:09.000Z</time>
      </trkpt>
      <trkpt lat="47.5119" lon="6.77126">
        <ele>420</ele>
        <time>2017-10-22T10:22:10.000Z</time>
      </trkpt>
      <trkpt lat="47.51192" lon="6.7713">
        <ele>420.1</ele>
        <time>2017-10-22T10:22:11.000Z</time>
      </trkpt>
      <trkpt lat="47.51195" lon="6.77135">
        <ele>420.1</ele>
        <time>2017-10-22T10:22:12.000Z</time>
      </trkpt>
      <trkpt lat="47.51197" lon="6.77139">
        <ele>420.1</ele>
        <time>2017-10-22T10:22:13.000Z</time>
      </trkpt>
      <trkpt lat="47.51199" lon="6.77143">
        <ele>420.2</ele>
        <time>2017-10-22T10:22:14.000Z</time>
      </trkpt>
      <trkpt lat="47.51201" lon="6.77147">
        <ele>420.3</ele>
        <time>2017-10-22T10:22:15.000Z</time>
      </trkpt>
      <trkpt lat="47.51202" lon="6.77152">
        <ele>420.3</ele>
        <time>2017-10-22T10:22:16.000Z</time>
      </trkpt>
      <trkpt lat="47.51204" lon="6.77156">
        <ele>420.4</ele>
        <time>2017-10-22T10:22:17.000Z</time>
      </trkpt>
      <trkpt lat="47.51206" lon="6.7716">
        <ele>420.4</ele>
        <time>2017-10-22T10:22:18.000Z</time>
      </trkpt>
      <trkpt lat="47.51209" lon="6.77165">
        <ele>420.5</ele>
        <time>2017-10-22T10:22:19.000Z</time>
      </trkpt>
      <trkpt lat="47.51211" lon="6.7717">
        <ele>420.5</ele>
        <time>2017-10-22T10:22:20.000Z</time>
      </trkpt>
      <trkpt lat="47.51213" lon="6.77175">
        <ele>420.6</ele>
        <time>2017-10-22T10:22:21.000Z</time>
      </trkpt>
      <trkpt lat="47.51215" lon="6.77179">
        <ele>420.7</ele>
        <time>2017-10-22T10:22:22.000Z</time>
      </trkpt>
      <trkpt lat="47.51217" lon="6.77183">
        <ele>420.7</ele>
        <time>2017-10-22T10:22:23.000Z</time>
      </trkpt>
      <trkpt lat="47.51219" lon="6.77186">
        <ele>420.8</ele>
        <time>2017-10-22T10:22:24.000Z</time>
      </trkpt>
      <trkpt lat="47.51222" lon="6.77191">
        <ele>420.8</ele>
        <time>2017-10-22T10:22:25.000Z</time>
      </trkpt>
      <trkpt lat="47.51225" lon="6.77196">
        <ele>420.8</ele>
        <time>2017-10-22T10:22:26.000Z</time>
      </trkpt>
      <trkpt lat="47.51228" lon="6.77201">
        <ele>420.9</ele>
        <time>2017-10-22T10:22:27.000Z</time>
      </trkpt>
      <trkpt lat="47.51231" lon="6.77206">
        <ele>420.9</ele>
        <time>2017-10-22T10:22:28.000Z</time>
      </trkpt>
      <trkpt lat="47.51233" lon="6.7721">
        <ele>421</ele>
        <time>2017-10-22T10:22:29.000Z</time>
      </trkpt>
      <trkpt lat="47.51235" lon="6.77213">
        <ele>421.1</ele>
        <time>2017-10-22T10:22:30.000Z</time>
      </trkpt>
      <trkpt lat="47.51238" lon="6.77218">
        <ele>421.2</ele>
        <time>2017-10-22T10:22:31.000Z</time>
      </trkpt>
      <trkpt lat="47.51241" lon="6.77223">
        <ele>421.5</ele>
        <time>2017-10-22T10:22:32.000Z</time>
      </trkpt>
      <trkpt lat="47.51243" lon="6.77227">
        <ele>421.6</ele>
        <time>2017-10-22T10:22:33.000Z</time>
      </trkpt>
      <trkpt lat="47.51244" lon="6.77231">
        <ele>421.7</ele>
        <time>2017-10-22T10:22:34.000Z</time>
      </trkpt>
      <trkpt lat="47.51247" lon="6.77237">
        <ele>421.7</ele>
        <time>2017-10-22T10:22:35.000Z</time>
      </trkpt>
      <trkpt lat="47.5125" lon="6.7724">
        <ele>422.7</ele>
        <time>2017-10-22T10:22:36.000Z</time>
      </trkpt>
      <trkpt lat="47.51252" lon="6.77244">
        <ele>422.7</ele>
        <time>2017-10-22T10:22:37.000Z</time>
      </trkpt>
      <trkpt lat="47.51256" lon="6.77248">
        <ele>422.7</ele>
        <time>2017-10-22T10:22:38.000Z</time>
      </trkpt>
      <trkpt lat="47.51259" lon="6.77252">
        <ele>422.7</ele>
        <time>2017-10-22T10:22:39.000Z</time>
      </trkpt>
      <trkpt lat="47.51262" lon="6.77256">
        <ele>422.6</ele>
        <time>2017-10-22T10:22:40.000Z</time>
      </trkpt>
      <trkpt lat="47.51265" lon="6.7726">
        <ele>422.6</ele>
        <time>2017-10-22T10:22:41.000Z</time>
      </trkpt>
      <trkpt lat="47.51269" lon="6.77263">
        <ele>422.6</ele>
        <time>2017-10-22T10:22:42.000Z</time>
      </trkpt>
      <trkpt lat="47.51273" lon="6.77267">
        <ele>422.8</ele>
        <time>2017-10-22T10:22:43.000Z</time>
      </trkpt>
      <trkpt lat="47.51277" lon="6.7727">
        <ele>423.8</ele>
        <time>2017-10-22T10:22:44.000Z</time>
      </trkpt>
      <trkpt lat="47.51281" lon="6.77272">
        <ele>424.3</ele>
        <time>2017-10-22T10:22:45.000Z</time>
      </trkpt>
      <trkpt lat="47.51285" lon="6.77275">
        <ele>424.9</ele>
        <time>2017-10-22T10:22:46.000Z</time>
      </trkpt>
      <trkpt lat="47.51289" lon="6.77276">
        <ele>425.6</ele>
        <time>2017-10-22T10:22:47.000Z</time>
      </trkpt>
      <trkpt lat="47.51294" lon="6.77279">
        <ele>425.7</ele>
        <time>2017-10-22T10:22:48.000Z</time>
      </trkpt>
      <trkpt lat="47.51299" lon="6.77282">
        <ele>425.8</ele>
        <time>2017-10-22T10:22:49.000Z</time>
      </trkpt>
      <trkpt lat="47.51304" lon="6.77284">
        <ele>426</ele>
        <time>2017-10-22T10:22:50.000Z</time>
      </trkpt>
      <trkpt lat="47.51309" lon="6.77287">
        <ele>425.8</ele>
        <time>2017-10-22T10:22:51.000Z</time>
      </trkpt>
      <trkpt lat="47.51315" lon="6.77289">
        <ele>425.6</ele>
        <time>2017-10-22T10:22:52.000Z</time>
      </trkpt>
      <trkpt lat="47.51321" lon="6.7729">
        <ele>425.2</ele>
        <time>2017-10-22T10:22:53.000Z</time>
      </trkpt>
      <trkpt lat="47.51327" lon="6.7729">
        <ele>424.6</ele>
        <time>2017-10-22T10:22:54.000Z</time>
      </trkpt>
      <trkpt lat="47.51333" lon="6.77287">
        <ele>424.4</ele>
        <time>2017-10-22T10:22:55.000Z</time>
      </trkpt>
      <trkpt lat="47.51339" lon="6.77284">
        <ele>424.2</ele>
        <time>2017-10-22T10:22:56.000Z</time>
      </trkpt>
      <trkpt lat="47.51345" lon="6.7728">
        <ele>424</ele>
        <time>2017-10-22T10:22:57.000Z</time>
      </trkpt>
      <trkpt lat="47.51351" lon="6.77276">
        <ele>423.6</ele>
        <time>2017-10-22T10:22:58.000Z</time>
      </trkpt>
      <trkpt lat="47.51357" lon="6.77271">
        <ele>422.9</ele>
        <time>2017-10-22T10:22:59.000Z</time>
      </trkpt>
      <trkpt lat="47.51364" lon="6.77266">
        <ele>422.1</ele>
        <time>2017-10-22T10:23:00.000Z</time>
      </trkpt>
      <trkpt lat="47.51371" lon="6.7726">
        <ele>421.5</ele>
        <time>2017-10-22T10:23:01.000Z</time>
      </trkpt>
      <trkpt lat="47.51378" lon="6.77255">
        <ele>421.3</ele>
        <time>2017-10-22T10:23:02.000Z</time>
      </trkpt>
      <trkpt lat="47.51385" lon="6.7725">
        <ele>421</ele>
        <time>2017-10-22T10:23:03.000Z</time>
      </trkpt>
      <trkpt lat="47.51393" lon="6.77245">
        <ele>420.6</ele>
        <time>2017-10-22T10:23:04.000Z</time>
      </trkpt>
      <trkpt lat="47.51401" lon="6.77241">
        <ele>419.8</ele>
        <time>2017-10-22T10:23:05.000Z</time>
      </trkpt>
      <trkpt lat="47.51409" lon="6.77236">
        <ele>419.2</ele>
        <time>2017-10-22T10:23:06.000Z</time>
      </trkpt>
      <trkpt lat="47.51417" lon="6.77232">
        <ele>418.9</ele>
        <time>2017-10-22T10:23:07.000Z</time>
      </trkpt>
      <trkpt lat="47.51424" lon="6.77227">
        <ele>418.9</ele>
        <time>2017-10-22T10:23:08.000Z</time>
      </trkpt>
      <trkpt lat="47.51431" lon="6.77224">
        <ele>418.9</ele>
        <time>2017-10-22T10:23:09.000Z</time>
      </trkpt>
      <trkpt lat="47.51438" lon="6.7722">
        <ele>419.1</ele>
        <time>2017-10-22T10:23:10.000Z</time>
      </trkpt>
      <trkpt lat="47.51445" lon="6.77217">
        <ele>419.3</ele>
        <time>2017-10-22T10:23:11.000Z</time>
      </trkpt>
      <trkpt lat="47.51451" lon="6.77213">
        <ele>419.7</ele>
        <time>2017-10-22T10:23:12.000Z</time>
      </trkpt>
      <trkpt lat="47.51456" lon="6.77211">
        <ele>420</ele>
        <time>2017-10-22T10:23:13.000Z</time>
      </trkpt>
      <trkpt lat="47.51462" lon="6.77209">
        <ele>420.4</ele>
        <time>2017-10-22T10:23:14.000Z</time>
      </trkpt>
      <trkpt lat="47.51466" lon="6.77207">
        <ele>420.7</ele>
        <time>2017-10-22T10:23:15.000Z</time>
      </trkpt>
      <trkpt lat="47.5147" lon="6.77205">
        <ele>420.9</ele>
        <time>2017-10-22T10:23:16.000Z</time>
      </trkpt>
      <trkpt lat="47.51473" lon="6.77204">
        <ele>420.9</ele>
        <time>2017-10-22T10:23:17.000Z</time>
      </trkpt>
      <trkpt lat="47.51475" lon="6.77205">
        <ele>420.9</ele>
        <time>2017-10-22T10:23:18.000Z</time>
      </trkpt>
      <trkpt lat="47.51477" lon="6.77207">
        <ele>421</ele>
        <time>2017-10-22T10:23:19.000Z</time>
      </trkpt>
      <trkpt lat="47.51479" lon="6.77211">
        <ele>421</ele>
        <time>2017-10-22T10:23:20.000Z</time>
      </trkpt>
      <trkpt lat="47.5148" lon="6.77216">
        <ele>421.1</ele>
        <time>2017-10-22T10:23:21.000Z</time>
      </trkpt>
      <trkpt lat="47.51481" lon="6.77223">
        <ele>421.7</ele>
        <time>2017-10-22T10:23:22.000Z</time>
      </trkpt>
      <trkpt lat="47.51482" lon="6.7723">
        <ele>422.3</ele>
        <time>2017-10-22T10:23:23.000Z</time>
      </trkpt>
      <trkpt lat="47.51482" lon="6.77238">
        <ele>422.5</ele>
        <time>2017-10-22T10:23:24.000Z</time>
      </trkpt>
      <trkpt lat="47.51483" lon="6.77244">
        <ele>422.3</ele>
        <time>2017-10-22T10:23:25.000Z</time>
      </trkpt>
      <trkpt lat="47.51483" lon="6.77251">
        <ele>422</ele>
        <time>2017-10-22T10:23:26.000Z</time>
      </trkpt>
      <trkpt lat="47.51483" lon="6.77257">
        <ele>421.9</ele>
        <time>2017-10-22T10:23:27.000Z</time>
      </trkpt>
      <trkpt lat="47.51483" lon="6.77264">
        <ele>421.7</ele>
        <time>2017-10-22T10:23:28.000Z</time>
      </trkpt>
      <trkpt lat="47.51484" lon="6.7727">
        <ele>421.6</ele>
        <time>2017-10-22T10:23:29.000Z</time>
      </trkpt>
      <trkpt lat="47.51484" lon="6.77276">
        <ele>422.2</ele>
        <time>2017-10-22T10:23:30.000Z</time>
      </trkpt>
      <trkpt lat="47.51484" lon="6.77281">
        <ele>422.3</ele>
        <time>2017-10-22T10:23:31.000Z</time>
      </trkpt>
      <trkpt lat="47.51485" lon="6.77286">
        <ele>422.4</ele>
        <time>2017-10-22T10:23:32.000Z</time>
      </trkpt>
      <trkpt lat="47.51485" lon="6.77292">
        <ele>422.4</ele>
        <time>2017-10-22T10:23:33.000Z</time>
      </trkpt>
      <trkpt lat="47.51485" lon="6.77298">
        <ele>422.4</ele>
        <time>2017-10-22T10:23:34.000Z</time>
      </trkpt>
      <trkpt lat="47.51485" lon="6.77302">
        <ele>422.5</ele>
        <time>2017-10-22T10:23:35.000Z</time>
      </trkpt>
      <trkpt lat="47.51485" lon="6.77308">
        <ele>422.5</ele>
        <time>2017-10-22T10:23:36.000Z</time>
      </trkpt>
      <trkpt lat="47.51485" lon="6.77312">
        <ele>422.6</ele>
        <time>2017-10-22T10:23:37.000Z</time>
      </trkpt>
      <trkpt lat="47.51485" lon="6.77317">
        <ele>422.7</ele>
        <time>2017-10-22T10:23:38.000Z</time>
      </trkpt>
      <trkpt lat="47.51485" lon="6.7732">
        <ele>422.8</ele>
        <time>2017-10-22T10:23:39.000Z</time>
      </trkpt>
      <trkpt lat="47.51487" lon="6.77324">
        <ele>422.9</ele>
        <time>2017-10-22T10:23:40.000Z</time>
      </trkpt>
      <trkpt lat="47.51488" lon="6.77325">
        <ele>422.9</ele>
        <time>2017-10-22T10:23:41.000Z</time>
      </trkpt>
      <trkpt lat="47.51491" lon="6.77327">
        <ele>423</ele>
        <time>2017-10-22T10:23:42.000Z</time>
      </trkpt>
      <trkpt lat="47.51495" lon="6.77329">
        <ele>423.1</ele>
        <time>2017-10-22T10:23:43.000Z</time>
      </trkpt>
      <trkpt lat="47.51498" lon="6.7733">
        <ele>423.2</ele>
        <time>2017-10-22T10:23:44.000Z</time>
      </trkpt>
      <trkpt lat="47.51502" lon="6.77332">
        <ele>423.4</ele>
        <time>2017-10-22T10:23:45.000Z</time>
      </trkpt>
      <trkpt lat="47.51505" lon="6.77334">
        <ele>423.4</ele>
        <time>2017-10-22T10:23:46.000Z</time>
      </trkpt>
      <trkpt lat="47.51508" lon="6.77335">
        <ele>423.5</ele>
        <time>2017-10-22T10:23:47.000Z</time>
      </trkpt>
      <trkpt lat="47.51511" lon="6.77337">
        <ele>423.5</ele>
        <time>2017-10-22T10:23:48.000Z</time>
      </trkpt>
      <trkpt lat="47.51514" lon="6.77339">
        <ele>423.6</ele>
        <time>2017-10-22T10:23:49.000Z</time>
      </trkpt>
      <trkpt lat="47.51518" lon="6.77341">
        <ele>423.6</ele>
        <time>2017-10-22T10:23:50.000Z</time>
      </trkpt>
      <trkpt lat="47.51521" lon="6.77344">
        <ele>423.6</ele>
        <time>2017-10-22T10:23:51.000Z</time>
      </trkpt>
      <trkpt lat="47.51523" lon="6.77348">
        <ele>423.2</ele>
        <time>2017-10-22T10:23:52.000Z</time>
      </trkpt>
      <trkpt lat="47.51526" lon="6.77351">
        <ele>423.2</ele>
        <time>2017-10-22T10:23:53.000Z</time>
      </trkpt>
      <trkpt lat="47.51529" lon="6.77354">
        <ele>423.2</ele>
        <time>2017-10-22T10:23:54.000Z</time>
      </trkpt>
      <trkpt lat="47.51532" lon="6.77358">
        <ele>423.2</ele>
        <time>2017-10-22T10:23:55.000Z</time>
      </trkpt>
      <trkpt lat="47.51534" lon="6.77362">
        <ele>423.2</ele>
        <time>2017-10-22T10:23:56.000Z</time>
      </trkpt>
      <trkpt lat="47.51537" lon="6.77365">
        <ele>423.2</ele>
        <time>2017-10-22T10:23:57.000Z</time>
      </trkpt>
      <trkpt lat="47.51539" lon="6.77368">
        <ele>423.2</ele>
        <time>2017-10-22T10:23:58.000Z</time>
      </trkpt>
      <trkpt lat="47.51542" lon="6.77371">
        <ele>423.2</ele>
        <time>2017-10-22T10:23:59.000Z</time>
      </trkpt>
      <trkpt lat="47.51545" lon="6.77375">
        <ele>423.1</ele>
        <time>2017-10-22T10:24:00.000Z</time>
      </trkpt>
      <trkpt lat="47.51548" lon="6.77379">
        <ele>423.1</ele>
        <time>2017-10-22T10:24:01.000Z</time>
      </trkpt>
      <trkpt lat="47.51551" lon="6.77382">
        <ele>423.1</ele>
        <time>2017-10-22T10:24:02.000Z</time>
      </trkpt>
      <trkpt lat="47.51554" lon="6.77384">
        <ele>423.1</ele>
        <time>2017-10-22T10:24:03.000Z</time>
      </trkpt>
      <trkpt lat="47.51555" lon="6.77387">
        <ele>423.1</ele>
        <time>2017-10-22T10:24:04.000Z</time>
      </trkpt>
      <trkpt lat="47.51558" lon="6.77392">
        <ele>423</ele>
        <time>2017-10-22T10:24:05.000Z</time>
      </trkpt>
      <trkpt lat="47.51561" lon="6.77395">
        <ele>422.9</ele>
        <time>2017-10-22T10:24:06.000Z</time>
      </trkpt>
      <trkpt lat="47.51563" lon="6.77397">
        <ele>422.9</ele>
        <time>2017-10-22T10:24:07.000Z</time>
      </trkpt>
      <trkpt lat="47.51566" lon="6.774">
        <ele>422.9</ele>
        <time>2017-10-22T10:24:08.000Z</time>
      </trkpt>
      <trkpt lat="47.51569" lon="6.77403">
        <ele>422.8</ele>
        <time>2017-10-22T10:24:09.000Z</time>
      </trkpt>
      <trkpt lat="47.51571" lon="6.77407">
        <ele>422.9</ele>
        <time>2017-10-22T10:24:10.000Z</time>
      </trkpt>
      <trkpt lat="47.51574" lon="6.7741">
        <ele>422.8</ele>
        <time>2017-10-22T10:24:11.000Z</time>
      </trkpt>
      <trkpt lat="47.51576" lon="6.77412">
        <ele>422.9</ele>
        <time>2017-10-22T10:24:12.000Z</time>
      </trkpt>
      <trkpt lat="47.51578" lon="6.77415">
        <ele>423</ele>
        <time>2017-10-22T10:24:13.000Z</time>
      </trkpt>
      <trkpt lat="47.51581" lon="6.77417">
        <ele>423.1</ele>
        <time>2017-10-22T10:24:14.000Z</time>
      </trkpt>
      <trkpt lat="47.51583" lon="6.7742">
        <ele>423.2</ele>
        <time>2017-10-22T10:24:15.000Z</time>
      </trkpt>
      <trkpt lat="47.51586" lon="6.77425">
        <ele>423.2</ele>
        <time>2017-10-22T10:24:16.000Z</time>
      </trkpt>
      <trkpt lat="47.51588" lon="6.77428">
        <ele>423.3</ele>
        <time>2017-10-22T10:24:17.000Z</time>
      </trkpt>
      <trkpt lat="47.5159" lon="6.77431">
        <ele>423.5</ele>
        <time>2017-10-22T10:24:18.000Z</time>
      </trkpt>
      <trkpt lat="47.51593" lon="6.77434">
        <ele>423.6</ele>
        <time>2017-10-22T10:24:19.000Z</time>
      </trkpt>
      <trkpt lat="47.51596" lon="6.77436">
        <ele>423.8</ele>
        <time>2017-10-22T10:24:20.000Z</time>
      </trkpt>
      <trkpt lat="47.51599" lon="6.7744">
        <ele>424</ele>
        <time>2017-10-22T10:24:21.000Z</time>
      </trkpt>
      <trkpt lat="47.51601" lon="6.77443">
        <ele>424.2</ele>
        <time>2017-10-22T10:24:22.000Z</time>
      </trkpt>
      <trkpt lat="47.51604" lon="6.77446">
        <ele>424.4</ele>
        <time>2017-10-22T10:24:23.000Z</time>
      </trkpt>
      <trkpt lat="47.51606" lon="6.77449">
        <ele>424.6</ele>
        <time>2017-10-22T10:24:24.000Z</time>
      </trkpt>
      <trkpt lat="47.51608" lon="6.77453">
        <ele>424.9</ele>
        <time>2017-10-22T10:24:25.000Z</time>
      </trkpt>
      <trkpt lat="47.5161" lon="6.77455">
        <ele>425.1</ele>
        <time>2017-10-22T10:24:26.000Z</time>
      </trkpt>
      <trkpt lat="47.51613" lon="6.7746">
        <ele>425.4</ele>
        <time>2017-10-22T10:24:28.000Z</time>
      </trkpt>
      <trkpt lat="47.51616" lon="6.77461">
        <ele>425.5</ele>
        <time>2017-10-22T10:24:29.000Z</time>
      </trkpt>
      <trkpt lat="47.51619" lon="6.77465">
        <ele>425.9</ele>
        <time>2017-10-22T10:24:31.000Z</time>
      </trkpt>
      <trkpt lat="47.51622" lon="6.77468">
        <ele>426</ele>
        <time>2017-10-22T10:24:32.000Z</time>
      </trkpt>
      <trkpt lat="47.51624" lon="6.77471">
        <ele>426</ele>
        <time>2017-10-22T10:24:33.000Z</time>
      </trkpt>
      <trkpt lat="47.51626" lon="6.77474">
        <ele>426</ele>
        <time>2017-10-22T10:24:34.000Z</time>
      </trkpt>
      <trkpt lat="47.51627" lon="6.77477">
        <ele>426.1</ele>
        <time>2017-10-22T10:24:35.000Z</time>
      </trkpt>
      <trkpt lat="47.51629" lon="6.77481">
        <ele>426.2</ele>
        <time>2017-10-22T10:24:36.000Z</time>
      </trkpt>
      <trkpt lat="47.51632" lon="6.77485">
        <ele>426.2</ele>
        <time>2017-10-22T10:24:37.000Z</time>
      </trkpt>
      <trkpt lat="47.51634" lon="6.77488">
        <ele>426.3</ele>
        <time>2017-10-22T10:24:38.000Z</time>
      </trkpt>
      <trkpt lat="47.51636" lon="6.77492">
        <ele>426.3</ele>
        <time>2017-10-22T10:24:39.000Z</time>
      </trkpt>
      <trkpt lat="47.51639" lon="6.77495">
        <ele>426.3</ele>
        <time>2017-10-22T10:24:40.000Z</time>
      </trkpt>
      <trkpt lat="47.51642" lon="6.77498">
        <ele>426.3</ele>
        <time>2017-10-22T10:24:41.000Z</time>
      </trkpt>
      <trkpt lat="47.51645" lon="6.77501">
        <ele>426.3</ele>
        <time>2017-10-22T10:24:42.000Z</time>
      </trkpt>
      <trkpt lat="47.51648" lon="6.77504">
        <ele>426.3</ele>
        <time>2017-10-22T10:24:43.000Z</time>
      </trkpt>
      <trkpt lat="47.5165" lon="6.77507">
        <ele>426.4</ele>
        <time>2017-10-22T10:24:44.000Z</time>
      </trkpt>
      <trkpt lat="47.51653" lon="6.77511">
        <ele>426.5</ele>
        <time>2017-10-22T10:24:45.000Z</time>
      </trkpt>
      <trkpt lat="47.51656" lon="6.77513">
        <ele>426.5</ele>
        <time>2017-10-22T10:24:46.000Z</time>
      </trkpt>
      <trkpt lat="47.51657" lon="6.77515">
        <ele>426.6</ele>
        <time>2017-10-22T10:24:47.000Z</time>
      </trkpt>
      <trkpt lat="47.51659" lon="6.77517">
        <ele>426.7</ele>
        <time>2017-10-22T10:24:48.000Z</time>
      </trkpt>
      <trkpt lat="47.51661" lon="6.7752">
        <ele>426.8</ele>
        <time>2017-10-22T10:24:49.000Z</time>
      </trkpt>
      <trkpt lat="47.51664" lon="6.77522">
        <ele>427</ele>
        <time>2017-10-22T10:24:50.000Z</time>
      </trkpt>
      <trkpt lat="47.51666" lon="6.77526">
        <ele>427.1</ele>
        <time>2017-10-22T10:24:51.000Z</time>
      </trkpt>
      <trkpt lat="47.51668" lon="6.77529">
        <ele>427.2</ele>
        <time>2017-10-22T10:24:52.000Z</time>
      </trkpt>
      <trkpt lat="47.51671" lon="6.77533">
        <ele>427.3</ele>
        <time>2017-10-22T10:24:53.000Z</time>
      </trkpt>
      <trkpt lat="47.51673" lon="6.77536">
        <ele>427.4</ele>
        <time>2017-10-22T10:24:54.000Z</time>
      </trkpt>
      <trkpt lat="47.51676" lon="6.77539">
        <ele>427.5</ele>
        <time>2017-10-22T10:24:55.000Z</time>
      </trkpt>
      <trkpt lat="47.51678" lon="6.77541">
        <ele>427.6</ele>
        <time>2017-10-22T10:24:56.000Z</time>
      </trkpt>
      <trkpt lat="47.51681" lon="6.77544">
        <ele>427.7</ele>
        <time>2017-10-22T10:24:57.000Z</time>
      </trkpt>
      <trkpt lat="47.51684" lon="6.77548">
        <ele>427.8</ele>
        <time>2017-10-22T10:24:58.000Z</time>
      </trkpt>
      <trkpt lat="47.51687" lon="6.77551">
        <ele>428</ele>
        <time>2017-10-22T10:24:59.000Z</time>
      </trkpt>
      <trkpt lat="47.51689" lon="6.77553">
        <ele>428.2</ele>
        <time>2017-10-22T10:25:00.000Z</time>
      </trkpt>
      <trkpt lat="47.51692" lon="6.77556">
        <ele>428.5</ele>
        <time>2017-10-22T10:25:02.000Z</time>
      </trkpt>
      <trkpt lat="47.51693" lon="6.77557">
        <ele>428.6</ele>
        <time>2017-10-22T10:25:03.000Z</time>
      </trkpt>
      <trkpt lat="47.51695" lon="6.7756">
        <ele>429</ele>
        <time>2017-10-22T10:25:05.000Z</time>
      </trkpt>
      <trkpt lat="47.51696" lon="6.77562">
        <ele>429.1</ele>
        <time>2017-10-22T10:25:06.000Z</time>
      </trkpt>
      <trkpt lat="47.517" lon="6.77559">
        <ele>429.3</ele>
        <time>2017-10-22T10:25:08.000Z</time>
      </trkpt>
      <trkpt lat="47.51701" lon="6.77557">
        <ele>429.4</ele>
        <time>2017-10-22T10:25:09.000Z</time>
      </trkpt>
      <trkpt lat="47.51702" lon="6.77555">
        <ele>429.6</ele>
        <time>2017-10-22T10:25:10.000Z</time>
      </trkpt>
      <trkpt lat="47.51705" lon="6.77553">
        <ele>429.7</ele>
        <time>2017-10-22T10:25:11.000Z</time>
      </trkpt>
      <trkpt lat="47.51709" lon="6.77551">
        <ele>430.1</ele>
        <time>2017-10-22T10:25:13.000Z</time>
      </trkpt>
      <trkpt lat="47.51712" lon="6.77546">
        <ele>430.3</ele>
        <time>2017-10-22T10:25:15.000Z</time>
      </trkpt>
      <trkpt lat="47.51713" lon="6.77542">
        <ele>430.4</ele>
        <time>2017-10-22T10:25:16.000Z</time>
      </trkpt>
      <trkpt lat="47.51714" lon="6.77537">
        <ele>430.6</ele>
        <time>2017-10-22T10:25:17.000Z</time>
      </trkpt>
      <trkpt lat="47.51715" lon="6.77533">
        <ele>430.7</ele>
        <time>2017-10-22T10:25:18.000Z</time>
      </trkpt>
      <trkpt lat="47.51716" lon="6.77528">
        <ele>430.8</ele>
        <time>2017-10-22T10:25:19.000Z</time>
      </trkpt>
      <trkpt lat="47.5172" lon="6.77521">
        <ele>431.1</ele>
        <time>2017-10-22T10:25:21.000Z</time>
      </trkpt>
      <trkpt lat="47.51722" lon="6.77517">
        <ele>431.3</ele>
        <time>2017-10-22T10:25:22.000Z</time>
      </trkpt>
      <trkpt lat="47.51723" lon="6.77512">
        <ele>431.4</ele>
        <time>2017-10-22T10:25:23.000Z</time>
      </trkpt>
      <trkpt lat="47.51725" lon="6.77505">
        <ele>431.6</ele>
        <time>2017-10-22T10:25:24.000Z</time>
      </trkpt>
      <trkpt lat="47.51727" lon="6.77494">
        <ele>432.1</ele>
        <time>2017-10-22T10:25:26.000Z</time>
      </trkpt>
      <trkpt lat="47.51728" lon="6.77489">
        <ele>432.3</ele>
        <time>2017-10-22T10:25:27.000Z</time>
      </trkpt>
      <trkpt lat="47.51729" lon="6.77483">
        <ele>432.5</ele>
        <time>2017-10-22T10:25:28.000Z</time>
      </trkpt>
      <trkpt lat="47.51731" lon="6.7748">
        <ele>432.6</ele>
        <time>2017-10-22T10:25:29.000Z</time>
      </trkpt>
      <trkpt lat="47.51734" lon="6.7748">
        <ele>432.8</ele>
        <time>2017-10-22T10:25:30.000Z</time>
      </trkpt>
      <trkpt lat="47.5174" lon="6.77481">
        <ele>433</ele>
        <time>2017-10-22T10:25:32.000Z</time>
      </trkpt>
      <trkpt lat="47.51748" lon="6.77481">
        <ele>433.2</ele>
        <time>2017-10-22T10:25:34.000Z</time>
      </trkpt>
      <trkpt lat="47.51756" lon="6.7748">
        <ele>433.4</ele>
        <time>2017-10-22T10:25:36.000Z</time>
      </trkpt>
      <trkpt lat="47.51759" lon="6.77481">
        <ele>433.5</ele>
        <time>2017-10-22T10:25:37.000Z</time>
      </trkpt>
      <trkpt lat="47.51763" lon="6.77481">
        <ele>435.4</ele>
        <time>2017-10-22T10:25:38.000Z</time>
      </trkpt>
      <trkpt lat="47.51766" lon="6.77482">
        <ele>435.6</ele>
        <time>2017-10-22T10:25:39.000Z</time>
      </trkpt>
      <trkpt lat="47.5177" lon="6.77483">
        <ele>437.2</ele>
        <time>2017-10-22T10:25:40.000Z</time>
      </trkpt>
      <trkpt lat="47.51775" lon="6.77485">
        <ele>438.4</ele>
        <time>2017-10-22T10:25:41.000Z</time>
      </trkpt>
      <trkpt lat="47.5178" lon="6.77488">
        <ele>439.6</ele>
        <time>2017-10-22T10:25:42.000Z</time>
      </trkpt>
      <trkpt lat="47.51784" lon="6.77492">
        <ele>440.3</ele>
        <time>2017-10-22T10:25:43.000Z</time>
      </trkpt>
      <trkpt lat="47.51788" lon="6.77494">
        <ele>440.6</ele>
        <time>2017-10-22T10:25:44.000Z</time>
      </trkpt>
      <trkpt lat="47.51794" lon="6.77496">
        <ele>440.8</ele>
        <time>2017-10-22T10:25:45.000Z</time>
      </trkpt>
      <trkpt lat="47.51798" lon="6.77497">
        <ele>440.6</ele>
        <time>2017-10-22T10:25:46.000Z</time>
      </trkpt>
      <trkpt lat="47.51803" lon="6.77494">
        <ele>440.6</ele>
        <time>2017-10-22T10:25:47.000Z</time>
      </trkpt>
      <trkpt lat="47.51805" lon="6.7749">
        <ele>440.4</ele>
        <time>2017-10-22T10:25:48.000Z</time>
      </trkpt>
      <trkpt lat="47.51805" lon="6.77486">
        <ele>440.2</ele>
        <time>2017-10-22T10:25:49.000Z</time>
      </trkpt>
      <trkpt lat="47.51807" lon="6.77492">
        <ele>439.3</ele>
        <time>2017-10-22T10:25:58.000Z</time>
      </trkpt>
      <trkpt lat="47.51806" lon="6.77494">
        <ele>439.1</ele>
        <time>2017-10-22T10:25:59.000Z</time>
      </trkpt>
      <trkpt lat="47.51802" lon="6.7749">
        <ele>438.7</ele>
        <time>2017-10-22T10:26:01.000Z</time>
      </trkpt>
      <trkpt lat="47.51798" lon="6.77491">
        <ele>436.7</ele>
        <time>2017-10-22T10:26:02.000Z</time>
      </trkpt>
      <trkpt lat="47.51796" lon="6.7749">
        <ele>436.5</ele>
        <time>2017-10-22T10:26:03.000Z</time>
      </trkpt>
      <trkpt lat="47.51794" lon="6.77489">
        <ele>436.3</ele>
        <time>2017-10-22T10:26:04.000Z</time>
      </trkpt>
      <trkpt lat="47.51797" lon="6.77492">
        <ele>433.9</ele>
        <time>2017-10-22T10:26:08.000Z</time>
      </trkpt>
      <trkpt lat="47.51801" lon="6.77492">
        <ele>432.6</ele>
        <time>2017-10-22T10:26:09.000Z</time>
      </trkpt>
      <trkpt lat="47.51804" lon="6.7749">
        <ele>432</ele>
        <time>2017-10-22T10:26:09.999Z</time>
      </trkpt>
      <trkpt lat="47.51807" lon="6.77486">
        <ele>431.5</ele>
        <time>2017-10-22T10:26:10.999Z</time>
      </trkpt>
      <trkpt lat="47.51807" lon="6.77482">
        <ele>431.5</ele>
        <time>2017-10-22T10:26:11.999Z</time>
      </trkpt>
      <trkpt lat="47.51806" lon="6.77477">
        <ele>431.6</ele>
        <time>2017-10-22T10:26:12.999Z</time>
      </trkpt>
      <trkpt lat="47.51805" lon="6.77472">
        <ele>434.9</ele>
        <time>2017-10-22T10:27:03.999Z</time>
      </trkpt>
      <trkpt lat="47.518" lon="6.77485">
        <ele>434.8</ele>
        <time>2017-10-22T10:27:04.999Z</time>
      </trkpt>
      <trkpt lat="47.518" lon="6.77485">
        <ele>434.8</ele>
        <time>2017-10-22T10:28:09.999Z</time>
      </trkpt>
      <trkpt lat="47.51796" lon="6.7747">
        <ele>434.8</ele>
        <time>2017-10-22T10:28:10.999Z</time>
      </trkpt>
      <trkpt lat="47.518" lon="6.77467">
        <ele>432.7</ele>
        <time>2017-10-22T10:28:24.999Z</time>
      </trkpt>
      <trkpt lat="47.518" lon="6.77466">
        <ele>432.6</ele>
        <time>2017-10-22T10:28:25.999Z</time>
      </trkpt>
      <trkpt lat="47.51803" lon="6.77464">
        <ele>432.9</ele>
        <time>2017-10-22T10:28:29.999Z</time>
      </trkpt>
      <trkpt lat="47.51806" lon="6.77467">
        <ele>433</ele>
        <time>2017-10-22T10:28:30.999Z</time>
      </trkpt>
      <trkpt lat="47.51809" lon="6.77471">
        <ele>434.9</ele>
        <time>2017-10-22T10:29:32.999Z</time>
      </trkpt>
      <trkpt lat="47.51809" lon="6.77471">
        <ele>435</ele>
        <time>2017-10-22T10:29:33.999Z</time>
      </trkpt>
      <trkpt lat="47.51806" lon="6.77475">
        <ele>436.5</ele>
        <time>2017-10-22T10:32:57.999Z</time>
      </trkpt>
      <trkpt lat="47.51806" lon="6.77477">
        <ele>436.6</ele>
        <time>2017-10-22T10:32:58.999Z</time>
      </trkpt>
      <trkpt lat="47.51802" lon="6.77473">
        <ele>436.7</ele>
        <time>2017-10-22T10:33:20.999Z</time>
      </trkpt>
      <trkpt lat="47.51802" lon="6.77473">
        <ele>436.7</ele>
        <time>2017-10-22T10:33:21.999Z</time>
      </trkpt>
      <trkpt lat="47.51799" lon="6.7747">
        <ele>438.1</ele>
        <time>2017-10-22T10:33:26.999Z</time>
      </trkpt>
      <trkpt lat="47.51795" lon="6.77461">
        <ele>438.5</ele>
        <time>2017-10-22T10:33:31.999Z</time>
      </trkpt>
      <trkpt lat="47.51797" lon="6.77463">
        <ele>438.4</ele>
        <time>2017-10-22T10:34:15.999Z</time>
      </trkpt>
      <trkpt lat="47.51798" lon="6.77467">
        <ele>438.2</ele>
        <time>2017-10-22T10:34:16.999Z</time>
      </trkpt>
      <trkpt lat="47.51801" lon="6.77472">
        <ele>438.3</ele>
        <time>2017-10-22T10:34:31.999Z</time>
      </trkpt>
      <trkpt lat="47.51802" lon="6.77473">
        <ele>438.5</ele>
        <time>2017-10-22T10:34:32.999Z</time>
      </trkpt>
      <trkpt lat="47.51799" lon="6.77467">
        <ele>439</ele>
        <time>2017-10-22T10:36:10.999Z</time>
      </trkpt>
      <trkpt lat="47.51799" lon="6.77467">
        <ele>438.9</ele>
        <time>2017-10-22T10:36:11.999Z</time>
      </trkpt>
      <trkpt lat="47.51802" lon="6.77471">
        <ele>437</ele>
        <time>2017-10-22T10:39:16.999Z</time>
      </trkpt>
      <trkpt lat="47.51803" lon="6.77471">
        <ele>437</ele>
        <time>2017-10-22T10:39:17.999Z</time>
      </trkpt>
      <trkpt lat="47.51807" lon="6.7747">
        <ele>437.1</ele>
        <time>2017-10-22T10:39:19.999Z</time>
      </trkpt>
      <trkpt lat="47.51808" lon="6.77469">
        <ele>437.2</ele>
        <time>2017-10-22T10:39:20.999Z</time>
      </trkpt>
      <trkpt lat="47.51808" lon="6.77476">
        <ele>438.7</ele>
        <time>2017-10-22T10:40:28.999Z</time>
      </trkpt>
      <trkpt lat="47.51809" lon="6.77476">
        <ele>438.8</ele>
        <time>2017-10-22T10:40:29.999Z</time>
      </trkpt>
      <trkpt lat="47.51813" lon="6.77474">
        <ele>439.1</ele>
        <time>2017-10-22T10:40:32.999Z</time>
      </trkpt>
      <trkpt lat="47.51814" lon="6.77472">
        <ele>439</ele>
        <time>2017-10-22T10:40:34.999Z</time>
      </trkpt>
      <trkpt lat="47.51814" lon="6.77468">
        <ele>438.8</ele>
        <time>2017-10-22T10:40:40.999Z</time>
      </trkpt>
    </trkseg>
  </trk>
</gpx>